<?xml version='1.0' encoding='UTF-8'?><gpx version="1.1" creator="JPX - https://github.com/jenetics/jpx" xmlns="http://www.topografix.com/GPX/1/1"><trk><trkseg><trkpt lat="44.05528057930677" lon="10.061313376359143"><ele>16.999999999999996</ele><time>2026-04-26T13:39:36.001Z</time></trkpt><trkpt lat="44.05522803603294" lon="10.061223177141745"><ele>17.0</ele><time>2026-04-26T13:41:59.002Z</time></trkpt><trkpt lat="44.05517079719177" lon="10.061160595607669"><ele>17.0</ele><time>2026-04-26T13:42:01.002Z</time></trkpt><trkpt lat="44.055115716855724" lon="10.06108783394686"><ele>17.0</ele><time>2026-04-26T13:42:03.002Z</time></trkpt><trkpt lat="44.05506583105788" lon="10.06103283626627"><ele>17.0</ele><time>2026-04-26T13:42:05.002Z</time></trkpt><trkpt lat="44.055001195351636" lon="10.061049487258325"><ele>16.999999999999996</ele><time>2026-04-26T13:42:08.002Z</time></trkpt><trkpt lat="44.05497804520979" lon="10.061149107283528"><ele>17.0</ele><time>2026-04-26T13:42:11.002Z</time></trkpt><trkpt lat="44.054953356878855" lon="10.06124892927087"><ele>17.0</ele><time>2026-04-26T13:42:14.002Z</time></trkpt><trkpt lat="44.054911820103335" lon="10.061324144106793"><ele>17.0</ele><time>2026-04-26T13:42:16.002Z</time></trkpt><trkpt lat="44.05486714598986" lon="10.06139464019704"><ele>17.0</ele><time>2026-04-26T13:42:18.002Z</time></trkpt><trkpt lat="44.05482619066531" lon="10.06146250191033"><ele>17.0</ele><time>2026-04-26T13:42:20.002Z</time></trkpt><trkpt lat="44.05486510450319" lon="10.061571131850881"><ele>17.0</ele><time>2026-04-26T13:42:23.002Z</time></trkpt><trkpt lat="44.054941775875015" lon="10.061650228143145"><ele>17.0</ele><time>2026-04-26T13:42:25.002Z</time></trkpt><trkpt lat="44.055003593739116" lon="10.061698288459308"><ele>17.0</ele><time>2026-04-26T13:42:26.002Z</time></trkpt><trkpt lat="44.05505909835193" lon="10.061746657542422"><ele>17.0</ele><time>2026-04-26T13:42:27.002Z</time></trkpt><trkpt lat="44.05516621746797" lon="10.06176777835321"><ele>17.0</ele><time>2026-04-26T13:42:30.002Z</time></trkpt><trkpt lat="44.05528203536938" lon="10.061626918073678"><ele>17.0</ele><time>2026-04-26T13:42:32.002Z</time></trkpt><trkpt lat="44.05537935270068" lon="10.061605715211739"><ele>17.0</ele><time>2026-04-26T13:42:34.002Z</time></trkpt><trkpt lat="44.05543698618222" lon="10.061703506936805"><ele>17.2</ele><time>2026-04-26T13:42:36.002Z</time></trkpt><trkpt lat="44.05545908657355" lon="10.061808592390513"><ele>17.4</ele><time>2026-04-26T13:42:55.002Z</time></trkpt><trkpt lat="44.05540890173995" lon="10.061964817648224"><ele>17.6</ele><time>2026-04-26T13:42:57.002Z</time></trkpt><trkpt lat="44.05536002585218" lon="10.062066787282896"><ele>17.8</ele><time>2026-04-26T13:42:58.002Z</time></trkpt><trkpt lat="44.05530600487136" lon="10.062180001392017"><ele>18.0</ele><time>2026-04-26T13:42:59.002Z</time></trkpt><trkpt lat="44.05526901210759" lon="10.062277340981824"><ele>18.0</ele><time>2026-04-26T13:43:00.002Z</time></trkpt><trkpt lat="44.055203248887636" lon="10.062443155889502"><ele>18.0</ele><time>2026-04-26T13:43:03.002Z</time></trkpt><trkpt lat="44.055142196517764" lon="10.06250117308041"><ele>18.0</ele><time>2026-04-26T13:43:05.002Z</time></trkpt><trkpt lat="44.0550856219864" lon="10.062558410382692"><ele>18.0</ele><time>2026-04-26T13:43:06.002Z</time></trkpt><trkpt lat="44.05501411775663" lon="10.062640498503294"><ele>18.0</ele><time>2026-04-26T13:43:07.002Z</time></trkpt><trkpt lat="44.05495154545186" lon="10.062734260903635"><ele>18.0</ele><time>2026-04-26T13:43:08.002Z</time></trkpt><trkpt lat="44.05491583736814" lon="10.062834580879741"><ele>18.0</ele><time>2026-04-26T13:43:09.002Z</time></trkpt><trkpt lat="44.05490427692945" lon="10.062936635855337"><ele>18.0</ele><time>2026-04-26T13:43:10.002Z</time></trkpt><trkpt lat="44.05491512754261" lon="10.063054424711364"><ele>18.0</ele><time>2026-04-26T13:43:11.002Z</time></trkpt><trkpt lat="44.05495140976505" lon="10.063162865941582"><ele>18.0</ele><time>2026-04-26T13:43:12.002Z</time></trkpt><trkpt lat="44.05500078925752" lon="10.063275281964389"><ele>18.0</ele><time>2026-04-26T13:43:13.002Z</time></trkpt><trkpt lat="44.055040905734245" lon="10.063397564906259"><ele>18.0</ele><time>2026-04-26T13:43:14.002Z</time></trkpt><trkpt lat="44.055069059256724" lon="10.063546696907393"><ele>18.0</ele><time>2026-04-26T13:43:15.002Z</time></trkpt><trkpt lat="44.05507914935718" lon="10.063714182314893"><ele>18.0</ele><time>2026-04-26T13:43:16.002Z</time></trkpt><trkpt lat="44.05507946717763" lon="10.063904613361094"><ele>18.0</ele><time>2026-04-26T13:43:17.002Z</time></trkpt><trkpt lat="44.05508535755503" lon="10.064101937248745"><ele>18.5</ele><time>2026-04-26T13:43:18.002Z</time></trkpt><trkpt lat="44.05509031643321" lon="10.064300741303596"><ele>19.0</ele><time>2026-04-26T13:43:19.002Z</time></trkpt><trkpt lat="44.05509788218207" lon="10.064498931719712"><ele>19.5</ele><time>2026-04-26T13:43:20.002Z</time></trkpt><trkpt lat="44.05510240272156" lon="10.064703169675832"><ele>20.0</ele><time>2026-04-26T13:43:21.002Z</time></trkpt><trkpt lat="44.055094160505966" lon="10.064909478102445"><ele>20.0</ele><time>2026-04-26T13:43:22.002Z</time></trkpt><trkpt lat="44.055066827662316" lon="10.065113002554005"><ele>20.0</ele><time>2026-04-26T13:43:23.002Z</time></trkpt><trkpt lat="44.05503683519997" lon="10.065318062978694"><ele>20.0</ele><time>2026-04-26T13:43:24.002Z</time></trkpt><trkpt lat="44.054968401836334" lon="10.065500639829615"><ele>20.0</ele><time>2026-04-26T13:43:25.002Z</time></trkpt><trkpt lat="44.05489795011897" lon="10.065698295804607"><ele>20.0</ele><time>2026-04-26T13:43:26.002Z</time></trkpt><trkpt lat="44.05479962438965" lon="10.06587056101333"><ele>20.0</ele><time>2026-04-26T13:43:27.002Z</time></trkpt><trkpt lat="44.05469790945029" lon="10.066044734441263"><ele>20.0</ele><time>2026-04-26T13:43:28.002Z</time></trkpt><trkpt lat="44.054592157596346" lon="10.066224883367202"><ele>20.0</ele><time>2026-04-26T13:43:29.002Z</time></trkpt><trkpt lat="44.054486118500584" lon="10.066411226789205"><ele>20.0</ele><time>2026-04-26T13:43:30.002Z</time></trkpt><trkpt lat="44.054378138109406" lon="10.06659733251243"><ele>20.0</ele><time>2026-04-26T13:43:31.002Z</time></trkpt><trkpt lat="44.054270210924884" lon="10.066777745145327"><ele>20.333333333333336</ele><time>2026-04-26T13:43:32.002Z</time></trkpt><trkpt lat="44.05416956384764" lon="10.066954442935904"><ele>20.666666666666668</ele><time>2026-04-26T13:43:33.002Z</time></trkpt><trkpt lat="44.054071928181486" lon="10.067125362081049"><ele>21.0</ele><time>2026-04-26T13:43:34.002Z</time></trkpt><trkpt lat="44.05397233640147" lon="10.067298086400186"><ele>20.666666666666668</ele><time>2026-04-26T13:43:35.002Z</time></trkpt><trkpt lat="44.05387868857086" lon="10.067468888739079"><ele>20.333333333333336</ele><time>2026-04-26T13:43:36.002Z</time></trkpt><trkpt lat="44.05378530925052" lon="10.067632956984802"><ele>20.0</ele><time>2026-04-26T13:43:37.002Z</time></trkpt><trkpt lat="44.053692455849344" lon="10.067797267658646"><ele>20.0</ele><time>2026-04-26T13:43:38.002Z</time></trkpt><trkpt lat="44.05359439008167" lon="10.06796769577861"><ele>20.0</ele><time>2026-04-26T13:43:39.002Z</time></trkpt><trkpt lat="44.053500497890575" lon="10.068130758165164"><ele>20.0</ele><time>2026-04-26T13:43:40.002Z</time></trkpt><trkpt lat="44.053395197071666" lon="10.068275997749685"><ele>20.25</ele><time>2026-04-26T13:43:41.002Z</time></trkpt><trkpt lat="44.05330727235387" lon="10.068438071112158"><ele>20.5</ele><time>2026-04-26T13:43:42.002Z</time></trkpt><trkpt lat="44.053221021358524" lon="10.068591031772815"><ele>20.75</ele><time>2026-04-26T13:43:43.002Z</time></trkpt><trkpt lat="44.05313971459975" lon="10.068742814927504"><ele>21.0</ele><time>2026-04-26T13:43:44.002Z</time></trkpt><trkpt lat="44.05304297490447" lon="10.068875994195261"><ele>21.0</ele><time>2026-04-26T13:43:45.002Z</time></trkpt><trkpt lat="44.05296251577378" lon="10.069022062286862"><ele>21.0</ele><time>2026-04-26T13:43:46.002Z</time></trkpt><trkpt lat="44.052879741830104" lon="10.06916374154727"><ele>21.0</ele><time>2026-04-26T13:43:47.002Z</time></trkpt><trkpt lat="44.05279828109595" lon="10.06930261495509"><ele>21.0</ele><time>2026-04-26T13:43:48.002Z</time></trkpt><trkpt lat="44.05272319087313" lon="10.069436120138878"><ele>21.200000000000003</ele><time>2026-04-26T13:43:49.002Z</time></trkpt><trkpt lat="44.05265476295521" lon="10.069561723785327"><ele>21.400000000000002</ele><time>2026-04-26T13:43:50.002Z</time></trkpt><trkpt lat="44.05258334832703" lon="10.069673656436901"><ele>21.6</ele><time>2026-04-26T13:43:51.002Z</time></trkpt><trkpt lat="44.05252267396467" lon="10.06979570429583"><ele>21.8</ele><time>2026-04-26T13:43:52.002Z</time></trkpt><trkpt lat="44.052460571920484" lon="10.06990664610776"><ele>22.0</ele><time>2026-04-26T13:43:53.002Z</time></trkpt><trkpt lat="44.0524059615989" lon="10.070017450494213"><ele>22.0</ele><time>2026-04-26T13:43:54.002Z</time></trkpt><trkpt lat="44.05234110597686" lon="10.0701176197696"><ele>22.0</ele><time>2026-04-26T13:43:55.002Z</time></trkpt><trkpt lat="44.05228441619721" lon="10.070214767493427"><ele>22.0</ele><time>2026-04-26T13:43:56.002Z</time></trkpt><trkpt lat="44.05223357413677" lon="10.070306950079887"><ele>22.0</ele><time>2026-04-26T13:43:57.002Z</time></trkpt><trkpt lat="44.052190916015064" lon="10.070388255676212"><ele>22.0</ele><time>2026-04-26T13:43:58.002Z</time></trkpt><trkpt lat="44.05215048187727" lon="10.070471278959626"><ele>22.0</ele><time>2026-04-26T13:43:59.002Z</time></trkpt><trkpt lat="44.05209563342213" lon="10.07053132025237"><ele>22.0</ele><time>2026-04-26T13:44:00.002Z</time></trkpt><trkpt lat="44.05202244689957" lon="10.070659339452726"><ele>22.0</ele><time>2026-04-26T13:44:02.002Z</time></trkpt><trkpt lat="44.0519662614763" lon="10.07075809109094"><ele>22.0</ele><time>2026-04-26T13:44:04.002Z</time></trkpt><trkpt lat="44.051916052224406" lon="10.070846338996786"><ele>22.0</ele><time>2026-04-26T13:44:29.002Z</time></trkpt><trkpt lat="44.05186495170775" lon="10.070936153460275"><ele>22.0</ele><time>2026-04-26T13:44:30.002Z</time></trkpt><trkpt lat="44.05180076776668" lon="10.071048947258259"><ele>21.666666666666664</ele><time>2026-04-26T13:44:31.002Z</time></trkpt><trkpt lat="44.05171805943196" lon="10.071194292292986"><ele>21.333333333333332</ele><time>2026-04-26T13:44:32.002Z</time></trkpt><trkpt lat="44.05161933433245" lon="10.071367784379337"><ele>21.0</ele><time>2026-04-26T13:44:33.002Z</time></trkpt><trkpt lat="44.05154243332128" lon="10.071603396605619"><ele>20.666666666666668</ele><time>2026-04-26T13:44:34.002Z</time></trkpt><trkpt lat="44.051415848418756" lon="10.071826400945191"><ele>20.333333333333336</ele><time>2026-04-26T13:44:35.002Z</time></trkpt><trkpt lat="44.051293977306024" lon="10.072037144824597"><ele>20.0</ele><time>2026-04-26T13:44:36.002Z</time></trkpt><trkpt lat="44.05117316143072" lon="10.072238927583005"><ele>20.0</ele><time>2026-04-26T13:44:37.002Z</time></trkpt><trkpt lat="44.05102150399769" lon="10.072391888039174"><ele>20.0</ele><time>2026-04-26T13:44:38.002Z</time></trkpt><trkpt lat="44.0509127020835" lon="10.07258418780363"><ele>20.0</ele><time>2026-04-26T13:44:39.002Z</time></trkpt><trkpt lat="44.05080464806912" lon="10.072774822252194"><ele>19.333333333333336</ele><time>2026-04-26T13:44:40.002Z</time></trkpt><trkpt lat="44.05069998072848" lon="10.072961766296702"><ele>18.666666666666668</ele><time>2026-04-26T13:44:41.003Z</time></trkpt><trkpt lat="44.050599726782586" lon="10.073155162219392"><ele>18.0</ele><time>2026-04-26T13:44:42.003Z</time></trkpt><trkpt lat="44.0505042634689" lon="10.073350379691615"><ele>18.0</ele><time>2026-04-26T13:44:43.003Z</time></trkpt><trkpt lat="44.0504124748697" lon="10.073545935444828"><ele>18.0</ele><time>2026-04-26T13:44:44.003Z</time></trkpt><trkpt lat="44.05034273362829" lon="10.073755755763257"><ele>18.0</ele><time>2026-04-26T13:44:45.003Z</time></trkpt><trkpt lat="44.05024322177052" lon="10.073935125569168"><ele>18.333333333333332</ele><time>2026-04-26T13:44:46.003Z</time></trkpt><trkpt lat="44.050151567841596" lon="10.074129954267516"><ele>18.666666666666664</ele><time>2026-04-26T13:44:47.003Z</time></trkpt><trkpt lat="44.05005830781735" lon="10.074322295996135"><ele>19.0</ele><time>2026-04-26T13:44:48.003Z</time></trkpt><trkpt lat="44.04996975202352" lon="10.074517918200383"><ele>17.666666666666664</ele><time>2026-04-26T13:44:49.003Z</time></trkpt><trkpt lat="44.04986033652561" lon="10.074708586773603"><ele>16.333333333333332</ele><time>2026-04-26T13:44:50.003Z</time></trkpt><trkpt lat="44.049764633017794" lon="10.074912349699035"><ele>15.0</ele><time>2026-04-26T13:44:51.003Z</time></trkpt><trkpt lat="44.04966990450372" lon="10.075111917541776"><ele>15.0</ele><time>2026-04-26T13:44:52.003Z</time></trkpt><trkpt lat="44.04957624853318" lon="10.075309704624688"><ele>15.0</ele><time>2026-04-26T13:44:53.003Z</time></trkpt><trkpt lat="44.04947777043605" lon="10.07551767249594"><ele>15.0</ele><time>2026-04-26T13:44:54.003Z</time></trkpt><trkpt lat="44.04937607244172" lon="10.075732436580873"><ele>15.0</ele><time>2026-04-26T13:44:55.003Z</time></trkpt><trkpt lat="44.04927755991608" lon="10.07594047357105"><ele>15.0</ele><time>2026-04-26T13:44:56.003Z</time></trkpt><trkpt lat="44.04917374672475" lon="10.076156441396423"><ele>15.0</ele><time>2026-04-26T13:44:57.003Z</time></trkpt><trkpt lat="44.04906716587697" lon="10.07637184307466"><ele>15.0</ele><time>2026-04-26T13:44:58.003Z</time></trkpt><trkpt lat="44.04895738477694" lon="10.076585800608868"><ele>15.0</ele><time>2026-04-26T13:44:59.003Z</time></trkpt><trkpt lat="44.048841850170746" lon="10.076804101122864"><ele>15.0</ele><time>2026-04-26T13:45:00.003Z</time></trkpt><trkpt lat="44.04872483532228" lon="10.07701639146041"><ele>15.333333333333332</ele><time>2026-04-26T13:45:01.003Z</time></trkpt><trkpt lat="44.04860420021603" lon="10.077230565912323"><ele>15.666666666666666</ele><time>2026-04-26T13:45:02.003Z</time></trkpt><trkpt lat="44.04848070719346" lon="10.077433251042546"><ele>16.0</ele><time>2026-04-26T13:45:03.003Z</time></trkpt><trkpt lat="44.04835954543001" lon="10.077639958800036"><ele>15.333333333333332</ele><time>2026-04-26T13:45:04.003Z</time></trkpt><trkpt lat="44.048236119559135" lon="10.077839754060603"><ele>14.666666666666668</ele><time>2026-04-26T13:45:05.003Z</time></trkpt><trkpt lat="44.04810821863363" lon="10.078033371399098"><ele>14.0</ele><time>2026-04-26T13:45:06.003Z</time></trkpt><trkpt lat="44.04797916741336" lon="10.07822423081792"><ele>14.333333333333334</ele><time>2026-04-26T13:45:07.003Z</time></trkpt><trkpt lat="44.04784929490759" lon="10.078413322091707"><ele>14.666666666666668</ele><time>2026-04-26T13:45:08.003Z</time></trkpt><trkpt lat="44.047718519871225" lon="10.078616538801262"><ele>15.0</ele><time>2026-04-26T13:45:09.003Z</time></trkpt><trkpt lat="44.04758375511487" lon="10.078816559695197"><ele>14.333333333333332</ele><time>2026-04-26T13:45:10.003Z</time></trkpt><trkpt lat="44.04744748041536" lon="10.079009513047682"><ele>13.666666666666666</ele><time>2026-04-26T13:45:11.003Z</time></trkpt><trkpt lat="44.04732599319702" lon="10.079205430757971"><ele>13.0</ele><time>2026-04-26T13:45:12.003Z</time></trkpt><trkpt lat="44.04719804309697" lon="10.079387421130527"><ele>13.0</ele><time>2026-04-26T13:45:13.003Z</time></trkpt><trkpt lat="44.04708460865246" lon="10.07956502334459"><ele>13.0</ele><time>2026-04-26T13:45:14.003Z</time></trkpt><trkpt lat="44.0469728298639" lon="10.079757242154415"><ele>13.0</ele><time>2026-04-26T13:45:15.003Z</time></trkpt><trkpt lat="44.046845076512014" lon="10.07996491472035"><ele>14.0</ele><time>2026-04-26T13:45:16.003Z</time></trkpt><trkpt lat="44.04673224676635" lon="10.08019925007926"><ele>15.0</ele><time>2026-04-26T13:45:17.003Z</time></trkpt><trkpt lat="44.04661817514301" lon="10.080439016232887"><ele>16.0</ele><time>2026-04-26T13:45:18.003Z</time></trkpt><trkpt lat="44.046493789438266" lon="10.08068774120051"><ele>16.0</ele><time>2026-04-26T13:45:19.003Z</time></trkpt><trkpt lat="44.046368313347564" lon="10.080940227711844"><ele>16.0</ele><time>2026-04-26T13:45:20.003Z</time></trkpt><trkpt lat="44.04623821942262" lon="10.081194965784638"><ele>16.0</ele><time>2026-04-26T13:45:21.003Z</time></trkpt><trkpt lat="44.04610927415686" lon="10.081445281960281"><ele>15.666666666666666</ele><time>2026-04-26T13:45:22.003Z</time></trkpt><trkpt lat="44.04598866393131" lon="10.08169386146373"><ele>15.333333333333332</ele><time>2026-04-26T13:45:23.003Z</time></trkpt><trkpt lat="44.04586371352633" lon="10.081927762457395"><ele>15.0</ele><time>2026-04-26T13:45:24.003Z</time></trkpt><trkpt lat="44.045742459588304" lon="10.082172276396946"><ele>14.0</ele><time>2026-04-26T13:45:25.003Z</time></trkpt><trkpt lat="44.04562067599871" lon="10.082399050121484"><ele>13.0</ele><time>2026-04-26T13:45:26.003Z</time></trkpt><trkpt lat="44.04550106645009" lon="10.08264262091441"><ele>12.0</ele><time>2026-04-26T13:45:27.003Z</time></trkpt><trkpt lat="44.04538441056505" lon="10.082889483950694"><ele>12.0</ele><time>2026-04-26T13:45:28.003Z</time></trkpt><trkpt lat="44.045268029029955" lon="10.083127366766549"><ele>12.0</ele><time>2026-04-26T13:45:29.003Z</time></trkpt><trkpt lat="44.04515278072195" lon="10.083359948219938"><ele>12.0</ele><time>2026-04-26T13:45:30.003Z</time></trkpt><trkpt lat="44.04503793677919" lon="10.083577949857519"><ele>12.333333333333332</ele><time>2026-04-26T13:45:31.003Z</time></trkpt><trkpt lat="44.044926511479034" lon="10.083802143366547"><ele>12.666666666666666</ele><time>2026-04-26T13:45:32.003Z</time></trkpt><trkpt lat="44.04481322797028" lon="10.084030610043174"><ele>13.0</ele><time>2026-04-26T13:45:33.003Z</time></trkpt><trkpt lat="44.044701658449085" lon="10.084262720408267"><ele>12.333333333333332</ele><time>2026-04-26T13:45:34.003Z</time></trkpt><trkpt lat="44.04459080082138" lon="10.084487119588992"><ele>11.666666666666666</ele><time>2026-04-26T13:45:35.003Z</time></trkpt><trkpt lat="44.044491119848125" lon="10.084692135176772"><ele>11.0</ele><time>2026-04-26T13:45:36.003Z</time></trkpt><trkpt lat="44.04439902213511" lon="10.084867531902267"><ele>11.0</ele><time>2026-04-26T13:45:37.003Z</time></trkpt><trkpt lat="44.04430763276986" lon="10.085040187187964"><ele>11.0</ele><time>2026-04-26T13:45:38.003Z</time></trkpt><trkpt lat="44.04421039130633" lon="10.085206906143119"><ele>11.0</ele><time>2026-04-26T13:45:39.003Z</time></trkpt><trkpt lat="44.04410129271449" lon="10.08534771142938"><ele>11.0</ele><time>2026-04-26T13:45:40.002Z</time></trkpt><trkpt lat="44.04400151808305" lon="10.085462546416435"><ele>11.0</ele><time>2026-04-26T13:45:41.002Z</time></trkpt><trkpt lat="44.043907256319144" lon="10.085580555106095"><ele>11.0</ele><time>2026-04-26T13:45:42.002Z</time></trkpt><trkpt lat="44.04381358594603" lon="10.085619298324433"><ele>11.0</ele><time>2026-04-26T13:45:43.002Z</time></trkpt><trkpt lat="44.0437339806047" lon="10.085631169121266"><ele>11.0</ele><time>2026-04-26T13:45:44.002Z</time></trkpt><trkpt lat="44.04364686131911" lon="10.08562295696524"><ele>11.0</ele><time>2026-04-26T13:45:45.002Z</time></trkpt><trkpt lat="44.04354845923969" lon="10.085585013906524"><ele>11.0</ele><time>2026-04-26T13:45:46.002Z</time></trkpt><trkpt lat="44.04345029910503" lon="10.085545178536316"><ele>11.0</ele><time>2026-04-26T13:45:47.002Z</time></trkpt><trkpt lat="44.04334738577792" lon="10.085537530428844"><ele>11.0</ele><time>2026-04-26T13:45:48.002Z</time></trkpt><trkpt lat="44.0432531367833" lon="10.08558021430709"><ele>11.0</ele><time>2026-04-26T13:45:49.002Z</time></trkpt><trkpt lat="44.04318155794327" lon="10.085671691099702"><ele>10.200000000000001</ele><time>2026-04-26T13:45:50.002Z</time></trkpt><trkpt lat="44.04313301082649" lon="10.085793951582607"><ele>9.4</ele><time>2026-04-26T13:45:51.002Z</time></trkpt><trkpt lat="44.04311909925499" lon="10.085947374662831"><ele>8.6</ele><time>2026-04-26T13:45:52.002Z</time></trkpt><trkpt lat="44.04313942737698" lon="10.086104984615446"><ele>7.8</ele><time>2026-04-26T13:45:53.002Z</time></trkpt><trkpt lat="44.043181735985065" lon="10.086243849116233"><ele>7.0</ele><time>2026-04-26T13:45:54.002Z</time></trkpt><trkpt lat="44.043243640498446" lon="10.086380759513057"><ele>7.0</ele><time>2026-04-26T13:45:55.002Z</time></trkpt><trkpt lat="44.04329685544409" lon="10.086536772917855"><ele>7.0</ele><time>2026-04-26T13:45:56.002Z</time></trkpt><trkpt lat="44.04331717992152" lon="10.086709353951301"><ele>7.0</ele><time>2026-04-26T13:45:57.002Z</time></trkpt><trkpt lat="44.04330966427095" lon="10.086883795289486"><ele>7.0</ele><time>2026-04-26T13:45:58.002Z</time></trkpt><trkpt lat="44.04328802554599" lon="10.087052750294216"><ele>7.75</ele><time>2026-04-26T13:45:59.002Z</time></trkpt><trkpt lat="44.04321116532151" lon="10.087180079289118"><ele>8.5</ele><time>2026-04-26T13:46:00.002Z</time></trkpt><trkpt lat="44.04313651561337" lon="10.08733074135916"><ele>9.25</ele><time>2026-04-26T13:46:01.002Z</time></trkpt><trkpt lat="44.04305876813055" lon="10.087487655606248"><ele>10.0</ele><time>2026-04-26T13:46:02.002Z</time></trkpt><trkpt lat="44.04298715360107" lon="10.087661963875565"><ele>10.0</ele><time>2026-04-26T13:46:03.002Z</time></trkpt><trkpt lat="44.04290192485292" lon="10.087815871724406"><ele>10.0</ele><time>2026-04-26T13:46:04.002Z</time></trkpt><trkpt lat="44.042822789785404" lon="10.087972031961005"><ele>10.0</ele><time>2026-04-26T13:46:05.002Z</time></trkpt><trkpt lat="44.04275009251958" lon="10.088136577926067"><ele>10.0</ele><time>2026-04-26T13:46:06.002Z</time></trkpt><trkpt lat="44.042656634667935" lon="10.08828752414043"><ele>9.333333333333334</ele><time>2026-04-26T13:46:07.002Z</time></trkpt><trkpt lat="44.04256317078149" lon="10.088471069139656"><ele>8.666666666666666</ele><time>2026-04-26T13:46:08.002Z</time></trkpt><trkpt lat="44.04245674399903" lon="10.08868007083891"><ele>8.0</ele><time>2026-04-26T13:46:09.002Z</time></trkpt><trkpt lat="44.042354953653515" lon="10.088919290308752"><ele>8.0</ele><time>2026-04-26T13:46:10.002Z</time></trkpt><trkpt lat="44.04223720144928" lon="10.08913600127896"><ele>8.0</ele><time>2026-04-26T13:46:11.002Z</time></trkpt><trkpt lat="44.04213046401985" lon="10.089351838677162"><ele>8.0</ele><time>2026-04-26T13:46:12.002Z</time></trkpt><trkpt lat="44.042003440203615" lon="10.089594804319342"><ele>8.0</ele><time>2026-04-26T13:46:13.002Z</time></trkpt><trkpt lat="44.0418775511351" lon="10.089835571376346"><ele>8.0</ele><time>2026-04-26T13:46:14.002Z</time></trkpt><trkpt lat="44.041760253376445" lon="10.090066434722596"><ele>8.0</ele><time>2026-04-26T13:46:15.002Z</time></trkpt><trkpt lat="44.04164869488872" lon="10.090289295023434"><ele>8.0</ele><time>2026-04-26T13:46:16.002Z</time></trkpt><trkpt lat="44.041475147487944" lon="10.090443290224025"><ele>8.0</ele><time>2026-04-26T13:46:17.002Z</time></trkpt><trkpt lat="44.041367909360424" lon="10.09065079799411"><ele>8.0</ele><time>2026-04-26T13:46:18.002Z</time></trkpt><trkpt lat="44.04133592255771" lon="10.090921259624707"><ele>8.666666666666666</ele><time>2026-04-26T13:46:19.002Z</time></trkpt><trkpt lat="44.041242391713595" lon="10.091110887727671"><ele>9.333333333333334</ele><time>2026-04-26T13:46:20.002Z</time></trkpt><trkpt lat="44.041139963766504" lon="10.091275814049494"><ele>10.0</ele><time>2026-04-26T13:46:21.002Z</time></trkpt><trkpt lat="44.0410665222675" lon="10.0914615058783"><ele>9.75</ele><time>2026-04-26T13:46:22.002Z</time></trkpt><trkpt lat="44.04098176131445" lon="10.091628857696856"><ele>9.5</ele><time>2026-04-26T13:46:23.002Z</time></trkpt><trkpt lat="44.040886687399905" lon="10.091776796128269"><ele>9.25</ele><time>2026-04-26T13:46:24.002Z</time></trkpt><trkpt lat="44.0408004347404" lon="10.091947213731538"><ele>9.0</ele><time>2026-04-26T13:46:25.002Z</time></trkpt><trkpt lat="44.04070489275672" lon="10.09213405047367"><ele>8.333333333333334</ele><time>2026-04-26T13:46:26.002Z</time></trkpt><trkpt lat="44.04061481311345" lon="10.092343236343915"><ele>7.666666666666667</ele><time>2026-04-26T13:46:27.002Z</time></trkpt><trkpt lat="44.040494941537695" lon="10.092543445553583"><ele>7.0</ele><time>2026-04-26T13:46:28.002Z</time></trkpt><trkpt lat="44.040377994074994" lon="10.092771488183043"><ele>6.666666666666667</ele><time>2026-04-26T13:46:29.002Z</time></trkpt><trkpt lat="44.04026951001668" lon="10.092987305462936"><ele>6.333333333333334</ele><time>2026-04-26T13:46:30.002Z</time></trkpt><trkpt lat="44.04016898445868" lon="10.093192475325063"><ele>6.0</ele><time>2026-04-26T13:46:31.002Z</time></trkpt><trkpt lat="44.04006877541834" lon="10.093381437812445"><ele>6.5</ele><time>2026-04-26T13:46:32.002Z</time></trkpt><trkpt lat="44.03998301004281" lon="10.093551837492408"><ele>7.0</ele><time>2026-04-26T13:46:33.002Z</time></trkpt><trkpt lat="44.03989997077291" lon="10.093711916474518"><ele>7.5</ele><time>2026-04-26T13:46:34.002Z</time></trkpt><trkpt lat="44.03981018121343" lon="10.093875894441984"><ele>8.0</ele><time>2026-04-26T13:46:35.002Z</time></trkpt><trkpt lat="44.03972891222208" lon="10.094032423215097"><ele>8.0</ele><time>2026-04-26T13:46:36.002Z</time></trkpt><trkpt lat="44.039649150113235" lon="10.094192533309107"><ele>8.0</ele><time>2026-04-26T13:46:37.002Z</time></trkpt><trkpt lat="44.039569847004664" lon="10.094351009119677"><ele>8.0</ele><time>2026-04-26T13:46:38.002Z</time></trkpt><trkpt lat="44.03948040585438" lon="10.094506241155054"><ele>8.0</ele><time>2026-04-26T13:46:39.002Z</time></trkpt><trkpt lat="44.039394098082255" lon="10.094665912463233"><ele>8.0</ele><time>2026-04-26T13:46:40.002Z</time></trkpt><trkpt lat="44.03930563181307" lon="10.094829370663872"><ele>8.0</ele><time>2026-04-26T13:46:41.002Z</time></trkpt><trkpt lat="44.03921268529757" lon="10.094992665735735"><ele>8.0</ele><time>2026-04-26T13:46:42.002Z</time></trkpt><trkpt lat="44.03911930314156" lon="10.095148049495354"><ele>8.0</ele><time>2026-04-26T13:46:43.002Z</time></trkpt><trkpt lat="44.0390285221525" lon="10.09530328603824"><ele>8.5</ele><time>2026-04-26T13:46:44.002Z</time></trkpt><trkpt lat="44.03893900905002" lon="10.095453661573742"><ele>9.0</ele><time>2026-04-26T13:46:45.002Z</time></trkpt><trkpt lat="44.03884916914041" lon="10.09559590780596"><ele>9.5</ele><time>2026-04-26T13:46:46.002Z</time></trkpt><trkpt lat="44.038757728169564" lon="10.095734600879466"><ele>10.0</ele><time>2026-04-26T13:46:47.002Z</time></trkpt><trkpt lat="44.03866687677459" lon="10.095874841839406"><ele>10.0</ele><time>2026-04-26T13:46:48.002Z</time></trkpt><trkpt lat="44.038577020517145" lon="10.096009653227336"><ele>10.0</ele><time>2026-04-26T13:46:49.002Z</time></trkpt><trkpt lat="44.0384833353104" lon="10.096132232985076"><ele>10.0</ele><time>2026-04-26T13:46:50.002Z</time></trkpt><trkpt lat="44.038400518119886" lon="10.096260705190131"><ele>10.0</ele><time>2026-04-26T13:46:51.002Z</time></trkpt><trkpt lat="44.03831449892632" lon="10.096389250668876"><ele>10.25</ele><time>2026-04-26T13:46:52.002Z</time></trkpt><trkpt lat="44.038221716269156" lon="10.096519738454"><ele>10.5</ele><time>2026-04-26T13:46:53.002Z</time></trkpt><trkpt lat="44.03813151808328" lon="10.09664653478698"><ele>10.75</ele><time>2026-04-26T13:46:54.002Z</time></trkpt><trkpt lat="44.038042412507814" lon="10.0967701262337"><ele>11.0</ele><time>2026-04-26T13:46:55.002Z</time></trkpt><trkpt lat="44.03794953164851" lon="10.096898173409175"><ele>11.5</ele><time>2026-04-26T13:46:56.002Z</time></trkpt><trkpt lat="44.03785480891964" lon="10.09703188475909"><ele>12.0</ele><time>2026-04-26T13:46:57.002Z</time></trkpt><trkpt lat="44.03776227685135" lon="10.097164107613143"><ele>12.5</ele><time>2026-04-26T13:46:58.002Z</time></trkpt><trkpt lat="44.03767475489068" lon="10.09729992390743"><ele>13.0</ele><time>2026-04-26T13:46:59.002Z</time></trkpt><trkpt lat="44.03759047323" lon="10.097438365414238"><ele>13.0</ele><time>2026-04-26T13:47:00.002Z</time></trkpt><trkpt lat="44.0375139977373" lon="10.097580900684466"><ele>13.0</ele><time>2026-04-26T13:47:01.002Z</time></trkpt><trkpt lat="44.03743867956774" lon="10.097739054821888"><ele>13.0</ele><time>2026-04-26T13:47:02.002Z</time></trkpt><trkpt lat="44.03736154276011" lon="10.09789861358775"><ele>13.0</ele><time>2026-04-26T13:47:03.002Z</time></trkpt><trkpt lat="44.03729582242625" lon="10.098063966468287"><ele>13.0</ele><time>2026-04-26T13:47:04.002Z</time></trkpt><trkpt lat="44.03723123473313" lon="10.098228562367007"><ele>13.0</ele><time>2026-04-26T13:47:05.002Z</time></trkpt><trkpt lat="44.037174924624075" lon="10.09840132270646"><ele>13.0</ele><time>2026-04-26T13:47:06.002Z</time></trkpt><trkpt lat="44.03712510443498" lon="10.098582811447574"><ele>13.0</ele><time>2026-04-26T13:47:07.002Z</time></trkpt><trkpt lat="44.03708079804543" lon="10.098768288671128"><ele>12.75</ele><time>2026-04-26T13:47:08.002Z</time></trkpt><trkpt lat="44.03704111693663" lon="10.098954685506095"><ele>12.5</ele><time>2026-04-26T13:47:09.002Z</time></trkpt><trkpt lat="44.037009331844665" lon="10.099133850662257"><ele>12.25</ele><time>2026-04-26T13:47:10.002Z</time></trkpt><trkpt lat="44.03698110123408" lon="10.099310149800298"><ele>12.0</ele><time>2026-04-26T13:47:11.002Z</time></trkpt><trkpt lat="44.036933536193416" lon="10.099483646378179"><ele>11.75</ele><time>2026-04-26T13:47:12.002Z</time></trkpt><trkpt lat="44.036919663833636" lon="10.099656444024466"><ele>11.5</ele><time>2026-04-26T13:47:13.002Z</time></trkpt><trkpt lat="44.03691416325996" lon="10.09982241347783"><ele>11.25</ele><time>2026-04-26T13:47:14.002Z</time></trkpt><trkpt lat="44.036911027607815" lon="10.099975778938221"><ele>11.0</ele><time>2026-04-26T13:47:15.002Z</time></trkpt><trkpt lat="44.036911577755816" lon="10.1001294494843"><ele>11.833333333333332</ele><time>2026-04-26T13:47:16.002Z</time></trkpt><trkpt lat="44.03691090461522" lon="10.100268014098864"><ele>12.666666666666666</ele><time>2026-04-26T13:47:17.002Z</time></trkpt><trkpt lat="44.036905920424104" lon="10.100382134917652"><ele>13.5</ele><time>2026-04-26T13:47:18.002Z</time></trkpt><trkpt lat="44.03689968093161" lon="10.100477684029542"><ele>14.333333333333332</ele><time>2026-04-26T13:47:19.002Z</time></trkpt><trkpt lat="44.036873744404296" lon="10.100584835723028"><ele>15.166666666666666</ele><time>2026-04-26T13:47:21.002Z</time></trkpt><trkpt lat="44.03683071515883" lon="10.100682062607437"><ele>16.0</ele><time>2026-04-26T13:47:26.002Z</time></trkpt><trkpt lat="44.03675386373647" lon="10.100734036791785"><ele>16.5</ele><time>2026-04-26T13:47:28.002Z</time></trkpt><trkpt lat="44.03671097447869" lon="10.100832246351352"><ele>17.0</ele><time>2026-04-26T13:47:30.002Z</time></trkpt><trkpt lat="44.03675574874066" lon="10.100965456746579"><ele>17.5</ele><time>2026-04-26T13:47:32.002Z</time></trkpt><trkpt lat="44.036809192703174" lon="10.101034891578852"><ele>18.0</ele><time>2026-04-26T13:47:33.002Z</time></trkpt><trkpt lat="44.03685975705973" lon="10.101133896111719"><ele>18.5</ele><time>2026-04-26T13:47:34.002Z</time></trkpt><trkpt lat="44.03689865308163" lon="10.101253726572741"><ele>19.0</ele><time>2026-04-26T13:47:35.002Z</time></trkpt><trkpt lat="44.03692412431992" lon="10.101384853601557"><ele>19.0</ele><time>2026-04-26T13:47:36.002Z</time></trkpt><trkpt lat="44.03694451117988" lon="10.101523792030568"><ele>19.0</ele><time>2026-04-26T13:47:37.002Z</time></trkpt><trkpt lat="44.03695502614822" lon="10.10167259744952"><ele>19.0</ele><time>2026-04-26T13:47:38.002Z</time></trkpt><trkpt lat="44.036963368917334" lon="10.101842871933439"><ele>19.0</ele><time>2026-04-26T13:47:39.002Z</time></trkpt><trkpt lat="44.03697850372164" lon="10.102031845722598"><ele>18.666666666666664</ele><time>2026-04-26T13:47:40.002Z</time></trkpt><trkpt lat="44.036996862423614" lon="10.102265263576598"><ele>18.333333333333332</ele><time>2026-04-26T13:47:41.002Z</time></trkpt><trkpt lat="44.037010631688965" lon="10.10252936156296"><ele>18.0</ele><time>2026-04-26T13:47:42.002Z</time></trkpt><trkpt lat="44.037015866535796" lon="10.102851204735105"><ele>18.0</ele><time>2026-04-26T13:47:43.002Z</time></trkpt><trkpt lat="44.03701698767848" lon="10.103141929985386"><ele>18.0</ele><time>2026-04-26T13:47:44.002Z</time></trkpt><trkpt lat="44.03702258037988" lon="10.10340651309999"><ele>18.0</ele><time>2026-04-26T13:47:45.002Z</time></trkpt><trkpt lat="44.03703053992319" lon="10.103659232080762"><ele>19.0</ele><time>2026-04-26T13:47:46.002Z</time></trkpt><trkpt lat="44.037038831442814" lon="10.103905304609686"><ele>20.0</ele><time>2026-04-26T13:47:47.002Z</time></trkpt><trkpt lat="44.037043466489635" lon="10.104140053785782"><ele>21.0</ele><time>2026-04-26T13:47:48.002Z</time></trkpt><trkpt lat="44.037047937878576" lon="10.104370450651121"><ele>21.25</ele><time>2026-04-26T13:47:49.002Z</time></trkpt><trkpt lat="44.03704974341648" lon="10.104583585093987"><ele>21.5</ele><time>2026-04-26T13:47:50.002Z</time></trkpt><trkpt lat="44.037049985254704" lon="10.104776065574555"><ele>21.75</ele><time>2026-04-26T13:47:51.002Z</time></trkpt><trkpt lat="44.03705288831002" lon="10.104958159479198"><ele>22.0</ele><time>2026-04-26T13:47:52.002Z</time></trkpt><trkpt lat="44.03706190090603" lon="10.105135621175855"><ele>22.0</ele><time>2026-04-26T13:47:53.002Z</time></trkpt><trkpt lat="44.03707372060088" lon="10.10531477724833"><ele>22.0</ele><time>2026-04-26T13:47:54.002Z</time></trkpt><trkpt lat="44.03708133147556" lon="10.105491407971915"><ele>22.0</ele><time>2026-04-26T13:47:55.002Z</time></trkpt><trkpt lat="44.037086962844405" lon="10.105666696331403"><ele>22.0</ele><time>2026-04-26T13:47:56.002Z</time></trkpt><trkpt lat="44.037089896261946" lon="10.105835092768089"><ele>21.75</ele><time>2026-04-26T13:47:57.002Z</time></trkpt><trkpt lat="44.037092361627494" lon="10.10600148048798"><ele>21.5</ele><time>2026-04-26T13:47:58.002Z</time></trkpt><trkpt lat="44.03709581612201" lon="10.106167146536155"><ele>21.25</ele><time>2026-04-26T13:47:59.002Z</time></trkpt><trkpt lat="44.037099332842885" lon="10.106330043470614"><ele>21.0</ele><time>2026-04-26T13:48:00.002Z</time></trkpt><trkpt lat="44.03710344450742" lon="10.106490566676618"><ele>21.4</ele><time>2026-04-26T13:48:01.002Z</time></trkpt><trkpt lat="44.03710749378177" lon="10.106645744628953"><ele>21.8</ele><time>2026-04-26T13:48:02.002Z</time></trkpt><trkpt lat="44.03710442816769" lon="10.106790269170013"><ele>22.2</ele><time>2026-04-26T13:48:03.002Z</time></trkpt><trkpt lat="44.03710432891505" lon="10.106916703626434"><ele>22.599999999999998</ele><time>2026-04-26T13:48:04.002Z</time></trkpt><trkpt lat="44.03711455427129" lon="10.107052067009535"><ele>23.0</ele><time>2026-04-26T13:48:05.002Z</time></trkpt><trkpt lat="44.03712037856336" lon="10.107180991851967"><ele>23.0</ele><time>2026-04-26T13:48:06.002Z</time></trkpt><trkpt lat="44.037120505988746" lon="10.107301106608402"><ele>23.0</ele><time>2026-04-26T13:48:07.002Z</time></trkpt><trkpt lat="44.037124686914275" lon="10.107507656905705"><ele>23.0</ele><time>2026-04-26T13:48:09.002Z</time></trkpt><trkpt lat="44.03713083908551" lon="10.10764423520209"><ele>23.0</ele><time>2026-04-26T13:48:11.002Z</time></trkpt><trkpt lat="44.03713268055858" lon="10.107737504079445"><ele>23.0</ele><time>2026-04-26T13:48:13.002Z</time></trkpt><trkpt lat="44.03714800853707" lon="10.107852358949915"><ele>23.4</ele><time>2026-04-26T13:48:40.002Z</time></trkpt><trkpt lat="44.0371575870615" lon="10.108030829198453"><ele>23.799999999999997</ele><time>2026-04-26T13:48:42.002Z</time></trkpt><trkpt lat="44.03714104334474" lon="10.10815154114539"><ele>24.2</ele><time>2026-04-26T13:48:43.002Z</time></trkpt><trkpt lat="44.037147038458585" lon="10.108286349591294"><ele>24.6</ele><time>2026-04-26T13:48:44.002Z</time></trkpt><trkpt lat="44.037175688870285" lon="10.108431193507707"><ele>25.0</ele><time>2026-04-26T13:48:45.002Z</time></trkpt><trkpt lat="44.03718233935053" lon="10.108594612094945"><ele>26.0</ele><time>2026-04-26T13:48:46.002Z</time></trkpt><trkpt lat="44.037190251102054" lon="10.108755408307871"><ele>27.0</ele><time>2026-04-26T13:48:47.002Z</time></trkpt><trkpt lat="44.03719549855664" lon="10.108913814020164"><ele>28.0</ele><time>2026-04-26T13:48:48.002Z</time></trkpt><trkpt lat="44.037186495011866" lon="10.109247832796678"><ele>28.0</ele><time>2026-04-26T13:48:50.002Z</time></trkpt><trkpt lat="44.03719458588759" lon="10.109416523698128"><ele>28.0</ele><time>2026-04-26T13:48:51.002Z</time></trkpt><trkpt lat="44.03722164082714" lon="10.10959601357197"><ele>28.0</ele><time>2026-04-26T13:48:52.002Z</time></trkpt><trkpt lat="44.03723797483847" lon="10.109784358381752"><ele>28.0</ele><time>2026-04-26T13:48:53.002Z</time></trkpt><trkpt lat="44.03726402691438" lon="10.109980290307979"><ele>28.0</ele><time>2026-04-26T13:48:54.002Z</time></trkpt><trkpt lat="44.03729243618915" lon="10.110170725801716"><ele>28.0</ele><time>2026-04-26T13:48:55.002Z</time></trkpt><trkpt lat="44.03732868868758" lon="10.110364685562624"><ele>28.0</ele><time>2026-04-26T13:48:56.002Z</time></trkpt><trkpt lat="44.03736975982927" lon="10.110555346972903"><ele>28.0</ele><time>2026-04-26T13:48:57.002Z</time></trkpt><trkpt lat="44.037416748069965" lon="10.110743693057751"><ele>28.0</ele><time>2026-04-26T13:48:58.002Z</time></trkpt><trkpt lat="44.03745829978819" lon="10.110912848419265"><ele>28.0</ele><time>2026-04-26T13:48:59.002Z</time></trkpt><trkpt lat="44.03749864304071" lon="10.111090525349631"><ele>28.0</ele><time>2026-04-26T13:49:00.002Z</time></trkpt><trkpt lat="44.03753814829483" lon="10.111263403587863"><ele>28.0</ele><time>2026-04-26T13:49:01.002Z</time></trkpt><trkpt lat="44.03757934993745" lon="10.111433691681746"><ele>28.2</ele><time>2026-04-26T13:49:02.002Z</time></trkpt><trkpt lat="44.03762230411844" lon="10.111596139033823"><ele>28.4</ele><time>2026-04-26T13:49:03.002Z</time></trkpt><trkpt lat="44.03764172085448" lon="10.111717342208681"><ele>28.599999999999998</ele><time>2026-04-26T13:49:04.003Z</time></trkpt><trkpt lat="44.03767762142956" lon="10.111799499438042"><ele>28.799999999999997</ele><time>2026-04-26T13:49:06.003Z</time></trkpt><trkpt lat="44.03770785544704" lon="10.111916368086213"><ele>29.0</ele><time>2026-04-26T13:49:11.003Z</time></trkpt><trkpt lat="44.037751733528964" lon="10.112129607890958"><ele>29.0</ele><time>2026-04-26T13:49:13.003Z</time></trkpt><trkpt lat="44.037782753996765" lon="10.112259237863407"><ele>29.0</ele><time>2026-04-26T13:49:14.003Z</time></trkpt><trkpt lat="44.03781285643309" lon="10.112397081237212"><ele>29.0</ele><time>2026-04-26T13:49:15.003Z</time></trkpt><trkpt lat="44.03784588479805" lon="10.112543690662541"><ele>29.0</ele><time>2026-04-26T13:49:16.003Z</time></trkpt><trkpt lat="44.03787879000054" lon="10.112693455694423"><ele>29.0</ele><time>2026-04-26T13:49:17.003Z</time></trkpt><trkpt lat="44.03791471317919" lon="10.11285863049777"><ele>29.0</ele><time>2026-04-26T13:49:18.003Z</time></trkpt><trkpt lat="44.03795712476402" lon="10.113035247457889"><ele>29.0</ele><time>2026-04-26T13:49:19.003Z</time></trkpt><trkpt lat="44.03800636377803" lon="10.113227897207647"><ele>29.0</ele><time>2026-04-26T13:49:20.003Z</time></trkpt><trkpt lat="44.038056009039416" lon="10.113437120141462"><ele>29.0</ele><time>2026-04-26T13:49:21.003Z</time></trkpt><trkpt lat="44.03810337183321" lon="10.113642468305098"><ele>29.0</ele><time>2026-04-26T13:49:22.003Z</time></trkpt><trkpt lat="44.03815284786802" lon="10.113855999204027"><ele>29.0</ele><time>2026-04-26T13:49:23.003Z</time></trkpt><trkpt lat="44.03820062954863" lon="10.114073051179641"><ele>29.0</ele><time>2026-04-26T13:49:24.003Z</time></trkpt><trkpt lat="44.03825461037256" lon="10.114293515594486"><ele>29.666666666666664</ele><time>2026-04-26T13:49:25.003Z</time></trkpt><trkpt lat="44.038306892737026" lon="10.11451791724122"><ele>30.333333333333336</ele><time>2026-04-26T13:49:26.003Z</time></trkpt><trkpt lat="44.03835373604653" lon="10.114735313851098"><ele>31.0</ele><time>2026-04-26T13:49:27.003Z</time></trkpt><trkpt lat="44.03840269396947" lon="10.114945354577788"><ele>31.666666666666668</ele><time>2026-04-26T13:49:28.003Z</time></trkpt><trkpt lat="44.038456265597134" lon="10.115156032573097"><ele>32.333333333333336</ele><time>2026-04-26T13:49:29.003Z</time></trkpt><trkpt lat="44.03850747328837" lon="10.11537559304482"><ele>33.0</ele><time>2026-04-26T13:49:30.003Z</time></trkpt><trkpt lat="44.03855919934329" lon="10.115591641074912"><ele>33.333333333333336</ele><time>2026-04-26T13:49:31.003Z</time></trkpt><trkpt lat="44.03860892684649" lon="10.115808593140107"><ele>33.66666666666667</ele><time>2026-04-26T13:49:32.003Z</time></trkpt><trkpt lat="44.03865878232307" lon="10.11602141286927"><ele>34.0</ele><time>2026-04-26T13:49:33.003Z</time></trkpt><trkpt lat="44.038706059748996" lon="10.116233496941321"><ele>34.0</ele><time>2026-04-26T13:49:34.003Z</time></trkpt><trkpt lat="44.03875094783911" lon="10.11643832578159"><ele>34.0</ele><time>2026-04-26T13:49:35.003Z</time></trkpt><trkpt lat="44.03879804782971" lon="10.116643859211658"><ele>34.0</ele><time>2026-04-26T13:49:36.003Z</time></trkpt><trkpt lat="44.03884746195047" lon="10.11684738952692"><ele>34.0</ele><time>2026-04-26T13:49:37.003Z</time></trkpt><trkpt lat="44.03889630159401" lon="10.117047737724164"><ele>34.0</ele><time>2026-04-26T13:49:38.003Z</time></trkpt><trkpt lat="44.03894339387527" lon="10.117247339574511"><ele>34.0</ele><time>2026-04-26T13:49:39.003Z</time></trkpt><trkpt lat="44.03898773079622" lon="10.117444876443908"><ele>34.0</ele><time>2026-04-26T13:49:40.003Z</time></trkpt><trkpt lat="44.0390342453242" lon="10.117638087526759"><ele>34.0</ele><time>2026-04-26T13:49:41.003Z</time></trkpt><trkpt lat="44.03907850151767" lon="10.117828717827413"><ele>34.0</ele><time>2026-04-26T13:49:42.003Z</time></trkpt><trkpt lat="44.03912228246484" lon="10.118024661330102"><ele>34.0</ele><time>2026-04-26T13:49:43.003Z</time></trkpt><trkpt lat="44.03916667772998" lon="10.118221073184277"><ele>34.75</ele><time>2026-04-26T13:49:44.003Z</time></trkpt><trkpt lat="44.03921294770967" lon="10.11841601637228"><ele>35.5</ele><time>2026-04-26T13:49:45.003Z</time></trkpt><trkpt lat="44.03925985734836" lon="10.11860660537335"><ele>36.25</ele><time>2026-04-26T13:49:46.003Z</time></trkpt><trkpt lat="44.0393071160159" lon="10.118803398721283"><ele>37.0</ele><time>2026-04-26T13:49:47.003Z</time></trkpt><trkpt lat="44.039354947339376" lon="10.118999651314628"><ele>37.25</ele><time>2026-04-26T13:49:48.003Z</time></trkpt><trkpt lat="44.039399777476255" lon="10.11919951094616"><ele>37.5</ele><time>2026-04-26T13:49:49.003Z</time></trkpt><trkpt lat="44.03944723352159" lon="10.119394899182577"><ele>37.75</ele><time>2026-04-26T13:49:50.003Z</time></trkpt><trkpt lat="44.039494535510066" lon="10.119587296507847"><ele>38.0</ele><time>2026-04-26T13:49:51.003Z</time></trkpt><trkpt lat="44.039538999664835" lon="10.11978008275776"><ele>38.0</ele><time>2026-04-26T13:49:52.003Z</time></trkpt><trkpt lat="44.039581258857766" lon="10.119969253369725"><ele>38.0</ele><time>2026-04-26T13:49:53.003Z</time></trkpt><trkpt lat="44.03967180805972" lon="10.120355718268913"><ele>38.0</ele><time>2026-04-26T13:49:55.003Z</time></trkpt><trkpt lat="44.03971829367653" lon="10.120549557426937"><ele>38.5</ele><time>2026-04-26T13:49:56.003Z</time></trkpt><trkpt lat="44.03976601864995" lon="10.120747054069474"><ele>39.0</ele><time>2026-04-26T13:49:57.003Z</time></trkpt><trkpt lat="44.03981286669731" lon="10.120946946633735"><ele>39.5</ele><time>2026-04-26T13:49:58.003Z</time></trkpt><trkpt lat="44.03985553037241" lon="10.121139535204314"><ele>40.0</ele><time>2026-04-26T13:49:59.003Z</time></trkpt><trkpt lat="44.03990150565044" lon="10.12133659114057"><ele>40.0</ele><time>2026-04-26T13:50:00.003Z</time></trkpt><trkpt lat="44.03994525932623" lon="10.121532026187179"><ele>40.0</ele><time>2026-04-26T13:50:01.003Z</time></trkpt><trkpt lat="44.0399921068993" lon="10.121725202279027"><ele>40.0</ele><time>2026-04-26T13:50:02.003Z</time></trkpt><trkpt lat="44.04003835494794" lon="10.121921675025096"><ele>40.0</ele><time>2026-04-26T13:50:03.003Z</time></trkpt><trkpt lat="44.04008404571064" lon="10.122115687939077"><ele>40.25</ele><time>2026-04-26T13:50:04.003Z</time></trkpt><trkpt lat="44.040123481051474" lon="10.122308165224469"><ele>40.5</ele><time>2026-04-26T13:50:05.003Z</time></trkpt><trkpt lat="44.04016113458069" lon="10.122499976211817"><ele>40.75</ele><time>2026-04-26T13:50:06.003Z</time></trkpt><trkpt lat="44.04019183012404" lon="10.122691657867607"><ele>41.0</ele><time>2026-04-26T13:50:07.003Z</time></trkpt><trkpt lat="44.04021271766046" lon="10.122867490416244"><ele>41.33333333333333</ele><time>2026-04-26T13:50:08.003Z</time></trkpt><trkpt lat="44.04022063138491" lon="10.123032466291411"><ele>41.666666666666664</ele><time>2026-04-26T13:50:09.003Z</time></trkpt><trkpt lat="44.04022320645844" lon="10.123176308826558"><ele>42.0</ele><time>2026-04-26T13:50:10.003Z</time></trkpt><trkpt lat="44.04021887877143" lon="10.123295211743711"><ele>42.333333333333336</ele><time>2026-04-26T13:50:11.003Z</time></trkpt><trkpt lat="44.04021573952639" lon="10.123388283533307"><ele>42.66666666666667</ele><time>2026-04-26T13:50:12.003Z</time></trkpt><trkpt lat="44.040203650965424" lon="10.12348652546613"><ele>43.0</ele><time>2026-04-26T13:50:14.003Z</time></trkpt><trkpt lat="44.04015490813919" lon="10.123637630449714"><ele>43.2</ele><time>2026-04-26T13:50:16.003Z</time></trkpt><trkpt lat="44.04015938164862" lon="10.123743824492221"><ele>43.4</ele><time>2026-04-26T13:50:17.003Z</time></trkpt><trkpt lat="44.040177862950664" lon="10.123859938841733"><ele>43.6</ele><time>2026-04-26T13:50:18.003Z</time></trkpt><trkpt lat="44.04019819696107" lon="10.123983515856116"><ele>43.800000000000004</ele><time>2026-04-26T13:50:19.003Z</time></trkpt><trkpt lat="44.04021298292547" lon="10.124137767589888"><ele>44.0</ele><time>2026-04-26T13:50:20.003Z</time></trkpt><trkpt lat="44.04021593260709" lon="10.12429779216248"><ele>44.25</ele><time>2026-04-26T13:50:21.003Z</time></trkpt><trkpt lat="44.04021418624845" lon="10.124473742624959"><ele>44.5</ele><time>2026-04-26T13:50:22.003Z</time></trkpt><trkpt lat="44.040206990256976" lon="10.124649533764954"><ele>44.75</ele><time>2026-04-26T13:50:23.003Z</time></trkpt><trkpt lat="44.04021085648852" lon="10.124824787600854"><ele>45.0</ele><time>2026-04-26T13:50:24.003Z</time></trkpt><trkpt lat="44.04022537309197" lon="10.125005064797033"><ele>45.25</ele><time>2026-04-26T13:50:25.003Z</time></trkpt><trkpt lat="44.040222524589346" lon="10.12518298283182"><ele>45.5</ele><time>2026-04-26T13:50:26.003Z</time></trkpt><trkpt lat="44.04022367442662" lon="10.125360966365369"><ele>45.75</ele><time>2026-04-26T13:50:27.003Z</time></trkpt><trkpt lat="44.040223834200965" lon="10.125541062438579"><ele>46.0</ele><time>2026-04-26T13:50:28.003Z</time></trkpt><trkpt lat="44.04022124509368" lon="10.125719737483774"><ele>45.5</ele><time>2026-04-26T13:50:29.003Z</time></trkpt><trkpt lat="44.04022161177248" lon="10.125897086099581"><ele>45.0</ele><time>2026-04-26T13:50:30.003Z</time></trkpt><trkpt lat="44.040221315271914" lon="10.126081756302185"><ele>44.5</ele><time>2026-04-26T13:50:31.003Z</time></trkpt><trkpt lat="44.04022599404643" lon="10.126264719690147"><ele>44.0</ele><time>2026-04-26T13:50:32.003Z</time></trkpt><trkpt lat="44.04022753933488" lon="10.126445693348698"><ele>43.75</ele><time>2026-04-26T13:50:33.003Z</time></trkpt><trkpt lat="44.040226272169626" lon="10.126635326289863"><ele>43.5</ele><time>2026-04-26T13:50:34.003Z</time></trkpt><trkpt lat="44.04022576996015" lon="10.126825853330402"><ele>43.25</ele><time>2026-04-26T13:50:35.003Z</time></trkpt><trkpt lat="44.0402278695584" lon="10.127015745689866"><ele>43.0</ele><time>2026-04-26T13:50:36.003Z</time></trkpt><trkpt lat="44.040225338397526" lon="10.12719806388472"><ele>43.0</ele><time>2026-04-26T13:50:37.003Z</time></trkpt><trkpt lat="44.04022593586903" lon="10.127369227303564"><ele>43.0</ele><time>2026-04-26T13:50:38.003Z</time></trkpt><trkpt lat="44.04022540674149" lon="10.127532898984056"><ele>43.0</ele><time>2026-04-26T13:50:39.003Z</time></trkpt><trkpt lat="44.040225535835134" lon="10.127689840512332"><ele>43.0</ele><time>2026-04-26T13:50:40.003Z</time></trkpt><trkpt lat="44.04022609843809" lon="10.127840565673466"><ele>43.4</ele><time>2026-04-26T13:50:41.003Z</time></trkpt><trkpt lat="44.04022655226019" lon="10.127987523252505"><ele>43.8</ele><time>2026-04-26T13:50:42.003Z</time></trkpt><trkpt lat="44.04022763435" lon="10.128134415190443"><ele>44.2</ele><time>2026-04-26T13:50:43.003Z</time></trkpt><trkpt lat="44.04022714715678" lon="10.128282211480824"><ele>44.6</ele><time>2026-04-26T13:50:44.003Z</time></trkpt><trkpt lat="44.040227177449125" lon="10.12843469969261"><ele>45.0</ele><time>2026-04-26T13:50:45.003Z</time></trkpt><trkpt lat="44.04022660133708" lon="10.128585934281015"><ele>45.0</ele><time>2026-04-26T13:50:46.003Z</time></trkpt><trkpt lat="44.04022782074587" lon="10.128727331251907"><ele>45.0</ele><time>2026-04-26T13:50:47.003Z</time></trkpt><trkpt lat="44.040225609683375" lon="10.128866568737763"><ele>45.0</ele><time>2026-04-26T13:50:48.003Z</time></trkpt><trkpt lat="44.04022438036925" lon="10.129010867168134"><ele>45.0</ele><time>2026-04-26T13:50:49.003Z</time></trkpt><trkpt lat="44.04022490611775" lon="10.129156250461785"><ele>45.0</ele><time>2026-04-26T13:50:50.003Z</time></trkpt><trkpt lat="44.040227647892436" lon="10.129305918342148"><ele>45.0</ele><time>2026-04-26T13:50:51.003Z</time></trkpt><trkpt lat="44.040229661802506" lon="10.129457879413497"><ele>45.0</ele><time>2026-04-26T13:50:52.003Z</time></trkpt><trkpt lat="44.04021493839687" lon="10.12960896257541"><ele>45.0</ele><time>2026-04-26T13:50:53.003Z</time></trkpt><trkpt lat="44.04021988982475" lon="10.129769445630734"><ele>45.0</ele><time>2026-04-26T13:50:54.003Z</time></trkpt><trkpt lat="44.040219548432155" lon="10.129929271830358"><ele>45.0</ele><time>2026-04-26T13:50:55.003Z</time></trkpt><trkpt lat="44.04021725533799" lon="10.130070579604167"><ele>45.0</ele><time>2026-04-26T13:50:56.003Z</time></trkpt><trkpt lat="44.040215842035316" lon="10.130189602559259"><ele>45.0</ele><time>2026-04-26T13:50:57.003Z</time></trkpt><trkpt lat="44.040218951481116" lon="10.130306112240769"><ele>45.0</ele><time>2026-04-26T13:50:58.003Z</time></trkpt><trkpt lat="44.04020059610559" lon="10.130424623123846"><ele>45.0</ele><time>2026-04-26T13:50:59.003Z</time></trkpt><trkpt lat="44.040187845627514" lon="10.13054296041647"><ele>45.0</ele><time>2026-04-26T13:51:00.003Z</time></trkpt><trkpt lat="44.04017130620684" lon="10.13065596822166"><ele>45.0</ele><time>2026-04-26T13:51:01.003Z</time></trkpt><trkpt lat="44.040152587924425" lon="10.130762826029168"><ele>45.166666666666664</ele><time>2026-04-26T13:51:02.003Z</time></trkpt><trkpt lat="44.04013684900968" lon="10.130870974413824"><ele>45.333333333333336</ele><time>2026-04-26T13:51:03.003Z</time></trkpt><trkpt lat="44.04012311839621" lon="10.130962004658075"><ele>45.5</ele><time>2026-04-26T13:51:04.003Z</time></trkpt><trkpt lat="44.040108026357046" lon="10.131111350375498"><ele>45.66666666666667</ele><time>2026-04-26T13:51:06.003Z</time></trkpt><trkpt lat="44.04009695205783" lon="10.131227446472966"><ele>45.833333333333336</ele><time>2026-04-26T13:51:09.003Z</time></trkpt><trkpt lat="44.04009196379682" lon="10.13133421892572"><ele>46.0</ele><time>2026-04-26T13:51:14.003Z</time></trkpt><trkpt lat="44.04008039269975" lon="10.131426567466796"><ele>45.833333333333336</ele><time>2026-04-26T13:51:16.003Z</time></trkpt><trkpt lat="44.04006002096886" lon="10.131565929655112"><ele>45.66666666666667</ele><time>2026-04-26T13:51:18.003Z</time></trkpt><trkpt lat="44.040049463564" lon="10.131656088572507"><ele>45.5</ele><time>2026-04-26T13:51:19.003Z</time></trkpt><trkpt lat="44.0400369282803" lon="10.131756044628391"><ele>45.333333333333336</ele><time>2026-04-26T13:51:20.003Z</time></trkpt><trkpt lat="44.04002307045098" lon="10.131859693207728"><ele>45.166666666666664</ele><time>2026-04-26T13:51:21.003Z</time></trkpt><trkpt lat="44.04001298002381" lon="10.131961791956245"><ele>45.0</ele><time>2026-04-26T13:51:22.003Z</time></trkpt><trkpt lat="44.04000217289655" lon="10.132063825816637"><ele>45.0</ele><time>2026-04-26T13:51:23.003Z</time></trkpt><trkpt lat="44.03998638146409" lon="10.132175872465378"><ele>45.0</ele><time>2026-04-26T13:51:24.003Z</time></trkpt><trkpt lat="44.03997437225707" lon="10.132295092392795"><ele>45.0</ele><time>2026-04-26T13:51:25.003Z</time></trkpt><trkpt lat="44.039934846815285" lon="10.132412333398563"><ele>45.0</ele><time>2026-04-26T13:51:26.003Z</time></trkpt><trkpt lat="44.03992196172067" lon="10.132541995844456"><ele>45.0</ele><time>2026-04-26T13:51:27.003Z</time></trkpt><trkpt lat="44.03990781109797" lon="10.13266294481138"><ele>45.0</ele><time>2026-04-26T13:51:28.003Z</time></trkpt><trkpt lat="44.03989482413366" lon="10.13278767670798"><ele>43.0</ele><time>2026-04-26T13:51:29.003Z</time></trkpt><trkpt lat="44.03987813812866" lon="10.132919063997605"><ele>41.0</ele><time>2026-04-26T13:51:30.003Z</time></trkpt><trkpt lat="44.03985880762169" lon="10.133055369163229"><ele>39.0</ele><time>2026-04-26T13:51:31.003Z</time></trkpt><trkpt lat="44.039844751778844" lon="10.133191340746043"><ele>37.0</ele><time>2026-04-26T13:51:32.003Z</time></trkpt><trkpt lat="44.03983051122737" lon="10.133327081758623"><ele>35.0</ele><time>2026-04-26T13:51:33.003Z</time></trkpt><trkpt lat="44.039811732528165" lon="10.133461640549429"><ele>34.2</ele><time>2026-04-26T13:51:34.003Z</time></trkpt><trkpt lat="44.03979247760446" lon="10.133584173938212"><ele>33.4</ele><time>2026-04-26T13:51:35.003Z</time></trkpt><trkpt lat="44.03976454557193" lon="10.133700431797681"><ele>32.6</ele><time>2026-04-26T13:51:36.003Z</time></trkpt><trkpt lat="44.03971700991441" lon="10.13380703707408"><ele>31.8</ele><time>2026-04-26T13:51:37.003Z</time></trkpt><trkpt lat="44.0396601576136" lon="10.133908565335556"><ele>31.0</ele><time>2026-04-26T13:51:38.003Z</time></trkpt><trkpt lat="44.03957580082008" lon="10.133986597908068"><ele>31.200000000000003</ele><time>2026-04-26T13:51:39.003Z</time></trkpt><trkpt lat="44.03951820392302" lon="10.134089031503112"><ele>31.400000000000002</ele><time>2026-04-26T13:51:40.003Z</time></trkpt><trkpt lat="44.03943978735034" lon="10.134158695898398"><ele>31.6</ele><time>2026-04-26T13:51:41.003Z</time></trkpt><trkpt lat="44.03936950717667" lon="10.13424191328001"><ele>31.8</ele><time>2026-04-26T13:51:42.003Z</time></trkpt><trkpt lat="44.03929929548116" lon="10.134334944188295"><ele>32.0</ele><time>2026-04-26T13:51:43.003Z</time></trkpt><trkpt lat="44.03922899107116" lon="10.134428793725288"><ele>32.0</ele><time>2026-04-26T13:51:44.003Z</time></trkpt><trkpt lat="44.03915662787996" lon="10.134522752423807"><ele>32.0</ele><time>2026-04-26T13:51:45.003Z</time></trkpt><trkpt lat="44.039082273391905" lon="10.134623901183085"><ele>32.0</ele><time>2026-04-26T13:51:46.003Z</time></trkpt><trkpt lat="44.03900442069562" lon="10.134728306503735"><ele>32.0</ele><time>2026-04-26T13:51:47.003Z</time></trkpt><trkpt lat="44.038928048290416" lon="10.134830923213043"><ele>32.0</ele><time>2026-04-26T13:51:48.003Z</time></trkpt><trkpt lat="44.038855940577896" lon="10.134927696320608"><ele>33.4</ele><time>2026-04-26T13:51:49.003Z</time></trkpt><trkpt lat="44.03878214430588" lon="10.135021879620345"><ele>34.800000000000004</ele><time>2026-04-26T13:51:50.003Z</time></trkpt><trkpt lat="44.03871113802903" lon="10.135116832306066"><ele>36.2</ele><time>2026-04-26T13:51:51.003Z</time></trkpt><trkpt lat="44.03864116199657" lon="10.135210088745893"><ele>37.6</ele><time>2026-04-26T13:51:52.003Z</time></trkpt><trkpt lat="44.03856644058839" lon="10.135281015251788"><ele>39.0</ele><time>2026-04-26T13:51:53.003Z</time></trkpt><trkpt lat="44.03850101892663" lon="10.13536526579775"><ele>39.0</ele><time>2026-04-26T13:51:54.003Z</time></trkpt><trkpt lat="44.03843502437815" lon="10.13544878077799"><ele>39.0</ele><time>2026-04-26T13:51:55.003Z</time></trkpt><trkpt lat="44.03837008690932" lon="10.135531496068648"><ele>39.0</ele><time>2026-04-26T13:51:56.003Z</time></trkpt><trkpt lat="44.038302870702374" lon="10.13561619926706"><ele>39.0</ele><time>2026-04-26T13:51:57.003Z</time></trkpt><trkpt lat="44.03823334740751" lon="10.135710211122685"><ele>39.0</ele><time>2026-04-26T13:51:58.003Z</time></trkpt><trkpt lat="44.03816084643747" lon="10.135806141056866"><ele>40.166666666666664</ele><time>2026-04-26T13:51:59.003Z</time></trkpt><trkpt lat="44.038090679854776" lon="10.135898409428115"><ele>41.333333333333336</ele><time>2026-04-26T13:52:00.003Z</time></trkpt><trkpt lat="44.03802693255679" lon="10.135981843320895"><ele>42.5</ele><time>2026-04-26T13:52:01.003Z</time></trkpt><trkpt lat="44.03797168219053" lon="10.136054374788564"><ele>43.66666666666667</ele><time>2026-04-26T13:52:02.003Z</time></trkpt><trkpt lat="44.037922805525206" lon="10.136121288474518"><ele>44.833333333333336</ele><time>2026-04-26T13:52:03.003Z</time></trkpt><trkpt lat="44.03787039135429" lon="10.136192314433384"><ele>46.0</ele><time>2026-04-26T13:52:04.003Z</time></trkpt><trkpt lat="44.03781324264927" lon="10.136264827405714"><ele>46.0</ele><time>2026-04-26T13:52:05.003Z</time></trkpt><trkpt lat="44.03775171579397" lon="10.136348441143564"><ele>46.0</ele><time>2026-04-26T13:52:06.003Z</time></trkpt><trkpt lat="44.037689018217634" lon="10.136432101560292"><ele>46.0</ele><time>2026-04-26T13:52:07.003Z</time></trkpt><trkpt lat="44.03762554869545" lon="10.13651536592029"><ele>46.0</ele><time>2026-04-26T13:52:08.003Z</time></trkpt><trkpt lat="44.03756375198168" lon="10.136593587626555"><ele>46.0</ele><time>2026-04-26T13:52:09.003Z</time></trkpt><trkpt lat="44.0375142289635" lon="10.136657696132696"><ele>46.0</ele><time>2026-04-26T13:52:10.003Z</time></trkpt><trkpt lat="44.03743479437129" lon="10.13674411449581"><ele>47.25</ele><time>2026-04-26T13:52:12.003Z</time></trkpt><trkpt lat="44.03756027212288" lon="10.136969806349683"><ele>48.5</ele><time>2026-04-26T13:52:14.003Z</time></trkpt><trkpt lat="44.037625200828145" lon="10.137063370270903"><ele>49.75</ele><time>2026-04-26T13:52:15.003Z</time></trkpt><trkpt lat="44.03769443296005" lon="10.137171674551562"><ele>51.0</ele><time>2026-04-26T13:52:16.003Z</time></trkpt><trkpt lat="44.03775685355095" lon="10.137305358424214"><ele>51.75</ele><time>2026-04-26T13:52:17.003Z</time></trkpt><trkpt lat="44.03782501755441" lon="10.137435653153682"><ele>52.5</ele><time>2026-04-26T13:52:18.003Z</time></trkpt><trkpt lat="44.037898210409075" lon="10.137567288437562"><ele>53.25</ele><time>2026-04-26T13:52:19.003Z</time></trkpt><trkpt lat="44.03797340577398" lon="10.137706000969823"><ele>54.0</ele><time>2026-04-26T13:52:20.003Z</time></trkpt><trkpt lat="44.03804831016965" lon="10.137836581107331"><ele>54.0</ele><time>2026-04-26T13:52:21.003Z</time></trkpt><trkpt lat="44.03813158775574" lon="10.13795325241882"><ele>54.00000000000001</ele><time>2026-04-26T13:52:22.003Z</time></trkpt><trkpt lat="44.03820084053625" lon="10.138079631950959"><ele>54.00000000000001</ele><time>2026-04-26T13:52:23.003Z</time></trkpt><trkpt lat="44.0382634343834" lon="10.138172655659002"><ele>54.0</ele><time>2026-04-26T13:52:24.003Z</time></trkpt><trkpt lat="44.03831100211514" lon="10.138232651027401"><ele>54.0</ele><time>2026-04-26T13:52:25.003Z</time></trkpt><trkpt lat="44.03835213558389" lon="10.138309092890935"><ele>54.2</ele><time>2026-04-26T13:52:27.003Z</time></trkpt><trkpt lat="44.03840053151563" lon="10.138395637220485"><ele>54.400000000000006</ele><time>2026-04-26T13:52:31.003Z</time></trkpt><trkpt lat="44.03849234603937" lon="10.138514633163599"><ele>54.6</ele><time>2026-04-26T13:52:33.003Z</time></trkpt><trkpt lat="44.038550975551146" lon="10.138606838163197"><ele>54.8</ele><time>2026-04-26T13:52:34.003Z</time></trkpt><trkpt lat="44.038607058998586" lon="10.138704512387275"><ele>55.0</ele><time>2026-04-26T13:52:35.003Z</time></trkpt><trkpt lat="44.038670102322776" lon="10.138813922923873"><ele>55.0</ele><time>2026-04-26T13:52:36.003Z</time></trkpt><trkpt lat="44.038745446555644" lon="10.138931254493086"><ele>55.0</ele><time>2026-04-26T13:52:37.003Z</time></trkpt><trkpt lat="44.03881108557991" lon="10.13904554047102"><ele>55.0</ele><time>2026-04-26T13:52:38.003Z</time></trkpt><trkpt lat="44.038864031803186" lon="10.139143519183337"><ele>55.0</ele><time>2026-04-26T13:52:39.003Z</time></trkpt><trkpt lat="44.03890972833004" lon="10.139234203870153"><ele>55.0</ele><time>2026-04-26T13:52:40.003Z</time></trkpt><trkpt lat="44.038950419134295" lon="10.139319710221269"><ele>55.166666666666664</ele><time>2026-04-26T13:52:41.003Z</time></trkpt><trkpt lat="44.03898912955277" lon="10.139391399406634"><ele>55.33333333333333</ele><time>2026-04-26T13:52:42.003Z</time></trkpt><trkpt lat="44.03904508105745" lon="10.139484641875619"><ele>55.5</ele><time>2026-04-26T13:52:44.003Z</time></trkpt><trkpt lat="44.03909039843144" lon="10.139562542123619"><ele>55.66666666666667</ele><time>2026-04-26T13:53:44.004Z</time></trkpt><trkpt lat="44.039137555484125" lon="10.13963160234254"><ele>55.833333333333336</ele><time>2026-04-26T13:53:45.004Z</time></trkpt><trkpt lat="44.03920085416574" lon="10.139785623993623"><ele>56.0</ele><time>2026-04-26T13:53:47.004Z</time></trkpt><trkpt lat="44.03924683259545" lon="10.139865261587873"><ele>56.4</ele><time>2026-04-26T13:53:48.004Z</time></trkpt><trkpt lat="44.039296194840134" lon="10.139957713511935"><ele>56.8</ele><time>2026-04-26T13:53:49.004Z</time></trkpt><trkpt lat="44.03935334770782" lon="10.140057533456465"><ele>57.199999999999996</ele><time>2026-04-26T13:53:50.004Z</time></trkpt><trkpt lat="44.03941235177752" lon="10.140158594935844"><ele>57.599999999999994</ele><time>2026-04-26T13:53:51.004Z</time></trkpt><trkpt lat="44.03947921285014" lon="10.140265412262096"><ele>58.0</ele><time>2026-04-26T13:53:52.004Z</time></trkpt><trkpt lat="44.03954777016809" lon="10.140373327726094"><ele>58.0</ele><time>2026-04-26T13:53:53.004Z</time></trkpt><trkpt lat="44.03959872852761" lon="10.140500643754079"><ele>58.0</ele><time>2026-04-26T13:53:54.004Z</time></trkpt><trkpt lat="44.03965767582568" lon="10.140611149916307"><ele>58.0</ele><time>2026-04-26T13:53:55.004Z</time></trkpt><trkpt lat="44.03971996554162" lon="10.140727922058629"><ele>58.0</ele><time>2026-04-26T13:53:56.004Z</time></trkpt><trkpt lat="44.03977588400968" lon="10.140848918160364"><ele>58.0</ele><time>2026-04-26T13:53:57.004Z</time></trkpt><trkpt lat="44.03984757290641" lon="10.140981465231775"><ele>58.0</ele><time>2026-04-26T13:53:58.004Z</time></trkpt><trkpt lat="44.039917263410054" lon="10.141109839499057"><ele>58.0</ele><time>2026-04-26T13:53:59.004Z</time></trkpt><trkpt lat="44.03998351836679" lon="10.141229912951623"><ele>58.0</ele><time>2026-04-26T13:54:00.004Z</time></trkpt><trkpt lat="44.040043810182226" lon="10.141341934509216"><ele>58.0</ele><time>2026-04-26T13:54:01.004Z</time></trkpt><trkpt lat="44.04009766513503" lon="10.141451463528314"><ele>58.0</ele><time>2026-04-26T13:54:02.004Z</time></trkpt><trkpt lat="44.0401487755429" lon="10.141562409338869"><ele>58.33333333333333</ele><time>2026-04-26T13:54:03.004Z</time></trkpt><trkpt lat="44.040208555255354" lon="10.141666078951838"><ele>58.666666666666664</ele><time>2026-04-26T13:54:04.004Z</time></trkpt><trkpt lat="44.040254772559834" lon="10.141777422021166"><ele>59.0</ele><time>2026-04-26T13:54:05.004Z</time></trkpt><trkpt lat="44.04030353111257" lon="10.141870713250466"><ele>59.33333333333333</ele><time>2026-04-26T13:54:06.004Z</time></trkpt><trkpt lat="44.040346593629934" lon="10.141949969769989"><ele>59.666666666666664</ele><time>2026-04-26T13:54:07.004Z</time></trkpt><trkpt lat="44.04039121147153" lon="10.142012853643639"><ele>60.0</ele><time>2026-04-26T13:54:08.004Z</time></trkpt><trkpt lat="44.04042511894422" lon="10.142102077904383"><ele>60.0</ele><time>2026-04-26T13:54:10.004Z</time></trkpt><trkpt lat="44.04054857755329" lon="10.142051847568629"><ele>60.0</ele><time>2026-04-26T13:54:13.004Z</time></trkpt><trkpt lat="44.04063041248391" lon="10.141943198875824"><ele>60.0</ele><time>2026-04-26T13:54:14.004Z</time></trkpt><trkpt lat="44.040698385014636" lon="10.141877532591284"><ele>60.0</ele><time>2026-04-26T13:54:15.004Z</time></trkpt><trkpt lat="44.04077218040977" lon="10.141775592418458"><ele>60.0</ele><time>2026-04-26T13:54:17.004Z</time></trkpt><trkpt lat="44.040825431940206" lon="10.141713575468108"><ele>60.4</ele><time>2026-04-26T13:54:19.004Z</time></trkpt><trkpt lat="44.040940889117955" lon="10.141595412594846"><ele>60.8</ele><time>2026-04-26T13:54:54.004Z</time></trkpt><trkpt lat="44.04102090919164" lon="10.141706063023413"><ele>61.2</ele><time>2026-04-26T13:54:57.004Z</time></trkpt><trkpt lat="44.04106012017182" lon="10.141818099551555"><ele>61.6</ele><time>2026-04-26T13:54:58.004Z</time></trkpt><trkpt lat="44.041105946703276" lon="10.141937736923614"><ele>62.0</ele><time>2026-04-26T13:54:59.004Z</time></trkpt><trkpt lat="44.04116950022511" lon="10.142050065646522"><ele>62.0</ele><time>2026-04-26T13:55:00.004Z</time></trkpt><trkpt lat="44.0412503072664" lon="10.142162479426771"><ele>62.0</ele><time>2026-04-26T13:55:01.004Z</time></trkpt><trkpt lat="44.04133607908793" lon="10.142263568477938"><ele>62.0</ele><time>2026-04-26T13:55:02.004Z</time></trkpt><trkpt lat="44.04142639998665" lon="10.142364419816944"><ele>62.0</ele><time>2026-04-26T13:55:03.004Z</time></trkpt><trkpt lat="44.041543948421456" lon="10.142428723883347"><ele>62.0</ele><time>2026-04-26T13:55:04.004Z</time></trkpt><trkpt lat="44.041676725111415" lon="10.142487007704188"><ele>62.0</ele><time>2026-04-26T13:55:05.004Z</time></trkpt><trkpt lat="44.04181534345719" lon="10.142521952935532"><ele>62.0</ele><time>2026-04-26T13:55:06.004Z</time></trkpt><trkpt lat="44.04192951995674" lon="10.14261014972373"><ele>62.0</ele><time>2026-04-26T13:55:07.004Z</time></trkpt><trkpt lat="44.042073789640575" lon="10.14265503655273"><ele>62.0</ele><time>2026-04-26T13:55:08.004Z</time></trkpt><trkpt lat="44.04220056640965" lon="10.142709833687656"><ele>62.0</ele><time>2026-04-26T13:55:09.004Z</time></trkpt><trkpt lat="44.04232610270275" lon="10.142759461441543"><ele>62.0</ele><time>2026-04-26T13:55:10.004Z</time></trkpt><trkpt lat="44.04244968576828" lon="10.142816094910586"><ele>62.0</ele><time>2026-04-26T13:55:11.004Z</time></trkpt><trkpt lat="44.042573726695686" lon="10.142865468240114"><ele>62.5</ele><time>2026-04-26T13:55:12.004Z</time></trkpt><trkpt lat="44.04270087707986" lon="10.142918063730038"><ele>63.0</ele><time>2026-04-26T13:55:13.004Z</time></trkpt><trkpt lat="44.04283350892493" lon="10.142966484590312"><ele>63.5</ele><time>2026-04-26T13:55:14.004Z</time></trkpt><trkpt lat="44.04296515854252" lon="10.14301475330085"><ele>64.0</ele><time>2026-04-26T13:55:15.004Z</time></trkpt><trkpt lat="44.04308407086433" lon="10.143070484491078"><ele>64.0</ele><time>2026-04-26T13:55:16.004Z</time></trkpt><trkpt lat="44.04318902327233" lon="10.143121225714713"><ele>64.0</ele><time>2026-04-26T13:55:17.004Z</time></trkpt><trkpt lat="44.043280433165094" lon="10.143189681894915"><ele>64.0</ele><time>2026-04-26T13:55:18.004Z</time></trkpt><trkpt lat="44.04335565139518" lon="10.143280805197547"><ele>64.0</ele><time>2026-04-26T13:55:19.004Z</time></trkpt><trkpt lat="44.0434226968531" lon="10.143402020185045"><ele>64.0</ele><time>2026-04-26T13:55:20.004Z</time></trkpt><trkpt lat="44.043474188402406" lon="10.143540453304166"><ele>64.2</ele><time>2026-04-26T13:55:21.004Z</time></trkpt><trkpt lat="44.04351801842576" lon="10.14367033718476"><ele>64.4</ele><time>2026-04-26T13:55:22.004Z</time></trkpt><trkpt lat="44.04355014433849" lon="10.143805013075761"><ele>64.6</ele><time>2026-04-26T13:55:23.004Z</time></trkpt><trkpt lat="44.0436011046334" lon="10.143938826495972"><ele>64.8</ele><time>2026-04-26T13:55:24.004Z</time></trkpt><trkpt lat="44.043656789913705" lon="10.144065732601378"><ele>65.0</ele><time>2026-04-26T13:55:25.004Z</time></trkpt><trkpt lat="44.043722738326366" lon="10.144199112554643"><ele>66.25</ele><time>2026-04-26T13:55:26.004Z</time></trkpt><trkpt lat="44.043818925717204" lon="10.144334759312935"><ele>67.5</ele><time>2026-04-26T13:55:27.004Z</time></trkpt><trkpt lat="44.043888286284435" lon="10.144494387481961"><ele>68.75</ele><time>2026-04-26T13:55:28.004Z</time></trkpt><trkpt lat="44.04396388329436" lon="10.144647086341195"><ele>70.0</ele><time>2026-04-26T13:55:29.004Z</time></trkpt><trkpt lat="44.04403477051945" lon="10.144804025208845"><ele>70.0</ele><time>2026-04-26T13:55:30.004Z</time></trkpt><trkpt lat="44.04409982458602" lon="10.144962074414664"><ele>70.0</ele><time>2026-04-26T13:55:31.004Z</time></trkpt><trkpt lat="44.04416793348384" lon="10.14511572681787"><ele>70.0</ele><time>2026-04-26T13:55:32.004Z</time></trkpt><trkpt lat="44.04423131075232" lon="10.145274298759311"><ele>70.0</ele><time>2026-04-26T13:55:33.004Z</time></trkpt><trkpt lat="44.0442973266722" lon="10.145427269545394"><ele>70.0</ele><time>2026-04-26T13:55:34.004Z</time></trkpt><trkpt lat="44.04436572908485" lon="10.145570723395116"><ele>70.0</ele><time>2026-04-26T13:55:35.004Z</time></trkpt><trkpt lat="44.04442319998834" lon="10.145702584842173"><ele>70.0</ele><time>2026-04-26T13:55:36.004Z</time></trkpt><trkpt lat="44.04448019398706" lon="10.145830202116818"><ele>70.0</ele><time>2026-04-26T13:55:37.004Z</time></trkpt><trkpt lat="44.044543458128885" lon="10.145944278044965"><ele>70.0</ele><time>2026-04-26T13:55:38.004Z</time></trkpt><trkpt lat="44.044639925012085" lon="10.146010511086812"><ele>70.5</ele><time>2026-04-26T13:55:39.004Z</time></trkpt><trkpt lat="44.04475624160738" lon="10.146064744580046"><ele>71.0</ele><time>2026-04-26T13:55:40.004Z</time></trkpt><trkpt lat="44.044870488366044" lon="10.146128723028397"><ele>71.5</ele><time>2026-04-26T13:55:41.004Z</time></trkpt><trkpt lat="44.04498528566784" lon="10.146197957555746"><ele>72.0</ele><time>2026-04-26T13:55:42.004Z</time></trkpt><trkpt lat="44.04509480551297" lon="10.146259226333733"><ele>72.0</ele><time>2026-04-26T13:55:43.004Z</time></trkpt><trkpt lat="44.04519025260285" lon="10.146324294749776"><ele>72.0</ele><time>2026-04-26T13:55:44.004Z</time></trkpt><trkpt lat="44.04527733201374" lon="10.146400999417622"><ele>72.0</ele><time>2026-04-26T13:55:45.004Z</time></trkpt><trkpt lat="44.04535795550154" lon="10.14652848686761"><ele>72.0</ele><time>2026-04-26T13:55:46.004Z</time></trkpt><trkpt lat="44.04542774594885" lon="10.146696553054333"><ele>77.5</ele><time>2026-04-26T13:55:47.004Z</time></trkpt><trkpt lat="44.045501970385985" lon="10.14686381767873"><ele>83.0</ele><time>2026-04-26T13:55:48.004Z</time></trkpt><trkpt lat="44.045582683532096" lon="10.147028223696791"><ele>88.5</ele><time>2026-04-26T13:55:49.004Z</time></trkpt><trkpt lat="44.04564907408443" lon="10.147204450463374"><ele>94.0</ele><time>2026-04-26T13:55:50.004Z</time></trkpt><trkpt lat="44.04570703131566" lon="10.147392200121013"><ele>90.5</ele><time>2026-04-26T13:55:51.004Z</time></trkpt><trkpt lat="44.045761058253156" lon="10.147571848748584"><ele>87.0</ele><time>2026-04-26T13:55:52.004Z</time></trkpt><trkpt lat="44.04580812498164" lon="10.147741076446836"><ele>83.5</ele><time>2026-04-26T13:55:53.004Z</time></trkpt><trkpt lat="44.04582114159317" lon="10.147913547364228"><ele>80.0</ele><time>2026-04-26T13:55:54.004Z</time></trkpt><trkpt lat="44.045813325670714" lon="10.148106351893802"><ele>82.0</ele><time>2026-04-26T13:55:55.004Z</time></trkpt><trkpt lat="44.04579673042094" lon="10.148295958530934"><ele>84.0</ele><time>2026-04-26T13:55:56.004Z</time></trkpt><trkpt lat="44.04577689207922" lon="10.148492357865523"><ele>86.0</ele><time>2026-04-26T13:55:57.004Z</time></trkpt><trkpt lat="44.04578284602717" lon="10.148704537733776"><ele>88.0</ele><time>2026-04-26T13:55:58.004Z</time></trkpt><trkpt lat="44.04580604836084" lon="10.148928755743562"><ele>91.66666666666666</ele><time>2026-04-26T13:55:59.004Z</time></trkpt><trkpt lat="44.045845469182716" lon="10.149159158010816"><ele>95.33333333333333</ele><time>2026-04-26T13:56:00.004Z</time></trkpt><trkpt lat="44.04590146416834" lon="10.149377676103779"><ele>99.0</ele><time>2026-04-26T13:56:01.004Z</time></trkpt><trkpt lat="44.045961478886284" lon="10.149587654580207"><ele>99.0</ele><time>2026-04-26T13:56:02.004Z</time></trkpt><trkpt lat="44.0459988348287" lon="10.14978972988886"><ele>99.0</ele><time>2026-04-26T13:56:03.004Z</time></trkpt><trkpt lat="44.04601395728093" lon="10.150002166177577"><ele>99.0</ele><time>2026-04-26T13:56:04.004Z</time></trkpt><trkpt lat="44.0460508420954" lon="10.150205520627356"><ele>98.25</ele><time>2026-04-26T13:56:05.004Z</time></trkpt><trkpt lat="44.04604716220423" lon="10.150406399543554"><ele>97.5</ele><time>2026-04-26T13:56:06.004Z</time></trkpt><trkpt lat="44.04603794592933" lon="10.150592718343804"><ele>96.75</ele><time>2026-04-26T13:56:07.004Z</time></trkpt><trkpt lat="44.04601154857172" lon="10.150786903298439"><ele>96.0</ele><time>2026-04-26T13:56:08.004Z</time></trkpt><trkpt lat="44.04596997255491" lon="10.1509756979022"><ele>96.0</ele><time>2026-04-26T13:56:09.004Z</time></trkpt><trkpt lat="44.04593311761924" lon="10.151178137117139"><ele>96.0</ele><time>2026-04-26T13:56:10.004Z</time></trkpt><trkpt lat="44.04588035625987" lon="10.151377632314935"><ele>96.0</ele><time>2026-04-26T13:56:11.004Z</time></trkpt><trkpt lat="44.04580199963243" lon="10.151545432202418"><ele>96.0</ele><time>2026-04-26T13:56:12.004Z</time></trkpt><trkpt lat="44.04572668631994" lon="10.151720463212257"><ele>108.25</ele><time>2026-04-26T13:56:13.004Z</time></trkpt><trkpt lat="44.045649160792465" lon="10.151905944426078"><ele>120.5</ele><time>2026-04-26T13:56:14.004Z</time></trkpt><trkpt lat="44.045578885797525" lon="10.15208238724943"><ele>132.75</ele><time>2026-04-26T13:56:15.004Z</time></trkpt><trkpt lat="44.04553018961375" lon="10.152266195573652"><ele>145.0</ele><time>2026-04-26T13:56:16.004Z</time></trkpt><trkpt lat="44.04548061890388" lon="10.15244400818025"><ele>145.0</ele><time>2026-04-26T13:56:17.004Z</time></trkpt><trkpt lat="44.04544868829781" lon="10.152632142170065"><ele>145.0</ele><time>2026-04-26T13:56:18.004Z</time></trkpt><trkpt lat="44.04542618702342" lon="10.152820392452432"><ele>145.0</ele><time>2026-04-26T13:56:19.004Z</time></trkpt><trkpt lat="44.04540251948544" lon="10.153000970206127"><ele>145.0</ele><time>2026-04-26T13:56:20.004Z</time></trkpt><trkpt lat="44.04540786360375" lon="10.15318301527835"><ele>141.0</ele><time>2026-04-26T13:56:21.004Z</time></trkpt><trkpt lat="44.045439081252745" lon="10.153357758595009"><ele>137.0</ele><time>2026-04-26T13:56:22.004Z</time></trkpt><trkpt lat="44.04548077205574" lon="10.153528736184176"><ele>133.0</ele><time>2026-04-26T13:56:23.004Z</time></trkpt><trkpt lat="44.045549196320096" lon="10.153693694042845"><ele>129.0</ele><time>2026-04-26T13:56:24.004Z</time></trkpt><trkpt lat="44.04563427184606" lon="10.153847506305944"><ele>129.0</ele><time>2026-04-26T13:56:25.004Z</time></trkpt><trkpt lat="44.045724943527894" lon="10.154006420787375"><ele>129.0</ele><time>2026-04-26T13:56:26.004Z</time></trkpt><trkpt lat="44.04582392710685" lon="10.154155883202971"><ele>129.0</ele><time>2026-04-26T13:56:27.004Z</time></trkpt><trkpt lat="44.045927635942135" lon="10.154290435158323"><ele>129.0</ele><time>2026-04-26T13:56:28.004Z</time></trkpt><trkpt lat="44.04604502810098" lon="10.154411125333443"><ele>120.0</ele><time>2026-04-26T13:56:29.004Z</time></trkpt><trkpt lat="44.04615594803528" lon="10.154541636648435"><ele>111.0</ele><time>2026-04-26T13:56:30.004Z</time></trkpt><trkpt lat="44.04629432906325" lon="10.154615725958253"><ele>102.0</ele><time>2026-04-26T13:56:31.004Z</time></trkpt><trkpt lat="44.04641959784383" lon="10.154694046900799"><ele>93.0</ele><time>2026-04-26T13:56:32.004Z</time></trkpt><trkpt lat="44.04654318212782" lon="10.154766978077248"><ele>92.0</ele><time>2026-04-26T13:56:33.004Z</time></trkpt><trkpt lat="44.04667341579283" lon="10.15483661710274"><ele>91.0</ele><time>2026-04-26T13:56:34.004Z</time></trkpt><trkpt lat="44.04680686049795" lon="10.154901964149817"><ele>90.0</ele><time>2026-04-26T13:56:35.004Z</time></trkpt><trkpt lat="44.04693436756215" lon="10.154969065738836"><ele>89.0</ele><time>2026-04-26T13:56:36.004Z</time></trkpt><trkpt lat="44.04706210657704" lon="10.155030910635084"><ele>89.0</ele><time>2026-04-26T13:56:37.004Z</time></trkpt><trkpt lat="44.04718960452076" lon="10.155094290277628"><ele>89.0</ele><time>2026-04-26T13:56:38.004Z</time></trkpt><trkpt lat="44.04731807332391" lon="10.155155571475595"><ele>89.0</ele><time>2026-04-26T13:56:39.004Z</time></trkpt><trkpt lat="44.0474388839429" lon="10.15522540485212"><ele>89.0</ele><time>2026-04-26T13:56:40.004Z</time></trkpt><trkpt lat="44.04756328866867" lon="10.155294632144022"><ele>87.25</ele><time>2026-04-26T13:56:41.004Z</time></trkpt><trkpt lat="44.04767270515441" lon="10.155412541972789"><ele>85.5</ele><time>2026-04-26T13:56:42.004Z</time></trkpt><trkpt lat="44.047766158695815" lon="10.155529242559853"><ele>83.75</ele><time>2026-04-26T13:56:43.004Z</time></trkpt><trkpt lat="44.04784928083944" lon="10.15567748444865"><ele>82.0</ele><time>2026-04-26T13:56:44.004Z</time></trkpt><trkpt lat="44.047940920164145" lon="10.155853168478325"><ele>89.66666666666666</ele><time>2026-04-26T13:56:45.004Z</time></trkpt><trkpt lat="44.048021076974436" lon="10.156033934528455"><ele>97.33333333333333</ele><time>2026-04-26T13:56:46.004Z</time></trkpt><trkpt lat="44.04804978538807" lon="10.156239887320389"><ele>105.0</ele><time>2026-04-26T13:56:47.004Z</time></trkpt><trkpt lat="44.04808089305795" lon="10.156449526852889"><ele>113.33333333333334</ele><time>2026-04-26T13:56:48.004Z</time></trkpt><trkpt lat="44.04809509940205" lon="10.156657470784985"><ele>121.66666666666667</ele><time>2026-04-26T13:56:49.004Z</time></trkpt><trkpt lat="44.04810078457609" lon="10.15686866839487"><ele>130.0</ele><time>2026-04-26T13:56:50.004Z</time></trkpt><trkpt lat="44.04808637454965" lon="10.157075721955282"><ele>130.0</ele><time>2026-04-26T13:56:51.004Z</time></trkpt><trkpt lat="44.048061801849755" lon="10.157274277035382"><ele>130.0</ele><time>2026-04-26T13:56:52.004Z</time></trkpt><trkpt lat="44.048043219334495" lon="10.157454057796903"><ele>130.0</ele><time>2026-04-26T13:56:53.004Z</time></trkpt><trkpt lat="44.04804191360385" lon="10.157611509858599"><ele>130.0</ele><time>2026-04-26T13:56:54.004Z</time></trkpt><trkpt lat="44.04803032009966" lon="10.157746032522844"><ele>129.33333333333334</ele><time>2026-04-26T13:56:55.004Z</time></trkpt><trkpt lat="44.048035741810544" lon="10.157856100215533"><ele>128.66666666666669</ele><time>2026-04-26T13:56:56.004Z</time></trkpt><trkpt lat="44.04804781361312" lon="10.157955935373002"><ele>128.0</ele><time>2026-04-26T13:56:57.004Z</time></trkpt><trkpt lat="44.04806325388893" lon="10.158054404289157"><ele>127.33333333333334</ele><time>2026-04-26T13:56:58.004Z</time></trkpt><trkpt lat="44.048092782295605" lon="10.15815124657167"><ele>126.66666666666667</ele><time>2026-04-26T13:56:59.004Z</time></trkpt><trkpt lat="44.048148914485836" lon="10.158245290565327"><ele>126.0</ele><time>2026-04-26T13:57:00.004Z</time></trkpt><trkpt lat="44.04821405985471" lon="10.158321126065486"><ele>128.25</ele><time>2026-04-26T13:57:01.004Z</time></trkpt><trkpt lat="44.04827166758088" lon="10.158443095484486"><ele>130.5</ele><time>2026-04-26T13:57:02.004Z</time></trkpt><trkpt lat="44.048337819379654" lon="10.158563778230555"><ele>132.75</ele><time>2026-04-26T13:57:03.004Z</time></trkpt><trkpt lat="44.048399941171255" lon="10.158716257806068"><ele>135.0</ele><time>2026-04-26T13:57:04.004Z</time></trkpt><trkpt lat="44.04847082466395" lon="10.158881396889246"><ele>129.0</ele><time>2026-04-26T13:57:05.004Z</time></trkpt><trkpt lat="44.048551096451654" lon="10.159050799259207"><ele>123.0</ele><time>2026-04-26T13:57:06.004Z</time></trkpt><trkpt lat="44.0486314962425" lon="10.159213715647214"><ele>117.0</ele><time>2026-04-26T13:57:07.004Z</time></trkpt><trkpt lat="44.04870191013199" lon="10.15935473619558"><ele>111.0</ele><time>2026-04-26T13:57:08.004Z</time></trkpt><trkpt lat="44.04876190183454" lon="10.159479615567982"><ele>111.0</ele><time>2026-04-26T13:57:09.004Z</time></trkpt><trkpt lat="44.04884599739149" lon="10.159585157344186"><ele>111.0</ele><time>2026-04-26T13:57:10.004Z</time></trkpt><trkpt lat="44.04893712687283" lon="10.15965332325631"><ele>111.0</ele><time>2026-04-26T13:57:11.004Z</time></trkpt><trkpt lat="44.04902585806855" lon="10.15973452189808"><ele>111.0</ele><time>2026-04-26T13:57:12.004Z</time></trkpt><trkpt lat="44.049117700686814" lon="10.159822365893973"><ele>111.0</ele><time>2026-04-26T13:57:13.005Z</time></trkpt><trkpt lat="44.049200600301766" lon="10.159941686505505"><ele>112.5</ele><time>2026-04-26T13:57:14.005Z</time></trkpt><trkpt lat="44.0492760760496" lon="10.160084430912631"><ele>114.0</ele><time>2026-04-26T13:57:15.005Z</time></trkpt><trkpt lat="44.04934960594833" lon="10.16022857484525"><ele>115.5</ele><time>2026-04-26T13:57:16.005Z</time></trkpt><trkpt lat="44.04942664192399" lon="10.160376442531488"><ele>117.0</ele><time>2026-04-26T13:57:17.005Z</time></trkpt><trkpt lat="44.04950238434317" lon="10.160525173884068"><ele>117.0</ele><time>2026-04-26T13:57:18.005Z</time></trkpt><trkpt lat="44.04954184912962" lon="10.16067221574346"><ele>117.0</ele><time>2026-04-26T13:57:19.005Z</time></trkpt><trkpt lat="44.04962882639632" lon="10.160780241220193"><ele>117.0</ele><time>2026-04-26T13:57:20.005Z</time></trkpt><trkpt lat="44.04972905557223" lon="10.160893071045408"><ele>117.0</ele><time>2026-04-26T13:57:21.005Z</time></trkpt><trkpt lat="44.04981965809884" lon="10.160995188768013"><ele>118.8</ele><time>2026-04-26T13:57:22.005Z</time></trkpt><trkpt lat="44.04991021181487" lon="10.16108079928063"><ele>120.6</ele><time>2026-04-26T13:57:23.005Z</time></trkpt><trkpt lat="44.04999565361223" lon="10.161151009774802"><ele>122.39999999999999</ele><time>2026-04-26T13:57:24.005Z</time></trkpt><trkpt lat="44.05010977408477" lon="10.16113390976291"><ele>124.19999999999999</ele><time>2026-04-26T13:57:25.005Z</time></trkpt><trkpt lat="44.050214111240365" lon="10.161132645094446"><ele>126.0</ele><time>2026-04-26T13:57:26.005Z</time></trkpt><trkpt lat="44.05033457097159" lon="10.161154206375766"><ele>126.0</ele><time>2026-04-26T13:57:27.005Z</time></trkpt><trkpt lat="44.05043200393664" lon="10.161191544098383"><ele>126.0</ele><time>2026-04-26T13:57:28.005Z</time></trkpt><trkpt lat="44.050513808523846" lon="10.161260423674587"><ele>126.0</ele><time>2026-04-26T13:57:29.005Z</time></trkpt><trkpt lat="44.05058475238856" lon="10.161370595176185"><ele>126.0</ele><time>2026-04-26T13:57:30.005Z</time></trkpt><trkpt lat="44.050643483229514" lon="10.161491364992466"><ele>126.0</ele><time>2026-04-26T13:57:31.005Z</time></trkpt><trkpt lat="44.05068374436159" lon="10.161612718680432"><ele>133.8</ele><time>2026-04-26T13:57:32.005Z</time></trkpt><trkpt lat="44.05070834653035" lon="10.161735580549433"><ele>141.6</ele><time>2026-04-26T13:57:33.005Z</time></trkpt><trkpt lat="44.050688562755965" lon="10.161878946353578"><ele>149.4</ele><time>2026-04-26T13:57:34.005Z</time></trkpt><trkpt lat="44.05061621599599" lon="10.161997356979382"><ele>157.2</ele><time>2026-04-26T13:57:35.005Z</time></trkpt><trkpt lat="44.05055705862364" lon="10.16212508661519"><ele>165.0</ele><time>2026-04-26T13:57:36.005Z</time></trkpt><trkpt lat="44.05050468055368" lon="10.162261735174598"><ele>170.4</ele><time>2026-04-26T13:57:37.005Z</time></trkpt><trkpt lat="44.050466328521985" lon="10.162391545103628"><ele>175.8</ele><time>2026-04-26T13:57:38.005Z</time></trkpt><trkpt lat="44.05044932506024" lon="10.16252861488718"><ele>181.2</ele><time>2026-04-26T13:57:39.005Z</time></trkpt><trkpt lat="44.05044151799952" lon="10.162679738610011"><ele>186.6</ele><time>2026-04-26T13:57:40.005Z</time></trkpt><trkpt lat="44.05043736536135" lon="10.16281915807309"><ele>192.0</ele><time>2026-04-26T13:57:41.005Z</time></trkpt><trkpt lat="44.05044928931665" lon="10.162988576672728"><ele>192.0</ele><time>2026-04-26T13:57:42.005Z</time></trkpt><trkpt lat="44.05050378150909" lon="10.16315979959494"><ele>192.0</ele><time>2026-04-26T13:57:43.005Z</time></trkpt><trkpt lat="44.05055499970179" lon="10.163321004285548"><ele>192.0</ele><time>2026-04-26T13:57:44.005Z</time></trkpt><trkpt lat="44.05061436168076" lon="10.163470888691993"><ele>192.0</ele><time>2026-04-26T13:57:45.005Z</time></trkpt><trkpt lat="44.0506719763298" lon="10.163609919314501"><ele>189.8</ele><time>2026-04-26T13:57:46.005Z</time></trkpt><trkpt lat="44.05071939163157" lon="10.16373458808945"><ele>187.6</ele><time>2026-04-26T13:57:47.005Z</time></trkpt><trkpt lat="44.050798476521656" lon="10.163832649687318"><ele>185.4</ele><time>2026-04-26T13:57:48.005Z</time></trkpt><trkpt lat="44.050871012811264" lon="10.163924118430455"><ele>183.20000000000002</ele><time>2026-04-26T13:57:49.005Z</time></trkpt><trkpt lat="44.050913128351254" lon="10.164053700287507"><ele>181.0</ele><time>2026-04-26T13:57:50.005Z</time></trkpt><trkpt lat="44.05093897383972" lon="10.164170934484194"><ele>181.0</ele><time>2026-04-26T13:57:51.005Z</time></trkpt><trkpt lat="44.05096979785288" lon="10.164310362282578"><ele>181.0</ele><time>2026-04-26T13:57:52.005Z</time></trkpt><trkpt lat="44.05099413315845" lon="10.164434896207178"><ele>181.0</ele><time>2026-04-26T13:57:53.005Z</time></trkpt><trkpt lat="44.05101647255106" lon="10.164556053839757"><ele>181.0</ele><time>2026-04-26T13:57:54.005Z</time></trkpt><trkpt lat="44.051037935280256" lon="10.164675568966786"><ele>181.0</ele><time>2026-04-26T13:57:55.005Z</time></trkpt><trkpt lat="44.05106486614219" lon="10.164808089768915"><ele>185.0</ele><time>2026-04-26T13:57:56.005Z</time></trkpt><trkpt lat="44.051089474825815" lon="10.164936452897285"><ele>189.0</ele><time>2026-04-26T13:57:57.005Z</time></trkpt><trkpt lat="44.05112506004473" lon="10.165066921722376"><ele>193.0</ele><time>2026-04-26T13:57:58.005Z</time></trkpt><trkpt lat="44.051145322547995" lon="10.165222338927373"><ele>197.0</ele><time>2026-04-26T13:57:59.005Z</time></trkpt><trkpt lat="44.05113795857104" lon="10.165395043240592"><ele>201.0</ele><time>2026-04-26T13:58:00.005Z</time></trkpt><trkpt lat="44.05112904369753" lon="10.165557877462781"><ele>206.0</ele><time>2026-04-26T13:58:01.005Z</time></trkpt><trkpt lat="44.051143453569246" lon="10.165709385187904"><ele>211.0</ele><time>2026-04-26T13:58:02.005Z</time></trkpt><trkpt lat="44.05114750370449" lon="10.165871694420996"><ele>216.0</ele><time>2026-04-26T13:58:03.005Z</time></trkpt><trkpt lat="44.05115341058994" lon="10.16603759410142"><ele>221.0</ele><time>2026-04-26T13:58:04.005Z</time></trkpt><trkpt lat="44.051166847722534" lon="10.166207532659982"><ele>221.0</ele><time>2026-04-26T13:58:05.005Z</time></trkpt><trkpt lat="44.05115653598589" lon="10.166369006824683"><ele>221.00000000000003</ele><time>2026-04-26T13:58:06.005Z</time></trkpt><trkpt lat="44.05114806793919" lon="10.166508257283366"><ele>221.00000000000003</ele><time>2026-04-26T13:58:07.005Z</time></trkpt><trkpt lat="44.05116076208426" lon="10.166606667987867"><ele>221.0</ele><time>2026-04-26T13:58:08.005Z</time></trkpt><trkpt lat="44.051178841234915" lon="10.166697204863901"><ele>221.0</ele><time>2026-04-26T13:58:09.005Z</time></trkpt><trkpt lat="44.05127054304035" lon="10.166762664404262"><ele>224.75</ele><time>2026-04-26T13:58:11.005Z</time></trkpt><trkpt lat="44.05141267833013" lon="10.166779294202067"><ele>228.5</ele><time>2026-04-26T13:58:12.005Z</time></trkpt><trkpt lat="44.051533905009045" lon="10.166846753922874"><ele>232.25</ele><time>2026-04-26T13:58:13.005Z</time></trkpt><trkpt lat="44.05162716694472" lon="10.166907115542896"><ele>236.0</ele><time>2026-04-26T13:58:14.005Z</time></trkpt><trkpt lat="44.05170643409817" lon="10.166964403249272"><ele>234.83333333333334</ele><time>2026-04-26T13:58:15.005Z</time></trkpt><trkpt lat="44.05177741741917" lon="10.167024868025571"><ele>233.66666666666669</ele><time>2026-04-26T13:58:16.005Z</time></trkpt><trkpt lat="44.051801722884136" lon="10.167131805457013"><ele>232.5</ele><time>2026-04-26T13:58:17.005Z</time></trkpt><trkpt lat="44.05182442903692" lon="10.167224631892834"><ele>231.33333333333331</ele><time>2026-04-26T13:58:18.005Z</time></trkpt><trkpt lat="44.05185123469438" lon="10.167305506318234"><ele>230.16666666666666</ele><time>2026-04-26T13:58:19.005Z</time></trkpt><trkpt lat="44.05196535099227" lon="10.167435316861004"><ele>229.0</ele><time>2026-04-26T13:58:20.976Z</time></trkpt><trkpt lat="44.052057797376854" lon="10.167486332902424"><ele>229.0</ele><time>2026-04-26T13:58:21.976Z</time></trkpt><trkpt lat="44.05214482303096" lon="10.167547037420816"><ele>228.99999999999997</ele><time>2026-04-26T13:58:22.976Z</time></trkpt><trkpt lat="44.0522165191511" lon="10.167621051603941"><ele>228.99999999999997</ele><time>2026-04-26T13:58:23.976Z</time></trkpt><trkpt lat="44.05228590148957" lon="10.16770613927741"><ele>229.0</ele><time>2026-04-26T13:58:24.976Z</time></trkpt><trkpt lat="44.05233947829814" lon="10.167804983627958"><ele>229.0</ele><time>2026-04-26T13:58:25.976Z</time></trkpt><trkpt lat="44.05237958515495" lon="10.167933934154485"><ele>229.0</ele><time>2026-04-26T13:58:26.976Z</time></trkpt><trkpt lat="44.052408520274724" lon="10.16807123571284"><ele>228.99999999999997</ele><time>2026-04-26T13:58:27.976Z</time></trkpt><trkpt lat="44.05244559438789" lon="10.168211383191878"><ele>228.99999999999997</ele><time>2026-04-26T13:58:28.976Z</time></trkpt><trkpt lat="44.052491112325235" lon="10.168352936251221"><ele>229.0</ele><time>2026-04-26T13:58:29.976Z</time></trkpt><trkpt lat="44.05254055867214" lon="10.168490752942258"><ele>229.0</ele><time>2026-04-26T13:58:30.976Z</time></trkpt><trkpt lat="44.052577856854256" lon="10.168624609404647"><ele>229.6</ele><time>2026-04-26T13:58:31.976Z</time></trkpt><trkpt lat="44.052620725717624" lon="10.168744548480287"><ele>230.2</ele><time>2026-04-26T13:58:32.976Z</time></trkpt><trkpt lat="44.05267638242484" lon="10.168865038978344"><ele>230.79999999999998</ele><time>2026-04-26T13:58:33.976Z</time></trkpt><trkpt lat="44.05273020278825" lon="10.168990237562854"><ele>231.39999999999998</ele><time>2026-04-26T13:58:34.976Z</time></trkpt><trkpt lat="44.052792589907234" lon="10.169111722084603"><ele>232.0</ele><time>2026-04-26T13:58:35.976Z</time></trkpt><trkpt lat="44.052854005680416" lon="10.169241179053037"><ele>237.0</ele><time>2026-04-26T13:58:36.976Z</time></trkpt><trkpt lat="44.05293886448598" lon="10.169360270375888"><ele>242.0</ele><time>2026-04-26T13:58:37.976Z</time></trkpt><trkpt lat="44.05299910254953" lon="10.169500695780151"><ele>247.0</ele><time>2026-04-26T13:58:38.976Z</time></trkpt><trkpt lat="44.053050924512696" lon="10.169636193858938"><ele>252.0</ele><time>2026-04-26T13:58:39.976Z</time></trkpt><trkpt lat="44.053099590500445" lon="10.169767817432726"><ele>254.8</ele><time>2026-04-26T13:58:40.976Z</time></trkpt><trkpt lat="44.05313066310086" lon="10.169893645216023"><ele>257.6</ele><time>2026-04-26T13:58:41.976Z</time></trkpt><trkpt lat="44.05316344562882" lon="10.170035851852145"><ele>260.40000000000003</ele><time>2026-04-26T13:58:42.976Z</time></trkpt><trkpt lat="44.05318645959306" lon="10.170194187190045"><ele>263.2</ele><time>2026-04-26T13:58:43.976Z</time></trkpt><trkpt lat="44.05321248876495" lon="10.170349423389109"><ele>266.0</ele><time>2026-04-26T13:58:44.976Z</time></trkpt><trkpt lat="44.05324382156788" lon="10.170503630663053"><ele>266.0</ele><time>2026-04-26T13:58:45.976Z</time></trkpt><trkpt lat="44.05327368607931" lon="10.170651872056853"><ele>266.0</ele><time>2026-04-26T13:58:46.976Z</time></trkpt><trkpt lat="44.053294415585846" lon="10.17077420409213"><ele>266.0</ele><time>2026-04-26T13:58:47.976Z</time></trkpt><trkpt lat="44.053299928330965" lon="10.170881770766952"><ele>266.0</ele><time>2026-04-26T13:58:48.976Z</time></trkpt><trkpt lat="44.05327999822383" lon="10.170971749857918"><ele>266.0</ele><time>2026-04-26T13:58:49.976Z</time></trkpt><trkpt lat="44.05318618178422" lon="10.170994818910447"><ele>266.0</ele><time>2026-04-26T13:58:51.976Z</time></trkpt><trkpt lat="44.05312649684715" lon="10.170915054401107"><ele>266.0</ele><time>2026-04-26T13:58:52.976Z</time></trkpt><trkpt lat="44.053063156083674" lon="10.170805523318764"><ele>266.0</ele><time>2026-04-26T13:58:53.976Z</time></trkpt><trkpt lat="44.0529883419051" lon="10.170676420801316"><ele>266.0</ele><time>2026-04-26T13:58:54.976Z</time></trkpt><trkpt lat="44.05291188319099" lon="10.17056568984142"><ele>266.0</ele><time>2026-04-26T13:58:55.976Z</time></trkpt><trkpt lat="44.05284542552749" lon="10.170460177837377"><ele>266.0</ele><time>2026-04-26T13:58:56.976Z</time></trkpt><trkpt lat="44.052778659599866" lon="10.170351816406207"><ele>266.0</ele><time>2026-04-26T13:58:57.976Z</time></trkpt><trkpt lat="44.05270661052729" lon="10.170266951982006"><ele>266.0</ele><time>2026-04-26T13:58:58.976Z</time></trkpt><trkpt lat="44.052620982276196" lon="10.170210189870405"><ele>266.0</ele><time>2026-04-26T13:58:59.976Z</time></trkpt><trkpt lat="44.05251766110834" lon="10.170184151094313"><ele>266.0</ele><time>2026-04-26T13:59:00.976Z</time></trkpt><trkpt lat="44.05240825120917" lon="10.170180678797163"><ele>266.0</ele><time>2026-04-26T13:59:01.976Z</time></trkpt><trkpt lat="44.05230189400817" lon="10.170179936393007"><ele>270.6</ele><time>2026-04-26T13:59:02.976Z</time></trkpt><trkpt lat="44.052201164147036" lon="10.170140482091112"><ele>275.20000000000005</ele><time>2026-04-26T13:59:03.977Z</time></trkpt><trkpt lat="44.052120675007494" lon="10.170109938917243"><ele>279.79999999999995</ele><time>2026-04-26T13:59:04.977Z</time></trkpt><trkpt lat="44.052042243879846" lon="10.170056066426167"><ele>284.4</ele><time>2026-04-26T13:59:05.977Z</time></trkpt><trkpt lat="44.051979165720724" lon="10.16996554866866"><ele>289.0</ele><time>2026-04-26T13:59:06.973Z</time></trkpt><trkpt lat="44.05192181165464" lon="10.169874263055984"><ele>287.8</ele><time>2026-04-26T13:59:07.973Z</time></trkpt><trkpt lat="44.05187245864918" lon="10.169760617568556"><ele>286.59999999999997</ele><time>2026-04-26T13:59:08.973Z</time></trkpt><trkpt lat="44.05183038476456" lon="10.169611794999001"><ele>285.4</ele><time>2026-04-26T13:59:09.973Z</time></trkpt><trkpt lat="44.05174434676609" lon="10.169489437454672"><ele>284.2</ele><time>2026-04-26T13:59:10.973Z</time></trkpt><trkpt lat="44.0516629418497" lon="10.169393498023785"><ele>283.0</ele><time>2026-04-26T13:59:11.973Z</time></trkpt><trkpt lat="44.051579823332744" lon="10.169324512623499"><ele>283.0</ele><time>2026-04-26T13:59:12.973Z</time></trkpt><trkpt lat="44.051479971461156" lon="10.169265738505388"><ele>283.0</ele><time>2026-04-26T13:59:13.973Z</time></trkpt><trkpt lat="44.05136526167385" lon="10.169262240546907"><ele>283.0</ele><time>2026-04-26T13:59:14.973Z</time></trkpt><trkpt lat="44.0512675534345" lon="10.169275303328556"><ele>283.0</ele><time>2026-04-26T13:59:15.973Z</time></trkpt><trkpt lat="44.05114605947467" lon="10.169305376303457"><ele>283.0</ele><time>2026-04-26T13:59:16.973Z</time></trkpt><trkpt lat="44.051026675938076" lon="10.169336237358038"><ele>283.0</ele><time>2026-04-26T13:59:17.973Z</time></trkpt><trkpt lat="44.05090085211114" lon="10.169351040920034"><ele>283.0</ele><time>2026-04-26T13:59:18.973Z</time></trkpt><trkpt lat="44.05076842232581" lon="10.169358320766662"><ele>283.0</ele><time>2026-04-26T13:59:19.973Z</time></trkpt><trkpt lat="44.05064073350161" lon="10.169359667971452"><ele>283.0</ele><time>2026-04-26T13:59:20.973Z</time></trkpt><trkpt lat="44.05055590149086" lon="10.169359330515167"><ele>286.2</ele><time>2026-04-26T13:59:21.973Z</time></trkpt><trkpt lat="44.05048989184903" lon="10.169379159750942"><ele>289.4</ele><time>2026-04-26T13:59:22.973Z</time></trkpt><trkpt lat="44.05040544667878" lon="10.169355429876443"><ele>292.59999999999997</ele><time>2026-04-26T13:59:23.973Z</time></trkpt><trkpt lat="44.05030991878159" lon="10.169318985695162"><ele>295.8</ele><time>2026-04-26T13:59:24.973Z</time></trkpt><trkpt lat="44.05022568886371" lon="10.169255715991408"><ele>299.0</ele><time>2026-04-26T13:59:25.973Z</time></trkpt><trkpt lat="44.05014970895343" lon="10.169158755230436"><ele>299.0</ele><time>2026-04-26T13:59:26.973Z</time></trkpt><trkpt lat="44.05006111723164" lon="10.169089540680906"><ele>299.0</ele><time>2026-04-26T13:59:27.973Z</time></trkpt><trkpt lat="44.04993871710342" lon="10.169026015440455"><ele>299.0</ele><time>2026-04-26T13:59:28.973Z</time></trkpt><trkpt lat="44.04981839241214" lon="10.168953681695426"><ele>299.0</ele><time>2026-04-26T13:59:29.973Z</time></trkpt><trkpt lat="44.04970853002782" lon="10.168882832449341"><ele>301.25</ele><time>2026-04-26T13:59:30.973Z</time></trkpt><trkpt lat="44.049605605440156" lon="10.168800738646748"><ele>303.5</ele><time>2026-04-26T13:59:31.973Z</time></trkpt><trkpt lat="44.04950235190349" lon="10.168710591978755"><ele>305.75</ele><time>2026-04-26T13:59:32.973Z</time></trkpt><trkpt lat="44.04939890123905" lon="10.168606473233574"><ele>308.0</ele><time>2026-04-26T13:59:33.973Z</time></trkpt><trkpt lat="44.0492954646367" lon="10.168514198206008"><ele>308.0</ele><time>2026-04-26T13:59:34.973Z</time></trkpt><trkpt lat="44.04917850991018" lon="10.168433528396173"><ele>308.0</ele><time>2026-04-26T13:59:35.973Z</time></trkpt><trkpt lat="44.04907457836194" lon="10.168357246202248"><ele>308.0</ele><time>2026-04-26T13:59:36.973Z</time></trkpt><trkpt lat="44.049000740874625" lon="10.168285430216995"><ele>308.0</ele><time>2026-04-26T13:59:37.973Z</time></trkpt><trkpt lat="44.04892659764702" lon="10.168200669519706"><ele>308.0</ele><time>2026-04-26T13:59:39.973Z</time></trkpt><trkpt lat="44.048975407474536" lon="10.168281948578596"><ele>308.0</ele><time>2026-04-26T13:59:48.973Z</time></trkpt><trkpt lat="44.04903751968404" lon="10.168342508944678"><ele>308.0</ele><time>2026-04-26T13:59:49.973Z</time></trkpt><trkpt lat="44.04905972194971" lon="10.168592132109922"><ele>308.0</ele><time>2026-04-26T13:59:50.973Z</time></trkpt><trkpt lat="44.04911156361209" lon="10.168670355889022"><ele>308.0</ele><time>2026-04-26T13:59:51.973Z</time></trkpt><trkpt lat="44.04918556423731" lon="10.168781775699633"><ele>308.0</ele><time>2026-04-26T13:59:52.973Z</time></trkpt><trkpt lat="44.04927040368524" lon="10.168909539238891"><ele>312.5</ele><time>2026-04-26T13:59:53.973Z</time></trkpt><trkpt lat="44.04935759927555" lon="10.169041056232853"><ele>317.0</ele><time>2026-04-26T13:59:54.973Z</time></trkpt><trkpt lat="44.04944649742211" lon="10.16917514119457"><ele>321.5</ele><time>2026-04-26T13:59:55.973Z</time></trkpt><trkpt lat="44.04953465912807" lon="10.169309596655161"><ele>326.0</ele><time>2026-04-26T13:59:56.973Z</time></trkpt><trkpt lat="44.04962371467491" lon="10.169449106820437"><ele>326.0</ele><time>2026-04-26T13:59:57.973Z</time></trkpt><trkpt lat="44.04971784795617" lon="10.169600116740192"><ele>326.0</ele><time>2026-04-26T13:59:58.973Z</time></trkpt><trkpt lat="44.049807400294654" lon="10.169743777853727"><ele>326.0</ele><time>2026-04-26T13:59:59.973Z</time></trkpt><trkpt lat="44.049888131746414" lon="10.169873288369482"><ele>326.0</ele><time>2026-04-26T14:00:00.973Z</time></trkpt><trkpt lat="44.04998000229759" lon="10.170014982384659"><ele>324.0</ele><time>2026-04-26T14:00:01.973Z</time></trkpt><trkpt lat="44.05004926260207" lon="10.170108540037514"><ele>322.0</ele><time>2026-04-26T14:00:02.973Z</time></trkpt><trkpt lat="44.05016031182839" lon="10.170223452940354"><ele>320.0</ele><time>2026-04-26T14:00:03.973Z</time></trkpt><trkpt lat="44.05028649675709" lon="10.170331723466273"><ele>318.0</ele><time>2026-04-26T14:00:04.973Z</time></trkpt><trkpt lat="44.05041987804092" lon="10.170435758557588"><ele>318.0</ele><time>2026-04-26T14:00:05.973Z</time></trkpt><trkpt lat="44.05054587063557" lon="10.170545556795153"><ele>318.0</ele><time>2026-04-26T14:00:06.973Z</time></trkpt><trkpt lat="44.05067315693195" lon="10.170654367957603"><ele>318.0</ele><time>2026-04-26T14:00:07.973Z</time></trkpt><trkpt lat="44.05080566058629" lon="10.170765483457423"><ele>317.75</ele><time>2026-04-26T14:00:08.973Z</time></trkpt><trkpt lat="44.05093867407749" lon="10.170867725500427"><ele>317.5</ele><time>2026-04-26T14:00:09.973Z</time></trkpt><trkpt lat="44.051064296046995" lon="10.170967182226288"><ele>317.25</ele><time>2026-04-26T14:00:10.973Z</time></trkpt><trkpt lat="44.05118885640784" lon="10.171068448623435"><ele>317.0</ele><time>2026-04-26T14:00:11.973Z</time></trkpt><trkpt lat="44.05130752276142" lon="10.171170501536725"><ele>317.0</ele><time>2026-04-26T14:00:12.973Z</time></trkpt><trkpt lat="44.05141283837536" lon="10.171256764570058"><ele>317.0</ele><time>2026-04-26T14:00:13.973Z</time></trkpt><trkpt lat="44.05149184306147" lon="10.171320544980519"><ele>317.0</ele><time>2026-04-26T14:00:14.973Z</time></trkpt><trkpt lat="44.0515651208671" lon="10.171409702550017"><ele>317.0</ele><time>2026-04-26T14:00:15.973Z</time></trkpt><trkpt lat="44.05164254422626" lon="10.171519996710188"><ele>317.0</ele><time>2026-04-26T14:00:16.973Z</time></trkpt><trkpt lat="44.05169166483038" lon="10.171677058684084"><ele>318.5</ele><time>2026-04-26T14:00:17.973Z</time></trkpt><trkpt lat="44.051747770254224" lon="10.171848215061338"><ele>320.0</ele><time>2026-04-26T14:00:18.973Z</time></trkpt><trkpt lat="44.05180024347645" lon="10.172025237465864"><ele>321.5</ele><time>2026-04-26T14:00:19.973Z</time></trkpt><trkpt lat="44.05189086766244" lon="10.172179847577734"><ele>323.0</ele><time>2026-04-26T14:00:20.973Z</time></trkpt><trkpt lat="44.051998201708564" lon="10.172335825942865"><ele>326.0</ele><time>2026-04-26T14:00:21.973Z</time></trkpt><trkpt lat="44.05209826642005" lon="10.17248679021802"><ele>329.0</ele><time>2026-04-26T14:00:22.973Z</time></trkpt><trkpt lat="44.05219196253563" lon="10.172626254646138"><ele>332.0</ele><time>2026-04-26T14:00:23.973Z</time></trkpt><trkpt lat="44.05229071698176" lon="10.172749395402581"><ele>335.0</ele><time>2026-04-26T14:00:24.973Z</time></trkpt><trkpt lat="44.05240283004813" lon="10.172851513637646"><ele>336.0</ele><time>2026-04-26T14:00:25.973Z</time></trkpt><trkpt lat="44.05253744976691" lon="10.172949511654705"><ele>337.0</ele><time>2026-04-26T14:00:26.973Z</time></trkpt><trkpt lat="44.052661587998685" lon="10.173051527151106"><ele>338.0</ele><time>2026-04-26T14:00:27.973Z</time></trkpt><trkpt lat="44.05278321772344" lon="10.173148351998083"><ele>339.0</ele><time>2026-04-26T14:00:28.973Z</time></trkpt><trkpt lat="44.052887297438645" lon="10.173242676405067"><ele>339.0</ele><time>2026-04-26T14:00:29.973Z</time></trkpt><trkpt lat="44.05296605430215" lon="10.173329807943329"><ele>339.0</ele><time>2026-04-26T14:00:30.973Z</time></trkpt><trkpt lat="44.05301485428783" lon="10.173414169647588"><ele>339.0</ele><time>2026-04-26T14:00:31.973Z</time></trkpt><trkpt lat="44.05304882885698" lon="10.173514035195256"><ele>339.0</ele><time>2026-04-26T14:00:32.973Z</time></trkpt><trkpt lat="44.053054324151695" lon="10.173644178976918"><ele>339.0</ele><time>2026-04-26T14:00:33.973Z</time></trkpt><trkpt lat="44.053029665081525" lon="10.173788638188723"><ele>339.0</ele><time>2026-04-26T14:00:34.973Z</time></trkpt><trkpt lat="44.05299172753663" lon="10.173938042972104"><ele>339.0</ele><time>2026-04-26T14:00:35.973Z</time></trkpt><trkpt lat="44.05296075551255" lon="10.174086951672814"><ele>339.0</ele><time>2026-04-26T14:00:36.973Z</time></trkpt><trkpt lat="44.05294189483399" lon="10.174222247009435"><ele>339.0</ele><time>2026-04-26T14:00:37.973Z</time></trkpt><trkpt lat="44.05295778609421" lon="10.17435116690951"><ele>339.0</ele><time>2026-04-26T14:00:38.973Z</time></trkpt><trkpt lat="44.05300833787096" lon="10.174471848508723"><ele>342.25</ele><time>2026-04-26T14:00:39.973Z</time></trkpt><trkpt lat="44.05308827334237" lon="10.174556623089478"><ele>345.5</ele><time>2026-04-26T14:00:40.973Z</time></trkpt><trkpt lat="44.05319865301276" lon="10.174613222999469"><ele>348.75</ele><time>2026-04-26T14:00:41.973Z</time></trkpt><trkpt lat="44.053331563375394" lon="10.174659921845441"><ele>352.0</ele><time>2026-04-26T14:00:42.973Z</time></trkpt><trkpt lat="44.053455211946705" lon="10.174725162976687"><ele>349.0</ele><time>2026-04-26T14:00:43.973Z</time></trkpt><trkpt lat="44.05356955960646" lon="10.174794049424838"><ele>346.0</ele><time>2026-04-26T14:00:44.973Z</time></trkpt><trkpt lat="44.0536814316506" lon="10.174878747356814"><ele>343.0</ele><time>2026-04-26T14:00:45.973Z</time></trkpt><trkpt lat="44.05377950956678" lon="10.17495975335646"><ele>340.0</ele><time>2026-04-26T14:00:46.973Z</time></trkpt><trkpt lat="44.05386841550755" lon="10.175048048906545"><ele>340.0</ele><time>2026-04-26T14:00:47.973Z</time></trkpt><trkpt lat="44.05394156785341" lon="10.175167454937226"><ele>340.0</ele><time>2026-04-26T14:00:48.973Z</time></trkpt><trkpt lat="44.05399208083367" lon="10.175303487628995"><ele>340.0</ele><time>2026-04-26T14:00:49.973Z</time></trkpt><trkpt lat="44.05404316122031" lon="10.175442809931813"><ele>340.0</ele><time>2026-04-26T14:00:50.973Z</time></trkpt><trkpt lat="44.05406060546112" lon="10.175591420851811"><ele>340.0</ele><time>2026-04-26T14:00:51.973Z</time></trkpt><trkpt lat="44.05407300533557" lon="10.17574217343432"><ele>344.25</ele><time>2026-04-26T14:00:52.973Z</time></trkpt><trkpt lat="44.05404844004031" lon="10.17590323715698"><ele>348.5</ele><time>2026-04-26T14:00:53.973Z</time></trkpt><trkpt lat="44.05398999511623" lon="10.176053295085653"><ele>352.75</ele><time>2026-04-26T14:00:54.973Z</time></trkpt><trkpt lat="44.053956821341664" lon="10.176227835929966"><ele>357.0</ele><time>2026-04-26T14:00:55.973Z</time></trkpt><trkpt lat="44.05391287314759" lon="10.176361503242275"><ele>357.0</ele><time>2026-04-26T14:00:56.973Z</time></trkpt><trkpt lat="44.05384487945481" lon="10.176465068214455"><ele>357.0</ele><time>2026-04-26T14:00:57.973Z</time></trkpt><trkpt lat="44.05375377693196" lon="10.176549683507494"><ele>357.0</ele><time>2026-04-26T14:00:58.973Z</time></trkpt><trkpt lat="44.05364483160866" lon="10.176627111942057"><ele>357.0</ele><time>2026-04-26T14:00:59.973Z</time></trkpt><trkpt lat="44.05352380463468" lon="10.176683451171963"><ele>360.5</ele><time>2026-04-26T14:01:00.973Z</time></trkpt><trkpt lat="44.0533933685207" lon="10.176726058664075"><ele>364.0</ele><time>2026-04-26T14:01:01.973Z</time></trkpt><trkpt lat="44.0532562264541" lon="10.17676137048435"><ele>367.5</ele><time>2026-04-26T14:01:02.973Z</time></trkpt><trkpt lat="44.05313334700122" lon="10.17679322696809"><ele>371.0</ele><time>2026-04-26T14:01:03.973Z</time></trkpt><trkpt lat="44.053040873729245" lon="10.176853265765098"><ele>371.0</ele><time>2026-04-26T14:01:04.973Z</time></trkpt><trkpt lat="44.052972739470945" lon="10.17693231004585"><ele>371.0</ele><time>2026-04-26T14:01:05.973Z</time></trkpt><trkpt lat="44.052941562969195" lon="10.177067365121802"><ele>371.0</ele><time>2026-04-26T14:01:06.973Z</time></trkpt><trkpt lat="44.05292477171668" lon="10.177227712610625"><ele>371.0</ele><time>2026-04-26T14:01:07.973Z</time></trkpt><trkpt lat="44.05287420857491" lon="10.177360176640025"><ele>371.0</ele><time>2026-04-26T14:01:08.973Z</time></trkpt><trkpt lat="44.05277292160452" lon="10.177421561633558"><ele>366.5</ele><time>2026-04-26T14:01:09.973Z</time></trkpt><trkpt lat="44.05267039770931" lon="10.177500995166858"><ele>362.0</ele><time>2026-04-26T14:01:10.973Z</time></trkpt><trkpt lat="44.05256811583903" lon="10.177597814955318"><ele>357.5</ele><time>2026-04-26T14:01:11.973Z</time></trkpt><trkpt lat="44.052487461062604" lon="10.177727128252995"><ele>353.0</ele><time>2026-04-26T14:01:12.97Z</time></trkpt><trkpt lat="44.0524208497948" lon="10.177846332061856"><ele>361.4</ele><time>2026-04-26T14:01:13.97Z</time></trkpt><trkpt lat="44.05238622857236" lon="10.178003035319815"><ele>369.79999999999995</ele><time>2026-04-26T14:01:14.97Z</time></trkpt><trkpt lat="44.05238076738473" lon="10.178161572958462"><ele>378.2</ele><time>2026-04-26T14:01:15.97Z</time></trkpt><trkpt lat="44.05237162859141" lon="10.178281754534535"><ele>386.6</ele><time>2026-04-26T14:01:16.97Z</time></trkpt><trkpt lat="44.05236466854667" lon="10.178399341152938"><ele>395.0</ele><time>2026-04-26T14:01:17.97Z</time></trkpt><trkpt lat="44.05239321538026" lon="10.178529959269323"><ele>395.0</ele><time>2026-04-26T14:01:18.97Z</time></trkpt><trkpt lat="44.05241811438689" lon="10.178679410769485"><ele>395.0</ele><time>2026-04-26T14:01:19.97Z</time></trkpt><trkpt lat="44.05244680367059" lon="10.178865093603083"><ele>395.0</ele><time>2026-04-26T14:01:20.97Z</time></trkpt><trkpt lat="44.05249863457062" lon="10.179054098055719"><ele>395.0</ele><time>2026-04-26T14:01:21.97Z</time></trkpt><trkpt lat="44.05252330353614" lon="10.179237502691702"><ele>391.25</ele><time>2026-04-26T14:01:22.97Z</time></trkpt><trkpt lat="44.052528166528575" lon="10.179398964613068"><ele>387.5</ele><time>2026-04-26T14:01:23.97Z</time></trkpt><trkpt lat="44.052518346533866" lon="10.179548726150562"><ele>383.75</ele><time>2026-04-26T14:01:24.97Z</time></trkpt><trkpt lat="44.052456130981064" lon="10.179679959967512"><ele>380.0</ele><time>2026-04-26T14:01:25.969Z</time></trkpt><trkpt lat="44.05236812687047" lon="10.179798323737574"><ele>375.0</ele><time>2026-04-26T14:01:26.969Z</time></trkpt><trkpt lat="44.052261337953894" lon="10.17990415968487"><ele>370.0</ele><time>2026-04-26T14:01:27.969Z</time></trkpt><trkpt lat="44.05214881931527" lon="10.180002571293308"><ele>365.0</ele><time>2026-04-26T14:01:28.969Z</time></trkpt><trkpt lat="44.0520462151028" lon="10.180109297916099"><ele>360.0</ele><time>2026-04-26T14:01:29.969Z</time></trkpt><trkpt lat="44.05195403541663" lon="10.18018833928485"><ele>360.0</ele><time>2026-04-26T14:01:30.969Z</time></trkpt><trkpt lat="44.051886532969945" lon="10.18027675980781"><ele>360.0</ele><time>2026-04-26T14:01:31.969Z</time></trkpt><trkpt lat="44.05181866327226" lon="10.180350738514392"><ele>360.0</ele><time>2026-04-26T14:01:32.969Z</time></trkpt><trkpt lat="44.051777856556704" lon="10.180447003563453"><ele>360.0</ele><time>2026-04-26T14:01:33.969Z</time></trkpt><trkpt lat="44.05175360552706" lon="10.18061145452893"><ele>360.0</ele><time>2026-04-26T14:01:34.969Z</time></trkpt><trkpt lat="44.051762556872326" lon="10.180770680910843"><ele>358.75</ele><time>2026-04-26T14:01:35.969Z</time></trkpt><trkpt lat="44.051780904156864" lon="10.180930832298808"><ele>357.5</ele><time>2026-04-26T14:01:36.969Z</time></trkpt><trkpt lat="44.05185768845621" lon="10.181078933634714"><ele>356.25</ele><time>2026-04-26T14:01:37.969Z</time></trkpt><trkpt lat="44.05193385248008" lon="10.181264590346256"><ele>355.0</ele><time>2026-04-26T14:01:38.969Z</time></trkpt><trkpt lat="44.05201543550198" lon="10.181438708464746"><ele>359.0</ele><time>2026-04-26T14:01:39.969Z</time></trkpt><trkpt lat="44.052081707999626" lon="10.18161401764907"><ele>363.0</ele><time>2026-04-26T14:01:40.969Z</time></trkpt><trkpt lat="44.052145538437294" lon="10.181763284822162"><ele>367.0</ele><time>2026-04-26T14:01:41.969Z</time></trkpt><trkpt lat="44.05222812116234" lon="10.181884289566279"><ele>371.0</ele><time>2026-04-26T14:01:42.969Z</time></trkpt><trkpt lat="44.0523118481287" lon="10.181985909067217"><ele>371.0</ele><time>2026-04-26T14:01:43.969Z</time></trkpt><trkpt lat="44.05236880521303" lon="10.182100803872983"><ele>371.0</ele><time>2026-04-26T14:01:44.969Z</time></trkpt><trkpt lat="44.05240125466511" lon="10.18225204964432"><ele>371.0</ele><time>2026-04-26T14:01:45.969Z</time></trkpt><trkpt lat="44.052389997163914" lon="10.182409795055792"><ele>371.0</ele><time>2026-04-26T14:01:46.969Z</time></trkpt><trkpt lat="44.05234590574083" lon="10.182522155141594"><ele>371.0</ele><time>2026-04-26T14:01:47.969Z</time></trkpt><trkpt lat="44.05226411104404" lon="10.182615778443637"><ele>367.25</ele><time>2026-04-26T14:01:48.969Z</time></trkpt><trkpt lat="44.05210548136017" lon="10.182631908674194"><ele>363.5</ele><time>2026-04-26T14:01:49.969Z</time></trkpt><trkpt lat="44.05197443273182" lon="10.182722518407282"><ele>359.75</ele><time>2026-04-26T14:01:50.969Z</time></trkpt><trkpt lat="44.05185833314565" lon="10.1828156463216"><ele>356.0</ele><time>2026-04-26T14:01:51.969Z</time></trkpt><trkpt lat="44.05174875731155" lon="10.182899920067058"><ele>356.0</ele><time>2026-04-26T14:01:52.969Z</time></trkpt><trkpt lat="44.05165030683025" lon="10.182981180387495"><ele>356.0</ele><time>2026-04-26T14:01:53.969Z</time></trkpt><trkpt lat="44.05158963062342" lon="10.183062537852331"><ele>356.0</ele><time>2026-04-26T14:01:54.969Z</time></trkpt><trkpt lat="44.0515779145223" lon="10.183188625754207"><ele>356.0</ele><time>2026-04-26T14:01:55.969Z</time></trkpt><trkpt lat="44.05160363847216" lon="10.183327356865394"><ele>356.0</ele><time>2026-04-26T14:01:56.969Z</time></trkpt><trkpt lat="44.051663022208636" lon="10.183467166587551"><ele>349.75</ele><time>2026-04-26T14:01:57.969Z</time></trkpt><trkpt lat="44.051731926593654" lon="10.18355637271258"><ele>343.5</ele><time>2026-04-26T14:01:58.969Z</time></trkpt><trkpt lat="44.05181525103553" lon="10.183594840766037"><ele>337.25</ele><time>2026-04-26T14:01:59.969Z</time></trkpt><trkpt lat="44.05193481939672" lon="10.183651302310171"><ele>331.0</ele><time>2026-04-26T14:02:00.969Z</time></trkpt><trkpt lat="44.052056172165074" lon="10.183790800057174"><ele>331.0</ele><time>2026-04-26T14:02:01.969Z</time></trkpt><trkpt lat="44.052147407675115" lon="10.183923308021601"><ele>331.0</ele><time>2026-04-26T14:02:02.969Z</time></trkpt><trkpt lat="44.052218321814" lon="10.18408570787013"><ele>331.0</ele><time>2026-04-26T14:02:03.969Z</time></trkpt><trkpt lat="44.05228708371029" lon="10.184248615250338"><ele>331.0</ele><time>2026-04-26T14:02:04.969Z</time></trkpt><trkpt lat="44.05230678927283" lon="10.184403198602357"><ele>335.75</ele><time>2026-04-26T14:02:05.969Z</time></trkpt><trkpt lat="44.052297697379416" lon="10.18455443970497"><ele>340.5</ele><time>2026-04-26T14:02:06.969Z</time></trkpt><trkpt lat="44.052267615952495" lon="10.184715035126349"><ele>345.25</ele><time>2026-04-26T14:02:07.969Z</time></trkpt><trkpt lat="44.052250674859216" lon="10.184878919435013"><ele>350.0</ele><time>2026-04-26T14:02:08.969Z</time></trkpt><trkpt lat="44.05225761248511" lon="10.18504610185144"><ele>354.75</ele><time>2026-04-26T14:02:09.969Z</time></trkpt><trkpt lat="44.052292092467106" lon="10.18522284994483"><ele>359.5</ele><time>2026-04-26T14:02:10.969Z</time></trkpt><trkpt lat="44.052331179428364" lon="10.185422680168223"><ele>364.25</ele><time>2026-04-26T14:02:11.969Z</time></trkpt><trkpt lat="44.052356576712214" lon="10.185613470411688"><ele>369.0</ele><time>2026-04-26T14:02:12.969Z</time></trkpt><trkpt lat="44.052359621549115" lon="10.185803667427438"><ele>369.0</ele><time>2026-04-26T14:02:13.969Z</time></trkpt><trkpt lat="44.05232413601194" lon="10.185997528143147"><ele>369.0</ele><time>2026-04-26T14:02:14.969Z</time></trkpt><trkpt lat="44.05231281810468" lon="10.186207335230336"><ele>369.0</ele><time>2026-04-26T14:02:15.969Z</time></trkpt><trkpt lat="44.052279903202994" lon="10.1864151572815"><ele>369.0</ele><time>2026-04-26T14:02:16.969Z</time></trkpt><trkpt lat="44.05226046124785" lon="10.18662781644268"><ele>362.25</ele><time>2026-04-26T14:02:17.969Z</time></trkpt><trkpt lat="44.05225289972022" lon="10.186833334081646"><ele>355.5</ele><time>2026-04-26T14:02:18.969Z</time></trkpt><trkpt lat="44.05224515481965" lon="10.187034246190867"><ele>348.75</ele><time>2026-04-26T14:02:19.969Z</time></trkpt><trkpt lat="44.05221440406257" lon="10.187238973457683"><ele>342.0</ele><time>2026-04-26T14:02:20.969Z</time></trkpt><trkpt lat="44.05217514939334" lon="10.187450116574023"><ele>335.0</ele><time>2026-04-26T14:02:21.969Z</time></trkpt><trkpt lat="44.05213513550095" lon="10.187670202758946"><ele>328.0</ele><time>2026-04-26T14:02:22.969Z</time></trkpt><trkpt lat="44.05209233586815" lon="10.187886541550329"><ele>321.0</ele><time>2026-04-26T14:02:23.969Z</time></trkpt><trkpt lat="44.05205197408098" lon="10.188089903369038"><ele>323.8</ele><time>2026-04-26T14:02:24.969Z</time></trkpt><trkpt lat="44.05202026989514" lon="10.18825779450432"><ele>326.6</ele><time>2026-04-26T14:02:25.969Z</time></trkpt><trkpt lat="44.05199718523884" lon="10.188387176787066"><ele>329.4</ele><time>2026-04-26T14:02:26.969Z</time></trkpt><trkpt lat="44.0519960797037" lon="10.188497275442822"><ele>332.2</ele><time>2026-04-26T14:02:27.969Z</time></trkpt><trkpt lat="44.05202179111505" lon="10.188593550368273"><ele>335.0</ele><time>2026-04-26T14:02:28.969Z</time></trkpt><trkpt lat="44.052095086200644" lon="10.18867531429565"><ele>335.0</ele><time>2026-04-26T14:02:29.969Z</time></trkpt><trkpt lat="44.052153679748976" lon="10.188812517105688"><ele>335.0</ele><time>2026-04-26T14:02:30.969Z</time></trkpt><trkpt lat="44.052221742428785" lon="10.188960913282846"><ele>335.0</ele><time>2026-04-26T14:02:31.969Z</time></trkpt><trkpt lat="44.05224474849664" lon="10.189117834270405"><ele>335.0</ele><time>2026-04-26T14:02:32.969Z</time></trkpt><trkpt lat="44.05224932485411" lon="10.189281152540925"><ele>339.5</ele><time>2026-04-26T14:02:33.969Z</time></trkpt><trkpt lat="44.052238584982845" lon="10.189449645165297"><ele>344.0</ele><time>2026-04-26T14:02:34.969Z</time></trkpt><trkpt lat="44.05223594952438" lon="10.189617268217416"><ele>348.5</ele><time>2026-04-26T14:02:35.969Z</time></trkpt><trkpt lat="44.05225439203283" lon="10.18980188834398"><ele>353.0</ele><time>2026-04-26T14:02:36.969Z</time></trkpt><trkpt lat="44.05228811880729" lon="10.189995580235742"><ele>353.0</ele><time>2026-04-26T14:02:37.969Z</time></trkpt><trkpt lat="44.05228378630466" lon="10.190173099648225"><ele>353.0</ele><time>2026-04-26T14:02:38.969Z</time></trkpt><trkpt lat="44.05224611063793" lon="10.190342097061773"><ele>353.0</ele><time>2026-04-26T14:02:39.969Z</time></trkpt><trkpt lat="44.05217956052053" lon="10.190485822637102"><ele>353.0</ele><time>2026-04-26T14:02:40.969Z</time></trkpt><trkpt lat="44.05209516598647" lon="10.190595018105759"><ele>348.79999999999995</ele><time>2026-04-26T14:02:41.969Z</time></trkpt><trkpt lat="44.05202734617976" lon="10.190699176099033"><ele>344.6</ele><time>2026-04-26T14:02:42.969Z</time></trkpt><trkpt lat="44.051984564509546" lon="10.190815926358242"><ele>340.4</ele><time>2026-04-26T14:02:43.969Z</time></trkpt><trkpt lat="44.051976069984875" lon="10.190934080440998"><ele>336.20000000000005</ele><time>2026-04-26T14:02:44.969Z</time></trkpt><trkpt lat="44.05198925717708" lon="10.191075416544535"><ele>332.0</ele><time>2026-04-26T14:02:45.969Z</time></trkpt><trkpt lat="44.052036033394096" lon="10.19119855456768"><ele>332.0</ele><time>2026-04-26T14:02:46.969Z</time></trkpt><trkpt lat="44.05210704132689" lon="10.191303989767963"><ele>332.0</ele><time>2026-04-26T14:02:47.969Z</time></trkpt><trkpt lat="44.052208789125956" lon="10.191369666669315"><ele>332.0</ele><time>2026-04-26T14:02:48.969Z</time></trkpt><trkpt lat="44.052326469047465" lon="10.191394252869138"><ele>332.0</ele><time>2026-04-26T14:02:49.969Z</time></trkpt><trkpt lat="44.05243641614119" lon="10.191364957006263"><ele>332.0</ele><time>2026-04-26T14:02:50.969Z</time></trkpt><trkpt lat="44.05254131060146" lon="10.191318559566678"><ele>326.25</ele><time>2026-04-26T14:02:51.969Z</time></trkpt><trkpt lat="44.05263338024944" lon="10.191243706191436"><ele>320.5</ele><time>2026-04-26T14:02:52.969Z</time></trkpt><trkpt lat="44.0527079268373" lon="10.191132022084858"><ele>314.75</ele><time>2026-04-26T14:02:53.969Z</time></trkpt><trkpt lat="44.052777311376204" lon="10.19099361147597"><ele>309.0</ele><time>2026-04-26T14:02:54.969Z</time></trkpt><trkpt lat="44.05287898555991" lon="10.190878532898703"><ele>309.0</ele><time>2026-04-26T14:02:55.969Z</time></trkpt><trkpt lat="44.052967675236275" lon="10.190738829131055"><ele>309.0</ele><time>2026-04-26T14:02:56.969Z</time></trkpt><trkpt lat="44.05306351615674" lon="10.190603238748508"><ele>309.0</ele><time>2026-04-26T14:02:57.969Z</time></trkpt><trkpt lat="44.053152291376186" lon="10.190476455741095"><ele>309.0</ele><time>2026-04-26T14:02:58.969Z</time></trkpt><trkpt lat="44.05322292991362" lon="10.190352524512218"><ele>308.75</ele><time>2026-04-26T14:02:59.969Z</time></trkpt><trkpt lat="44.05327393528649" lon="10.1902044076078"><ele>308.5</ele><time>2026-04-26T14:03:00.969Z</time></trkpt><trkpt lat="44.05328225205852" lon="10.190023318417614"><ele>308.25</ele><time>2026-04-26T14:03:01.969Z</time></trkpt><trkpt lat="44.05329607231762" lon="10.189843838766645"><ele>308.0</ele><time>2026-04-26T14:03:02.969Z</time></trkpt><trkpt lat="44.0533187827423" lon="10.189660246567804"><ele>309.6</ele><time>2026-04-26T14:03:03.969Z</time></trkpt><trkpt lat="44.05334702358887" lon="10.189498127130374"><ele>311.20000000000005</ele><time>2026-04-26T14:03:04.969Z</time></trkpt><trkpt lat="44.053381980475834" lon="10.18937169829807"><ele>312.8</ele><time>2026-04-26T14:03:05.969Z</time></trkpt><trkpt lat="44.053435622663876" lon="10.189278925747846"><ele>314.40000000000003</ele><time>2026-04-26T14:03:06.969Z</time></trkpt><trkpt lat="44.05352984621457" lon="10.189234887139474"><ele>316.0</ele><time>2026-04-26T14:03:07.969Z</time></trkpt><trkpt lat="44.05364492865022" lon="10.189237512396952"><ele>316.0</ele><time>2026-04-26T14:03:08.969Z</time></trkpt><trkpt lat="44.053774808430184" lon="10.189233576203812"><ele>316.0</ele><time>2026-04-26T14:03:09.969Z</time></trkpt><trkpt lat="44.053890397134005" lon="10.189232951165513"><ele>316.0</ele><time>2026-04-26T14:03:10.97Z</time></trkpt><trkpt lat="44.05397353199069" lon="10.18922618754907"><ele>316.0</ele><time>2026-04-26T14:03:11.97Z</time></trkpt><trkpt lat="44.05406931406548" lon="10.189080240437232"><ele>312.25</ele><time>2026-04-26T14:03:13.97Z</time></trkpt><trkpt lat="44.05406495999266" lon="10.188926709447903"><ele>308.5</ele><time>2026-04-26T14:03:14.97Z</time></trkpt><trkpt lat="44.05400800678428" lon="10.188779705710685"><ele>304.75</ele><time>2026-04-26T14:03:15.97Z</time></trkpt><trkpt lat="44.05392420600369" lon="10.188652166495263"><ele>301.0</ele><time>2026-04-26T14:03:16.97Z</time></trkpt><trkpt lat="44.05382641445049" lon="10.188536987335178"><ele>301.0</ele><time>2026-04-26T14:03:17.97Z</time></trkpt><trkpt lat="44.053749079687" lon="10.188432475041804"><ele>301.0</ele><time>2026-04-26T14:03:18.966Z</time></trkpt><trkpt lat="44.053723265954815" lon="10.188319539827678"><ele>301.0</ele><time>2026-04-26T14:03:19.967Z</time></trkpt><trkpt lat="44.05370270348719" lon="10.188225443951165"><ele>301.0</ele><time>2026-04-26T14:03:20.967Z</time></trkpt><trkpt lat="44.05373663330222" lon="10.188126329065211"><ele>301.0</ele><time>2026-04-26T14:03:21.967Z</time></trkpt><trkpt lat="44.05380525699508" lon="10.188041541464305"><ele>301.0</ele><time>2026-04-26T14:03:22.967Z</time></trkpt><trkpt lat="44.05388311383164" lon="10.18795614886791"><ele>298.7142857142857</ele><time>2026-04-26T14:03:23.967Z</time></trkpt><trkpt lat="44.053949365548746" lon="10.187879812457853"><ele>296.42857142857144</ele><time>2026-04-26T14:03:24.966Z</time></trkpt><trkpt lat="44.05399228146033" lon="10.187802288910168"><ele>294.1428571428571</ele><time>2026-04-26T14:03:25.967Z</time></trkpt><trkpt lat="44.054020675812026" lon="10.187722703714874"><ele>291.8571428571429</ele><time>2026-04-26T14:03:26.967Z</time></trkpt><trkpt lat="44.05403675236662" lon="10.187618959412925"><ele>289.57142857142856</ele><time>2026-04-26T14:03:27.967Z</time></trkpt><trkpt lat="44.05406126835873" lon="10.187503236743593"><ele>287.2857142857143</ele><time>2026-04-26T14:03:28.967Z</time></trkpt><trkpt lat="44.05408223985846" lon="10.187417639184002"><ele>285.0</ele><time>2026-04-26T14:03:29.967Z</time></trkpt><trkpt lat="44.05410399053115" lon="10.187321579810053"><ele>292.8333333333333</ele><time>2026-04-26T14:03:31.966Z</time></trkpt><trkpt lat="44.054135523831945" lon="10.187194202944509"><ele>300.6666666666667</ele><time>2026-04-26T14:03:33.966Z</time></trkpt><trkpt lat="44.05415656217461" lon="10.187098825278214"><ele>308.5</ele><time>2026-04-26T14:03:34.966Z</time></trkpt><trkpt lat="44.05418085130251" lon="10.186989851021368"><ele>316.33333333333337</ele><time>2026-04-26T14:03:35.966Z</time></trkpt><trkpt lat="44.0542009675146" lon="10.18685867449546"><ele>324.1666666666667</ele><time>2026-04-26T14:03:36.966Z</time></trkpt><trkpt lat="44.05423450916758" lon="10.186731752054476"><ele>332.0</ele><time>2026-04-26T14:03:37.966Z</time></trkpt><trkpt lat="44.05424323284277" lon="10.186574464168848"><ele>329.0</ele><time>2026-04-26T14:03:38.966Z</time></trkpt><trkpt lat="44.054252707974044" lon="10.186392658437336"><ele>326.0</ele><time>2026-04-26T14:03:39.966Z</time></trkpt><trkpt lat="44.05427907632022" lon="10.18621282023433"><ele>323.0</ele><time>2026-04-26T14:03:40.966Z</time></trkpt><trkpt lat="44.05431929166657" lon="10.186044382689083"><ele>320.0</ele><time>2026-04-26T14:03:41.966Z</time></trkpt><trkpt lat="44.05437103500355" lon="10.185879710057387"><ele>320.0</ele><time>2026-04-26T14:03:42.966Z</time></trkpt><trkpt lat="44.05442473473056" lon="10.185718412702455"><ele>320.0</ele><time>2026-04-26T14:03:43.966Z</time></trkpt><trkpt lat="44.05447711358486" lon="10.185546240537162"><ele>320.0</ele><time>2026-04-26T14:03:44.966Z</time></trkpt><trkpt lat="44.05452893238778" lon="10.185373464226817"><ele>320.0</ele><time>2026-04-26T14:03:45.966Z</time></trkpt><trkpt lat="44.05455843101623" lon="10.185179828365515"><ele>318.6</ele><time>2026-04-26T14:03:46.966Z</time></trkpt><trkpt lat="44.05459237118061" lon="10.185009947317731"><ele>317.2</ele><time>2026-04-26T14:03:47.966Z</time></trkpt><trkpt lat="44.054619819246206" lon="10.18487013108537"><ele>315.8</ele><time>2026-04-26T14:03:48.966Z</time></trkpt><trkpt lat="44.05464486558352" lon="10.184756693722582"><ele>314.4</ele><time>2026-04-26T14:03:49.966Z</time></trkpt><trkpt lat="44.054671774426986" lon="10.184662551509941"><ele>313.0</ele><time>2026-04-26T14:03:50.966Z</time></trkpt><trkpt lat="44.054737306860865" lon="10.184572488129993"><ele>316.0</ele><time>2026-04-26T14:03:52.966Z</time></trkpt><trkpt lat="44.05481101814521" lon="10.184477542299522"><ele>319.0</ele><time>2026-04-26T14:03:54.966Z</time></trkpt><trkpt lat="44.054867986470526" lon="10.184432920597903"><ele>322.0</ele><time>2026-04-26T14:03:55.966Z</time></trkpt><trkpt lat="44.054926514739414" lon="10.184389253164735"><ele>325.0</ele><time>2026-04-26T14:03:56.966Z</time></trkpt><trkpt lat="44.054984247321734" lon="10.184354284575832"><ele>328.0</ele><time>2026-04-26T14:03:57.966Z</time></trkpt><trkpt lat="44.055051563555345" lon="10.184324397924716"><ele>331.0</ele><time>2026-04-26T14:03:58.966Z</time></trkpt><trkpt lat="44.055169156626995" lon="10.184265531818834"><ele>331.0</ele><time>2026-04-26T14:04:00.966Z</time></trkpt><trkpt lat="44.05523940055516" lon="10.184257346114082"><ele>331.0</ele><time>2026-04-26T14:04:01.966Z</time></trkpt><trkpt lat="44.05531695386356" lon="10.184272734795236"><ele>331.0</ele><time>2026-04-26T14:04:02.966Z</time></trkpt><trkpt lat="44.055391844959466" lon="10.184304232430323"><ele>331.0</ele><time>2026-04-26T14:04:03.966Z</time></trkpt><trkpt lat="44.05545536244747" lon="10.18433640387598"><ele>331.0</ele><time>2026-04-26T14:04:04.966Z</time></trkpt><trkpt lat="44.05552006750611" lon="10.184338913612383"><ele>331.0</ele><time>2026-04-26T14:04:05.966Z</time></trkpt><trkpt lat="44.05557409897532" lon="10.184293714871853"><ele>331.0</ele><time>2026-04-26T14:04:06.966Z</time></trkpt><trkpt lat="44.055637739851896" lon="10.18425513332756"><ele>331.0</ele><time>2026-04-26T14:04:07.966Z</time></trkpt><trkpt lat="44.05568586667683" lon="10.184163320177255"><ele>331.0</ele><time>2026-04-26T14:04:08.966Z</time></trkpt><trkpt lat="44.05570304577009" lon="10.184050640991046"><ele>331.0</ele><time>2026-04-26T14:04:09.966Z</time></trkpt><trkpt lat="44.055719795112786" lon="10.183946098195115"><ele>331.0</ele><time>2026-04-26T14:04:10.966Z</time></trkpt><trkpt lat="44.05573108262939" lon="10.183832196150068"><ele>331.0</ele><time>2026-04-26T14:04:11.966Z</time></trkpt><trkpt lat="44.05572707671231" lon="10.183703103007106"><ele>331.0</ele><time>2026-04-26T14:04:12.966Z</time></trkpt><trkpt lat="44.05570282691528" lon="10.183570375223624"><ele>328.8333333333333</ele><time>2026-04-26T14:04:13.966Z</time></trkpt><trkpt lat="44.055663186136705" lon="10.18344983497601"><ele>326.66666666666663</ele><time>2026-04-26T14:04:14.966Z</time></trkpt><trkpt lat="44.055619427640536" lon="10.183344923258334"><ele>324.5</ele><time>2026-04-26T14:04:15.966Z</time></trkpt><trkpt lat="44.05559943059174" lon="10.183238421374325"><ele>322.3333333333333</ele><time>2026-04-26T14:04:16.966Z</time></trkpt><trkpt lat="44.05557263018986" lon="10.183133347833344"><ele>320.1666666666667</ele><time>2026-04-26T14:04:17.966Z</time></trkpt><trkpt lat="44.055535678842894" lon="10.183034997933497"><ele>318.0</ele><time>2026-04-26T14:04:18.966Z</time></trkpt><trkpt lat="44.05552017151807" lon="10.18292506163208"><ele>318.0</ele><time>2026-04-26T14:04:19.966Z</time></trkpt><trkpt lat="44.055503828805726" lon="10.182821960963215"><ele>318.0</ele><time>2026-04-26T14:04:20.966Z</time></trkpt><trkpt lat="44.05548935107308" lon="10.182702660858867"><ele>318.0</ele><time>2026-04-26T14:04:21.966Z</time></trkpt><trkpt lat="44.05548602146028" lon="10.18257554476111"><ele>318.0</ele><time>2026-04-26T14:04:22.966Z</time></trkpt><trkpt lat="44.055498474790404" lon="10.182447001534763"><ele>318.0</ele><time>2026-04-26T14:04:23.966Z</time></trkpt><trkpt lat="44.05551221147927" lon="10.182327117332584"><ele>318.0</ele><time>2026-04-26T14:04:24.966Z</time></trkpt><trkpt lat="44.055535277004005" lon="10.182214206503067"><ele>317.8333333333333</ele><time>2026-04-26T14:04:25.966Z</time></trkpt><trkpt lat="44.05556036334572" lon="10.182117301704388"><ele>317.6666666666667</ele><time>2026-04-26T14:04:26.966Z</time></trkpt><trkpt lat="44.05559065461064" lon="10.182025012670028"><ele>317.5</ele><time>2026-04-26T14:04:27.966Z</time></trkpt><trkpt lat="44.05563830761237" lon="10.181948232529022"><ele>317.33333333333337</ele><time>2026-04-26T14:04:28.966Z</time></trkpt><trkpt lat="44.055693993892184" lon="10.181891050323832"><ele>317.1666666666667</ele><time>2026-04-26T14:04:29.966Z</time></trkpt><trkpt lat="44.05576972256346" lon="10.181848785182664"><ele>317.0</ele><time>2026-04-26T14:04:30.966Z</time></trkpt><trkpt lat="44.055855742606965" lon="10.181832405754555"><ele>322.33333333333337</ele><time>2026-04-26T14:04:31.966Z</time></trkpt><trkpt lat="44.055934768333536" lon="10.181837723142083"><ele>327.6666666666667</ele><time>2026-04-26T14:04:32.966Z</time></trkpt><trkpt lat="44.05601626273542" lon="10.181855048400834"><ele>333.0</ele><time>2026-04-26T14:04:33.966Z</time></trkpt><trkpt lat="44.05608935212569" lon="10.181912882462008"><ele>338.3333333333333</ele><time>2026-04-26T14:04:34.966Z</time></trkpt><trkpt lat="44.05616666715134" lon="10.181976380978528"><ele>343.66666666666663</ele><time>2026-04-26T14:04:35.966Z</time></trkpt><trkpt lat="44.05625164218422" lon="10.18203764318071"><ele>349.0</ele><time>2026-04-26T14:04:36.966Z</time></trkpt><trkpt lat="44.05634062280498" lon="10.182098961361431"><ele>349.0</ele><time>2026-04-26T14:04:37.966Z</time></trkpt><trkpt lat="44.05642001223341" lon="10.182154114251238"><ele>349.0</ele><time>2026-04-26T14:04:38.966Z</time></trkpt><trkpt lat="44.05649055545648" lon="10.182214600223679"><ele>349.0</ele><time>2026-04-26T14:04:39.966Z</time></trkpt><trkpt lat="44.056564014609236" lon="10.182284333572932"><ele>349.0</ele><time>2026-04-26T14:04:40.966Z</time></trkpt><trkpt lat="44.056643885921126" lon="10.182353793877786"><ele>349.0</ele><time>2026-04-26T14:04:41.966Z</time></trkpt><trkpt lat="44.05671960709865" lon="10.182427095045194"><ele>349.0</ele><time>2026-04-26T14:04:42.966Z</time></trkpt><trkpt lat="44.05678763015143" lon="10.18248519484078"><ele>354.16666666666663</ele><time>2026-04-26T14:04:43.966Z</time></trkpt><trkpt lat="44.05685670636054" lon="10.182547523766132"><ele>359.3333333333333</ele><time>2026-04-26T14:04:44.966Z</time></trkpt><trkpt lat="44.05692043131317" lon="10.182595539555535"><ele>364.5</ele><time>2026-04-26T14:04:45.966Z</time></trkpt><trkpt lat="44.056988755217496" lon="10.18262429427958"><ele>369.6666666666667</ele><time>2026-04-26T14:04:46.966Z</time></trkpt><trkpt lat="44.05706326721518" lon="10.182662773625836"><ele>374.83333333333337</ele><time>2026-04-26T14:04:47.966Z</time></trkpt><trkpt lat="44.05716391362665" lon="10.18265662327984"><ele>380.0</ele><time>2026-04-26T14:04:48.966Z</time></trkpt><trkpt lat="44.05727070279654" lon="10.182612362424766"><ele>380.0</ele><time>2026-04-26T14:04:49.966Z</time></trkpt><trkpt lat="44.05735461897662" lon="10.182463234372669"><ele>380.0</ele><time>2026-04-26T14:04:50.966Z</time></trkpt><trkpt lat="44.05739393559477" lon="10.18228445032056"><ele>380.0</ele><time>2026-04-26T14:04:51.966Z</time></trkpt><trkpt lat="44.05736839186409" lon="10.182102833532257"><ele>380.0</ele><time>2026-04-26T14:04:52.966Z</time></trkpt><trkpt lat="44.0573257566601" lon="10.181967770729877"><ele>379.0</ele><time>2026-04-26T14:04:53.966Z</time></trkpt><trkpt lat="44.05734450858563" lon="10.181871125974276"><ele>378.0</ele><time>2026-04-26T14:04:54.966Z</time></trkpt><trkpt lat="44.057365170332254" lon="10.181783862156664"><ele>377.0</ele><time>2026-04-26T14:04:55.966Z</time></trkpt><trkpt lat="44.05742036641504" lon="10.18170005773004"><ele>376.0</ele><time>2026-04-26T14:04:56.966Z</time></trkpt><trkpt lat="44.05748749441209" lon="10.181653188731097"><ele>375.0</ele><time>2026-04-26T14:04:57.966Z</time></trkpt><trkpt lat="44.05758002833686" lon="10.18160974649076"><ele>374.0</ele><time>2026-04-26T14:04:58.966Z</time></trkpt><trkpt lat="44.0576814011341" lon="10.181523913564073"><ele>368.75</ele><time>2026-04-26T14:04:59.966Z</time></trkpt><trkpt lat="44.057799155485235" lon="10.18145858103413"><ele>363.5</ele><time>2026-04-26T14:05:00.966Z</time></trkpt><trkpt lat="44.05793121324832" lon="10.18138924800949"><ele>358.25</ele><time>2026-04-26T14:05:01.966Z</time></trkpt><trkpt lat="44.05806671703614" lon="10.181326513499231"><ele>353.0</ele><time>2026-04-26T14:05:02.966Z</time></trkpt><trkpt lat="44.0581971769452" lon="10.181247646563332"><ele>358.0</ele><time>2026-04-26T14:05:03.966Z</time></trkpt><trkpt lat="44.058323081897065" lon="10.181149658809836"><ele>363.0</ele><time>2026-04-26T14:05:04.966Z</time></trkpt><trkpt lat="44.058456249110705" lon="10.18108799111408"><ele>368.0</ele><time>2026-04-26T14:05:05.966Z</time></trkpt><trkpt lat="44.05857807936543" lon="10.18101862437631"><ele>373.0</ele><time>2026-04-26T14:05:06.966Z</time></trkpt><trkpt lat="44.058696508917954" lon="10.180945576971789"><ele>373.0</ele><time>2026-04-26T14:05:07.966Z</time></trkpt><trkpt lat="44.05881157245831" lon="10.180869632596208"><ele>373.0</ele><time>2026-04-26T14:05:08.966Z</time></trkpt><trkpt lat="44.05892557170656" lon="10.180792031004962"><ele>373.0</ele><time>2026-04-26T14:05:09.966Z</time></trkpt><trkpt lat="44.05903712766997" lon="10.180684813562081"><ele>373.0</ele><time>2026-04-26T14:05:10.966Z</time></trkpt><trkpt lat="44.05913976238841" lon="10.180567663291066"><ele>375.0</ele><time>2026-04-26T14:05:11.966Z</time></trkpt><trkpt lat="44.05923435720604" lon="10.180459801854022"><ele>377.0</ele><time>2026-04-26T14:05:12.966Z</time></trkpt><trkpt lat="44.059306865473616" lon="10.18034223206912"><ele>379.0</ele><time>2026-04-26T14:05:13.966Z</time></trkpt><trkpt lat="44.05937771575017" lon="10.180211751802878"><ele>381.0</ele><time>2026-04-26T14:05:14.966Z</time></trkpt><trkpt lat="44.059438872739676" lon="10.180068117982051"><ele>381.0</ele><time>2026-04-26T14:05:15.966Z</time></trkpt><trkpt lat="44.05949337608182" lon="10.179910348673078"><ele>381.0</ele><time>2026-04-26T14:05:16.966Z</time></trkpt><trkpt lat="44.05954388772528" lon="10.179751808323434"><ele>381.0</ele><time>2026-04-26T14:05:17.966Z</time></trkpt><trkpt lat="44.059594118044664" lon="10.179598108962686"><ele>381.0</ele><time>2026-04-26T14:05:18.966Z</time></trkpt><trkpt lat="44.05964558195444" lon="10.179440868445294"><ele>378.20000000000005</ele><time>2026-04-26T14:05:19.966Z</time></trkpt><trkpt lat="44.05969198879885" lon="10.179289857984466"><ele>375.40000000000003</ele><time>2026-04-26T14:05:20.966Z</time></trkpt><trkpt lat="44.0597370283847" lon="10.179137007435887"><ele>372.6</ele><time>2026-04-26T14:05:21.966Z</time></trkpt><trkpt lat="44.05978355926372" lon="10.17901707601854"><ele>369.8</ele><time>2026-04-26T14:05:22.966Z</time></trkpt><trkpt lat="44.059835101080004" lon="10.178927997888392"><ele>367.0</ele><time>2026-04-26T14:05:23.967Z</time></trkpt><trkpt lat="44.05988709954076" lon="10.178844716031136"><ele>369.20000000000005</ele><time>2026-04-26T14:05:24.964Z</time></trkpt><trkpt lat="44.059934155289554" lon="10.178783343209673"><ele>371.4</ele><time>2026-04-26T14:05:25.964Z</time></trkpt><trkpt lat="44.06006946527458" lon="10.178825637995795"><ele>373.6</ele><time>2026-04-26T14:05:27.964Z</time></trkpt><trkpt lat="44.06016133122019" lon="10.178892008792337"><ele>375.79999999999995</ele><time>2026-04-26T14:05:28.963Z</time></trkpt><trkpt lat="44.060256865338644" lon="10.178966451383086"><ele>378.0</ele><time>2026-04-26T14:05:29.963Z</time></trkpt><trkpt lat="44.06035151635112" lon="10.179041968272795"><ele>378.0</ele><time>2026-04-26T14:05:30.964Z</time></trkpt><trkpt lat="44.06043293806769" lon="10.179054005717648"><ele>378.0</ele><time>2026-04-26T14:05:31.964Z</time></trkpt><trkpt lat="44.060506804172675" lon="10.17900853385006"><ele>378.0</ele><time>2026-04-26T14:05:32.964Z</time></trkpt><trkpt lat="44.06056579566217" lon="10.178909731420545"><ele>378.0</ele><time>2026-04-26T14:05:33.963Z</time></trkpt><trkpt lat="44.060594796456925" lon="10.178730586860734"><ele>378.0</ele><time>2026-04-26T14:05:34.964Z</time></trkpt><trkpt lat="44.060602297469366" lon="10.178541415747153"><ele>378.0</ele><time>2026-04-26T14:05:35.964Z</time></trkpt><trkpt lat="44.06062907726904" lon="10.17834541226113"><ele>378.0</ele><time>2026-04-26T14:05:36.964Z</time></trkpt><trkpt lat="44.06065106436507" lon="10.178150997208887"><ele>378.0</ele><time>2026-04-26T14:05:37.963Z</time></trkpt><trkpt lat="44.06067992288699" lon="10.177986209888411"><ele>378.0</ele><time>2026-04-26T14:05:38.963Z</time></trkpt><trkpt lat="44.06069733572869" lon="10.177838964144785"><ele>373.4</ele><time>2026-04-26T14:05:39.963Z</time></trkpt><trkpt lat="44.06068255102244" lon="10.177703161422263"><ele>368.79999999999995</ele><time>2026-04-26T14:05:40.963Z</time></trkpt><trkpt lat="44.06065736451478" lon="10.177566365664706"><ele>364.2</ele><time>2026-04-26T14:05:41.963Z</time></trkpt><trkpt lat="44.060661359225946" lon="10.177438648749678"><ele>359.6</ele><time>2026-04-26T14:05:42.963Z</time></trkpt><trkpt lat="44.06069256667468" lon="10.17733562582164"><ele>355.0</ele><time>2026-04-26T14:05:43.963Z</time></trkpt><trkpt lat="44.060773425148184" lon="10.177261458374776"><ele>366.25</ele><time>2026-04-26T14:05:44.963Z</time></trkpt><trkpt lat="44.0608639148676" lon="10.177187017782684"><ele>377.5</ele><time>2026-04-26T14:05:45.963Z</time></trkpt><trkpt lat="44.06093352797754" lon="10.177081180806875"><ele>388.75</ele><time>2026-04-26T14:05:46.963Z</time></trkpt><trkpt lat="44.06098256486833" lon="10.17693143932376"><ele>400.0</ele><time>2026-04-26T14:05:47.963Z</time></trkpt><trkpt lat="44.06098755082286" lon="10.176745055199843"><ele>400.0</ele><time>2026-04-26T14:05:48.963Z</time></trkpt><trkpt lat="44.06097564346789" lon="10.17655475936776"><ele>400.0</ele><time>2026-04-26T14:05:49.963Z</time></trkpt><trkpt lat="44.06096873077565" lon="10.176360876494162"><ele>400.0</ele><time>2026-04-26T14:05:50.963Z</time></trkpt><trkpt lat="44.06097887765306" lon="10.176164353659393"><ele>400.0</ele><time>2026-04-26T14:05:51.963Z</time></trkpt><trkpt lat="44.06099829881853" lon="10.175982754106686"><ele>398.83333333333337</ele><time>2026-04-26T14:05:52.963Z</time></trkpt><trkpt lat="44.0610127632361" lon="10.175831905784742"><ele>397.6666666666667</ele><time>2026-04-26T14:05:53.963Z</time></trkpt><trkpt lat="44.061014084119634" lon="10.17570826890495"><ele>396.5</ele><time>2026-04-26T14:05:54.963Z</time></trkpt><trkpt lat="44.06101059052068" lon="10.175601589596345"><ele>395.33333333333337</ele><time>2026-04-26T14:05:55.963Z</time></trkpt><trkpt lat="44.06100393990326" lon="10.17549932692065"><ele>394.1666666666667</ele><time>2026-04-26T14:05:56.963Z</time></trkpt><trkpt lat="44.06105802508764" lon="10.175418209319439"><ele>393.0</ele><time>2026-04-26T14:05:58.963Z</time></trkpt><trkpt lat="44.061100716945184" lon="10.175539729468904"><ele>393.0</ele><time>2026-04-26T14:06:00.963Z</time></trkpt><trkpt lat="44.06105142112948" lon="10.17562350856352"><ele>393.0</ele><time>2026-04-26T14:06:01.963Z</time></trkpt><trkpt lat="44.061049760697415" lon="10.175734407055142"><ele>393.0</ele><time>2026-04-26T14:06:02.963Z</time></trkpt><trkpt lat="44.06105293193484" lon="10.17587883261422"><ele>393.0</ele><time>2026-04-26T14:06:03.963Z</time></trkpt><trkpt lat="44.061058984073085" lon="10.176049376588896"><ele>393.0</ele><time>2026-04-26T14:06:04.963Z</time></trkpt><trkpt lat="44.06104855058194" lon="10.176223188303377"><ele>393.0</ele><time>2026-04-26T14:06:05.963Z</time></trkpt><trkpt lat="44.061044348087904" lon="10.176381930428187"><ele>393.0</ele><time>2026-04-26T14:06:06.963Z</time></trkpt><trkpt lat="44.061063426261015" lon="10.17655185774665"><ele>393.0</ele><time>2026-04-26T14:06:07.963Z</time></trkpt><trkpt lat="44.061077216927416" lon="10.176721989538644"><ele>393.0</ele><time>2026-04-26T14:06:08.963Z</time></trkpt><trkpt lat="44.0610780394191" lon="10.17689811704746"><ele>394.4</ele><time>2026-04-26T14:06:09.964Z</time></trkpt><trkpt lat="44.06105981222679" lon="10.17705887145734"><ele>395.79999999999995</ele><time>2026-04-26T14:06:10.964Z</time></trkpt><trkpt lat="44.06103333866234" lon="10.177188878592792"><ele>397.2</ele><time>2026-04-26T14:06:11.964Z</time></trkpt><trkpt lat="44.06099346763873" lon="10.177311309659364"><ele>398.6</ele><time>2026-04-26T14:06:12.964Z</time></trkpt><trkpt lat="44.06093692293557" lon="10.177415630184143"><ele>400.0</ele><time>2026-04-26T14:06:13.964Z</time></trkpt><trkpt lat="44.06088145271492" lon="10.177502062510062"><ele>402.4</ele><time>2026-04-26T14:06:14.964Z</time></trkpt><trkpt lat="44.06085324047843" lon="10.177589750988396"><ele>404.8</ele><time>2026-04-26T14:06:15.964Z</time></trkpt><trkpt lat="44.06086072949004" lon="10.177682220933624"><ele>407.20000000000005</ele><time>2026-04-26T14:06:16.964Z</time></trkpt><trkpt lat="44.06088817870352" lon="10.177815190174604"><ele>409.6</ele><time>2026-04-26T14:06:17.964Z</time></trkpt><trkpt lat="44.06092665462774" lon="10.17798463236929"><ele>412.0</ele><time>2026-04-26T14:06:18.964Z</time></trkpt><trkpt lat="44.06095101029414" lon="10.178150114601475"><ele>416.5</ele><time>2026-04-26T14:06:19.964Z</time></trkpt><trkpt lat="44.06092689781147" lon="10.178332089575076"><ele>421.0</ele><time>2026-04-26T14:06:20.964Z</time></trkpt><trkpt lat="44.060930011019245" lon="10.178522271897027"><ele>425.5</ele><time>2026-04-26T14:06:21.964Z</time></trkpt><trkpt lat="44.06093916000925" lon="10.178708203071832"><ele>430.0</ele><time>2026-04-26T14:06:22.964Z</time></trkpt><trkpt lat="44.06096573789549" lon="10.178884690389992"><ele>434.4</ele><time>2026-04-26T14:06:23.964Z</time></trkpt><trkpt lat="44.060980711330856" lon="10.179040239136272"><ele>438.8</ele><time>2026-04-26T14:06:24.964Z</time></trkpt><trkpt lat="44.060980668060125" lon="10.1791767004736"><ele>443.20000000000005</ele><time>2026-04-26T14:06:25.964Z</time></trkpt><trkpt lat="44.060964141252036" lon="10.17930175323628"><ele>447.6</ele><time>2026-04-26T14:06:26.964Z</time></trkpt><trkpt lat="44.06090779775195" lon="10.179408969680248"><ele>452.0</ele><time>2026-04-26T14:06:27.964Z</time></trkpt><trkpt lat="44.060833264531944" lon="10.179501313342936"><ele>444.0</ele><time>2026-04-26T14:06:28.964Z</time></trkpt><trkpt lat="44.060753215051825" lon="10.179568167524298"><ele>436.00000000000006</ele><time>2026-04-26T14:06:29.964Z</time></trkpt><trkpt lat="44.06065828995632" lon="10.179557368233624"><ele>428.0</ele><time>2026-04-26T14:06:30.964Z</time></trkpt><trkpt lat="44.06057325662126" lon="10.179572497537462"><ele>420.0</ele><time>2026-04-26T14:06:31.964Z</time></trkpt><trkpt lat="44.06048701014104" lon="10.179563099443527"><ele>412.0</ele><time>2026-04-26T14:06:32.964Z</time></trkpt><trkpt lat="44.060389586680564" lon="10.179536232039265"><ele>412.0</ele><time>2026-04-26T14:06:33.964Z</time></trkpt><trkpt lat="44.06028877608153" lon="10.17954093280099"><ele>412.0</ele><time>2026-04-26T14:06:34.964Z</time></trkpt><trkpt lat="44.060221298355295" lon="10.17952998433965"><ele>412.0</ele><time>2026-04-26T14:06:35.964Z</time></trkpt><trkpt lat="44.060157444441224" lon="10.179626369792468"><ele>412.0</ele><time>2026-04-26T14:06:36.964Z</time></trkpt><trkpt lat="44.060130325659" lon="10.179756110683446"><ele>412.0</ele><time>2026-04-26T14:06:37.964Z</time></trkpt><trkpt lat="44.06013810734293" lon="10.179894151221777"><ele>415.5</ele><time>2026-04-26T14:06:38.964Z</time></trkpt><trkpt lat="44.06016544899154" lon="10.180065312787919"><ele>419.0</ele><time>2026-04-26T14:06:39.964Z</time></trkpt><trkpt lat="44.060202991644644" lon="10.180244734721835"><ele>422.5</ele><time>2026-04-26T14:06:40.964Z</time></trkpt><trkpt lat="44.06023431892058" lon="10.18042611502089"><ele>426.0</ele><time>2026-04-26T14:06:41.964Z</time></trkpt><trkpt lat="44.06024852726876" lon="10.180602597086072"><ele>429.25</ele><time>2026-04-26T14:06:42.964Z</time></trkpt><trkpt lat="44.06023630493969" lon="10.18079513020106"><ele>432.5</ele><time>2026-04-26T14:06:43.964Z</time></trkpt><trkpt lat="44.06022892008658" lon="10.18098499086008"><ele>435.75</ele><time>2026-04-26T14:06:44.964Z</time></trkpt><trkpt lat="44.060208705458" lon="10.18116614534812"><ele>439.0</ele><time>2026-04-26T14:06:45.964Z</time></trkpt><trkpt lat="44.060168356936884" lon="10.181341431598879"><ele>439.0</ele><time>2026-04-26T14:06:46.964Z</time></trkpt><trkpt lat="44.06011237134389" lon="10.181514666570093"><ele>439.0</ele><time>2026-04-26T14:06:47.964Z</time></trkpt><trkpt lat="44.060052003183024" lon="10.181693740089653"><ele>439.0</ele><time>2026-04-26T14:06:48.964Z</time></trkpt><trkpt lat="44.059976952386" lon="10.181871724209788"><ele>439.0</ele><time>2026-04-26T14:06:49.964Z</time></trkpt><trkpt lat="44.05989202449544" lon="10.182052476829655"><ele>440.25</ele><time>2026-04-26T14:06:50.964Z</time></trkpt><trkpt lat="44.05979845408947" lon="10.182220728425447"><ele>441.5</ele><time>2026-04-26T14:06:51.964Z</time></trkpt><trkpt lat="44.05970906047495" lon="10.182388959197782"><ele>442.75</ele><time>2026-04-26T14:06:52.964Z</time></trkpt><trkpt lat="44.05962283261726" lon="10.182551040301302"><ele>444.0</ele><time>2026-04-26T14:06:53.964Z</time></trkpt><trkpt lat="44.05954655825844" lon="10.182691237201619"><ele>444.0</ele><time>2026-04-26T14:06:54.964Z</time></trkpt><trkpt lat="44.05948677174911" lon="10.182808190316342"><ele>444.0</ele><time>2026-04-26T14:06:55.964Z</time></trkpt><trkpt lat="44.05944926096325" lon="10.182915372214104"><ele>444.0</ele><time>2026-04-26T14:06:56.964Z</time></trkpt><trkpt lat="44.05943092690117" lon="10.183018616405084"><ele>444.0</ele><time>2026-04-26T14:06:57.964Z</time></trkpt><trkpt lat="44.05949765505739" lon="10.183159325313225"><ele>444.0</ele><time>2026-04-26T14:06:58.964Z</time></trkpt><trkpt lat="44.05955313840338" lon="10.183283810098276"><ele>445.6</ele><time>2026-04-26T14:06:59.964Z</time></trkpt><trkpt lat="44.05961897545926" lon="10.18343964736853"><ele>447.2</ele><time>2026-04-26T14:07:00.964Z</time></trkpt><trkpt lat="44.05966524913572" lon="10.183578215743877"><ele>448.80000000000007</ele><time>2026-04-26T14:07:01.964Z</time></trkpt><trkpt lat="44.059664548392384" lon="10.183703457795898"><ele>450.40000000000003</ele><time>2026-04-26T14:07:02.964Z</time></trkpt><trkpt lat="44.05964865769584" lon="10.183826467398314"><ele>452.0</ele><time>2026-04-26T14:07:03.964Z</time></trkpt><trkpt lat="44.059573878638055" lon="10.18394934282304"><ele>456.0</ele><time>2026-04-26T14:07:04.964Z</time></trkpt><trkpt lat="44.0594799897498" lon="10.184057218700103"><ele>460.0</ele><time>2026-04-26T14:07:05.964Z</time></trkpt><trkpt lat="44.05938043336126" lon="10.184189339200318"><ele>464.0</ele><time>2026-04-26T14:07:06.964Z</time></trkpt><trkpt lat="44.059263770906455" lon="10.184319638960183"><ele>468.0</ele><time>2026-04-26T14:07:07.964Z</time></trkpt><trkpt lat="44.059144714971715" lon="10.184458625810857"><ele>473.0</ele><time>2026-04-26T14:07:08.964Z</time></trkpt><trkpt lat="44.05901185511631" lon="10.18460771607571"><ele>478.0</ele><time>2026-04-26T14:07:09.964Z</time></trkpt><trkpt lat="44.058863143086356" lon="10.184765249013424"><ele>483.0</ele><time>2026-04-26T14:07:10.964Z</time></trkpt><trkpt lat="44.05868982664037" lon="10.184873780049038"><ele>483.0</ele><time>2026-04-26T14:07:11.964Z</time></trkpt><trkpt lat="44.058514223740346" lon="10.184974477897725"><ele>483.0</ele><time>2026-04-26T14:07:12.964Z</time></trkpt><trkpt lat="44.05836154900555" lon="10.185076860310424"><ele>483.0</ele><time>2026-04-26T14:07:13.964Z</time></trkpt><trkpt lat="44.058213447499796" lon="10.185148737409792"><ele>479.0</ele><time>2026-04-26T14:07:14.964Z</time></trkpt><trkpt lat="44.058076499274065" lon="10.185222268639743"><ele>475.0</ele><time>2026-04-26T14:07:15.964Z</time></trkpt><trkpt lat="44.05793823399204" lon="10.185281118240184"><ele>471.0</ele><time>2026-04-26T14:07:16.964Z</time></trkpt><trkpt lat="44.057797460869736" lon="10.185354608756969"><ele>467.0</ele><time>2026-04-26T14:07:17.964Z</time></trkpt><trkpt lat="44.05766634362909" lon="10.185427749096261"><ele>467.0</ele><time>2026-04-26T14:07:18.964Z</time></trkpt><trkpt lat="44.0575561023469" lon="10.18549861374482"><ele>467.00000000000006</ele><time>2026-04-26T14:07:19.964Z</time></trkpt><trkpt lat="44.057467680861194" lon="10.185582730176112"><ele>467.00000000000006</ele><time>2026-04-26T14:07:20.964Z</time></trkpt><trkpt lat="44.057403422818716" lon="10.18566705755645"><ele>467.0</ele><time>2026-04-26T14:07:21.964Z</time></trkpt><trkpt lat="44.057349631050805" lon="10.185769362576146"><ele>467.0</ele><time>2026-04-26T14:07:22.964Z</time></trkpt><trkpt lat="44.0573243057327" lon="10.185934444923433"><ele>469.5</ele><time>2026-04-26T14:07:23.964Z</time></trkpt><trkpt lat="44.05727159955949" lon="10.186109751515945"><ele>472.0</ele><time>2026-04-26T14:07:24.964Z</time></trkpt><trkpt lat="44.05724307557798" lon="10.186301387305376"><ele>474.5</ele><time>2026-04-26T14:07:25.964Z</time></trkpt><trkpt lat="44.05718840061632" lon="10.18649942200468"><ele>477.0</ele><time>2026-04-26T14:07:26.964Z</time></trkpt><trkpt lat="44.05715366994997" lon="10.186705334608565"><ele>477.0</ele><time>2026-04-26T14:07:27.964Z</time></trkpt><trkpt lat="44.057102496442916" lon="10.186918415156294"><ele>477.0</ele><time>2026-04-26T14:07:28.964Z</time></trkpt><trkpt lat="44.05704155901265" lon="10.187122696127492"><ele>477.0</ele><time>2026-04-26T14:07:29.964Z</time></trkpt><trkpt lat="44.056988319865525" lon="10.187324863369417"><ele>482.0</ele><time>2026-04-26T14:07:30.961Z</time></trkpt><trkpt lat="44.05694407411452" lon="10.187504099595392"><ele>487.0</ele><time>2026-04-26T14:07:31.961Z</time></trkpt><trkpt lat="44.056898719882284" lon="10.18767988382385"><ele>492.0</ele><time>2026-04-26T14:07:32.961Z</time></trkpt><trkpt lat="44.056859997510024" lon="10.187837858645757"><ele>497.0</ele><time>2026-04-26T14:07:33.962Z</time></trkpt><trkpt lat="44.056821535216564" lon="10.187975533865526"><ele>497.0</ele><time>2026-04-26T14:07:34.961Z</time></trkpt><trkpt lat="44.056752892526134" lon="10.188098580307898"><ele>497.0</ele><time>2026-04-26T14:07:35.961Z</time></trkpt><trkpt lat="44.056658991132146" lon="10.188192777217898"><ele>497.0</ele><time>2026-04-26T14:07:36.961Z</time></trkpt><trkpt lat="44.05654021462886" lon="10.18825031086207"><ele>497.0</ele><time>2026-04-26T14:07:37.961Z</time></trkpt><trkpt lat="44.05644831462325" lon="10.188316579387605"><ele>491.6</ele><time>2026-04-26T14:07:38.961Z</time></trkpt><trkpt lat="44.05637842133822" lon="10.188392002786859"><ele>486.20000000000005</ele><time>2026-04-26T14:07:39.962Z</time></trkpt><trkpt lat="44.05632561482853" lon="10.188479870429383"><ele>480.8</ele><time>2026-04-26T14:07:40.961Z</time></trkpt><trkpt lat="44.05629153158942" lon="10.18861301028237"><ele>475.4</ele><time>2026-04-26T14:07:41.961Z</time></trkpt><trkpt lat="44.05626066561243" lon="10.188782909796132"><ele>470.0</ele><time>2026-04-26T14:07:42.962Z</time></trkpt><trkpt lat="44.05622086493994" lon="10.188956613828529"><ele>471.25</ele><time>2026-04-26T14:07:43.962Z</time></trkpt><trkpt lat="44.05619460188986" lon="10.189127631483627"><ele>472.5</ele><time>2026-04-26T14:07:44.962Z</time></trkpt><trkpt lat="44.05619143268694" lon="10.189286736359179"><ele>473.75</ele><time>2026-04-26T14:07:45.962Z</time></trkpt><trkpt lat="44.05621848181404" lon="10.189444853452734"><ele>475.0</ele><time>2026-04-26T14:07:46.962Z</time></trkpt><trkpt lat="44.05627126562444" lon="10.189617760921156"><ele>475.0</ele><time>2026-04-26T14:07:47.962Z</time></trkpt><trkpt lat="44.05632123318638" lon="10.189802926675988"><ele>475.0</ele><time>2026-04-26T14:07:48.962Z</time></trkpt><trkpt lat="44.056381055291226" lon="10.189987251123464"><ele>475.0</ele><time>2026-04-26T14:07:49.962Z</time></trkpt><trkpt lat="44.05645365253403" lon="10.190187520861784"><ele>475.0</ele><time>2026-04-26T14:07:50.962Z</time></trkpt><trkpt lat="44.05650340004649" lon="10.190377669466121"><ele>474.75</ele><time>2026-04-26T14:07:51.962Z</time></trkpt><trkpt lat="44.05656526290403" lon="10.190547004282356"><ele>474.5</ele><time>2026-04-26T14:07:52.962Z</time></trkpt><trkpt lat="44.056564538905754" lon="10.1907167296165"><ele>474.25</ele><time>2026-04-26T14:07:53.962Z</time></trkpt><trkpt lat="44.056594105169424" lon="10.190861719560639"><ele>474.0</ele><time>2026-04-26T14:07:54.962Z</time></trkpt><trkpt lat="44.056599595848645" lon="10.190997827967712"><ele>476.0</ele><time>2026-04-26T14:07:55.962Z</time></trkpt><trkpt lat="44.05661657501739" lon="10.19110509659746"><ele>478.0</ele><time>2026-04-26T14:07:56.962Z</time></trkpt><trkpt lat="44.05666504867393" lon="10.19117825470687"><ele>480.0</ele><time>2026-04-26T14:07:57.962Z</time></trkpt><trkpt lat="44.05677721768166" lon="10.191196182972154"><ele>482.0</ele><time>2026-04-26T14:07:59.962Z</time></trkpt><trkpt lat="44.05684176234919" lon="10.19101695875911"><ele>484.0</ele><time>2026-04-26T14:08:00.962Z</time></trkpt><trkpt lat="44.0568318283722" lon="10.19085729925547"><ele>499.6666666666667</ele><time>2026-04-26T14:08:01.962Z</time></trkpt><trkpt lat="44.0567858445323" lon="10.190657147978559"><ele>515.3333333333334</ele><time>2026-04-26T14:08:02.962Z</time></trkpt><trkpt lat="44.056715467773145" lon="10.19046667423942"><ele>531.0</ele><time>2026-04-26T14:08:03.962Z</time></trkpt><trkpt lat="44.056629152084966" lon="10.190280030876634"><ele>517.0</ele><time>2026-04-26T14:08:04.962Z</time></trkpt><trkpt lat="44.05655546023386" lon="10.19008894160627"><ele>503.0</ele><time>2026-04-26T14:08:05.962Z</time></trkpt><trkpt lat="44.056502376645795" lon="10.189903010598226"><ele>489.0</ele><time>2026-04-26T14:08:06.962Z</time></trkpt><trkpt lat="44.056462233753834" lon="10.189721295973014"><ele>475.0</ele><time>2026-04-26T14:08:07.962Z</time></trkpt><trkpt lat="44.0564330198001" lon="10.189545562795203"><ele>475.0</ele><time>2026-04-26T14:08:08.962Z</time></trkpt><trkpt lat="44.05641135010802" lon="10.189376191853752"><ele>475.0</ele><time>2026-04-26T14:08:09.962Z</time></trkpt><trkpt lat="44.056407590622804" lon="10.18923586383757"><ele>475.0</ele><time>2026-04-26T14:08:10.962Z</time></trkpt><trkpt lat="44.056437815679296" lon="10.189094147312513"><ele>475.0</ele><time>2026-04-26T14:08:11.962Z</time></trkpt><trkpt lat="44.05649518536352" lon="10.188956961112627"><ele>475.0</ele><time>2026-04-26T14:08:12.962Z</time></trkpt><trkpt lat="44.05657373962058" lon="10.188834909783171"><ele>485.0</ele><time>2026-04-26T14:08:13.962Z</time></trkpt><trkpt lat="44.05667421252313" lon="10.188738063663846"><ele>495.0</ele><time>2026-04-26T14:08:14.962Z</time></trkpt><trkpt lat="44.05678060073986" lon="10.188647341197413"><ele>505.0</ele><time>2026-04-26T14:08:15.962Z</time></trkpt><trkpt lat="44.05689139791223" lon="10.1885456079739"><ele>515.0</ele><time>2026-04-26T14:08:16.962Z</time></trkpt><trkpt lat="44.057002993994715" lon="10.188441046240987"><ele>515.0</ele><time>2026-04-26T14:08:17.962Z</time></trkpt><trkpt lat="44.057106619251655" lon="10.188338246767714"><ele>515.0</ele><time>2026-04-26T14:08:18.962Z</time></trkpt><trkpt lat="44.05720001375123" lon="10.18823530556622"><ele>515.0</ele><time>2026-04-26T14:08:19.962Z</time></trkpt><trkpt lat="44.05727605840865" lon="10.188103332089728"><ele>515.0</ele><time>2026-04-26T14:08:20.962Z</time></trkpt><trkpt lat="44.05733167907359" lon="10.187930512046426"><ele>509.0</ele><time>2026-04-26T14:08:21.962Z</time></trkpt><trkpt lat="44.05738777272415" lon="10.187744369234505"><ele>503.0</ele><time>2026-04-26T14:08:22.962Z</time></trkpt><trkpt lat="44.057463437634" lon="10.187552772005908"><ele>497.0</ele><time>2026-04-26T14:08:23.962Z</time></trkpt><trkpt lat="44.05753110368124" lon="10.187366556375435"><ele>503.0</ele><time>2026-04-26T14:08:24.962Z</time></trkpt><trkpt lat="44.05759919842186" lon="10.187182367150896"><ele>509.0</ele><time>2026-04-26T14:08:25.962Z</time></trkpt><trkpt lat="44.057651937773" lon="10.187017953438747"><ele>515.0</ele><time>2026-04-26T14:08:26.962Z</time></trkpt><trkpt lat="44.057717705316485" lon="10.186876939077658"><ele>521.0</ele><time>2026-04-26T14:08:27.962Z</time></trkpt><trkpt lat="44.057782500937755" lon="10.186738096482456"><ele>521.0</ele><time>2026-04-26T14:08:28.962Z</time></trkpt><trkpt lat="44.05784145475819" lon="10.186584876721065"><ele>521.0</ele><time>2026-04-26T14:08:29.962Z</time></trkpt><trkpt lat="44.05791791930288" lon="10.186441040953447"><ele>521.0</ele><time>2026-04-26T14:08:30.962Z</time></trkpt><trkpt lat="44.058001187770266" lon="10.186301483342943"><ele>521.0</ele><time>2026-04-26T14:08:31.962Z</time></trkpt><trkpt lat="44.058110825331724" lon="10.18620475287868"><ele>522.25</ele><time>2026-04-26T14:08:32.962Z</time></trkpt><trkpt lat="44.05820659773186" lon="10.186100508507968"><ele>523.5</ele><time>2026-04-26T14:08:33.962Z</time></trkpt><trkpt lat="44.058318212520824" lon="10.186034834899399"><ele>524.75</ele><time>2026-04-26T14:08:34.962Z</time></trkpt><trkpt lat="44.05844409228597" lon="10.18600299265144"><ele>526.0</ele><time>2026-04-26T14:08:35.962Z</time></trkpt><trkpt lat="44.058574817848836" lon="10.185987206515103"><ele>526.0</ele><time>2026-04-26T14:08:36.962Z</time></trkpt><trkpt lat="44.05870343725719" lon="10.185972487822475"><ele>526.0</ele><time>2026-04-26T14:08:37.962Z</time></trkpt><trkpt lat="44.05883241048232" lon="10.18593588679466"><ele>526.0</ele><time>2026-04-26T14:08:38.962Z</time></trkpt><trkpt lat="44.058960438032315" lon="10.185875631450935"><ele>526.0</ele><time>2026-04-26T14:08:39.962Z</time></trkpt><trkpt lat="44.05908989933512" lon="10.185775511962918"><ele>521.0</ele><time>2026-04-26T14:08:40.962Z</time></trkpt><trkpt lat="44.05922576623623" lon="10.18571299333262"><ele>516.0</ele><time>2026-04-26T14:08:41.962Z</time></trkpt><trkpt lat="44.05935957113113" lon="10.185688712071013"><ele>511.0</ele><time>2026-04-26T14:08:42.962Z</time></trkpt><trkpt lat="44.059487338747836" lon="10.1856577435547"><ele>506.0</ele><time>2026-04-26T14:08:43.962Z</time></trkpt><trkpt lat="44.05962254555444" lon="10.185633720745512"><ele>506.0</ele><time>2026-04-26T14:08:44.962Z</time></trkpt><trkpt lat="44.05974620997809" lon="10.185568497611639"><ele>506.0</ele><time>2026-04-26T14:08:45.962Z</time></trkpt><trkpt lat="44.05986418802037" lon="10.185505311785947"><ele>506.0</ele><time>2026-04-26T14:08:46.962Z</time></trkpt><trkpt lat="44.0599614709855" lon="10.185454600531525"><ele>506.0</ele><time>2026-04-26T14:08:47.962Z</time></trkpt><trkpt lat="44.060040790615396" lon="10.185412566170907"><ele>506.0</ele><time>2026-04-26T14:08:48.962Z</time></trkpt><trkpt lat="44.060110278704315" lon="10.18539188888181"><ele>505.99999999999994</ele><time>2026-04-26T14:08:49.962Z</time></trkpt><trkpt lat="44.060170088037985" lon="10.185430836347921"><ele>506.0</ele><time>2026-04-26T14:08:50.962Z</time></trkpt><trkpt lat="44.06019741702996" lon="10.185522638432557"><ele>506.0</ele><time>2026-04-26T14:08:51.962Z</time></trkpt><trkpt lat="44.06017939186408" lon="10.185641364862601"><ele>506.0</ele><time>2026-04-26T14:08:52.962Z</time></trkpt><trkpt lat="44.060120192810345" lon="10.18571833274821"><ele>505.99999999999994</ele><time>2026-04-26T14:08:53.962Z</time></trkpt><trkpt lat="44.060019997080644" lon="10.185696869431409"><ele>506.0</ele><time>2026-04-26T14:08:54.962Z</time></trkpt><trkpt lat="44.0599224398855" lon="10.185660964937686"><ele>518.75</ele><time>2026-04-26T14:08:55.962Z</time></trkpt><trkpt lat="44.059800199326745" lon="10.185682406741417"><ele>531.5</ele><time>2026-04-26T14:08:56.962Z</time></trkpt><trkpt lat="44.05967034746374" lon="10.185716026276836"><ele>544.25</ele><time>2026-04-26T14:08:57.962Z</time></trkpt><trkpt lat="44.05953522445706" lon="10.18579454965834"><ele>557.0</ele><time>2026-04-26T14:08:58.962Z</time></trkpt><trkpt lat="44.05939489100992" lon="10.185880408696953"><ele>557.0</ele><time>2026-04-26T14:08:59.962Z</time></trkpt><trkpt lat="44.05925115464287" lon="10.185958880886055"><ele>557.0</ele><time>2026-04-26T14:09:00.962Z</time></trkpt><trkpt lat="44.05910804240489" lon="10.18603037874028"><ele>557.0</ele><time>2026-04-26T14:09:01.962Z</time></trkpt><trkpt lat="44.058970770023556" lon="10.186103945460049"><ele>549.25</ele><time>2026-04-26T14:09:02.962Z</time></trkpt><trkpt lat="44.05883765819001" lon="10.186168824727408"><ele>541.5</ele><time>2026-04-26T14:09:03.962Z</time></trkpt><trkpt lat="44.05870825418134" lon="10.186232606756587"><ele>533.75</ele><time>2026-04-26T14:09:04.962Z</time></trkpt><trkpt lat="44.058589171571384" lon="10.186293079777036"><ele>526.0</ele><time>2026-04-26T14:09:05.962Z</time></trkpt><trkpt lat="44.058482490822925" lon="10.186348267337065"><ele>526.0</ele><time>2026-04-26T14:09:06.962Z</time></trkpt><trkpt lat="44.05839291007793" lon="10.186411181784797"><ele>526.0</ele><time>2026-04-26T14:09:07.962Z</time></trkpt><trkpt lat="44.05831363760203" lon="10.186504462769683"><ele>526.0</ele><time>2026-04-26T14:09:08.962Z</time></trkpt><trkpt lat="44.05826392013142" lon="10.186658124604564"><ele>526.0</ele><time>2026-04-26T14:09:09.962Z</time></trkpt><trkpt lat="44.058222734237745" lon="10.1868338862177"><ele>524.3333333333334</ele><time>2026-04-26T14:09:10.962Z</time></trkpt><trkpt lat="44.058187256203624" lon="10.187027640254868"><ele>522.6666666666666</ele><time>2026-04-26T14:09:11.962Z</time></trkpt><trkpt lat="44.058157833919054" lon="10.187239035877107"><ele>521.0</ele><time>2026-04-26T14:09:12.962Z</time></trkpt><trkpt lat="44.058123158221896" lon="10.187448135302548"><ele>525.5</ele><time>2026-04-26T14:09:13.962Z</time></trkpt><trkpt lat="44.058084620116645" lon="10.187655484193597"><ele>530.0</ele><time>2026-04-26T14:09:14.962Z</time></trkpt><trkpt lat="44.058049010979104" lon="10.187856808223861"><ele>534.5</ele><time>2026-04-26T14:09:15.962Z</time></trkpt><trkpt lat="44.0580005531257" lon="10.188047758940527"><ele>539.0</ele><time>2026-04-26T14:09:16.962Z</time></trkpt><trkpt lat="44.057969110448134" lon="10.188247484359364"><ele>544.5</ele><time>2026-04-26T14:09:17.962Z</time></trkpt><trkpt lat="44.05793334937402" lon="10.188441529157945"><ele>550.0</ele><time>2026-04-26T14:09:18.962Z</time></trkpt><trkpt lat="44.05789138134276" lon="10.18861979683424"><ele>555.5</ele><time>2026-04-26T14:09:19.962Z</time></trkpt><trkpt lat="44.057851454619275" lon="10.188780115921"><ele>561.0</ele><time>2026-04-26T14:09:20.962Z</time></trkpt><trkpt lat="44.05779775476536" lon="10.188925917041328"><ele>566.5</ele><time>2026-04-26T14:09:21.962Z</time></trkpt><trkpt lat="44.057723864090754" lon="10.189057240691112"><ele>572.0</ele><time>2026-04-26T14:09:22.962Z</time></trkpt><trkpt lat="44.05764175678521" lon="10.189168616142542"><ele>577.5</ele><time>2026-04-26T14:09:23.962Z</time></trkpt><trkpt lat="44.057573165298" lon="10.189290526370797"><ele>583.0</ele><time>2026-04-26T14:09:24.962Z</time></trkpt><trkpt lat="44.05752339117693" lon="10.189425249753228"><ele>583.0</ele><time>2026-04-26T14:09:25.962Z</time></trkpt><trkpt lat="44.057505862739454" lon="10.189591493419702"><ele>583.0</ele><time>2026-04-26T14:09:26.962Z</time></trkpt><trkpt lat="44.057501759550625" lon="10.18976503951821"><ele>583.0</ele><time>2026-04-26T14:09:27.962Z</time></trkpt><trkpt lat="44.05750281273225" lon="10.18993263758517"><ele>583.0</ele><time>2026-04-26T14:09:28.962Z</time></trkpt><trkpt lat="44.05751600640492" lon="10.190092391834208"><ele>584.5</ele><time>2026-04-26T14:09:29.962Z</time></trkpt><trkpt lat="44.05756103792834" lon="10.190228663448329"><ele>586.0</ele><time>2026-04-26T14:09:30.962Z</time></trkpt><trkpt lat="44.05765266203648" lon="10.190326412141467"><ele>587.5</ele><time>2026-04-26T14:09:31.962Z</time></trkpt><trkpt lat="44.0577345096704" lon="10.190452746034179"><ele>589.0</ele><time>2026-04-26T14:09:32.962Z</time></trkpt><trkpt lat="44.057822256192416" lon="10.190563714185101"><ele>588.5</ele><time>2026-04-26T14:09:33.962Z</time></trkpt><trkpt lat="44.05789672979913" lon="10.19069780507072"><ele>588.0</ele><time>2026-04-26T14:09:34.962Z</time></trkpt><trkpt lat="44.057912123117205" lon="10.190882206865144"><ele>587.5</ele><time>2026-04-26T14:09:35.962Z</time></trkpt><trkpt lat="44.057912855857246" lon="10.19107916798874"><ele>587.0</ele><time>2026-04-26T14:09:36.96Z</time></trkpt><trkpt lat="44.05790840629531" lon="10.191264356155964"><ele>587.0</ele><time>2026-04-26T14:09:37.96Z</time></trkpt><trkpt lat="44.057902096378626" lon="10.19145793960288"><ele>587.0</ele><time>2026-04-26T14:09:38.96Z</time></trkpt><trkpt lat="44.05788482314095" lon="10.191660240435741"><ele>587.0</ele><time>2026-04-26T14:09:39.959Z</time></trkpt><trkpt lat="44.05782089565227" lon="10.191885560205705"><ele>586.75</ele><time>2026-04-26T14:09:40.96Z</time></trkpt><trkpt lat="44.05777066621854" lon="10.192103343818378"><ele>586.5</ele><time>2026-04-26T14:09:41.96Z</time></trkpt><trkpt lat="44.05773150593844" lon="10.192300890006004"><ele>586.25</ele><time>2026-04-26T14:09:42.96Z</time></trkpt><trkpt lat="44.05769942344991" lon="10.192466813860975"><ele>586.0</ele><time>2026-04-26T14:09:43.96Z</time></trkpt><trkpt lat="44.057656543061924" lon="10.192617310373398"><ele>587.75</ele><time>2026-04-26T14:09:44.96Z</time></trkpt><trkpt lat="44.05761606607085" lon="10.192744883623691"><ele>589.5</ele><time>2026-04-26T14:09:45.959Z</time></trkpt><trkpt lat="44.057532170581304" lon="10.192845098616296"><ele>591.25</ele><time>2026-04-26T14:09:46.96Z</time></trkpt><trkpt lat="44.05743333881164" lon="10.192967259334706"><ele>593.0</ele><time>2026-04-26T14:09:47.96Z</time></trkpt><trkpt lat="44.05731283859826" lon="10.193055074006717"><ele>593.0</ele><time>2026-04-26T14:09:48.96Z</time></trkpt><trkpt lat="44.05718918682309" lon="10.193113913581131"><ele>593.0</ele><time>2026-04-26T14:09:49.959Z</time></trkpt><trkpt lat="44.05706571571353" lon="10.193149318255314"><ele>593.0</ele><time>2026-04-26T14:09:50.959Z</time></trkpt><trkpt lat="44.056946346035886" lon="10.193194301261716"><ele>593.0</ele><time>2026-04-26T14:09:51.959Z</time></trkpt><trkpt lat="44.0568304195357" lon="10.193236635216651"><ele>590.25</ele><time>2026-04-26T14:09:52.959Z</time></trkpt><trkpt lat="44.05674014645169" lon="10.193300593095364"><ele>587.5</ele><time>2026-04-26T14:09:53.959Z</time></trkpt><trkpt lat="44.05665094280011" lon="10.19336758555467"><ele>584.75</ele><time>2026-04-26T14:09:54.959Z</time></trkpt><trkpt lat="44.05659355259801" lon="10.193519409970621"><ele>582.0</ele><time>2026-04-26T14:09:55.959Z</time></trkpt><trkpt lat="44.05654498327148" lon="10.193701076282606"><ele>582.0</ele><time>2026-04-26T14:09:56.959Z</time></trkpt><trkpt lat="44.0564722631797" lon="10.193893466965658"><ele>582.0</ele><time>2026-04-26T14:09:57.959Z</time></trkpt><trkpt lat="44.05641880523032" lon="10.194088064162408"><ele>582.0</ele><time>2026-04-26T14:09:58.959Z</time></trkpt><trkpt lat="44.0563596937537" lon="10.194273246928542"><ele>587.25</ele><time>2026-04-26T14:09:59.959Z</time></trkpt><trkpt lat="44.05630439550756" lon="10.194446338811561"><ele>592.5</ele><time>2026-04-26T14:10:00.959Z</time></trkpt><trkpt lat="44.056254564728825" lon="10.19460868000912"><ele>597.75</ele><time>2026-04-26T14:10:01.959Z</time></trkpt><trkpt lat="44.05622612921075" lon="10.194787308110968"><ele>603.0</ele><time>2026-04-26T14:10:02.959Z</time></trkpt><trkpt lat="44.05622050379648" lon="10.194980505592849"><ele>606.0</ele><time>2026-04-26T14:10:03.959Z</time></trkpt><trkpt lat="44.056227806535446" lon="10.195185157513539"><ele>609.0</ele><time>2026-04-26T14:10:04.959Z</time></trkpt><trkpt lat="44.05626351592772" lon="10.195392807032636"><ele>612.0</ele><time>2026-04-26T14:10:05.959Z</time></trkpt><trkpt lat="44.056307191571705" lon="10.195600946481617"><ele>613.5</ele><time>2026-04-26T14:10:06.959Z</time></trkpt><trkpt lat="44.05634751504278" lon="10.19580422450951"><ele>615.0</ele><time>2026-04-26T14:10:07.959Z</time></trkpt><trkpt lat="44.056385751757944" lon="10.19598713044637"><ele>616.5</ele><time>2026-04-26T14:10:08.959Z</time></trkpt><trkpt lat="44.05635467520165" lon="10.196155462315877"><ele>618.0</ele><time>2026-04-26T14:10:09.959Z</time></trkpt><trkpt lat="44.05631970588347" lon="10.19631328949733"><ele>618.0</ele><time>2026-04-26T14:10:10.959Z</time></trkpt><trkpt lat="44.05626710447471" lon="10.196442421143933"><ele>618.0</ele><time>2026-04-26T14:10:11.959Z</time></trkpt><trkpt lat="44.05620488208659" lon="10.196566883884971"><ele>618.0</ele><time>2026-04-26T14:10:12.959Z</time></trkpt><trkpt lat="44.05613081795947" lon="10.196638919088935"><ele>618.0</ele><time>2026-04-26T14:10:13.959Z</time></trkpt><trkpt lat="44.056052414737714" lon="10.196750485446087"><ele>618.0</ele><time>2026-04-26T14:10:14.959Z</time></trkpt><trkpt lat="44.05598378648208" lon="10.19684932699279"><ele>614.0</ele><time>2026-04-26T14:10:15.959Z</time></trkpt><trkpt lat="44.05590797635189" lon="10.19696294547904"><ele>610.0</ele><time>2026-04-26T14:10:16.959Z</time></trkpt><trkpt lat="44.05574078640367" lon="10.197217645753819"><ele>606.0</ele><time>2026-04-26T14:10:17.959Z</time></trkpt><trkpt lat="44.05562455489952" lon="10.197394118429537"><ele>606.0</ele><time>2026-04-26T14:10:18.959Z</time></trkpt><trkpt lat="44.05555228332701" lon="10.197567583990184"><ele>606.0</ele><time>2026-04-26T14:10:19.959Z</time></trkpt><trkpt lat="44.05549695047363" lon="10.197727576625654"><ele>606.0</ele><time>2026-04-26T14:10:20.959Z</time></trkpt><trkpt lat="44.05546918342263" lon="10.197939256487961"><ele>606.0</ele><time>2026-04-26T14:10:21.959Z</time></trkpt><trkpt lat="44.05544279402895" lon="10.198150209601227"><ele>612.0</ele><time>2026-04-26T14:10:22.959Z</time></trkpt><trkpt lat="44.05541856896771" lon="10.198358175983074"><ele>618.0</ele><time>2026-04-26T14:10:23.959Z</time></trkpt><trkpt lat="44.055398738770116" lon="10.198564365052611"><ele>624.0</ele><time>2026-04-26T14:10:24.959Z</time></trkpt><trkpt lat="44.0554011176479" lon="10.198780784480451"><ele>628.3333333333334</ele><time>2026-04-26T14:10:25.959Z</time></trkpt><trkpt lat="44.05539017185333" lon="10.19900178032778"><ele>632.6666666666667</ele><time>2026-04-26T14:10:26.959Z</time></trkpt><trkpt lat="44.05538196815606" lon="10.1992247056474"><ele>637.0</ele><time>2026-04-26T14:10:27.959Z</time></trkpt><trkpt lat="44.05538226310994" lon="10.199449407550391"><ele>637.0</ele><time>2026-04-26T14:10:28.959Z</time></trkpt><trkpt lat="44.05538330819833" lon="10.199680347316136"><ele>637.0</ele><time>2026-04-26T14:10:29.959Z</time></trkpt><trkpt lat="44.05538511289573" lon="10.199902278719145"><ele>637.0</ele><time>2026-04-26T14:10:30.959Z</time></trkpt><trkpt lat="44.05538092407705" lon="10.200143346597798"><ele>639.0</ele><time>2026-04-26T14:10:31.959Z</time></trkpt><trkpt lat="44.055383396986485" lon="10.200366546838076"><ele>641.0</ele><time>2026-04-26T14:10:32.959Z</time></trkpt><trkpt lat="44.055383107002996" lon="10.200598110614592"><ele>643.0</ele><time>2026-04-26T14:10:33.959Z</time></trkpt><trkpt lat="44.055382168211246" lon="10.200829162162133"><ele>646.6666666666667</ele><time>2026-04-26T14:10:34.959Z</time></trkpt><trkpt lat="44.05537649744534" lon="10.201055249873287"><ele>650.3333333333334</ele><time>2026-04-26T14:10:35.959Z</time></trkpt><trkpt lat="44.05536460303644" lon="10.20128256458805"><ele>654.0</ele><time>2026-04-26T14:10:36.959Z</time></trkpt><trkpt lat="44.055361137602006" lon="10.201517023958882"><ele>655.3333333333334</ele><time>2026-04-26T14:10:37.959Z</time></trkpt><trkpt lat="44.05535918552353" lon="10.201743896916666"><ele>656.6666666666667</ele><time>2026-04-26T14:10:38.959Z</time></trkpt><trkpt lat="44.05535581278266" lon="10.20196427486183"><ele>658.0</ele><time>2026-04-26T14:10:39.959Z</time></trkpt><trkpt lat="44.055344995228246" lon="10.202175557007797"><ele>662.6666666666667</ele><time>2026-04-26T14:10:40.959Z</time></trkpt><trkpt lat="44.055308582678414" lon="10.202373330635583"><ele>667.3333333333334</ele><time>2026-04-26T14:10:41.959Z</time></trkpt><trkpt lat="44.055275189455344" lon="10.202602581079681"><ele>672.0</ele><time>2026-04-26T14:10:42.959Z</time></trkpt><trkpt lat="44.05521471984051" lon="10.202810414920753"><ele>672.0</ele><time>2026-04-26T14:10:43.959Z</time></trkpt><trkpt lat="44.05515662245898" lon="10.20299565204725"><ele>672.0</ele><time>2026-04-26T14:10:44.959Z</time></trkpt><trkpt lat="44.055099308447204" lon="10.203156947404926"><ele>672.0</ele><time>2026-04-26T14:10:45.959Z</time></trkpt><trkpt lat="44.055052986223465" lon="10.20328884397849"><ele>672.0</ele><time>2026-04-26T14:10:46.959Z</time></trkpt><trkpt lat="44.05502286069102" lon="10.203395754826277"><ele>674.8</ele><time>2026-04-26T14:10:47.959Z</time></trkpt><trkpt lat="44.055034765728266" lon="10.203489608845397"><ele>677.6</ele><time>2026-04-26T14:10:48.959Z</time></trkpt><trkpt lat="44.0551090778996" lon="10.203591459017609"><ele>680.4</ele><time>2026-04-26T14:10:50.959Z</time></trkpt><trkpt lat="44.05518838586873" lon="10.203581375398855"><ele>683.1999999999999</ele><time>2026-04-26T14:10:51.959Z</time></trkpt><trkpt lat="44.05529497042323" lon="10.203482643714528"><ele>686.0</ele><time>2026-04-26T14:10:52.959Z</time></trkpt><trkpt lat="44.05534300965106" lon="10.203316321123657"><ele>681.3333333333333</ele><time>2026-04-26T14:10:53.959Z</time></trkpt><trkpt lat="44.05537751878391" lon="10.20313160348024"><ele>676.6666666666666</ele><time>2026-04-26T14:10:54.959Z</time></trkpt><trkpt lat="44.05541930585563" lon="10.202911512143496"><ele>672.0</ele><time>2026-04-26T14:10:55.96Z</time></trkpt><trkpt lat="44.05546778777735" lon="10.202691637357969"><ele>672.0</ele><time>2026-04-26T14:10:56.96Z</time></trkpt><trkpt lat="44.05554344933104" lon="10.202471976393905"><ele>672.0</ele><time>2026-04-26T14:10:57.96Z</time></trkpt><trkpt lat="44.055592516471066" lon="10.20222242685944"><ele>672.0</ele><time>2026-04-26T14:10:58.96Z</time></trkpt><trkpt lat="44.055645810274314" lon="10.201961659465411"><ele>667.3333333333334</ele><time>2026-04-26T14:10:59.96Z</time></trkpt><trkpt lat="44.05570355808601" lon="10.201694471362384"><ele>662.6666666666667</ele><time>2026-04-26T14:11:00.96Z</time></trkpt><trkpt lat="44.05575021367238" lon="10.20143496164684"><ele>658.0</ele><time>2026-04-26T14:11:01.96Z</time></trkpt><trkpt lat="44.055799117388084" lon="10.201171277813192"><ele>672.0</ele><time>2026-04-26T14:11:02.96Z</time></trkpt><trkpt lat="44.05583449512726" lon="10.200886641309028"><ele>686.0</ele><time>2026-04-26T14:11:03.96Z</time></trkpt><trkpt lat="44.05585689739687" lon="10.200596154863103"><ele>700.0</ele><time>2026-04-26T14:11:04.96Z</time></trkpt><trkpt lat="44.05587617793376" lon="10.200303998107792"><ele>700.0</ele><time>2026-04-26T14:11:05.96Z</time></trkpt><trkpt lat="44.055895356914675" lon="10.200021618151537"><ele>700.0</ele><time>2026-04-26T14:11:06.96Z</time></trkpt><trkpt lat="44.05591528745593" lon="10.199745933566831"><ele>700.0</ele><time>2026-04-26T14:11:07.96Z</time></trkpt><trkpt lat="44.055934287099056" lon="10.199476131504033"><ele>697.3333333333334</ele><time>2026-04-26T14:11:08.96Z</time></trkpt><trkpt lat="44.05595495765376" lon="10.199222830008885"><ele>694.6666666666666</ele><time>2026-04-26T14:11:09.96Z</time></trkpt><trkpt lat="44.055975720253386" lon="10.198983143339458"><ele>692.0</ele><time>2026-04-26T14:11:10.96Z</time></trkpt><trkpt lat="44.05599521001517" lon="10.198760506922076"><ele>689.75</ele><time>2026-04-26T14:11:11.96Z</time></trkpt><trkpt lat="44.05601403330756" lon="10.198564313693474"><ele>687.5</ele><time>2026-04-26T14:11:12.96Z</time></trkpt><trkpt lat="44.05602463041422" lon="10.198396011546384"><ele>685.25</ele><time>2026-04-26T14:11:13.96Z</time></trkpt><trkpt lat="44.05603905735594" lon="10.198246671594987"><ele>683.0</ele><time>2026-04-26T14:11:14.96Z</time></trkpt><trkpt lat="44.05605795307133" lon="10.19810366673011"><ele>680.0</ele><time>2026-04-26T14:11:15.96Z</time></trkpt><trkpt lat="44.05608062988955" lon="10.197972490378778"><ele>677.0</ele><time>2026-04-26T14:11:16.96Z</time></trkpt><trkpt lat="44.056110468804185" lon="10.19788324175614"><ele>674.0</ele><time>2026-04-26T14:11:17.96Z</time></trkpt><trkpt lat="44.05623084054166" lon="10.1978702282732"><ele>671.0</ele><time>2026-04-26T14:11:19.96Z</time></trkpt><trkpt lat="44.0562737210078" lon="10.197985331555874"><ele>668.0</ele><time>2026-04-26T14:11:20.96Z</time></trkpt><trkpt lat="44.05619833455476" lon="10.198131941062714"><ele>671.75</ele><time>2026-04-26T14:11:21.96Z</time></trkpt><trkpt lat="44.05615352232241" lon="10.19829345686075"><ele>675.5</ele><time>2026-04-26T14:11:22.96Z</time></trkpt><trkpt lat="44.05611981697115" lon="10.198477487696378"><ele>679.25</ele><time>2026-04-26T14:11:23.96Z</time></trkpt><trkpt lat="44.056096847842824" lon="10.198683046907812"><ele>683.0</ele><time>2026-04-26T14:11:24.96Z</time></trkpt><trkpt lat="44.05608591922625" lon="10.198906891971603"><ele>686.0</ele><time>2026-04-26T14:11:25.96Z</time></trkpt><trkpt lat="44.05610529265171" lon="10.199141273661311"><ele>689.0</ele><time>2026-04-26T14:11:26.96Z</time></trkpt><trkpt lat="44.05612065451179" lon="10.19937930781046"><ele>692.0</ele><time>2026-04-26T14:11:27.96Z</time></trkpt><trkpt lat="44.05612788957159" lon="10.199626969341386"><ele>694.6666666666666</ele><time>2026-04-26T14:11:28.96Z</time></trkpt><trkpt lat="44.05615421775447" lon="10.199885555338534"><ele>697.3333333333334</ele><time>2026-04-26T14:11:29.96Z</time></trkpt><trkpt lat="44.0561732130967" lon="10.20012538104853"><ele>700.0</ele><time>2026-04-26T14:11:30.96Z</time></trkpt><trkpt lat="44.05618901215614" lon="10.200354671912907"><ele>700.0</ele><time>2026-04-26T14:11:31.96Z</time></trkpt><trkpt lat="44.05620276165086" lon="10.200569073810076"><ele>700.0</ele><time>2026-04-26T14:11:32.96Z</time></trkpt><trkpt lat="44.05621548662305" lon="10.200784516925024"><ele>700.0</ele><time>2026-04-26T14:11:33.96Z</time></trkpt><trkpt lat="44.0562355499121" lon="10.200996650035934"><ele>700.0</ele><time>2026-04-26T14:11:34.96Z</time></trkpt><trkpt lat="44.05625163577622" lon="10.201208891296671"><ele>700.0</ele><time>2026-04-26T14:11:35.96Z</time></trkpt><trkpt lat="44.05625724741899" lon="10.201424804883041"><ele>700.0</ele><time>2026-04-26T14:11:36.96Z</time></trkpt><trkpt lat="44.056257993216896" lon="10.20165001009822"><ele>701.3333333333334</ele><time>2026-04-26T14:11:37.96Z</time></trkpt><trkpt lat="44.05625747134382" lon="10.201867703892304"><ele>702.6666666666666</ele><time>2026-04-26T14:11:38.96Z</time></trkpt><trkpt lat="44.056268944217976" lon="10.20209691854793"><ele>704.0</ele><time>2026-04-26T14:11:39.96Z</time></trkpt><trkpt lat="44.05624331065062" lon="10.202322669960132"><ele>706.6666666666666</ele><time>2026-04-26T14:11:40.96Z</time></trkpt><trkpt lat="44.05625014037576" lon="10.202551648174019"><ele>709.3333333333334</ele><time>2026-04-26T14:11:41.96Z</time></trkpt><trkpt lat="44.0562250416256" lon="10.202772722527992"><ele>712.0</ele><time>2026-04-26T14:11:42.958Z</time></trkpt><trkpt lat="44.05622499769851" lon="10.203004078356892"><ele>714.0</ele><time>2026-04-26T14:11:43.958Z</time></trkpt><trkpt lat="44.05621268135308" lon="10.203213460244134"><ele>716.0</ele><time>2026-04-26T14:11:44.958Z</time></trkpt><trkpt lat="44.05620190442865" lon="10.203412392389405"><ele>718.0</ele><time>2026-04-26T14:11:45.958Z</time></trkpt><trkpt lat="44.05619040852254" lon="10.2036129611803"><ele>720.0</ele><time>2026-04-26T14:11:46.957Z</time></trkpt><trkpt lat="44.056177667757844" lon="10.203798749332655"><ele>720.0</ele><time>2026-04-26T14:11:47.957Z</time></trkpt><trkpt lat="44.05615965842392" lon="10.203974345148897"><ele>720.0</ele><time>2026-04-26T14:11:48.958Z</time></trkpt><trkpt lat="44.056136069031155" lon="10.204137970240154"><ele>720.0</ele><time>2026-04-26T14:11:49.957Z</time></trkpt><trkpt lat="44.05607254775469" lon="10.20429635900915"><ele>720.0</ele><time>2026-04-26T14:11:50.957Z</time></trkpt><trkpt lat="44.05600677002826" lon="10.204457259985013"><ele>723.0</ele><time>2026-04-26T14:11:51.958Z</time></trkpt><trkpt lat="44.055938129178855" lon="10.204615515577933"><ele>726.0</ele><time>2026-04-26T14:11:52.958Z</time></trkpt><trkpt lat="44.05587631652115" lon="10.204757684548456"><ele>729.0</ele><time>2026-04-26T14:11:53.958Z</time></trkpt><trkpt lat="44.055826223944464" lon="10.20487230857464"><ele>732.0</ele><time>2026-04-26T14:11:54.958Z</time></trkpt><trkpt lat="44.055800011985134" lon="10.20497838420887"><ele>735.0</ele><time>2026-04-26T14:11:55.957Z</time></trkpt><trkpt lat="44.055763608025636" lon="10.205064718480648"><ele>736.8</ele><time>2026-04-26T14:11:56.957Z</time></trkpt><trkpt lat="44.05573723042587" lon="10.205153782426144"><ele>738.6</ele><time>2026-04-26T14:11:57.957Z</time></trkpt><trkpt lat="44.05575240719761" lon="10.205295819297753"><ele>740.4000000000001</ele><time>2026-04-26T14:11:59.957Z</time></trkpt><trkpt lat="44.055813919575534" lon="10.205327290438976"><ele>742.2</ele><time>2026-04-26T14:12:00.957Z</time></trkpt><trkpt lat="44.055918533090264" lon="10.205327731741816"><ele>744.0</ele><time>2026-04-26T14:12:01.957Z</time></trkpt><trkpt lat="44.05602634512991" lon="10.205189152141369"><ele>741.75</ele><time>2026-04-26T14:12:02.957Z</time></trkpt><trkpt lat="44.05611433093046" lon="10.205032299808634"><ele>739.5</ele><time>2026-04-26T14:12:03.957Z</time></trkpt><trkpt lat="44.05620550075973" lon="10.204871442915831"><ele>737.25</ele><time>2026-04-26T14:12:04.957Z</time></trkpt><trkpt lat="44.05627802411572" lon="10.204716603001481"><ele>735.0</ele><time>2026-04-26T14:12:05.957Z</time></trkpt><trkpt lat="44.056326949004266" lon="10.204547092133454"><ele>735.0</ele><time>2026-04-26T14:12:06.957Z</time></trkpt><trkpt lat="44.05636786136863" lon="10.204366457385033"><ele>735.0</ele><time>2026-04-26T14:12:07.957Z</time></trkpt><trkpt lat="44.05638899672396" lon="10.20415008206228"><ele>735.0</ele><time>2026-04-26T14:12:08.957Z</time></trkpt><trkpt lat="44.05642340861854" lon="10.203931967407273"><ele>730.0</ele><time>2026-04-26T14:12:09.957Z</time></trkpt><trkpt lat="44.05645622513606" lon="10.203695940738983"><ele>725.0</ele><time>2026-04-26T14:12:10.957Z</time></trkpt><trkpt lat="44.05649024383002" lon="10.203456433773878"><ele>720.0</ele><time>2026-04-26T14:12:11.958Z</time></trkpt><trkpt lat="44.05652546132893" lon="10.203220767372441"><ele>717.3333333333334</ele><time>2026-04-26T14:12:12.958Z</time></trkpt><trkpt lat="44.056561054933944" lon="10.202974829078356"><ele>714.6666666666667</ele><time>2026-04-26T14:12:13.958Z</time></trkpt><trkpt lat="44.05659958418648" lon="10.202726976780243"><ele>712.0</ele><time>2026-04-26T14:12:14.958Z</time></trkpt><trkpt lat="44.05663241304074" lon="10.202496488234267"><ele>728.6666666666667</ele><time>2026-04-26T14:12:15.958Z</time></trkpt><trkpt lat="44.05667154364224" lon="10.202270962347798"><ele>745.3333333333334</ele><time>2026-04-26T14:12:16.958Z</time></trkpt><trkpt lat="44.056708422279605" lon="10.202052813088653"><ele>762.0</ele><time>2026-04-26T14:12:17.958Z</time></trkpt><trkpt lat="44.05674087429963" lon="10.201838389981305"><ele>762.0</ele><time>2026-04-26T14:12:18.958Z</time></trkpt><trkpt lat="44.05677361093523" lon="10.201612791336572"><ele>762.0</ele><time>2026-04-26T14:12:19.958Z</time></trkpt><trkpt lat="44.05680562684285" lon="10.20140617652279"><ele>762.0</ele><time>2026-04-26T14:12:20.958Z</time></trkpt><trkpt lat="44.05683676164022" lon="10.201200386457614"><ele>761.5</ele><time>2026-04-26T14:12:21.958Z</time></trkpt><trkpt lat="44.056854072696325" lon="10.200995747096872"><ele>761.0</ele><time>2026-04-26T14:12:22.958Z</time></trkpt><trkpt lat="44.05684578881282" lon="10.200783952087649"><ele>760.5</ele><time>2026-04-26T14:12:23.958Z</time></trkpt><trkpt lat="44.05682176917281" lon="10.20057964604768"><ele>760.0</ele><time>2026-04-26T14:12:24.958Z</time></trkpt><trkpt lat="44.0567907787814" lon="10.20038568537155"><ele>760.0</ele><time>2026-04-26T14:12:25.958Z</time></trkpt><trkpt lat="44.05676782891085" lon="10.20021558460712"><ele>760.0</ele><time>2026-04-26T14:12:26.958Z</time></trkpt><trkpt lat="44.05675261710413" lon="10.200065096461067"><ele>760.0</ele><time>2026-04-26T14:12:27.958Z</time></trkpt><trkpt lat="44.056740791069835" lon="10.19994017921213"><ele>760.0</ele><time>2026-04-26T14:12:28.958Z</time></trkpt><trkpt lat="44.05673534064942" lon="10.199827211410604"><ele>760.0</ele><time>2026-04-26T14:12:29.958Z</time></trkpt><trkpt lat="44.0567502774078" lon="10.199730506072518"><ele>760.0</ele><time>2026-04-26T14:12:30.958Z</time></trkpt><trkpt lat="44.056793495136475" lon="10.199661734493809"><ele>760.0</ele><time>2026-04-26T14:12:31.958Z</time></trkpt><trkpt lat="44.05687959377228" lon="10.199676714396702"><ele>760.0</ele><time>2026-04-26T14:12:32.958Z</time></trkpt><trkpt lat="44.05693771586493" lon="10.199751267887502"><ele>760.0</ele><time>2026-04-26T14:12:33.958Z</time></trkpt><trkpt lat="44.05696267660772" lon="10.199909647779274"><ele>760.0</ele><time>2026-04-26T14:12:34.958Z</time></trkpt><trkpt lat="44.056921288626654" lon="10.200088832410561"><ele>760.0</ele><time>2026-04-26T14:12:35.958Z</time></trkpt><trkpt lat="44.05691117749905" lon="10.200264273612136"><ele>760.0</ele><time>2026-04-26T14:12:36.958Z</time></trkpt><trkpt lat="44.05690753252969" lon="10.20047560579"><ele>760.0</ele><time>2026-04-26T14:12:37.958Z</time></trkpt><trkpt lat="44.05692296144507" lon="10.200702556799625"><ele>760.0</ele><time>2026-04-26T14:12:38.958Z</time></trkpt><trkpt lat="44.05697272133279" lon="10.20092644822722"><ele>759.6666666666667</ele><time>2026-04-26T14:12:39.958Z</time></trkpt><trkpt lat="44.05700341553351" lon="10.201127496910848"><ele>759.3333333333334</ele><time>2026-04-26T14:12:40.958Z</time></trkpt><trkpt lat="44.05700446929751" lon="10.20133368052116"><ele>759.0</ele><time>2026-04-26T14:12:41.958Z</time></trkpt><trkpt lat="44.05699691057367" lon="10.201552353683375"><ele>759.75</ele><time>2026-04-26T14:12:42.958Z</time></trkpt><trkpt lat="44.0569837431533" lon="10.201771055943503"><ele>760.5</ele><time>2026-04-26T14:12:43.958Z</time></trkpt><trkpt lat="44.05697023745099" lon="10.201981986070685"><ele>761.25</ele><time>2026-04-26T14:12:44.958Z</time></trkpt><trkpt lat="44.05695888021604" lon="10.202173773707871"><ele>762.0</ele><time>2026-04-26T14:12:45.958Z</time></trkpt><trkpt lat="44.05695142257884" lon="10.20235754384136"><ele>762.6</ele><time>2026-04-26T14:12:46.958Z</time></trkpt><trkpt lat="44.05696288238239" lon="10.202519552866137"><ele>763.2</ele><time>2026-04-26T14:12:47.958Z</time></trkpt><trkpt lat="44.05696870165497" lon="10.202673136779595"><ele>763.8</ele><time>2026-04-26T14:12:48.958Z</time></trkpt><trkpt lat="44.05697370574107" lon="10.202822028681402"><ele>764.4</ele><time>2026-04-26T14:12:49.958Z</time></trkpt><trkpt lat="44.05698358712905" lon="10.202974310716186"><ele>765.0</ele><time>2026-04-26T14:12:50.958Z</time></trkpt><trkpt lat="44.05699086792056" lon="10.203154733699602"><ele>767.0</ele><time>2026-04-26T14:12:51.958Z</time></trkpt><trkpt lat="44.05696985938556" lon="10.20336466803313"><ele>769.0</ele><time>2026-04-26T14:12:52.958Z</time></trkpt><trkpt lat="44.056966842873095" lon="10.203607010715281"><ele>771.0</ele><time>2026-04-26T14:12:53.958Z</time></trkpt><trkpt lat="44.056948628221285" lon="10.203878512270826"><ele>772.6666666666667</ele><time>2026-04-26T14:12:54.958Z</time></trkpt><trkpt lat="44.056926293319016" lon="10.204156123618933"><ele>774.3333333333334</ele><time>2026-04-26T14:12:55.958Z</time></trkpt><trkpt lat="44.0569074117251" lon="10.20439585575378"><ele>776.0</ele><time>2026-04-26T14:12:56.958Z</time></trkpt><trkpt lat="44.056892847023384" lon="10.204628127046576"><ele>779.5</ele><time>2026-04-26T14:12:57.958Z</time></trkpt><trkpt lat="44.056875836904865" lon="10.204837895870641"><ele>783.0</ele><time>2026-04-26T14:12:58.958Z</time></trkpt><trkpt lat="44.05685728053031" lon="10.20503457554252"><ele>786.5</ele><time>2026-04-26T14:12:59.958Z</time></trkpt><trkpt lat="44.056841523261596" lon="10.205220055086366"><ele>790.0</ele><time>2026-04-26T14:13:00.958Z</time></trkpt><trkpt lat="44.0568264117524" lon="10.205411413870639"><ele>790.0</ele><time>2026-04-26T14:13:01.958Z</time></trkpt><trkpt lat="44.05681812067299" lon="10.205600296139949"><ele>790.0</ele><time>2026-04-26T14:13:02.958Z</time></trkpt><trkpt lat="44.05680890452006" lon="10.205763379718695"><ele>790.0</ele><time>2026-04-26T14:13:03.958Z</time></trkpt><trkpt lat="44.05679249886125" lon="10.20590252286127"><ele>790.0</ele><time>2026-04-26T14:13:04.958Z</time></trkpt><trkpt lat="44.05668649966932" lon="10.205956109078192"><ele>793.8</ele><time>2026-04-26T14:13:05.958Z</time></trkpt><trkpt lat="44.0566585227637" lon="10.20604389032605"><ele>797.6</ele><time>2026-04-26T14:13:06.958Z</time></trkpt><trkpt lat="44.05663316629407" lon="10.20613397345712"><ele>801.4000000000001</ele><time>2026-04-26T14:13:07.958Z</time></trkpt><trkpt lat="44.05663307272745" lon="10.206228912194419"><ele>805.2</ele><time>2026-04-26T14:13:08.958Z</time></trkpt><trkpt lat="44.05676538492017" lon="10.206214229231504"><ele>809.0</ele><time>2026-04-26T14:13:10.958Z</time></trkpt><trkpt lat="44.0568634035481" lon="10.206124562818404"><ele>809.0</ele><time>2026-04-26T14:13:11.958Z</time></trkpt><trkpt lat="44.05693205522314" lon="10.205950272175357"><ele>809.0</ele><time>2026-04-26T14:13:12.958Z</time></trkpt><trkpt lat="44.05695525714009" lon="10.205768077012966"><ele>809.0</ele><time>2026-04-26T14:13:13.958Z</time></trkpt><trkpt lat="44.05699634200174" lon="10.205574715574171"><ele>809.0</ele><time>2026-04-26T14:13:14.958Z</time></trkpt><trkpt lat="44.056989548608065" lon="10.205349513089415"><ele>804.25</ele><time>2026-04-26T14:13:15.958Z</time></trkpt><trkpt lat="44.05702963999555" lon="10.205159464345732"><ele>799.5</ele><time>2026-04-26T14:13:16.958Z</time></trkpt><trkpt lat="44.057062986531385" lon="10.204976379220922"><ele>794.75</ele><time>2026-04-26T14:13:17.958Z</time></trkpt><trkpt lat="44.057135573138524" lon="10.20482058547726"><ele>790.0</ele><time>2026-04-26T14:13:18.958Z</time></trkpt><trkpt lat="44.05718447670981" lon="10.204639285062145"><ele>786.5</ele><time>2026-04-26T14:13:19.958Z</time></trkpt><trkpt lat="44.05724073682975" lon="10.204469014600363"><ele>783.0</ele><time>2026-04-26T14:13:20.958Z</time></trkpt><trkpt lat="44.05727392483228" lon="10.204273814848223"><ele>779.5</ele><time>2026-04-26T14:13:21.958Z</time></trkpt><trkpt lat="44.057293458104176" lon="10.204059258480017"><ele>776.0</ele><time>2026-04-26T14:13:22.958Z</time></trkpt><trkpt lat="44.05732397482482" lon="10.203830434495918"><ele>774.3333333333334</ele><time>2026-04-26T14:13:23.958Z</time></trkpt><trkpt lat="44.05736237134578" lon="10.203599794981207"><ele>772.6666666666667</ele><time>2026-04-26T14:13:24.958Z</time></trkpt><trkpt lat="44.057392222043106" lon="10.203376051345822"><ele>771.0</ele><time>2026-04-26T14:13:25.958Z</time></trkpt><trkpt lat="44.057420077001254" lon="10.203151459459873"><ele>769.0</ele><time>2026-04-26T14:13:26.958Z</time></trkpt><trkpt lat="44.05743744212461" lon="10.202924383878157"><ele>767.0</ele><time>2026-04-26T14:13:27.958Z</time></trkpt><trkpt lat="44.05745336532251" lon="10.202703417022919"><ele>765.0</ele><time>2026-04-26T14:13:28.958Z</time></trkpt><trkpt lat="44.05745907454195" lon="10.202483040105076"><ele>780.0</ele><time>2026-04-26T14:13:29.958Z</time></trkpt><trkpt lat="44.05746764998244" lon="10.202270098825478"><ele>795.0</ele><time>2026-04-26T14:13:30.958Z</time></trkpt><trkpt lat="44.057479411567336" lon="10.202075021369458"><ele>810.0</ele><time>2026-04-26T14:13:31.958Z</time></trkpt><trkpt lat="44.05749180215499" lon="10.201911186462931"><ele>825.0</ele><time>2026-04-26T14:13:32.958Z</time></trkpt><trkpt lat="44.057501515687015" lon="10.201782970186276"><ele>825.0</ele><time>2026-04-26T14:13:33.958Z</time></trkpt><trkpt lat="44.05753113402512" lon="10.201700874958346"><ele>825.0</ele><time>2026-04-26T14:13:34.958Z</time></trkpt><trkpt lat="44.05761498014034" lon="10.201639812743577"><ele>825.0</ele><time>2026-04-26T14:13:36.958Z</time></trkpt><trkpt lat="44.05766502108203" lon="10.201736878322846"><ele>825.0</ele><time>2026-04-26T14:13:37.958Z</time></trkpt><trkpt lat="44.05763385148139" lon="10.20187097040283"><ele>825.0</ele><time>2026-04-26T14:13:38.958Z</time></trkpt><trkpt lat="44.057602780446494" lon="10.201996915286498"><ele>825.0</ele><time>2026-04-26T14:13:39.958Z</time></trkpt><trkpt lat="44.057564940079786" lon="10.20213930285466"><ele>825.0</ele><time>2026-04-26T14:13:40.958Z</time></trkpt><trkpt lat="44.05754694005304" lon="10.2023003744255"><ele>825.0</ele><time>2026-04-26T14:13:41.958Z</time></trkpt><trkpt lat="44.05753099387757" lon="10.202445466767472"><ele>825.0</ele><time>2026-04-26T14:13:42.958Z</time></trkpt><trkpt lat="44.05755119166763" lon="10.202612783597775"><ele>825.0</ele><time>2026-04-26T14:13:43.958Z</time></trkpt><trkpt lat="44.057576827300934" lon="10.202795847723566"><ele>826.25</ele><time>2026-04-26T14:13:44.958Z</time></trkpt><trkpt lat="44.05760521901756" lon="10.202991695103439"><ele>827.5</ele><time>2026-04-26T14:13:45.958Z</time></trkpt><trkpt lat="44.057619859659866" lon="10.203189492780066"><ele>828.75</ele><time>2026-04-26T14:13:46.958Z</time></trkpt><trkpt lat="44.05760778282554" lon="10.203415584923079"><ele>830.0</ele><time>2026-04-26T14:13:47.958Z</time></trkpt><trkpt lat="44.05759713702459" lon="10.203641761005883"><ele>831.3333333333334</ele><time>2026-04-26T14:13:48.956Z</time></trkpt><trkpt lat="44.05758730102996" lon="10.203868334520386"><ele>832.6666666666667</ele><time>2026-04-26T14:13:49.957Z</time></trkpt><trkpt lat="44.05757693619002" lon="10.204097536930663"><ele>834.0</ele><time>2026-04-26T14:13:50.957Z</time></trkpt><trkpt lat="44.05756216186161" lon="10.204320554096906"><ele>835.6666666666667</ele><time>2026-04-26T14:13:51.956Z</time></trkpt><trkpt lat="44.05754692899425" lon="10.20454724151327"><ele>837.3333333333334</ele><time>2026-04-26T14:13:52.957Z</time></trkpt><trkpt lat="44.05753994741685" lon="10.204756177459199"><ele>839.0</ele><time>2026-04-26T14:13:53.957Z</time></trkpt><trkpt lat="44.05753200271578" lon="10.204964433594174"><ele>840.25</ele><time>2026-04-26T14:13:54.956Z</time></trkpt><trkpt lat="44.05752572874143" lon="10.205163775208517"><ele>841.5</ele><time>2026-04-26T14:13:55.956Z</time></trkpt><trkpt lat="44.057518082014845" lon="10.205358920944793"><ele>842.75</ele><time>2026-04-26T14:13:56.956Z</time></trkpt><trkpt lat="44.057513611583985" lon="10.205558920010041"><ele>844.0</ele><time>2026-04-26T14:13:57.956Z</time></trkpt><trkpt lat="44.05751905876278" lon="10.205753186550172"><ele>846.25</ele><time>2026-04-26T14:13:58.956Z</time></trkpt><trkpt lat="44.05753539325458" lon="10.205940422020458"><ele>848.5</ele><time>2026-04-26T14:13:59.956Z</time></trkpt><trkpt lat="44.05756825297116" lon="10.206123133556542"><ele>850.75</ele><time>2026-04-26T14:14:00.956Z</time></trkpt><trkpt lat="44.05760638572834" lon="10.20628576335046"><ele>853.0</ele><time>2026-04-26T14:14:01.956Z</time></trkpt><trkpt lat="44.05764862515141" lon="10.206457891066334"><ele>854.75</ele><time>2026-04-26T14:14:02.956Z</time></trkpt><trkpt lat="44.057696009535306" lon="10.20663715919433"><ele>856.5</ele><time>2026-04-26T14:14:03.956Z</time></trkpt><trkpt lat="44.057738673010455" lon="10.206808398092782"><ele>858.25</ele><time>2026-04-26T14:14:04.956Z</time></trkpt><trkpt lat="44.05778330818878" lon="10.206987353686914"><ele>860.0</ele><time>2026-04-26T14:14:05.956Z</time></trkpt><trkpt lat="44.057820753346235" lon="10.20716350259113"><ele>862.6</ele><time>2026-04-26T14:14:06.956Z</time></trkpt><trkpt lat="44.057855413550925" lon="10.207339796474661"><ele>865.2</ele><time>2026-04-26T14:14:07.956Z</time></trkpt><trkpt lat="44.05788363802425" lon="10.20749114168646"><ele>867.8</ele><time>2026-04-26T14:14:08.956Z</time></trkpt><trkpt lat="44.05789818165208" lon="10.20763826381198"><ele>870.4</ele><time>2026-04-26T14:14:09.956Z</time></trkpt><trkpt lat="44.05787664829047" lon="10.207766789278748"><ele>873.0</ele><time>2026-04-26T14:14:10.956Z</time></trkpt><trkpt lat="44.05782775233555" lon="10.207865147151743"><ele>873.0</ele><time>2026-04-26T14:14:11.956Z</time></trkpt><trkpt lat="44.05771355694069" lon="10.207941697627968"><ele>873.0</ele><time>2026-04-26T14:14:12.956Z</time></trkpt><trkpt lat="44.057624859704035" lon="10.208071322177828"><ele>873.0</ele><time>2026-04-26T14:14:13.956Z</time></trkpt><trkpt lat="44.05751824187206" lon="10.208177779071528"><ele>873.0</ele><time>2026-04-26T14:14:14.956Z</time></trkpt><trkpt lat="44.0574104278977" lon="10.208290011999937"><ele>878.75</ele><time>2026-04-26T14:14:15.956Z</time></trkpt><trkpt lat="44.057308354574005" lon="10.208401851415411"><ele>884.5</ele><time>2026-04-26T14:14:16.956Z</time></trkpt><trkpt lat="44.05722210363735" lon="10.208503513716694"><ele>890.25</ele><time>2026-04-26T14:14:17.956Z</time></trkpt><trkpt lat="44.057135791486985" lon="10.208605702679373"><ele>896.0</ele><time>2026-04-26T14:14:18.956Z</time></trkpt><trkpt lat="44.057066081240485" lon="10.208728669684202"><ele>896.0000000000001</ele><time>2026-04-26T14:14:19.956Z</time></trkpt><trkpt lat="44.05701945263092" lon="10.208859098397909"><ele>896.0</ele><time>2026-04-26T14:14:20.956Z</time></trkpt><trkpt lat="44.056988375436276" lon="10.208987138842021"><ele>896.0</ele><time>2026-04-26T14:14:21.956Z</time></trkpt><trkpt lat="44.056981839203196" lon="10.209085265940319"><ele>896.0</ele><time>2026-04-26T14:14:22.956Z</time></trkpt><trkpt lat="44.056972991757426" lon="10.20918585254559"><ele>896.0000000000001</ele><time>2026-04-26T14:14:23.956Z</time></trkpt><trkpt lat="44.056961682433844" lon="10.209299042224279"><ele>896.0</ele><time>2026-04-26T14:14:24.956Z</time></trkpt><trkpt lat="44.05704061455011" lon="10.209729810252384"><ele>881.0</ele><time>2026-04-26T14:14:28.457Z</time></trkpt><trkpt lat="44.05695150453593" lon="10.21022628450306"><ele>866.0</ele><time>2026-04-26T14:14:29.956Z</time></trkpt><trkpt lat="44.05696487830984" lon="10.210460520324022"><ele>866.0</ele><time>2026-04-26T14:14:30.956Z</time></trkpt><trkpt lat="44.05700001012162" lon="10.210661365615822"><ele>866.0</ele><time>2026-04-26T14:14:31.956Z</time></trkpt><trkpt lat="44.057047669448366" lon="10.210848319464185"><ele>866.0</ele><time>2026-04-26T14:14:32.956Z</time></trkpt><trkpt lat="44.05709936580244" lon="10.210986471908438"><ele>866.0</ele><time>2026-04-26T14:14:33.956Z</time></trkpt><trkpt lat="44.05725462412831" lon="10.21108265250254"><ele>866.0</ele><time>2026-04-26T14:14:34.956Z</time></trkpt><trkpt lat="44.05734371389386" lon="10.2112422770121"><ele>866.0</ele><time>2026-04-26T14:14:35.956Z</time></trkpt><trkpt lat="44.057433452095246" lon="10.21134287026378"><ele>866.0</ele><time>2026-04-26T14:14:36.956Z</time></trkpt><trkpt lat="44.057516116171236" lon="10.211477092335159"><ele>866.0</ele><time>2026-04-26T14:14:37.956Z</time></trkpt><trkpt lat="44.05758472214521" lon="10.211602980752483"><ele>874.0</ele><time>2026-04-26T14:14:38.956Z</time></trkpt><trkpt lat="44.05762643095432" lon="10.211753420687321"><ele>882.0</ele><time>2026-04-26T14:14:39.956Z</time></trkpt><trkpt lat="44.057660862227905" lon="10.211923328537159"><ele>890.0</ele><time>2026-04-26T14:14:40.956Z</time></trkpt><trkpt lat="44.057703794882315" lon="10.212099274274273"><ele>898.0</ele><time>2026-04-26T14:14:41.956Z</time></trkpt><trkpt lat="44.057744511884096" lon="10.21226831262133"><ele>903.5</ele><time>2026-04-26T14:14:42.956Z</time></trkpt><trkpt lat="44.057782038881015" lon="10.212430572207628"><ele>909.0</ele><time>2026-04-26T14:14:43.956Z</time></trkpt><trkpt lat="44.05781675726532" lon="10.212589622642128"><ele>914.5</ele><time>2026-04-26T14:14:44.956Z</time></trkpt><trkpt lat="44.05784143057577" lon="10.212736647711093"><ele>920.0</ele><time>2026-04-26T14:14:45.956Z</time></trkpt><trkpt lat="44.05788228310989" lon="10.212873907429548"><ele>920.0</ele><time>2026-04-26T14:14:46.956Z</time></trkpt><trkpt lat="44.05792052230992" lon="10.213014453346968"><ele>920.0</ele><time>2026-04-26T14:14:47.956Z</time></trkpt><trkpt lat="44.05795799128926" lon="10.213161798526405"><ele>920.0</ele><time>2026-04-26T14:14:48.956Z</time></trkpt><trkpt lat="44.05799222159169" lon="10.213303355718171"><ele>920.0</ele><time>2026-04-26T14:14:49.956Z</time></trkpt><trkpt lat="44.05802920651062" lon="10.213452475520443"><ele>920.0</ele><time>2026-04-26T14:14:50.956Z</time></trkpt><trkpt lat="44.058066125684036" lon="10.213596802391697"><ele>926.2</ele><time>2026-04-26T14:14:51.956Z</time></trkpt><trkpt lat="44.05810105542582" lon="10.213747554977774"><ele>932.4</ele><time>2026-04-26T14:14:52.956Z</time></trkpt><trkpt lat="44.05813602048893" lon="10.213901616063042"><ele>938.5999999999999</ele><time>2026-04-26T14:14:53.956Z</time></trkpt><trkpt lat="44.058170836382686" lon="10.213979124597175"><ele>944.8</ele><time>2026-04-26T14:14:54.956Z</time></trkpt><trkpt lat="44.05821260544385" lon="10.21415390272098"><ele>951.0</ele><time>2026-04-26T14:14:55.956Z</time></trkpt><trkpt lat="44.05825910512872" lon="10.21434899882407"><ele>946.0</ele><time>2026-04-26T14:14:56.956Z</time></trkpt><trkpt lat="44.05831963610181" lon="10.214569688477164"><ele>941.0</ele><time>2026-04-26T14:14:57.956Z</time></trkpt><trkpt lat="44.05838541376678" lon="10.214714598659315"><ele>936.0</ele><time>2026-04-26T14:14:58.956Z</time></trkpt><trkpt lat="44.058447858431116" lon="10.21487819267336"><ele>931.0</ele><time>2026-04-26T14:14:59.956Z</time></trkpt><trkpt lat="44.0584879368614" lon="10.215008913013307"><ele>931.0</ele><time>2026-04-26T14:15:00.956Z</time></trkpt><trkpt lat="44.058496433215595" lon="10.215124827271836"><ele>930.9999999999999</ele><time>2026-04-26T14:15:01.956Z</time></trkpt><trkpt lat="44.058475986911816" lon="10.215246733180388"><ele>930.9999999999999</ele><time>2026-04-26T14:15:02.956Z</time></trkpt><trkpt lat="44.058448265727755" lon="10.215371995187812"><ele>931.0</ele><time>2026-04-26T14:15:03.956Z</time></trkpt><trkpt lat="44.05840558866726" lon="10.215502608740936"><ele>931.0</ele><time>2026-04-26T14:15:04.956Z</time></trkpt><trkpt lat="44.0583702306476" lon="10.215643711327573"><ele>933.5999999999999</ele><time>2026-04-26T14:15:05.956Z</time></trkpt><trkpt lat="44.0583447243575" lon="10.215785860650673"><ele>936.1999999999999</ele><time>2026-04-26T14:15:06.956Z</time></trkpt><trkpt lat="44.058350274942136" lon="10.215920015814808"><ele>938.8000000000001</ele><time>2026-04-26T14:15:07.956Z</time></trkpt><trkpt lat="44.058376786379725" lon="10.216043192717274"><ele>941.4000000000001</ele><time>2026-04-26T14:15:08.956Z</time></trkpt><trkpt lat="44.05843197444627" lon="10.216188855042974"><ele>944.0</ele><time>2026-04-26T14:15:09.956Z</time></trkpt><trkpt lat="44.05851271027948" lon="10.216311058519873"><ele>944.0</ele><time>2026-04-26T14:15:10.956Z</time></trkpt><trkpt lat="44.05856299719452" lon="10.216438897941641"><ele>944.0000000000001</ele><time>2026-04-26T14:15:11.956Z</time></trkpt><trkpt lat="44.058635252945734" lon="10.216555656242429"><ele>944.0000000000001</ele><time>2026-04-26T14:15:12.956Z</time></trkpt><trkpt lat="44.058699560179754" lon="10.216627440555492"><ele>944.0</ele><time>2026-04-26T14:15:13.956Z</time></trkpt><trkpt lat="44.05874508984643" lon="10.216728319458749"><ele>944.0</ele><time>2026-04-26T14:15:14.956Z</time></trkpt><trkpt lat="44.058813814254414" lon="10.216836353990677"><ele>942.0</ele><time>2026-04-26T14:15:15.956Z</time></trkpt><trkpt lat="44.05904113378201" lon="10.216712440899416"><ele>940.0</ele><time>2026-04-26T14:15:16.956Z</time></trkpt><trkpt lat="44.05916765375775" lon="10.21667329382113"><ele>938.0</ele><time>2026-04-26T14:15:17.956Z</time></trkpt><trkpt lat="44.05929180449944" lon="10.216638056100521"><ele>938.0000000000001</ele><time>2026-04-26T14:15:18.956Z</time></trkpt><trkpt lat="44.05940639757351" lon="10.216608954326555"><ele>938.0</ele><time>2026-04-26T14:15:19.956Z</time></trkpt><trkpt lat="44.05949726367247" lon="10.216593847088856"><ele>938.0</ele><time>2026-04-26T14:15:20.956Z</time></trkpt><trkpt lat="44.05957985416551" lon="10.216583030977771"><ele>938.0</ele><time>2026-04-26T14:15:21.956Z</time></trkpt><trkpt lat="44.05965603512725" lon="10.216595230839616"><ele>938.0000000000001</ele><time>2026-04-26T14:15:22.956Z</time></trkpt><trkpt lat="44.05972976507491" lon="10.216640637087425"><ele>938.0</ele><time>2026-04-26T14:15:23.956Z</time></trkpt><trkpt lat="44.059805436836136" lon="10.216716365132063"><ele>938.0</ele><time>2026-04-26T14:15:24.956Z</time></trkpt><trkpt lat="44.05987184311314" lon="10.216793774744513"><ele>938.0</ele><time>2026-04-26T14:15:25.956Z</time></trkpt><trkpt lat="44.0599299700889" lon="10.216892592725495"><ele>938.0</ele><time>2026-04-26T14:15:26.956Z</time></trkpt><trkpt lat="44.05999368866114" lon="10.21699248857423"><ele>938.0</ele><time>2026-04-26T14:15:27.956Z</time></trkpt><trkpt lat="44.06006178640677" lon="10.217096206493318"><ele>938.0</ele><time>2026-04-26T14:15:28.956Z</time></trkpt><trkpt lat="44.060132536262174" lon="10.217199566740137"><ele>937.0</ele><time>2026-04-26T14:15:29.956Z</time></trkpt><trkpt lat="44.06020475161319" lon="10.217291875123891"><ele>936.0</ele><time>2026-04-26T14:15:30.956Z</time></trkpt><trkpt lat="44.06029962344967" lon="10.217343384597092"><ele>935.0</ele><time>2026-04-26T14:15:31.956Z</time></trkpt><trkpt lat="44.060426314390455" lon="10.217312884557595"><ele>934.0</ele><time>2026-04-26T14:15:32.956Z</time></trkpt><trkpt lat="44.06054915289053" lon="10.21728803139528"><ele>934.0</ele><time>2026-04-26T14:15:33.956Z</time></trkpt><trkpt lat="44.06066598016577" lon="10.217262191980279"><ele>934.0</ele><time>2026-04-26T14:15:34.956Z</time></trkpt><trkpt lat="44.06078223346819" lon="10.217255261930449"><ele>934.0</ele><time>2026-04-26T14:15:35.956Z</time></trkpt><trkpt lat="44.06089946296569" lon="10.217244352751228"><ele>934.0</ele><time>2026-04-26T14:15:36.956Z</time></trkpt><trkpt lat="44.06101077888161" lon="10.217239849236247"><ele>933.0</ele><time>2026-04-26T14:15:37.956Z</time></trkpt><trkpt lat="44.06112102328028" lon="10.217228418898781"><ele>932.0000000000001</ele><time>2026-04-26T14:15:38.956Z</time></trkpt><trkpt lat="44.061233264892856" lon="10.217223312007706"><ele>931.0000000000001</ele><time>2026-04-26T14:15:39.956Z</time></trkpt><trkpt lat="44.06133692421285" lon="10.217200771311452"><ele>930.0</ele><time>2026-04-26T14:15:40.956Z</time></trkpt><trkpt lat="44.061428504034154" lon="10.217154504594589"><ele>929.0</ele><time>2026-04-26T14:15:41.956Z</time></trkpt><trkpt lat="44.061517089435085" lon="10.21707595602015"><ele>929.0</ele><time>2026-04-26T14:15:42.956Z</time></trkpt><trkpt lat="44.06160864492174" lon="10.216970457060658"><ele>929.0</ele><time>2026-04-26T14:15:43.956Z</time></trkpt><trkpt lat="44.061696936764925" lon="10.216865177521539"><ele>929.0</ele><time>2026-04-26T14:15:44.956Z</time></trkpt><trkpt lat="44.0617790922212" lon="10.216770739885781"><ele>929.0</ele><time>2026-04-26T14:15:45.956Z</time></trkpt><trkpt lat="44.06187151866556" lon="10.216692461640044"><ele>933.0</ele><time>2026-04-26T14:15:46.956Z</time></trkpt><trkpt lat="44.061968680469384" lon="10.216632782855749"><ele>937.0000000000001</ele><time>2026-04-26T14:15:47.956Z</time></trkpt><trkpt lat="44.06207066618553" lon="10.216589916378119"><ele>941.0000000000001</ele><time>2026-04-26T14:15:48.956Z</time></trkpt><trkpt lat="44.062175850257255" lon="10.216567257111507"><ele>945.0</ele><time>2026-04-26T14:15:49.956Z</time></trkpt><trkpt lat="44.06227487135165" lon="10.216577493477228"><ele>949.0</ele><time>2026-04-26T14:15:50.956Z</time></trkpt><trkpt lat="44.06236902813019" lon="10.216577092737102"><ele>952.0</ele><time>2026-04-26T14:15:51.956Z</time></trkpt><trkpt lat="44.06246297140433" lon="10.216573583788971"><ele>955.0</ele><time>2026-04-26T14:15:52.956Z</time></trkpt><trkpt lat="44.06256705359535" lon="10.21658853385094"><ele>958.0</ele><time>2026-04-26T14:15:53.956Z</time></trkpt><trkpt lat="44.06268367343617" lon="10.216712247998181"><ele>961.0</ele><time>2026-04-26T14:15:54.955Z</time></trkpt><trkpt lat="44.06274484297491" lon="10.216969633325558"><ele>961.0</ele><time>2026-04-26T14:15:55.955Z</time></trkpt><trkpt lat="44.062776048271495" lon="10.217153356758086"><ele>961.0</ele><time>2026-04-26T14:15:56.955Z</time></trkpt><trkpt lat="44.06280597735379" lon="10.217306222648007"><ele>961.0</ele><time>2026-04-26T14:15:57.955Z</time></trkpt><trkpt lat="44.062839932283026" lon="10.217442287790549"><ele>961.0</ele><time>2026-04-26T14:15:58.955Z</time></trkpt><trkpt lat="44.06287870435147" lon="10.217576931705619"><ele>969.75</ele><time>2026-04-26T14:15:59.955Z</time></trkpt><trkpt lat="44.06292551992521" lon="10.217710694701307"><ele>978.5</ele><time>2026-04-26T14:16:00.955Z</time></trkpt><trkpt lat="44.06297046495112" lon="10.217860852977658"><ele>987.25</ele><time>2026-04-26T14:16:01.955Z</time></trkpt><trkpt lat="44.063008199382566" lon="10.218013252640999"><ele>996.0</ele><time>2026-04-26T14:16:02.955Z</time></trkpt><trkpt lat="44.06276225706061" lon="10.218151509337137"><ele>995.0</ele><time>2026-04-26T14:16:03.955Z</time></trkpt><trkpt lat="44.062606813676766" lon="10.218284496894"><ele>994.0</ele><time>2026-04-26T14:16:04.955Z</time></trkpt><trkpt lat="44.062515392921355" lon="10.218403344400707"><ele>993.0</ele><time>2026-04-26T14:16:05.955Z</time></trkpt><trkpt lat="44.062452311244655" lon="10.218559440107525"><ele>992.0</ele><time>2026-04-26T14:16:06.955Z</time></trkpt><trkpt lat="44.06239926213447" lon="10.218718152423316"><ele>1007.0</ele><time>2026-04-26T14:16:07.955Z</time></trkpt><trkpt lat="44.06234508755112" lon="10.21886852529226"><ele>1022.0</ele><time>2026-04-26T14:16:08.955Z</time></trkpt><trkpt lat="44.06228587697101" lon="10.219017196718747"><ele>1037.0</ele><time>2026-04-26T14:16:09.955Z</time></trkpt><trkpt lat="44.06225620623376" lon="10.21920281373168"><ele>1052.0</ele><time>2026-04-26T14:16:10.955Z</time></trkpt><trkpt lat="44.06228525873587" lon="10.219422033603092"><ele>1057.0</ele><time>2026-04-26T14:16:11.955Z</time></trkpt><trkpt lat="44.06229520436854" lon="10.219642031759362"><ele>1062.0</ele><time>2026-04-26T14:16:12.955Z</time></trkpt><trkpt lat="44.062314464684555" lon="10.2198212981662"><ele>1067.0</ele><time>2026-04-26T14:16:13.955Z</time></trkpt><trkpt lat="44.0623220095932" lon="10.219990233924324"><ele>1072.0</ele><time>2026-04-26T14:16:14.955Z</time></trkpt><trkpt lat="44.06232501156162" lon="10.22015510375482"><ele>1072.0</ele><time>2026-04-26T14:16:15.955Z</time></trkpt><trkpt lat="44.062326790020364" lon="10.220320848120412"><ele>1072.0</ele><time>2026-04-26T14:16:16.955Z</time></trkpt><trkpt lat="44.06232869358904" lon="10.22048411863415"><ele>1072.0</ele><time>2026-04-26T14:16:17.955Z</time></trkpt><trkpt lat="44.06233536151748" lon="10.220643339206555"><ele>1072.0</ele><time>2026-04-26T14:16:18.955Z</time></trkpt><trkpt lat="44.062358202499624" lon="10.220789844707637"><ele>1070.4</ele><time>2026-04-26T14:16:19.955Z</time></trkpt><trkpt lat="44.062397552092676" lon="10.22091760451823"><ele>1068.8000000000002</ele><time>2026-04-26T14:16:20.955Z</time></trkpt><trkpt lat="44.06243431098664" lon="10.221026759118764"><ele>1067.2</ele><time>2026-04-26T14:16:21.955Z</time></trkpt><trkpt lat="44.062479181377924" lon="10.22113337023572"><ele>1065.6000000000001</ele><time>2026-04-26T14:16:22.955Z</time></trkpt><trkpt lat="44.062503988160785" lon="10.221222265945626"><ele>1064.0</ele><time>2026-04-26T14:16:23.955Z</time></trkpt><trkpt lat="44.0625347297496" lon="10.221372794448014"><ele>1055.0</ele><time>2026-04-26T14:16:25.955Z</time></trkpt><trkpt lat="44.062540392301145" lon="10.221500972046341"><ele>1046.0</ele><time>2026-04-26T14:16:27.955Z</time></trkpt><trkpt lat="44.06259389482039" lon="10.221564829639306"><ele>1037.0</ele><time>2026-04-26T14:16:30.955Z</time></trkpt><trkpt lat="44.062543611944896" lon="10.221665240903329"><ele>1028.0</ele><time>2026-04-26T14:25:47.953Z</time></trkpt><trkpt lat="44.06253065046949" lon="10.221761058450202"><ele>1019.0000000000001</ele><time>2026-04-26T14:25:49.953Z</time></trkpt><trkpt lat="44.062564619542286" lon="10.221912107892923"><ele>1010.0</ele><time>2026-04-26T14:25:51.953Z</time></trkpt><trkpt lat="44.062613500551635" lon="10.221990177488783"><ele>1010.0000000000001</ele><time>2026-04-26T14:25:52.953Z</time></trkpt><trkpt lat="44.06266316131844" lon="10.222057300956717"><ele>1010.0</ele><time>2026-04-26T14:25:53.953Z</time></trkpt><trkpt lat="44.06273188927089" lon="10.22210948952313"><ele>1010.0</ele><time>2026-04-26T14:25:54.953Z</time></trkpt><trkpt lat="44.06281181580835" lon="10.2221355295792"><ele>1010.0</ele><time>2026-04-26T14:25:55.953Z</time></trkpt><trkpt lat="44.06289648120627" lon="10.222143232540551"><ele>1010.0000000000001</ele><time>2026-04-26T14:25:56.953Z</time></trkpt><trkpt lat="44.062974633403364" lon="10.222119910200703"><ele>1010.0</ele><time>2026-04-26T14:25:57.953Z</time></trkpt><trkpt lat="44.06304580510995" lon="10.22207472469925"><ele>1010.0000000000001</ele><time>2026-04-26T14:25:58.953Z</time></trkpt><trkpt lat="44.0631163337497" lon="10.222004765650377"><ele>1010.0</ele><time>2026-04-26T14:25:59.953Z</time></trkpt><trkpt lat="44.06319039727068" lon="10.221917765628492"><ele>1010.0</ele><time>2026-04-26T14:26:00.953Z</time></trkpt><trkpt lat="44.0632594971613" lon="10.221834845819432"><ele>1010.0</ele><time>2026-04-26T14:26:01.953Z</time></trkpt><trkpt lat="44.06333114573319" lon="10.2217669248659"><ele>1010.0000000000001</ele><time>2026-04-26T14:26:02.953Z</time></trkpt><trkpt lat="44.06340608472367" lon="10.22172452836905"><ele>1010.0</ele><time>2026-04-26T14:26:03.953Z</time></trkpt><trkpt lat="44.06349362143924" lon="10.221732995068542"><ele>1006.8</ele><time>2026-04-26T14:26:04.953Z</time></trkpt><trkpt lat="44.06358238562994" lon="10.221764963148388"><ele>1003.6</ele><time>2026-04-26T14:26:05.953Z</time></trkpt><trkpt lat="44.06366692661559" lon="10.22180950137913"><ele>1000.4000000000001</ele><time>2026-04-26T14:26:06.953Z</time></trkpt><trkpt lat="44.06373560756365" lon="10.221899913910098"><ele>997.2</ele><time>2026-04-26T14:26:07.954Z</time></trkpt><trkpt lat="44.06378495616497" lon="10.222001078986798"><ele>994.0</ele><time>2026-04-26T14:26:08.954Z</time></trkpt><trkpt lat="44.063826189734854" lon="10.222113556965972"><ele>994.0</ele><time>2026-04-26T14:26:09.954Z</time></trkpt><trkpt lat="44.063869696093185" lon="10.222236577609403"><ele>994.0000000000001</ele><time>2026-04-26T14:26:10.954Z</time></trkpt><trkpt lat="44.063917567698304" lon="10.222362177244653"><ele>994.0000000000001</ele><time>2026-04-26T14:26:11.954Z</time></trkpt><trkpt lat="44.06397331063182" lon="10.222482872089019"><ele>994.0</ele><time>2026-04-26T14:26:12.954Z</time></trkpt><trkpt lat="44.06402993688419" lon="10.222600661125927"><ele>994.0</ele><time>2026-04-26T14:26:13.954Z</time></trkpt><trkpt lat="44.0640865241372" lon="10.222722753879227"><ele>995.0</ele><time>2026-04-26T14:26:14.954Z</time></trkpt><trkpt lat="44.064154038835106" lon="10.222846666592877"><ele>996.0000000000001</ele><time>2026-04-26T14:26:15.954Z</time></trkpt><trkpt lat="44.06421357845937" lon="10.222973425646073"><ele>997.0000000000001</ele><time>2026-04-26T14:26:16.954Z</time></trkpt><trkpt lat="44.06428370353098" lon="10.223092052534964"><ele>998.0</ele><time>2026-04-26T14:26:17.954Z</time></trkpt><trkpt lat="44.06434059241764" lon="10.22321573179234"><ele>999.0</ele><time>2026-04-26T14:26:18.954Z</time></trkpt><trkpt lat="44.064392050481885" lon="10.223330082627916"><ele>1008.1666666666666</ele><time>2026-04-26T14:26:19.954Z</time></trkpt><trkpt lat="44.06444204960802" lon="10.223439456756898"><ele>1017.3333333333333</ele><time>2026-04-26T14:26:20.954Z</time></trkpt><trkpt lat="44.06448582495743" lon="10.22354874959545"><ele>1026.5</ele><time>2026-04-26T14:26:21.954Z</time></trkpt><trkpt lat="44.064519682558625" lon="10.223658379800407"><ele>1035.6666666666665</ele><time>2026-04-26T14:26:22.954Z</time></trkpt><trkpt lat="44.064545760915436" lon="10.223771165865855"><ele>1044.8333333333333</ele><time>2026-04-26T14:26:23.954Z</time></trkpt><trkpt lat="44.06456843631949" lon="10.223887999611756"><ele>1054.0</ele><time>2026-04-26T14:26:24.952Z</time></trkpt><trkpt lat="44.064586350503205" lon="10.224010635790824"><ele>1061.0</ele><time>2026-04-26T14:26:25.952Z</time></trkpt><trkpt lat="44.06460482209744" lon="10.224130447556595"><ele>1068.0</ele><time>2026-04-26T14:26:26.952Z</time></trkpt><trkpt lat="44.06463437032073" lon="10.224248331400412"><ele>1075.0</ele><time>2026-04-26T14:26:27.952Z</time></trkpt><trkpt lat="44.06466922800547" lon="10.224358729512188"><ele>1082.0</ele><time>2026-04-26T14:26:28.952Z</time></trkpt><trkpt lat="44.06471750859324" lon="10.224468344291957"><ele>1089.0</ele><time>2026-04-26T14:26:29.952Z</time></trkpt><trkpt lat="44.06476544442624" lon="10.224582135546113"><ele>1089.0</ele><time>2026-04-26T14:26:30.952Z</time></trkpt><trkpt lat="44.06483084061346" lon="10.224709339902809"><ele>1089.0</ele><time>2026-04-26T14:26:31.952Z</time></trkpt><trkpt lat="44.06489574017712" lon="10.22481263145185"><ele>1089.0</ele><time>2026-04-26T14:26:32.952Z</time></trkpt><trkpt lat="44.06502885524757" lon="10.22481293612298"><ele>1089.0</ele><time>2026-04-26T14:26:33.952Z</time></trkpt><trkpt lat="44.065180333561024" lon="10.224738289284417"><ele>1084.3333333333333</ele><time>2026-04-26T14:26:34.952Z</time></trkpt><trkpt lat="44.06528684419381" lon="10.224747997132797"><ele>1079.6666666666667</ele><time>2026-04-26T14:26:35.952Z</time></trkpt><trkpt lat="44.06536873567055" lon="10.224766804721028"><ele>1075.0</ele><time>2026-04-26T14:26:36.951Z</time></trkpt><trkpt lat="44.06544449797193" lon="10.2247983443017"><ele>1070.3333333333335</ele><time>2026-04-26T14:26:37.952Z</time></trkpt><trkpt lat="44.0655053143973" lon="10.224855513764014"><ele>1065.6666666666667</ele><time>2026-04-26T14:26:38.952Z</time></trkpt><trkpt lat="44.06555176884501" lon="10.224923226525096"><ele>1061.0</ele><time>2026-04-26T14:26:39.952Z</time></trkpt><trkpt lat="44.06558151092521" lon="10.225004336734088"><ele>1061.0</ele><time>2026-04-26T14:26:40.952Z</time></trkpt><trkpt lat="44.065599869929045" lon="10.225091529643034"><ele>1061.0</ele><time>2026-04-26T14:26:41.952Z</time></trkpt><trkpt lat="44.065609846440076" lon="10.225202648605034"><ele>1061.0</ele><time>2026-04-26T14:26:42.952Z</time></trkpt><trkpt lat="44.06560196757792" lon="10.225317540927586"><ele>1061.0</ele><time>2026-04-26T14:26:43.952Z</time></trkpt><trkpt lat="44.06559444008328" lon="10.225435480776214"><ele>1061.0</ele><time>2026-04-26T14:26:44.952Z</time></trkpt><trkpt lat="44.065587306118665" lon="10.225547555856815"><ele>1061.0</ele><time>2026-04-26T14:26:45.952Z</time></trkpt><trkpt lat="44.06557902458438" lon="10.22566155647709"><ele>1071.3999999999999</ele><time>2026-04-26T14:26:46.952Z</time></trkpt><trkpt lat="44.06557103021779" lon="10.225766528064986"><ele>1081.8</ele><time>2026-04-26T14:26:47.952Z</time></trkpt><trkpt lat="44.06555646420342" lon="10.22590751873839"><ele>1092.1999999999998</ele><time>2026-04-26T14:26:48.952Z</time></trkpt><trkpt lat="44.065537569510376" lon="10.226088128393975"><ele>1102.6</ele><time>2026-04-26T14:26:49.952Z</time></trkpt><trkpt lat="44.065525682863594" lon="10.2262246460148"><ele>1113.0</ele><time>2026-04-26T14:26:50.952Z</time></trkpt><trkpt lat="44.065630940780075" lon="10.226272807250679"><ele>1075.0</ele><time>2026-04-26T14:26:52.092Z</time></trkpt><trkpt lat="44.0642173629259" lon="10.232457396944094"><ele>1075.0</ele><time>2026-04-26T14:27:26.952Z</time></trkpt><trkpt lat="44.0642198970894" lon="10.232720639969445"><ele>1075.0</ele><time>2026-04-26T14:27:27.952Z</time></trkpt><trkpt lat="44.0641788953219" lon="10.233045529663501"><ele>1075.0</ele><time>2026-04-26T14:27:28.952Z</time></trkpt><trkpt lat="44.06416428089565" lon="10.233226662735113"><ele>1075.0</ele><time>2026-04-26T14:27:29.952Z</time></trkpt><trkpt lat="44.06417469344953" lon="10.23332453887822"><ele>1075.0</ele><time>2026-04-26T14:27:30.952Z</time></trkpt><trkpt lat="44.06410475144256" lon="10.233287167962647"><ele>1075.0</ele><time>2026-04-26T14:31:33.951Z</time></trkpt><trkpt lat="44.064094077051" lon="10.233184603272859"><ele>1075.0</ele><time>2026-04-26T14:31:37.951Z</time></trkpt><trkpt lat="44.06411725486889" lon="10.233067190388303"><ele>1075.0</ele><time>2026-04-26T14:31:39.951Z</time></trkpt><trkpt lat="44.06411713116112" lon="10.232942970876607"><ele>1075.0</ele><time>2026-04-26T14:31:41.951Z</time></trkpt><trkpt lat="44.06412009272856" lon="10.23280862495766"><ele>1075.0</ele><time>2026-04-26T14:31:43.951Z</time></trkpt><trkpt lat="44.06413032856229" lon="10.23266202973446"><ele>1075.0</ele><time>2026-04-26T14:31:45.951Z</time></trkpt><trkpt lat="44.06412819574575" lon="10.232541289735794"><ele>1075.0</ele><time>2026-04-26T14:31:47.951Z</time></trkpt><trkpt lat="44.06560154009672" lon="10.22540239638798"><ele>1070.3333333333333</ele><time>2026-04-26T14:32:19.951Z</time></trkpt><trkpt lat="44.06565834199779" lon="10.225156418633807"><ele>1065.6666666666667</ele><time>2026-04-26T14:32:20.951Z</time></trkpt><trkpt lat="44.065831701518384" lon="10.22526024666633"><ele>1061.0</ele><time>2026-04-26T14:32:26.951Z</time></trkpt><trkpt lat="44.065908247992795" lon="10.225239788199477"><ele>1061.0</ele><time>2026-04-26T14:41:04.949Z</time></trkpt><trkpt lat="44.06585702656698" lon="10.225179700867129"><ele>1061.0</ele><time>2026-04-26T14:41:07.949Z</time></trkpt><trkpt lat="44.06578915782713" lon="10.225142342063315"><ele>1061.0</ele><time>2026-04-26T14:41:09.948Z</time></trkpt><trkpt lat="44.06571698079204" lon="10.225091832863745"><ele>1061.0</ele><time>2026-04-26T14:41:12.948Z</time></trkpt><trkpt lat="44.065647889668774" lon="10.22510091015567"><ele>1061.0</ele><time>2026-04-26T14:41:32.948Z</time></trkpt><trkpt lat="44.06557877262853" lon="10.225136556894565"><ele>1061.0</ele><time>2026-04-26T14:41:37.948Z</time></trkpt><trkpt lat="44.06551460300434" lon="10.22524760585297"><ele>1061.0</ele><time>2026-04-26T14:41:41.948Z</time></trkpt><trkpt lat="44.06547515238459" lon="10.225330129612384"><ele>1061.0</ele><time>2026-04-26T14:41:43.948Z</time></trkpt><trkpt lat="44.065437194257726" lon="10.225404314516235"><ele>1061.0</ele><time>2026-04-26T14:41:45.948Z</time></trkpt><trkpt lat="44.065391719619726" lon="10.225479745001806"><ele>1061.0</ele><time>2026-04-26T14:41:47.948Z</time></trkpt><trkpt lat="44.065326005838294" lon="10.225564881817826"><ele>1061.0</ele><time>2026-04-26T14:41:51.09Z</time></trkpt><trkpt lat="44.0652784984724" lon="10.225638634554688"><ele>1061.0</ele><time>2026-04-26T14:41:53.087Z</time></trkpt><trkpt lat="44.064229259271265" lon="10.23266858495679"><ele>1048.0</ele><time>2026-04-26T14:42:24.948Z</time></trkpt><trkpt lat="44.064024622550555" lon="10.233285336660526"><ele>1048.0</ele><time>2026-04-26T14:42:25.948Z</time></trkpt><trkpt lat="44.06388318237021" lon="10.233527987324784"><ele>1048.0</ele><time>2026-04-26T14:42:26.948Z</time></trkpt><trkpt lat="44.06378972538911" lon="10.233616755891065"><ele>1048.0</ele><time>2026-04-26T14:42:27.948Z</time></trkpt><trkpt lat="44.06367005314947" lon="10.233666177753808"><ele>1048.0</ele><time>2026-04-26T14:42:28.948Z</time></trkpt><trkpt lat="44.063534886047634" lon="10.233682381572049"><ele>1048.0</ele><time>2026-04-26T14:42:29.948Z</time></trkpt><trkpt lat="44.06340277548983" lon="10.23368226131105"><ele>1048.0</ele><time>2026-04-26T14:42:30.948Z</time></trkpt><trkpt lat="44.063298522127624" lon="10.2336460487518"><ele>1048.0</ele><time>2026-04-26T14:42:31.948Z</time></trkpt><trkpt lat="44.06319393093668" lon="10.233583659241477"><ele>1045.6</ele><time>2026-04-26T14:42:32.948Z</time></trkpt><trkpt lat="44.06309144204161" lon="10.233530216300414"><ele>1043.1999999999998</ele><time>2026-04-26T14:42:33.948Z</time></trkpt><trkpt lat="44.06299109376414" lon="10.23347082831478"><ele>1040.8</ele><time>2026-04-26T14:42:34.948Z</time></trkpt><trkpt lat="44.06289885883142" lon="10.233412867300398"><ele>1038.3999999999999</ele><time>2026-04-26T14:42:35.948Z</time></trkpt><trkpt lat="44.06280479143179" lon="10.233356442825313"><ele>1036.0</ele><time>2026-04-26T14:42:36.948Z</time></trkpt><trkpt lat="44.062720984877124" lon="10.233316412257949"><ele>1036.0</ele><time>2026-04-26T14:42:37.948Z</time></trkpt><trkpt lat="44.06264498768594" lon="10.233299621859151"><ele>1036.0</ele><time>2026-04-26T14:42:38.948Z</time></trkpt><trkpt lat="44.06258305433783" lon="10.233320279733348"><ele>1036.0</ele><time>2026-04-26T14:42:39.948Z</time></trkpt><trkpt lat="44.06249793388023" lon="10.233377500623803"><ele>1036.0</ele><time>2026-04-26T14:42:41.948Z</time></trkpt><trkpt lat="44.062386786510956" lon="10.233447874446185"><ele>1036.0</ele><time>2026-04-26T14:42:43.948Z</time></trkpt><trkpt lat="44.06231813479678" lon="10.233516687816227"><ele>1036.0</ele><time>2026-04-26T14:42:44.948Z</time></trkpt><trkpt lat="44.06225192886137" lon="10.233603481208146"><ele>1037.5</ele><time>2026-04-26T14:42:45.948Z</time></trkpt><trkpt lat="44.06219709869165" lon="10.233726930612145"><ele>1039.0</ele><time>2026-04-26T14:42:46.948Z</time></trkpt><trkpt lat="44.06215063408439" lon="10.233864074677225"><ele>1040.5</ele><time>2026-04-26T14:42:47.948Z</time></trkpt><trkpt lat="44.06211633493346" lon="10.234028580939816"><ele>1042.0</ele><time>2026-04-26T14:42:48.949Z</time></trkpt><trkpt lat="44.062090181687765" lon="10.234212074895247"><ele>1042.0</ele><time>2026-04-26T14:42:49.949Z</time></trkpt><trkpt lat="44.06206345811078" lon="10.234409349456458"><ele>1042.0</ele><time>2026-04-26T14:42:50.949Z</time></trkpt><trkpt lat="44.06200480539656" lon="10.23461696170041"><ele>1042.0</ele><time>2026-04-26T14:42:51.949Z</time></trkpt><trkpt lat="44.06191991468769" lon="10.234828018431827"><ele>1038.3333333333333</ele><time>2026-04-26T14:42:52.949Z</time></trkpt><trkpt lat="44.06181244331257" lon="10.235040221162015"><ele>1034.6666666666667</ele><time>2026-04-26T14:42:53.949Z</time></trkpt><trkpt lat="44.06169259500686" lon="10.235244083439827"><ele>1031.0</ele><time>2026-04-26T14:42:54.949Z</time></trkpt><trkpt lat="44.0615774106916" lon="10.235451714817218"><ele>1031.0</ele><time>2026-04-26T14:42:55.949Z</time></trkpt><trkpt lat="44.061462992298786" lon="10.235667066904805"><ele>1031.0</ele><time>2026-04-26T14:42:56.949Z</time></trkpt><trkpt lat="44.06135803294064" lon="10.2358782657651"><ele>1031.0</ele><time>2026-04-26T14:42:57.949Z</time></trkpt><trkpt lat="44.06124346052166" lon="10.236085702782136"><ele>1031.0</ele><time>2026-04-26T14:42:58.949Z</time></trkpt><trkpt lat="44.061133757492264" lon="10.236289537269549"><ele>1031.0</ele><time>2026-04-26T14:42:59.949Z</time></trkpt><trkpt lat="44.061023774608955" lon="10.236490008606104"><ele>1031.0</ele><time>2026-04-26T14:43:00.949Z</time></trkpt><trkpt lat="44.06092666428657" lon="10.236693328533837"><ele>1027.0</ele><time>2026-04-26T14:43:01.949Z</time></trkpt><trkpt lat="44.060824337512784" lon="10.236871252668058"><ele>1023.0</ele><time>2026-04-26T14:43:02.949Z</time></trkpt><trkpt lat="44.06071320594277" lon="10.237038431572296"><ele>1019.0</ele><time>2026-04-26T14:43:03.949Z</time></trkpt><trkpt lat="44.060593156321396" lon="10.237189936184702"><ele>1013.6666666666667</ele><time>2026-04-26T14:43:04.949Z</time></trkpt><trkpt lat="44.06048923378866" lon="10.237346698847157"><ele>1008.3333333333333</ele><time>2026-04-26T14:43:05.949Z</time></trkpt><trkpt lat="44.060403010796875" lon="10.23751365723787"><ele>1003.0</ele><time>2026-04-26T14:43:06.949Z</time></trkpt><trkpt lat="44.060320646177296" lon="10.237702952020786"><ele>1003.0</ele><time>2026-04-26T14:43:07.949Z</time></trkpt><trkpt lat="44.060255795624386" lon="10.237919730887723"><ele>1003.0</ele><time>2026-04-26T14:43:08.949Z</time></trkpt><trkpt lat="44.060202541992574" lon="10.238132687299712"><ele>1003.0</ele><time>2026-04-26T14:43:09.949Z</time></trkpt><trkpt lat="44.06015104534983" lon="10.23834236918273"><ele>1000.3333333333333</ele><time>2026-04-26T14:43:10.949Z</time></trkpt><trkpt lat="44.06010549772992" lon="10.238549572267262"><ele>997.6666666666667</ele><time>2026-04-26T14:43:11.949Z</time></trkpt><trkpt lat="44.06005186030954" lon="10.23874792207695"><ele>995.0</ele><time>2026-04-26T14:43:12.947Z</time></trkpt><trkpt lat="44.059986503696464" lon="10.23893087372586"><ele>994.25</ele><time>2026-04-26T14:43:13.947Z</time></trkpt><trkpt lat="44.059906413552554" lon="10.239089304223159"><ele>993.5</ele><time>2026-04-26T14:43:14.947Z</time></trkpt><trkpt lat="44.05981592956741" lon="10.239227726480475"><ele>992.75</ele><time>2026-04-26T14:43:15.946Z</time></trkpt><trkpt lat="44.05972938371106" lon="10.23936272792132"><ele>992.0</ele><time>2026-04-26T14:43:16.946Z</time></trkpt><trkpt lat="44.059674985318146" lon="10.239518659657467"><ele>992.0</ele><time>2026-04-26T14:43:17.946Z</time></trkpt><trkpt lat="44.05965933102678" lon="10.2397106851961"><ele>992.0</ele><time>2026-04-26T14:43:18.946Z</time></trkpt><trkpt lat="44.05966648273222" lon="10.23990815181513"><ele>992.0</ele><time>2026-04-26T14:43:19.946Z</time></trkpt><trkpt lat="44.05967381687282" lon="10.240126271251976"><ele>992.0</ele><time>2026-04-26T14:43:20.946Z</time></trkpt><trkpt lat="44.05967713317052" lon="10.240324634347347"><ele>987.75</ele><time>2026-04-26T14:43:21.946Z</time></trkpt><trkpt lat="44.059652499855645" lon="10.240523093750305"><ele>983.5</ele><time>2026-04-26T14:43:22.946Z</time></trkpt><trkpt lat="44.05958805887175" lon="10.240685722497133"><ele>979.25</ele><time>2026-04-26T14:43:23.946Z</time></trkpt><trkpt lat="44.05949634327882" lon="10.240842226005896"><ele>975.0</ele><time>2026-04-26T14:43:24.946Z</time></trkpt><trkpt lat="44.05938908394458" lon="10.240973149394007"><ele>972.25</ele><time>2026-04-26T14:43:25.946Z</time></trkpt><trkpt lat="44.05927668157324" lon="10.241093011461553"><ele>969.5</ele><time>2026-04-26T14:43:26.946Z</time></trkpt><trkpt lat="44.05918712735491" lon="10.241223748084431"><ele>966.75</ele><time>2026-04-26T14:43:27.946Z</time></trkpt><trkpt lat="44.059143536635624" lon="10.241385042140694"><ele>964.0</ele><time>2026-04-26T14:43:28.946Z</time></trkpt><trkpt lat="44.05912855402733" lon="10.241568237657619"><ele>962.6666666666666</ele><time>2026-04-26T14:43:29.946Z</time></trkpt><trkpt lat="44.05913423866251" lon="10.241779839910924"><ele>961.3333333333333</ele><time>2026-04-26T14:43:30.946Z</time></trkpt><trkpt lat="44.05915564542003" lon="10.241991402960954"><ele>960.0</ele><time>2026-04-26T14:43:31.946Z</time></trkpt><trkpt lat="44.05918579206433" lon="10.242228302144193"><ele>958.6666666666667</ele><time>2026-04-26T14:43:32.946Z</time></trkpt><trkpt lat="44.05919885141725" lon="10.24246000843607"><ele>957.3333333333334</ele><time>2026-04-26T14:43:33.946Z</time></trkpt><trkpt lat="44.059200580176594" lon="10.242685107157675"><ele>956.0</ele><time>2026-04-26T14:43:34.946Z</time></trkpt><trkpt lat="44.05919040886094" lon="10.242911225176156"><ele>955.3333333333334</ele><time>2026-04-26T14:43:35.946Z</time></trkpt><trkpt lat="44.059177384505254" lon="10.243142051784659"><ele>954.6666666666667</ele><time>2026-04-26T14:43:36.946Z</time></trkpt><trkpt lat="44.05916527475212" lon="10.243377980353578"><ele>954.0</ele><time>2026-04-26T14:43:37.946Z</time></trkpt><trkpt lat="44.059147522438735" lon="10.243611886306939"><ele>954.0</ele><time>2026-04-26T14:43:38.946Z</time></trkpt><trkpt lat="44.05913413209484" lon="10.243844044993741"><ele>954.0</ele><time>2026-04-26T14:43:39.946Z</time></trkpt><trkpt lat="44.05912513491994" lon="10.244057739200398"><ele>954.0</ele><time>2026-04-26T14:43:40.946Z</time></trkpt><trkpt lat="44.05911906199151" lon="10.244260647587268"><ele>952.25</ele><time>2026-04-26T14:43:41.946Z</time></trkpt><trkpt lat="44.05911679811589" lon="10.244450705758304"><ele>950.5</ele><time>2026-04-26T14:43:42.946Z</time></trkpt><trkpt lat="44.05913091871597" lon="10.244634159056455"><ele>948.75</ele><time>2026-04-26T14:43:43.946Z</time></trkpt><trkpt lat="44.059154428256534" lon="10.244817547545148"><ele>947.0</ele><time>2026-04-26T14:43:44.946Z</time></trkpt><trkpt lat="44.0591946830096" lon="10.245003152559436"><ele>945.6666666666667</ele><time>2026-04-26T14:43:45.946Z</time></trkpt><trkpt lat="44.05926414375965" lon="10.245183694132463"><ele>944.3333333333333</ele><time>2026-04-26T14:43:46.946Z</time></trkpt><trkpt lat="44.059351287287726" lon="10.245357430165905"><ele>943.0</ele><time>2026-04-26T14:43:47.946Z</time></trkpt><trkpt lat="44.05945503043816" lon="10.245516485340902"><ele>941.0</ele><time>2026-04-26T14:43:48.946Z</time></trkpt><trkpt lat="44.05956509411326" lon="10.245666149485775"><ele>939.0</ele><time>2026-04-26T14:43:49.946Z</time></trkpt><trkpt lat="44.059688063191594" lon="10.24580859529356"><ele>937.0</ele><time>2026-04-26T14:43:50.946Z</time></trkpt><trkpt lat="44.05980318215579" lon="10.245964492165925"><ele>937.0</ele><time>2026-04-26T14:43:51.946Z</time></trkpt><trkpt lat="44.05991353879567" lon="10.246120569551369"><ele>937.0</ele><time>2026-04-26T14:43:52.946Z</time></trkpt><trkpt lat="44.06002584370695" lon="10.246275432162944"><ele>937.0</ele><time>2026-04-26T14:43:53.946Z</time></trkpt><trkpt lat="44.06014421174044" lon="10.24643719996651"><ele>953.0</ele><time>2026-04-26T14:43:54.946Z</time></trkpt><trkpt lat="44.060267461858665" lon="10.246610875102277"><ele>969.0</ele><time>2026-04-26T14:43:55.946Z</time></trkpt><trkpt lat="44.060383690524844" lon="10.2467825457871"><ele>985.0</ele><time>2026-04-26T14:43:56.946Z</time></trkpt><trkpt lat="44.06057220533029" lon="10.246893813498291"><ele>970.0</ele><time>2026-04-26T14:43:58.086Z</time></trkpt><trkpt lat="44.06346013395471" lon="10.248813091617922"><ele>970.0</ele><time>2026-04-26T14:44:13.946Z</time></trkpt><trkpt lat="44.06378683011322" lon="10.248663542497644"><ele>970.0</ele><time>2026-04-26T14:44:17.946Z</time></trkpt><trkpt lat="44.06387922945744" lon="10.248651707378873"><ele>970.0</ele><time>2026-04-26T14:44:18.946Z</time></trkpt><trkpt lat="44.063984609734156" lon="10.248676088485954"><ele>964.5</ele><time>2026-04-26T14:44:19.946Z</time></trkpt><trkpt lat="44.064113827152575" lon="10.248768406832955"><ele>959.0</ele><time>2026-04-26T14:44:20.946Z</time></trkpt><trkpt lat="44.064234627538454" lon="10.248947099417691"><ele>953.5</ele><time>2026-04-26T14:44:21.946Z</time></trkpt><trkpt lat="44.064342902491155" lon="10.249032065690741"><ele>948.0</ele><time>2026-04-26T14:44:22.946Z</time></trkpt><trkpt lat="44.064468713865644" lon="10.249084564287449"><ele>940.5</ele><time>2026-04-26T14:44:23.946Z</time></trkpt><trkpt lat="44.064602004542735" lon="10.249085174040047"><ele>933.0</ele><time>2026-04-26T14:44:24.946Z</time></trkpt><trkpt lat="44.0647382668797" lon="10.249047280720562"><ele>925.5</ele><time>2026-04-26T14:44:25.946Z</time></trkpt><trkpt lat="44.06486689176115" lon="10.249010437656501"><ele>918.0</ele><time>2026-04-26T14:44:26.946Z</time></trkpt><trkpt lat="44.06501152477687" lon="10.248967573084348"><ele>925.3333333333333</ele><time>2026-04-26T14:44:27.946Z</time></trkpt><trkpt lat="44.065152211116434" lon="10.248902786249618"><ele>932.6666666666666</ele><time>2026-04-26T14:44:28.946Z</time></trkpt><trkpt lat="44.0653009269881" lon="10.248835359061909"><ele>940.0</ele><time>2026-04-26T14:44:29.946Z</time></trkpt><trkpt lat="44.065447264851386" lon="10.24875928012106"><ele>940.0</ele><time>2026-04-26T14:44:30.946Z</time></trkpt><trkpt lat="44.065591915392" lon="10.248687137733496"><ele>940.0</ele><time>2026-04-26T14:44:31.946Z</time></trkpt><trkpt lat="44.06573399399595" lon="10.248611879591856"><ele>940.0</ele><time>2026-04-26T14:44:32.946Z</time></trkpt><trkpt lat="44.06586465301125" lon="10.248561477263737"><ele>940.0</ele><time>2026-04-26T14:44:33.946Z</time></trkpt><trkpt lat="44.065978281941746" lon="10.248513117199979"><ele>937.2</ele><time>2026-04-26T14:44:34.946Z</time></trkpt><trkpt lat="44.06606872551005" lon="10.248476727039227"><ele>934.4</ele><time>2026-04-26T14:44:35.946Z</time></trkpt><trkpt lat="44.066148147918575" lon="10.248446385474429"><ele>931.5999999999999</ele><time>2026-04-26T14:44:36.946Z</time></trkpt><trkpt lat="44.066260469927784" lon="10.248497212868726"><ele>928.8</ele><time>2026-04-26T14:44:38.946Z</time></trkpt><trkpt lat="44.06629373430534" lon="10.24863815234848"><ele>926.0</ele><time>2026-04-26T14:44:39.946Z</time></trkpt><trkpt lat="44.06626221767334" lon="10.248752064162689"><ele>926.0</ele><time>2026-04-26T14:44:40.946Z</time></trkpt><trkpt lat="44.06618239980193" lon="10.248809546744063"><ele>926.0</ele><time>2026-04-26T14:44:41.946Z</time></trkpt><trkpt lat="44.06606151079506" lon="10.248816641803307"><ele>926.0</ele><time>2026-04-26T14:44:42.946Z</time></trkpt><trkpt lat="44.06593250938057" lon="10.248766147860877"><ele>926.0</ele><time>2026-04-26T14:44:43.946Z</time></trkpt><trkpt lat="44.06581037393903" lon="10.248718527288116"><ele>929.5</ele><time>2026-04-26T14:44:44.946Z</time></trkpt><trkpt lat="44.06570485390222" lon="10.248694479153803"><ele>933.0</ele><time>2026-04-26T14:44:45.946Z</time></trkpt><trkpt lat="44.06559907862098" lon="10.248712034243647"><ele>936.5</ele><time>2026-04-26T14:44:46.946Z</time></trkpt><trkpt lat="44.065506983360734" lon="10.248789491542123"><ele>940.0</ele><time>2026-04-26T14:44:47.946Z</time></trkpt><trkpt lat="44.06540194110931" lon="10.24891006370427"><ele>931.3333333333333</ele><time>2026-04-26T14:44:48.946Z</time></trkpt><trkpt lat="44.06529164113259" lon="10.249033999072065"><ele>922.6666666666667</ele><time>2026-04-26T14:44:49.946Z</time></trkpt><trkpt lat="44.06516991749948" lon="10.24917577455582"><ele>914.0</ele><time>2026-04-26T14:44:50.946Z</time></trkpt><trkpt lat="44.06503824203344" lon="10.249304287358155"><ele>915.0</ele><time>2026-04-26T14:44:51.946Z</time></trkpt><trkpt lat="44.06491328270869" lon="10.24943233309626"><ele>916.0</ele><time>2026-04-26T14:44:52.946Z</time></trkpt><trkpt lat="44.06480667877229" lon="10.249548937142622"><ele>917.0</ele><time>2026-04-26T14:44:53.946Z</time></trkpt><trkpt lat="44.06471952050651" lon="10.24968941454053"><ele>918.0</ele><time>2026-04-26T14:44:54.946Z</time></trkpt><trkpt lat="44.06464057655983" lon="10.249825847154177"><ele>914.2</ele><time>2026-04-26T14:44:55.946Z</time></trkpt><trkpt lat="44.06457523098816" lon="10.249958345043453"><ele>910.4</ele><time>2026-04-26T14:44:56.946Z</time></trkpt><trkpt lat="44.06449949434397" lon="10.25005171957028"><ele>906.6000000000001</ele><time>2026-04-26T14:44:57.946Z</time></trkpt><trkpt lat="44.064415678426165" lon="10.250100315849721"><ele>902.8000000000001</ele><time>2026-04-26T14:44:58.946Z</time></trkpt><trkpt lat="44.06431339316914" lon="10.250118717816298"><ele>899.0</ele><time>2026-04-26T14:44:59.946Z</time></trkpt><trkpt lat="44.06419104252127" lon="10.250145044035373"><ele>899.5</ele><time>2026-04-26T14:45:00.946Z</time></trkpt><trkpt lat="44.06404399763172" lon="10.2501430686579"><ele>900.0</ele><time>2026-04-26T14:45:01.946Z</time></trkpt><trkpt lat="44.06390581708499" lon="10.250157970083684"><ele>900.5</ele><time>2026-04-26T14:45:02.946Z</time></trkpt><trkpt lat="44.06375178302721" lon="10.250182930348673"><ele>901.0</ele><time>2026-04-26T14:45:03.946Z</time></trkpt><trkpt lat="44.063627027705714" lon="10.25022279917586"><ele>901.0</ele><time>2026-04-26T14:45:04.946Z</time></trkpt><trkpt lat="44.0635062460075" lon="10.250246196389956"><ele>900.9999999999999</ele><time>2026-04-26T14:45:05.946Z</time></trkpt><trkpt lat="44.06340077063935" lon="10.25025843916082"><ele>900.9999999999999</ele><time>2026-04-26T14:45:06.946Z</time></trkpt><trkpt lat="44.063307827446415" lon="10.250299975492833"><ele>901.0</ele><time>2026-04-26T14:45:07.946Z</time></trkpt><trkpt lat="44.06322288236911" lon="10.25037862658174"><ele>901.0</ele><time>2026-04-26T14:45:08.946Z</time></trkpt><trkpt lat="44.06314341885681" lon="10.250501075456736"><ele>899.5</ele><time>2026-04-26T14:45:09.946Z</time></trkpt><trkpt lat="44.06306298623661" lon="10.250639791848466"><ele>898.0</ele><time>2026-04-26T14:45:10.946Z</time></trkpt><trkpt lat="44.06298009622427" lon="10.250796369873171"><ele>896.5</ele><time>2026-04-26T14:45:11.946Z</time></trkpt><trkpt lat="44.06289327032046" lon="10.250929722689849"><ele>895.0</ele><time>2026-04-26T14:45:12.946Z</time></trkpt><trkpt lat="44.062808705063176" lon="10.251035421121575"><ele>895.0</ele><time>2026-04-26T14:45:13.946Z</time></trkpt><trkpt lat="44.06269445419866" lon="10.251098509644562"><ele>895.0</ele><time>2026-04-26T14:45:14.946Z</time></trkpt><trkpt lat="44.062540472811214" lon="10.251107447515631"><ele>895.0</ele><time>2026-04-26T14:45:15.946Z</time></trkpt><trkpt lat="44.06240351752961" lon="10.251161026952612"><ele>895.0</ele><time>2026-04-26T14:45:16.946Z</time></trkpt><trkpt lat="44.06229149603405" lon="10.251215501141308"><ele>898.5</ele><time>2026-04-26T14:45:17.946Z</time></trkpt><trkpt lat="44.062193073086654" lon="10.25125825902491"><ele>902.0</ele><time>2026-04-26T14:45:18.945Z</time></trkpt><trkpt lat="44.06211852993648" lon="10.25133044834305"><ele>905.5</ele><time>2026-04-26T14:45:19.945Z</time></trkpt><trkpt lat="44.06209021144568" lon="10.251498448527599"><ele>909.0</ele><time>2026-04-26T14:45:20.945Z</time></trkpt><trkpt lat="44.062084565154684" lon="10.251696791922294"><ele>902.0</ele><time>2026-04-26T14:45:21.945Z</time></trkpt><trkpt lat="44.06208075389791" lon="10.251897325149834"><ele>895.0</ele><time>2026-04-26T14:45:22.946Z</time></trkpt><trkpt lat="44.06208098569805" lon="10.252101505021468"><ele>888.0</ele><time>2026-04-26T14:45:23.946Z</time></trkpt><trkpt lat="44.062089390623875" lon="10.25229521316743"><ele>881.0</ele><time>2026-04-26T14:45:24.945Z</time></trkpt><trkpt lat="44.06208575585448" lon="10.25247128809255"><ele>876.5</ele><time>2026-04-26T14:45:25.945Z</time></trkpt><trkpt lat="44.06206215848241" lon="10.252635656758065"><ele>872.0</ele><time>2026-04-26T14:45:26.945Z</time></trkpt><trkpt lat="44.062012651566555" lon="10.252791541124337"><ele>867.5</ele><time>2026-04-26T14:45:27.945Z</time></trkpt><trkpt lat="44.06194086749789" lon="10.252934291313375"><ele>863.0</ele><time>2026-04-26T14:45:28.945Z</time></trkpt><trkpt lat="44.061842025483855" lon="10.253073806843885"><ele>863.0</ele><time>2026-04-26T14:45:29.945Z</time></trkpt><trkpt lat="44.061665412565766" lon="10.253225970881864"><ele>863.0</ele><time>2026-04-26T14:45:30.945Z</time></trkpt><trkpt lat="44.061505185119074" lon="10.253388135557756"><ele>863.0</ele><time>2026-04-26T14:45:31.945Z</time></trkpt><trkpt lat="44.061379054400554" lon="10.253534693623415"><ele>854.6666666666667</ele><time>2026-04-26T14:45:32.945Z</time></trkpt><trkpt lat="44.0612569680893" lon="10.253694438593289"><ele>846.3333333333333</ele><time>2026-04-26T14:45:33.945Z</time></trkpt><trkpt lat="44.06113472178148" lon="10.253867474450397"><ele>838.0</ele><time>2026-04-26T14:45:34.945Z</time></trkpt><trkpt lat="44.0610299716302" lon="10.254064405984412"><ele>838.0</ele><time>2026-04-26T14:45:35.945Z</time></trkpt><trkpt lat="44.0609230318654" lon="10.254270739341399"><ele>838.0</ele><time>2026-04-26T14:45:36.945Z</time></trkpt><trkpt lat="44.06082147208333" lon="10.25444801791815"><ele>838.0</ele><time>2026-04-26T14:45:37.945Z</time></trkpt><trkpt lat="44.06072243102004" lon="10.254625510879455"><ele>830.5</ele><time>2026-04-26T14:45:38.945Z</time></trkpt><trkpt lat="44.060642348719085" lon="10.254806421643977"><ele>823.0</ele><time>2026-04-26T14:45:39.945Z</time></trkpt><trkpt lat="44.06055632916598" lon="10.254966243252388"><ele>815.5</ele><time>2026-04-26T14:45:40.945Z</time></trkpt><trkpt lat="44.06048470126071" lon="10.255098385880425"><ele>808.0</ele><time>2026-04-26T14:45:41.945Z</time></trkpt><trkpt lat="44.06042426032062" lon="10.25520960335048"><ele>808.0</ele><time>2026-04-26T14:45:42.945Z</time></trkpt><trkpt lat="44.060391554267895" lon="10.255332161575716"><ele>808.0</ele><time>2026-04-26T14:45:43.945Z</time></trkpt><trkpt lat="44.06039191718848" lon="10.25546935548441"><ele>808.0</ele><time>2026-04-26T14:45:44.945Z</time></trkpt><trkpt lat="44.06044474673395" lon="10.255595299901156"><ele>808.0</ele><time>2026-04-26T14:45:45.945Z</time></trkpt><trkpt lat="44.06051111776889" lon="10.25570150516338"><ele>808.0</ele><time>2026-04-26T14:45:46.945Z</time></trkpt><trkpt lat="44.06058853686624" lon="10.255808141477171"><ele>807.8</ele><time>2026-04-26T14:45:47.945Z</time></trkpt><trkpt lat="44.06067491055219" lon="10.25590285994615"><ele>807.5999999999999</ele><time>2026-04-26T14:45:48.945Z</time></trkpt><trkpt lat="44.06077177086167" lon="10.255946525995403"><ele>807.4000000000001</ele><time>2026-04-26T14:45:49.945Z</time></trkpt><trkpt lat="44.06088417918458" lon="10.25596615341799"><ele>807.2</ele><time>2026-04-26T14:45:50.945Z</time></trkpt><trkpt lat="44.06099988452932" lon="10.25596974016707"><ele>807.0</ele><time>2026-04-26T14:45:51.945Z</time></trkpt><trkpt lat="44.06112757510832" lon="10.255988441068027"><ele>812.6</ele><time>2026-04-26T14:45:52.945Z</time></trkpt><trkpt lat="44.061228955634434" lon="10.256037149518791"><ele>818.2</ele><time>2026-04-26T14:45:53.945Z</time></trkpt><trkpt lat="44.061319237679115" lon="10.256117155812545"><ele>823.8</ele><time>2026-04-26T14:45:54.945Z</time></trkpt><trkpt lat="44.06139221550574" lon="10.25619996080202"><ele>829.4</ele><time>2026-04-26T14:45:55.945Z</time></trkpt><trkpt lat="44.06139107971641" lon="10.256312590133366"><ele>835.0</ele><time>2026-04-26T14:45:56.945Z</time></trkpt><trkpt lat="44.061320198163166" lon="10.256449973068985"><ele>834.75</ele><time>2026-04-26T14:45:57.945Z</time></trkpt><trkpt lat="44.0612108422283" lon="10.25657658177"><ele>834.5</ele><time>2026-04-26T14:45:58.945Z</time></trkpt><trkpt lat="44.06106450395231" lon="10.25661376417516"><ele>834.25</ele><time>2026-04-26T14:45:59.945Z</time></trkpt><trkpt lat="44.060927672636836" lon="10.256662277139645"><ele>834.0</ele><time>2026-04-26T14:46:00.945Z</time></trkpt><trkpt lat="44.060788373925085" lon="10.256715242113593"><ele>825.0</ele><time>2026-04-26T14:46:01.945Z</time></trkpt><trkpt lat="44.060636957278476" lon="10.256766929156894"><ele>816.0</ele><time>2026-04-26T14:46:02.945Z</time></trkpt><trkpt lat="44.06046969347775" lon="10.256794025866242"><ele>807.0</ele><time>2026-04-26T14:46:03.945Z</time></trkpt><trkpt lat="44.06031312072765" lon="10.256810357370986"><ele>807.0</ele><time>2026-04-26T14:46:04.945Z</time></trkpt><trkpt lat="44.06017045787052" lon="10.256837310488713"><ele>807.0</ele><time>2026-04-26T14:46:05.945Z</time></trkpt><trkpt lat="44.060031155777565" lon="10.256871112343642"><ele>807.0</ele><time>2026-04-26T14:46:06.945Z</time></trkpt><trkpt lat="44.05990192169145" lon="10.256912576960076"><ele>807.0</ele><time>2026-04-26T14:46:07.945Z</time></trkpt><trkpt lat="44.059774936886704" lon="10.256971989181043"><ele>804.5</ele><time>2026-04-26T14:46:08.945Z</time></trkpt><trkpt lat="44.05967095031025" lon="10.257047465531668"><ele>802.0</ele><time>2026-04-26T14:46:09.945Z</time></trkpt><trkpt lat="44.05958063958928" lon="10.257193088996171"><ele>799.5</ele><time>2026-04-26T14:46:10.945Z</time></trkpt><trkpt lat="44.05950089510221" lon="10.257375607506605"><ele>797.0</ele><time>2026-04-26T14:46:11.945Z</time></trkpt><trkpt lat="44.059457846243355" lon="10.25757601841148"><ele>797.0</ele><time>2026-04-26T14:46:12.945Z</time></trkpt><trkpt lat="44.05941079221815" lon="10.25777586112019"><ele>797.0</ele><time>2026-04-26T14:46:13.945Z</time></trkpt><trkpt lat="44.05935268777101" lon="10.257941710562138"><ele>797.0</ele><time>2026-04-26T14:46:14.945Z</time></trkpt><trkpt lat="44.05930616545046" lon="10.25808237213505"><ele>797.0</ele><time>2026-04-26T14:46:15.945Z</time></trkpt><trkpt lat="44.05924802171194" lon="10.258214912360764"><ele>796.5</ele><time>2026-04-26T14:46:16.945Z</time></trkpt><trkpt lat="44.05917126402215" lon="10.258340923823058"><ele>796.0</ele><time>2026-04-26T14:46:17.945Z</time></trkpt><trkpt lat="44.05906881508322" lon="10.258464869290947"><ele>795.5</ele><time>2026-04-26T14:46:18.945Z</time></trkpt><trkpt lat="44.058953627495235" lon="10.2585688696302"><ele>795.0</ele><time>2026-04-26T14:46:19.945Z</time></trkpt><trkpt lat="44.05885211043426" lon="10.258670900314712"><ele>795.0</ele><time>2026-04-26T14:46:20.945Z</time></trkpt><trkpt lat="44.05876085682332" lon="10.258779972739607"><ele>795.0</ele><time>2026-04-26T14:46:21.945Z</time></trkpt><trkpt lat="44.058684827186774" lon="10.258907823182021"><ele>795.0</ele><time>2026-04-26T14:46:22.945Z</time></trkpt><trkpt lat="44.05862214795495" lon="10.259059987420613"><ele>795.0</ele><time>2026-04-26T14:46:23.945Z</time></trkpt><trkpt lat="44.05855686479639" lon="10.259249699317463"><ele>795.0</ele><time>2026-04-26T14:46:24.945Z</time></trkpt><trkpt lat="44.05849027707162" lon="10.259452980493524"><ele>795.0</ele><time>2026-04-26T14:46:25.945Z</time></trkpt><trkpt lat="44.058424117222366" lon="10.25965014263676"><ele>795.0</ele><time>2026-04-26T14:46:26.945Z</time></trkpt><trkpt lat="44.05836099338045" lon="10.259835335752546"><ele>795.0</ele><time>2026-04-26T14:46:27.945Z</time></trkpt><trkpt lat="44.05829827168792" lon="10.260006990229616"><ele>795.0</ele><time>2026-04-26T14:46:28.945Z</time></trkpt><trkpt lat="44.058236799832564" lon="10.260162767880862"><ele>795.0</ele><time>2026-04-26T14:46:29.945Z</time></trkpt><trkpt lat="44.058187377706126" lon="10.260305257560077"><ele>795.0</ele><time>2026-04-26T14:46:30.945Z</time></trkpt><trkpt lat="44.058155732280966" lon="10.260459313030022"><ele>797.5</ele><time>2026-04-26T14:46:31.945Z</time></trkpt><trkpt lat="44.05815597003063" lon="10.26065908949329"><ele>800.0</ele><time>2026-04-26T14:46:32.945Z</time></trkpt><trkpt lat="44.05814868637781" lon="10.260856170470403"><ele>802.5</ele><time>2026-04-26T14:46:33.945Z</time></trkpt><trkpt lat="44.05816910619905" lon="10.261061552322515"><ele>805.0</ele><time>2026-04-26T14:46:34.945Z</time></trkpt><trkpt lat="44.05817321749231" lon="10.261283713164605"><ele>801.6666666666666</ele><time>2026-04-26T14:46:35.945Z</time></trkpt><trkpt lat="44.05814657689041" lon="10.26147771133018"><ele>798.3333333333333</ele><time>2026-04-26T14:46:36.945Z</time></trkpt><trkpt lat="44.05808483577081" lon="10.26167943932534"><ele>795.0</ele><time>2026-04-26T14:46:37.945Z</time></trkpt><trkpt lat="44.05801356090295" lon="10.261871206860146"><ele>795.0</ele><time>2026-04-26T14:46:38.945Z</time></trkpt><trkpt lat="44.057945090039425" lon="10.26205632942928"><ele>795.0</ele><time>2026-04-26T14:46:39.945Z</time></trkpt><trkpt lat="44.057893493388335" lon="10.262232845674262"><ele>795.0</ele><time>2026-04-26T14:46:40.945Z</time></trkpt><trkpt lat="44.05787069012246" lon="10.262413543355576"><ele>795.0</ele><time>2026-04-26T14:46:41.945Z</time></trkpt><trkpt lat="44.05785869360146" lon="10.262587798937114"><ele>796.6</ele><time>2026-04-26T14:46:42.945Z</time></trkpt><trkpt lat="44.05786726419464" lon="10.262753499610577"><ele>798.2</ele><time>2026-04-26T14:46:43.945Z</time></trkpt><trkpt lat="44.05784507402549" lon="10.262886452624423"><ele>799.8</ele><time>2026-04-26T14:46:44.945Z</time></trkpt><trkpt lat="44.05779771244436" lon="10.262992246469814"><ele>801.4</ele><time>2026-04-26T14:46:45.945Z</time></trkpt><trkpt lat="44.057762906786806" lon="10.263108447885381"><ele>803.0</ele><time>2026-04-26T14:46:46.945Z</time></trkpt><trkpt lat="44.05775159282179" lon="10.26323999673449"><ele>806.0</ele><time>2026-04-26T14:46:47.945Z</time></trkpt><trkpt lat="44.057762668062466" lon="10.26340921965874"><ele>809.0</ele><time>2026-04-26T14:46:48.945Z</time></trkpt><trkpt lat="44.05779188960222" lon="10.263586681451239"><ele>812.0</ele><time>2026-04-26T14:46:49.945Z</time></trkpt><trkpt lat="44.05786995558687" lon="10.263759970503884"><ele>815.0</ele><time>2026-04-26T14:46:50.945Z</time></trkpt><trkpt lat="44.057972738590855" lon="10.26391482170444"><ele>810.4</ele><time>2026-04-26T14:46:51.945Z</time></trkpt><trkpt lat="44.05798410963117" lon="10.26405246312622"><ele>805.8</ele><time>2026-04-26T14:46:52.945Z</time></trkpt><trkpt lat="44.057949504957904" lon="10.264175068768617"><ele>801.2</ele><time>2026-04-26T14:46:53.945Z</time></trkpt><trkpt lat="44.057864411270764" lon="10.264267785847515"><ele>796.6</ele><time>2026-04-26T14:46:54.945Z</time></trkpt><trkpt lat="44.05775723124741" lon="10.264366083715105"><ele>792.0</ele><time>2026-04-26T14:46:55.945Z</time></trkpt><trkpt lat="44.057637955746586" lon="10.26447855134762"><ele>792.0</ele><time>2026-04-26T14:46:56.945Z</time></trkpt><trkpt lat="44.05751646610379" lon="10.264602446405705"><ele>792.0</ele><time>2026-04-26T14:46:57.945Z</time></trkpt><trkpt lat="44.0574038470437" lon="10.264738048576449"><ele>792.0</ele><time>2026-04-26T14:46:58.945Z</time></trkpt><trkpt lat="44.05729432473949" lon="10.264861626216826"><ele>792.0</ele><time>2026-04-26T14:46:59.945Z</time></trkpt><trkpt lat="44.05719282343186" lon="10.264971793152109"><ele>793.0</ele><time>2026-04-26T14:47:00.945Z</time></trkpt><trkpt lat="44.05710099671517" lon="10.265127109200169"><ele>794.0</ele><time>2026-04-26T14:47:01.945Z</time></trkpt><trkpt lat="44.057035100026326" lon="10.265300842906107"><ele>795.0</ele><time>2026-04-26T14:47:02.945Z</time></trkpt><trkpt lat="44.05697734617429" lon="10.265483607490205"><ele>796.0</ele><time>2026-04-26T14:47:03.945Z</time></trkpt><trkpt lat="44.05694220296148" lon="10.26569932750165"><ele>789.25</ele><time>2026-04-26T14:47:04.945Z</time></trkpt><trkpt lat="44.05692261539998" lon="10.26591009566858"><ele>782.5</ele><time>2026-04-26T14:47:05.945Z</time></trkpt><trkpt lat="44.05689478379631" lon="10.266102067111788"><ele>775.75</ele><time>2026-04-26T14:47:06.945Z</time></trkpt><trkpt lat="44.056828883083774" lon="10.266279867259446"><ele>769.0</ele><time>2026-04-26T14:47:07.945Z</time></trkpt><trkpt lat="44.056759911965315" lon="10.266455330198148"><ele>765.6666666666666</ele><time>2026-04-26T14:47:08.945Z</time></trkpt><trkpt lat="44.05671219979049" lon="10.266644993551175"><ele>762.3333333333333</ele><time>2026-04-26T14:47:09.945Z</time></trkpt><trkpt lat="44.05669340941634" lon="10.266851344242209"><ele>759.0</ele><time>2026-04-26T14:47:10.945Z</time></trkpt><trkpt lat="44.05671284969676" lon="10.267287462153805"><ele>759.0</ele><time>2026-04-26T14:47:12.945Z</time></trkpt><trkpt lat="44.05672922974867" lon="10.267501987859477"><ele>759.0</ele><time>2026-04-26T14:47:13.945Z</time></trkpt><trkpt lat="44.0567581725709" lon="10.267717725507067"><ele>759.0</ele><time>2026-04-26T14:47:14.945Z</time></trkpt><trkpt lat="44.05679396663376" lon="10.267936032659117"><ele>758.3333333333334</ele><time>2026-04-26T14:47:15.945Z</time></trkpt><trkpt lat="44.05683205859604" lon="10.268166825672298"><ele>757.6666666666667</ele><time>2026-04-26T14:47:16.945Z</time></trkpt><trkpt lat="44.056871165279595" lon="10.268402044057284"><ele>757.0</ele><time>2026-04-26T14:47:17.945Z</time></trkpt><trkpt lat="44.056907405721645" lon="10.268639923981812"><ele>757.0</ele><time>2026-04-26T14:47:18.945Z</time></trkpt><trkpt lat="44.05693704025196" lon="10.268870962059472"><ele>757.0</ele><time>2026-04-26T14:47:19.945Z</time></trkpt><trkpt lat="44.056957681452445" lon="10.269098500652817"><ele>757.0</ele><time>2026-04-26T14:47:20.945Z</time></trkpt><trkpt lat="44.05696219575295" lon="10.269332929161736"><ele>756.6666666666667</ele><time>2026-04-26T14:47:21.945Z</time></trkpt><trkpt lat="44.05695944059616" lon="10.269559954706494"><ele>756.3333333333334</ele><time>2026-04-26T14:47:22.945Z</time></trkpt><trkpt lat="44.056946923435376" lon="10.269768781561687"><ele>756.0</ele><time>2026-04-26T14:47:23.945Z</time></trkpt><trkpt lat="44.056910059545565" lon="10.269955728640799"><ele>756.0</ele><time>2026-04-26T14:47:24.944Z</time></trkpt><trkpt lat="44.056851445656854" lon="10.270121312636384"><ele>756.0</ele><time>2026-04-26T14:47:25.945Z</time></trkpt><trkpt lat="44.056781314445814" lon="10.27027272052442"><ele>756.0</ele><time>2026-04-26T14:47:26.945Z</time></trkpt><trkpt lat="44.056703553172945" lon="10.270404919438404"><ele>756.0</ele><time>2026-04-26T14:47:27.944Z</time></trkpt><trkpt lat="44.056617040052274" lon="10.27050985089358"><ele>765.8</ele><time>2026-04-26T14:47:28.944Z</time></trkpt><trkpt lat="44.05652668393512" lon="10.270585370534466"><ele>775.5999999999999</ele><time>2026-04-26T14:47:29.944Z</time></trkpt><trkpt lat="44.0564422265292" lon="10.270641418406205"><ele>785.4</ele><time>2026-04-26T14:47:30.944Z</time></trkpt><trkpt lat="44.05637094096517" lon="10.270681628760425"><ele>795.2</ele><time>2026-04-26T14:47:31.944Z</time></trkpt><trkpt lat="44.05627432967722" lon="10.270723246410329"><ele>805.0</ele><time>2026-04-26T14:47:33.945Z</time></trkpt><trkpt lat="44.05619126458162" lon="10.270798835755249"><ele>806.0</ele><time>2026-04-26T14:47:36.945Z</time></trkpt><trkpt lat="44.056169165188244" lon="10.270983627821506"><ele>807.0</ele><time>2026-04-26T14:47:38.944Z</time></trkpt><trkpt lat="44.05616907646069" lon="10.27111867806824"><ele>808.0</ele><time>2026-04-26T14:47:39.944Z</time></trkpt><trkpt lat="44.056187527267895" lon="10.271267162731606"><ele>809.0</ele><time>2026-04-26T14:47:40.944Z</time></trkpt><trkpt lat="44.05621964331478" lon="10.271404073503499"><ele>810.0</ele><time>2026-04-26T14:47:41.945Z</time></trkpt><trkpt lat="44.05627713255804" lon="10.271523404017842"><ele>815.25</ele><time>2026-04-26T14:47:42.945Z</time></trkpt><trkpt lat="44.05637439311191" lon="10.271609215288002"><ele>820.5</ele><time>2026-04-26T14:47:43.945Z</time></trkpt><trkpt lat="44.056473904231964" lon="10.271688883452539"><ele>825.75</ele><time>2026-04-26T14:47:44.945Z</time></trkpt><trkpt lat="44.05659767128992" lon="10.271774609483305"><ele>831.0</ele><time>2026-04-26T14:47:45.945Z</time></trkpt><trkpt lat="44.056732189993305" lon="10.271880626016896"><ele>809.6666666666666</ele><time>2026-04-26T14:47:46.945Z</time></trkpt><trkpt lat="44.05687266484174" lon="10.271985236318173"><ele>788.3333333333333</ele><time>2026-04-26T14:47:47.945Z</time></trkpt><trkpt lat="44.05701775761937" lon="10.272090021066928"><ele>767.0</ele><time>2026-04-26T14:47:48.945Z</time></trkpt><trkpt lat="44.05716865097748" lon="10.27220058934991"><ele>765.3333333333333</ele><time>2026-04-26T14:47:49.945Z</time></trkpt><trkpt lat="44.057316472938965" lon="10.272314424870775"><ele>763.6666666666666</ele><time>2026-04-26T14:47:50.945Z</time></trkpt><trkpt lat="44.05746709513337" lon="10.27243306816148"><ele>762.0</ele><time>2026-04-26T14:47:51.945Z</time></trkpt><trkpt lat="44.057617954086936" lon="10.27255378388134"><ele>762.0</ele><time>2026-04-26T14:47:52.945Z</time></trkpt><trkpt lat="44.05776346589125" lon="10.27267478974828"><ele>762.0</ele><time>2026-04-26T14:47:53.945Z</time></trkpt><trkpt lat="44.05790651941224" lon="10.27279279534898"><ele>762.0</ele><time>2026-04-26T14:47:54.945Z</time></trkpt><trkpt lat="44.058047391566625" lon="10.272903267091104"><ele>762.0</ele><time>2026-04-26T14:47:55.945Z</time></trkpt><trkpt lat="44.05818639266025" lon="10.273014058008552"><ele>762.0</ele><time>2026-04-26T14:47:56.945Z</time></trkpt><trkpt lat="44.05831929727638" lon="10.273123999360791"><ele>762.0</ele><time>2026-04-26T14:47:57.945Z</time></trkpt><trkpt lat="44.05845778089574" lon="10.273243535667993"><ele>759.3333333333334</ele><time>2026-04-26T14:47:58.945Z</time></trkpt><trkpt lat="44.05859879647166" lon="10.273379011693212"><ele>756.6666666666667</ele><time>2026-04-26T14:47:59.945Z</time></trkpt><trkpt lat="44.05873646259178" lon="10.273535109003864"><ele>754.0</ele><time>2026-04-26T14:48:00.945Z</time></trkpt><trkpt lat="44.0588693620789" lon="10.27370564637883"><ele>754.0</ele><time>2026-04-26T14:48:01.945Z</time></trkpt><trkpt lat="44.059001311196056" lon="10.273882395071814"><ele>754.0</ele><time>2026-04-26T14:48:02.945Z</time></trkpt><trkpt lat="44.05913149682704" lon="10.274060369114915"><ele>754.0</ele><time>2026-04-26T14:48:03.945Z</time></trkpt><trkpt lat="44.059262035699895" lon="10.27423832173405"><ele>766.6666666666667</ele><time>2026-04-26T14:48:04.945Z</time></trkpt><trkpt lat="44.05938889288763" lon="10.274408032825992"><ele>779.3333333333334</ele><time>2026-04-26T14:48:05.945Z</time></trkpt><trkpt lat="44.059515291319386" lon="10.27457139037453"><ele>792.0</ele><time>2026-04-26T14:48:06.945Z</time></trkpt><trkpt lat="44.0596340834557" lon="10.27471831886322"><ele>798.5</ele><time>2026-04-26T14:48:07.945Z</time></trkpt><trkpt lat="44.05973770629207" lon="10.274844641769192"><ele>805.0</ele><time>2026-04-26T14:48:08.945Z</time></trkpt><trkpt lat="44.05983101223852" lon="10.27501441462724"><ele>811.5</ele><time>2026-04-26T14:48:09.945Z</time></trkpt><trkpt lat="44.05993372691209" lon="10.275159267251182"><ele>818.0</ele><time>2026-04-26T14:48:10.945Z</time></trkpt><trkpt lat="44.05987109486355" lon="10.275204324149218"><ele>818.0</ele><time>2026-04-26T14:48:11.945Z</time></trkpt><trkpt lat="44.059845022956196" lon="10.275357765735851"><ele>818.0</ele><time>2026-04-26T14:48:12.945Z</time></trkpt><trkpt lat="44.0598189410282" lon="10.275527590809348"><ele>818.0</ele><time>2026-04-26T14:48:13.945Z</time></trkpt><trkpt lat="44.05984336340991" lon="10.275692361875288"><ele>818.0</ele><time>2026-04-26T14:48:14.945Z</time></trkpt><trkpt lat="44.05988258350313" lon="10.275857882433472"><ele>828.3333333333334</ele><time>2026-04-26T14:48:15.945Z</time></trkpt><trkpt lat="44.0599083768463" lon="10.276001801129516"><ele>838.6666666666667</ele><time>2026-04-26T14:48:16.945Z</time></trkpt><trkpt lat="44.05995846852079" lon="10.276323534277882"><ele>849.0</ele><time>2026-04-26T14:48:18.945Z</time></trkpt><trkpt lat="44.060014058391026" lon="10.27648101942716"><ele>830.4000000000001</ele><time>2026-04-26T14:48:19.945Z</time></trkpt><trkpt lat="44.06007568405194" lon="10.276636757718821"><ele>811.8</ele><time>2026-04-26T14:48:20.945Z</time></trkpt><trkpt lat="44.060111021449835" lon="10.27678187916943"><ele>793.2</ele><time>2026-04-26T14:48:21.945Z</time></trkpt><trkpt lat="44.06014992721943" lon="10.276905259846203"><ele>774.5999999999999</ele><time>2026-04-26T14:48:22.945Z</time></trkpt><trkpt lat="44.06016351702599" lon="10.277016552322383"><ele>756.0</ele><time>2026-04-26T14:48:23.945Z</time></trkpt><trkpt lat="44.06014934600123" lon="10.27713709394072"><ele>758.0</ele><time>2026-04-26T14:48:24.945Z</time></trkpt><trkpt lat="44.060105957274146" lon="10.277279419177713"><ele>760.0</ele><time>2026-04-26T14:48:25.945Z</time></trkpt><trkpt lat="44.060064510747516" lon="10.277424259533264"><ele>762.0</ele><time>2026-04-26T14:48:26.945Z</time></trkpt><trkpt lat="44.060021221235274" lon="10.277567006581311"><ele>764.0</ele><time>2026-04-26T14:48:27.945Z</time></trkpt><trkpt lat="44.06000141230681" lon="10.277723025423365"><ele>766.0</ele><time>2026-04-26T14:48:28.945Z</time></trkpt><trkpt lat="44.05998130271192" lon="10.277888798273638"><ele>766.0</ele><time>2026-04-26T14:48:29.945Z</time></trkpt><trkpt lat="44.05997400542609" lon="10.278070295977686"><ele>766.0</ele><time>2026-04-26T14:48:30.945Z</time></trkpt><trkpt lat="44.059939538131644" lon="10.278237785487347"><ele>766.0</ele><time>2026-04-26T14:48:31.945Z</time></trkpt><trkpt lat="44.05990281024545" lon="10.278406764645684"><ele>766.0</ele><time>2026-04-26T14:48:32.945Z</time></trkpt><trkpt lat="44.059869974931374" lon="10.27857470973625"><ele>782.0</ele><time>2026-04-26T14:48:33.945Z</time></trkpt><trkpt lat="44.05985423750803" lon="10.278735433877282"><ele>798.0</ele><time>2026-04-26T14:48:34.945Z</time></trkpt><trkpt lat="44.05983978888168" lon="10.278882792664962"><ele>814.0</ele><time>2026-04-26T14:48:35.945Z</time></trkpt><trkpt lat="44.059825542240745" lon="10.27902395230349"><ele>830.0</ele><time>2026-04-26T14:48:36.945Z</time></trkpt><trkpt lat="44.05981680551893" lon="10.279147546674258"><ele>846.0</ele><time>2026-04-26T14:48:37.945Z</time></trkpt><trkpt lat="44.05982703748809" lon="10.279319045651787"><ele>846.0</ele><time>2026-04-26T14:48:38.945Z</time></trkpt><trkpt lat="44.059851115137505" lon="10.279499815311384"><ele>846.0</ele><time>2026-04-26T14:48:39.945Z</time></trkpt><trkpt lat="44.05988571477835" lon="10.2796878970434"><ele>846.0</ele><time>2026-04-26T14:48:40.945Z</time></trkpt><trkpt lat="44.05991859455259" lon="10.279862948489503"><ele>846.0</ele><time>2026-04-26T14:48:41.945Z</time></trkpt><trkpt lat="44.05995733268981" lon="10.28002122324163"><ele>822.75</ele><time>2026-04-26T14:48:42.945Z</time></trkpt><trkpt lat="44.05998476550144" lon="10.280171618100262"><ele>799.5</ele><time>2026-04-26T14:48:43.945Z</time></trkpt><trkpt lat="44.0599991196914" lon="10.28032646500721"><ele>776.25</ele><time>2026-04-26T14:48:44.945Z</time></trkpt><trkpt lat="44.06005108093902" lon="10.280466054164556"><ele>753.0</ele><time>2026-04-26T14:48:45.945Z</time></trkpt><trkpt lat="44.0602825088755" lon="10.280567445374842"><ele>762.5</ele><time>2026-04-26T14:48:46.945Z</time></trkpt><trkpt lat="44.060386904259104" lon="10.280692593586434"><ele>772.0</ele><time>2026-04-26T14:48:47.945Z</time></trkpt><trkpt lat="44.06047885336506" lon="10.280824506553822"><ele>781.5</ele><time>2026-04-26T14:48:48.945Z</time></trkpt><trkpt lat="44.06056123645217" lon="10.280952076243114"><ele>791.0</ele><time>2026-04-26T14:48:49.945Z</time></trkpt><trkpt lat="44.060631427256325" lon="10.281079589612245"><ele>791.0</ele><time>2026-04-26T14:48:50.945Z</time></trkpt><trkpt lat="44.06069314328565" lon="10.281221786862012"><ele>791.0</ele><time>2026-04-26T14:48:51.945Z</time></trkpt><trkpt lat="44.06072294839575" lon="10.281394189016483"><ele>791.0</ele><time>2026-04-26T14:48:52.945Z</time></trkpt><trkpt lat="44.06074386104296" lon="10.281578074919526"><ele>791.0</ele><time>2026-04-26T14:48:53.945Z</time></trkpt><trkpt lat="44.060756407585615" lon="10.281776449627072"><ele>799.25</ele><time>2026-04-26T14:48:54.945Z</time></trkpt><trkpt lat="44.060754364083465" lon="10.28198043831575"><ele>807.5</ele><time>2026-04-26T14:48:55.945Z</time></trkpt><trkpt lat="44.0607396898894" lon="10.282179274168808"><ele>815.75</ele><time>2026-04-26T14:48:56.945Z</time></trkpt><trkpt lat="44.06072424569975" lon="10.282353800789062"><ele>824.0</ele><time>2026-04-26T14:48:57.945Z</time></trkpt><trkpt lat="44.06069759773914" lon="10.28253453894888"><ele>828.0</ele><time>2026-04-26T14:48:58.945Z</time></trkpt><trkpt lat="44.0606533977561" lon="10.282696772797282"><ele>832.0</ele><time>2026-04-26T14:48:59.945Z</time></trkpt><trkpt lat="44.06060205664538" lon="10.282842203109162"><ele>836.0</ele><time>2026-04-26T14:49:00.945Z</time></trkpt><trkpt lat="44.06057103105284" lon="10.282978787147101"><ele>840.0</ele><time>2026-04-26T14:49:01.945Z</time></trkpt><trkpt lat="44.060537467284355" lon="10.283124520377704"><ele>840.5</ele><time>2026-04-26T14:49:02.945Z</time></trkpt><trkpt lat="44.06054400167714" lon="10.283285163395314"><ele>841.0</ele><time>2026-04-26T14:49:03.945Z</time></trkpt><trkpt lat="44.06058239386098" lon="10.283435021747923"><ele>841.5</ele><time>2026-04-26T14:49:04.945Z</time></trkpt><trkpt lat="44.06068823186423" lon="10.283588550975029"><ele>842.0</ele><time>2026-04-26T14:49:05.945Z</time></trkpt><trkpt lat="44.06078136793537" lon="10.28374205292708"><ele>819.0</ele><time>2026-04-26T14:49:06.945Z</time></trkpt><trkpt lat="44.06086970708924" lon="10.283892876116328"><ele>796.0</ele><time>2026-04-26T14:49:07.945Z</time></trkpt><trkpt lat="44.060969887279995" lon="10.284044105377502"><ele>773.0</ele><time>2026-04-26T14:49:08.945Z</time></trkpt><trkpt lat="44.061076174310394" lon="10.28418607661674"><ele>750.0</ele><time>2026-04-26T14:49:09.945Z</time></trkpt><trkpt lat="44.06120118126976" lon="10.284302201808858"><ele>750.0</ele><time>2026-04-26T14:49:10.945Z</time></trkpt><trkpt lat="44.06132060800421" lon="10.284401179375152"><ele>750.0</ele><time>2026-04-26T14:49:11.945Z</time></trkpt><trkpt lat="44.0614342781867" lon="10.284500187814222"><ele>750.0</ele><time>2026-04-26T14:49:12.945Z</time></trkpt><trkpt lat="44.06153810535874" lon="10.284597831488556"><ele>750.0</ele><time>2026-04-26T14:49:13.945Z</time></trkpt><trkpt lat="44.06164564214191" lon="10.28469557517409"><ele>737.75</ele><time>2026-04-26T14:49:14.945Z</time></trkpt><trkpt lat="44.06173757476141" lon="10.284838188456929"><ele>725.5</ele><time>2026-04-26T14:49:15.945Z</time></trkpt><trkpt lat="44.061782234629945" lon="10.28502068544068"><ele>713.25</ele><time>2026-04-26T14:49:16.945Z</time></trkpt><trkpt lat="44.06180328715391" lon="10.285217869212618"><ele>701.0</ele><time>2026-04-26T14:49:17.945Z</time></trkpt><trkpt lat="44.06180212079618" lon="10.285409979529698"><ele>701.25</ele><time>2026-04-26T14:49:18.945Z</time></trkpt><trkpt lat="44.06176894049466" lon="10.285597117433355"><ele>701.5</ele><time>2026-04-26T14:49:19.945Z</time></trkpt><trkpt lat="44.06170446562418" lon="10.285784131545528"><ele>701.75</ele><time>2026-04-26T14:49:20.945Z</time></trkpt><trkpt lat="44.061634296221484" lon="10.285970720682869"><ele>702.0</ele><time>2026-04-26T14:49:21.945Z</time></trkpt><trkpt lat="44.06155568901009" lon="10.28615358138399"><ele>723.0</ele><time>2026-04-26T14:49:22.945Z</time></trkpt><trkpt lat="44.061490213268605" lon="10.286347864054244"><ele>744.0</ele><time>2026-04-26T14:49:23.945Z</time></trkpt><trkpt lat="44.06143362142057" lon="10.286523411415004"><ele>765.0</ele><time>2026-04-26T14:49:24.945Z</time></trkpt><trkpt lat="44.06141902448654" lon="10.286697406758158"><ele>786.0</ele><time>2026-04-26T14:49:25.945Z</time></trkpt><trkpt lat="44.061414169052824" lon="10.286865131917068"><ele>786.0</ele><time>2026-04-26T14:49:26.945Z</time></trkpt><trkpt lat="44.06141935733296" lon="10.287046011679687"><ele>786.0</ele><time>2026-04-26T14:49:27.945Z</time></trkpt><trkpt lat="44.0614234392364" lon="10.28723530455717"><ele>786.0</ele><time>2026-04-26T14:49:28.945Z</time></trkpt><trkpt lat="44.06142335163315" lon="10.287416247700243"><ele>786.0</ele><time>2026-04-26T14:49:29.945Z</time></trkpt><trkpt lat="44.06141970239216" lon="10.287589614638865"><ele>786.5</ele><time>2026-04-26T14:49:30.944Z</time></trkpt><trkpt lat="44.06141763239864" lon="10.28776020674714"><ele>787.0</ele><time>2026-04-26T14:49:31.943Z</time></trkpt><trkpt lat="44.06142864596054" lon="10.28792930021581"><ele>787.5</ele><time>2026-04-26T14:49:32.943Z</time></trkpt><trkpt lat="44.06146914815724" lon="10.288085141041162"><ele>788.0</ele><time>2026-04-26T14:49:33.944Z</time></trkpt><trkpt lat="44.06154165693664" lon="10.288234252191232"><ele>764.75</ele><time>2026-04-26T14:49:34.944Z</time></trkpt><trkpt lat="44.0616242517607" lon="10.288391355506791"><ele>741.5</ele><time>2026-04-26T14:49:35.944Z</time></trkpt><trkpt lat="44.06170451725636" lon="10.288559291044114"><ele>718.25</ele><time>2026-04-26T14:49:36.944Z</time></trkpt><trkpt lat="44.06178583076807" lon="10.28871683228172"><ele>695.0</ele><time>2026-04-26T14:49:37.943Z</time></trkpt><trkpt lat="44.06185810970219" lon="10.288856822650695"><ele>700.0</ele><time>2026-04-26T14:49:38.943Z</time></trkpt><trkpt lat="44.06192253981714" lon="10.288974807893169"><ele>705.0</ele><time>2026-04-26T14:49:39.943Z</time></trkpt><trkpt lat="44.0619755652286" lon="10.289075775278404"><ele>710.0</ele><time>2026-04-26T14:49:40.943Z</time></trkpt><trkpt lat="44.062031893292875" lon="10.289163353255004"><ele>715.0</ele><time>2026-04-26T14:49:41.943Z</time></trkpt><trkpt lat="44.062080188651436" lon="10.28922487948759"><ele>720.0</ele><time>2026-04-26T14:49:42.944Z</time></trkpt><trkpt lat="44.06217589743606" lon="10.289306241342741"><ele>720.0</ele><time>2026-04-26T14:49:44.944Z</time></trkpt><trkpt lat="44.06224327666376" lon="10.289327140432894"><ele>720.0</ele><time>2026-04-26T14:49:46.944Z</time></trkpt><trkpt lat="44.062260648198865" lon="10.28922094558152"><ele>720.0</ele><time>2026-04-26T14:49:49.944Z</time></trkpt><trkpt lat="44.062175559514635" lon="10.289118336454699"><ele>720.0</ele><time>2026-04-26T14:49:52.944Z</time></trkpt><trkpt lat="44.06206604758087" lon="10.289037455083406"><ele>720.0</ele><time>2026-04-26T14:49:53.944Z</time></trkpt><trkpt lat="44.061977665563866" lon="10.288936575647039"><ele>713.75</ele><time>2026-04-26T14:49:54.944Z</time></trkpt><trkpt lat="44.06190776786658" lon="10.288807712364479"><ele>707.5</ele><time>2026-04-26T14:49:55.944Z</time></trkpt><trkpt lat="44.061837881127204" lon="10.28868230566314"><ele>701.25</ele><time>2026-04-26T14:49:56.944Z</time></trkpt><trkpt lat="44.06176445365475" lon="10.288569632142782"><ele>695.0</ele><time>2026-04-26T14:49:57.944Z</time></trkpt><trkpt lat="44.06168982701942" lon="10.288447871982598"><ele>716.0</ele><time>2026-04-26T14:49:58.944Z</time></trkpt><trkpt lat="44.06161135435502" lon="10.288299943021535"><ele>737.0</ele><time>2026-04-26T14:49:59.944Z</time></trkpt><trkpt lat="44.06154557225408" lon="10.288143927991884"><ele>758.0</ele><time>2026-04-26T14:50:00.944Z</time></trkpt><trkpt lat="44.06148315585666" lon="10.287988623728415"><ele>779.0</ele><time>2026-04-26T14:50:01.944Z</time></trkpt><trkpt lat="44.061431391128785" lon="10.287831277915952"><ele>779.0</ele><time>2026-04-26T14:50:02.944Z</time></trkpt><trkpt lat="44.061390137046175" lon="10.287654468338491"><ele>779.0</ele><time>2026-04-26T14:50:03.944Z</time></trkpt><trkpt lat="44.06136631377206" lon="10.287464183462175"><ele>779.0</ele><time>2026-04-26T14:50:04.944Z</time></trkpt><trkpt lat="44.06138869526441" lon="10.287272895055489"><ele>779.0</ele><time>2026-04-26T14:50:05.944Z</time></trkpt><trkpt lat="44.06140078618604" lon="10.287081649530084"><ele>780.75</ele><time>2026-04-26T14:50:06.944Z</time></trkpt><trkpt lat="44.061397792004314" lon="10.286885975062816"><ele>782.5</ele><time>2026-04-26T14:50:07.944Z</time></trkpt><trkpt lat="44.061406922582044" lon="10.286710092250816"><ele>784.25</ele><time>2026-04-26T14:50:08.944Z</time></trkpt><trkpt lat="44.061411233356246" lon="10.286520918483717"><ele>786.0</ele><time>2026-04-26T14:50:09.944Z</time></trkpt><trkpt lat="44.061439008496" lon="10.286323414812927"><ele>788.5</ele><time>2026-04-26T14:50:10.944Z</time></trkpt><trkpt lat="44.06149995179594" lon="10.286135618538474"><ele>791.0</ele><time>2026-04-26T14:50:11.944Z</time></trkpt><trkpt lat="44.06156857737111" lon="10.285959161124577"><ele>793.5</ele><time>2026-04-26T14:50:12.944Z</time></trkpt><trkpt lat="44.061628560326916" lon="10.28579503429108"><ele>796.0</ele><time>2026-04-26T14:50:13.944Z</time></trkpt><trkpt lat="44.06168120804631" lon="10.285639141856317"><ele>772.25</ele><time>2026-04-26T14:50:14.944Z</time></trkpt><trkpt lat="44.061720262363345" lon="10.285474159212878"><ele>748.5</ele><time>2026-04-26T14:50:15.944Z</time></trkpt><trkpt lat="44.06172994545519" lon="10.285285108579865"><ele>724.75</ele><time>2026-04-26T14:50:16.944Z</time></trkpt><trkpt lat="44.061719913227435" lon="10.285093329444765"><ele>701.0</ele><time>2026-04-26T14:50:17.944Z</time></trkpt><trkpt lat="44.061688579824796" lon="10.284919456446818"><ele>701.0</ele><time>2026-04-26T14:50:18.944Z</time></trkpt><trkpt lat="44.06164188177302" lon="10.284766996447575"><ele>701.0</ele><time>2026-04-26T14:50:19.944Z</time></trkpt><trkpt lat="44.06155722041044" lon="10.284626254727694"><ele>701.0</ele><time>2026-04-26T14:50:20.944Z</time></trkpt><trkpt lat="44.06144522341831" lon="10.28449840065129"><ele>701.0</ele><time>2026-04-26T14:50:21.944Z</time></trkpt><trkpt lat="44.06133029713417" lon="10.284387562086435"><ele>717.3333333333333</ele><time>2026-04-26T14:50:22.944Z</time></trkpt><trkpt lat="44.06118557831034" lon="10.284266754040106"><ele>733.6666666666666</ele><time>2026-04-26T14:50:23.944Z</time></trkpt><trkpt lat="44.06102665880985" lon="10.284133579578329"><ele>750.0</ele><time>2026-04-26T14:50:24.944Z</time></trkpt><trkpt lat="44.06089400105766" lon="10.283970200555821"><ele>780.6666666666667</ele><time>2026-04-26T14:50:25.944Z</time></trkpt><trkpt lat="44.06077590109979" lon="10.283774466473206"><ele>811.3333333333334</ele><time>2026-04-26T14:50:26.944Z</time></trkpt><trkpt lat="44.06066623552484" lon="10.283598922390306"><ele>842.0</ele><time>2026-04-26T14:50:27.944Z</time></trkpt><trkpt lat="44.06057495243056" lon="10.28344623977153"><ele>842.0</ele><time>2026-04-26T14:50:28.944Z</time></trkpt><trkpt lat="44.06050950437533" lon="10.283290359757808"><ele>842.0</ele><time>2026-04-26T14:50:29.944Z</time></trkpt><trkpt lat="44.06045151092906" lon="10.283114367088068"><ele>842.0</ele><time>2026-04-26T14:50:30.944Z</time></trkpt><trkpt lat="44.06043317455436" lon="10.282932361327552"><ele>842.0</ele><time>2026-04-26T14:50:31.944Z</time></trkpt><trkpt lat="44.060526919973825" lon="10.282704437535907"><ele>841.3333333333334</ele><time>2026-04-26T14:50:32.944Z</time></trkpt><trkpt lat="44.0606231567336" lon="10.28250093418221"><ele>840.6666666666667</ele><time>2026-04-26T14:50:33.944Z</time></trkpt><trkpt lat="44.06068357644363" lon="10.282295313643086"><ele>840.0</ele><time>2026-04-26T14:50:34.944Z</time></trkpt><trkpt lat="44.06073095267772" lon="10.282072180603436"><ele>834.6666666666667</ele><time>2026-04-26T14:50:35.944Z</time></trkpt><trkpt lat="44.0607366366812" lon="10.281824824025573"><ele>829.3333333333334</ele><time>2026-04-26T14:50:36.944Z</time></trkpt><trkpt lat="44.06073489153272" lon="10.281609033218762"><ele>824.0</ele><time>2026-04-26T14:50:37.944Z</time></trkpt><trkpt lat="44.06074284836931" lon="10.281413120467466"><ele>815.75</ele><time>2026-04-26T14:50:38.944Z</time></trkpt><trkpt lat="44.06072910092271" lon="10.281236538104809"><ele>807.5</ele><time>2026-04-26T14:50:39.944Z</time></trkpt><trkpt lat="44.06068442291642" lon="10.281063334318587"><ele>799.25</ele><time>2026-04-26T14:50:40.944Z</time></trkpt><trkpt lat="44.060609951420176" lon="10.280890858939083"><ele>791.0</ele><time>2026-04-26T14:50:41.944Z</time></trkpt><trkpt lat="44.06051917817042" lon="10.280724846233886"><ele>791.0</ele><time>2026-04-26T14:50:42.944Z</time></trkpt><trkpt lat="44.06037076750953" lon="10.28060463866751"><ele>791.0</ele><time>2026-04-26T14:50:43.944Z</time></trkpt><trkpt lat="44.06023751540589" lon="10.28048382334625"><ele>791.0</ele><time>2026-04-26T14:50:44.944Z</time></trkpt><trkpt lat="44.06011078021937" lon="10.280372515124977"><ele>781.5</ele><time>2026-04-26T14:50:45.944Z</time></trkpt><trkpt lat="44.0600226413752" lon="10.280233786573241"><ele>772.0</ele><time>2026-04-26T14:50:46.944Z</time></trkpt><trkpt lat="44.05996119569461" lon="10.28004527941741"><ele>762.5</ele><time>2026-04-26T14:50:47.944Z</time></trkpt><trkpt lat="44.05990894720741" lon="10.279828580525725"><ele>753.0</ele><time>2026-04-26T14:50:48.944Z</time></trkpt><trkpt lat="44.05988094403133" lon="10.279597742070612"><ele>784.0</ele><time>2026-04-26T14:50:49.944Z</time></trkpt><trkpt lat="44.05983677702028" lon="10.279372111954961"><ele>815.0</ele><time>2026-04-26T14:50:50.944Z</time></trkpt><trkpt lat="44.059792860098575" lon="10.279155630954218"><ele>846.0</ele><time>2026-04-26T14:50:51.944Z</time></trkpt><trkpt lat="44.059758090992155" lon="10.278947078084924"><ele>847.0</ele><time>2026-04-26T14:50:52.944Z</time></trkpt><trkpt lat="44.05974783403444" lon="10.278723705904035"><ele>848.0</ele><time>2026-04-26T14:50:53.944Z</time></trkpt><trkpt lat="44.05983397268093" lon="10.278442904980093"><ele>849.0</ele><time>2026-04-26T14:50:54.944Z</time></trkpt><trkpt lat="44.05989549335422" lon="10.27818524917983"><ele>851.3333333333333</ele><time>2026-04-26T14:50:55.944Z</time></trkpt><trkpt lat="44.059925094675044" lon="10.27794939296303"><ele>853.6666666666666</ele><time>2026-04-26T14:50:56.944Z</time></trkpt><trkpt lat="44.0599696341699" lon="10.277731107624856"><ele>856.0</ele><time>2026-04-26T14:50:57.944Z</time></trkpt><trkpt lat="44.059989487202664" lon="10.27751333750108"><ele>833.5</ele><time>2026-04-26T14:50:58.944Z</time></trkpt><trkpt lat="44.06002247917059" lon="10.27730279651825"><ele>811.0</ele><time>2026-04-26T14:50:59.944Z</time></trkpt><trkpt lat="44.06005040105142" lon="10.277120934333013"><ele>788.5</ele><time>2026-04-26T14:51:00.944Z</time></trkpt><trkpt lat="44.06009000691715" lon="10.276988762060851"><ele>766.0</ele><time>2026-04-26T14:51:01.944Z</time></trkpt><trkpt lat="44.060119014164854" lon="10.27686745329196"><ele>763.5</ele><time>2026-04-26T14:51:02.944Z</time></trkpt><trkpt lat="44.0601466604224" lon="10.276743652638041"><ele>761.0</ele><time>2026-04-26T14:51:03.944Z</time></trkpt><trkpt lat="44.060068922579276" lon="10.276560696899802"><ele>758.5</ele><time>2026-04-26T14:51:04.944Z</time></trkpt><trkpt lat="44.06002175829807" lon="10.276366624304794"><ele>756.0</ele><time>2026-04-26T14:51:05.944Z</time></trkpt><trkpt lat="44.05994800660646" lon="10.276179690944803"><ele>771.5</ele><time>2026-04-26T14:51:06.944Z</time></trkpt><trkpt lat="44.05988661543264" lon="10.275982299333215"><ele>787.0</ele><time>2026-04-26T14:51:07.944Z</time></trkpt><trkpt lat="44.0598312118365" lon="10.275792650103249"><ele>802.5</ele><time>2026-04-26T14:51:08.944Z</time></trkpt><trkpt lat="44.05980843084696" lon="10.27563696309998"><ele>818.0</ele><time>2026-04-26T14:51:09.944Z</time></trkpt><trkpt lat="44.059762377535684" lon="10.275446452510353"><ele>818.0</ele><time>2026-04-26T14:51:10.944Z</time></trkpt><trkpt lat="44.05974184431305" lon="10.27525791037434"><ele>818.0</ele><time>2026-04-26T14:51:11.944Z</time></trkpt><trkpt lat="44.05975593177053" lon="10.275080454185648"><ele>818.0</ele><time>2026-04-26T14:51:12.944Z</time></trkpt><trkpt lat="44.059760072352375" lon="10.27495010584495"><ele>818.0</ele><time>2026-04-26T14:51:13.944Z</time></trkpt><trkpt lat="44.05974636338318" lon="10.274822745261096"><ele>812.8</ele><time>2026-04-26T14:51:14.944Z</time></trkpt><trkpt lat="44.05973782781166" lon="10.274699426054813"><ele>807.5999999999999</ele><time>2026-04-26T14:51:15.944Z</time></trkpt><trkpt lat="44.05970477350618" lon="10.274566462700731"><ele>802.4000000000001</ele><time>2026-04-26T14:51:16.944Z</time></trkpt><trkpt lat="44.05967618336925" lon="10.274445408586333"><ele>797.2</ele><time>2026-04-26T14:51:17.944Z</time></trkpt><trkpt lat="44.05963681187931" lon="10.274329354685861"><ele>792.0</ele><time>2026-04-26T14:51:18.944Z</time></trkpt><trkpt lat="44.05959242114234" lon="10.274189230761467"><ele>792.0</ele><time>2026-04-26T14:51:19.944Z</time></trkpt><trkpt lat="44.05954481293053" lon="10.274029014558227"><ele>792.0</ele><time>2026-04-26T14:51:20.944Z</time></trkpt><trkpt lat="44.059501427057164" lon="10.273857118905164"><ele>792.0</ele><time>2026-04-26T14:51:21.944Z</time></trkpt><trkpt lat="44.05947923063502" lon="10.273687969817177"><ele>792.0</ele><time>2026-04-26T14:51:22.944Z</time></trkpt><trkpt lat="44.05898877781763" lon="10.273536225789922"><ele>773.0</ele><time>2026-04-26T14:51:23.944Z</time></trkpt><trkpt lat="44.058782744706285" lon="10.273392136627395"><ele>754.0</ele><time>2026-04-26T14:51:24.944Z</time></trkpt><trkpt lat="44.05856668751033" lon="10.273252658559816"><ele>754.0</ele><time>2026-04-26T14:51:25.944Z</time></trkpt><trkpt lat="44.05841281381017" lon="10.273136204651752"><ele>754.0</ele><time>2026-04-26T14:51:26.944Z</time></trkpt><trkpt lat="44.05827010850785" lon="10.27302428025573"><ele>754.0</ele><time>2026-04-26T14:51:27.944Z</time></trkpt><trkpt lat="44.05814512028837" lon="10.272930473607646"><ele>755.6</ele><time>2026-04-26T14:51:28.944Z</time></trkpt><trkpt lat="44.05802472491779" lon="10.272849450743326"><ele>757.2</ele><time>2026-04-26T14:51:29.944Z</time></trkpt><trkpt lat="44.057919814545805" lon="10.272767318958222"><ele>758.8000000000001</ele><time>2026-04-26T14:51:30.944Z</time></trkpt><trkpt lat="44.05782783543952" lon="10.272705144987144"><ele>760.4000000000001</ele><time>2026-04-26T14:51:31.944Z</time></trkpt><trkpt lat="44.057751143460656" lon="10.272648666188909"><ele>762.0</ele><time>2026-04-26T14:51:32.944Z</time></trkpt><trkpt lat="44.05768579866472" lon="10.272594309571058"><ele>762.0</ele><time>2026-04-26T14:51:33.944Z</time></trkpt><trkpt lat="44.05760231961482" lon="10.272521591938471"><ele>762.0</ele><time>2026-04-26T14:51:35.944Z</time></trkpt><trkpt lat="44.05752684169713" lon="10.272535857049148"><ele>762.0</ele><time>2026-04-26T14:51:38.943Z</time></trkpt><trkpt lat="44.05752376762405" lon="10.272661692724464"><ele>762.0</ele><time>2026-04-26T14:51:41.943Z</time></trkpt><trkpt lat="44.057587179155" lon="10.272673093894442"><ele>762.0</ele><time>2026-04-26T14:51:46.943Z</time></trkpt><trkpt lat="44.057657006362255" lon="10.272631589689661"><ele>762.0</ele><time>2026-04-26T14:52:30.943Z</time></trkpt><trkpt lat="44.057716214434784" lon="10.272579056594203"><ele>762.0</ele><time>2026-04-26T14:53:03.943Z</time></trkpt><trkpt lat="44.05777435383045" lon="10.272621220786522"><ele>762.0</ele><time>2026-04-26T14:53:09.943Z</time></trkpt><trkpt lat="44.057834404982096" lon="10.272573870358128"><ele>762.0</ele><time>2026-04-26T14:53:16.943Z</time></trkpt><trkpt lat="44.057893219223025" lon="10.272530428890828"><ele>762.0</ele><time>2026-04-26T14:53:24.943Z</time></trkpt><trkpt lat="44.05792034305137" lon="10.272441497424058"><ele>762.0</ele><time>2026-04-26T14:53:32.943Z</time></trkpt><trkpt lat="44.05794635304598" lon="10.272358158704874"><ele>762.0</ele><time>2026-04-26T14:53:40.943Z</time></trkpt><trkpt lat="44.05798965401951" lon="10.27228760314116"><ele>762.0</ele><time>2026-04-26T14:53:46.943Z</time></trkpt><trkpt lat="44.05802825929699" lon="10.27221550531493"><ele>762.0</ele><time>2026-04-26T14:53:51.943Z</time></trkpt><trkpt lat="44.05808626488968" lon="10.272157625155373"><ele>762.0</ele><time>2026-04-26T14:53:57.943Z</time></trkpt><trkpt lat="44.058126028612755" lon="10.272068293946202"><ele>762.0</ele><time>2026-04-26T14:54:04.943Z</time></trkpt><trkpt lat="44.05817305678509" lon="10.27198585847131"><ele>762.0</ele><time>2026-04-26T14:54:09.943Z</time></trkpt><trkpt lat="44.05816309583173" lon="10.271858769691002"><ele>762.0</ele><time>2026-04-26T14:54:19.943Z</time></trkpt><trkpt lat="44.05819212984076" lon="10.271775583013998"><ele>762.0</ele><time>2026-04-26T14:54:23.943Z</time></trkpt><trkpt lat="44.05818022854491" lon="10.271904618347719"><ele>762.0</ele><time>2026-04-26T14:55:30.943Z</time></trkpt><trkpt lat="44.05818655384346" lon="10.27180472775748"><ele>762.0</ele><time>2026-04-26T14:56:31.943Z</time></trkpt><trkpt lat="44.05815477710654" lon="10.271896625166374"><ele>762.0</ele><time>2026-04-26T14:57:06.943Z</time></trkpt><trkpt lat="44.05812046176095" lon="10.271822344676183"><ele>762.0</ele><time>2026-04-26T14:57:16.943Z</time></trkpt><trkpt lat="44.058125269305954" lon="10.271668810134688"><ele>762.0</ele><time>2026-04-26T14:57:31.943Z</time></trkpt><trkpt lat="44.058057475172504" lon="10.271631552636384"><ele>762.0</ele><time>2026-04-26T14:57:39.943Z</time></trkpt><trkpt lat="44.057982059066994" lon="10.271623712754362"><ele>762.0</ele><time>2026-04-26T14:57:41.943Z</time></trkpt><trkpt lat="44.0579257014316" lon="10.271688691441627"><ele>762.0</ele><time>2026-04-26T14:57:44.943Z</time></trkpt><trkpt lat="44.05784039030958" lon="10.271726804848313"><ele>762.0</ele><time>2026-04-26T14:57:47.943Z</time></trkpt><trkpt lat="44.05775763021037" lon="10.271702415403041"><ele>762.0</ele><time>2026-04-26T14:57:49.943Z</time></trkpt><trkpt lat="44.05769331094531" lon="10.271690760188081"><ele>762.0</ele><time>2026-04-26T14:57:50.943Z</time></trkpt><trkpt lat="44.05762437523612" lon="10.271678503744461"><ele>762.0</ele><time>2026-04-26T14:57:51.943Z</time></trkpt><trkpt lat="44.057553906746925" lon="10.271696589734201"><ele>762.0</ele><time>2026-04-26T14:57:53.943Z</time></trkpt><trkpt lat="44.05754970910173" lon="10.271789961656536"><ele>762.0</ele><time>2026-04-26T14:57:55.943Z</time></trkpt><trkpt lat="44.05763619132562" lon="10.2719543508983"><ele>762.0</ele><time>2026-04-26T14:57:58.942Z</time></trkpt><trkpt lat="44.0576815707278" lon="10.272021111385799"><ele>762.0</ele><time>2026-04-26T14:57:59.942Z</time></trkpt><trkpt lat="44.05774069953056" lon="10.272094989056173"><ele>762.0</ele><time>2026-04-26T14:58:01.943Z</time></trkpt><trkpt lat="44.05774917742659" lon="10.27218787723734"><ele>762.0</ele><time>2026-04-26T14:58:03.943Z</time></trkpt><trkpt lat="44.057808482345514" lon="10.272296388373931"><ele>762.0</ele><time>2026-04-26T14:58:06.943Z</time></trkpt><trkpt lat="44.057843951727065" lon="10.272390585514746"><ele>762.0</ele><time>2026-04-26T14:58:09.943Z</time></trkpt><trkpt lat="44.05783722905788" lon="10.272488170757244"><ele>762.0</ele><time>2026-04-26T14:58:14.943Z</time></trkpt><trkpt lat="44.057791318037644" lon="10.272562616100462"><ele>762.0</ele><time>2026-04-26T14:58:19.943Z</time></trkpt><trkpt lat="44.057741755352154" lon="10.272619021878711"><ele>762.0</ele><time>2026-04-26T14:58:24.943Z</time></trkpt><trkpt lat="44.057670488226115" lon="10.27263329229317"><ele>762.0</ele><time>2026-04-26T14:58:31.943Z</time></trkpt><trkpt lat="44.057602216025835" lon="10.272638164519794"><ele>762.0</ele><time>2026-04-26T14:58:38.943Z</time></trkpt><trkpt lat="44.057798878570054" lon="10.27267301444539"><ele>762.0</ele><time>2026-04-26T15:01:25.943Z</time></trkpt><trkpt lat="44.0578946762602" lon="10.272761620020471"><ele>762.0</ele><time>2026-04-26T15:01:27.943Z</time></trkpt><trkpt lat="44.05795103225377" lon="10.272812935388824"><ele>762.0</ele><time>2026-04-26T15:01:28.943Z</time></trkpt><trkpt lat="44.0580131843612" lon="10.272866774007047"><ele>762.0</ele><time>2026-04-26T15:01:29.943Z</time></trkpt><trkpt lat="44.058093226909875" lon="10.272936169428222"><ele>762.0</ele><time>2026-04-26T15:01:30.943Z</time></trkpt><trkpt lat="44.05818225088592" lon="10.273006685240748"><ele>762.0</ele><time>2026-04-26T15:01:31.943Z</time></trkpt><trkpt lat="44.05827712125647" lon="10.27307523415603"><ele>762.0</ele><time>2026-04-26T15:01:32.943Z</time></trkpt><trkpt lat="44.05837143550051" lon="10.273157442518457"><ele>762.0</ele><time>2026-04-26T15:01:33.943Z</time></trkpt><trkpt lat="44.05846502699369" lon="10.273248092302433"><ele>762.0</ele><time>2026-04-26T15:01:34.943Z</time></trkpt><trkpt lat="44.05858272756692" lon="10.273337738628108"><ele>760.0</ele><time>2026-04-26T15:01:35.943Z</time></trkpt><trkpt lat="44.05870255953842" lon="10.273445642451561"><ele>758.0</ele><time>2026-04-26T15:01:36.943Z</time></trkpt><trkpt lat="44.058805705940564" lon="10.27358056962216"><ele>756.0</ele><time>2026-04-26T15:01:37.943Z</time></trkpt><trkpt lat="44.05891250909444" lon="10.273723416298353"><ele>754.0</ele><time>2026-04-26T15:01:38.943Z</time></trkpt><trkpt lat="44.05902435616938" lon="10.27387421222446"><ele>766.6666666666667</ele><time>2026-04-26T15:01:39.943Z</time></trkpt><trkpt lat="44.059136778248245" lon="10.274024309469446"><ele>779.3333333333334</ele><time>2026-04-26T15:01:40.943Z</time></trkpt><trkpt lat="44.05924621092311" lon="10.274174554734927"><ele>792.0</ele><time>2026-04-26T15:01:41.943Z</time></trkpt><trkpt lat="44.05936379426749" lon="10.274319981677277"><ele>792.0</ele><time>2026-04-26T15:01:42.943Z</time></trkpt><trkpt lat="44.059477363047236" lon="10.274462393313584"><ele>792.0</ele><time>2026-04-26T15:01:43.943Z</time></trkpt><trkpt lat="44.05959212194711" lon="10.274611115248494"><ele>792.0</ele><time>2026-04-26T15:01:44.943Z</time></trkpt><trkpt lat="44.059704417240575" lon="10.274758943099563"><ele>791.6666666666667</ele><time>2026-04-26T15:01:45.943Z</time></trkpt><trkpt lat="44.059817662777064" lon="10.27490617177561"><ele>791.3333333333334</ele><time>2026-04-26T15:01:46.943Z</time></trkpt><trkpt lat="44.059932423572164" lon="10.27497452072519"><ele>791.0</ele><time>2026-04-26T15:01:47.943Z</time></trkpt><trkpt lat="44.06004065927995" lon="10.275206361064207"><ele>797.75</ele><time>2026-04-26T15:01:48.943Z</time></trkpt><trkpt lat="44.05989496381586" lon="10.27525031941069"><ele>804.5</ele><time>2026-04-26T15:01:49.943Z</time></trkpt><trkpt lat="44.05985569861448" lon="10.275429411446416"><ele>811.25</ele><time>2026-04-26T15:01:50.943Z</time></trkpt><trkpt lat="44.059822828011924" lon="10.275617412522056"><ele>818.0</ele><time>2026-04-26T15:01:51.943Z</time></trkpt><trkpt lat="44.05985505215229" lon="10.275820619295764"><ele>828.3333333333334</ele><time>2026-04-26T15:01:52.943Z</time></trkpt><trkpt lat="44.05991303444293" lon="10.27602755199559"><ele>838.6666666666667</ele><time>2026-04-26T15:01:53.943Z</time></trkpt><trkpt lat="44.059972967758405" lon="10.276240016468517"><ele>849.0</ele><time>2026-04-26T15:01:54.943Z</time></trkpt><trkpt lat="44.060039577498046" lon="10.276442593159674"><ele>825.75</ele><time>2026-04-26T15:01:55.943Z</time></trkpt><trkpt lat="44.060095976899845" lon="10.276634539607516"><ele>802.5</ele><time>2026-04-26T15:01:56.943Z</time></trkpt><trkpt lat="44.060142209953156" lon="10.27679938349778"><ele>779.25</ele><time>2026-04-26T15:01:57.943Z</time></trkpt><trkpt lat="44.06016820485862" lon="10.276946200987691"><ele>756.0</ele><time>2026-04-26T15:01:58.943Z</time></trkpt><trkpt lat="44.06019147213329" lon="10.277091224534919"><ele>756.0</ele><time>2026-04-26T15:01:59.943Z</time></trkpt><trkpt lat="44.06016969188879" lon="10.27724145198049"><ele>756.0</ele><time>2026-04-26T15:02:00.943Z</time></trkpt><trkpt lat="44.06011578555115" lon="10.2774195993328"><ele>756.0</ele><time>2026-04-26T15:02:01.943Z</time></trkpt><trkpt lat="44.060065059260936" lon="10.277626312057711"><ele>756.0</ele><time>2026-04-26T15:02:02.943Z</time></trkpt><trkpt lat="44.060030233696594" lon="10.277844047645797"><ele>755.3333333333334</ele><time>2026-04-26T15:02:03.943Z</time></trkpt><trkpt lat="44.06000825007942" lon="10.278068113123267"><ele>754.6666666666667</ele><time>2026-04-26T15:02:04.943Z</time></trkpt><trkpt lat="44.05999425259691" lon="10.278292672827348"><ele>754.0</ele><time>2026-04-26T15:02:05.943Z</time></trkpt><trkpt lat="44.05995315223589" lon="10.278506123776674"><ele>784.6666666666667</ele><time>2026-04-26T15:02:06.942Z</time></trkpt><trkpt lat="44.05991392352965" lon="10.278713061326622"><ele>815.3333333333334</ele><time>2026-04-26T15:02:07.942Z</time></trkpt><trkpt lat="44.05988034127546" lon="10.278918584783838"><ele>846.0</ele><time>2026-04-26T15:02:08.942Z</time></trkpt><trkpt lat="44.059878152563655" lon="10.27913140823381"><ele>846.0</ele><time>2026-04-26T15:02:09.942Z</time></trkpt><trkpt lat="44.0598980742666" lon="10.27935788848749"><ele>846.0</ele><time>2026-04-26T15:02:10.942Z</time></trkpt><trkpt lat="44.05990105744449" lon="10.279596136583633"><ele>846.0</ele><time>2026-04-26T15:02:11.942Z</time></trkpt><trkpt lat="44.05993693216628" lon="10.279812224792545"><ele>822.75</ele><time>2026-04-26T15:02:12.942Z</time></trkpt><trkpt lat="44.05997083291968" lon="10.280011983940252"><ele>799.5</ele><time>2026-04-26T15:02:13.942Z</time></trkpt><trkpt lat="44.06000055960055" lon="10.280196182258967"><ele>776.25</ele><time>2026-04-26T15:02:14.942Z</time></trkpt><trkpt lat="44.060062746479346" lon="10.280369812032303"><ele>753.0</ele><time>2026-04-26T15:02:15.942Z</time></trkpt><trkpt lat="44.06018751175452" lon="10.280529231374452"><ele>765.6666666666667</ele><time>2026-04-26T15:02:16.942Z</time></trkpt><trkpt lat="44.060326151015374" lon="10.280671209021898"><ele>778.3333333333334</ele><time>2026-04-26T15:02:17.942Z</time></trkpt><trkpt lat="44.06046341397327" lon="10.28081484361103"><ele>791.0</ele><time>2026-04-26T15:02:18.942Z</time></trkpt><trkpt lat="44.060560738009" lon="10.280962314913536"><ele>791.0</ele><time>2026-04-26T15:02:19.942Z</time></trkpt><trkpt lat="44.06064138514941" lon="10.281113858818848"><ele>791.0</ele><time>2026-04-26T15:02:20.942Z</time></trkpt><trkpt lat="44.06069768489322" lon="10.2812899205022"><ele>791.0</ele><time>2026-04-26T15:02:21.942Z</time></trkpt><trkpt lat="44.060729900803565" lon="10.281493106898251"><ele>791.0</ele><time>2026-04-26T15:02:22.942Z</time></trkpt><trkpt lat="44.06074039985909" lon="10.281719630390029"><ele>802.0</ele><time>2026-04-26T15:02:23.942Z</time></trkpt><trkpt lat="44.060749562571814" lon="10.281962763484252"><ele>813.0</ele><time>2026-04-26T15:02:24.942Z</time></trkpt><trkpt lat="44.06074278296133" lon="10.282179712421204"><ele>824.0</ele><time>2026-04-26T15:02:25.942Z</time></trkpt><trkpt lat="44.06073063933946" lon="10.28237785934351"><ele>828.0</ele><time>2026-04-26T15:02:26.942Z</time></trkpt><trkpt lat="44.06069780110969" lon="10.282568153152415"><ele>832.0</ele><time>2026-04-26T15:02:27.942Z</time></trkpt><trkpt lat="44.0606413423248" lon="10.282740722301046"><ele>836.0</ele><time>2026-04-26T15:02:28.942Z</time></trkpt><trkpt lat="44.060585411971125" lon="10.282904784682504"><ele>840.0</ele><time>2026-04-26T15:02:29.942Z</time></trkpt><trkpt lat="44.06055738065802" lon="10.283071041270697"><ele>840.5</ele><time>2026-04-26T15:02:30.942Z</time></trkpt><trkpt lat="44.06055014296645" lon="10.283240283827364"><ele>841.0</ele><time>2026-04-26T15:02:31.942Z</time></trkpt><trkpt lat="44.06057071910122" lon="10.283437768171078"><ele>841.5</ele><time>2026-04-26T15:02:32.942Z</time></trkpt><trkpt lat="44.060652273180715" lon="10.28360354728416"><ele>842.0</ele><time>2026-04-26T15:02:33.942Z</time></trkpt><trkpt lat="44.060803938286206" lon="10.283771405281268"><ele>811.3333333333334</ele><time>2026-04-26T15:02:34.942Z</time></trkpt><trkpt lat="44.06095027762711" lon="10.283940913563587"><ele>780.6666666666667</ele><time>2026-04-26T15:02:35.942Z</time></trkpt><trkpt lat="44.06104568332588" lon="10.284107993400756"><ele>750.0</ele><time>2026-04-26T15:02:36.942Z</time></trkpt><trkpt lat="44.06115686514365" lon="10.284252943931119"><ele>750.0</ele><time>2026-04-26T15:02:37.942Z</time></trkpt><trkpt lat="44.06128564890499" lon="10.284372835371428"><ele>750.0</ele><time>2026-04-26T15:02:38.942Z</time></trkpt><trkpt lat="44.06141437634801" lon="10.284484984183422"><ele>750.0</ele><time>2026-04-26T15:02:39.942Z</time></trkpt><trkpt lat="44.061539517557144" lon="10.284597474197096"><ele>737.75</ele><time>2026-04-26T15:02:40.942Z</time></trkpt><trkpt lat="44.061642591623006" lon="10.284716998267251"><ele>725.5</ele><time>2026-04-26T15:02:41.942Z</time></trkpt><trkpt lat="44.06173015210984" lon="10.284882331867376"><ele>713.25</ele><time>2026-04-26T15:02:42.942Z</time></trkpt><trkpt lat="44.06178899577557" lon="10.285088081748974"><ele>701.0</ele><time>2026-04-26T15:02:43.942Z</time></trkpt><trkpt lat="44.06180905159969" lon="10.285308707786214"><ele>701.0</ele><time>2026-04-26T15:02:44.942Z</time></trkpt><trkpt lat="44.061778580320805" lon="10.28552564453682"><ele>701.0</ele><time>2026-04-26T15:02:45.942Z</time></trkpt><trkpt lat="44.06168842352468" lon="10.285744984610067"><ele>701.0</ele><time>2026-04-26T15:02:46.942Z</time></trkpt><trkpt lat="44.061603206614215" lon="10.285961362918433"><ele>729.3333333333333</ele><time>2026-04-26T15:02:47.942Z</time></trkpt><trkpt lat="44.061526608582696" lon="10.286174654857803"><ele>757.6666666666666</ele><time>2026-04-26T15:02:48.942Z</time></trkpt><trkpt lat="44.061455879319496" lon="10.28638811412226"><ele>786.0</ele><time>2026-04-26T15:02:49.942Z</time></trkpt><trkpt lat="44.06140026973138" lon="10.2865915537738"><ele>786.0</ele><time>2026-04-26T15:02:50.942Z</time></trkpt><trkpt lat="44.0613855403692" lon="10.286837454568213"><ele>786.0</ele><time>2026-04-26T15:02:51.942Z</time></trkpt><trkpt lat="44.06139163644903" lon="10.287104050670342"><ele>786.0</ele><time>2026-04-26T15:02:52.942Z</time></trkpt><trkpt lat="44.061395637489845" lon="10.287345732056911"><ele>783.6666666666667</ele><time>2026-04-26T15:02:53.942Z</time></trkpt><trkpt lat="44.06139246035132" lon="10.287564419232142"><ele>781.3333333333334</ele><time>2026-04-26T15:02:54.942Z</time></trkpt><trkpt lat="44.06139505318428" lon="10.287775276531045"><ele>779.0</ele><time>2026-04-26T15:02:55.942Z</time></trkpt><trkpt lat="44.06141489674803" lon="10.287986929990572"><ele>782.0</ele><time>2026-04-26T15:02:56.942Z</time></trkpt><trkpt lat="44.06148872903395" lon="10.288175169529902"><ele>785.0</ele><time>2026-04-26T15:02:57.942Z</time></trkpt><trkpt lat="44.061593569364504" lon="10.28835624239008"><ele>788.0</ele><time>2026-04-26T15:02:58.942Z</time></trkpt><trkpt lat="44.06169191171585" lon="10.288561373593813"><ele>765.3333333333334</ele><time>2026-04-26T15:02:59.942Z</time></trkpt><trkpt lat="44.06179334581041" lon="10.288763606309839"><ele>742.6666666666667</ele><time>2026-04-26T15:03:00.942Z</time></trkpt><trkpt lat="44.06188670015952" lon="10.288947046875252"><ele>720.0</ele><time>2026-04-26T15:03:01.942Z</time></trkpt><trkpt lat="44.06197876338925" lon="10.289110656873024"><ele>720.0</ele><time>2026-04-26T15:03:02.942Z</time></trkpt><trkpt lat="44.06208913670138" lon="10.289230954686811"><ele>720.0</ele><time>2026-04-26T15:03:03.942Z</time></trkpt><trkpt lat="44.06220115194997" lon="10.289319557572787"><ele>720.0</ele><time>2026-04-26T15:03:04.942Z</time></trkpt><trkpt lat="44.062348162068396" lon="10.28933188632262"><ele>720.0</ele><time>2026-04-26T15:03:05.942Z</time></trkpt><trkpt lat="44.06250264309431" lon="10.289362566340829"><ele>712.4</ele><time>2026-04-26T15:03:06.942Z</time></trkpt><trkpt lat="44.062616451552664" lon="10.28941551886173"><ele>704.8</ele><time>2026-04-26T15:03:07.942Z</time></trkpt><trkpt lat="44.06268794262568" lon="10.289502631089354"><ele>697.2</ele><time>2026-04-26T15:03:08.942Z</time></trkpt><trkpt lat="44.0627336933864" lon="10.289633097083891"><ele>689.6</ele><time>2026-04-26T15:03:09.942Z</time></trkpt><trkpt lat="44.0627258719417" lon="10.289808817386048"><ele>682.0</ele><time>2026-04-26T15:03:10.942Z</time></trkpt><trkpt lat="44.0626654244358" lon="10.289967283936125"><ele>681.3333333333334</ele><time>2026-04-26T15:03:11.942Z</time></trkpt><trkpt lat="44.062570501757996" lon="10.290130885167647"><ele>680.6666666666666</ele><time>2026-04-26T15:03:12.942Z</time></trkpt><trkpt lat="44.062451052412406" lon="10.290271561422482"><ele>680.0</ele><time>2026-04-26T15:03:13.942Z</time></trkpt><trkpt lat="44.06234067105247" lon="10.290444470852256"><ele>708.0</ele><time>2026-04-26T15:03:14.942Z</time></trkpt><trkpt lat="44.062236226015294" lon="10.290622159743656"><ele>736.0</ele><time>2026-04-26T15:03:15.942Z</time></trkpt><trkpt lat="44.062147173468134" lon="10.290820307128689"><ele>764.0</ele><time>2026-04-26T15:03:16.942Z</time></trkpt><trkpt lat="44.062074999252786" lon="10.291046135902988"><ele>764.0</ele><time>2026-04-26T15:03:17.942Z</time></trkpt><trkpt lat="44.062010327796166" lon="10.29126795711737"><ele>764.0</ele><time>2026-04-26T15:03:18.942Z</time></trkpt><trkpt lat="44.061965762188045" lon="10.291508736633592"><ele>764.0</ele><time>2026-04-26T15:03:19.942Z</time></trkpt><trkpt lat="44.061914821124994" lon="10.291734525642346"><ele>754.3333333333333</ele><time>2026-04-26T15:03:20.942Z</time></trkpt><trkpt lat="44.06189831805032" lon="10.29195615306986"><ele>744.6666666666666</ele><time>2026-04-26T15:03:21.942Z</time></trkpt><trkpt lat="44.06190750988946" lon="10.292179573499993"><ele>735.0</ele><time>2026-04-26T15:03:22.942Z</time></trkpt><trkpt lat="44.06194471200871" lon="10.292398968982202"><ele>722.6666666666666</ele><time>2026-04-26T15:03:23.942Z</time></trkpt><trkpt lat="44.061991551842816" lon="10.292614407109998"><ele>710.3333333333333</ele><time>2026-04-26T15:03:24.942Z</time></trkpt><trkpt lat="44.062022420589045" lon="10.292823834429706"><ele>698.0</ele><time>2026-04-26T15:03:25.942Z</time></trkpt><trkpt lat="44.06202478937427" lon="10.293038077571003"><ele>689.6666666666666</ele><time>2026-04-26T15:03:26.942Z</time></trkpt><trkpt lat="44.06201128066987" lon="10.293262199509865"><ele>681.3333333333334</ele><time>2026-04-26T15:03:27.942Z</time></trkpt><trkpt lat="44.06195685985461" lon="10.293475396423108"><ele>673.0</ele><time>2026-04-26T15:03:28.942Z</time></trkpt><trkpt lat="44.06190174611716" lon="10.293665709544278"><ele>673.0</ele><time>2026-04-26T15:03:29.942Z</time></trkpt><trkpt lat="44.06182615816493" lon="10.293807305391118"><ele>673.0</ele><time>2026-04-26T15:03:30.942Z</time></trkpt><trkpt lat="44.06172422438683" lon="10.293909636960693"><ele>673.0</ele><time>2026-04-26T15:03:31.942Z</time></trkpt><trkpt lat="44.061592681746674" lon="10.293980945701973"><ele>673.0</ele><time>2026-04-26T15:03:32.942Z</time></trkpt><trkpt lat="44.06143316561732" lon="10.294030529716977"><ele>674.6666666666667</ele><time>2026-04-26T15:03:33.942Z</time></trkpt><trkpt lat="44.06128106571247" lon="10.294090136487853"><ele>676.3333333333334</ele><time>2026-04-26T15:03:34.942Z</time></trkpt><trkpt lat="44.06114452497885" lon="10.294175542665826"><ele>678.0</ele><time>2026-04-26T15:03:35.942Z</time></trkpt><trkpt lat="44.06102279192469" lon="10.294306819986264"><ele>678.0</ele><time>2026-04-26T15:03:36.942Z</time></trkpt><trkpt lat="44.060911467602814" lon="10.29445738765038"><ele>678.0</ele><time>2026-04-26T15:03:37.942Z</time></trkpt><trkpt lat="44.06082412241106" lon="10.294612445458945"><ele>678.0</ele><time>2026-04-26T15:03:38.942Z</time></trkpt><trkpt lat="44.06076188187188" lon="10.29475742513649"><ele>678.0</ele><time>2026-04-26T15:03:39.942Z</time></trkpt><trkpt lat="44.06074562972281" lon="10.294967006823995"><ele>673.0</ele><time>2026-04-26T15:03:40.942Z</time></trkpt><trkpt lat="44.06075850047363" lon="10.295185451516094"><ele>668.0</ele><time>2026-04-26T15:03:41.942Z</time></trkpt><trkpt lat="44.060806515251066" lon="10.295418032296247"><ele>663.0</ele><time>2026-04-26T15:03:42.942Z</time></trkpt><trkpt lat="44.060842723365234" lon="10.29566604745119"><ele>660.6666666666666</ele><time>2026-04-26T15:03:43.942Z</time></trkpt><trkpt lat="44.060842468087664" lon="10.29591721099349"><ele>658.3333333333333</ele><time>2026-04-26T15:03:44.942Z</time></trkpt><trkpt lat="44.06082991552785" lon="10.296179570558547"><ele>656.0</ele><time>2026-04-26T15:03:45.942Z</time></trkpt><trkpt lat="44.06082805375956" lon="10.296440741239763"><ele>654.0</ele><time>2026-04-26T15:03:46.942Z</time></trkpt><trkpt lat="44.0608395519666" lon="10.296708278283983"><ele>652.0</ele><time>2026-04-26T15:03:47.942Z</time></trkpt><trkpt lat="44.0608532505123" lon="10.296981101103958"><ele>650.0</ele><time>2026-04-26T15:03:48.942Z</time></trkpt><trkpt lat="44.0608639926463" lon="10.297240192559656"><ele>649.0</ele><time>2026-04-26T15:03:49.942Z</time></trkpt><trkpt lat="44.06087596871415" lon="10.297491122188346"><ele>648.0</ele><time>2026-04-26T15:03:50.942Z</time></trkpt><trkpt lat="44.06088142982054" lon="10.297729343848868"><ele>647.0</ele><time>2026-04-26T15:03:51.942Z</time></trkpt><trkpt lat="44.060891544732094" lon="10.297953348405732"><ele>647.0</ele><time>2026-04-26T15:03:52.942Z</time></trkpt><trkpt lat="44.06089208693008" lon="10.298165202576417"><ele>647.0</ele><time>2026-04-26T15:03:53.942Z</time></trkpt><trkpt lat="44.06086448911107" lon="10.298369688189545"><ele>647.0</ele><time>2026-04-26T15:03:54.942Z</time></trkpt><trkpt lat="44.06082011549693" lon="10.298558728560957"><ele>647.0</ele><time>2026-04-26T15:03:55.942Z</time></trkpt><trkpt lat="44.060776849881805" lon="10.298734334682404"><ele>650.25</ele><time>2026-04-26T15:03:56.942Z</time></trkpt><trkpt lat="44.06074629164093" lon="10.298884865404188"><ele>653.5</ele><time>2026-04-26T15:03:57.942Z</time></trkpt><trkpt lat="44.06075562335549" lon="10.299049133141276"><ele>656.75</ele><time>2026-04-26T15:03:58.942Z</time></trkpt><trkpt lat="44.060807371016416" lon="10.299226609651921"><ele>660.0</ele><time>2026-04-26T15:03:59.942Z</time></trkpt><trkpt lat="44.06090483304972" lon="10.299371668082545"><ele>660.0</ele><time>2026-04-26T15:04:00.942Z</time></trkpt><trkpt lat="44.06097946043291" lon="10.299528445391593"><ele>660.0</ele><time>2026-04-26T15:04:01.942Z</time></trkpt><trkpt lat="44.06102733645722" lon="10.299691066742653"><ele>660.0</ele><time>2026-04-26T15:04:02.942Z</time></trkpt><trkpt lat="44.061057369989015" lon="10.29988399468834"><ele>660.0</ele><time>2026-04-26T15:04:03.942Z</time></trkpt><trkpt lat="44.06105651547958" lon="10.300092191990757"><ele>656.25</ele><time>2026-04-26T15:04:04.942Z</time></trkpt><trkpt lat="44.061065857528" lon="10.300280145912666"><ele>652.5</ele><time>2026-04-26T15:04:05.942Z</time></trkpt><trkpt lat="44.06106446760977" lon="10.300465099924835"><ele>648.75</ele><time>2026-04-26T15:04:06.942Z</time></trkpt><trkpt lat="44.06102753601163" lon="10.300633978804646"><ele>645.0</ele><time>2026-04-26T15:04:07.942Z</time></trkpt><trkpt lat="44.06094455486612" lon="10.300822609281626"><ele>642.0</ele><time>2026-04-26T15:04:08.942Z</time></trkpt><trkpt lat="44.060889972531214" lon="10.300943204128679"><ele>639.0</ele><time>2026-04-26T15:04:09.942Z</time></trkpt><trkpt lat="44.06075721801627" lon="10.301059832293921"><ele>636.0</ele><time>2026-04-26T15:04:10.943Z</time></trkpt><trkpt lat="44.06073540613368" lon="10.301258637016675"><ele>633.0</ele><time>2026-04-26T15:04:11.943Z</time></trkpt><trkpt lat="44.06074911717971" lon="10.301468090088845"><ele>644.25</ele><time>2026-04-26T15:04:12.941Z</time></trkpt><trkpt lat="44.060682177239364" lon="10.301671039656785"><ele>655.5</ele><time>2026-04-26T15:04:13.941Z</time></trkpt><trkpt lat="44.06061288159336" lon="10.30184641595033"><ele>666.75</ele><time>2026-04-26T15:04:14.941Z</time></trkpt><trkpt lat="44.06056271072877" lon="10.302014751362083"><ele>678.0</ele><time>2026-04-26T15:04:15.941Z</time></trkpt><trkpt lat="44.06052546097411" lon="10.30217236548425"><ele>673.6666666666666</ele><time>2026-04-26T15:04:16.941Z</time></trkpt><trkpt lat="44.06054002097724" lon="10.302339511905714"><ele>669.3333333333333</ele><time>2026-04-26T15:04:17.941Z</time></trkpt><trkpt lat="44.060599605277446" lon="10.302556262874612"><ele>665.0</ele><time>2026-04-26T15:04:18.942Z</time></trkpt><trkpt lat="44.060641686225" lon="10.30277798585016"><ele>665.0</ele><time>2026-04-26T15:04:19.941Z</time></trkpt><trkpt lat="44.06070886937027" lon="10.302989345992742"><ele>665.0</ele><time>2026-04-26T15:04:20.941Z</time></trkpt><trkpt lat="44.060797960172195" lon="10.303241504671481"><ele>665.0</ele><time>2026-04-26T15:04:21.941Z</time></trkpt><trkpt lat="44.06087385804271" lon="10.303456398724945"><ele>655.75</ele><time>2026-04-26T15:04:22.941Z</time></trkpt><trkpt lat="44.060934010815565" lon="10.303653736051656"><ele>646.5</ele><time>2026-04-26T15:04:23.941Z</time></trkpt><trkpt lat="44.060982816271704" lon="10.303847033342588"><ele>637.25</ele><time>2026-04-26T15:04:24.941Z</time></trkpt><trkpt lat="44.061001812257075" lon="10.304036456412309"><ele>628.0</ele><time>2026-04-26T15:04:25.941Z</time></trkpt><trkpt lat="44.060985957485514" lon="10.304198431613084"><ele>625.0</ele><time>2026-04-26T15:04:26.941Z</time></trkpt><trkpt lat="44.06094015428036" lon="10.304374549458393"><ele>622.0</ele><time>2026-04-26T15:04:27.941Z</time></trkpt><trkpt lat="44.06087209054928" lon="10.304522861655284"><ele>619.0</ele><time>2026-04-26T15:04:28.941Z</time></trkpt><trkpt lat="44.060822325940634" lon="10.30463676467937"><ele>616.0</ele><time>2026-04-26T15:04:29.941Z</time></trkpt><trkpt lat="44.06081213852184" lon="10.304752752228495"><ele>613.0</ele><time>2026-04-26T15:04:30.941Z</time></trkpt><trkpt lat="44.06085549053504" lon="10.304895038800836"><ele>608.6666666666667</ele><time>2026-04-26T15:04:31.941Z</time></trkpt><trkpt lat="44.0609400857911" lon="10.305065806939544"><ele>604.3333333333334</ele><time>2026-04-26T15:04:32.941Z</time></trkpt><trkpt lat="44.06103185376334" lon="10.30526407441223"><ele>600.0</ele><time>2026-04-26T15:04:33.941Z</time></trkpt><trkpt lat="44.061087809245976" lon="10.305455046399462"><ele>598.25</ele><time>2026-04-26T15:04:34.941Z</time></trkpt><trkpt lat="44.061117481824446" lon="10.30564083952368"><ele>596.5</ele><time>2026-04-26T15:04:35.941Z</time></trkpt><trkpt lat="44.061138748148224" lon="10.305825081171399"><ele>594.75</ele><time>2026-04-26T15:04:36.941Z</time></trkpt><trkpt lat="44.061132128780116" lon="10.306017342865601"><ele>593.0</ele><time>2026-04-26T15:04:37.941Z</time></trkpt><trkpt lat="44.061075942252835" lon="10.30621766007193"><ele>593.0</ele><time>2026-04-26T15:04:38.941Z</time></trkpt><trkpt lat="44.06100929230342" lon="10.306404354424252"><ele>593.0</ele><time>2026-04-26T15:04:39.941Z</time></trkpt><trkpt lat="44.06095678091419" lon="10.306570187637819"><ele>593.0</ele><time>2026-04-26T15:04:40.941Z</time></trkpt><trkpt lat="44.06093376497679" lon="10.306739659180897"><ele>593.0</ele><time>2026-04-26T15:04:41.941Z</time></trkpt><trkpt lat="44.06095699722206" lon="10.306961613941192"><ele>591.6666666666666</ele><time>2026-04-26T15:04:42.941Z</time></trkpt><trkpt lat="44.06099279374214" lon="10.3071934306855"><ele>590.3333333333334</ele><time>2026-04-26T15:04:43.941Z</time></trkpt><trkpt lat="44.06100404629815" lon="10.307426890930142"><ele>589.0</ele><time>2026-04-26T15:04:44.941Z</time></trkpt><trkpt lat="44.06103495357685" lon="10.30762600223843"><ele>588.0</ele><time>2026-04-26T15:04:45.941Z</time></trkpt><trkpt lat="44.061077905957475" lon="10.307822241335112"><ele>587.0</ele><time>2026-04-26T15:04:46.941Z</time></trkpt><trkpt lat="44.06110465227689" lon="10.308029698691092"><ele>586.0</ele><time>2026-04-26T15:04:47.941Z</time></trkpt><trkpt lat="44.061126127033496" lon="10.308221926447912"><ele>585.0</ele><time>2026-04-26T15:04:48.941Z</time></trkpt><trkpt lat="44.06115362366361" lon="10.30838861576663"><ele>582.75</ele><time>2026-04-26T15:04:49.941Z</time></trkpt><trkpt lat="44.06120020059271" lon="10.3085307934287"><ele>580.5</ele><time>2026-04-26T15:04:50.941Z</time></trkpt><trkpt lat="44.06128849953845" lon="10.30862360945939"><ele>578.25</ele><time>2026-04-26T15:04:51.941Z</time></trkpt><trkpt lat="44.061401703860746" lon="10.308662761770476"><ele>576.0</ele><time>2026-04-26T15:04:52.941Z</time></trkpt><trkpt lat="44.06151137415365" lon="10.308673834049404"><ele>575.0</ele><time>2026-04-26T15:04:53.941Z</time></trkpt><trkpt lat="44.06163491069891" lon="10.308659056329448"><ele>574.0</ele><time>2026-04-26T15:04:54.941Z</time></trkpt><trkpt lat="44.06174901104052" lon="10.30867596603342"><ele>573.0</ele><time>2026-04-26T15:04:55.941Z</time></trkpt><trkpt lat="44.06184669465469" lon="10.308780907368496"><ele>572.0</ele><time>2026-04-26T15:04:56.941Z</time></trkpt><trkpt lat="44.0619432798774" lon="10.308934386729801"><ele>572.0</ele><time>2026-04-26T15:04:57.941Z</time></trkpt><trkpt lat="44.06208726873203" lon="10.309094356861557"><ele>572.0</ele><time>2026-04-26T15:04:58.941Z</time></trkpt><trkpt lat="44.06224983846022" lon="10.309263463284902"><ele>572.0</ele><time>2026-04-26T15:04:59.941Z</time></trkpt><trkpt lat="44.06240447069101" lon="10.30941335240904"><ele>579.5</ele><time>2026-04-26T15:05:00.941Z</time></trkpt><trkpt lat="44.06252267300468" lon="10.309548471785751"><ele>587.0</ele><time>2026-04-26T15:05:01.941Z</time></trkpt><trkpt lat="44.06260904118684" lon="10.309645097153558"><ele>594.5</ele><time>2026-04-26T15:05:02.941Z</time></trkpt><trkpt lat="44.06269507944299" lon="10.309675218256983"><ele>602.0</ele><time>2026-04-26T15:05:03.941Z</time></trkpt><trkpt lat="44.062802438784715" lon="10.309698579240067"><ele>594.75</ele><time>2026-04-26T15:05:04.941Z</time></trkpt><trkpt lat="44.06292257321529" lon="10.309783670030338"><ele>587.5</ele><time>2026-04-26T15:05:05.941Z</time></trkpt><trkpt lat="44.0630127972645" lon="10.30991132270379"><ele>580.25</ele><time>2026-04-26T15:05:06.941Z</time></trkpt><trkpt lat="44.063097092641996" lon="10.310007014082604"><ele>573.0</ele><time>2026-04-26T15:05:07.941Z</time></trkpt><trkpt lat="44.063205974365125" lon="10.310057532382755"><ele>580.0</ele><time>2026-04-26T15:05:08.941Z</time></trkpt><trkpt lat="44.0633411096342" lon="10.3101254005137"><ele>587.0</ele><time>2026-04-26T15:05:09.941Z</time></trkpt><trkpt lat="44.063476507505655" lon="10.3102500109333"><ele>594.0</ele><time>2026-04-26T15:05:10.941Z</time></trkpt><trkpt lat="44.06360278008508" lon="10.310372461669836"><ele>594.0</ele><time>2026-04-26T15:05:11.941Z</time></trkpt><trkpt lat="44.0637079915767" lon="10.310489481530386"><ele>594.0</ele><time>2026-04-26T15:05:12.941Z</time></trkpt><trkpt lat="44.063805202652624" lon="10.310592513249484"><ele>594.0</ele><time>2026-04-26T15:05:13.941Z</time></trkpt><trkpt lat="44.06390508551348" lon="10.310710083523901"><ele>594.0</ele><time>2026-04-26T15:05:14.941Z</time></trkpt><trkpt lat="44.06399861007888" lon="10.310845118115997"><ele>592.75</ele><time>2026-04-26T15:05:15.941Z</time></trkpt><trkpt lat="44.06406988241923" lon="10.310991036542784"><ele>591.5</ele><time>2026-04-26T15:05:16.941Z</time></trkpt><trkpt lat="44.06411765721123" lon="10.3111543058277"><ele>590.25</ele><time>2026-04-26T15:05:17.941Z</time></trkpt><trkpt lat="44.06417010916319" lon="10.311306617282757"><ele>589.0</ele><time>2026-04-26T15:05:18.941Z</time></trkpt><trkpt lat="44.0642330666491" lon="10.311441021422443"><ele>583.4</ele><time>2026-04-26T15:05:19.941Z</time></trkpt><trkpt lat="44.06429825849333" lon="10.311580016074137"><ele>577.8</ele><time>2026-04-26T15:05:20.941Z</time></trkpt><trkpt lat="44.06436157963279" lon="10.311708459916403"><ele>572.2</ele><time>2026-04-26T15:05:21.941Z</time></trkpt><trkpt lat="44.064419333511275" lon="10.311810853417086"><ele>566.6</ele><time>2026-04-26T15:05:22.941Z</time></trkpt><trkpt lat="44.064481326268755" lon="10.311895903027303"><ele>561.0</ele><time>2026-04-26T15:05:23.941Z</time></trkpt><trkpt lat="44.06453674978979" lon="10.311954131748069"><ele>561.0</ele><time>2026-04-26T15:05:24.941Z</time></trkpt><trkpt lat="44.06463327660667" lon="10.31198412224748"><ele>561.0</ele><time>2026-04-26T15:05:25.941Z</time></trkpt><trkpt lat="44.06475956833659" lon="10.31197117840695"><ele>561.0</ele><time>2026-04-26T15:05:26.941Z</time></trkpt><trkpt lat="44.06487330435013" lon="10.311960049955562"><ele>561.0</ele><time>2026-04-26T15:05:27.941Z</time></trkpt><trkpt lat="44.06497460654317" lon="10.311929244222107"><ele>561.0</ele><time>2026-04-26T15:05:28.941Z</time></trkpt><trkpt lat="44.065071254659536" lon="10.311857164993757"><ele>566.0</ele><time>2026-04-26T15:05:29.941Z</time></trkpt><trkpt lat="44.06518704130152" lon="10.311755035315958"><ele>571.0</ele><time>2026-04-26T15:05:30.941Z</time></trkpt><trkpt lat="44.06530726821498" lon="10.31166921566521"><ele>576.0</ele><time>2026-04-26T15:05:31.941Z</time></trkpt><trkpt lat="44.06540917401838" lon="10.311584047790957"><ele>581.0</ele><time>2026-04-26T15:05:32.941Z</time></trkpt><trkpt lat="44.06551604887257" lon="10.31154739875305"><ele>581.0</ele><time>2026-04-26T15:05:33.941Z</time></trkpt><trkpt lat="44.06563773792563" lon="10.311524862312641"><ele>581.0</ele><time>2026-04-26T15:05:34.941Z</time></trkpt><trkpt lat="44.06573786982682" lon="10.31146980636728"><ele>581.0</ele><time>2026-04-26T15:05:35.941Z</time></trkpt><trkpt lat="44.065832995153876" lon="10.311383548747443"><ele>581.0</ele><time>2026-04-26T15:05:36.941Z</time></trkpt><trkpt lat="44.06592897273232" lon="10.311289948543427"><ele>584.5</ele><time>2026-04-26T15:05:37.941Z</time></trkpt><trkpt lat="44.066008109172415" lon="10.311217192427435"><ele>588.0</ele><time>2026-04-26T15:05:38.941Z</time></trkpt><trkpt lat="44.06609066280475" lon="10.311180055484993"><ele>591.5</ele><time>2026-04-26T15:05:39.941Z</time></trkpt><trkpt lat="44.0661656170697" lon="10.311179811751199"><ele>595.0</ele><time>2026-04-26T15:05:40.941Z</time></trkpt><trkpt lat="44.066247449047445" lon="10.3112125496083"><ele>598.5</ele><time>2026-04-26T15:05:41.941Z</time></trkpt><trkpt lat="44.06632774781521" lon="10.31127347404714"><ele>602.0</ele><time>2026-04-26T15:05:42.941Z</time></trkpt><trkpt lat="44.06639059080101" lon="10.311366909838815"><ele>596.2</ele><time>2026-04-26T15:05:43.941Z</time></trkpt><trkpt lat="44.0664329639489" lon="10.311484152666722"><ele>590.4000000000001</ele><time>2026-04-26T15:05:44.941Z</time></trkpt><trkpt lat="44.066455210816756" lon="10.311609902041303"><ele>584.5999999999999</ele><time>2026-04-26T15:05:45.942Z</time></trkpt><trkpt lat="44.06643635785889" lon="10.311756331507938"><ele>578.8</ele><time>2026-04-26T15:05:46.942Z</time></trkpt><trkpt lat="44.06638927065684" lon="10.311908812833376"><ele>573.0</ele><time>2026-04-26T15:05:47.942Z</time></trkpt><trkpt lat="44.06632028807503" lon="10.312057636751248"><ele>573.0</ele><time>2026-04-26T15:05:48.942Z</time></trkpt><trkpt lat="44.06624524802885" lon="10.312219905080907"><ele>573.0</ele><time>2026-04-26T15:05:49.942Z</time></trkpt><trkpt lat="44.066164480681735" lon="10.312392033779275"><ele>573.0</ele><time>2026-04-26T15:05:50.942Z</time></trkpt><trkpt lat="44.06609009831999" lon="10.312574518488073"><ele>573.0</ele><time>2026-04-26T15:05:51.942Z</time></trkpt><trkpt lat="44.06603455204498" lon="10.312748565172631"><ele>570.75</ele><time>2026-04-26T15:05:52.942Z</time></trkpt><trkpt lat="44.06597259666712" lon="10.312902810014494"><ele>568.5</ele><time>2026-04-26T15:05:53.942Z</time></trkpt><trkpt lat="44.06592472633954" lon="10.313035782119107"><ele>566.25</ele><time>2026-04-26T15:05:54.942Z</time></trkpt><trkpt lat="44.0659050733626" lon="10.313193312226371"><ele>564.0</ele><time>2026-04-26T15:05:55.942Z</time></trkpt><trkpt lat="44.06589537745921" lon="10.313348788039331"><ele>563.2</ele><time>2026-04-26T15:05:56.942Z</time></trkpt><trkpt lat="44.0658956140721" lon="10.31349245804097"><ele>562.4</ele><time>2026-04-26T15:05:57.942Z</time></trkpt><trkpt lat="44.06592322743839" lon="10.313608522456505"><ele>561.6</ele><time>2026-04-26T15:05:58.942Z</time></trkpt><trkpt lat="44.06599489604548" lon="10.31370205947526"><ele>560.8</ele><time>2026-04-26T15:05:59.942Z</time></trkpt><trkpt lat="44.06608988691818" lon="10.31376494051041"><ele>560.0</ele><time>2026-04-26T15:06:00.942Z</time></trkpt><trkpt lat="44.066179872940715" lon="10.313829579442483"><ele>557.3333333333333</ele><time>2026-04-26T15:06:01.942Z</time></trkpt><trkpt lat="44.06625270848206" lon="10.313929973123455"><ele>554.6666666666666</ele><time>2026-04-26T15:06:02.942Z</time></trkpt><trkpt lat="44.066298407096106" lon="10.314042516196753"><ele>552.0</ele><time>2026-04-26T15:06:03.942Z</time></trkpt><trkpt lat="44.06630725992619" lon="10.314148849211373"><ele>549.3333333333334</ele><time>2026-04-26T15:06:04.942Z</time></trkpt><trkpt lat="44.06628638534131" lon="10.314257793953168"><ele>546.6666666666667</ele><time>2026-04-26T15:06:05.942Z</time></trkpt><trkpt lat="44.06625839167525" lon="10.314345592687879"><ele>544.0</ele><time>2026-04-26T15:06:06.942Z</time></trkpt><trkpt lat="44.06624713979513" lon="10.314499906084068"><ele>544.0</ele><time>2026-04-26T15:06:08.942Z</time></trkpt><trkpt lat="44.066280484142275" lon="10.314665497347843"><ele>544.0</ele><time>2026-04-26T15:06:10.942Z</time></trkpt><trkpt lat="44.06630597943605" lon="10.314755396783855"><ele>544.0</ele><time>2026-04-26T15:06:11.942Z</time></trkpt><trkpt lat="44.06633409129651" lon="10.314859755926458"><ele>544.0</ele><time>2026-04-26T15:06:12.942Z</time></trkpt><trkpt lat="44.066360286926006" lon="10.31496370538022"><ele>544.0</ele><time>2026-04-26T15:06:13.942Z</time></trkpt><trkpt lat="44.066387171661276" lon="10.315060151737732"><ele>544.0</ele><time>2026-04-26T15:06:14.942Z</time></trkpt><trkpt lat="44.06639746032483" lon="10.315174581937542"><ele>542.0</ele><time>2026-04-26T15:06:15.942Z</time></trkpt><trkpt lat="44.066380306291656" lon="10.315285589834174"><ele>540.0</ele><time>2026-04-26T15:06:16.942Z</time></trkpt><trkpt lat="44.066334141292806" lon="10.315391208045327"><ele>538.0</ele><time>2026-04-26T15:06:17.942Z</time></trkpt><trkpt lat="44.06627763289958" lon="10.315482974503645"><ele>536.0</ele><time>2026-04-26T15:06:18.941Z</time></trkpt><trkpt lat="44.06623628008616" lon="10.315551771986819"><ele>534.0</ele><time>2026-04-26T15:06:19.94Z</time></trkpt><trkpt lat="44.06620487825469" lon="10.315636306009436"><ele>532.0</ele><time>2026-04-26T15:06:20.94Z</time></trkpt><trkpt lat="44.06616656206096" lon="10.31573957225581"><ele>531.75</ele><time>2026-04-26T15:06:21.94Z</time></trkpt><trkpt lat="44.0661123236098" lon="10.31585925513936"><ele>531.5</ele><time>2026-04-26T15:06:22.94Z</time></trkpt><trkpt lat="44.06604631669334" lon="10.31598938855497"><ele>531.25</ele><time>2026-04-26T15:06:23.94Z</time></trkpt><trkpt lat="44.065947570122944" lon="10.31610334906313"><ele>531.0</ele><time>2026-04-26T15:06:24.94Z</time></trkpt><trkpt lat="44.065813602089" lon="10.316228682494412"><ele>531.3333333333334</ele><time>2026-04-26T15:06:25.94Z</time></trkpt><trkpt lat="44.065666690003106" lon="10.316357752332113"><ele>531.6666666666667</ele><time>2026-04-26T15:06:26.94Z</time></trkpt><trkpt lat="44.06553535817364" lon="10.316477794700692"><ele>532.0</ele><time>2026-04-26T15:06:27.94Z</time></trkpt><trkpt lat="44.06542656032642" lon="10.316610388641296"><ele>531.5</ele><time>2026-04-26T15:06:28.94Z</time></trkpt><trkpt lat="44.0653534774467" lon="10.31677170568268"><ele>531.0</ele><time>2026-04-26T15:06:29.94Z</time></trkpt><trkpt lat="44.065315702498445" lon="10.316932247810538"><ele>530.5</ele><time>2026-04-26T15:06:30.94Z</time></trkpt><trkpt lat="44.0653068645418" lon="10.317123903093947"><ele>530.0</ele><time>2026-04-26T15:06:31.94Z</time></trkpt><trkpt lat="44.06531351004064" lon="10.317348774318074"><ele>530.0</ele><time>2026-04-26T15:06:32.94Z</time></trkpt><trkpt lat="44.06531838654294" lon="10.317565677577512"><ele>530.0</ele><time>2026-04-26T15:06:33.94Z</time></trkpt><trkpt lat="44.06532184629931" lon="10.31778986691834"><ele>530.0</ele><time>2026-04-26T15:06:34.94Z</time></trkpt><trkpt lat="44.06528779235102" lon="10.317982620629445"><ele>530.5</ele><time>2026-04-26T15:06:35.94Z</time></trkpt><trkpt lat="44.065229777812156" lon="10.318160238992402"><ele>531.0</ele><time>2026-04-26T15:06:36.94Z</time></trkpt><trkpt lat="44.06516145313423" lon="10.318318700421685"><ele>531.5</ele><time>2026-04-26T15:06:37.94Z</time></trkpt><trkpt lat="44.06509584491003" lon="10.31846435921273"><ele>532.0</ele><time>2026-04-26T15:06:38.94Z</time></trkpt><trkpt lat="44.06505771560572" lon="10.318633768537804"><ele>532.0</ele><time>2026-04-26T15:06:39.94Z</time></trkpt><trkpt lat="44.0650355101829" lon="10.318817174612876"><ele>532.0</ele><time>2026-04-26T15:06:40.94Z</time></trkpt><trkpt lat="44.065031005536234" lon="10.319023013316235"><ele>532.0</ele><time>2026-04-26T15:06:41.94Z</time></trkpt><trkpt lat="44.06504429219033" lon="10.319237343910249"><ele>532.0</ele><time>2026-04-26T15:06:42.94Z</time></trkpt><trkpt lat="44.06505575184864" lon="10.319454939331631"><ele>533.0</ele><time>2026-04-26T15:06:43.94Z</time></trkpt><trkpt lat="44.06505304402557" lon="10.319664090573877"><ele>534.0</ele><time>2026-04-26T15:06:44.94Z</time></trkpt><trkpt lat="44.06506511538797" lon="10.319889745817997"><ele>535.0</ele><time>2026-04-26T15:06:45.94Z</time></trkpt><trkpt lat="44.06510098644827" lon="10.32011060651793"><ele>535.0</ele><time>2026-04-26T15:06:46.94Z</time></trkpt><trkpt lat="44.06515650521842" lon="10.320329946943943"><ele>535.0</ele><time>2026-04-26T15:06:47.94Z</time></trkpt><trkpt lat="44.06522239283751" lon="10.320541924914265"><ele>535.0</ele><time>2026-04-26T15:06:48.94Z</time></trkpt><trkpt lat="44.06524512815236" lon="10.320738553056783"><ele>532.75</ele><time>2026-04-26T15:06:49.94Z</time></trkpt><trkpt lat="44.06522840078656" lon="10.320917694612364"><ele>530.5</ele><time>2026-04-26T15:06:50.94Z</time></trkpt><trkpt lat="44.065215634987375" lon="10.321083694274112"><ele>528.25</ele><time>2026-04-26T15:06:51.94Z</time></trkpt><trkpt lat="44.06524113412385" lon="10.321225981863112"><ele>526.0</ele><time>2026-04-26T15:06:52.94Z</time></trkpt><trkpt lat="44.065283957405555" lon="10.32136257810174"><ele>527.75</ele><time>2026-04-26T15:06:53.94Z</time></trkpt><trkpt lat="44.06532486441656" lon="10.32150814714454"><ele>529.5</ele><time>2026-04-26T15:06:54.94Z</time></trkpt><trkpt lat="44.06536860183488" lon="10.321650525375428"><ele>531.25</ele><time>2026-04-26T15:06:55.94Z</time></trkpt><trkpt lat="44.065446281757474" lon="10.321788240369031"><ele>533.0</ele><time>2026-04-26T15:06:56.94Z</time></trkpt><trkpt lat="44.06553028609282" lon="10.32194903804172"><ele>533.0</ele><time>2026-04-26T15:06:57.94Z</time></trkpt><trkpt lat="44.06559369346149" lon="10.322132453549415"><ele>533.0</ele><time>2026-04-26T15:06:58.94Z</time></trkpt><trkpt lat="44.06563683891372" lon="10.322319310310814"><ele>533.0</ele><time>2026-04-26T15:06:59.94Z</time></trkpt><trkpt lat="44.065698836242184" lon="10.322502599465464"><ele>533.0</ele><time>2026-04-26T15:07:00.94Z</time></trkpt><trkpt lat="44.06567374798501" lon="10.32264347471884"><ele>531.0</ele><time>2026-04-26T15:07:01.94Z</time></trkpt><trkpt lat="44.06569890243444" lon="10.322772242201946"><ele>529.0</ele><time>2026-04-26T15:07:02.94Z</time></trkpt><trkpt lat="44.065820191918476" lon="10.322930180909735"><ele>527.0</ele><time>2026-04-26T15:07:03.94Z</time></trkpt><trkpt lat="44.0659288714868" lon="10.323088057330644"><ele>525.0</ele><time>2026-04-26T15:07:04.94Z</time></trkpt><trkpt lat="44.0660460253871" lon="10.323221436715537"><ele>525.0</ele><time>2026-04-26T15:07:05.94Z</time></trkpt><trkpt lat="44.066161807292445" lon="10.323319519888212"><ele>525.0</ele><time>2026-04-26T15:07:06.94Z</time></trkpt><trkpt lat="44.066283102494744" lon="10.323415692964094"><ele>525.0</ele><time>2026-04-26T15:07:07.94Z</time></trkpt><trkpt lat="44.0664363490128" lon="10.323494245336212"><ele>525.0</ele><time>2026-04-26T15:07:08.94Z</time></trkpt><trkpt lat="44.0665974917591" lon="10.323560540282317"><ele>523.3333333333334</ele><time>2026-04-26T15:07:09.94Z</time></trkpt><trkpt lat="44.06675289826346" lon="10.323588949016003"><ele>521.6666666666667</ele><time>2026-04-26T15:07:10.94Z</time></trkpt><trkpt lat="44.066929744529766" lon="10.323590933032893"><ele>520.0</ele><time>2026-04-26T15:07:11.94Z</time></trkpt><trkpt lat="44.06709349825333" lon="10.323590248256298"><ele>520.0</ele><time>2026-04-26T15:07:12.94Z</time></trkpt><trkpt lat="44.0672518299254" lon="10.32358441677879"><ele>520.0</ele><time>2026-04-26T15:07:13.94Z</time></trkpt><trkpt lat="44.06741129811862" lon="10.323563292987636"><ele>520.0</ele><time>2026-04-26T15:07:14.94Z</time></trkpt><trkpt lat="44.06757371453889" lon="10.323542564111355"><ele>522.0</ele><time>2026-04-26T15:07:15.94Z</time></trkpt><trkpt lat="44.06770243086079" lon="10.323524468832382"><ele>524.0</ele><time>2026-04-26T15:07:16.94Z</time></trkpt><trkpt lat="44.067809433567334" lon="10.323500441830713"><ele>526.0</ele><time>2026-04-26T15:07:17.94Z</time></trkpt><trkpt lat="44.06790430044225" lon="10.323532767357403"><ele>528.0</ele><time>2026-04-26T15:07:18.94Z</time></trkpt><trkpt lat="44.067999518781576" lon="10.323636379549262"><ele>528.0</ele><time>2026-04-26T15:07:19.94Z</time></trkpt><trkpt lat="44.06808453937798" lon="10.323822092530326"><ele>528.0</ele><time>2026-04-26T15:07:20.94Z</time></trkpt><trkpt lat="44.068160431984815" lon="10.323994639164502"><ele>528.0</ele><time>2026-04-26T15:07:21.94Z</time></trkpt><trkpt lat="44.06824077091353" lon="10.324127531115652"><ele>528.0</ele><time>2026-04-26T15:07:22.94Z</time></trkpt><trkpt lat="44.068314983082814" lon="10.324236696339097"><ele>522.8</ele><time>2026-04-26T15:07:23.94Z</time></trkpt><trkpt lat="44.06837653408209" lon="10.324345481795271"><ele>517.5999999999999</ele><time>2026-04-26T15:07:24.94Z</time></trkpt><trkpt lat="44.068444407695004" lon="10.32444745932163"><ele>512.4000000000001</ele><time>2026-04-26T15:07:25.94Z</time></trkpt><trkpt lat="44.06852879809743" lon="10.324527990908404"><ele>507.20000000000005</ele><time>2026-04-26T15:07:26.94Z</time></trkpt><trkpt lat="44.06862129397783" lon="10.3246516808004"><ele>502.0</ele><time>2026-04-26T15:07:27.94Z</time></trkpt><trkpt lat="44.06869669727992" lon="10.324812726816756"><ele>498.0</ele><time>2026-04-26T15:07:28.94Z</time></trkpt><trkpt lat="44.068745837428686" lon="10.32498249187374"><ele>494.0</ele><time>2026-04-26T15:07:29.94Z</time></trkpt><trkpt lat="44.06877709488993" lon="10.325138997717655"><ele>490.0</ele><time>2026-04-26T15:07:30.94Z</time></trkpt><trkpt lat="44.068799383017605" lon="10.325299105448455"><ele>486.0</ele><time>2026-04-26T15:07:31.94Z</time></trkpt><trkpt lat="44.06879175957602" lon="10.325479503828232"><ele>487.5</ele><time>2026-04-26T15:07:32.94Z</time></trkpt><trkpt lat="44.06876830648132" lon="10.325654477177258"><ele>489.0</ele><time>2026-04-26T15:07:33.94Z</time></trkpt><trkpt lat="44.068737351707895" lon="10.325826520293953"><ele>490.5</ele><time>2026-04-26T15:07:34.94Z</time></trkpt><trkpt lat="44.068719065420936" lon="10.325994345540023"><ele>492.0</ele><time>2026-04-26T15:07:35.94Z</time></trkpt><trkpt lat="44.068725502544595" lon="10.326175685885065"><ele>492.0</ele><time>2026-04-26T15:07:36.94Z</time></trkpt><trkpt lat="44.06877260890334" lon="10.326358948045954"><ele>492.0</ele><time>2026-04-26T15:07:37.94Z</time></trkpt><trkpt lat="44.06887117484252" lon="10.326555391830892"><ele>492.0</ele><time>2026-04-26T15:07:38.94Z</time></trkpt><trkpt lat="44.068976673092926" lon="10.326767437815208"><ele>491.25</ele><time>2026-04-26T15:07:39.94Z</time></trkpt><trkpt lat="44.06903883046882" lon="10.326968756497852"><ele>490.5</ele><time>2026-04-26T15:07:40.94Z</time></trkpt><trkpt lat="44.06908751391809" lon="10.327150475538073"><ele>489.75</ele><time>2026-04-26T15:07:41.94Z</time></trkpt><trkpt lat="44.069126751356436" lon="10.327330185243559"><ele>489.0</ele><time>2026-04-26T15:07:42.94Z</time></trkpt><trkpt lat="44.06913700474755" lon="10.327492612584924"><ele>488.0</ele><time>2026-04-26T15:07:43.94Z</time></trkpt><trkpt lat="44.06907428402497" lon="10.327658419713668"><ele>487.0</ele><time>2026-04-26T15:07:44.94Z</time></trkpt><trkpt lat="44.068986074023" lon="10.327826132998368"><ele>486.0</ele><time>2026-04-26T15:07:45.94Z</time></trkpt><trkpt lat="44.06891165797086" lon="10.32798310564387"><ele>485.0</ele><time>2026-04-26T15:07:46.94Z</time></trkpt><trkpt lat="44.06883179921238" lon="10.328109507351773"><ele>487.5</ele><time>2026-04-26T15:07:47.94Z</time></trkpt><trkpt lat="44.06870719941719" lon="10.328193181825897"><ele>490.0</ele><time>2026-04-26T15:07:48.94Z</time></trkpt><trkpt lat="44.06856983551684" lon="10.328288849947905"><ele>492.5</ele><time>2026-04-26T15:07:49.94Z</time></trkpt><trkpt lat="44.06842825355913" lon="10.32837580683905"><ele>495.0</ele><time>2026-04-26T15:07:50.94Z</time></trkpt><trkpt lat="44.06831469291495" lon="10.328454884280177"><ele>487.0</ele><time>2026-04-26T15:07:51.94Z</time></trkpt><trkpt lat="44.06817698622998" lon="10.328444678509074"><ele>479.0</ele><time>2026-04-26T15:07:52.94Z</time></trkpt><trkpt lat="44.068041381270035" lon="10.328394810334524"><ele>471.0</ele><time>2026-04-26T15:07:53.94Z</time></trkpt><trkpt lat="44.0679010604795" lon="10.328354442061933"><ele>463.0</ele><time>2026-04-26T15:07:54.94Z</time></trkpt><trkpt lat="44.067763451899005" lon="10.32831020137239"><ele>463.0</ele><time>2026-04-26T15:07:55.94Z</time></trkpt><trkpt lat="44.0676528501825" lon="10.328267514951346"><ele>462.99999999999994</ele><time>2026-04-26T15:07:56.94Z</time></trkpt><trkpt lat="44.06758466854014" lon="10.328285558579605"><ele>462.99999999999994</ele><time>2026-04-26T15:07:57.94Z</time></trkpt><trkpt lat="44.06751357082963" lon="10.32837318777101"><ele>463.0</ele><time>2026-04-26T15:07:58.94Z</time></trkpt><trkpt lat="44.06748611068658" lon="10.328486991724871"><ele>463.0</ele><time>2026-04-26T15:07:59.94Z</time></trkpt><trkpt lat="44.06751283332046" lon="10.328651900632838"><ele>463.0</ele><time>2026-04-26T15:08:00.94Z</time></trkpt><trkpt lat="44.06756185794449" lon="10.328827342245587"><ele>463.0</ele><time>2026-04-26T15:08:01.94Z</time></trkpt><trkpt lat="44.06763858133211" lon="10.329021604423858"><ele>463.0</ele><time>2026-04-26T15:08:02.94Z</time></trkpt><trkpt lat="44.06776043846329" lon="10.329221237917803"><ele>458.75</ele><time>2026-04-26T15:08:03.94Z</time></trkpt><trkpt lat="44.06788706183004" lon="10.329369976071762"><ele>454.5</ele><time>2026-04-26T15:08:04.94Z</time></trkpt><trkpt lat="44.06800398609313" lon="10.329477171346216"><ele>450.25</ele><time>2026-04-26T15:08:05.94Z</time></trkpt><trkpt lat="44.06813850100575" lon="10.329529093818017"><ele>446.0</ele><time>2026-04-26T15:08:06.94Z</time></trkpt><trkpt lat="44.06828563745481" lon="10.329608172311172"><ele>444.0</ele><time>2026-04-26T15:08:07.94Z</time></trkpt><trkpt lat="44.06843143755588" lon="10.329702583666744"><ele>442.0</ele><time>2026-04-26T15:08:08.94Z</time></trkpt><trkpt lat="44.06856184254542" lon="10.329835168082226"><ele>440.0</ele><time>2026-04-26T15:08:09.94Z</time></trkpt><trkpt lat="44.068693872403536" lon="10.329978132546348"><ele>440.0</ele><time>2026-04-26T15:08:10.94Z</time></trkpt><trkpt lat="44.068803342849264" lon="10.330146180263585"><ele>440.0</ele><time>2026-04-26T15:08:11.94Z</time></trkpt><trkpt lat="44.06892291790351" lon="10.330296271173095"><ele>440.0</ele><time>2026-04-26T15:08:12.94Z</time></trkpt><trkpt lat="44.06907004871387" lon="10.330421374898167"><ele>440.3333333333333</ele><time>2026-04-26T15:08:13.94Z</time></trkpt><trkpt lat="44.06921297259093" lon="10.330556724354775"><ele>440.66666666666663</ele><time>2026-04-26T15:08:14.94Z</time></trkpt><trkpt lat="44.06936027955013" lon="10.330671163295325"><ele>441.0</ele><time>2026-04-26T15:08:15.94Z</time></trkpt><trkpt lat="44.069502216162256" lon="10.330790503417637"><ele>441.0</ele><time>2026-04-26T15:08:16.94Z</time></trkpt><trkpt lat="44.069640370783965" lon="10.330905430056866"><ele>441.0</ele><time>2026-04-26T15:08:17.94Z</time></trkpt><trkpt lat="44.06976565304753" lon="10.331012378323544"><ele>441.0</ele><time>2026-04-26T15:08:18.94Z</time></trkpt><trkpt lat="44.06988580762955" lon="10.331140091885317"><ele>441.66666666666663</ele><time>2026-04-26T15:08:19.94Z</time></trkpt><trkpt lat="44.06998342729159" lon="10.33129764861638"><ele>442.3333333333333</ele><time>2026-04-26T15:08:20.94Z</time></trkpt><trkpt lat="44.07005849443668" lon="10.331479420565834"><ele>443.0</ele><time>2026-04-26T15:08:21.94Z</time></trkpt><trkpt lat="44.07012075813888" lon="10.331677193976356"><ele>443.0</ele><time>2026-04-26T15:08:22.94Z</time></trkpt><trkpt lat="44.07015058637522" lon="10.331902798416206"><ele>443.0</ele><time>2026-04-26T15:08:23.94Z</time></trkpt><trkpt lat="44.07016450566192" lon="10.332145905834514"><ele>443.0</ele><time>2026-04-26T15:08:24.939Z</time></trkpt><trkpt lat="44.07017688117332" lon="10.332398154958494"><ele>442.0</ele><time>2026-04-26T15:08:25.939Z</time></trkpt><trkpt lat="44.07018790366186" lon="10.33264762163207"><ele>441.0</ele><time>2026-04-26T15:08:26.939Z</time></trkpt><trkpt lat="44.07020425117999" lon="10.33290367814974"><ele>440.0</ele><time>2026-04-26T15:08:27.939Z</time></trkpt><trkpt lat="44.07021970020736" lon="10.33315340512651"><ele>440.0</ele><time>2026-04-26T15:08:28.939Z</time></trkpt><trkpt lat="44.070256348816145" lon="10.333372173956652"><ele>440.0</ele><time>2026-04-26T15:08:29.939Z</time></trkpt><trkpt lat="44.070300365748594" lon="10.33358176386693"><ele>440.0</ele><time>2026-04-26T15:08:30.939Z</time></trkpt><trkpt lat="44.07033863232045" lon="10.333792432304465"><ele>436.0</ele><time>2026-04-26T15:08:31.939Z</time></trkpt><trkpt lat="44.0703735721919" lon="10.334015241707974"><ele>432.0</ele><time>2026-04-26T15:08:32.939Z</time></trkpt><trkpt lat="44.07040957741823" lon="10.334232342504594"><ele>428.0</ele><time>2026-04-26T15:08:33.939Z</time></trkpt><trkpt lat="44.070437985854774" lon="10.334448224166312"><ele>428.0</ele><time>2026-04-26T15:08:34.94Z</time></trkpt><trkpt lat="44.07045713172163" lon="10.334663005280362"><ele>428.0</ele><time>2026-04-26T15:08:35.94Z</time></trkpt><trkpt lat="44.070486351526974" lon="10.334854927487754"><ele>428.0</ele><time>2026-04-26T15:08:36.939Z</time></trkpt><trkpt lat="44.07051505267446" lon="10.33503144674141"><ele>428.0</ele><time>2026-04-26T15:08:37.94Z</time></trkpt><trkpt lat="44.07055932656048" lon="10.335168778972735"><ele>427.75</ele><time>2026-04-26T15:08:38.94Z</time></trkpt><trkpt lat="44.07063400988104" lon="10.335276436582406"><ele>427.5</ele><time>2026-04-26T15:08:39.94Z</time></trkpt><trkpt lat="44.0707342952473" lon="10.335337778511748"><ele>427.25</ele><time>2026-04-26T15:08:40.94Z</time></trkpt><trkpt lat="44.070856698635765" lon="10.335371562402925"><ele>427.0</ele><time>2026-04-26T15:08:41.94Z</time></trkpt><trkpt lat="44.070995343142776" lon="10.335361786416101"><ele>426.0</ele><time>2026-04-26T15:08:42.94Z</time></trkpt><trkpt lat="44.0711503232836" lon="10.335325646535429"><ele>425.0</ele><time>2026-04-26T15:08:43.94Z</time></trkpt><trkpt lat="44.07130942111074" lon="10.33530691390539"><ele>424.0</ele><time>2026-04-26T15:08:44.94Z</time></trkpt><trkpt lat="44.07146109003127" lon="10.335291156670813"><ele>424.0</ele><time>2026-04-26T15:08:45.94Z</time></trkpt><trkpt lat="44.07159221506468" lon="10.335289641708206"><ele>424.0</ele><time>2026-04-26T15:08:46.94Z</time></trkpt><trkpt lat="44.07171344642435" lon="10.335335555899068"><ele>424.0</ele><time>2026-04-26T15:08:47.94Z</time></trkpt><trkpt lat="44.07185009046224" lon="10.3354377331347"><ele>424.0</ele><time>2026-04-26T15:08:48.94Z</time></trkpt><trkpt lat="44.07197685966667" lon="10.33555139609829"><ele>419.5</ele><time>2026-04-26T15:08:49.94Z</time></trkpt><trkpt lat="44.07210653992613" lon="10.335671099109787"><ele>415.0</ele><time>2026-04-26T15:08:50.94Z</time></trkpt><trkpt lat="44.072232637701454" lon="10.335779097516298"><ele>410.5</ele><time>2026-04-26T15:08:51.94Z</time></trkpt><trkpt lat="44.07233801572188" lon="10.335883728979791"><ele>406.0</ele><time>2026-04-26T15:08:52.94Z</time></trkpt><trkpt lat="44.07243492506132" lon="10.335990337521164"><ele>408.0</ele><time>2026-04-26T15:08:53.94Z</time></trkpt><trkpt lat="44.07251537950083" lon="10.336126690970293"><ele>410.0</ele><time>2026-04-26T15:08:54.94Z</time></trkpt><trkpt lat="44.072571829461104" lon="10.336307762927857"><ele>412.0</ele><time>2026-04-26T15:08:55.94Z</time></trkpt><trkpt lat="44.07263148338097" lon="10.336490093154747"><ele>414.0</ele><time>2026-04-26T15:08:56.94Z</time></trkpt><trkpt lat="44.072679314466335" lon="10.336683112961508"><ele>416.66666666666663</ele><time>2026-04-26T15:08:57.94Z</time></trkpt><trkpt lat="44.07268996097155" lon="10.33690329475133"><ele>419.3333333333333</ele><time>2026-04-26T15:08:58.94Z</time></trkpt><trkpt lat="44.072698312381185" lon="10.3371475669746"><ele>422.0</ele><time>2026-04-26T15:08:59.94Z</time></trkpt><trkpt lat="44.07269814856165" lon="10.33737254668464"><ele>422.3333333333333</ele><time>2026-04-26T15:09:00.94Z</time></trkpt><trkpt lat="44.07269584961383" lon="10.337607586034759"><ele>422.66666666666663</ele><time>2026-04-26T15:09:01.94Z</time></trkpt><trkpt lat="44.072661135022535" lon="10.337836044147387"><ele>423.0</ele><time>2026-04-26T15:09:02.94Z</time></trkpt><trkpt lat="44.07260841962318" lon="10.338070195117748"><ele>423.0</ele><time>2026-04-26T15:09:03.94Z</time></trkpt><trkpt lat="44.07254763390802" lon="10.33828083904435"><ele>423.0</ele><time>2026-04-26T15:09:04.94Z</time></trkpt><trkpt lat="44.07247847530823" lon="10.338482680370685"><ele>423.0</ele><time>2026-04-26T15:09:05.94Z</time></trkpt><trkpt lat="44.07240578230644" lon="10.338691323901944"><ele>425.75</ele><time>2026-04-26T15:09:06.94Z</time></trkpt><trkpt lat="44.07234925889645" lon="10.338884680980003"><ele>428.5</ele><time>2026-04-26T15:09:07.94Z</time></trkpt><trkpt lat="44.072300249890304" lon="10.339063905203279"><ele>431.25</ele><time>2026-04-26T15:09:08.94Z</time></trkpt><trkpt lat="44.07227939264577" lon="10.339252781124419"><ele>434.0</ele><time>2026-04-26T15:09:09.94Z</time></trkpt><trkpt lat="44.07232212593905" lon="10.339444420204753"><ele>434.0</ele><time>2026-04-26T15:09:10.94Z</time></trkpt><trkpt lat="44.072411394720355" lon="10.3396387011041"><ele>434.0</ele><time>2026-04-26T15:09:11.94Z</time></trkpt><trkpt lat="44.0725003765566" lon="10.33984644804614"><ele>434.0</ele><time>2026-04-26T15:09:12.94Z</time></trkpt><trkpt lat="44.07256399177679" lon="10.34006388103969"><ele>427.3333333333333</ele><time>2026-04-26T15:09:13.94Z</time></trkpt><trkpt lat="44.07264037874811" lon="10.340261164521154"><ele>420.66666666666663</ele><time>2026-04-26T15:09:14.94Z</time></trkpt><trkpt lat="44.0726981032854" lon="10.340451892791107"><ele>414.0</ele><time>2026-04-26T15:09:15.94Z</time></trkpt><trkpt lat="44.07274453135105" lon="10.340637559366838"><ele>412.75</ele><time>2026-04-26T15:09:16.94Z</time></trkpt><trkpt lat="44.07279599436537" lon="10.340804134673458"><ele>411.5</ele><time>2026-04-26T15:09:17.94Z</time></trkpt><trkpt lat="44.072846769178724" lon="10.340948538170357"><ele>410.25</ele><time>2026-04-26T15:09:18.94Z</time></trkpt><trkpt lat="44.07292804476647" lon="10.341072838853117"><ele>409.0</ele><time>2026-04-26T15:09:19.94Z</time></trkpt><trkpt lat="44.07305191788153" lon="10.341192055342445"><ele>409.0</ele><time>2026-04-26T15:09:20.94Z</time></trkpt><trkpt lat="44.073180614841455" lon="10.341281033823767"><ele>409.0</ele><time>2026-04-26T15:09:21.94Z</time></trkpt><trkpt lat="44.073285346319906" lon="10.34135340883899"><ele>409.0</ele><time>2026-04-26T15:09:22.94Z</time></trkpt><trkpt lat="44.07339316288099" lon="10.341427900798566"><ele>409.0</ele><time>2026-04-26T15:09:23.94Z</time></trkpt><trkpt lat="44.07351024938144" lon="10.341426651522534"><ele>413.25</ele><time>2026-04-26T15:09:24.94Z</time></trkpt><trkpt lat="44.073630480296224" lon="10.341374056899106"><ele>417.5</ele><time>2026-04-26T15:09:25.94Z</time></trkpt><trkpt lat="44.07375835549896" lon="10.341281378699923"><ele>421.75</ele><time>2026-04-26T15:09:26.94Z</time></trkpt><trkpt lat="44.07388930747456" lon="10.341171308430527"><ele>426.0</ele><time>2026-04-26T15:09:27.94Z</time></trkpt><trkpt lat="44.074034330160515" lon="10.341040370212097"><ele>423.0</ele><time>2026-04-26T15:09:28.94Z</time></trkpt><trkpt lat="44.074175582222146" lon="10.340924449219578"><ele>420.0</ele><time>2026-04-26T15:09:29.94Z</time></trkpt><trkpt lat="44.07431268961682" lon="10.34082388093224"><ele>417.0</ele><time>2026-04-26T15:09:30.94Z</time></trkpt><trkpt lat="44.07445214715177" lon="10.340745497908783"><ele>417.0</ele><time>2026-04-26T15:09:31.94Z</time></trkpt><trkpt lat="44.07459115253581" lon="10.340701272932705"><ele>417.0</ele><time>2026-04-26T15:09:32.94Z</time></trkpt><trkpt lat="44.074709863714666" lon="10.340686497044564"><ele>417.0</ele><time>2026-04-26T15:09:33.94Z</time></trkpt><trkpt lat="44.07483158961538" lon="10.340694772152348"><ele>417.0</ele><time>2026-04-26T15:09:34.94Z</time></trkpt><trkpt lat="44.074948891259346" lon="10.340740454421509"><ele>418.25</ele><time>2026-04-26T15:09:35.94Z</time></trkpt><trkpt lat="44.07506367111349" lon="10.340828494357126"><ele>419.5</ele><time>2026-04-26T15:09:36.94Z</time></trkpt><trkpt lat="44.075151856125366" lon="10.340910707734137"><ele>420.75</ele><time>2026-04-26T15:09:37.94Z</time></trkpt><trkpt lat="44.07522574647298" lon="10.341060499510087"><ele>422.0</ele><time>2026-04-26T15:09:38.94Z</time></trkpt><trkpt lat="44.0752951652076" lon="10.341255427211838"><ele>418.5</ele><time>2026-04-26T15:09:39.94Z</time></trkpt><trkpt lat="44.075374167026155" lon="10.341457253759376"><ele>415.0</ele><time>2026-04-26T15:09:40.94Z</time></trkpt><trkpt lat="44.07542901877375" lon="10.341595147488505"><ele>411.5</ele><time>2026-04-26T15:09:41.94Z</time></trkpt><trkpt lat="44.07543014846952" lon="10.341754512100621"><ele>408.0</ele><time>2026-04-26T15:09:42.94Z</time></trkpt><trkpt lat="44.07540014585512" lon="10.34192809056375"><ele>408.0</ele><time>2026-04-26T15:09:43.94Z</time></trkpt><trkpt lat="44.07534285032778" lon="10.342087555441209"><ele>408.0</ele><time>2026-04-26T15:09:44.94Z</time></trkpt><trkpt lat="44.07526360953202" lon="10.342221827635935"><ele>408.0</ele><time>2026-04-26T15:09:45.94Z</time></trkpt><trkpt lat="44.07515407134747" lon="10.342335795110172"><ele>408.0</ele><time>2026-04-26T15:09:46.94Z</time></trkpt><trkpt lat="44.07503850037538" lon="10.342434116575285"><ele>411.33333333333337</ele><time>2026-04-26T15:09:47.94Z</time></trkpt><trkpt lat="44.07495364643892" lon="10.342579053992834"><ele>414.6666666666667</ele><time>2026-04-26T15:09:48.94Z</time></trkpt><trkpt lat="44.07487263663821" lon="10.342770565212309"><ele>418.0</ele><time>2026-04-26T15:09:49.94Z</time></trkpt><trkpt lat="44.074810592231756" lon="10.343000694146394"><ele>419.6666666666667</ele><time>2026-04-26T15:09:50.94Z</time></trkpt><trkpt lat="44.07471694258489" lon="10.343204811958357"><ele>421.33333333333337</ele><time>2026-04-26T15:09:51.94Z</time></trkpt><trkpt lat="44.07461183101906" lon="10.343378049538705"><ele>423.0</ele><time>2026-04-26T15:09:52.94Z</time></trkpt><trkpt lat="44.07451349075759" lon="10.34352429099804"><ele>423.0</ele><time>2026-04-26T15:09:53.94Z</time></trkpt><trkpt lat="44.07443341879689" lon="10.34367194927723"><ele>423.0</ele><time>2026-04-26T15:09:54.94Z</time></trkpt><trkpt lat="44.07439643299368" lon="10.343832163062464"><ele>423.0</ele><time>2026-04-26T15:09:55.94Z</time></trkpt><trkpt lat="44.074391193580574" lon="10.34397886775957"><ele>423.0</ele><time>2026-04-26T15:09:56.94Z</time></trkpt><trkpt lat="44.074448402922016" lon="10.344137058213352"><ele>420.25</ele><time>2026-04-26T15:09:57.94Z</time></trkpt><trkpt lat="44.074564638370894" lon="10.344294208658678"><ele>417.5</ele><time>2026-04-26T15:09:58.94Z</time></trkpt><trkpt lat="44.074697821331874" lon="10.34439079693008"><ele>414.75</ele><time>2026-04-26T15:09:59.94Z</time></trkpt><trkpt lat="44.0748269522686" lon="10.344445201633153"><ele>412.0</ele><time>2026-04-26T15:10:00.94Z</time></trkpt><trkpt lat="44.07495082823927" lon="10.344491299049608"><ele>412.0</ele><time>2026-04-26T15:10:01.94Z</time></trkpt><trkpt lat="44.075118033207" lon="10.344439748707334"><ele>412.0</ele><time>2026-04-26T15:10:02.94Z</time></trkpt><trkpt lat="44.07522966955192" lon="10.344452732812737"><ele>412.0</ele><time>2026-04-26T15:10:03.94Z</time></trkpt><trkpt lat="44.07534962716955" lon="10.344412733140372"><ele>412.0</ele><time>2026-04-26T15:10:04.94Z</time></trkpt><trkpt lat="44.07548952591764" lon="10.344320951194243"><ele>412.0</ele><time>2026-04-26T15:10:05.94Z</time></trkpt><trkpt lat="44.075620826218525" lon="10.344178707881447"><ele>412.0</ele><time>2026-04-26T15:10:06.94Z</time></trkpt><trkpt lat="44.0757516425919" lon="10.344022372761392"><ele>412.0</ele><time>2026-04-26T15:10:07.94Z</time></trkpt><trkpt lat="44.075904358978526" lon="10.34390022143537"><ele>417.33333333333337</ele><time>2026-04-26T15:10:08.94Z</time></trkpt><trkpt lat="44.076057964988344" lon="10.34382462660841"><ele>422.66666666666663</ele><time>2026-04-26T15:10:09.94Z</time></trkpt><trkpt lat="44.076214886913625" lon="10.343778437177994"><ele>428.0</ele><time>2026-04-26T15:10:10.94Z</time></trkpt><trkpt lat="44.07639675144823" lon="10.343785454126154"><ele>428.0</ele><time>2026-04-26T15:10:11.94Z</time></trkpt><trkpt lat="44.07655037845341" lon="10.3437716450569"><ele>428.0</ele><time>2026-04-26T15:10:12.94Z</time></trkpt><trkpt lat="44.07667947969906" lon="10.343767977955855"><ele>428.0</ele><time>2026-04-26T15:10:13.94Z</time></trkpt><trkpt lat="44.076824446909086" lon="10.343806046079685"><ele>428.0</ele><time>2026-04-26T15:10:14.94Z</time></trkpt><trkpt lat="44.07695406343643" lon="10.343919188630338"><ele>419.75</ele><time>2026-04-26T15:10:15.94Z</time></trkpt><trkpt lat="44.07705027181981" lon="10.344066525449815"><ele>411.5</ele><time>2026-04-26T15:10:16.94Z</time></trkpt><trkpt lat="44.07714807633314" lon="10.344195522217685"><ele>403.25</ele><time>2026-04-26T15:10:17.94Z</time></trkpt><trkpt lat="44.077247891950236" lon="10.34429200020047"><ele>395.0</ele><time>2026-04-26T15:10:18.94Z</time></trkpt><trkpt lat="44.07732128113152" lon="10.34442420911382"><ele>395.0</ele><time>2026-04-26T15:10:19.94Z</time></trkpt><trkpt lat="44.07735392609778" lon="10.344598156754877"><ele>395.0</ele><time>2026-04-26T15:10:20.94Z</time></trkpt><trkpt lat="44.07734086373843" lon="10.344767514929691"><ele>395.0</ele><time>2026-04-26T15:10:21.94Z</time></trkpt><trkpt lat="44.07730095696205" lon="10.344939499516027"><ele>395.0</ele><time>2026-04-26T15:10:22.94Z</time></trkpt><trkpt lat="44.07723645865518" lon="10.345109538129813"><ele>395.0</ele><time>2026-04-26T15:10:23.94Z</time></trkpt><trkpt lat="44.077126952874565" lon="10.34526159475739"><ele>395.0</ele><time>2026-04-26T15:10:24.94Z</time></trkpt><trkpt lat="44.077046771110126" lon="10.345435472335847"><ele>395.0</ele><time>2026-04-26T15:10:25.94Z</time></trkpt><trkpt lat="44.07696959178732" lon="10.345594354757585"><ele>395.0</ele><time>2026-04-26T15:10:26.94Z</time></trkpt><trkpt lat="44.07691362804562" lon="10.345774301522326"><ele>395.4</ele><time>2026-04-26T15:10:27.94Z</time></trkpt><trkpt lat="44.07688276434458" lon="10.345926891123566"><ele>395.8</ele><time>2026-04-26T15:10:28.94Z</time></trkpt><trkpt lat="44.07685847797224" lon="10.346036870190046"><ele>396.20000000000005</ele><time>2026-04-26T15:10:29.94Z</time></trkpt><trkpt lat="44.076866824342744" lon="10.346186986438902"><ele>396.6</ele><time>2026-04-26T15:10:30.939Z</time></trkpt><trkpt lat="44.076939079159786" lon="10.346347782797148"><ele>397.0</ele><time>2026-04-26T15:10:31.938Z</time></trkpt><trkpt lat="44.077041828664655" lon="10.346471008733978"><ele>397.25</ele><time>2026-04-26T15:10:32.938Z</time></trkpt><trkpt lat="44.077136474444764" lon="10.34657880401568"><ele>397.5</ele><time>2026-04-26T15:10:33.938Z</time></trkpt><trkpt lat="44.077263168264416" lon="10.3466596791805"><ele>397.75</ele><time>2026-04-26T15:10:34.939Z</time></trkpt><trkpt lat="44.07738778144249" lon="10.346720445915478"><ele>398.0</ele><time>2026-04-26T15:10:35.939Z</time></trkpt><trkpt lat="44.077506822359716" lon="10.346847854121137"><ele>395.3333333333333</ele><time>2026-04-26T15:10:36.939Z</time></trkpt><trkpt lat="44.07761188566302" lon="10.347036736923025"><ele>392.66666666666663</ele><time>2026-04-26T15:10:37.938Z</time></trkpt><trkpt lat="44.07768669600254" lon="10.347242853861397"><ele>390.0</ele><time>2026-04-26T15:10:38.938Z</time></trkpt><trkpt lat="44.07776964516975" lon="10.347418078069627"><ele>390.0</ele><time>2026-04-26T15:10:39.938Z</time></trkpt><trkpt lat="44.07783651575408" lon="10.34758064759233"><ele>390.0</ele><time>2026-04-26T15:10:40.938Z</time></trkpt><trkpt lat="44.07788760014594" lon="10.347748265971877"><ele>390.0</ele><time>2026-04-26T15:10:41.938Z</time></trkpt><trkpt lat="44.077911338188606" lon="10.347943863778145"><ele>390.0</ele><time>2026-04-26T15:10:42.938Z</time></trkpt><trkpt lat="44.07791466487867" lon="10.348159747662912"><ele>390.5</ele><time>2026-04-26T15:10:43.938Z</time></trkpt><trkpt lat="44.07791638794076" lon="10.348356214099423"><ele>391.0</ele><time>2026-04-26T15:10:44.938Z</time></trkpt><trkpt lat="44.077902382309325" lon="10.348527593044686"><ele>391.5</ele><time>2026-04-26T15:10:45.938Z</time></trkpt><trkpt lat="44.0778390261431" lon="10.34870564444719"><ele>392.0</ele><time>2026-04-26T15:10:46.938Z</time></trkpt><trkpt lat="44.07776547105461" lon="10.348873074902983"><ele>393.66666666666663</ele><time>2026-04-26T15:10:47.938Z</time></trkpt><trkpt lat="44.077668957341245" lon="10.349031093797171"><ele>395.33333333333337</ele><time>2026-04-26T15:10:48.938Z</time></trkpt><trkpt lat="44.07751791210391" lon="10.34915125272374"><ele>397.0</ele><time>2026-04-26T15:10:49.938Z</time></trkpt><trkpt lat="44.077398965809806" lon="10.349290868634515"><ele>396.5</ele><time>2026-04-26T15:10:50.938Z</time></trkpt><trkpt lat="44.0773001110819" lon="10.349416999092194"><ele>396.0</ele><time>2026-04-26T15:10:51.938Z</time></trkpt><trkpt lat="44.07723548873322" lon="10.349566482254623"><ele>395.5</ele><time>2026-04-26T15:10:52.938Z</time></trkpt><trkpt lat="44.07719261277418" lon="10.34970943609903"><ele>395.0</ele><time>2026-04-26T15:10:53.938Z</time></trkpt><trkpt lat="44.077189346925145" lon="10.349864226928766"><ele>395.0</ele><time>2026-04-26T15:10:54.938Z</time></trkpt><trkpt lat="44.07720903476133" lon="10.350078814849018"><ele>395.0</ele><time>2026-04-26T15:10:55.938Z</time></trkpt><trkpt lat="44.077222377882535" lon="10.35027449875946"><ele>395.0</ele><time>2026-04-26T15:10:56.938Z</time></trkpt><trkpt lat="44.07724161053319" lon="10.350467773799457"><ele>395.0</ele><time>2026-04-26T15:10:57.938Z</time></trkpt><trkpt lat="44.07720373909624" lon="10.350643062371322"><ele>392.25</ele><time>2026-04-26T15:10:58.938Z</time></trkpt><trkpt lat="44.07714011030625" lon="10.350819310356133"><ele>389.5</ele><time>2026-04-26T15:10:59.938Z</time></trkpt><trkpt lat="44.07706974922235" lon="10.350989371865126"><ele>386.75</ele><time>2026-04-26T15:11:00.938Z</time></trkpt><trkpt lat="44.076978814707154" lon="10.351123817457445"><ele>384.0</ele><time>2026-04-26T15:11:01.938Z</time></trkpt><trkpt lat="44.076899570713586" lon="10.351203845177906"><ele>384.0</ele><time>2026-04-26T15:11:02.938Z</time></trkpt><trkpt lat="44.07687914499351" lon="10.351302484914315"><ele>384.0</ele><time>2026-04-26T15:11:03.938Z</time></trkpt><trkpt lat="44.07690310996731" lon="10.351416003052622"><ele>384.0</ele><time>2026-04-26T15:11:04.938Z</time></trkpt><trkpt lat="44.07699439829485" lon="10.351543271489463"><ele>384.0</ele><time>2026-04-26T15:11:05.938Z</time></trkpt><trkpt lat="44.077114674411256" lon="10.351606064026159"><ele>384.0</ele><time>2026-04-26T15:11:06.938Z</time></trkpt><trkpt lat="44.07724596280062" lon="10.351635486134477"><ele>383.0</ele><time>2026-04-26T15:11:07.938Z</time></trkpt><trkpt lat="44.07737713701502" lon="10.351675441304733"><ele>382.0</ele><time>2026-04-26T15:11:08.938Z</time></trkpt><trkpt lat="44.077513839513564" lon="10.351694617616591"><ele>381.0</ele><time>2026-04-26T15:11:09.938Z</time></trkpt><trkpt lat="44.07762199951258" lon="10.35173763327491"><ele>380.0</ele><time>2026-04-26T15:11:10.938Z</time></trkpt><trkpt lat="44.0777123414992" lon="10.351833110205884"><ele>383.6666666666667</ele><time>2026-04-26T15:11:11.938Z</time></trkpt><trkpt lat="44.077795242798025" lon="10.351993726793152"><ele>387.33333333333337</ele><time>2026-04-26T15:11:12.938Z</time></trkpt><trkpt lat="44.077908536398134" lon="10.352131247737933"><ele>391.0</ele><time>2026-04-26T15:11:13.938Z</time></trkpt><trkpt lat="44.07800317701465" lon="10.352308962223654"><ele>391.0</ele><time>2026-04-26T15:11:14.938Z</time></trkpt><trkpt lat="44.07809210784718" lon="10.352446279755588"><ele>391.0</ele><time>2026-04-26T15:11:15.938Z</time></trkpt><trkpt lat="44.078175064645514" lon="10.352548473183527"><ele>391.0</ele><time>2026-04-26T15:11:16.938Z</time></trkpt><trkpt lat="44.07828058245866" lon="10.35260600817038"><ele>391.0</ele><time>2026-04-26T15:11:17.938Z</time></trkpt><trkpt lat="44.078407973990416" lon="10.352654265400334"><ele>388.6666666666667</ele><time>2026-04-26T15:11:18.938Z</time></trkpt><trkpt lat="44.078564913534066" lon="10.35267642172628"><ele>386.33333333333337</ele><time>2026-04-26T15:11:19.938Z</time></trkpt><trkpt lat="44.07875289694767" lon="10.352681107181624"><ele>384.0</ele><time>2026-04-26T15:11:20.938Z</time></trkpt><trkpt lat="44.07894567156988" lon="10.352664649507856"><ele>388.33333333333337</ele><time>2026-04-26T15:11:21.938Z</time></trkpt><trkpt lat="44.079140028167195" lon="10.35262555256387"><ele>392.6666666666667</ele><time>2026-04-26T15:11:22.938Z</time></trkpt><trkpt lat="44.0793119601394" lon="10.352624245478792"><ele>397.0</ele><time>2026-04-26T15:11:23.938Z</time></trkpt><trkpt lat="44.079454090379315" lon="10.352627674986149"><ele>397.0</ele><time>2026-04-26T15:11:24.938Z</time></trkpt><trkpt lat="44.07956564312369" lon="10.352656153962172"><ele>397.0</ele><time>2026-04-26T15:11:25.938Z</time></trkpt><trkpt lat="44.07965118796577" lon="10.352746990148535"><ele>397.0</ele><time>2026-04-26T15:11:26.938Z</time></trkpt><trkpt lat="44.0797494366623" lon="10.352883808050292"><ele>397.0</ele><time>2026-04-26T15:11:27.938Z</time></trkpt><trkpt lat="44.079862882367955" lon="10.353028223056189"><ele>396.33333333333337</ele><time>2026-04-26T15:11:28.938Z</time></trkpt><trkpt lat="44.079974961877085" lon="10.353157228700837"><ele>395.66666666666663</ele><time>2026-04-26T15:11:29.938Z</time></trkpt><trkpt lat="44.08006979026519" lon="10.353314614012495"><ele>395.0</ele><time>2026-04-26T15:11:30.938Z</time></trkpt><trkpt lat="44.080152911961314" lon="10.35350518086747"><ele>395.0</ele><time>2026-04-26T15:11:31.938Z</time></trkpt><trkpt lat="44.08022886172722" lon="10.353718053852155"><ele>395.0</ele><time>2026-04-26T15:11:32.938Z</time></trkpt><trkpt lat="44.08030450087992" lon="10.353930868799223"><ele>395.0</ele><time>2026-04-26T15:11:33.938Z</time></trkpt><trkpt lat="44.08038455095877" lon="10.35412413797785"><ele>394.66666666666663</ele><time>2026-04-26T15:11:34.938Z</time></trkpt><trkpt lat="44.08044723680845" lon="10.354315855227453"><ele>394.33333333333337</ele><time>2026-04-26T15:11:35.938Z</time></trkpt><trkpt lat="44.080493553709886" lon="10.354510802282384"><ele>394.0</ele><time>2026-04-26T15:11:36.938Z</time></trkpt><trkpt lat="44.080523292818626" lon="10.354719257953727"><ele>394.0</ele><time>2026-04-26T15:11:37.938Z</time></trkpt><trkpt lat="44.080533392484384" lon="10.354951023775037"><ele>394.0</ele><time>2026-04-26T15:11:38.938Z</time></trkpt><trkpt lat="44.08053731668579" lon="10.355180865175324"><ele>394.0</ele><time>2026-04-26T15:11:39.938Z</time></trkpt><trkpt lat="44.08054654502571" lon="10.355421187806305"><ele>401.0</ele><time>2026-04-26T15:11:40.938Z</time></trkpt><trkpt lat="44.08053886198119" lon="10.3556531099611"><ele>408.0</ele><time>2026-04-26T15:11:41.938Z</time></trkpt><trkpt lat="44.08052742746255" lon="10.355875374656154"><ele>415.0</ele><time>2026-04-26T15:11:42.938Z</time></trkpt><trkpt lat="44.08053848819489" lon="10.356086053961267"><ele>415.0</ele><time>2026-04-26T15:11:43.938Z</time></trkpt><trkpt lat="44.08055940047793" lon="10.356271939036029"><ele>415.0</ele><time>2026-04-26T15:11:44.938Z</time></trkpt><trkpt lat="44.08060440991459" lon="10.35647116292018"><ele>415.0</ele><time>2026-04-26T15:11:45.938Z</time></trkpt><trkpt lat="44.080661684060544" lon="10.356674733352643"><ele>415.0</ele><time>2026-04-26T15:11:46.938Z</time></trkpt><trkpt lat="44.08072933660547" lon="10.356881214595262"><ele>410.33333333333337</ele><time>2026-04-26T15:11:47.938Z</time></trkpt><trkpt lat="44.080836166042275" lon="10.357107819974132"><ele>405.66666666666663</ele><time>2026-04-26T15:11:48.938Z</time></trkpt><trkpt lat="44.08094764899072" lon="10.357319860861121"><ele>401.0</ele><time>2026-04-26T15:11:49.938Z</time></trkpt><trkpt lat="44.08103636182683" lon="10.35752717410672"><ele>395.0</ele><time>2026-04-26T15:11:50.938Z</time></trkpt><trkpt lat="44.081116137684006" lon="10.357719685765533"><ele>389.0</ele><time>2026-04-26T15:11:51.938Z</time></trkpt><trkpt lat="44.08121040766892" lon="10.35791322294295"><ele>383.0</ele><time>2026-04-26T15:11:52.938Z</time></trkpt><trkpt lat="44.081266176060005" lon="10.358122210861016"><ele>381.25</ele><time>2026-04-26T15:11:53.938Z</time></trkpt><trkpt lat="44.08130567187857" lon="10.358318669653128"><ele>379.5</ele><time>2026-04-26T15:11:54.938Z</time></trkpt><trkpt lat="44.081338603280045" lon="10.35850304118698"><ele>377.75</ele><time>2026-04-26T15:11:55.938Z</time></trkpt><trkpt lat="44.08135102485606" lon="10.358667954412384"><ele>376.0</ele><time>2026-04-26T15:11:56.938Z</time></trkpt><trkpt lat="44.0813160155331" lon="10.358822611463992"><ele>375.66666666666663</ele><time>2026-04-26T15:11:57.938Z</time></trkpt><trkpt lat="44.08123510726026" lon="10.358979727238458"><ele>375.3333333333333</ele><time>2026-04-26T15:11:58.938Z</time></trkpt><trkpt lat="44.081131509050586" lon="10.359152884805168"><ele>375.0</ele><time>2026-04-26T15:11:59.938Z</time></trkpt><trkpt lat="44.08103440859039" lon="10.359311683994045"><ele>375.0</ele><time>2026-04-26T15:12:00.938Z</time></trkpt><trkpt lat="44.0809428084415" lon="10.359503659753235"><ele>375.0</ele><time>2026-04-26T15:12:01.938Z</time></trkpt><trkpt lat="44.08086004374204" lon="10.359687452215782"><ele>375.0</ele><time>2026-04-26T15:12:02.938Z</time></trkpt><trkpt lat="44.08077697896363" lon="10.35985126273096"><ele>376.5</ele><time>2026-04-26T15:12:03.938Z</time></trkpt><trkpt lat="44.0807111986005" lon="10.36001351286135"><ele>378.0</ele><time>2026-04-26T15:12:04.938Z</time></trkpt><trkpt lat="44.080651239843355" lon="10.360178386545794"><ele>379.5</ele><time>2026-04-26T15:12:05.938Z</time></trkpt><trkpt lat="44.08061608547622" lon="10.360356209673256"><ele>381.0</ele><time>2026-04-26T15:12:06.938Z</time></trkpt><trkpt lat="44.08062275569446" lon="10.360568014420064"><ele>381.0</ele><time>2026-04-26T15:12:07.938Z</time></trkpt><trkpt lat="44.080647906173674" lon="10.360805050682853"><ele>381.0</ele><time>2026-04-26T15:12:08.938Z</time></trkpt><trkpt lat="44.08066378046732" lon="10.361059613866551"><ele>381.0</ele><time>2026-04-26T15:12:09.938Z</time></trkpt><trkpt lat="44.08067283939411" lon="10.361312686081105"><ele>380.3333333333333</ele><time>2026-04-26T15:12:10.938Z</time></trkpt><trkpt lat="44.080678313453305" lon="10.361570170432234"><ele>379.66666666666663</ele><time>2026-04-26T15:12:11.938Z</time></trkpt><trkpt lat="44.08068665387496" lon="10.36187685605238"><ele>379.0</ele><time>2026-04-26T15:12:12.938Z</time></trkpt><trkpt lat="44.080688866030776" lon="10.362155457154238"><ele>379.0</ele><time>2026-04-26T15:12:13.938Z</time></trkpt><trkpt lat="44.08069766460735" lon="10.362420330318173"><ele>379.0</ele><time>2026-04-26T15:12:14.938Z</time></trkpt><trkpt lat="44.080706098533796" lon="10.362661528114007"><ele>379.0</ele><time>2026-04-26T15:12:15.938Z</time></trkpt><trkpt lat="44.08071510715577" lon="10.362888380383483"><ele>379.25</ele><time>2026-04-26T15:12:16.938Z</time></trkpt><trkpt lat="44.080714089752846" lon="10.363087937641367"><ele>379.5</ele><time>2026-04-26T15:12:17.938Z</time></trkpt><trkpt lat="44.08072844135257" lon="10.36327599406849"><ele>379.75</ele><time>2026-04-26T15:12:18.938Z</time></trkpt><trkpt lat="44.080755483460734" lon="10.363459570534323"><ele>380.0</ele><time>2026-04-26T15:12:19.938Z</time></trkpt><trkpt lat="44.08080529198648" lon="10.363652356202303"><ele>375.6666666666667</ele><time>2026-04-26T15:12:20.938Z</time></trkpt><trkpt lat="44.08087350515469" lon="10.363848040191563"><ele>371.3333333333333</ele><time>2026-04-26T15:12:21.938Z</time></trkpt><trkpt lat="44.0809415908045" lon="10.364048459241573"><ele>367.0</ele><time>2026-04-26T15:12:22.938Z</time></trkpt><trkpt lat="44.08101459287054" lon="10.364251746849948"><ele>367.0</ele><time>2026-04-26T15:12:23.938Z</time></trkpt><trkpt lat="44.081086460181396" lon="10.364449102747962"><ele>367.0</ele><time>2026-04-26T15:12:24.938Z</time></trkpt><trkpt lat="44.081169126055826" lon="10.36465365182218"><ele>367.0</ele><time>2026-04-26T15:12:25.938Z</time></trkpt><trkpt lat="44.08124233084621" lon="10.364840788142821"><ele>368.5</ele><time>2026-04-26T15:12:26.938Z</time></trkpt><trkpt lat="44.08132238954639" lon="10.364996172360359"><ele>370.0</ele><time>2026-04-26T15:12:27.938Z</time></trkpt><trkpt lat="44.08141097430052" lon="10.365140095108282"><ele>371.5</ele><time>2026-04-26T15:12:28.938Z</time></trkpt><trkpt lat="44.081516496459344" lon="10.365266488771276"><ele>373.0</ele><time>2026-04-26T15:12:29.938Z</time></trkpt><trkpt lat="44.081637441117806" lon="10.365352940242104"><ele>373.0</ele><time>2026-04-26T15:12:30.938Z</time></trkpt><trkpt lat="44.08178551985348" lon="10.36541569305699"><ele>373.0</ele><time>2026-04-26T15:12:31.938Z</time></trkpt><trkpt lat="44.08194534008007" lon="10.365515470274456"><ele>373.0</ele><time>2026-04-26T15:12:32.938Z</time></trkpt><trkpt lat="44.082121099235856" lon="10.36561371028518"><ele>370.0</ele><time>2026-04-26T15:12:33.938Z</time></trkpt><trkpt lat="44.082262428245116" lon="10.365718339209574"><ele>367.0</ele><time>2026-04-26T15:12:34.938Z</time></trkpt><trkpt lat="44.082396417342146" lon="10.365810121731139"><ele>364.0</ele><time>2026-04-26T15:12:35.938Z</time></trkpt><trkpt lat="44.08251239858744" lon="10.365884277245796"><ele>361.0</ele><time>2026-04-26T15:12:36.938Z</time></trkpt><trkpt lat="44.0826284569232" lon="10.36593345996285"><ele>361.0</ele><time>2026-04-26T15:12:37.937Z</time></trkpt><trkpt lat="44.08276293604174" lon="10.365967827240178"><ele>361.0</ele><time>2026-04-26T15:12:38.937Z</time></trkpt><trkpt lat="44.08292189975966" lon="10.36593788520438"><ele>361.0</ele><time>2026-04-26T15:12:39.937Z</time></trkpt><trkpt lat="44.08307233942912" lon="10.365931473921924"><ele>361.0</ele><time>2026-04-26T15:12:40.937Z</time></trkpt><trkpt lat="44.083230264606044" lon="10.365908552333723"><ele>360.75</ele><time>2026-04-26T15:12:41.937Z</time></trkpt><trkpt lat="44.08337664242933" lon="10.365880167939805"><ele>360.5</ele><time>2026-04-26T15:12:42.937Z</time></trkpt><trkpt lat="44.083500996319664" lon="10.365861395481357"><ele>360.25</ele><time>2026-04-26T15:12:43.937Z</time></trkpt><trkpt lat="44.0836083764707" lon="10.365842359534762"><ele>360.0</ele><time>2026-04-26T15:12:44.937Z</time></trkpt><trkpt lat="44.08370677979841" lon="10.365848842505395"><ele>360.0</ele><time>2026-04-26T15:12:45.937Z</time></trkpt><trkpt lat="44.083793716740445" lon="10.366032337980288"><ele>360.0</ele><time>2026-04-26T15:12:47.937Z</time></trkpt><trkpt lat="44.0838318389935" lon="10.366190885485992"><ele>360.0</ele><time>2026-04-26T15:12:48.937Z</time></trkpt><trkpt lat="44.083865846990534" lon="10.36635307294548"><ele>360.0</ele><time>2026-04-26T15:12:49.937Z</time></trkpt><trkpt lat="44.08390801877083" lon="10.366515437443732"><ele>358.5</ele><time>2026-04-26T15:12:50.937Z</time></trkpt><trkpt lat="44.08392294550218" lon="10.36667992692581"><ele>357.0</ele><time>2026-04-26T15:12:51.937Z</time></trkpt><trkpt lat="44.0839075622024" lon="10.36685489935033"><ele>355.5</ele><time>2026-04-26T15:12:52.937Z</time></trkpt><trkpt lat="44.08388307598923" lon="10.367035733556708"><ele>354.0</ele><time>2026-04-26T15:12:53.937Z</time></trkpt><trkpt lat="44.08385076085936" lon="10.367202458817305"><ele>356.4</ele><time>2026-04-26T15:12:54.937Z</time></trkpt><trkpt lat="44.083806787731426" lon="10.36735780804258"><ele>358.79999999999995</ele><time>2026-04-26T15:12:55.937Z</time></trkpt><trkpt lat="44.08374284868085" lon="10.367486286108905"><ele>361.20000000000005</ele><time>2026-04-26T15:12:56.937Z</time></trkpt><trkpt lat="44.08367983931443" lon="10.36761949653856"><ele>363.6</ele><time>2026-04-26T15:12:57.937Z</time></trkpt><trkpt lat="44.08362579589889" lon="10.367740442128621"><ele>366.0</ele><time>2026-04-26T15:12:58.937Z</time></trkpt><trkpt lat="44.08358087986379" lon="10.367861789036734"><ele>366.0</ele><time>2026-04-26T15:12:59.937Z</time></trkpt><trkpt lat="44.08358910188974" lon="10.36799878795306"><ele>366.0</ele><time>2026-04-26T15:13:00.937Z</time></trkpt><trkpt lat="44.08364999209242" lon="10.368122139740441"><ele>366.0</ele><time>2026-04-26T15:13:01.937Z</time></trkpt><trkpt lat="44.08372721058359" lon="10.368244280460098"><ele>366.0</ele><time>2026-04-26T15:13:02.937Z</time></trkpt><trkpt lat="44.0838013548993" lon="10.368388699544642"><ele>365.5</ele><time>2026-04-26T15:13:03.937Z</time></trkpt><trkpt lat="44.083871265820896" lon="10.368533029405862"><ele>365.0</ele><time>2026-04-26T15:13:04.937Z</time></trkpt><trkpt lat="44.08394692985137" lon="10.36865911317036"><ele>364.5</ele><time>2026-04-26T15:13:05.937Z</time></trkpt><trkpt lat="44.08404309434192" lon="10.368747533691943"><ele>364.0</ele><time>2026-04-26T15:13:06.937Z</time></trkpt><trkpt lat="44.08414257602098" lon="10.368823674697062"><ele>358.3333333333333</ele><time>2026-04-26T15:13:07.937Z</time></trkpt><trkpt lat="44.08426103762655" lon="10.368897263821868"><ele>352.6666666666667</ele><time>2026-04-26T15:13:08.937Z</time></trkpt><trkpt lat="44.08440480969386" lon="10.369012127006087"><ele>347.0</ele><time>2026-04-26T15:13:09.937Z</time></trkpt><trkpt lat="44.084559692567986" lon="10.369124293492817"><ele>347.0</ele><time>2026-04-26T15:13:10.937Z</time></trkpt><trkpt lat="44.08471910674311" lon="10.369250456251391"><ele>347.0</ele><time>2026-04-26T15:13:11.937Z</time></trkpt><trkpt lat="44.084863457746" lon="10.369368347019915"><ele>347.0</ele><time>2026-04-26T15:13:12.937Z</time></trkpt><trkpt lat="44.08497902249243" lon="10.369462938363162"><ele>350.0</ele><time>2026-04-26T15:13:13.937Z</time></trkpt><trkpt lat="44.08505000887798" lon="10.369547480356697"><ele>353.0</ele><time>2026-04-26T15:13:14.937Z</time></trkpt><trkpt lat="44.085090640067826" lon="10.369661718225817"><ele>356.0</ele><time>2026-04-26T15:13:15.937Z</time></trkpt><trkpt lat="44.085084764329245" lon="10.3698096848119"><ele>359.0</ele><time>2026-04-26T15:13:16.938Z</time></trkpt><trkpt lat="44.08502903123977" lon="10.369956640301726"><ele>362.0</ele><time>2026-04-26T15:13:17.938Z</time></trkpt><trkpt lat="44.08494130976419" lon="10.37007098773911"><ele>360.25</ele><time>2026-04-26T15:13:18.938Z</time></trkpt><trkpt lat="44.08483395431142" lon="10.370161971007176"><ele>358.5</ele><time>2026-04-26T15:13:19.938Z</time></trkpt><trkpt lat="44.08476660615097" lon="10.370267929023605"><ele>356.75</ele><time>2026-04-26T15:13:20.938Z</time></trkpt><trkpt lat="44.08474452195161" lon="10.370422830179084"><ele>355.0</ele><time>2026-04-26T15:13:21.938Z</time></trkpt><trkpt lat="44.084745115000274" lon="10.370586309135248"><ele>353.8</ele><time>2026-04-26T15:13:22.938Z</time></trkpt><trkpt lat="44.08476153525571" lon="10.370704133868076"><ele>352.6</ele><time>2026-04-26T15:13:23.938Z</time></trkpt><trkpt lat="44.084800244633904" lon="10.370801279489276"><ele>351.4</ele><time>2026-04-26T15:13:24.938Z</time></trkpt><trkpt lat="44.08491708724412" lon="10.370876869000554"><ele>350.2</ele><time>2026-04-26T15:13:25.938Z</time></trkpt><trkpt lat="44.08501900563177" lon="10.370942180177877"><ele>349.0</ele><time>2026-04-26T15:13:26.938Z</time></trkpt><trkpt lat="44.08514573944572" lon="10.37098915893623"><ele>349.0</ele><time>2026-04-26T15:13:27.938Z</time></trkpt><trkpt lat="44.08527929429792" lon="10.371027838900291"><ele>349.0</ele><time>2026-04-26T15:13:28.938Z</time></trkpt><trkpt lat="44.085388584040324" lon="10.371058358477983"><ele>349.0</ele><time>2026-04-26T15:13:29.938Z</time></trkpt><trkpt lat="44.08551050163767" lon="10.371053850162127"><ele>349.0</ele><time>2026-04-26T15:13:30.938Z</time></trkpt><trkpt lat="44.08562971165123" lon="10.371002383201844"><ele>356.3333333333333</ele><time>2026-04-26T15:13:31.938Z</time></trkpt><trkpt lat="44.08577029543834" lon="10.370929603934835"><ele>363.6666666666667</ele><time>2026-04-26T15:13:32.938Z</time></trkpt><trkpt lat="44.08592990396758" lon="10.370876179847478"><ele>371.0</ele><time>2026-04-26T15:13:33.938Z</time></trkpt><trkpt lat="44.0860781405995" lon="10.370867581324738"><ele>371.0</ele><time>2026-04-26T15:13:34.938Z</time></trkpt><trkpt lat="44.08621185383654" lon="10.370868371063334"><ele>371.0</ele><time>2026-04-26T15:13:35.938Z</time></trkpt><trkpt lat="44.08632569452956" lon="10.370897358888321"><ele>371.0</ele><time>2026-04-26T15:13:36.938Z</time></trkpt><trkpt lat="44.08641227870682" lon="10.371003807833556"><ele>371.0</ele><time>2026-04-26T15:13:37.938Z</time></trkpt><trkpt lat="44.086495386538225" lon="10.371091829715471"><ele>371.0</ele><time>2026-04-26T15:13:38.938Z</time></trkpt><trkpt lat="44.08651527216658" lon="10.371250871692034"><ele>371.0</ele><time>2026-04-26T15:13:39.938Z</time></trkpt><trkpt lat="44.08653641539092" lon="10.371394741559337"><ele>371.0</ele><time>2026-04-26T15:13:40.938Z</time></trkpt><trkpt lat="44.086594625358266" lon="10.371587513502883"><ele>371.0</ele><time>2026-04-26T15:13:41.938Z</time></trkpt><trkpt lat="44.08667600588194" lon="10.37174476156489"><ele>364.6666666666667</ele><time>2026-04-26T15:13:42.938Z</time></trkpt><trkpt lat="44.08678684786133" lon="10.371885478578548"><ele>358.3333333333333</ele><time>2026-04-26T15:13:43.938Z</time></trkpt><trkpt lat="44.08690965385101" lon="10.372027935901349"><ele>352.0</ele><time>2026-04-26T15:13:44.938Z</time></trkpt><trkpt lat="44.08702173918436" lon="10.37219187245632"><ele>350.0</ele><time>2026-04-26T15:13:45.938Z</time></trkpt><trkpt lat="44.08714584260893" lon="10.37235698872713"><ele>348.0</ele><time>2026-04-26T15:13:46.938Z</time></trkpt><trkpt lat="44.08727159860902" lon="10.372521817224964"><ele>346.0</ele><time>2026-04-26T15:13:47.938Z</time></trkpt><trkpt lat="44.08738685050754" lon="10.372675998945434"><ele>344.5</ele><time>2026-04-26T15:13:48.938Z</time></trkpt><trkpt lat="44.08748325533224" lon="10.37280921383723"><ele>343.0</ele><time>2026-04-26T15:13:49.938Z</time></trkpt><trkpt lat="44.08756449907961" lon="10.372983955804175"><ele>341.5</ele><time>2026-04-26T15:13:50.938Z</time></trkpt><trkpt lat="44.0876284585896" lon="10.373181690138336"><ele>340.0</ele><time>2026-04-26T15:13:51.938Z</time></trkpt><trkpt lat="44.087690271817976" lon="10.373394561851693"><ele>340.0</ele><time>2026-04-26T15:13:52.938Z</time></trkpt><trkpt lat="44.0877432796451" lon="10.37361057919861"><ele>340.0</ele><time>2026-04-26T15:13:53.938Z</time></trkpt><trkpt lat="44.08779849646381" lon="10.373831047446979"><ele>340.0</ele><time>2026-04-26T15:13:54.938Z</time></trkpt><trkpt lat="44.08785569357126" lon="10.374041020309008"><ele>339.5</ele><time>2026-04-26T15:13:55.938Z</time></trkpt><trkpt lat="44.08791125222519" lon="10.37423956774578"><ele>339.0</ele><time>2026-04-26T15:13:56.938Z</time></trkpt><trkpt lat="44.08796307853993" lon="10.374429073517332"><ele>338.5</ele><time>2026-04-26T15:13:57.938Z</time></trkpt><trkpt lat="44.08801445700482" lon="10.374596842849005"><ele>338.0</ele><time>2026-04-26T15:13:58.938Z</time></trkpt><trkpt lat="44.088073315221095" lon="10.374744517947171"><ele>338.0</ele><time>2026-04-26T15:13:59.938Z</time></trkpt><trkpt lat="44.08816190413231" lon="10.374862537011586"><ele>338.0</ele><time>2026-04-26T15:14:00.938Z</time></trkpt><trkpt lat="44.08828784675249" lon="10.374922170523359"><ele>338.0</ele><time>2026-04-26T15:14:01.938Z</time></trkpt><trkpt lat="44.08842850018773" lon="10.374967855590777"><ele>338.0</ele><time>2026-04-26T15:14:02.938Z</time></trkpt><trkpt lat="44.08859056441521" lon="10.374983593077786"><ele>341.6666666666667</ele><time>2026-04-26T15:14:03.938Z</time></trkpt><trkpt lat="44.088768444042024" lon="10.375010924041904"><ele>345.3333333333333</ele><time>2026-04-26T15:14:04.938Z</time></trkpt><trkpt lat="44.08893094902624" lon="10.375081587084345"><ele>349.0</ele><time>2026-04-26T15:14:05.938Z</time></trkpt><trkpt lat="44.08908497466775" lon="10.37515578675699"><ele>352.0</ele><time>2026-04-26T15:14:06.938Z</time></trkpt><trkpt lat="44.08921460752593" lon="10.37523231681729"><ele>355.0</ele><time>2026-04-26T15:14:07.938Z</time></trkpt><trkpt lat="44.089327782618255" lon="10.375303918806678"><ele>358.0</ele><time>2026-04-26T15:14:08.938Z</time></trkpt><trkpt lat="44.089420425052204" lon="10.375360930438804"><ele>361.0</ele><time>2026-04-26T15:14:09.938Z</time></trkpt><trkpt lat="44.089492804982974" lon="10.375428556820205"><ele>357.4</ele><time>2026-04-26T15:14:10.938Z</time></trkpt><trkpt lat="44.08955007610755" lon="10.37552370661332"><ele>353.8</ele><time>2026-04-26T15:14:11.938Z</time></trkpt><trkpt lat="44.08960008914955" lon="10.375674741011414"><ele>350.2</ele><time>2026-04-26T15:14:12.938Z</time></trkpt><trkpt lat="44.089613986257426" lon="10.37582630551284"><ele>346.59999999999997</ele><time>2026-04-26T15:14:13.938Z</time></trkpt><trkpt lat="44.08959969434789" lon="10.375962450662447"><ele>343.0</ele><time>2026-04-26T15:14:14.938Z</time></trkpt><trkpt lat="44.089550654498986" lon="10.37609508811595"><ele>343.0</ele><time>2026-04-26T15:14:15.938Z</time></trkpt><trkpt lat="44.08948679889064" lon="10.376206363424274"><ele>343.0</ele><time>2026-04-26T15:14:16.938Z</time></trkpt><trkpt lat="44.08936805749665" lon="10.37628570445635"><ele>343.0</ele><time>2026-04-26T15:14:17.938Z</time></trkpt><trkpt lat="44.08927617181851" lon="10.376357919366528"><ele>343.0</ele><time>2026-04-26T15:14:18.938Z</time></trkpt><trkpt lat="44.08921655384001" lon="10.376461525172376"><ele>343.0</ele><time>2026-04-26T15:14:19.938Z</time></trkpt><trkpt lat="44.08915514167429" lon="10.376620284714535"><ele>347.3333333333333</ele><time>2026-04-26T15:14:20.938Z</time></trkpt><trkpt lat="44.08909409864689" lon="10.376830084732365"><ele>351.6666666666667</ele><time>2026-04-26T15:14:21.938Z</time></trkpt><trkpt lat="44.089025242589365" lon="10.3770394007426"><ele>356.0</ele><time>2026-04-26T15:14:22.938Z</time></trkpt><trkpt lat="44.08895001174821" lon="10.377252729193733"><ele>356.0</ele><time>2026-04-26T15:14:23.938Z</time></trkpt><trkpt lat="44.088868939874864" lon="10.37745186933778"><ele>356.0</ele><time>2026-04-26T15:14:24.938Z</time></trkpt><trkpt lat="44.088783262001336" lon="10.377625902258094"><ele>356.0</ele><time>2026-04-26T15:14:25.938Z</time></trkpt><trkpt lat="44.08869155231777" lon="10.377788938705905"><ele>356.0</ele><time>2026-04-26T15:14:26.938Z</time></trkpt><trkpt lat="44.08857806461871" lon="10.37793977390213"><ele>356.0</ele><time>2026-04-26T15:14:27.938Z</time></trkpt><trkpt lat="44.088466667153625" lon="10.378079898057287"><ele>356.0</ele><time>2026-04-26T15:14:28.938Z</time></trkpt><trkpt lat="44.08838149871804" lon="10.378223544527298"><ele>356.0</ele><time>2026-04-26T15:14:29.938Z</time></trkpt><trkpt lat="44.088331656645906" lon="10.378366803052568"><ele>355.6</ele><time>2026-04-26T15:14:30.938Z</time></trkpt><trkpt lat="44.08828941616157" lon="10.37853144642921"><ele>355.20000000000005</ele><time>2026-04-26T15:14:31.938Z</time></trkpt><trkpt lat="44.088265761374" lon="10.378667698789325"><ele>354.79999999999995</ele><time>2026-04-26T15:14:32.938Z</time></trkpt><trkpt lat="44.088269941792745" lon="10.378784817961863"><ele>354.4</ele><time>2026-04-26T15:14:33.938Z</time></trkpt><trkpt lat="44.088322434829365" lon="10.378905025543498"><ele>354.0</ele><time>2026-04-26T15:14:34.938Z</time></trkpt><trkpt lat="44.08842922665209" lon="10.379008732439365"><ele>350.25</ele><time>2026-04-26T15:14:35.938Z</time></trkpt><trkpt lat="44.08853627042811" lon="10.379057179492216"><ele>346.5</ele><time>2026-04-26T15:14:36.938Z</time></trkpt><trkpt lat="44.08865626657296" lon="10.379088535802383"><ele>342.75</ele><time>2026-04-26T15:14:37.938Z</time></trkpt><trkpt lat="44.088778320666904" lon="10.37909424691618"><ele>339.0</ele><time>2026-04-26T15:14:38.938Z</time></trkpt><trkpt lat="44.08892936944403" lon="10.379070976803481"><ele>342.0</ele><time>2026-04-26T15:14:39.938Z</time></trkpt><trkpt lat="44.08909335341057" lon="10.379075297577344"><ele>345.0</ele><time>2026-04-26T15:14:40.938Z</time></trkpt><trkpt lat="44.08924350834919" lon="10.37910633825847"><ele>348.0</ele><time>2026-04-26T15:14:41.938Z</time></trkpt><trkpt lat="44.08938849453615" lon="10.379155661198693"><ele>348.0</ele><time>2026-04-26T15:14:42.936Z</time></trkpt><trkpt lat="44.08951927286082" lon="10.3792296515789"><ele>348.0</ele><time>2026-04-26T15:14:43.936Z</time></trkpt><trkpt lat="44.08964622750458" lon="10.379357975199001"><ele>348.0</ele><time>2026-04-26T15:14:44.936Z</time></trkpt><trkpt lat="44.08973967306819" lon="10.37955834489203"><ele>344.0</ele><time>2026-04-26T15:14:45.936Z</time></trkpt><trkpt lat="44.08981003973754" lon="10.379781290727134"><ele>340.0</ele><time>2026-04-26T15:14:46.936Z</time></trkpt><trkpt lat="44.08985852686201" lon="10.379992506746605"><ele>336.0</ele><time>2026-04-26T15:14:47.936Z</time></trkpt><trkpt lat="44.089909263587764" lon="10.380171571910145"><ele>337.25</ele><time>2026-04-26T15:14:48.936Z</time></trkpt><trkpt lat="44.089957233285375" lon="10.380327194389976"><ele>338.5</ele><time>2026-04-26T15:14:49.936Z</time></trkpt><trkpt lat="44.089953976086456" lon="10.380489386567282"><ele>339.75</ele><time>2026-04-26T15:14:50.936Z</time></trkpt><trkpt lat="44.08988541448485" lon="10.380672829309725"><ele>341.0</ele><time>2026-04-26T15:14:51.936Z</time></trkpt><trkpt lat="44.08977594944872" lon="10.380841937196777"><ele>341.0</ele><time>2026-04-26T15:14:52.936Z</time></trkpt><trkpt lat="44.08967061174995" lon="10.381010137971002"><ele>341.0</ele><time>2026-04-26T15:14:53.936Z</time></trkpt><trkpt lat="44.0895990159448" lon="10.381190607267627"><ele>341.0</ele><time>2026-04-26T15:14:54.936Z</time></trkpt><trkpt lat="44.089558383455085" lon="10.3813920917335"><ele>340.6666666666667</ele><time>2026-04-26T15:14:55.936Z</time></trkpt><trkpt lat="44.08953938564805" lon="10.38161961068629"><ele>340.3333333333333</ele><time>2026-04-26T15:14:56.936Z</time></trkpt><trkpt lat="44.08952354452233" lon="10.3818525035085"><ele>340.0</ele><time>2026-04-26T15:14:57.936Z</time></trkpt><trkpt lat="44.08949251220671" lon="10.382076361843334"><ele>338.5</ele><time>2026-04-26T15:14:58.936Z</time></trkpt><trkpt lat="44.089454704518424" lon="10.38228804503971"><ele>337.0</ele><time>2026-04-26T15:14:59.936Z</time></trkpt><trkpt lat="44.08942094759796" lon="10.382481187889264"><ele>335.5</ele><time>2026-04-26T15:15:00.936Z</time></trkpt><trkpt lat="44.08939623931241" lon="10.382656786815796"><ele>334.0</ele><time>2026-04-26T15:15:01.936Z</time></trkpt><trkpt lat="44.089394195099935" lon="10.382830398360843"><ele>334.0</ele><time>2026-04-26T15:15:02.936Z</time></trkpt><trkpt lat="44.089427312892035" lon="10.383002026769969"><ele>334.0</ele><time>2026-04-26T15:15:03.936Z</time></trkpt><trkpt lat="44.089478440407284" lon="10.383168401019368"><ele>334.0</ele><time>2026-04-26T15:15:04.936Z</time></trkpt><trkpt lat="44.089543870639595" lon="10.383323913272397"><ele>334.0</ele><time>2026-04-26T15:15:05.936Z</time></trkpt><trkpt lat="44.08962803269898" lon="10.383467241565222"><ele>334.25</ele><time>2026-04-26T15:15:06.936Z</time></trkpt><trkpt lat="44.08973233705992" lon="10.383597703418049"><ele>334.5</ele><time>2026-04-26T15:15:07.936Z</time></trkpt><trkpt lat="44.08984798662299" lon="10.383718212447254"><ele>334.75</ele><time>2026-04-26T15:15:08.936Z</time></trkpt><trkpt lat="44.089963522146256" lon="10.383840180314884"><ele>335.0</ele><time>2026-04-26T15:15:09.936Z</time></trkpt><trkpt lat="44.0900836479239" lon="10.383965909384816"><ele>333.75</ele><time>2026-04-26T15:15:10.936Z</time></trkpt><trkpt lat="44.09019985342702" lon="10.384087387354374"><ele>332.5</ele><time>2026-04-26T15:15:11.936Z</time></trkpt><trkpt lat="44.09032724326968" lon="10.384192922946658"><ele>331.25</ele><time>2026-04-26T15:15:12.936Z</time></trkpt><trkpt lat="44.09046488406547" lon="10.384271397214246"><ele>330.0</ele><time>2026-04-26T15:15:13.936Z</time></trkpt><trkpt lat="44.09061305562158" lon="10.384333892887271"><ele>330.0</ele><time>2026-04-26T15:15:14.936Z</time></trkpt><trkpt lat="44.09075420615044" lon="10.384377478776297"><ele>330.0</ele><time>2026-04-26T15:15:15.936Z</time></trkpt><trkpt lat="44.090879385224355" lon="10.38441401894776"><ele>330.0</ele><time>2026-04-26T15:15:16.936Z</time></trkpt><trkpt lat="44.09100074427799" lon="10.384459772401737"><ele>330.0</ele><time>2026-04-26T15:15:17.936Z</time></trkpt><trkpt lat="44.09112147243145" lon="10.384517940818778"><ele>330.2</ele><time>2026-04-26T15:15:18.936Z</time></trkpt><trkpt lat="44.09123817030998" lon="10.384571939918914"><ele>330.4</ele><time>2026-04-26T15:15:19.936Z</time></trkpt><trkpt lat="44.091347209835675" lon="10.38462367620188"><ele>330.6</ele><time>2026-04-26T15:15:20.936Z</time></trkpt><trkpt lat="44.091451344058676" lon="10.384687412497598"><ele>330.8</ele><time>2026-04-26T15:15:21.936Z</time></trkpt><trkpt lat="44.091539502211475" lon="10.384741079880413"><ele>331.0</ele><time>2026-04-26T15:15:22.936Z</time></trkpt><trkpt lat="44.091622784059695" lon="10.384787657640853"><ele>331.0</ele><time>2026-04-26T15:15:23.936Z</time></trkpt><trkpt lat="44.0917025326065" lon="10.384837060012721"><ele>331.0</ele><time>2026-04-26T15:15:24.936Z</time></trkpt><trkpt lat="44.09178952407294" lon="10.384886983105504"><ele>331.0</ele><time>2026-04-26T15:15:25.937Z</time></trkpt><trkpt lat="44.0918703197257" lon="10.384946239189588"><ele>331.0</ele><time>2026-04-26T15:15:26.937Z</time></trkpt><trkpt lat="44.09195107641992" lon="10.385024506414569"><ele>331.0</ele><time>2026-04-26T15:15:27.937Z</time></trkpt><trkpt lat="44.092019870253964" lon="10.3851219992648"><ele>331.0</ele><time>2026-04-26T15:15:28.937Z</time></trkpt><trkpt lat="44.092092745478496" lon="10.385215456933935"><ele>331.0</ele><time>2026-04-26T15:15:29.937Z</time></trkpt><trkpt lat="44.09216384610507" lon="10.385304981612913"><ele>331.0</ele><time>2026-04-26T15:15:30.937Z</time></trkpt><trkpt lat="44.092262143829274" lon="10.385368128887581"><ele>331.0</ele><time>2026-04-26T15:15:31.937Z</time></trkpt><trkpt lat="44.09237100404463" lon="10.38543379221868"><ele>331.0</ele><time>2026-04-26T15:15:32.937Z</time></trkpt><trkpt lat="44.09247245640577" lon="10.385477614659392"><ele>330.20000000000005</ele><time>2026-04-26T15:15:33.937Z</time></trkpt><trkpt lat="44.09258740162853" lon="10.385514188719691"><ele>329.40000000000003</ele><time>2026-04-26T15:15:34.937Z</time></trkpt><trkpt lat="44.09268232392432" lon="10.385554212594835"><ele>328.6</ele><time>2026-04-26T15:15:35.937Z</time></trkpt><trkpt lat="44.09276413024558" lon="10.38560760694742"><ele>327.8</ele><time>2026-04-26T15:15:36.937Z</time></trkpt><trkpt lat="44.09284771818003" lon="10.38564810009058"><ele>327.0</ele><time>2026-04-26T15:15:37.937Z</time></trkpt><trkpt lat="44.09295818500567" lon="10.385696076453616"><ele>327.0</ele><time>2026-04-26T15:15:38.937Z</time></trkpt><trkpt lat="44.093080971863245" lon="10.38573060761407"><ele>327.0</ele><time>2026-04-26T15:15:39.937Z</time></trkpt><trkpt lat="44.09323025182246" lon="10.385771407712742"><ele>327.0</ele><time>2026-04-26T15:15:40.937Z</time></trkpt><trkpt lat="44.09342344792987" lon="10.385812629024272"><ele>329.3333333333333</ele><time>2026-04-26T15:15:41.937Z</time></trkpt><trkpt lat="44.093634324742624" lon="10.385851820071501"><ele>331.66666666666663</ele><time>2026-04-26T15:15:42.937Z</time></trkpt><trkpt lat="44.09386485056615" lon="10.385906439010848"><ele>334.0</ele><time>2026-04-26T15:15:43.937Z</time></trkpt><trkpt lat="44.094058263509154" lon="10.38594452841616"><ele>335.75</ele><time>2026-04-26T15:15:44.937Z</time></trkpt><trkpt lat="44.094206062204854" lon="10.386002026052621"><ele>337.5</ele><time>2026-04-26T15:15:45.937Z</time></trkpt><trkpt lat="44.094350731225624" lon="10.386047602043236"><ele>339.25</ele><time>2026-04-26T15:15:46.937Z</time></trkpt><trkpt lat="44.094487243700364" lon="10.38606211917155"><ele>341.0</ele><time>2026-04-26T15:15:47.937Z</time></trkpt><trkpt lat="44.09465782844376" lon="10.386061757511865"><ele>341.0</ele><time>2026-04-26T15:15:48.937Z</time></trkpt><trkpt lat="44.09484412266971" lon="10.386050010115023"><ele>341.0</ele><time>2026-04-26T15:15:49.937Z</time></trkpt><trkpt lat="44.095025847145926" lon="10.386047158673092"><ele>341.0</ele><time>2026-04-26T15:15:50.937Z</time></trkpt><trkpt lat="44.09520718913811" lon="10.386040337774082"><ele>346.0</ele><time>2026-04-26T15:15:51.937Z</time></trkpt><trkpt lat="44.09537800687716" lon="10.386021576358202"><ele>351.0</ele><time>2026-04-26T15:15:52.937Z</time></trkpt><trkpt lat="44.09554543005386" lon="10.385979511839759"><ele>356.0</ele><time>2026-04-26T15:15:53.937Z</time></trkpt><trkpt lat="44.09570297026171" lon="10.385905330706764"><ele>349.25</ele><time>2026-04-26T15:15:54.937Z</time></trkpt><trkpt lat="44.09584385404632" lon="10.385845158812007"><ele>342.5</ele><time>2026-04-26T15:15:55.937Z</time></trkpt><trkpt lat="44.095964216957334" lon="10.385781005438893"><ele>335.75</ele><time>2026-04-26T15:15:56.937Z</time></trkpt><trkpt lat="44.09605829089023" lon="10.385681695325566"><ele>329.0</ele><time>2026-04-26T15:15:57.937Z</time></trkpt><trkpt lat="44.096146029894015" lon="10.385551575220571"><ele>336.5</ele><time>2026-04-26T15:15:58.937Z</time></trkpt><trkpt lat="44.096205501333934" lon="10.385380713783022"><ele>344.0</ele><time>2026-04-26T15:15:59.937Z</time></trkpt><trkpt lat="44.09624371293143" lon="10.385188439406418"><ele>351.5</ele><time>2026-04-26T15:16:00.937Z</time></trkpt><trkpt lat="44.09626017727458" lon="10.38499580818848"><ele>359.0</ele><time>2026-04-26T15:16:01.937Z</time></trkpt><trkpt lat="44.09626348116692" lon="10.384835759054651"><ele>354.75</ele><time>2026-04-26T15:16:02.937Z</time></trkpt><trkpt lat="44.09628451919226" lon="10.384675733772587"><ele>350.5</ele><time>2026-04-26T15:16:03.937Z</time></trkpt><trkpt lat="44.09636717410184" lon="10.384532167085114"><ele>346.25</ele><time>2026-04-26T15:16:04.937Z</time></trkpt><trkpt lat="44.09648931857961" lon="10.384389355792383"><ele>342.0</ele><time>2026-04-26T15:16:05.937Z</time></trkpt><trkpt lat="44.09663115375898" lon="10.384254630262992"><ele>342.0</ele><time>2026-04-26T15:16:06.937Z</time></trkpt><trkpt lat="44.0967775079856" lon="10.384125835124204"><ele>342.0</ele><time>2026-04-26T15:16:07.937Z</time></trkpt><trkpt lat="44.09692869654315" lon="10.384015406019495"><ele>342.0</ele><time>2026-04-26T15:16:08.937Z</time></trkpt><trkpt lat="44.097082511825505" lon="10.38391828365176"><ele>346.0</ele><time>2026-04-26T15:16:09.937Z</time></trkpt><trkpt lat="44.09723422029827" lon="10.38383856338321"><ele>350.0</ele><time>2026-04-26T15:16:10.937Z</time></trkpt><trkpt lat="44.09739528808067" lon="10.383797665962797"><ele>354.0</ele><time>2026-04-26T15:16:11.937Z</time></trkpt><trkpt lat="44.09756119907911" lon="10.383768751818687"><ele>354.0</ele><time>2026-04-26T15:16:12.937Z</time></trkpt><trkpt lat="44.09773414076813" lon="10.383778590757435"><ele>354.0</ele><time>2026-04-26T15:16:13.937Z</time></trkpt><trkpt lat="44.097907742559705" lon="10.383793572697423"><ele>354.0</ele><time>2026-04-26T15:16:14.937Z</time></trkpt><trkpt lat="44.098061532464406" lon="10.383770964307969"><ele>354.0</ele><time>2026-04-26T15:16:15.937Z</time></trkpt><trkpt lat="44.098222364095584" lon="10.383739870590558"><ele>354.0</ele><time>2026-04-26T15:16:16.937Z</time></trkpt><trkpt lat="44.098382438635554" lon="10.383690930949621"><ele>354.0</ele><time>2026-04-26T15:16:17.937Z</time></trkpt><trkpt lat="44.098535945816465" lon="10.383634634699158"><ele>348.0</ele><time>2026-04-26T15:16:18.937Z</time></trkpt><trkpt lat="44.09869646425423" lon="10.383549977041456"><ele>342.0</ele><time>2026-04-26T15:16:19.937Z</time></trkpt><trkpt lat="44.09885868762477" lon="10.383438892523728"><ele>336.0</ele><time>2026-04-26T15:16:20.937Z</time></trkpt><trkpt lat="44.0990166033315" lon="10.38332101792615"><ele>331.5</ele><time>2026-04-26T15:16:21.937Z</time></trkpt><trkpt lat="44.09916146304544" lon="10.383226295697014"><ele>327.0</ele><time>2026-04-26T15:16:22.937Z</time></trkpt><trkpt lat="44.099297746042524" lon="10.383154844659288"><ele>322.5</ele><time>2026-04-26T15:16:23.937Z</time></trkpt><trkpt lat="44.09940731040541" lon="10.383085201299078"><ele>318.0</ele><time>2026-04-26T15:16:24.937Z</time></trkpt><trkpt lat="44.09950265905835" lon="10.383046725133072"><ele>318.0</ele><time>2026-04-26T15:16:25.937Z</time></trkpt><trkpt lat="44.099593315312056" lon="10.383056470328809"><ele>318.0</ele><time>2026-04-26T15:16:26.937Z</time></trkpt><trkpt lat="44.09969434674545" lon="10.383141679905112"><ele>318.0</ele><time>2026-04-26T15:16:27.937Z</time></trkpt><trkpt lat="44.09976849962391" lon="10.383263439105713"><ele>318.0</ele><time>2026-04-26T15:16:28.937Z</time></trkpt><trkpt lat="44.099838540947495" lon="10.383388042343537"><ele>318.0</ele><time>2026-04-26T15:16:29.937Z</time></trkpt><trkpt lat="44.0999474718277" lon="10.383477229495844"><ele>315.0</ele><time>2026-04-26T15:16:30.937Z</time></trkpt><trkpt lat="44.1000805137821" lon="10.383540147446322"><ele>312.0</ele><time>2026-04-26T15:16:31.937Z</time></trkpt><trkpt lat="44.10023268451363" lon="10.383591604713159"><ele>309.0</ele><time>2026-04-26T15:16:32.937Z</time></trkpt><trkpt lat="44.10038652042258" lon="10.383636527602178"><ele>309.0</ele><time>2026-04-26T15:16:33.937Z</time></trkpt><trkpt lat="44.1005209845207" lon="10.383692967061378"><ele>309.0</ele><time>2026-04-26T15:16:34.937Z</time></trkpt><trkpt lat="44.10064675618039" lon="10.383776396501"><ele>309.0</ele><time>2026-04-26T15:16:35.937Z</time></trkpt><trkpt lat="44.100782350995935" lon="10.38390368865474"><ele>309.0</ele><time>2026-04-26T15:16:36.937Z</time></trkpt><trkpt lat="44.100907208822605" lon="10.38406290675021"><ele>312.6666666666667</ele><time>2026-04-26T15:16:37.937Z</time></trkpt><trkpt lat="44.101034012913516" lon="10.38423126761601"><ele>316.33333333333337</ele><time>2026-04-26T15:16:38.937Z</time></trkpt><trkpt lat="44.10117515100869" lon="10.384373586756293"><ele>320.0</ele><time>2026-04-26T15:16:39.937Z</time></trkpt><trkpt lat="44.10132034991586" lon="10.384510472846147"><ele>320.0</ele><time>2026-04-26T15:16:40.937Z</time></trkpt><trkpt lat="44.10147940102535" lon="10.384661939234428"><ele>320.0</ele><time>2026-04-26T15:16:41.937Z</time></trkpt><trkpt lat="44.10164451058403" lon="10.384796328065827"><ele>320.0</ele><time>2026-04-26T15:16:42.937Z</time></trkpt><trkpt lat="44.101804874298296" lon="10.384904694765943"><ele>321.33333333333337</ele><time>2026-04-26T15:16:43.937Z</time></trkpt><trkpt lat="44.10196057950047" lon="10.38500771546125"><ele>322.6666666666667</ele><time>2026-04-26T15:16:44.937Z</time></trkpt><trkpt lat="44.10209764950075" lon="10.385108586568858"><ele>324.0</ele><time>2026-04-26T15:16:45.937Z</time></trkpt><trkpt lat="44.10221460918593" lon="10.385212665587643"><ele>324.0</ele><time>2026-04-26T15:16:46.937Z</time></trkpt><trkpt lat="44.10230523953485" lon="10.385320270864463"><ele>324.0</ele><time>2026-04-26T15:16:47.937Z</time></trkpt><trkpt lat="44.102388124799944" lon="10.385449321301225"><ele>324.0</ele><time>2026-04-26T15:16:48.935Z</time></trkpt><trkpt lat="44.1024447304077" lon="10.385628196552588"><ele>324.0</ele><time>2026-04-26T15:16:49.935Z</time></trkpt><trkpt lat="44.102479453849924" lon="10.385841021104902"><ele>319.0</ele><time>2026-04-26T15:16:50.935Z</time></trkpt><trkpt lat="44.10251798394091" lon="10.386058302908404"><ele>314.0</ele><time>2026-04-26T15:16:51.935Z</time></trkpt><trkpt lat="44.10256758595783" lon="10.386291953535492"><ele>309.0</ele><time>2026-04-26T15:16:52.935Z</time></trkpt><trkpt lat="44.10262161579204" lon="10.386526020250065"><ele>309.0</ele><time>2026-04-26T15:16:53.935Z</time></trkpt><trkpt lat="44.10266412371322" lon="10.386742780749627"><ele>309.0</ele><time>2026-04-26T15:16:54.935Z</time></trkpt><trkpt lat="44.102704379711156" lon="10.386952005092969"><ele>309.0</ele><time>2026-04-26T15:16:55.935Z</time></trkpt><trkpt lat="44.1027301285232" lon="10.387173322305776"><ele>308.0</ele><time>2026-04-26T15:16:56.935Z</time></trkpt><trkpt lat="44.102744670620126" lon="10.38740776591472"><ele>307.0</ele><time>2026-04-26T15:16:57.935Z</time></trkpt><trkpt lat="44.10272858852018" lon="10.387633196893074"><ele>306.0</ele><time>2026-04-26T15:16:58.935Z</time></trkpt><trkpt lat="44.10269632311495" lon="10.387873224343528"><ele>304.3333333333333</ele><time>2026-04-26T15:16:59.935Z</time></trkpt><trkpt lat="44.102668685674026" lon="10.388113210966665"><ele>302.66666666666663</ele><time>2026-04-26T15:17:00.935Z</time></trkpt><trkpt lat="44.10263358475775" lon="10.388361280849516"><ele>301.0</ele><time>2026-04-26T15:17:01.935Z</time></trkpt><trkpt lat="44.1025972579875" lon="10.388601057150995"><ele>301.0</ele><time>2026-04-26T15:17:02.935Z</time></trkpt><trkpt lat="44.102565227799495" lon="10.388819434736527"><ele>301.0</ele><time>2026-04-26T15:17:03.935Z</time></trkpt><trkpt lat="44.10252657495535" lon="10.389035590567083"><ele>301.0</ele><time>2026-04-26T15:17:04.935Z</time></trkpt><trkpt lat="44.102497770311736" lon="10.389247692979378"><ele>301.0</ele><time>2026-04-26T15:17:05.935Z</time></trkpt><trkpt lat="44.1024606961303" lon="10.389453299105574"><ele>301.0</ele><time>2026-04-26T15:17:06.935Z</time></trkpt><trkpt lat="44.10242221469779" lon="10.389658382221196"><ele>301.0</ele><time>2026-04-26T15:17:07.935Z</time></trkpt><trkpt lat="44.10238914361644" lon="10.389863040644371"><ele>301.0</ele><time>2026-04-26T15:17:08.935Z</time></trkpt><trkpt lat="44.10235457275128" lon="10.390063578284602"><ele>301.0</ele><time>2026-04-26T15:17:09.935Z</time></trkpt><trkpt lat="44.10232100530095" lon="10.390259403599059"><ele>301.0</ele><time>2026-04-26T15:17:10.935Z</time></trkpt><trkpt lat="44.102283881210155" lon="10.390452288413133"><ele>301.0</ele><time>2026-04-26T15:17:11.935Z</time></trkpt><trkpt lat="44.10224592381136" lon="10.390645271513623"><ele>300.5</ele><time>2026-04-26T15:17:12.935Z</time></trkpt><trkpt lat="44.10220939648429" lon="10.390844388575376"><ele>300.0</ele><time>2026-04-26T15:17:13.935Z</time></trkpt><trkpt lat="44.10216940700153" lon="10.391043614930375"><ele>299.5</ele><time>2026-04-26T15:17:14.935Z</time></trkpt><trkpt lat="44.10213116790929" lon="10.391243518028935"><ele>299.0</ele><time>2026-04-26T15:17:15.935Z</time></trkpt><trkpt lat="44.10211291393966" lon="10.391458421646417"><ele>298.0</ele><time>2026-04-26T15:17:16.935Z</time></trkpt><trkpt lat="44.10208663835731" lon="10.391662058614367"><ele>297.0</ele><time>2026-04-26T15:17:17.935Z</time></trkpt><trkpt lat="44.10208317595163" lon="10.391876453089735"><ele>296.0</ele><time>2026-04-26T15:17:18.935Z</time></trkpt><trkpt lat="44.1020911365813" lon="10.392082527169098"><ele>296.0</ele><time>2026-04-26T15:17:19.935Z</time></trkpt><trkpt lat="44.10211129087069" lon="10.392281629090949"><ele>296.0</ele><time>2026-04-26T15:17:20.935Z</time></trkpt><trkpt lat="44.10214101971248" lon="10.392479118484491"><ele>296.0</ele><time>2026-04-26T15:17:21.935Z</time></trkpt><trkpt lat="44.102177005981105" lon="10.392689915552937"><ele>296.0</ele><time>2026-04-26T15:17:22.935Z</time></trkpt><trkpt lat="44.102213714502795" lon="10.392899598389143"><ele>300.33333333333337</ele><time>2026-04-26T15:17:23.935Z</time></trkpt><trkpt lat="44.1022537248877" lon="10.393115339874539"><ele>304.6666666666667</ele><time>2026-04-26T15:17:24.935Z</time></trkpt><trkpt lat="44.10229421576196" lon="10.39333310521415"><ele>309.0</ele><time>2026-04-26T15:17:25.935Z</time></trkpt><trkpt lat="44.102324386822495" lon="10.393546157368762"><ele>309.0</ele><time>2026-04-26T15:17:26.935Z</time></trkpt><trkpt lat="44.102362727446724" lon="10.393773171273581"><ele>309.0</ele><time>2026-04-26T15:17:27.935Z</time></trkpt><trkpt lat="44.10240734868096" lon="10.39399236389783"><ele>309.0</ele><time>2026-04-26T15:17:28.935Z</time></trkpt><trkpt lat="44.10244274201454" lon="10.394220853678348"><ele>306.3333333333333</ele><time>2026-04-26T15:17:29.935Z</time></trkpt><trkpt lat="44.10248179638894" lon="10.39445384836268"><ele>303.66666666666663</ele><time>2026-04-26T15:17:30.935Z</time></trkpt><trkpt lat="44.102525645626805" lon="10.394701870092584"><ele>301.0</ele><time>2026-04-26T15:17:31.935Z</time></trkpt><trkpt lat="44.102572251359156" lon="10.394956704285564"><ele>301.0</ele><time>2026-04-26T15:17:32.935Z</time></trkpt><trkpt lat="44.10261491330634" lon="10.39520225265561"><ele>301.0</ele><time>2026-04-26T15:17:33.935Z</time></trkpt><trkpt lat="44.102658345713714" lon="10.395457015657799"><ele>301.0</ele><time>2026-04-26T15:17:34.935Z</time></trkpt><trkpt lat="44.102710740163424" lon="10.395709448014726"><ele>301.0</ele><time>2026-04-26T15:17:35.935Z</time></trkpt><trkpt lat="44.10275241825083" lon="10.395966887042016"><ele>301.0</ele><time>2026-04-26T15:17:36.935Z</time></trkpt><trkpt lat="44.10280576429208" lon="10.396230023867275"><ele>301.0</ele><time>2026-04-26T15:17:37.935Z</time></trkpt><trkpt lat="44.10285082830375" lon="10.396479288716622"><ele>300.66666666666663</ele><time>2026-04-26T15:17:38.935Z</time></trkpt><trkpt lat="44.10289554835171" lon="10.396720223836883"><ele>300.3333333333333</ele><time>2026-04-26T15:17:39.935Z</time></trkpt><trkpt lat="44.10293317655466" lon="10.396958925889614"><ele>300.0</ele><time>2026-04-26T15:17:40.935Z</time></trkpt><trkpt lat="44.10297699348351" lon="10.397195640555248"><ele>299.0</ele><time>2026-04-26T15:17:41.935Z</time></trkpt><trkpt lat="44.103016315854724" lon="10.397425036584941"><ele>298.0</ele><time>2026-04-26T15:17:42.935Z</time></trkpt><trkpt lat="44.10305333959568" lon="10.397659145826513"><ele>297.0</ele><time>2026-04-26T15:17:43.935Z</time></trkpt><trkpt lat="44.10310725225665" lon="10.39790490493123"><ele>296.0</ele><time>2026-04-26T15:17:44.935Z</time></trkpt><trkpt lat="44.10314973612292" lon="10.39814501407807"><ele>295.0</ele><time>2026-04-26T15:17:45.935Z</time></trkpt><trkpt lat="44.103196702476914" lon="10.398379371645538"><ele>294.0</ele><time>2026-04-26T15:17:46.935Z</time></trkpt><trkpt lat="44.103233109028636" lon="10.398619997858548"><ele>290.6666666666667</ele><time>2026-04-26T15:17:47.935Z</time></trkpt><trkpt lat="44.10326192490265" lon="10.398863399698525"><ele>287.33333333333337</ele><time>2026-04-26T15:17:48.935Z</time></trkpt><trkpt lat="44.10327856248317" lon="10.399099600636331"><ele>284.0</ele><time>2026-04-26T15:17:49.935Z</time></trkpt><trkpt lat="44.103303831279" lon="10.399357605146466"><ele>284.0</ele><time>2026-04-26T15:17:50.935Z</time></trkpt><trkpt lat="44.10332894832796" lon="10.3996048990936"><ele>284.0</ele><time>2026-04-26T15:17:51.935Z</time></trkpt><trkpt lat="44.10335249810605" lon="10.399851744624238"><ele>284.0</ele><time>2026-04-26T15:17:52.935Z</time></trkpt><trkpt lat="44.10337825601367" lon="10.40010881814395"><ele>283.6666666666667</ele><time>2026-04-26T15:17:53.935Z</time></trkpt><trkpt lat="44.10340084450913" lon="10.400361469046464"><ele>283.3333333333333</ele><time>2026-04-26T15:17:54.935Z</time></trkpt><trkpt lat="44.10342594637112" lon="10.400616343453235"><ele>283.0</ele><time>2026-04-26T15:17:55.935Z</time></trkpt><trkpt lat="44.10344939661101" lon="10.400861906771754"><ele>282.66666666666663</ele><time>2026-04-26T15:17:56.935Z</time></trkpt><trkpt lat="44.1034728650034" lon="10.40110503588625"><ele>282.3333333333333</ele><time>2026-04-26T15:17:57.935Z</time></trkpt><trkpt lat="44.103498734078016" lon="10.401343637942574"><ele>282.0</ele><time>2026-04-26T15:17:58.935Z</time></trkpt><trkpt lat="44.10351454907387" lon="10.40158897069844"><ele>282.0</ele><time>2026-04-26T15:17:59.935Z</time></trkpt><trkpt lat="44.10353394554503" lon="10.401837050830059"><ele>282.0</ele><time>2026-04-26T15:18:00.935Z</time></trkpt><trkpt lat="44.10356175293869" lon="10.402074366084713"><ele>282.0</ele><time>2026-04-26T15:18:01.935Z</time></trkpt><trkpt lat="44.103584093688255" lon="10.40232194629252"><ele>282.3333333333333</ele><time>2026-04-26T15:18:02.935Z</time></trkpt><trkpt lat="44.103607721148634" lon="10.402557970111596"><ele>282.66666666666663</ele><time>2026-04-26T15:18:03.935Z</time></trkpt><trkpt lat="44.10363100133681" lon="10.402798731071897"><ele>283.0</ele><time>2026-04-26T15:18:04.935Z</time></trkpt><trkpt lat="44.10365145424108" lon="10.403035133171999"><ele>283.75</ele><time>2026-04-26T15:18:05.935Z</time></trkpt><trkpt lat="44.103676777334016" lon="10.403267858952407"><ele>284.5</ele><time>2026-04-26T15:18:06.935Z</time></trkpt><trkpt lat="44.10369588043462" lon="10.403468408863702"><ele>285.25</ele><time>2026-04-26T15:18:07.935Z</time></trkpt><trkpt lat="44.103710706859445" lon="10.403643791060894"><ele>286.0</ele><time>2026-04-26T15:18:08.935Z</time></trkpt><trkpt lat="44.10372837790261" lon="10.403799609915133"><ele>285.5</ele><time>2026-04-26T15:18:09.935Z</time></trkpt><trkpt lat="44.10374654888689" lon="10.403938519113877"><ele>285.0</ele><time>2026-04-26T15:18:10.935Z</time></trkpt><trkpt lat="44.10375925943859" lon="10.404097776633927"><ele>284.5</ele><time>2026-04-26T15:18:11.935Z</time></trkpt><trkpt lat="44.103785538321596" lon="10.4042807684844"><ele>284.0</ele><time>2026-04-26T15:18:12.935Z</time></trkpt><trkpt lat="44.10379756462863" lon="10.404470927333568"><ele>284.0</ele><time>2026-04-26T15:18:13.935Z</time></trkpt><trkpt lat="44.10380655634651" lon="10.40465494671182"><ele>284.0</ele><time>2026-04-26T15:18:14.935Z</time></trkpt><trkpt lat="44.103827994277076" lon="10.40484901155395"><ele>284.0</ele><time>2026-04-26T15:18:15.935Z</time></trkpt><trkpt lat="44.10384133212677" lon="10.405050251101436"><ele>284.0</ele><time>2026-04-26T15:18:16.935Z</time></trkpt><trkpt lat="44.10386072065204" lon="10.405250249425526"><ele>284.25</ele><time>2026-04-26T15:18:17.935Z</time></trkpt><trkpt lat="44.10387721411068" lon="10.405454066680669"><ele>284.5</ele><time>2026-04-26T15:18:18.935Z</time></trkpt><trkpt lat="44.10388725584356" lon="10.405657673556066"><ele>284.75</ele><time>2026-04-26T15:18:19.935Z</time></trkpt><trkpt lat="44.103909229078624" lon="10.40585976749089"><ele>285.0</ele><time>2026-04-26T15:18:20.935Z</time></trkpt><trkpt lat="44.103925298157975" lon="10.406047278982873"><ele>285.0</ele><time>2026-04-26T15:18:21.935Z</time></trkpt><trkpt lat="44.10393668918837" lon="10.406227557493235"><ele>285.0</ele><time>2026-04-26T15:18:22.935Z</time></trkpt><trkpt lat="44.10394691155861" lon="10.406394601150282"><ele>285.0</ele><time>2026-04-26T15:18:23.935Z</time></trkpt><trkpt lat="44.10395385927244" lon="10.406531429851572"><ele>285.0</ele><time>2026-04-26T15:18:24.935Z</time></trkpt><trkpt lat="44.10395505881134" lon="10.406650628137003"><ele>285.0</ele><time>2026-04-26T15:18:25.935Z</time></trkpt><trkpt lat="44.103960364942694" lon="10.406753933905224"><ele>285.0</ele><time>2026-04-26T15:18:26.935Z</time></trkpt><trkpt lat="44.103971959324575" lon="10.4068762555318"><ele>285.0</ele><time>2026-04-26T15:18:27.935Z</time></trkpt><trkpt lat="44.10398794190796" lon="10.406996467088103"><ele>285.0</ele><time>2026-04-26T15:18:28.935Z</time></trkpt><trkpt lat="44.10400884592804" lon="10.407109123318797"><ele>285.0</ele><time>2026-04-26T15:18:29.935Z</time></trkpt><trkpt lat="44.10401879479549" lon="10.407196855907767"><ele>285.0</ele><time>2026-04-26T15:18:30.935Z</time></trkpt><trkpt lat="44.1041284862875" lon="10.407254694466012"><ele>285.0</ele><time>2026-04-26T15:18:32.935Z</time></trkpt><trkpt lat="44.104194017352604" lon="10.407207284779703"><ele>284.6</ele><time>2026-04-26T15:18:33.935Z</time></trkpt><trkpt lat="44.10427877938944" lon="10.407152003793161"><ele>284.2</ele><time>2026-04-26T15:18:34.935Z</time></trkpt><trkpt lat="44.104382083246065" lon="10.407125970767147"><ele>283.8</ele><time>2026-04-26T15:18:35.935Z</time></trkpt><trkpt lat="44.104493547276086" lon="10.407159439181752"><ele>283.4</ele><time>2026-04-26T15:18:36.935Z</time></trkpt><trkpt lat="44.10461128868408" lon="10.40718471341538"><ele>283.0</ele><time>2026-04-26T15:18:37.935Z</time></trkpt><trkpt lat="44.10474165510843" lon="10.407198107963389"><ele>283.0</ele><time>2026-04-26T15:18:38.935Z</time></trkpt><trkpt lat="44.10488081741129" lon="10.40721612251346"><ele>283.0</ele><time>2026-04-26T15:18:39.935Z</time></trkpt><trkpt lat="44.10501783349034" lon="10.407230935314"><ele>283.0</ele><time>2026-04-26T15:18:40.935Z</time></trkpt><trkpt lat="44.10516619973864" lon="10.407252566611886"><ele>283.0</ele><time>2026-04-26T15:18:41.935Z</time></trkpt><trkpt lat="44.10531317642669" lon="10.407269126292393"><ele>282.25</ele><time>2026-04-26T15:18:42.935Z</time></trkpt><trkpt lat="44.10545093809459" lon="10.407292208332303"><ele>281.5</ele><time>2026-04-26T15:18:43.935Z</time></trkpt><trkpt lat="44.1055868701202" lon="10.40731178774744"><ele>280.75</ele><time>2026-04-26T15:18:44.935Z</time></trkpt><trkpt lat="44.105721385340516" lon="10.40731284102995"><ele>280.0</ele><time>2026-04-26T15:18:45.935Z</time></trkpt><trkpt lat="44.10584949998119" lon="10.407328874877985"><ele>279.25</ele><time>2026-04-26T15:18:46.935Z</time></trkpt><trkpt lat="44.105975746221816" lon="10.407333877567874"><ele>278.5</ele><time>2026-04-26T15:18:47.935Z</time></trkpt><trkpt lat="44.106103445887946" lon="10.40734059979536"><ele>277.75</ele><time>2026-04-26T15:18:48.935Z</time></trkpt><trkpt lat="44.1062325983373" lon="10.407356147464954"><ele>277.0</ele><time>2026-04-26T15:18:49.935Z</time></trkpt><trkpt lat="44.106364629285096" lon="10.40737219555846"><ele>277.0</ele><time>2026-04-26T15:18:50.935Z</time></trkpt><trkpt lat="44.10649433166326" lon="10.407398596044224"><ele>277.0</ele><time>2026-04-26T15:18:51.935Z</time></trkpt><trkpt lat="44.10662123074185" lon="10.407416571263695"><ele>277.0</ele><time>2026-04-26T15:18:52.935Z</time></trkpt><trkpt lat="44.106750527845" lon="10.407433100917618"><ele>277.0</ele><time>2026-04-26T15:18:53.935Z</time></trkpt><trkpt lat="44.10687393287616" lon="10.407451523524875"><ele>276.75</ele><time>2026-04-26T15:18:54.934Z</time></trkpt><trkpt lat="44.106994223468156" lon="10.407460764802053"><ele>276.5</ele><time>2026-04-26T15:18:55.934Z</time></trkpt><trkpt lat="44.10711548959681" lon="10.40747434222415"><ele>276.25</ele><time>2026-04-26T15:18:56.934Z</time></trkpt><trkpt lat="44.10723653867371" lon="10.407488041000327"><ele>276.0</ele><time>2026-04-26T15:18:57.934Z</time></trkpt><trkpt lat="44.107358025492026" lon="10.407496568783774"><ele>276.0</ele><time>2026-04-26T15:18:58.934Z</time></trkpt><trkpt lat="44.107481938869185" lon="10.407508792781476"><ele>276.0</ele><time>2026-04-26T15:18:59.934Z</time></trkpt><trkpt lat="44.10760049316735" lon="10.407528973215669"><ele>276.0</ele><time>2026-04-26T15:19:00.934Z</time></trkpt><trkpt lat="44.1077118354333" lon="10.407552395663267"><ele>276.0</ele><time>2026-04-26T15:19:01.934Z</time></trkpt><trkpt lat="44.10780896482485" lon="10.407583193828598"><ele>276.0</ele><time>2026-04-26T15:19:02.934Z</time></trkpt><trkpt lat="44.10790038783452" lon="10.407628118047576"><ele>276.0</ele><time>2026-04-26T15:19:03.933Z</time></trkpt><trkpt lat="44.10799711561066" lon="10.407705485994006"><ele>276.0</ele><time>2026-04-26T15:19:04.934Z</time></trkpt><trkpt lat="44.10808506623949" lon="10.407813258116468"><ele>276.0</ele><time>2026-04-26T15:19:05.934Z</time></trkpt><trkpt lat="44.10816636113738" lon="10.407914431629777"><ele>276.0</ele><time>2026-04-26T15:19:06.934Z</time></trkpt><trkpt lat="44.108260276411094" lon="10.40797924782018"><ele>276.75</ele><time>2026-04-26T15:19:07.934Z</time></trkpt><trkpt lat="44.10837785756437" lon="10.408032582774691"><ele>277.5</ele><time>2026-04-26T15:19:08.934Z</time></trkpt><trkpt lat="44.108519121302486" lon="10.408057914239725"><ele>278.25</ele><time>2026-04-26T15:19:09.934Z</time></trkpt><trkpt lat="44.10865324038653" lon="10.408112616276425"><ele>279.0</ele><time>2026-04-26T15:19:10.934Z</time></trkpt><trkpt lat="44.108773637791614" lon="10.40817370178507"><ele>279.0</ele><time>2026-04-26T15:19:11.934Z</time></trkpt><trkpt lat="44.108905243475995" lon="10.408195579635015"><ele>279.0</ele><time>2026-04-26T15:19:12.934Z</time></trkpt><trkpt lat="44.10902282696807" lon="10.408217970477207"><ele>279.0</ele><time>2026-04-26T15:19:13.934Z</time></trkpt><trkpt lat="44.10912307449597" lon="10.40823483459656"><ele>279.0</ele><time>2026-04-26T15:19:14.934Z</time></trkpt><trkpt lat="44.10921979383568" lon="10.408221383642733"><ele>279.0</ele><time>2026-04-26T15:19:15.934Z</time></trkpt><trkpt lat="44.109325726317294" lon="10.408187993100015"><ele>280.5</ele><time>2026-04-26T15:19:16.934Z</time></trkpt><trkpt lat="44.10941907858883" lon="10.408133249515625"><ele>282.0</ele><time>2026-04-26T15:19:17.934Z</time></trkpt><trkpt lat="44.109506710189066" lon="10.408072981148237"><ele>283.5</ele><time>2026-04-26T15:19:18.934Z</time></trkpt><trkpt lat="44.10959508299741" lon="10.408034507905064"><ele>285.0</ele><time>2026-04-26T15:19:19.934Z</time></trkpt><trkpt lat="44.109678817034606" lon="10.408023227250895"><ele>286.5</ele><time>2026-04-26T15:19:20.934Z</time></trkpt><trkpt lat="44.10975169456214" lon="10.408022976570527"><ele>288.0</ele><time>2026-04-26T15:19:21.934Z</time></trkpt><trkpt lat="44.10984623336804" lon="10.408004161474482"><ele>287.6</ele><time>2026-04-26T15:19:23.934Z</time></trkpt><trkpt lat="44.109912624246384" lon="10.408046189893051"><ele>287.20000000000005</ele><time>2026-04-26T15:19:25.934Z</time></trkpt><trkpt lat="44.110001090267026" lon="10.407962255227778"><ele>286.8</ele><time>2026-04-26T15:19:30.934Z</time></trkpt><trkpt lat="44.11007500620116" lon="10.40784338554995"><ele>286.40000000000003</ele><time>2026-04-26T15:19:32.934Z</time></trkpt><trkpt lat="44.11011273040102" lon="10.40769930592897"><ele>286.0</ele><time>2026-04-26T15:19:33.934Z</time></trkpt><trkpt lat="44.11011622611626" lon="10.407532800570964"><ele>287.75</ele><time>2026-04-26T15:19:34.934Z</time></trkpt><trkpt lat="44.11010903250355" lon="10.407365970635666"><ele>289.5</ele><time>2026-04-26T15:19:35.934Z</time></trkpt><trkpt lat="44.11011192228198" lon="10.407189556665985"><ele>291.25</ele><time>2026-04-26T15:19:36.934Z</time></trkpt><trkpt lat="44.11015514868233" lon="10.407026965743958"><ele>293.0</ele><time>2026-04-26T15:19:37.934Z</time></trkpt><trkpt lat="44.110234247070174" lon="10.406871881637677"><ele>295.5</ele><time>2026-04-26T15:19:38.934Z</time></trkpt><trkpt lat="44.110298369779834" lon="10.406701333786263"><ele>298.0</ele><time>2026-04-26T15:19:39.934Z</time></trkpt><trkpt lat="44.11036824828147" lon="10.406539134480527"><ele>300.5</ele><time>2026-04-26T15:19:40.934Z</time></trkpt><trkpt lat="44.11042424316543" lon="10.406376570032526"><ele>303.0</ele><time>2026-04-26T15:19:41.934Z</time></trkpt><trkpt lat="44.110485462347235" lon="10.406212361648583"><ele>305.75</ele><time>2026-04-26T15:19:42.934Z</time></trkpt><trkpt lat="44.110554943251714" lon="10.406047495005502"><ele>308.5</ele><time>2026-04-26T15:19:43.934Z</time></trkpt><trkpt lat="44.110616390312714" lon="10.405868961078127"><ele>311.25</ele><time>2026-04-26T15:19:44.934Z</time></trkpt><trkpt lat="44.11067203100057" lon="10.405690856396335"><ele>314.0</ele><time>2026-04-26T15:19:45.934Z</time></trkpt><trkpt lat="44.11072655952457" lon="10.405518264007128"><ele>311.75</ele><time>2026-04-26T15:19:46.934Z</time></trkpt><trkpt lat="44.110786937663256" lon="10.405356242951116"><ele>309.5</ele><time>2026-04-26T15:19:47.934Z</time></trkpt><trkpt lat="44.110854770344716" lon="10.405199467249599"><ele>307.25</ele><time>2026-04-26T15:19:48.934Z</time></trkpt><trkpt lat="44.1109167910329" lon="10.405042298678016"><ele>305.0</ele><time>2026-04-26T15:19:49.934Z</time></trkpt><trkpt lat="44.110982925807676" lon="10.404906978842583"><ele>305.0</ele><time>2026-04-26T15:19:50.934Z</time></trkpt><trkpt lat="44.11107164889319" lon="10.40478832591557"><ele>305.0</ele><time>2026-04-26T15:19:51.934Z</time></trkpt><trkpt lat="44.11116974987483" lon="10.404648179002228"><ele>305.0</ele><time>2026-04-26T15:19:52.934Z</time></trkpt><trkpt lat="44.11127721283037" lon="10.404521576615801"><ele>305.0</ele><time>2026-04-26T15:19:53.934Z</time></trkpt><trkpt lat="44.11137023343321" lon="10.404376592815181"><ele>305.25</ele><time>2026-04-26T15:19:54.934Z</time></trkpt><trkpt lat="44.111450606265954" lon="10.404225068792627"><ele>305.5</ele><time>2026-04-26T15:19:55.934Z</time></trkpt><trkpt lat="44.111520651147025" lon="10.404061509068589"><ele>305.75</ele><time>2026-04-26T15:19:56.934Z</time></trkpt><trkpt lat="44.111554920177255" lon="10.403859745081991"><ele>306.0</ele><time>2026-04-26T15:19:57.934Z</time></trkpt><trkpt lat="44.11161024583796" lon="10.403667436818791"><ele>306.0</ele><time>2026-04-26T15:19:58.934Z</time></trkpt><trkpt lat="44.11166989958324" lon="10.403495861443817"><ele>306.0</ele><time>2026-04-26T15:19:59.935Z</time></trkpt><trkpt lat="44.11172230923554" lon="10.403330447215335"><ele>306.0</ele><time>2026-04-26T15:20:00.935Z</time></trkpt><trkpt lat="44.11177638960767" lon="10.403178012735676"><ele>306.0</ele><time>2026-04-26T15:20:01.935Z</time></trkpt><trkpt lat="44.11183815704654" lon="10.403030286524647"><ele>309.25</ele><time>2026-04-26T15:20:02.935Z</time></trkpt><trkpt lat="44.11192224739456" lon="10.402903616587604"><ele>312.5</ele><time>2026-04-26T15:20:03.935Z</time></trkpt><trkpt lat="44.11204614126443" lon="10.40282709581788"><ele>315.75</ele><time>2026-04-26T15:20:04.935Z</time></trkpt><trkpt lat="44.112168465980545" lon="10.402743951639186"><ele>319.0</ele><time>2026-04-26T15:20:05.935Z</time></trkpt><trkpt lat="44.112270929729476" lon="10.402673110169168"><ele>319.0</ele><time>2026-04-26T15:20:06.935Z</time></trkpt><trkpt lat="44.11238219640496" lon="10.402500237287292"><ele>319.0</ele><time>2026-04-26T15:20:07.935Z</time></trkpt><trkpt lat="44.112473468726975" lon="10.402394112207638"><ele>319.0</ele><time>2026-04-26T15:20:08.935Z</time></trkpt><trkpt lat="44.11255077489207" lon="10.402300756252385"><ele>319.0</ele><time>2026-04-26T15:20:09.935Z</time></trkpt><trkpt lat="44.11261898265536" lon="10.402212627305957"><ele>317.25</ele><time>2026-04-26T15:20:10.935Z</time></trkpt><trkpt lat="44.112690081287816" lon="10.402108315440165"><ele>315.5</ele><time>2026-04-26T15:20:11.935Z</time></trkpt><trkpt lat="44.11274773062177" lon="10.401967947239823"><ele>313.75</ele><time>2026-04-26T15:20:12.935Z</time></trkpt><trkpt lat="44.11279971684261" lon="10.401822781906587"><ele>312.0</ele><time>2026-04-26T15:20:13.935Z</time></trkpt><trkpt lat="44.11285743143976" lon="10.401686344019447"><ele>312.0</ele><time>2026-04-26T15:20:14.935Z</time></trkpt><trkpt lat="44.112919100314095" lon="10.401560800470214"><ele>312.0</ele><time>2026-04-26T15:20:15.935Z</time></trkpt><trkpt lat="44.11297409512276" lon="10.401448033336212"><ele>312.0</ele><time>2026-04-26T15:20:16.935Z</time></trkpt><trkpt lat="44.11301713517818" lon="10.40136149351426"><ele>312.0</ele><time>2026-04-26T15:20:17.935Z</time></trkpt><trkpt lat="44.113086060469996" lon="10.401233607577032"><ele>312.0</ele><time>2026-04-26T15:20:19.935Z</time></trkpt><trkpt lat="44.11312995740894" lon="10.401154565396945"><ele>311.2</ele><time>2026-04-26T15:20:20.935Z</time></trkpt><trkpt lat="44.11317430860763" lon="10.401073068050104"><ele>310.4</ele><time>2026-04-26T15:20:21.935Z</time></trkpt><trkpt lat="44.113212896989324" lon="10.400976025711412"><ele>309.6</ele><time>2026-04-26T15:20:22.935Z</time></trkpt><trkpt lat="44.11326148914824" lon="10.400869618733722"><ele>308.8</ele><time>2026-04-26T15:20:23.935Z</time></trkpt><trkpt lat="44.11330911825753" lon="10.400749004255541"><ele>308.0</ele><time>2026-04-26T15:20:24.935Z</time></trkpt><trkpt lat="44.11337749881497" lon="10.40062326764484"><ele>311.0</ele><time>2026-04-26T15:20:25.935Z</time></trkpt><trkpt lat="44.113449452744376" lon="10.400487346318586"><ele>314.0</ele><time>2026-04-26T15:20:26.935Z</time></trkpt><trkpt lat="44.11351503896672" lon="10.40033318766895"><ele>317.0</ele><time>2026-04-26T15:20:27.935Z</time></trkpt><trkpt lat="44.11357905824809" lon="10.400165321248133"><ele>320.0</ele><time>2026-04-26T15:20:28.935Z</time></trkpt><trkpt lat="44.113646248626395" lon="10.400009799943065"><ele>320.0</ele><time>2026-04-26T15:20:29.935Z</time></trkpt><trkpt lat="44.11370713313135" lon="10.399860342966393"><ele>320.0</ele><time>2026-04-26T15:20:30.935Z</time></trkpt><trkpt lat="44.113765284560905" lon="10.399726237740309"><ele>320.0</ele><time>2026-04-26T15:20:31.935Z</time></trkpt><trkpt lat="44.11383603050338" lon="10.39962819682252"><ele>320.0</ele><time>2026-04-26T15:20:32.935Z</time></trkpt><trkpt lat="44.11392614879881" lon="10.399555521551786"><ele>320.0</ele><time>2026-04-26T15:20:33.935Z</time></trkpt><trkpt lat="44.1140452559342" lon="10.39949950368181"><ele>320.0</ele><time>2026-04-26T15:20:34.935Z</time></trkpt><trkpt lat="44.11417278767212" lon="10.39945146310923"><ele>320.0</ele><time>2026-04-26T15:20:35.935Z</time></trkpt><trkpt lat="44.11428778865942" lon="10.399395298095266"><ele>320.0</ele><time>2026-04-26T15:20:36.935Z</time></trkpt><trkpt lat="44.114392461859886" lon="10.399327132859593"><ele>320.0</ele><time>2026-04-26T15:20:37.935Z</time></trkpt><trkpt lat="44.11446936612871" lon="10.399234048701834"><ele>320.0</ele><time>2026-04-26T15:20:38.935Z</time></trkpt><trkpt lat="44.11453781077524" lon="10.399112165645137"><ele>320.0</ele><time>2026-04-26T15:20:39.935Z</time></trkpt><trkpt lat="44.11460335086571" lon="10.39896281642986"><ele>320.0</ele><time>2026-04-26T15:20:40.935Z</time></trkpt><trkpt lat="44.11467798641829" lon="10.398803934961936"><ele>320.0</ele><time>2026-04-26T15:20:41.935Z</time></trkpt><trkpt lat="44.11476963738171" lon="10.398640160328483"><ele>320.33333333333337</ele><time>2026-04-26T15:20:42.935Z</time></trkpt><trkpt lat="44.114871361921224" lon="10.398473958183464"><ele>320.6666666666667</ele><time>2026-04-26T15:20:43.935Z</time></trkpt><trkpt lat="44.114980742306386" lon="10.398300341975986"><ele>321.0</ele><time>2026-04-26T15:20:44.935Z</time></trkpt><trkpt lat="44.11509998960266" lon="10.398128907318366"><ele>328.3333333333333</ele><time>2026-04-26T15:20:45.935Z</time></trkpt><trkpt lat="44.11522046468782" lon="10.397963149267884"><ele>335.66666666666663</ele><time>2026-04-26T15:20:46.935Z</time></trkpt><trkpt lat="44.11533399796952" lon="10.397802635467695"><ele>343.0</ele><time>2026-04-26T15:20:47.935Z</time></trkpt><trkpt lat="44.115443318820546" lon="10.39764186895352"><ele>343.0</ele><time>2026-04-26T15:20:48.935Z</time></trkpt><trkpt lat="44.115540823809766" lon="10.397497070759703"><ele>343.0</ele><time>2026-04-26T15:20:49.935Z</time></trkpt><trkpt lat="44.115625193875346" lon="10.39736202853145"><ele>343.0</ele><time>2026-04-26T15:20:50.935Z</time></trkpt><trkpt lat="44.11571429100441" lon="10.397250664287075"><ele>343.0</ele><time>2026-04-26T15:20:51.935Z</time></trkpt><trkpt lat="44.11580955956429" lon="10.397175160722918"><ele>341.75</ele><time>2026-04-26T15:20:52.935Z</time></trkpt><trkpt lat="44.115910042733276" lon="10.397158547699513"><ele>340.5</ele><time>2026-04-26T15:20:53.935Z</time></trkpt><trkpt lat="44.11603587380699" lon="10.397199610598554"><ele>339.25</ele><time>2026-04-26T15:20:54.935Z</time></trkpt><trkpt lat="44.116165618763844" lon="10.397260261545114"><ele>338.0</ele><time>2026-04-26T15:20:55.935Z</time></trkpt><trkpt lat="44.116276235840935" lon="10.397266611239202"><ele>338.0</ele><time>2026-04-26T15:20:56.935Z</time></trkpt><trkpt lat="44.11637867566309" lon="10.397214544079782"><ele>338.0</ele><time>2026-04-26T15:20:57.935Z</time></trkpt><trkpt lat="44.11648023188411" lon="10.397105186130938"><ele>338.0</ele><time>2026-04-26T15:20:58.935Z</time></trkpt><trkpt lat="44.11658967929092" lon="10.396972521196629"><ele>338.0</ele><time>2026-04-26T15:20:59.935Z</time></trkpt><trkpt lat="44.11671271080166" lon="10.396854181374808"><ele>335.0</ele><time>2026-04-26T15:21:00.933Z</time></trkpt><trkpt lat="44.11683367637549" lon="10.396751118753725"><ele>332.0</ele><time>2026-04-26T15:21:01.933Z</time></trkpt><trkpt lat="44.11696163842043" lon="10.396667532775396"><ele>329.0</ele><time>2026-04-26T15:21:02.933Z</time></trkpt><trkpt lat="44.117085580021126" lon="10.396605244070956"><ele>326.0</ele><time>2026-04-26T15:21:03.933Z</time></trkpt><trkpt lat="44.11720341460457" lon="10.396544163689242"><ele>326.0</ele><time>2026-04-26T15:21:04.933Z</time></trkpt><trkpt lat="44.117296906799425" lon="10.39646564416233"><ele>326.0</ele><time>2026-04-26T15:21:05.933Z</time></trkpt><trkpt lat="44.11736295037969" lon="10.39635849893755"><ele>326.0</ele><time>2026-04-26T15:21:06.933Z</time></trkpt><trkpt lat="44.117406143317794" lon="10.39622217560619"><ele>326.0</ele><time>2026-04-26T15:21:07.933Z</time></trkpt><trkpt lat="44.11742764757007" lon="10.39602995690359"><ele>324.6666666666667</ele><time>2026-04-26T15:21:08.933Z</time></trkpt><trkpt lat="44.11743799882888" lon="10.395804135557942"><ele>323.3333333333333</ele><time>2026-04-26T15:21:09.932Z</time></trkpt><trkpt lat="44.11746448919578" lon="10.395585963909268"><ele>322.0</ele><time>2026-04-26T15:21:10.932Z</time></trkpt><trkpt lat="44.11748609276494" lon="10.395362283620814"><ele>322.0</ele><time>2026-04-26T15:21:11.932Z</time></trkpt><trkpt lat="44.1175038499922" lon="10.395151744928349"><ele>322.0</ele><time>2026-04-26T15:21:12.932Z</time></trkpt><trkpt lat="44.11752166133956" lon="10.394962983628748"><ele>322.0</ele><time>2026-04-26T15:21:13.932Z</time></trkpt><trkpt lat="44.11754897231761" lon="10.394795191805386"><ele>322.0</ele><time>2026-04-26T15:21:14.932Z</time></trkpt><trkpt lat="44.117593565097266" lon="10.394654214324532"><ele>322.0</ele><time>2026-04-26T15:21:15.932Z</time></trkpt><trkpt lat="44.11768432108255" lon="10.394576027359104"><ele>322.0</ele><time>2026-04-26T15:21:16.932Z</time></trkpt><trkpt lat="44.117802516980746" lon="10.394567325957148"><ele>322.0</ele><time>2026-04-26T15:21:17.932Z</time></trkpt><trkpt lat="44.117924935736276" lon="10.394620821265137"><ele>322.0</ele><time>2026-04-26T15:21:18.932Z</time></trkpt><trkpt lat="44.118040740472814" lon="10.39475098503825"><ele>322.0</ele><time>2026-04-26T15:21:19.932Z</time></trkpt><trkpt lat="44.118160567377544" lon="10.394875041838205"><ele>322.0</ele><time>2026-04-26T15:21:20.932Z</time></trkpt><trkpt lat="44.11826044567189" lon="10.394958023172471"><ele>322.0</ele><time>2026-04-26T15:21:21.932Z</time></trkpt><trkpt lat="44.11837101138056" lon="10.394997273636612"><ele>322.0</ele><time>2026-04-26T15:21:22.932Z</time></trkpt><trkpt lat="44.11849683400513" lon="10.394961876087002"><ele>321.0</ele><time>2026-04-26T15:21:23.932Z</time></trkpt><trkpt lat="44.11860721930408" lon="10.394862747444723"><ele>320.0</ele><time>2026-04-26T15:21:24.932Z</time></trkpt><trkpt lat="44.11869322333" lon="10.394731857635582"><ele>319.0</ele><time>2026-04-26T15:21:25.932Z</time></trkpt><trkpt lat="44.11875553801433" lon="10.394560596089567"><ele>318.0</ele><time>2026-04-26T15:21:26.932Z</time></trkpt><trkpt lat="44.1188142196331" lon="10.394377734235956"><ele>318.0</ele><time>2026-04-26T15:21:27.932Z</time></trkpt><trkpt lat="44.118889530436206" lon="10.394210696181572"><ele>318.0</ele><time>2026-04-26T15:21:28.932Z</time></trkpt><trkpt lat="44.11896952534044" lon="10.394066851622982"><ele>318.0</ele><time>2026-04-26T15:21:29.932Z</time></trkpt><trkpt lat="44.11905197631652" lon="10.393939790930359"><ele>318.0</ele><time>2026-04-26T15:21:30.932Z</time></trkpt><trkpt lat="44.11915166607621" lon="10.393835126334904"><ele>322.25</ele><time>2026-04-26T15:21:31.932Z</time></trkpt><trkpt lat="44.119267424524864" lon="10.393752838712015"><ele>326.5</ele><time>2026-04-26T15:21:32.932Z</time></trkpt><trkpt lat="44.119375913022346" lon="10.39367667456366"><ele>330.75</ele><time>2026-04-26T15:21:33.932Z</time></trkpt><trkpt lat="44.11947902512079" lon="10.393607347325508"><ele>335.0</ele><time>2026-04-26T15:21:34.932Z</time></trkpt><trkpt lat="44.11957316693406" lon="10.393549633926936"><ele>335.0</ele><time>2026-04-26T15:21:35.932Z</time></trkpt><trkpt lat="44.11966545165862" lon="10.39350817764414"><ele>335.0</ele><time>2026-04-26T15:21:36.932Z</time></trkpt><trkpt lat="44.11976544493132" lon="10.393501599415805"><ele>335.0</ele><time>2026-04-26T15:21:37.932Z</time></trkpt><trkpt lat="44.119869726899786" lon="10.393545589969678"><ele>335.0</ele><time>2026-04-26T15:21:38.932Z</time></trkpt><trkpt lat="44.119976920099646" lon="10.393605381515133"><ele>335.0</ele><time>2026-04-26T15:21:39.932Z</time></trkpt><trkpt lat="44.12007532085532" lon="10.393652967085792"><ele>335.6</ele><time>2026-04-26T15:21:40.932Z</time></trkpt><trkpt lat="44.120171131332775" lon="10.393690733694523"><ele>336.2</ele><time>2026-04-26T15:21:41.932Z</time></trkpt><trkpt lat="44.120281066775384" lon="10.393734657037308"><ele>336.79999999999995</ele><time>2026-04-26T15:21:42.932Z</time></trkpt><trkpt lat="44.12038834148818" lon="10.393780546641258"><ele>337.4</ele><time>2026-04-26T15:21:43.932Z</time></trkpt><trkpt lat="44.120493951468895" lon="10.393824911665016"><ele>338.0</ele><time>2026-04-26T15:21:44.932Z</time></trkpt><trkpt lat="44.12059375241836" lon="10.393864896288564"><ele>339.25</ele><time>2026-04-26T15:21:45.932Z</time></trkpt><trkpt lat="44.12070554727304" lon="10.393885993117005"><ele>340.5</ele><time>2026-04-26T15:21:46.932Z</time></trkpt><trkpt lat="44.120826342234785" lon="10.39388573371896"><ele>341.75</ele><time>2026-04-26T15:21:47.932Z</time></trkpt><trkpt lat="44.12095315312354" lon="10.393858648446322"><ele>343.0</ele><time>2026-04-26T15:21:48.932Z</time></trkpt><trkpt lat="44.12108421589907" lon="10.393807551813614"><ele>343.0</ele><time>2026-04-26T15:21:49.932Z</time></trkpt><trkpt lat="44.12119653179684" lon="10.39373897516427"><ele>343.0</ele><time>2026-04-26T15:21:50.932Z</time></trkpt><trkpt lat="44.121300803895025" lon="10.393662208126738"><ele>343.0</ele><time>2026-04-26T15:21:51.932Z</time></trkpt><trkpt lat="44.12140327658452" lon="10.3935809998622"><ele>343.0</ele><time>2026-04-26T15:21:52.932Z</time></trkpt><trkpt lat="44.121504771767036" lon="10.39348645625194"><ele>342.0</ele><time>2026-04-26T15:21:53.932Z</time></trkpt><trkpt lat="44.12159741443991" lon="10.393400758675897"><ele>341.0</ele><time>2026-04-26T15:21:54.932Z</time></trkpt><trkpt lat="44.12169326138333" lon="10.393325943238352"><ele>340.0</ele><time>2026-04-26T15:21:55.932Z</time></trkpt><trkpt lat="44.12178305594462" lon="10.393242242693077"><ele>339.0</ele><time>2026-04-26T15:21:56.932Z</time></trkpt><trkpt lat="44.1218628163418" lon="10.393155435717617"><ele>338.0</ele><time>2026-04-26T15:21:57.932Z</time></trkpt><trkpt lat="44.12194460616619" lon="10.393053708658986"><ele>340.5</ele><time>2026-04-26T15:21:58.932Z</time></trkpt><trkpt lat="44.12201658331754" lon="10.39293342243971"><ele>343.0</ele><time>2026-04-26T15:21:59.932Z</time></trkpt><trkpt lat="44.12208533821141" lon="10.39280969339377"><ele>345.5</ele><time>2026-04-26T15:22:00.932Z</time></trkpt><trkpt lat="44.12215914850391" lon="10.392686913648621"><ele>348.0</ele><time>2026-04-26T15:22:01.932Z</time></trkpt><trkpt lat="44.122235297407386" lon="10.392562877529972"><ele>348.0</ele><time>2026-04-26T15:22:02.932Z</time></trkpt><trkpt lat="44.12230934496096" lon="10.392439484821777"><ele>348.0</ele><time>2026-04-26T15:22:03.932Z</time></trkpt><trkpt lat="44.12238361171501" lon="10.392312297313936"><ele>348.0</ele><time>2026-04-26T15:22:04.932Z</time></trkpt><trkpt lat="44.12246889857346" lon="10.392200461967041"><ele>348.0</ele><time>2026-04-26T15:22:05.932Z</time></trkpt><trkpt lat="44.12255173312355" lon="10.392105292105342"><ele>348.75</ele><time>2026-04-26T15:22:06.932Z</time></trkpt><trkpt lat="44.12265237114222" lon="10.392016898156001"><ele>349.5</ele><time>2026-04-26T15:22:07.932Z</time></trkpt><trkpt lat="44.122763439448185" lon="10.391954469365325"><ele>350.25</ele><time>2026-04-26T15:22:08.932Z</time></trkpt><trkpt lat="44.12287600307172" lon="10.39192503355568"><ele>351.0</ele><time>2026-04-26T15:22:09.932Z</time></trkpt><trkpt lat="44.122981527652684" lon="10.391926626723295"><ele>351.0</ele><time>2026-04-26T15:22:10.932Z</time></trkpt><trkpt lat="44.1230880999323" lon="10.391957878989857"><ele>351.0</ele><time>2026-04-26T15:22:11.932Z</time></trkpt><trkpt lat="44.12319593664008" lon="10.392044460853846"><ele>351.0</ele><time>2026-04-26T15:22:12.932Z</time></trkpt><trkpt lat="44.12330255852248" lon="10.392147602540424"><ele>351.0</ele><time>2026-04-26T15:22:13.932Z</time></trkpt><trkpt lat="44.12339945997207" lon="10.392228519615774"><ele>348.0</ele><time>2026-04-26T15:22:14.932Z</time></trkpt><trkpt lat="44.12352178337064" lon="10.39224828247962"><ele>345.0</ele><time>2026-04-26T15:22:15.932Z</time></trkpt><trkpt lat="44.123647363792315" lon="10.392239654554608"><ele>342.0</ele><time>2026-04-26T15:22:16.932Z</time></trkpt><trkpt lat="44.12377561501322" lon="10.39223814519264"><ele>339.0</ele><time>2026-04-26T15:22:17.932Z</time></trkpt><trkpt lat="44.123899365228304" lon="10.392266554646739"><ele>339.0</ele><time>2026-04-26T15:22:18.932Z</time></trkpt><trkpt lat="44.124012258341466" lon="10.392288539458832"><ele>339.0</ele><time>2026-04-26T15:22:19.932Z</time></trkpt><trkpt lat="44.12411242243834" lon="10.392306851578823"><ele>339.0</ele><time>2026-04-26T15:22:20.932Z</time></trkpt><trkpt lat="44.12421340025667" lon="10.392324051968545"><ele>339.0</ele><time>2026-04-26T15:22:21.932Z</time></trkpt><trkpt lat="44.124309940513555" lon="10.392338050546083"><ele>339.0</ele><time>2026-04-26T15:22:22.932Z</time></trkpt><trkpt lat="44.12440492992895" lon="10.392313640427128"><ele>340.0</ele><time>2026-04-26T15:22:23.932Z</time></trkpt><trkpt lat="44.12447155429281" lon="10.392237974014797"><ele>341.0</ele><time>2026-04-26T15:22:24.932Z</time></trkpt><trkpt lat="44.12451578135201" lon="10.392122603078658"><ele>342.0</ele><time>2026-04-26T15:22:25.932Z</time></trkpt><trkpt lat="44.124529885832246" lon="10.391995447879978"><ele>343.0</ele><time>2026-04-26T15:22:26.932Z</time></trkpt><trkpt lat="44.12450044340098" lon="10.391884457918888"><ele>344.0</ele><time>2026-04-26T15:22:27.932Z</time></trkpt><trkpt lat="44.12443457070812" lon="10.39178032975468"><ele>346.4</ele><time>2026-04-26T15:22:28.932Z</time></trkpt><trkpt lat="44.12435412515555" lon="10.391681585067495"><ele>348.79999999999995</ele><time>2026-04-26T15:22:29.932Z</time></trkpt><trkpt lat="44.12426934401053" lon="10.391594472000076"><ele>351.20000000000005</ele><time>2026-04-26T15:22:30.932Z</time></trkpt><trkpt lat="44.124191041957" lon="10.391491335321245"><ele>353.6</ele><time>2026-04-26T15:22:31.932Z</time></trkpt><trkpt lat="44.124124042522254" lon="10.39136852344539"><ele>356.0</ele><time>2026-04-26T15:22:32.932Z</time></trkpt><trkpt lat="44.1240609185442" lon="10.391235025695849"><ele>356.5</ele><time>2026-04-26T15:22:33.932Z</time></trkpt><trkpt lat="44.12400772931825" lon="10.39109052348676"><ele>357.0</ele><time>2026-04-26T15:22:34.932Z</time></trkpt><trkpt lat="44.123952348147185" lon="10.390939106006218"><ele>357.5</ele><time>2026-04-26T15:22:35.932Z</time></trkpt><trkpt lat="44.12391780048468" lon="10.390782911267626"><ele>358.0</ele><time>2026-04-26T15:22:36.932Z</time></trkpt><trkpt lat="44.123886818268154" lon="10.39063126846145"><ele>359.5</ele><time>2026-04-26T15:22:37.932Z</time></trkpt><trkpt lat="44.123866520439634" lon="10.390478210311908"><ele>361.0</ele><time>2026-04-26T15:22:38.932Z</time></trkpt><trkpt lat="44.12388562492409" lon="10.390321465758845"><ele>362.5</ele><time>2026-04-26T15:22:39.932Z</time></trkpt><trkpt lat="44.12393848815162" lon="10.390170689398536"><ele>364.0</ele><time>2026-04-26T15:22:40.932Z</time></trkpt><trkpt lat="44.12402072364021" lon="10.390048109674048"><ele>362.4</ele><time>2026-04-26T15:22:41.932Z</time></trkpt><trkpt lat="44.12410986720618" lon="10.38994049819086"><ele>360.79999999999995</ele><time>2026-04-26T15:22:42.932Z</time></trkpt><trkpt lat="44.124197458688286" lon="10.38984249393481"><ele>359.20000000000005</ele><time>2026-04-26T15:22:43.932Z</time></trkpt><trkpt lat="44.12427367979383" lon="10.389734726840084"><ele>357.6</ele><time>2026-04-26T15:22:44.932Z</time></trkpt><trkpt lat="44.124332143706866" lon="10.389605491031077"><ele>356.0</ele><time>2026-04-26T15:22:45.932Z</time></trkpt><trkpt lat="44.12436789425857" lon="10.38944150901627"><ele>356.0</ele><time>2026-04-26T15:22:46.932Z</time></trkpt><trkpt lat="44.12439039044611" lon="10.389252182893829"><ele>356.0</ele><time>2026-04-26T15:22:47.932Z</time></trkpt><trkpt lat="44.12440948065151" lon="10.389056371298963"><ele>356.0</ele><time>2026-04-26T15:22:48.932Z</time></trkpt><trkpt lat="44.12443117027872" lon="10.38886561782633"><ele>356.0</ele><time>2026-04-26T15:22:49.932Z</time></trkpt><trkpt lat="44.12446818867088" lon="10.388681076267977"><ele>357.0</ele><time>2026-04-26T15:22:50.932Z</time></trkpt><trkpt lat="44.12451375226946" lon="10.38849297716414"><ele>358.0</ele><time>2026-04-26T15:22:51.932Z</time></trkpt><trkpt lat="44.12455694018626" lon="10.388314724391"><ele>359.0</ele><time>2026-04-26T15:22:52.932Z</time></trkpt><trkpt lat="44.12459178617144" lon="10.388147561426065"><ele>360.0</ele><time>2026-04-26T15:22:53.932Z</time></trkpt><trkpt lat="44.12463669677088" lon="10.38798887246051"><ele>360.25</ele><time>2026-04-26T15:22:54.932Z</time></trkpt><trkpt lat="44.124684219291645" lon="10.387827966996118"><ele>360.5</ele><time>2026-04-26T15:22:55.932Z</time></trkpt><trkpt lat="44.12476156237318" lon="10.387677271684362"><ele>360.75</ele><time>2026-04-26T15:22:56.932Z</time></trkpt><trkpt lat="44.124861376813726" lon="10.387546747799895"><ele>361.0</ele><time>2026-04-26T15:22:57.932Z</time></trkpt><trkpt lat="44.124983105709255" lon="10.387453193191945"><ele>358.75</ele><time>2026-04-26T15:22:58.932Z</time></trkpt><trkpt lat="44.125093321523806" lon="10.387357399842173"><ele>356.5</ele><time>2026-04-26T15:22:59.932Z</time></trkpt><trkpt lat="44.1252109007759" lon="10.387267392620517"><ele>354.25</ele><time>2026-04-26T15:23:00.932Z</time></trkpt><trkpt lat="44.125342609421175" lon="10.387188981118637"><ele>352.0</ele><time>2026-04-26T15:23:01.932Z</time></trkpt><trkpt lat="44.1254797380845" lon="10.387110025335657"><ele>352.0</ele><time>2026-04-26T15:23:02.932Z</time></trkpt><trkpt lat="44.125625984785046" lon="10.38702021430779"><ele>352.0</ele><time>2026-04-26T15:23:03.932Z</time></trkpt><trkpt lat="44.12579665395442" lon="10.386898426304121"><ele>352.0</ele><time>2026-04-26T15:23:04.932Z</time></trkpt><trkpt lat="44.125999071743095" lon="10.386759097871572"><ele>350.3333333333333</ele><time>2026-04-26T15:23:05.932Z</time></trkpt><trkpt lat="44.126179983624844" lon="10.3866447406677"><ele>348.6666666666667</ele><time>2026-04-26T15:23:06.931Z</time></trkpt><trkpt lat="44.12632767734252" lon="10.38652620685444"><ele>347.0</ele><time>2026-04-26T15:23:07.931Z</time></trkpt><trkpt lat="44.12644890540472" lon="10.386399641038887"><ele>347.33333333333337</ele><time>2026-04-26T15:23:08.931Z</time></trkpt><trkpt lat="44.12655306342322" lon="10.386248636426311"><ele>347.6666666666667</ele><time>2026-04-26T15:23:09.931Z</time></trkpt><trkpt lat="44.12664561155965" lon="10.38607564341883"><ele>348.0</ele><time>2026-04-26T15:23:10.931Z</time></trkpt><trkpt lat="44.1267232036846" lon="10.38588977773929"><ele>348.0</ele><time>2026-04-26T15:23:11.931Z</time></trkpt><trkpt lat="44.12678894833231" lon="10.385709524207801"><ele>348.0</ele><time>2026-04-26T15:23:12.931Z</time></trkpt><trkpt lat="44.12684911819307" lon="10.38554203847849"><ele>348.0</ele><time>2026-04-26T15:23:13.931Z</time></trkpt><trkpt lat="44.12690595849547" lon="10.385384743903193"><ele>348.0</ele><time>2026-04-26T15:23:14.931Z</time></trkpt><trkpt lat="44.126967463228496" lon="10.385230397422662"><ele>351.25</ele><time>2026-04-26T15:23:15.931Z</time></trkpt><trkpt lat="44.127034552337825" lon="10.385091071331471"><ele>354.5</ele><time>2026-04-26T15:23:16.931Z</time></trkpt><trkpt lat="44.12711276483189" lon="10.384964955373992"><ele>357.75</ele><time>2026-04-26T15:23:17.931Z</time></trkpt><trkpt lat="44.12720919952603" lon="10.384832680839999"><ele>361.0</ele><time>2026-04-26T15:23:18.931Z</time></trkpt><trkpt lat="44.12732618641769" lon="10.384693240335661"><ele>360.25</ele><time>2026-04-26T15:23:19.93Z</time></trkpt><trkpt lat="44.127432173888586" lon="10.384553935874633"><ele>359.5</ele><time>2026-04-26T15:23:20.93Z</time></trkpt><trkpt lat="44.127550433251365" lon="10.384449367783548"><ele>358.75</ele><time>2026-04-26T15:23:21.93Z</time></trkpt><trkpt lat="44.1276905067848" lon="10.384398634024393"><ele>358.0</ele><time>2026-04-26T15:23:22.93Z</time></trkpt><trkpt lat="44.12783539332227" lon="10.384385182849822"><ele>358.0</ele><time>2026-04-26T15:23:23.93Z</time></trkpt><trkpt lat="44.12795400223722" lon="10.384344180264893"><ele>358.0</ele><time>2026-04-26T15:23:24.93Z</time></trkpt><trkpt lat="44.12806382641825" lon="10.384251693562822"><ele>358.0</ele><time>2026-04-26T15:23:25.93Z</time></trkpt><trkpt lat="44.12816371188266" lon="10.384110418381015"><ele>358.0</ele><time>2026-04-26T15:23:26.93Z</time></trkpt><trkpt lat="44.128256951421605" lon="10.383938329016997"><ele>358.66666666666663</ele><time>2026-04-26T15:23:27.93Z</time></trkpt><trkpt lat="44.12835038294201" lon="10.383736352075795"><ele>359.3333333333333</ele><time>2026-04-26T15:23:28.93Z</time></trkpt><trkpt lat="44.12844105180011" lon="10.383536847063803"><ele>360.0</ele><time>2026-04-26T15:23:29.93Z</time></trkpt><trkpt lat="44.12853710870021" lon="10.383376076399342"><ele>360.0</ele><time>2026-04-26T15:23:30.93Z</time></trkpt><trkpt lat="44.12864789905053" lon="10.383220684814884"><ele>360.0</ele><time>2026-04-26T15:23:31.93Z</time></trkpt><trkpt lat="44.128775725733156" lon="10.38306468728855"><ele>360.0</ele><time>2026-04-26T15:23:32.93Z</time></trkpt><trkpt lat="44.12891710899098" lon="10.38291891931875"><ele>359.3333333333333</ele><time>2026-04-26T15:23:33.93Z</time></trkpt><trkpt lat="44.12905339197795" lon="10.382766067447122"><ele>358.66666666666663</ele><time>2026-04-26T15:23:34.93Z</time></trkpt><trkpt lat="44.129183072810385" lon="10.382629897803247"><ele>358.0</ele><time>2026-04-26T15:23:35.93Z</time></trkpt><trkpt lat="44.12929555848333" lon="10.382494497192159"><ele>358.0</ele><time>2026-04-26T15:23:36.93Z</time></trkpt><trkpt lat="44.12939337033302" lon="10.38236142079114"><ele>358.0</ele><time>2026-04-26T15:23:37.93Z</time></trkpt><trkpt lat="44.12948024376836" lon="10.382231323359015"><ele>358.0</ele><time>2026-04-26T15:23:38.93Z</time></trkpt><trkpt lat="44.12954395502692" lon="10.382079743659324"><ele>358.0</ele><time>2026-04-26T15:23:39.93Z</time></trkpt><trkpt lat="44.12958372589591" lon="10.381885527222293"><ele>360.3333333333333</ele><time>2026-04-26T15:23:40.93Z</time></trkpt><trkpt lat="44.12961865299298" lon="10.38167795121321"><ele>362.6666666666667</ele><time>2026-04-26T15:23:41.93Z</time></trkpt><trkpt lat="44.12966121489485" lon="10.381464343112922"><ele>365.0</ele><time>2026-04-26T15:23:42.93Z</time></trkpt><trkpt lat="44.129706292624775" lon="10.381268358047514"><ele>366.75</ele><time>2026-04-26T15:23:43.93Z</time></trkpt><trkpt lat="44.12974746415353" lon="10.381092473224129"><ele>368.5</ele><time>2026-04-26T15:23:44.93Z</time></trkpt><trkpt lat="44.129784935611454" lon="10.380933818490105"><ele>370.25</ele><time>2026-04-26T15:23:45.93Z</time></trkpt><trkpt lat="44.129813944062974" lon="10.380783200038843"><ele>372.0</ele><time>2026-04-26T15:23:46.93Z</time></trkpt><trkpt lat="44.12982568535734" lon="10.380631949408336"><ele>373.25</ele><time>2026-04-26T15:23:47.93Z</time></trkpt><trkpt lat="44.12978862483135" lon="10.380479327054086"><ele>374.5</ele><time>2026-04-26T15:23:48.93Z</time></trkpt><trkpt lat="44.12971992217639" lon="10.380359223485401"><ele>375.75</ele><time>2026-04-26T15:23:49.93Z</time></trkpt><trkpt lat="44.12962080948793" lon="10.380251090748109"><ele>377.0</ele><time>2026-04-26T15:23:50.93Z</time></trkpt><trkpt lat="44.12952736329312" lon="10.380116876625838"><ele>377.0</ele><time>2026-04-26T15:23:51.93Z</time></trkpt><trkpt lat="44.12945533467435" lon="10.379937568274407"><ele>377.0</ele><time>2026-04-26T15:23:52.93Z</time></trkpt><trkpt lat="44.129400484412486" lon="10.379731697281327"><ele>377.0</ele><time>2026-04-26T15:23:53.93Z</time></trkpt><trkpt lat="44.12935557563829" lon="10.379525499090478"><ele>376.25</ele><time>2026-04-26T15:23:54.93Z</time></trkpt><trkpt lat="44.12931659103482" lon="10.379328941011934"><ele>375.5</ele><time>2026-04-26T15:23:55.93Z</time></trkpt><trkpt lat="44.12928435670714" lon="10.379138687631542"><ele>374.75</ele><time>2026-04-26T15:23:56.93Z</time></trkpt><trkpt lat="44.129270002551905" lon="10.37894814658252"><ele>374.0</ele><time>2026-04-26T15:23:57.93Z</time></trkpt><trkpt lat="44.129273651307" lon="10.378740997018044"><ele>372.75</ele><time>2026-04-26T15:23:58.93Z</time></trkpt><trkpt lat="44.12926865649609" lon="10.378563781551113"><ele>371.5</ele><time>2026-04-26T15:23:59.93Z</time></trkpt><trkpt lat="44.12925420440273" lon="10.378401497415556"><ele>370.25</ele><time>2026-04-26T15:24:00.93Z</time></trkpt><trkpt lat="44.12919932111165" lon="10.378247624691662"><ele>369.0</ele><time>2026-04-26T15:24:01.93Z</time></trkpt><trkpt lat="44.12911187980925" lon="10.378110147986149"><ele>369.4</ele><time>2026-04-26T15:24:02.93Z</time></trkpt><trkpt lat="44.129027302170364" lon="10.377982146514517"><ele>369.79999999999995</ele><time>2026-04-26T15:24:03.93Z</time></trkpt><trkpt lat="44.12898257708116" lon="10.377846510154432"><ele>370.20000000000005</ele><time>2026-04-26T15:24:04.93Z</time></trkpt><trkpt lat="44.12897660575195" lon="10.377721613375233"><ele>370.6</ele><time>2026-04-26T15:24:05.93Z</time></trkpt><trkpt lat="44.1290170809469" lon="10.377599958993752"><ele>371.0</ele><time>2026-04-26T15:24:06.93Z</time></trkpt><trkpt lat="44.129093207388934" lon="10.37751302101779"><ele>371.0</ele><time>2026-04-26T15:24:07.93Z</time></trkpt><trkpt lat="44.12920311587839" lon="10.377458766273502"><ele>371.0</ele><time>2026-04-26T15:24:08.93Z</time></trkpt><trkpt lat="44.12934285727974" lon="10.377446670528126"><ele>371.0</ele><time>2026-04-26T15:24:09.93Z</time></trkpt><trkpt lat="44.129484019434436" lon="10.37744301258679"><ele>371.0</ele><time>2026-04-26T15:24:10.93Z</time></trkpt><trkpt lat="44.12959997914852" lon="10.37743194735977"><ele>371.0</ele><time>2026-04-26T15:24:11.93Z</time></trkpt><trkpt lat="44.129710226647" lon="10.377386271283248"><ele>371.0</ele><time>2026-04-26T15:24:12.93Z</time></trkpt><trkpt lat="44.12981368748569" lon="10.377289138588097"><ele>371.0</ele><time>2026-04-26T15:24:13.93Z</time></trkpt><trkpt lat="44.12990515301169" lon="10.377152878633467"><ele>371.0</ele><time>2026-04-26T15:24:14.93Z</time></trkpt><trkpt lat="44.12998853509173" lon="10.376979542833723"><ele>372.5</ele><time>2026-04-26T15:24:15.93Z</time></trkpt><trkpt lat="44.13006140389837" lon="10.37679022465011"><ele>374.0</ele><time>2026-04-26T15:24:16.93Z</time></trkpt><trkpt lat="44.13013222382384" lon="10.376609837424498"><ele>375.5</ele><time>2026-04-26T15:24:17.93Z</time></trkpt><trkpt lat="44.130217376463506" lon="10.376441724458472"><ele>377.0</ele><time>2026-04-26T15:24:18.93Z</time></trkpt><trkpt lat="44.130327733867446" lon="10.376303236305837"><ele>374.0</ele><time>2026-04-26T15:24:19.93Z</time></trkpt><trkpt lat="44.130459912143856" lon="10.376205128263642"><ele>371.0</ele><time>2026-04-26T15:24:20.93Z</time></trkpt><trkpt lat="44.130596244733034" lon="10.376119350045032"><ele>368.0</ele><time>2026-04-26T15:24:21.93Z</time></trkpt><trkpt lat="44.13072600131919" lon="10.375999290042621"><ele>368.0</ele><time>2026-04-26T15:24:22.93Z</time></trkpt><trkpt lat="44.130852855221654" lon="10.375847829223499"><ele>368.0</ele><time>2026-04-26T15:24:23.93Z</time></trkpt><trkpt lat="44.13097569429358" lon="10.37569007939133"><ele>368.0</ele><time>2026-04-26T15:24:24.93Z</time></trkpt><trkpt lat="44.13108912872794" lon="10.375509972677655"><ele>372.0</ele><time>2026-04-26T15:24:25.93Z</time></trkpt><trkpt lat="44.13120941973471" lon="10.375335074801148"><ele>376.0</ele><time>2026-04-26T15:24:26.93Z</time></trkpt><trkpt lat="44.13132611238224" lon="10.375159025243018"><ele>380.0</ele><time>2026-04-26T15:24:27.93Z</time></trkpt><trkpt lat="44.13144350639254" lon="10.374992981596764"><ele>380.0</ele><time>2026-04-26T15:24:28.93Z</time></trkpt><trkpt lat="44.13155694720245" lon="10.374823675235255"><ele>380.0</ele><time>2026-04-26T15:24:29.93Z</time></trkpt><trkpt lat="44.13166593862494" lon="10.374658732464086"><ele>380.0</ele><time>2026-04-26T15:24:30.93Z</time></trkpt><trkpt lat="44.131776295252294" lon="10.374522058614746"><ele>379.5</ele><time>2026-04-26T15:24:31.93Z</time></trkpt><trkpt lat="44.13188042013058" lon="10.374418676471198"><ele>379.0</ele><time>2026-04-26T15:24:32.93Z</time></trkpt><trkpt lat="44.13197102270343" lon="10.374316108496078"><ele>378.5</ele><time>2026-04-26T15:24:33.93Z</time></trkpt><trkpt lat="44.13207769090692" lon="10.374219847233705"><ele>378.0</ele><time>2026-04-26T15:24:34.93Z</time></trkpt><trkpt lat="44.13221740788003" lon="10.374185908654"><ele>378.0</ele><time>2026-04-26T15:24:35.93Z</time></trkpt><trkpt lat="44.13235449992248" lon="10.374152870142321"><ele>378.0</ele><time>2026-04-26T15:24:36.93Z</time></trkpt><trkpt lat="44.13249758511519" lon="10.374112540402502"><ele>378.0</ele><time>2026-04-26T15:24:37.93Z</time></trkpt><trkpt lat="44.132619329611806" lon="10.37406174657532"><ele>378.0</ele><time>2026-04-26T15:24:38.93Z</time></trkpt><trkpt lat="44.13273255402822" lon="10.373998771519034"><ele>376.75</ele><time>2026-04-26T15:24:39.93Z</time></trkpt><trkpt lat="44.132834823066744" lon="10.373918821249429"><ele>375.5</ele><time>2026-04-26T15:24:40.93Z</time></trkpt><trkpt lat="44.13292563156414" lon="10.37381631915402"><ele>374.25</ele><time>2026-04-26T15:24:41.93Z</time></trkpt><trkpt lat="44.132984467386045" lon="10.373667915127951"><ele>373.0</ele><time>2026-04-26T15:24:42.93Z</time></trkpt><trkpt lat="44.13303384291086" lon="10.373511746399803"><ele>373.0</ele><time>2026-04-26T15:24:43.93Z</time></trkpt><trkpt lat="44.13308497042752" lon="10.373350643057947"><ele>373.0</ele><time>2026-04-26T15:24:44.93Z</time></trkpt><trkpt lat="44.13313944668106" lon="10.37316633501776"><ele>373.0</ele><time>2026-04-26T15:24:45.93Z</time></trkpt><trkpt lat="44.133197189845454" lon="10.372997775023455"><ele>373.0</ele><time>2026-04-26T15:24:46.93Z</time></trkpt><trkpt lat="44.133265052874975" lon="10.372849156361122"><ele>371.0</ele><time>2026-04-26T15:24:47.93Z</time></trkpt><trkpt lat="44.13335655945966" lon="10.372710948370354"><ele>369.0</ele><time>2026-04-26T15:24:48.93Z</time></trkpt><trkpt lat="44.13345246476002" lon="10.372613240953264"><ele>367.0</ele><time>2026-04-26T15:24:49.93Z</time></trkpt><trkpt lat="44.133542797736965" lon="10.372508925468802"><ele>365.0</ele><time>2026-04-26T15:24:50.93Z</time></trkpt><trkpt lat="44.133627868396914" lon="10.372393129979555"><ele>365.0</ele><time>2026-04-26T15:24:51.93Z</time></trkpt><trkpt lat="44.13370228564985" lon="10.372279611819897"><ele>365.0</ele><time>2026-04-26T15:24:52.93Z</time></trkpt><trkpt lat="44.13377104257736" lon="10.372161874856383"><ele>365.0</ele><time>2026-04-26T15:24:53.93Z</time></trkpt><trkpt lat="44.13382793098279" lon="10.372018146918615"><ele>365.0</ele><time>2026-04-26T15:24:54.93Z</time></trkpt><trkpt lat="44.13389586828257" lon="10.371857736183918"><ele>364.0</ele><time>2026-04-26T15:24:55.93Z</time></trkpt><trkpt lat="44.133968406358036" lon="10.371696421860877"><ele>363.0</ele><time>2026-04-26T15:24:56.93Z</time></trkpt><trkpt lat="44.13404216335168" lon="10.371525562632465"><ele>362.0</ele><time>2026-04-26T15:24:57.93Z</time></trkpt><trkpt lat="44.13412093489403" lon="10.371363513826342"><ele>361.0</ele><time>2026-04-26T15:24:58.93Z</time></trkpt><trkpt lat="44.13419914041981" lon="10.371207214682489"><ele>361.0</ele><time>2026-04-26T15:24:59.93Z</time></trkpt><trkpt lat="44.1342738360052" lon="10.371051245540773"><ele>361.0</ele><time>2026-04-26T15:25:00.93Z</time></trkpt><trkpt lat="44.134344815859485" lon="10.370900643178127"><ele>361.0</ele><time>2026-04-26T15:25:01.93Z</time></trkpt><trkpt lat="44.13442054285946" lon="10.370759886025164"><ele>361.0</ele><time>2026-04-26T15:25:02.93Z</time></trkpt><trkpt lat="44.13451026437503" lon="10.37064732922209"><ele>361.0</ele><time>2026-04-26T15:25:03.93Z</time></trkpt><trkpt lat="44.13460662145986" lon="10.370536161217712"><ele>361.0</ele><time>2026-04-26T15:25:04.93Z</time></trkpt><trkpt lat="44.13473219900765" lon="10.37045474583362"><ele>361.0</ele><time>2026-04-26T15:25:05.93Z</time></trkpt><trkpt lat="44.13485326105785" lon="10.370355459074235"><ele>361.0</ele><time>2026-04-26T15:25:06.93Z</time></trkpt><trkpt lat="44.13496423358689" lon="10.370236159608792"><ele>360.75</ele><time>2026-04-26T15:25:07.93Z</time></trkpt><trkpt lat="44.1350757530442" lon="10.370119688878717"><ele>360.5</ele><time>2026-04-26T15:25:08.93Z</time></trkpt><trkpt lat="44.135189957475696" lon="10.370001050669046"><ele>360.25</ele><time>2026-04-26T15:25:09.93Z</time></trkpt><trkpt lat="44.13529928057842" lon="10.369879899046321"><ele>360.0</ele><time>2026-04-26T15:25:10.93Z</time></trkpt><trkpt lat="44.13541227271904" lon="10.369768020489822"><ele>360.0</ele><time>2026-04-26T15:25:11.93Z</time></trkpt><trkpt lat="44.13552604519157" lon="10.369664541463337"><ele>360.0</ele><time>2026-04-26T15:25:12.929Z</time></trkpt><trkpt lat="44.13563890462873" lon="10.369561274271353"><ele>360.0</ele><time>2026-04-26T15:25:13.929Z</time></trkpt><trkpt lat="44.13574627144987" lon="10.369455723440934"><ele>360.0</ele><time>2026-04-26T15:25:14.929Z</time></trkpt><trkpt lat="44.13583415539084" lon="10.369366180368937"><ele>360.0</ele><time>2026-04-26T15:25:15.929Z</time></trkpt><trkpt lat="44.13591567022378" lon="10.36929540126182"><ele>360.0</ele><time>2026-04-26T15:25:16.929Z</time></trkpt><trkpt lat="44.13600380921798" lon="10.369260110704019"><ele>360.0</ele><time>2026-04-26T15:25:17.929Z</time></trkpt><trkpt lat="44.13610912725113" lon="10.369243564584565"><ele>360.0</ele><time>2026-04-26T15:25:18.929Z</time></trkpt><trkpt lat="44.13622899765424" lon="10.369253857226118"><ele>360.0</ele><time>2026-04-26T15:25:19.929Z</time></trkpt><trkpt lat="44.13634501634047" lon="10.369249600155308"><ele>360.0</ele><time>2026-04-26T15:25:20.929Z</time></trkpt><trkpt lat="44.13642688247578" lon="10.369209813101802"><ele>360.0</ele><time>2026-04-26T15:25:21.929Z</time></trkpt><trkpt lat="44.136490931198175" lon="10.369106650223857"><ele>360.0</ele><time>2026-04-26T15:25:22.929Z</time></trkpt><trkpt lat="44.13655239140299" lon="10.368965859109013"><ele>360.0</ele><time>2026-04-26T15:25:23.929Z</time></trkpt><trkpt lat="44.13661191135661" lon="10.368806918512716"><ele>360.0</ele><time>2026-04-26T15:25:24.929Z</time></trkpt><trkpt lat="44.13666923371623" lon="10.368624883140331"><ele>360.75</ele><time>2026-04-26T15:25:25.929Z</time></trkpt><trkpt lat="44.13672116373242" lon="10.36843896315436"><ele>361.5</ele><time>2026-04-26T15:25:26.929Z</time></trkpt><trkpt lat="44.1367754341381" lon="10.368281128383906"><ele>362.25</ele><time>2026-04-26T15:25:27.929Z</time></trkpt><trkpt lat="44.136854744426465" lon="10.368153141898736"><ele>363.0</ele><time>2026-04-26T15:25:28.929Z</time></trkpt><trkpt lat="44.13696574128636" lon="10.368049313967823"><ele>367.0</ele><time>2026-04-26T15:25:29.929Z</time></trkpt><trkpt lat="44.13708143672405" lon="10.367936117311414"><ele>371.0</ele><time>2026-04-26T15:25:30.929Z</time></trkpt><trkpt lat="44.13720024923254" lon="10.367800875150829"><ele>375.0</ele><time>2026-04-26T15:25:31.929Z</time></trkpt><trkpt lat="44.137322152085915" lon="10.367660338089303"><ele>371.6666666666667</ele><time>2026-04-26T15:25:32.929Z</time></trkpt><trkpt lat="44.137444664228305" lon="10.36751737456097"><ele>368.33333333333337</ele><time>2026-04-26T15:25:33.929Z</time></trkpt><trkpt lat="44.13755754457481" lon="10.367374961698316"><ele>365.0</ele><time>2026-04-26T15:25:34.929Z</time></trkpt><trkpt lat="44.1376672802892" lon="10.367240250836225"><ele>368.75</ele><time>2026-04-26T15:25:35.929Z</time></trkpt><trkpt lat="44.1377756265178" lon="10.367118861614152"><ele>372.5</ele><time>2026-04-26T15:25:36.929Z</time></trkpt><trkpt lat="44.13788478399186" lon="10.367029775819923"><ele>376.25</ele><time>2026-04-26T15:25:37.929Z</time></trkpt><trkpt lat="44.138002508520145" lon="10.366978436123093"><ele>380.0</ele><time>2026-04-26T15:25:38.929Z</time></trkpt><trkpt lat="44.138126213289475" lon="10.366966925751939"><ele>378.0</ele><time>2026-04-26T15:25:39.929Z</time></trkpt><trkpt lat="44.138247272802985" lon="10.366977375190695"><ele>376.0</ele><time>2026-04-26T15:25:40.929Z</time></trkpt><trkpt lat="44.138354797252425" lon="10.366972489495497"><ele>374.0</ele><time>2026-04-26T15:25:41.929Z</time></trkpt><trkpt lat="44.138457855835625" lon="10.366916027807868"><ele>372.0</ele><time>2026-04-26T15:25:42.929Z</time></trkpt><trkpt lat="44.138557231817785" lon="10.366806174292153"><ele>372.0</ele><time>2026-04-26T15:25:43.929Z</time></trkpt><trkpt lat="44.138654254969374" lon="10.36666390041531"><ele>372.0</ele><time>2026-04-26T15:25:44.929Z</time></trkpt><trkpt lat="44.13876650157935" lon="10.366511923323875"><ele>372.0</ele><time>2026-04-26T15:25:45.929Z</time></trkpt><trkpt lat="44.13887116690613" lon="10.366349054881383"><ele>372.0</ele><time>2026-04-26T15:25:46.929Z</time></trkpt><trkpt lat="44.13897210980858" lon="10.366190405799507"><ele>372.0</ele><time>2026-04-26T15:25:47.929Z</time></trkpt><trkpt lat="44.13907559870876" lon="10.3660441502589"><ele>372.0</ele><time>2026-04-26T15:25:48.929Z</time></trkpt><trkpt lat="44.13916421650416" lon="10.365897050650965"><ele>372.0</ele><time>2026-04-26T15:25:49.929Z</time></trkpt><trkpt lat="44.139248962393516" lon="10.365769018638145"><ele>372.0</ele><time>2026-04-26T15:25:50.929Z</time></trkpt><trkpt lat="44.13935780666627" lon="10.365692202425556"><ele>372.0</ele><time>2026-04-26T15:25:51.929Z</time></trkpt><trkpt lat="44.13948395388759" lon="10.36565178937324"><ele>372.0</ele><time>2026-04-26T15:25:52.929Z</time></trkpt><trkpt lat="44.13961817336587" lon="10.365629484101863"><ele>372.0</ele><time>2026-04-26T15:25:53.929Z</time></trkpt><trkpt lat="44.13974052523083" lon="10.365573529465388"><ele>372.6666666666667</ele><time>2026-04-26T15:25:54.929Z</time></trkpt><trkpt lat="44.13985836994375" lon="10.365469578795238"><ele>373.33333333333337</ele><time>2026-04-26T15:25:55.929Z</time></trkpt><trkpt lat="44.13997795101456" lon="10.365338553617597"><ele>374.0</ele><time>2026-04-26T15:25:56.929Z</time></trkpt><trkpt lat="44.14009798474597" lon="10.365189105563033"><ele>374.0</ele><time>2026-04-26T15:25:57.929Z</time></trkpt><trkpt lat="44.14021252504288" lon="10.365021957686487"><ele>374.0</ele><time>2026-04-26T15:25:58.929Z</time></trkpt><trkpt lat="44.14034488544415" lon="10.364863163322402"><ele>374.0</ele><time>2026-04-26T15:25:59.929Z</time></trkpt><trkpt lat="44.14048182401279" lon="10.364686923181809"><ele>375.33333333333337</ele><time>2026-04-26T15:26:00.929Z</time></trkpt><trkpt lat="44.14063233545105" lon="10.36449652032087"><ele>376.6666666666667</ele><time>2026-04-26T15:26:01.929Z</time></trkpt><trkpt lat="44.14078632043222" lon="10.364310121750696"><ele>378.0</ele><time>2026-04-26T15:26:02.929Z</time></trkpt><trkpt lat="44.140923989319106" lon="10.364133584988943"><ele>378.0</ele><time>2026-04-26T15:26:03.929Z</time></trkpt><trkpt lat="44.141067966437255" lon="10.363970265886929"><ele>378.0</ele><time>2026-04-26T15:26:04.929Z</time></trkpt><trkpt lat="44.14121087434241" lon="10.363809211143801"><ele>378.0</ele><time>2026-04-26T15:26:05.929Z</time></trkpt><trkpt lat="44.141352659015794" lon="10.363675779815518"><ele>379.0</ele><time>2026-04-26T15:26:06.929Z</time></trkpt><trkpt lat="44.14147752226333" lon="10.363557103089612"><ele>380.0</ele><time>2026-04-26T15:26:07.929Z</time></trkpt><trkpt lat="44.141598621311815" lon="10.36344210126315"><ele>381.0</ele><time>2026-04-26T15:26:08.929Z</time></trkpt><trkpt lat="44.14168970415723" lon="10.363306449706668"><ele>382.0</ele><time>2026-04-26T15:26:09.929Z</time></trkpt><trkpt lat="44.14176897328748" lon="10.363147601190313"><ele>384.75</ele><time>2026-04-26T15:26:10.929Z</time></trkpt><trkpt lat="44.14181531483974" lon="10.362970871314728"><ele>387.5</ele><time>2026-04-26T15:26:11.929Z</time></trkpt><trkpt lat="44.14180849697941" lon="10.362772089804286"><ele>390.25</ele><time>2026-04-26T15:26:12.929Z</time></trkpt><trkpt lat="44.141764664122626" lon="10.362554967836864"><ele>393.0</ele><time>2026-04-26T15:26:13.929Z</time></trkpt><trkpt lat="44.141730296564695" lon="10.362367272434904"><ele>393.0</ele><time>2026-04-26T15:26:14.929Z</time></trkpt><trkpt lat="44.14176688925336" lon="10.362204132684317"><ele>393.0</ele><time>2026-04-26T15:26:15.929Z</time></trkpt><trkpt lat="44.14185355145717" lon="10.36205192817696"><ele>393.0</ele><time>2026-04-26T15:26:16.929Z</time></trkpt><trkpt lat="44.14196484125674" lon="10.361932003223474"><ele>393.0</ele><time>2026-04-26T15:26:17.929Z</time></trkpt><trkpt lat="44.14207315050321" lon="10.361854161774588"><ele>394.5</ele><time>2026-04-26T15:26:18.929Z</time></trkpt><trkpt lat="44.142201501190975" lon="10.3618464794628"><ele>396.0</ele><time>2026-04-26T15:26:19.929Z</time></trkpt><trkpt lat="44.14234222076038" lon="10.361871389442022"><ele>397.5</ele><time>2026-04-26T15:26:20.929Z</time></trkpt><trkpt lat="44.14246065709789" lon="10.361851985377317"><ele>399.0</ele><time>2026-04-26T15:26:21.929Z</time></trkpt><trkpt lat="44.14256733218252" lon="10.361782280560627"><ele>399.0</ele><time>2026-04-26T15:26:22.929Z</time></trkpt><trkpt lat="44.142670312495525" lon="10.361641834883914"><ele>399.0</ele><time>2026-04-26T15:26:23.929Z</time></trkpt><trkpt lat="44.14274855721023" lon="10.361443109032804"><ele>399.0</ele><time>2026-04-26T15:26:24.929Z</time></trkpt><trkpt lat="44.14283159976999" lon="10.361245301684288"><ele>404.75</ele><time>2026-04-26T15:26:25.929Z</time></trkpt><trkpt lat="44.1429324768605" lon="10.361073213391236"><ele>410.5</ele><time>2026-04-26T15:26:26.929Z</time></trkpt><trkpt lat="44.143018270917025" lon="10.360928558977271"><ele>416.25</ele><time>2026-04-26T15:26:27.929Z</time></trkpt><trkpt lat="44.14308239423864" lon="10.360795872828994"><ele>422.0</ele><time>2026-04-26T15:26:28.929Z</time></trkpt><trkpt lat="44.143120721677214" lon="10.360679091169343"><ele>422.0</ele><time>2026-04-26T15:26:29.929Z</time></trkpt><trkpt lat="44.14313276009908" lon="10.36055497907263"><ele>422.0</ele><time>2026-04-26T15:26:30.929Z</time></trkpt><trkpt lat="44.14311289432116" lon="10.360432320811798"><ele>422.0</ele><time>2026-04-26T15:26:31.929Z</time></trkpt><trkpt lat="44.14307671455379" lon="10.360312985663537"><ele>422.0</ele><time>2026-04-26T15:26:32.929Z</time></trkpt><trkpt lat="44.14305902351165" lon="10.360225974208033"><ele>422.0</ele><time>2026-04-26T15:26:33.929Z</time></trkpt><trkpt lat="44.14318075228555" lon="10.36017340893808"><ele>418.75</ele><time>2026-04-26T15:26:35.929Z</time></trkpt><trkpt lat="44.14327541729355" lon="10.360210518366372"><ele>415.5</ele><time>2026-04-26T15:26:36.929Z</time></trkpt><trkpt lat="44.14338908577199" lon="10.360193646076905"><ele>412.25</ele><time>2026-04-26T15:26:37.929Z</time></trkpt><trkpt lat="44.14350030463984" lon="10.360102858993631"><ele>409.0</ele><time>2026-04-26T15:26:38.929Z</time></trkpt><trkpt lat="44.14357676435962" lon="10.359958197493583"><ele>409.0</ele><time>2026-04-26T15:26:39.929Z</time></trkpt><trkpt lat="44.14363837886545" lon="10.359785387972675"><ele>409.0</ele><time>2026-04-26T15:26:40.929Z</time></trkpt><trkpt lat="44.1436840595971" lon="10.359583957347345"><ele>409.0</ele><time>2026-04-26T15:26:41.929Z</time></trkpt><trkpt lat="44.14373407887639" lon="10.359373035557692"><ele>409.0</ele><time>2026-04-26T15:26:42.929Z</time></trkpt><trkpt lat="44.1437926365321" lon="10.359150609676187"><ele>413.0</ele><time>2026-04-26T15:26:43.929Z</time></trkpt><trkpt lat="44.14383675630637" lon="10.358941408116797"><ele>417.0</ele><time>2026-04-26T15:26:44.929Z</time></trkpt><trkpt lat="44.14387387131815" lon="10.358757660588271"><ele>421.0</ele><time>2026-04-26T15:26:45.929Z</time></trkpt><trkpt lat="44.14393155301721" lon="10.358592454680364"><ele>425.0</ele><time>2026-04-26T15:26:46.929Z</time></trkpt><trkpt lat="44.14401256464588" lon="10.35844783923909"><ele>424.25</ele><time>2026-04-26T15:26:47.929Z</time></trkpt><trkpt lat="44.14412540092815" lon="10.358333236956998"><ele>423.5</ele><time>2026-04-26T15:26:48.929Z</time></trkpt><trkpt lat="44.144248332725724" lon="10.358223206328018"><ele>422.75</ele><time>2026-04-26T15:26:49.929Z</time></trkpt><trkpt lat="44.14437149537421" lon="10.358105128810466"><ele>422.0</ele><time>2026-04-26T15:26:50.929Z</time></trkpt><trkpt lat="44.144483934149065" lon="10.357972288017086"><ele>429.3333333333333</ele><time>2026-04-26T15:26:51.929Z</time></trkpt><trkpt lat="44.14458272595249" lon="10.357822310949192"><ele>436.66666666666663</ele><time>2026-04-26T15:26:52.929Z</time></trkpt><trkpt lat="44.1446687746142" lon="10.357650784681965"><ele>444.0</ele><time>2026-04-26T15:26:53.929Z</time></trkpt><trkpt lat="44.144750402319374" lon="10.357452474927845"><ele>444.0</ele><time>2026-04-26T15:26:54.929Z</time></trkpt><trkpt lat="44.14483083557497" lon="10.35725393341094"><ele>444.0</ele><time>2026-04-26T15:26:55.929Z</time></trkpt><trkpt lat="44.144910628207924" lon="10.357060108402855"><ele>444.0</ele><time>2026-04-26T15:26:56.929Z</time></trkpt><trkpt lat="44.14498649749801" lon="10.356902843825072"><ele>444.2</ele><time>2026-04-26T15:26:57.929Z</time></trkpt><trkpt lat="44.14504946510032" lon="10.356775593038172"><ele>444.4</ele><time>2026-04-26T15:26:58.929Z</time></trkpt><trkpt lat="44.14511990559136" lon="10.356697224702566"><ele>444.6</ele><time>2026-04-26T15:26:59.929Z</time></trkpt><trkpt lat="44.1452212834575" lon="10.35669082211334"><ele>444.8</ele><time>2026-04-26T15:27:00.929Z</time></trkpt><trkpt lat="44.14534132358197" lon="10.356701582471176"><ele>445.0</ele><time>2026-04-26T15:27:01.929Z</time></trkpt><trkpt lat="44.14544995276583" lon="10.356693153532882"><ele>445.0</ele><time>2026-04-26T15:27:02.929Z</time></trkpt><trkpt lat="44.14554711427161" lon="10.356655259005674"><ele>445.0</ele><time>2026-04-26T15:27:03.929Z</time></trkpt><trkpt lat="44.14564129796839" lon="10.356565687520844"><ele>445.0</ele><time>2026-04-26T15:27:04.929Z</time></trkpt><trkpt lat="44.14572510342731" lon="10.356427967868756"><ele>445.0</ele><time>2026-04-26T15:27:05.929Z</time></trkpt><trkpt lat="44.14581664733739" lon="10.356249818151829"><ele>443.6666666666667</ele><time>2026-04-26T15:27:06.929Z</time></trkpt><trkpt lat="44.14591449567402" lon="10.356053102590662"><ele>442.33333333333337</ele><time>2026-04-26T15:27:07.929Z</time></trkpt><trkpt lat="44.14601579842178" lon="10.355865605472673"><ele>441.0</ele><time>2026-04-26T15:27:08.929Z</time></trkpt><trkpt lat="44.14611987269812" lon="10.355671766664491"><ele>445.0</ele><time>2026-04-26T15:27:09.929Z</time></trkpt><trkpt lat="44.14622162914024" lon="10.355479924837466"><ele>449.0</ele><time>2026-04-26T15:27:10.929Z</time></trkpt><trkpt lat="44.146310369743645" lon="10.355288745220738"><ele>453.0</ele><time>2026-04-26T15:27:11.929Z</time></trkpt><trkpt lat="44.14638669545068" lon="10.355103259593262"><ele>453.0</ele><time>2026-04-26T15:27:12.929Z</time></trkpt><trkpt lat="44.14645203661719" lon="10.35492508255146"><ele>453.0</ele><time>2026-04-26T15:27:13.929Z</time></trkpt><trkpt lat="44.146506150998356" lon="10.35477109959629"><ele>453.0</ele><time>2026-04-26T15:27:14.929Z</time></trkpt><trkpt lat="44.14656448614154" lon="10.35464324369112"><ele>453.0</ele><time>2026-04-26T15:27:15.929Z</time></trkpt><trkpt lat="44.14665359176" lon="10.354527315843695"><ele>452.5</ele><time>2026-04-26T15:27:16.929Z</time></trkpt><trkpt lat="44.14676951052947" lon="10.35443368300228"><ele>452.0</ele><time>2026-04-26T15:27:17.929Z</time></trkpt><trkpt lat="44.14689724973765" lon="10.354350000725336"><ele>451.5</ele><time>2026-04-26T15:27:18.928Z</time></trkpt><trkpt lat="44.14702188422477" lon="10.354266751509886"><ele>451.0</ele><time>2026-04-26T15:27:19.928Z</time></trkpt><trkpt lat="44.147133664426356" lon="10.354167004494293"><ele>451.0</ele><time>2026-04-26T15:27:20.928Z</time></trkpt><trkpt lat="44.14724610259564" lon="10.354071419437961"><ele>451.0</ele><time>2026-04-26T15:27:21.927Z</time></trkpt><trkpt lat="44.147352460918974" lon="10.353993330385919"><ele>451.0</ele><time>2026-04-26T15:27:22.928Z</time></trkpt><trkpt lat="44.14746279485126" lon="10.353952182134654"><ele>451.0</ele><time>2026-04-26T15:27:23.928Z</time></trkpt><trkpt lat="44.1475730440665" lon="10.353921951991534"><ele>450.8</ele><time>2026-04-26T15:27:24.928Z</time></trkpt><trkpt lat="44.14768458242758" lon="10.353922196399337"><ele>450.6</ele><time>2026-04-26T15:27:25.927Z</time></trkpt><trkpt lat="44.14778415118873" lon="10.353924432537129"><ele>450.4</ele><time>2026-04-26T15:27:26.927Z</time></trkpt><trkpt lat="44.14788256694547" lon="10.353930771311054"><ele>450.2</ele><time>2026-04-26T15:27:27.927Z</time></trkpt><trkpt lat="44.147956866553066" lon="10.353930164200206"><ele>450.0</ele><time>2026-04-26T15:27:28.928Z</time></trkpt><trkpt lat="44.14804861670726" lon="10.353839367923984"><ele>450.8333333333333</ele><time>2026-04-26T15:27:30.927Z</time></trkpt><trkpt lat="44.14805625283366" lon="10.353714479169069"><ele>451.66666666666663</ele><time>2026-04-26T15:27:31.927Z</time></trkpt><trkpt lat="44.148048088739515" lon="10.353606955327168"><ele>452.5</ele><time>2026-04-26T15:27:32.927Z</time></trkpt><trkpt lat="44.14801083906029" lon="10.353503859280274"><ele>453.3333333333333</ele><time>2026-04-26T15:27:33.927Z</time></trkpt><trkpt lat="44.14793889938202" lon="10.35341283073876"><ele>454.16666666666663</ele><time>2026-04-26T15:27:34.927Z</time></trkpt><trkpt lat="44.147851689942" lon="10.353344013868488"><ele>455.0</ele><time>2026-04-26T15:27:35.927Z</time></trkpt><trkpt lat="44.14775912195197" lon="10.353282004820313"><ele>455.0</ele><time>2026-04-26T15:27:36.927Z</time></trkpt><trkpt lat="44.147663871072545" lon="10.353200660651927"><ele>455.0</ele><time>2026-04-26T15:27:37.927Z</time></trkpt><trkpt lat="44.14756675273033" lon="10.35310771187457"><ele>455.0</ele><time>2026-04-26T15:27:38.927Z</time></trkpt><trkpt lat="44.14744545878805" lon="10.353048903791194"><ele>455.0</ele><time>2026-04-26T15:27:39.927Z</time></trkpt><trkpt lat="44.14734324335745" lon="10.35296027106689"><ele>452.4</ele><time>2026-04-26T15:27:40.927Z</time></trkpt><trkpt lat="44.14725709505545" lon="10.35286874501476"><ele>449.8</ele><time>2026-04-26T15:27:41.927Z</time></trkpt><trkpt lat="44.147167678848405" lon="10.352792863313805"><ele>447.20000000000005</ele><time>2026-04-26T15:27:42.927Z</time></trkpt><trkpt lat="44.14707853373639" lon="10.35271537200915"><ele>444.6</ele><time>2026-04-26T15:27:43.927Z</time></trkpt><trkpt lat="44.14697216398547" lon="10.352633798594145"><ele>442.0</ele><time>2026-04-26T15:27:44.927Z</time></trkpt><trkpt lat="44.14684778814239" lon="10.352547193918413"><ele>442.0</ele><time>2026-04-26T15:27:45.927Z</time></trkpt><trkpt lat="44.14671531975901" lon="10.35245018478524"><ele>442.0</ele><time>2026-04-26T15:27:46.927Z</time></trkpt><trkpt lat="44.1465808910343" lon="10.352354792847251"><ele>442.0</ele><time>2026-04-26T15:27:47.927Z</time></trkpt><trkpt lat="44.146451462976245" lon="10.352269093974288"><ele>442.0</ele><time>2026-04-26T15:27:48.927Z</time></trkpt><trkpt lat="44.14631779146367" lon="10.352194898977963"><ele>440.25</ele><time>2026-04-26T15:27:49.927Z</time></trkpt><trkpt lat="44.146182437012165" lon="10.352116456063078"><ele>438.5</ele><time>2026-04-26T15:27:50.927Z</time></trkpt><trkpt lat="44.14605389965432" lon="10.352044777310066"><ele>436.75</ele><time>2026-04-26T15:27:51.927Z</time></trkpt><trkpt lat="44.14593531261459" lon="10.351951656075808"><ele>435.0</ele><time>2026-04-26T15:27:52.927Z</time></trkpt><trkpt lat="44.14583444147113" lon="10.351808898985837"><ele>435.0</ele><time>2026-04-26T15:27:53.927Z</time></trkpt><trkpt lat="44.145742187912845" lon="10.351641654942593"><ele>435.0</ele><time>2026-04-26T15:27:54.927Z</time></trkpt><trkpt lat="44.145667419152204" lon="10.351443291275285"><ele>435.0</ele><time>2026-04-26T15:27:55.927Z</time></trkpt><trkpt lat="44.14558313695912" lon="10.351272465241369"><ele>436.0</ele><time>2026-04-26T15:27:56.927Z</time></trkpt><trkpt lat="44.14549610319541" lon="10.351107862531883"><ele>437.0</ele><time>2026-04-26T15:27:57.927Z</time></trkpt><trkpt lat="44.14541419449716" lon="10.350950692675367"><ele>438.0</ele><time>2026-04-26T15:27:58.927Z</time></trkpt><trkpt lat="44.145343046281056" lon="10.350786032864397"><ele>439.0</ele><time>2026-04-26T15:27:59.927Z</time></trkpt><trkpt lat="44.145300156732816" lon="10.350609849941216"><ele>437.75</ele><time>2026-04-26T15:28:00.927Z</time></trkpt><trkpt lat="44.14529739861093" lon="10.350429088851861"><ele>436.5</ele><time>2026-04-26T15:28:01.927Z</time></trkpt><trkpt lat="44.145313733927935" lon="10.350246050458228"><ele>435.25</ele><time>2026-04-26T15:28:02.927Z</time></trkpt><trkpt lat="44.14532817112669" lon="10.350075652993526"><ele>434.0</ele><time>2026-04-26T15:28:03.927Z</time></trkpt><trkpt lat="44.145320987892056" lon="10.34990000080769"><ele>434.0</ele><time>2026-04-26T15:28:04.927Z</time></trkpt><trkpt lat="44.14527841644502" lon="10.349735737701153"><ele>434.0</ele><time>2026-04-26T15:28:05.927Z</time></trkpt><trkpt lat="44.14517819729833" lon="10.349585629488013"><ele>434.0</ele><time>2026-04-26T15:28:06.927Z</time></trkpt><trkpt lat="44.14506285117503" lon="10.349437335799829"><ele>434.0</ele><time>2026-04-26T15:28:07.927Z</time></trkpt><trkpt lat="44.14496959192412" lon="10.349300701340754"><ele>435.0</ele><time>2026-04-26T15:28:08.927Z</time></trkpt><trkpt lat="44.14489499873505" lon="10.349143552701156"><ele>436.0</ele><time>2026-04-26T15:28:09.927Z</time></trkpt><trkpt lat="44.144850948675334" lon="10.34896532775663"><ele>437.0</ele><time>2026-04-26T15:28:10.927Z</time></trkpt><trkpt lat="44.14484807327304" lon="10.348767486879327"><ele>438.0</ele><time>2026-04-26T15:28:11.927Z</time></trkpt><trkpt lat="44.144874455946436" lon="10.348561315835813"><ele>431.25</ele><time>2026-04-26T15:28:12.927Z</time></trkpt><trkpt lat="44.144905400898004" lon="10.348364700695877"><ele>424.5</ele><time>2026-04-26T15:28:13.927Z</time></trkpt><trkpt lat="44.14492082730873" lon="10.34816888067594"><ele>417.75</ele><time>2026-04-26T15:28:14.927Z</time></trkpt><trkpt lat="44.14493027615389" lon="10.34796960335142"><ele>411.0</ele><time>2026-04-26T15:28:15.927Z</time></trkpt><trkpt lat="44.14494301693424" lon="10.347777014796046"><ele>409.75</ele><time>2026-04-26T15:28:16.927Z</time></trkpt><trkpt lat="44.14494880293477" lon="10.347588606355844"><ele>408.5</ele><time>2026-04-26T15:28:17.927Z</time></trkpt><trkpt lat="44.144954119959245" lon="10.347423720978316"><ele>407.25</ele><time>2026-04-26T15:28:18.927Z</time></trkpt><trkpt lat="44.14495391793862" lon="10.347271575330884"><ele>406.0</ele><time>2026-04-26T15:28:19.927Z</time></trkpt><trkpt lat="44.14494276410198" lon="10.347143224948976"><ele>405.00000000000006</ele><time>2026-04-26T15:28:20.927Z</time></trkpt><trkpt lat="44.14493017597386" lon="10.347037295814232"><ele>404.0</ele><time>2026-04-26T15:28:21.927Z</time></trkpt><trkpt lat="44.14491492309063" lon="10.346938653841699"><ele>403.0</ele><time>2026-04-26T15:28:22.927Z</time></trkpt><trkpt lat="44.1449019935618" lon="10.346850729140613"><ele>402.0</ele><time>2026-04-26T15:28:23.927Z</time></trkpt><trkpt lat="44.14489025291109" lon="10.346726068420494"><ele>401.00000000000006</ele><time>2026-04-26T15:28:25.927Z</time></trkpt><trkpt lat="44.14483043531381" lon="10.34669206893064"><ele>400.0</ele><time>2026-04-26T15:28:35.927Z</time></trkpt><trkpt lat="44.14477594615986" lon="10.34659663972828"><ele>400.0</ele><time>2026-04-26T15:30:21.926Z</time></trkpt><trkpt lat="44.14474356967219" lon="10.346471105094963"><ele>400.0</ele><time>2026-04-26T15:30:23.926Z</time></trkpt><trkpt lat="44.1447329335937" lon="10.346355692037296"><ele>400.0</ele><time>2026-04-26T15:30:24.926Z</time></trkpt><trkpt lat="44.144709676877135" lon="10.346225948065722"><ele>400.0</ele><time>2026-04-26T15:30:25.926Z</time></trkpt><trkpt lat="44.14467342644794" lon="10.34609991632381"><ele>400.0</ele><time>2026-04-26T15:30:26.926Z</time></trkpt><trkpt lat="44.14463397716573" lon="10.34596456757901"><ele>399.33333333333337</ele><time>2026-04-26T15:30:27.926Z</time></trkpt><trkpt lat="44.144604641543786" lon="10.34584250941715"><ele>398.6666666666667</ele><time>2026-04-26T15:30:28.926Z</time></trkpt><trkpt lat="44.1445966669458" lon="10.345727301673545"><ele>398.0</ele><time>2026-04-26T15:30:29.926Z</time></trkpt><trkpt lat="44.14461035706417" lon="10.345630335896917"><ele>397.33333333333337</ele><time>2026-04-26T15:30:30.926Z</time></trkpt><trkpt lat="44.14464673910836" lon="10.345525193556682"><ele>396.6666666666667</ele><time>2026-04-26T15:30:31.926Z</time></trkpt><trkpt lat="44.144712643530234" lon="10.345431499564642"><ele>396.0</ele><time>2026-04-26T15:30:32.926Z</time></trkpt><trkpt lat="44.14481785947488" lon="10.345374058198589"><ele>399.5</ele><time>2026-04-26T15:30:33.926Z</time></trkpt><trkpt lat="44.14494527197604" lon="10.345355545744493"><ele>403.0</ele><time>2026-04-26T15:30:34.926Z</time></trkpt><trkpt lat="44.14508873936049" lon="10.345345458538622"><ele>406.5</ele><time>2026-04-26T15:30:35.926Z</time></trkpt><trkpt lat="44.14523348894534" lon="10.345341070499412"><ele>410.0</ele><time>2026-04-26T15:30:36.926Z</time></trkpt><trkpt lat="44.145391046871445" lon="10.34532635951614"><ele>410.0</ele><time>2026-04-26T15:30:37.926Z</time></trkpt><trkpt lat="44.14554956634763" lon="10.345308917916135"><ele>410.0</ele><time>2026-04-26T15:30:38.926Z</time></trkpt><trkpt lat="44.14569669413564" lon="10.345293556795347"><ele>410.0</ele><time>2026-04-26T15:30:39.926Z</time></trkpt><trkpt lat="44.14584654436673" lon="10.345311843646565"><ele>410.66666666666663</ele><time>2026-04-26T15:30:40.926Z</time></trkpt><trkpt lat="44.1460007881218" lon="10.345367821995305"><ele>411.33333333333337</ele><time>2026-04-26T15:30:41.926Z</time></trkpt><trkpt lat="44.14615720398376" lon="10.345428607351982"><ele>412.0</ele><time>2026-04-26T15:30:42.926Z</time></trkpt><trkpt lat="44.14631762537654" lon="10.345495073360599"><ele>410.5</ele><time>2026-04-26T15:30:43.926Z</time></trkpt><trkpt lat="44.146471194678305" lon="10.34554674194042"><ele>409.0</ele><time>2026-04-26T15:30:44.926Z</time></trkpt><trkpt lat="44.14661351545563" lon="10.345588857027368"><ele>407.5</ele><time>2026-04-26T15:30:45.926Z</time></trkpt><trkpt lat="44.14674859264528" lon="10.345617677312099"><ele>406.0</ele><time>2026-04-26T15:30:46.926Z</time></trkpt><trkpt lat="44.146888089358775" lon="10.34561771883659"><ele>406.0</ele><time>2026-04-26T15:30:47.926Z</time></trkpt><trkpt lat="44.147037239361424" lon="10.345576236349224"><ele>406.0</ele><time>2026-04-26T15:30:48.926Z</time></trkpt><trkpt lat="44.147192342692406" lon="10.345519257237285"><ele>406.0</ele><time>2026-04-26T15:30:49.926Z</time></trkpt><trkpt lat="44.14735468940488" lon="10.345422224771493"><ele>411.33333333333337</ele><time>2026-04-26T15:30:50.926Z</time></trkpt><trkpt lat="44.147515782111405" lon="10.345332690470775"><ele>416.66666666666663</ele><time>2026-04-26T15:30:51.926Z</time></trkpt><trkpt lat="44.14766899697839" lon="10.34526132774121"><ele>422.0</ele><time>2026-04-26T15:30:52.926Z</time></trkpt><trkpt lat="44.14781292718038" lon="10.345192215250249"><ele>422.0</ele><time>2026-04-26T15:30:53.926Z</time></trkpt><trkpt lat="44.147940763541015" lon="10.345139265067543"><ele>422.0</ele><time>2026-04-26T15:30:54.926Z</time></trkpt><trkpt lat="44.148070551415664" lon="10.345115448152802"><ele>422.0</ele><time>2026-04-26T15:30:55.926Z</time></trkpt><trkpt lat="44.14819984569409" lon="10.345133740949874"><ele>422.0</ele><time>2026-04-26T15:30:56.926Z</time></trkpt><trkpt lat="44.14834059370877" lon="10.34521917376206"><ele>422.25</ele><time>2026-04-26T15:30:57.926Z</time></trkpt><trkpt lat="44.148463443029456" lon="10.345338925078691"><ele>422.5</ele><time>2026-04-26T15:30:58.926Z</time></trkpt><trkpt lat="44.148567418370526" lon="10.345430536866013"><ele>422.75</ele><time>2026-04-26T15:30:59.926Z</time></trkpt><trkpt lat="44.14867555346265" lon="10.345483344178705"><ele>423.0</ele><time>2026-04-26T15:31:00.926Z</time></trkpt><trkpt lat="44.14878147074869" lon="10.34548595495219"><ele>423.0</ele><time>2026-04-26T15:31:01.926Z</time></trkpt><trkpt lat="44.1488800381094" lon="10.345414259041455"><ele>423.0</ele><time>2026-04-26T15:31:02.926Z</time></trkpt><trkpt lat="44.14899937010222" lon="10.345287686949769"><ele>423.0</ele><time>2026-04-26T15:31:03.926Z</time></trkpt><trkpt lat="44.149134519010595" lon="10.345157459215395"><ele>423.0</ele><time>2026-04-26T15:31:04.926Z</time></trkpt><trkpt lat="44.14926183195553" lon="10.345056394642933"><ele>424.5</ele><time>2026-04-26T15:31:05.926Z</time></trkpt><trkpt lat="44.149363555180855" lon="10.344985151950102"><ele>426.0</ele><time>2026-04-26T15:31:06.926Z</time></trkpt><trkpt lat="44.149476932033345" lon="10.344962579947689"><ele>427.5</ele><time>2026-04-26T15:31:07.926Z</time></trkpt><trkpt lat="44.14960821748836" lon="10.344997606528624"><ele>429.0</ele><time>2026-04-26T15:31:08.926Z</time></trkpt><trkpt lat="44.149741775843154" lon="10.345099544524079"><ele>429.0</ele><time>2026-04-26T15:31:09.926Z</time></trkpt><trkpt lat="44.14987338689065" lon="10.345163148129641"><ele>429.0</ele><time>2026-04-26T15:31:10.926Z</time></trkpt><trkpt lat="44.15000742870582" lon="10.345175772306678"><ele>429.0</ele><time>2026-04-26T15:31:11.926Z</time></trkpt><trkpt lat="44.150154035316014" lon="10.345165871006119"><ele>429.0</ele><time>2026-04-26T15:31:12.926Z</time></trkpt><trkpt lat="44.15028984403069" lon="10.345197593711193"><ele>430.0</ele><time>2026-04-26T15:31:13.926Z</time></trkpt><trkpt lat="44.15041454868128" lon="10.34529737540879"><ele>431.0</ele><time>2026-04-26T15:31:14.926Z</time></trkpt><trkpt lat="44.15053372874844" lon="10.345399591216042"><ele>432.0</ele><time>2026-04-26T15:31:15.926Z</time></trkpt><trkpt lat="44.150640596571385" lon="10.34547336848931"><ele>433.0</ele><time>2026-04-26T15:31:16.926Z</time></trkpt><trkpt lat="44.15073122768672" lon="10.345520205272742"><ele>434.79999999999995</ele><time>2026-04-26T15:31:17.926Z</time></trkpt><trkpt lat="44.15081822041391" lon="10.345530991501663"><ele>436.59999999999997</ele><time>2026-04-26T15:31:18.926Z</time></trkpt><trkpt lat="44.15090296146172" lon="10.345498948622057"><ele>438.40000000000003</ele><time>2026-04-26T15:31:19.926Z</time></trkpt><trkpt lat="44.15096278029231" lon="10.345392196407351"><ele>440.20000000000005</ele><time>2026-04-26T15:31:20.926Z</time></trkpt><trkpt lat="44.15102066096064" lon="10.345253169336242"><ele>442.0</ele><time>2026-04-26T15:31:21.926Z</time></trkpt><trkpt lat="44.151078672424866" lon="10.345073473344785"><ele>442.0</ele><time>2026-04-26T15:31:22.926Z</time></trkpt><trkpt lat="44.15114217798814" lon="10.344846720363726"><ele>442.0</ele><time>2026-04-26T15:31:23.926Z</time></trkpt><trkpt lat="44.151212159527525" lon="10.344628666484022"><ele>442.0</ele><time>2026-04-26T15:31:24.926Z</time></trkpt><trkpt lat="44.15129179720402" lon="10.344394350616323"><ele>446.6666666666667</ele><time>2026-04-26T15:31:25.926Z</time></trkpt><trkpt lat="44.15137822681746" lon="10.344136979814664"><ele>451.33333333333337</ele><time>2026-04-26T15:31:26.926Z</time></trkpt><trkpt lat="44.15146408110277" lon="10.343882699104265"><ele>456.0</ele><time>2026-04-26T15:31:27.926Z</time></trkpt><trkpt lat="44.1515393860235" lon="10.343673994499262"><ele>456.0</ele><time>2026-04-26T15:31:28.926Z</time></trkpt><trkpt lat="44.151606814959116" lon="10.343494984773367"><ele>456.0</ele><time>2026-04-26T15:31:29.926Z</time></trkpt><trkpt lat="44.15168850967577" lon="10.343344203094246"><ele>456.0</ele><time>2026-04-26T15:31:30.926Z</time></trkpt><trkpt lat="44.15179044942731" lon="10.343209553079726"><ele>456.0</ele><time>2026-04-26T15:31:31.925Z</time></trkpt><trkpt lat="44.151929386594354" lon="10.343116471076213"><ele>456.0</ele><time>2026-04-26T15:31:32.925Z</time></trkpt><trkpt lat="44.152099444387105" lon="10.343058339238597"><ele>456.0</ele><time>2026-04-26T15:31:33.925Z</time></trkpt><trkpt lat="44.15228000372232" lon="10.343023159922463"><ele>456.0</ele><time>2026-04-26T15:31:34.925Z</time></trkpt><trkpt lat="44.15245383518752" lon="10.34298362140919"><ele>458.33333333333337</ele><time>2026-04-26T15:31:35.925Z</time></trkpt><trkpt lat="44.15263518356544" lon="10.34292476158182"><ele>460.6666666666667</ele><time>2026-04-26T15:31:36.925Z</time></trkpt><trkpt lat="44.15282124751684" lon="10.342852802005476"><ele>463.0</ele><time>2026-04-26T15:31:37.925Z</time></trkpt><trkpt lat="44.153008924536586" lon="10.34278781324525"><ele>463.0</ele><time>2026-04-26T15:31:38.925Z</time></trkpt><trkpt lat="44.153188929464804" lon="10.342731373111379"><ele>463.0</ele><time>2026-04-26T15:31:39.925Z</time></trkpt><trkpt lat="44.15334238790083" lon="10.342670512653847"><ele>463.0</ele><time>2026-04-26T15:31:40.925Z</time></trkpt><trkpt lat="44.1534807463925" lon="10.342614470654606"><ele>462.25</ele><time>2026-04-26T15:31:41.925Z</time></trkpt><trkpt lat="44.15361429842708" lon="10.342560604200635"><ele>461.5</ele><time>2026-04-26T15:31:42.925Z</time></trkpt><trkpt lat="44.153730869763116" lon="10.342509822871516"><ele>460.75</ele><time>2026-04-26T15:31:43.925Z</time></trkpt><trkpt lat="44.153832594659285" lon="10.342445581940124"><ele>460.0</ele><time>2026-04-26T15:31:44.925Z</time></trkpt><trkpt lat="44.15391459505424" lon="10.342346689076694"><ele>463.0</ele><time>2026-04-26T15:31:45.925Z</time></trkpt><trkpt lat="44.15397244912965" lon="10.342202973132025"><ele>466.0</ele><time>2026-04-26T15:31:46.925Z</time></trkpt><trkpt lat="44.15400068138466" lon="10.342039833681019"><ele>469.0</ele><time>2026-04-26T15:31:47.925Z</time></trkpt><trkpt lat="44.15400311826905" lon="10.341855184568871"><ele>472.0</ele><time>2026-04-26T15:31:48.925Z</time></trkpt><trkpt lat="44.15398805826571" lon="10.341647733487836"><ele>472.0</ele><time>2026-04-26T15:31:49.925Z</time></trkpt><trkpt lat="44.15397338662147" lon="10.341427828169602"><ele>472.0</ele><time>2026-04-26T15:31:50.925Z</time></trkpt><trkpt lat="44.15397824477788" lon="10.341204343534557"><ele>472.0</ele><time>2026-04-26T15:31:51.925Z</time></trkpt><trkpt lat="44.1540057231794" lon="10.340971961519298"><ele>471.33333333333337</ele><time>2026-04-26T15:31:52.925Z</time></trkpt><trkpt lat="44.154062997587516" lon="10.3407534117064"><ele>470.66666666666663</ele><time>2026-04-26T15:31:53.925Z</time></trkpt><trkpt lat="44.154144206026025" lon="10.340545066993501"><ele>470.0</ele><time>2026-04-26T15:31:54.925Z</time></trkpt><trkpt lat="44.15423356891673" lon="10.340348388080695"><ele>474.66666666666663</ele><time>2026-04-26T15:31:55.925Z</time></trkpt><trkpt lat="44.15431824222106" lon="10.340145002560373"><ele>479.33333333333337</ele><time>2026-04-26T15:31:56.925Z</time></trkpt><trkpt lat="44.154403520745895" lon="10.339935766990235"><ele>484.0</ele><time>2026-04-26T15:31:57.925Z</time></trkpt><trkpt lat="44.154499978320196" lon="10.339736916299076"><ele>488.6666666666667</ele><time>2026-04-26T15:31:58.925Z</time></trkpt><trkpt lat="44.154608078998685" lon="10.33954183941623"><ele>493.33333333333337</ele><time>2026-04-26T15:31:59.925Z</time></trkpt><trkpt lat="44.15472188218283" lon="10.33936287705966"><ele>498.0</ele><time>2026-04-26T15:32:00.925Z</time></trkpt><trkpt lat="44.15483481002716" lon="10.339231300313726"><ele>496.0</ele><time>2026-04-26T15:32:01.925Z</time></trkpt><trkpt lat="44.154929697592046" lon="10.339110599639493"><ele>493.99999999999994</ele><time>2026-04-26T15:32:02.925Z</time></trkpt><trkpt lat="44.15500706194473" lon="10.338992553135542"><ele>491.99999999999994</ele><time>2026-04-26T15:32:03.925Z</time></trkpt><trkpt lat="44.15505140079481" lon="10.33887331436624"><ele>490.0</ele><time>2026-04-26T15:32:04.925Z</time></trkpt><trkpt lat="44.15506690225504" lon="10.338730259351141"><ele>488.0</ele><time>2026-04-26T15:32:05.925Z</time></trkpt><trkpt lat="44.15505107222225" lon="10.338550567547788"><ele>488.0</ele><time>2026-04-26T15:32:06.925Z</time></trkpt><trkpt lat="44.155030210843954" lon="10.338359716623756"><ele>488.0</ele><time>2026-04-26T15:32:07.925Z</time></trkpt><trkpt lat="44.15502231671052" lon="10.338158711634458"><ele>488.0</ele><time>2026-04-26T15:32:08.925Z</time></trkpt><trkpt lat="44.1550455598796" lon="10.337963204616363"><ele>488.0</ele><time>2026-04-26T15:32:09.925Z</time></trkpt><trkpt lat="44.15509243353581" lon="10.337762477366308"><ele>487.66666666666663</ele><time>2026-04-26T15:32:10.925Z</time></trkpt><trkpt lat="44.15516687867335" lon="10.337569163286487"><ele>487.33333333333337</ele><time>2026-04-26T15:32:11.925Z</time></trkpt><trkpt lat="44.1552393996687" lon="10.33737457694807"><ele>487.0</ele><time>2026-04-26T15:32:12.925Z</time></trkpt><trkpt lat="44.15530319903313" lon="10.337186041622871"><ele>486.75</ele><time>2026-04-26T15:32:13.925Z</time></trkpt><trkpt lat="44.15535792091994" lon="10.337012522451769"><ele>486.5</ele><time>2026-04-26T15:32:14.925Z</time></trkpt><trkpt lat="44.15540530037166" lon="10.336836266777114"><ele>486.25</ele><time>2026-04-26T15:32:15.925Z</time></trkpt><trkpt lat="44.155450914131464" lon="10.336691140461909"><ele>486.0</ele><time>2026-04-26T15:32:16.925Z</time></trkpt><trkpt lat="44.15549468758207" lon="10.336567484372704"><ele>486.0</ele><time>2026-04-26T15:32:17.925Z</time></trkpt><trkpt lat="44.15554203622533" lon="10.33646709296451"><ele>486.0</ele><time>2026-04-26T15:32:18.925Z</time></trkpt><trkpt lat="44.15561047016461" lon="10.336406220413743"><ele>486.0</ele><time>2026-04-26T15:32:19.925Z</time></trkpt><trkpt lat="44.15569095687738" lon="10.336374155919616"><ele>486.0</ele><time>2026-04-26T15:32:20.925Z</time></trkpt><trkpt lat="44.155789435475334" lon="10.336380781382498"><ele>486.0</ele><time>2026-04-26T15:32:21.925Z</time></trkpt><trkpt lat="44.155894017334035" lon="10.33642637129375"><ele>482.5</ele><time>2026-04-26T15:32:22.925Z</time></trkpt><trkpt lat="44.15600579635903" lon="10.33650153279054"><ele>479.0</ele><time>2026-04-26T15:32:23.925Z</time></trkpt><trkpt lat="44.15611310082687" lon="10.336567245783135"><ele>475.5</ele><time>2026-04-26T15:32:24.925Z</time></trkpt><trkpt lat="44.15623598482583" lon="10.336594120968373"><ele>472.0</ele><time>2026-04-26T15:32:25.925Z</time></trkpt><trkpt lat="44.15636913903088" lon="10.336575315524156"><ele>472.0</ele><time>2026-04-26T15:32:26.925Z</time></trkpt><trkpt lat="44.156519334632264" lon="10.336541335636433"><ele>472.0</ele><time>2026-04-26T15:32:27.925Z</time></trkpt><trkpt lat="44.15666047187532" lon="10.336519068798241"><ele>472.0</ele><time>2026-04-26T15:32:28.925Z</time></trkpt><trkpt lat="44.15679670701327" lon="10.336539110829223"><ele>472.0</ele><time>2026-04-26T15:32:29.925Z</time></trkpt><trkpt lat="44.15692107888952" lon="10.3366102296919"><ele>469.5</ele><time>2026-04-26T15:32:30.925Z</time></trkpt><trkpt lat="44.15704209328706" lon="10.336722105698259"><ele>467.0</ele><time>2026-04-26T15:32:31.925Z</time></trkpt><trkpt lat="44.15715365759584" lon="10.33685646443083"><ele>464.5</ele><time>2026-04-26T15:32:32.925Z</time></trkpt><trkpt lat="44.15726426271514" lon="10.33699206887428"><ele>462.0</ele><time>2026-04-26T15:32:33.925Z</time></trkpt><trkpt lat="44.157385080258095" lon="10.337115752394453"><ele>458.5</ele><time>2026-04-26T15:32:34.925Z</time></trkpt><trkpt lat="44.1575039153919" lon="10.337222499380763"><ele>455.0</ele><time>2026-04-26T15:32:35.925Z</time></trkpt><trkpt lat="44.15762747986251" lon="10.337309846139627"><ele>451.5</ele><time>2026-04-26T15:32:36.925Z</time></trkpt><trkpt lat="44.15775614445193" lon="10.337376222526522"><ele>448.0</ele><time>2026-04-26T15:32:37.925Z</time></trkpt><trkpt lat="44.15789454577449" lon="10.337404760045251"><ele>448.0</ele><time>2026-04-26T15:32:38.925Z</time></trkpt><trkpt lat="44.15804751671722" lon="10.33740888045851"><ele>448.0</ele><time>2026-04-26T15:32:39.925Z</time></trkpt><trkpt lat="44.15821130350895" lon="10.33738769132691"><ele>448.0</ele><time>2026-04-26T15:32:40.925Z</time></trkpt><trkpt lat="44.158363793534484" lon="10.337330580407812"><ele>447.6666666666667</ele><time>2026-04-26T15:32:41.925Z</time></trkpt><trkpt lat="44.15851151706" lon="10.337237915916143"><ele>447.33333333333337</ele><time>2026-04-26T15:32:42.925Z</time></trkpt><trkpt lat="44.15865064487177" lon="10.337118316592038"><ele>447.0</ele><time>2026-04-26T15:32:43.925Z</time></trkpt><trkpt lat="44.158791757742705" lon="10.336986883382098"><ele>452.33333333333337</ele><time>2026-04-26T15:32:44.925Z</time></trkpt><trkpt lat="44.15892748932815" lon="10.336857811751987"><ele>457.6666666666667</ele><time>2026-04-26T15:32:45.925Z</time></trkpt><trkpt lat="44.15906376395776" lon="10.336726079212246"><ele>463.0</ele><time>2026-04-26T15:32:46.925Z</time></trkpt><trkpt lat="44.1591877375413" lon="10.336609496465789"><ele>463.0</ele><time>2026-04-26T15:32:47.925Z</time></trkpt><trkpt lat="44.1593063228616" lon="10.336488765614776"><ele>463.0</ele><time>2026-04-26T15:32:48.925Z</time></trkpt><trkpt lat="44.15942284244833" lon="10.336363417021778"><ele>463.0</ele><time>2026-04-26T15:32:49.925Z</time></trkpt><trkpt lat="44.15952445693293" lon="10.336225863561753"><ele>463.0</ele><time>2026-04-26T15:32:50.925Z</time></trkpt><trkpt lat="44.159612435161854" lon="10.33609356380661"><ele>464.83333333333337</ele><time>2026-04-26T15:32:51.925Z</time></trkpt><trkpt lat="44.159686264405366" lon="10.335969772769912"><ele>466.6666666666667</ele><time>2026-04-26T15:32:52.925Z</time></trkpt><trkpt lat="44.15975185323488" lon="10.335853755745926"><ele>468.5</ele><time>2026-04-26T15:32:53.925Z</time></trkpt><trkpt lat="44.15979211233188" lon="10.33575550178923"><ele>470.33333333333337</ele><time>2026-04-26T15:32:54.925Z</time></trkpt><trkpt lat="44.15979875129378" lon="10.335661149792653"><ele>472.1666666666667</ele><time>2026-04-26T15:32:55.925Z</time></trkpt><trkpt lat="44.1597894794237" lon="10.335566773993042"><ele>474.0</ele><time>2026-04-26T15:32:56.925Z</time></trkpt><trkpt lat="44.1597423096823" lon="10.335451039914297"><ele>474.5</ele><time>2026-04-26T15:32:57.925Z</time></trkpt><trkpt lat="44.15965429574375" lon="10.335339824395922"><ele>475.0</ele><time>2026-04-26T15:32:58.925Z</time></trkpt><trkpt lat="44.15955471750386" lon="10.335208744763257"><ele>475.5</ele><time>2026-04-26T15:32:59.925Z</time></trkpt><trkpt lat="44.159469892951584" lon="10.335084438706502"><ele>476.0</ele><time>2026-04-26T15:33:00.925Z</time></trkpt><trkpt lat="44.15940239063402" lon="10.334961569343312"><ele>476.0</ele><time>2026-04-26T15:33:01.925Z</time></trkpt><trkpt lat="44.159357356965245" lon="10.33481854851294"><ele>476.0</ele><time>2026-04-26T15:33:02.925Z</time></trkpt><trkpt lat="44.15934001389625" lon="10.334657410113277"><ele>476.0</ele><time>2026-04-26T15:33:03.925Z</time></trkpt><trkpt lat="44.15935159252929" lon="10.334480944140797"><ele>476.0</ele><time>2026-04-26T15:33:04.925Z</time></trkpt><trkpt lat="44.15938021016551" lon="10.334291447242517"><ele>476.20000000000005</ele><time>2026-04-26T15:33:05.925Z</time></trkpt><trkpt lat="44.15940809886057" lon="10.334118010011878"><ele>476.40000000000003</ele><time>2026-04-26T15:33:06.925Z</time></trkpt><trkpt lat="44.15941340216515" lon="10.333943454252212"><ele>476.6</ele><time>2026-04-26T15:33:07.925Z</time></trkpt><trkpt lat="44.1594178665294" lon="10.333793384170521"><ele>476.8</ele><time>2026-04-26T15:33:08.925Z</time></trkpt><trkpt lat="44.15941761263779" lon="10.333675241840798"><ele>477.0</ele><time>2026-04-26T15:33:09.925Z</time></trkpt><trkpt lat="44.159402906927184" lon="10.333578396189546"><ele>477.6</ele><time>2026-04-26T15:33:10.925Z</time></trkpt><trkpt lat="44.15936470245602" lon="10.333484553139094"><ele>478.20000000000005</ele><time>2026-04-26T15:33:11.925Z</time></trkpt><trkpt lat="44.159328103571546" lon="10.333404669095758"><ele>478.8</ele><time>2026-04-26T15:33:12.925Z</time></trkpt><trkpt lat="44.15930133854235" lon="10.333268170515348"><ele>479.4</ele><time>2026-04-26T15:33:14.925Z</time></trkpt><trkpt lat="44.15935223052192" lon="10.333093331934446"><ele>480.0</ele><time>2026-04-26T15:33:16.925Z</time></trkpt><trkpt lat="44.15941564466421" lon="10.333000783341896"><ele>481.0</ele><time>2026-04-26T15:33:17.925Z</time></trkpt><trkpt lat="44.15950511202044" lon="10.332913994519734"><ele>482.0</ele><time>2026-04-26T15:33:18.925Z</time></trkpt><trkpt lat="44.1596027193081" lon="10.33282646686612"><ele>483.0</ele><time>2026-04-26T15:33:19.925Z</time></trkpt><trkpt lat="44.15971537932041" lon="10.332763889706104"><ele>484.0</ele><time>2026-04-26T15:33:20.925Z</time></trkpt><trkpt lat="44.15985311410792" lon="10.332730922474278"><ele>483.0</ele><time>2026-04-26T15:33:21.925Z</time></trkpt><trkpt lat="44.159998885777846" lon="10.33271623215332"><ele>482.0</ele><time>2026-04-26T15:33:22.925Z</time></trkpt><trkpt lat="44.16014833756918" lon="10.33268919631538"><ele>481.0</ele><time>2026-04-26T15:33:23.925Z</time></trkpt><trkpt lat="44.16029262411147" lon="10.332655405945227"><ele>480.0</ele><time>2026-04-26T15:33:24.925Z</time></trkpt><trkpt lat="44.16042992300149" lon="10.332616667660306"><ele>480.0</ele><time>2026-04-26T15:33:25.925Z</time></trkpt><trkpt lat="44.16056287845771" lon="10.332594080671385"><ele>480.0</ele><time>2026-04-26T15:33:26.925Z</time></trkpt><trkpt lat="44.16068752741544" lon="10.332558301697079"><ele>480.0</ele><time>2026-04-26T15:33:27.925Z</time></trkpt><trkpt lat="44.160809695351674" lon="10.332512002683707"><ele>480.0</ele><time>2026-04-26T15:33:28.925Z</time></trkpt><trkpt lat="44.160919908333504" lon="10.332437325473453"><ele>479.5</ele><time>2026-04-26T15:33:29.925Z</time></trkpt><trkpt lat="44.16102735656875" lon="10.332339431659642"><ele>479.0</ele><time>2026-04-26T15:33:30.925Z</time></trkpt><trkpt lat="44.16113395967233" lon="10.33221050071244"><ele>478.5</ele><time>2026-04-26T15:33:31.925Z</time></trkpt><trkpt lat="44.161246706440075" lon="10.332086369801921"><ele>478.0</ele><time>2026-04-26T15:33:32.925Z</time></trkpt><trkpt lat="44.16135260793699" lon="10.331958327045758"><ele>477.75</ele><time>2026-04-26T15:33:33.925Z</time></trkpt><trkpt lat="44.16144599338756" lon="10.331807125902333"><ele>477.5</ele><time>2026-04-26T15:33:34.925Z</time></trkpt><trkpt lat="44.161555780443116" lon="10.331677096307942"><ele>477.25</ele><time>2026-04-26T15:33:35.925Z</time></trkpt><trkpt lat="44.16167548226914" lon="10.331549171308481"><ele>477.0</ele><time>2026-04-26T15:33:36.923Z</time></trkpt><trkpt lat="44.161796984315494" lon="10.331430538269833"><ele>479.0</ele><time>2026-04-26T15:33:37.924Z</time></trkpt><trkpt lat="44.16190986765994" lon="10.331303308670886"><ele>481.0</ele><time>2026-04-26T15:33:38.924Z</time></trkpt><trkpt lat="44.16201499785552" lon="10.331177304447063"><ele>483.0</ele><time>2026-04-26T15:33:39.923Z</time></trkpt><trkpt lat="44.16210418409261" lon="10.33103886470152"><ele>485.0</ele><time>2026-04-26T15:33:40.923Z</time></trkpt><trkpt lat="44.162189299621424" lon="10.330887518342557"><ele>485.0</ele><time>2026-04-26T15:33:41.923Z</time></trkpt><trkpt lat="44.162271072637836" lon="10.330715000529189"><ele>485.0</ele><time>2026-04-26T15:33:42.923Z</time></trkpt><trkpt lat="44.16234826076649" lon="10.33053622143323"><ele>485.0</ele><time>2026-04-26T15:33:43.923Z</time></trkpt><trkpt lat="44.16243074222268" lon="10.330360587098454"><ele>485.0</ele><time>2026-04-26T15:33:44.923Z</time></trkpt><trkpt lat="44.16250836968936" lon="10.3301917906979"><ele>484.25</ele><time>2026-04-26T15:33:45.924Z</time></trkpt><trkpt lat="44.16257120180017" lon="10.330028329077633"><ele>483.5</ele><time>2026-04-26T15:33:46.923Z</time></trkpt><trkpt lat="44.16264621195815" lon="10.329905200759"><ele>482.75</ele><time>2026-04-26T15:33:47.923Z</time></trkpt><trkpt lat="44.162749521874645" lon="10.329818235452963"><ele>482.0</ele><time>2026-04-26T15:33:48.923Z</time></trkpt><trkpt lat="44.16286494127954" lon="10.329756702414254"><ele>482.8</ele><time>2026-04-26T15:33:49.923Z</time></trkpt><trkpt lat="44.16297222234888" lon="10.329711967771374"><ele>483.6</ele><time>2026-04-26T15:33:50.923Z</time></trkpt><trkpt lat="44.16305711363122" lon="10.329667938906278"><ele>484.40000000000003</ele><time>2026-04-26T15:33:51.923Z</time></trkpt><trkpt lat="44.163139437634" lon="10.32959537623281"><ele>485.20000000000005</ele><time>2026-04-26T15:33:52.923Z</time></trkpt><trkpt lat="44.16323332156667" lon="10.329504197817474"><ele>486.0</ele><time>2026-04-26T15:33:53.923Z</time></trkpt><trkpt lat="44.16332300146035" lon="10.32936703263768"><ele>486.0</ele><time>2026-04-26T15:33:54.923Z</time></trkpt><trkpt lat="44.16340691013695" lon="10.329199416258366"><ele>486.0</ele><time>2026-04-26T15:33:55.923Z</time></trkpt><trkpt lat="44.16348969018772" lon="10.32901810805981"><ele>486.0</ele><time>2026-04-26T15:33:56.923Z</time></trkpt><trkpt lat="44.16356963430704" lon="10.328854273013361"><ele>486.0</ele><time>2026-04-26T15:33:57.923Z</time></trkpt><trkpt lat="44.16364809649887" lon="10.328696249409388"><ele>488.5</ele><time>2026-04-26T15:33:58.923Z</time></trkpt><trkpt lat="44.16372606249683" lon="10.328564362363556"><ele>491.0</ele><time>2026-04-26T15:33:59.923Z</time></trkpt><trkpt lat="44.16380191993885" lon="10.328438473945607"><ele>493.5</ele><time>2026-04-26T15:34:00.923Z</time></trkpt><trkpt lat="44.1638885427352" lon="10.328320402266517"><ele>496.0</ele><time>2026-04-26T15:34:01.923Z</time></trkpt><trkpt lat="44.164000376834075" lon="10.328223976976336"><ele>497.6666666666667</ele><time>2026-04-26T15:34:02.923Z</time></trkpt><trkpt lat="44.16413947488215" lon="10.328153831155747"><ele>499.33333333333337</ele><time>2026-04-26T15:34:03.923Z</time></trkpt><trkpt lat="44.16428563861779" lon="10.328072876869635"><ele>501.0</ele><time>2026-04-26T15:34:04.923Z</time></trkpt><trkpt lat="44.16443235098961" lon="10.327996686572176"><ele>501.0</ele><time>2026-04-26T15:34:05.923Z</time></trkpt><trkpt lat="44.16455483859179" lon="10.327929078665083"><ele>501.0</ele><time>2026-04-26T15:34:06.923Z</time></trkpt><trkpt lat="44.16466157071508" lon="10.327863935901583"><ele>501.0</ele><time>2026-04-26T15:34:07.923Z</time></trkpt><trkpt lat="44.164778727654564" lon="10.327800712029937"><ele>501.0</ele><time>2026-04-26T15:34:08.923Z</time></trkpt><trkpt lat="44.164906177361495" lon="10.327725265371878"><ele>496.5</ele><time>2026-04-26T15:34:09.923Z</time></trkpt><trkpt lat="44.1650343335202" lon="10.32764309605168"><ele>492.0</ele><time>2026-04-26T15:34:10.923Z</time></trkpt><trkpt lat="44.165169477192656" lon="10.327555561261917"><ele>487.5</ele><time>2026-04-26T15:34:11.923Z</time></trkpt><trkpt lat="44.16530317272551" lon="10.327470347695158"><ele>483.0</ele><time>2026-04-26T15:34:12.923Z</time></trkpt><trkpt lat="44.16544223219775" lon="10.327388645284515"><ele>483.0</ele><time>2026-04-26T15:34:13.923Z</time></trkpt><trkpt lat="44.16556819451249" lon="10.327311370751255"><ele>483.0</ele><time>2026-04-26T15:34:14.923Z</time></trkpt><trkpt lat="44.165696183507656" lon="10.32723706283932"><ele>483.0</ele><time>2026-04-26T15:34:15.923Z</time></trkpt><trkpt lat="44.16581299977834" lon="10.32717316127556"><ele>483.0</ele><time>2026-04-26T15:34:16.923Z</time></trkpt><trkpt lat="44.165924441637706" lon="10.327142414747733"><ele>483.0</ele><time>2026-04-26T15:34:17.923Z</time></trkpt><trkpt lat="44.16603391684881" lon="10.327156744422735"><ele>483.0</ele><time>2026-04-26T15:34:18.923Z</time></trkpt><trkpt lat="44.16614179236851" lon="10.327221002964597"><ele>483.0</ele><time>2026-04-26T15:34:19.923Z</time></trkpt><trkpt lat="44.16624160853016" lon="10.327320662663634"><ele>483.0</ele><time>2026-04-26T15:34:20.923Z</time></trkpt><trkpt lat="44.16632209032832" lon="10.327463536140812"><ele>483.0</ele><time>2026-04-26T15:34:21.923Z</time></trkpt><trkpt lat="44.16638782212783" lon="10.32763846998948"><ele>483.0</ele><time>2026-04-26T15:34:22.923Z</time></trkpt><trkpt lat="44.16644841177423" lon="10.327829012993046"><ele>483.0</ele><time>2026-04-26T15:34:23.923Z</time></trkpt><trkpt lat="44.166509938650776" lon="10.328019448566113"><ele>483.0</ele><time>2026-04-26T15:34:24.923Z</time></trkpt><trkpt lat="44.16657599020647" lon="10.328206937567298"><ele>485.75</ele><time>2026-04-26T15:34:25.923Z</time></trkpt><trkpt lat="44.166634991473224" lon="10.328380127938331"><ele>488.5</ele><time>2026-04-26T15:34:26.923Z</time></trkpt><trkpt lat="44.16670615690964" lon="10.328539338981283"><ele>491.25</ele><time>2026-04-26T15:34:27.923Z</time></trkpt><trkpt lat="44.16679296519342" lon="10.328691652872742"><ele>494.0</ele><time>2026-04-26T15:34:28.923Z</time></trkpt><trkpt lat="44.16690306071166" lon="10.32883412803878"><ele>494.5</ele><time>2026-04-26T15:34:29.923Z</time></trkpt><trkpt lat="44.16701960407439" lon="10.32896146105952"><ele>495.0</ele><time>2026-04-26T15:34:30.923Z</time></trkpt><trkpt lat="44.16714089794594" lon="10.329091137683037"><ele>495.5</ele><time>2026-04-26T15:34:31.923Z</time></trkpt><trkpt lat="44.16725629985235" lon="10.329210656361072"><ele>496.0</ele><time>2026-04-26T15:34:32.923Z</time></trkpt><trkpt lat="44.167365992242516" lon="10.329319417511567"><ele>496.0</ele><time>2026-04-26T15:34:33.923Z</time></trkpt><trkpt lat="44.16747183760449" lon="10.329390981012699"><ele>496.0</ele><time>2026-04-26T15:34:34.923Z</time></trkpt><trkpt lat="44.16758893483906" lon="10.329445094992023"><ele>496.0</ele><time>2026-04-26T15:34:35.923Z</time></trkpt><trkpt lat="44.167729560447974" lon="10.329444589262874"><ele>496.0</ele><time>2026-04-26T15:34:36.923Z</time></trkpt><trkpt lat="44.16786695819508" lon="10.329403392493871"><ele>496.0</ele><time>2026-04-26T15:34:37.923Z</time></trkpt><trkpt lat="44.1679759720928" lon="10.329382887788334"><ele>496.0</ele><time>2026-04-26T15:34:38.923Z</time></trkpt><trkpt lat="44.16807276526892" lon="10.329321640918229"><ele>496.0</ele><time>2026-04-26T15:34:39.923Z</time></trkpt><trkpt lat="44.16817414694493" lon="10.32920700612169"><ele>496.0</ele><time>2026-04-26T15:34:40.923Z</time></trkpt><trkpt lat="44.16827868128555" lon="10.32905915971809"><ele>493.25</ele><time>2026-04-26T15:34:41.923Z</time></trkpt><trkpt lat="44.16839011098941" lon="10.32888679220894"><ele>490.5</ele><time>2026-04-26T15:34:42.923Z</time></trkpt><trkpt lat="44.16849498707944" lon="10.328740732730497"><ele>487.75</ele><time>2026-04-26T15:34:43.923Z</time></trkpt><trkpt lat="44.16857349534417" lon="10.328626610278226"><ele>485.0</ele><time>2026-04-26T15:34:44.923Z</time></trkpt><trkpt lat="44.168631202496215" lon="10.328526822163774"><ele>485.0</ele><time>2026-04-26T15:34:45.923Z</time></trkpt><trkpt lat="44.168660600646994" lon="10.32842275418838"><ele>485.0</ele><time>2026-04-26T15:34:46.923Z</time></trkpt><trkpt lat="44.16866612914058" lon="10.328302486137394"><ele>485.0</ele><time>2026-04-26T15:34:47.923Z</time></trkpt><trkpt lat="44.168617082069346" lon="10.328126170616287"><ele>485.0</ele><time>2026-04-26T15:34:48.923Z</time></trkpt><trkpt lat="44.168547497455165" lon="10.32792303442996"><ele>483.5</ele><time>2026-04-26T15:34:49.923Z</time></trkpt><trkpt lat="44.16844936755405" lon="10.32773237264245"><ele>482.0</ele><time>2026-04-26T15:34:50.923Z</time></trkpt><trkpt lat="44.16836731154809" lon="10.32755499066858"><ele>480.5</ele><time>2026-04-26T15:34:51.923Z</time></trkpt><trkpt lat="44.16830961283251" lon="10.327393480562868"><ele>479.0</ele><time>2026-04-26T15:34:52.923Z</time></trkpt><trkpt lat="44.168284321671365" lon="10.327230169362673"><ele>478.0</ele><time>2026-04-26T15:34:53.924Z</time></trkpt><trkpt lat="44.168286737923644" lon="10.32705072381774"><ele>477.0</ele><time>2026-04-26T15:34:54.924Z</time></trkpt><trkpt lat="44.16832874599288" lon="10.326849320641651"><ele>476.0</ele><time>2026-04-26T15:34:55.924Z</time></trkpt><trkpt lat="44.16838265331145" lon="10.326662814984068"><ele>475.0</ele><time>2026-04-26T15:34:56.924Z</time></trkpt><trkpt lat="44.168411320860095" lon="10.326481200213559"><ele>472.6666666666667</ele><time>2026-04-26T15:34:57.924Z</time></trkpt><trkpt lat="44.16840308885773" lon="10.326277568480634"><ele>470.33333333333337</ele><time>2026-04-26T15:34:58.924Z</time></trkpt><trkpt lat="44.16836406028819" lon="10.32606533198508"><ele>468.0</ele><time>2026-04-26T15:34:59.924Z</time></trkpt><trkpt lat="44.1683242280517" lon="10.325844562468113"><ele>468.0</ele><time>2026-04-26T15:35:00.924Z</time></trkpt><trkpt lat="44.16830096441992" lon="10.325617586875659"><ele>468.0</ele><time>2026-04-26T15:35:01.924Z</time></trkpt><trkpt lat="44.16830743492622" lon="10.325384702326009"><ele>468.0</ele><time>2026-04-26T15:35:02.924Z</time></trkpt><trkpt lat="44.168349953805304" lon="10.32515409293115"><ele>467.5</ele><time>2026-04-26T15:35:03.924Z</time></trkpt><trkpt lat="44.168395103561345" lon="10.324946318896352"><ele>467.0</ele><time>2026-04-26T15:35:04.924Z</time></trkpt><trkpt lat="44.168442562004" lon="10.324772282448425"><ele>466.5</ele><time>2026-04-26T15:35:05.924Z</time></trkpt><trkpt lat="44.16851927070493" lon="10.324651279891073"><ele>466.0</ele><time>2026-04-26T15:35:06.924Z</time></trkpt><trkpt lat="44.16862856645115" lon="10.324573130830501"><ele>469.5</ele><time>2026-04-26T15:35:07.924Z</time></trkpt><trkpt lat="44.168740511531595" lon="10.324484639850574"><ele>473.0</ele><time>2026-04-26T15:35:08.924Z</time></trkpt><trkpt lat="44.16884938544087" lon="10.324356252301575"><ele>476.5</ele><time>2026-04-26T15:35:09.924Z</time></trkpt><trkpt lat="44.16895098748875" lon="10.324180339140776"><ele>480.0</ele><time>2026-04-26T15:35:10.924Z</time></trkpt><trkpt lat="44.16904394925722" lon="10.323978002170138"><ele>470.33333333333337</ele><time>2026-04-26T15:35:11.924Z</time></trkpt><trkpt lat="44.16913472282878" lon="10.323783007602433"><ele>460.6666666666667</ele><time>2026-04-26T15:35:12.924Z</time></trkpt><trkpt lat="44.169215164688644" lon="10.323605506386127"><ele>451.0</ele><time>2026-04-26T15:35:13.924Z</time></trkpt><trkpt lat="44.16929254534043" lon="10.323434899036004"><ele>451.0</ele><time>2026-04-26T15:35:14.924Z</time></trkpt><trkpt lat="44.169369436583196" lon="10.323265750098233"><ele>451.0</ele><time>2026-04-26T15:35:15.924Z</time></trkpt><trkpt lat="44.16942524322773" lon="10.323079465677052"><ele>451.0</ele><time>2026-04-26T15:35:16.924Z</time></trkpt><trkpt lat="44.169449285165776" lon="10.322872555729596"><ele>451.0</ele><time>2026-04-26T15:35:17.924Z</time></trkpt><trkpt lat="44.16953110940765" lon="10.32269757715271"><ele>451.25</ele><time>2026-04-26T15:35:18.924Z</time></trkpt><trkpt lat="44.16965414862836" lon="10.32256416715225"><ele>451.5</ele><time>2026-04-26T15:35:19.924Z</time></trkpt><trkpt lat="44.169759653475204" lon="10.322434416019531"><ele>451.75</ele><time>2026-04-26T15:35:20.924Z</time></trkpt><trkpt lat="44.1698215067516" lon="10.322302020098595"><ele>452.0</ele><time>2026-04-26T15:35:21.924Z</time></trkpt><trkpt lat="44.1698517130023" lon="10.322170142917425"><ele>452.0</ele><time>2026-04-26T15:35:22.924Z</time></trkpt><trkpt lat="44.16985281402671" lon="10.32203949799286"><ele>452.0</ele><time>2026-04-26T15:35:23.924Z</time></trkpt><trkpt lat="44.16980672892002" lon="10.321913379173214"><ele>452.0</ele><time>2026-04-26T15:35:24.924Z</time></trkpt><trkpt lat="44.16971638695999" lon="10.321784265768514"><ele>452.0</ele><time>2026-04-26T15:35:25.924Z</time></trkpt><trkpt lat="44.16960133431343" lon="10.321651454258664"><ele>452.0</ele><time>2026-04-26T15:35:26.924Z</time></trkpt><trkpt lat="44.16953248917236" lon="10.321526207954106"><ele>452.0</ele><time>2026-04-26T15:35:27.924Z</time></trkpt><trkpt lat="44.169492464749446" lon="10.321406169606922"><ele>452.0</ele><time>2026-04-26T15:35:28.924Z</time></trkpt><trkpt lat="44.169488635295025" lon="10.321247618473153"><ele>452.0</ele><time>2026-04-26T15:35:29.924Z</time></trkpt><trkpt lat="44.16951333988045" lon="10.321060504863688"><ele>447.75</ele><time>2026-04-26T15:35:30.924Z</time></trkpt><trkpt lat="44.16952920779545" lon="10.320866623362086"><ele>443.5</ele><time>2026-04-26T15:35:31.924Z</time></trkpt><trkpt lat="44.16953494923339" lon="10.32068244965688"><ele>439.25</ele><time>2026-04-26T15:35:32.924Z</time></trkpt><trkpt lat="44.16952047439051" lon="10.320533802369841"><ele>435.0</ele><time>2026-04-26T15:35:33.924Z</time></trkpt><trkpt lat="44.16950093220052" lon="10.32041369598295"><ele>433.75</ele><time>2026-04-26T15:35:34.924Z</time></trkpt><trkpt lat="44.16944226793029" lon="10.320319906256547"><ele>432.5</ele><time>2026-04-26T15:35:35.924Z</time></trkpt><trkpt lat="44.16934254944799" lon="10.320257573149132"><ele>431.25</ele><time>2026-04-26T15:35:36.924Z</time></trkpt><trkpt lat="44.16921427070167" lon="10.320197503525856"><ele>430.0</ele><time>2026-04-26T15:35:37.924Z</time></trkpt><trkpt lat="44.169089100957926" lon="10.320137311567384"><ele>433.6</ele><time>2026-04-26T15:35:38.924Z</time></trkpt><trkpt lat="44.16898411116512" lon="10.320083891846476"><ele>437.2</ele><time>2026-04-26T15:35:39.924Z</time></trkpt><trkpt lat="44.168896110033465" lon="10.320021437684025"><ele>440.79999999999995</ele><time>2026-04-26T15:35:40.924Z</time></trkpt><trkpt lat="44.16883364629197" lon="10.319941015463895"><ele>444.4</ele><time>2026-04-26T15:35:41.924Z</time></trkpt><trkpt lat="44.168800194177294" lon="10.31983002485151"><ele>448.0</ele><time>2026-04-26T15:35:42.922Z</time></trkpt><trkpt lat="44.168817487500945" lon="10.31969726593394"><ele>447.0</ele><time>2026-04-26T15:35:43.923Z</time></trkpt><trkpt lat="44.1688704928888" lon="10.319581331912463"><ele>446.0</ele><time>2026-04-26T15:35:44.923Z</time></trkpt><trkpt lat="44.16895407200069" lon="10.319473843561896"><ele>445.0</ele><time>2026-04-26T15:35:45.923Z</time></trkpt><trkpt lat="44.169059389525216" lon="10.319375045592732"><ele>444.0</ele><time>2026-04-26T15:35:46.922Z</time></trkpt><trkpt lat="44.169184833087314" lon="10.319290461860067"><ele>444.0</ele><time>2026-04-26T15:35:47.922Z</time></trkpt><trkpt lat="44.16931287381749" lon="10.319208492092377"><ele>444.0</ele><time>2026-04-26T15:35:48.922Z</time></trkpt><trkpt lat="44.16943640468207" lon="10.31911436801444"><ele>444.0</ele><time>2026-04-26T15:35:49.922Z</time></trkpt><trkpt lat="44.16955188607356" lon="10.31902256669663"><ele>444.0</ele><time>2026-04-26T15:35:50.922Z</time></trkpt><trkpt lat="44.16963931131972" lon="10.318922204700876"><ele>448.75</ele><time>2026-04-26T15:35:51.922Z</time></trkpt><trkpt lat="44.16970907044611" lon="10.318813021973886"><ele>453.5</ele><time>2026-04-26T15:35:52.922Z</time></trkpt><trkpt lat="44.16975233946248" lon="10.318672853761967"><ele>458.25</ele><time>2026-04-26T15:35:53.922Z</time></trkpt><trkpt lat="44.16978551800598" lon="10.318518779991631"><ele>463.0</ele><time>2026-04-26T15:35:54.922Z</time></trkpt><trkpt lat="44.16978139780436" lon="10.318333621457866"><ele>463.0</ele><time>2026-04-26T15:35:55.922Z</time></trkpt><trkpt lat="44.16975859317365" lon="10.318128689033948"><ele>463.0</ele><time>2026-04-26T15:35:56.922Z</time></trkpt><trkpt lat="44.16976068989167" lon="10.317972795889402"><ele>463.0</ele><time>2026-04-26T15:35:57.922Z</time></trkpt><trkpt lat="44.169799652488216" lon="10.31783572941675"><ele>463.0</ele><time>2026-04-26T15:35:58.922Z</time></trkpt><trkpt lat="44.1698793101977" lon="10.317717222197722"><ele>461.4</ele><time>2026-04-26T15:35:59.922Z</time></trkpt><trkpt lat="44.16996628687839" lon="10.31763436558424"><ele>459.79999999999995</ele><time>2026-04-26T15:36:00.922Z</time></trkpt><trkpt lat="44.17001317212841" lon="10.31755131199622"><ele>458.2</ele><time>2026-04-26T15:36:01.922Z</time></trkpt><trkpt lat="44.17003492124333" lon="10.3174336077156"><ele>456.6</ele><time>2026-04-26T15:36:02.922Z</time></trkpt><trkpt lat="44.17003785771485" lon="10.317298340321148"><ele>455.0</ele><time>2026-04-26T15:36:03.922Z</time></trkpt><trkpt lat="44.17003240731799" lon="10.317154905748103"><ele>455.0</ele><time>2026-04-26T15:36:04.922Z</time></trkpt><trkpt lat="44.17000200801966" lon="10.316950995939486"><ele>455.0</ele><time>2026-04-26T15:36:05.922Z</time></trkpt><trkpt lat="44.16996571451672" lon="10.316761387264322"><ele>455.0</ele><time>2026-04-26T15:36:06.922Z</time></trkpt><trkpt lat="44.16997247264979" lon="10.316596252729948"><ele>455.0</ele><time>2026-04-26T15:36:07.922Z</time></trkpt><trkpt lat="44.170013765266006" lon="10.316417645388071"><ele>458.75</ele><time>2026-04-26T15:36:08.922Z</time></trkpt><trkpt lat="44.17009871768251" lon="10.31624895854729"><ele>462.5</ele><time>2026-04-26T15:36:09.922Z</time></trkpt><trkpt lat="44.1701867022291" lon="10.31611057990275"><ele>466.25</ele><time>2026-04-26T15:36:10.922Z</time></trkpt><trkpt lat="44.17027608584208" lon="10.31601621391687"><ele>470.0</ele><time>2026-04-26T15:36:11.922Z</time></trkpt><trkpt lat="44.17037857053335" lon="10.315977556060023"><ele>470.0</ele><time>2026-04-26T15:36:12.922Z</time></trkpt><trkpt lat="44.17049956530354" lon="10.315993305389634"><ele>470.0</ele><time>2026-04-26T15:36:13.922Z</time></trkpt><trkpt lat="44.17063700474356" lon="10.31604575361437"><ele>470.0</ele><time>2026-04-26T15:36:14.922Z</time></trkpt><trkpt lat="44.17078085827308" lon="10.316089289953842"><ele>470.0</ele><time>2026-04-26T15:36:15.922Z</time></trkpt><trkpt lat="44.170930205113144" lon="10.316092622036036"><ele>464.66666666666663</ele><time>2026-04-26T15:36:16.922Z</time></trkpt><trkpt lat="44.17108410138356" lon="10.316067572092576"><ele>459.33333333333337</ele><time>2026-04-26T15:36:17.922Z</time></trkpt><trkpt lat="44.17123898373855" lon="10.316029791443643"><ele>454.0</ele><time>2026-04-26T15:36:18.922Z</time></trkpt><trkpt lat="44.17139706251979" lon="10.315996942054316"><ele>452.33333333333337</ele><time>2026-04-26T15:36:19.922Z</time></trkpt><trkpt lat="44.171548256756566" lon="10.315966014490675"><ele>450.66666666666663</ele><time>2026-04-26T15:36:20.922Z</time></trkpt><trkpt lat="44.1716873693855" lon="10.315926065931302"><ele>449.0</ele><time>2026-04-26T15:36:21.922Z</time></trkpt><trkpt lat="44.17193032058106" lon="10.315850497900017"><ele>449.0</ele><time>2026-04-26T15:36:23.922Z</time></trkpt><trkpt lat="44.17203029301613" lon="10.315750801993179"><ele>449.0</ele><time>2026-04-26T15:36:24.922Z</time></trkpt><trkpt lat="44.17212473518687" lon="10.315598919883673"><ele>449.0</ele><time>2026-04-26T15:36:25.922Z</time></trkpt><trkpt lat="44.172221146341336" lon="10.315421120616701"><ele>449.0</ele><time>2026-04-26T15:36:26.922Z</time></trkpt><trkpt lat="44.172313078549436" lon="10.315229949527316"><ele>448.66666666666663</ele><time>2026-04-26T15:36:27.922Z</time></trkpt><trkpt lat="44.17241739207151" lon="10.31503634280533"><ele>448.33333333333337</ele><time>2026-04-26T15:36:28.922Z</time></trkpt><trkpt lat="44.17252786521394" lon="10.314842353387112"><ele>448.0</ele><time>2026-04-26T15:36:29.922Z</time></trkpt><trkpt lat="44.17263993089509" lon="10.314640496067776"><ele>449.0</ele><time>2026-04-26T15:36:30.922Z</time></trkpt><trkpt lat="44.17275308556451" lon="10.314441212016813"><ele>450.0</ele><time>2026-04-26T15:36:31.922Z</time></trkpt><trkpt lat="44.17286099792262" lon="10.314242774712806"><ele>451.0</ele><time>2026-04-26T15:36:32.922Z</time></trkpt><trkpt lat="44.17296429635044" lon="10.314055858257236"><ele>447.0</ele><time>2026-04-26T15:36:33.922Z</time></trkpt><trkpt lat="44.17306388141695" lon="10.31387476647659"><ele>443.0</ele><time>2026-04-26T15:36:34.922Z</time></trkpt><trkpt lat="44.1731646515836" lon="10.313702448429346"><ele>439.0</ele><time>2026-04-26T15:36:35.922Z</time></trkpt><trkpt lat="44.17325712308496" lon="10.31354016624178"><ele>439.0</ele><time>2026-04-26T15:36:36.922Z</time></trkpt><trkpt lat="44.17333903929025" lon="10.313394626454876"><ele>439.0</ele><time>2026-04-26T15:36:37.922Z</time></trkpt><trkpt lat="44.173417182684105" lon="10.313276275542416"><ele>439.0</ele><time>2026-04-26T15:36:38.922Z</time></trkpt><trkpt lat="44.173504848895014" lon="10.313183755020827"><ele>439.0</ele><time>2026-04-26T15:36:39.922Z</time></trkpt><trkpt lat="44.17361016737705" lon="10.313127196668221"><ele>439.0</ele><time>2026-04-26T15:36:40.922Z</time></trkpt><trkpt lat="44.173738016403114" lon="10.313119288420397"><ele>439.0</ele><time>2026-04-26T15:36:41.922Z</time></trkpt><trkpt lat="44.173842235215254" lon="10.31310395734909"><ele>439.0</ele><time>2026-04-26T15:36:42.922Z</time></trkpt><trkpt lat="44.17391962623623" lon="10.313107081300814"><ele>439.0</ele><time>2026-04-26T15:36:43.922Z</time></trkpt><trkpt lat="44.1739855259144" lon="10.313168478587611"><ele>439.0</ele><time>2026-04-26T15:36:44.922Z</time></trkpt><trkpt lat="44.17401761483681" lon="10.3132832611318"><ele>439.0</ele><time>2026-04-26T15:36:45.922Z</time></trkpt><trkpt lat="44.17401556866919" lon="10.31343562362385"><ele>439.0</ele><time>2026-04-26T15:36:46.922Z</time></trkpt><trkpt lat="44.17397600783296" lon="10.31359409675169"><ele>439.0</ele><time>2026-04-26T15:36:47.922Z</time></trkpt><trkpt lat="44.17393300326562" lon="10.31377152929835"><ele>439.0</ele><time>2026-04-26T15:36:48.922Z</time></trkpt><trkpt lat="44.17389221329443" lon="10.313958519635687"><ele>438.2</ele><time>2026-04-26T15:36:49.922Z</time></trkpt><trkpt lat="44.17385646465061" lon="10.314143991318035"><ele>437.4</ele><time>2026-04-26T15:36:50.922Z</time></trkpt><trkpt lat="44.173835630701895" lon="10.314302126781849"><ele>436.6</ele><time>2026-04-26T15:36:51.922Z</time></trkpt><trkpt lat="44.17382337296376" lon="10.314419409670519"><ele>435.8</ele><time>2026-04-26T15:36:52.922Z</time></trkpt><trkpt lat="44.17382943390964" lon="10.314519494121065"><ele>435.0</ele><time>2026-04-26T15:36:53.922Z</time></trkpt><trkpt lat="44.17387453681574" lon="10.31459681013093"><ele>435.0</ele><time>2026-04-26T15:36:54.922Z</time></trkpt><trkpt lat="44.17394514779746" lon="10.31461973732961"><ele>435.0</ele><time>2026-04-26T15:36:55.922Z</time></trkpt><trkpt lat="44.17403210857694" lon="10.314589009021628"><ele>435.0</ele><time>2026-04-26T15:36:56.922Z</time></trkpt><trkpt lat="44.174099313284124" lon="10.314494628335742"><ele>435.0</ele><time>2026-04-26T15:36:57.922Z</time></trkpt><trkpt lat="44.174152064002016" lon="10.314365721421288"><ele>435.0</ele><time>2026-04-26T15:36:58.922Z</time></trkpt><trkpt lat="44.174213363314294" lon="10.314210125959805"><ele>438.75</ele><time>2026-04-26T15:36:59.922Z</time></trkpt><trkpt lat="44.17427721562063" lon="10.314054614494594"><ele>442.5</ele><time>2026-04-26T15:37:00.922Z</time></trkpt><trkpt lat="44.17434320364648" lon="10.313888855305187"><ele>446.25</ele><time>2026-04-26T15:37:01.922Z</time></trkpt><trkpt lat="44.17441950195443" lon="10.313744007226022"><ele>450.0</ele><time>2026-04-26T15:37:02.922Z</time></trkpt><trkpt lat="44.17448814147327" lon="10.31358668154491"><ele>450.0</ele><time>2026-04-26T15:37:03.922Z</time></trkpt><trkpt lat="44.17455556022759" lon="10.313440407333832"><ele>450.0</ele><time>2026-04-26T15:37:04.922Z</time></trkpt><trkpt lat="44.17461677224291" lon="10.313303043966428"><ele>450.0</ele><time>2026-04-26T15:37:05.922Z</time></trkpt><trkpt lat="44.17467134737793" lon="10.313184546580603"><ele>450.0</ele><time>2026-04-26T15:37:06.922Z</time></trkpt><trkpt lat="44.174717800718504" lon="10.313088662481977"><ele>450.0</ele><time>2026-04-26T15:37:07.922Z</time></trkpt><trkpt lat="44.17473125638306" lon="10.312982610735235"><ele>451.0</ele><time>2026-04-26T15:37:08.922Z</time></trkpt><trkpt lat="44.17473194851676" lon="10.312886432987863"><ele>452.0</ele><time>2026-04-26T15:37:09.922Z</time></trkpt><trkpt lat="44.17475457749966" lon="10.31278138639868"><ele>453.0</ele><time>2026-04-26T15:37:10.922Z</time></trkpt><trkpt lat="44.174804839380066" lon="10.312718426833435"><ele>454.0</ele><time>2026-04-26T15:37:11.922Z</time></trkpt><trkpt lat="44.17487355376402" lon="10.312637339251328"><ele>455.0</ele><time>2026-04-26T15:37:12.922Z</time></trkpt><trkpt lat="44.17496189554239" lon="10.312583363533669"><ele>456.0</ele><time>2026-04-26T15:37:13.922Z</time></trkpt><trkpt lat="44.17505132282976" lon="10.312508937505624"><ele>457.0</ele><time>2026-04-26T15:37:14.922Z</time></trkpt><trkpt lat="44.17515717870263" lon="10.312440105225498"><ele>458.0</ele><time>2026-04-26T15:37:15.922Z</time></trkpt><trkpt lat="44.175266543958955" lon="10.312377873803152"><ele>459.0</ele><time>2026-04-26T15:37:16.922Z</time></trkpt><trkpt lat="44.17538481209617" lon="10.312357387698576"><ele>460.0</ele><time>2026-04-26T15:37:17.922Z</time></trkpt><trkpt lat="44.17549686249776" lon="10.312396290427154"><ele>460.0</ele><time>2026-04-26T15:37:18.922Z</time></trkpt><trkpt lat="44.175597067197245" lon="10.312466681754982"><ele>460.0</ele><time>2026-04-26T15:37:19.922Z</time></trkpt><trkpt lat="44.175688486984775" lon="10.312526262285012"><ele>460.0</ele><time>2026-04-26T15:37:20.922Z</time></trkpt><trkpt lat="44.175781558127376" lon="10.312561907328702"><ele>460.0</ele><time>2026-04-26T15:37:21.922Z</time></trkpt><trkpt lat="44.175881427786166" lon="10.31255415370339"><ele>460.0</ele><time>2026-04-26T15:37:22.922Z</time></trkpt><trkpt lat="44.17599484316915" lon="10.312506885908439"><ele>461.5</ele><time>2026-04-26T15:37:23.922Z</time></trkpt><trkpt lat="44.17610799336715" lon="10.31252564382343"><ele>463.0</ele><time>2026-04-26T15:37:24.922Z</time></trkpt><trkpt lat="44.17621238969351" lon="10.31258266132528"><ele>464.5</ele><time>2026-04-26T15:37:25.922Z</time></trkpt><trkpt lat="44.176318899095634" lon="10.312664318949045"><ele>466.0</ele><time>2026-04-26T15:37:26.922Z</time></trkpt><trkpt lat="44.17643035060713" lon="10.31273599700205"><ele>468.0</ele><time>2026-04-26T15:37:27.922Z</time></trkpt><trkpt lat="44.17653702221309" lon="10.31279867687782"><ele>470.0</ele><time>2026-04-26T15:37:28.922Z</time></trkpt><trkpt lat="44.17663300893537" lon="10.312817005056306"><ele>472.0</ele><time>2026-04-26T15:37:29.922Z</time></trkpt><trkpt lat="44.17673991437815" lon="10.312796279555192"><ele>474.0</ele><time>2026-04-26T15:37:30.922Z</time></trkpt><trkpt lat="44.176838091229506" lon="10.312728793337847"><ele>476.0</ele><time>2026-04-26T15:37:31.922Z</time></trkpt><trkpt lat="44.17691395844805" lon="10.312600952519052"><ele>476.0</ele><time>2026-04-26T15:37:32.922Z</time></trkpt><trkpt lat="44.17693833629859" lon="10.31244660945991"><ele>476.0</ele><time>2026-04-26T15:37:33.922Z</time></trkpt><trkpt lat="44.1769091436135" lon="10.312262879953687"><ele>476.0</ele><time>2026-04-26T15:37:34.922Z</time></trkpt><trkpt lat="44.1768902636151" lon="10.31206747382339"><ele>476.0</ele><time>2026-04-26T15:37:35.922Z</time></trkpt><trkpt lat="44.17690025027031" lon="10.311870857207303"><ele>472.3333333333333</ele><time>2026-04-26T15:37:36.922Z</time></trkpt><trkpt lat="44.17694735280461" lon="10.311679692410035"><ele>468.66666666666663</ele><time>2026-04-26T15:37:37.922Z</time></trkpt><trkpt lat="44.17702563218513" lon="10.311497066665549"><ele>465.0</ele><time>2026-04-26T15:37:38.922Z</time></trkpt><trkpt lat="44.177120911087805" lon="10.311293630840643"><ele>463.33333333333337</ele><time>2026-04-26T15:37:39.922Z</time></trkpt><trkpt lat="44.17723024606642" lon="10.31107615163235"><ele>461.6666666666667</ele><time>2026-04-26T15:37:40.922Z</time></trkpt><trkpt lat="44.177342376951785" lon="10.310848956051304"><ele>460.0</ele><time>2026-04-26T15:37:41.922Z</time></trkpt><trkpt lat="44.17745400229974" lon="10.310641465695737"><ele>462.0</ele><time>2026-04-26T15:37:42.922Z</time></trkpt><trkpt lat="44.17757706857742" lon="10.310465922917578"><ele>464.0</ele><time>2026-04-26T15:37:43.922Z</time></trkpt><trkpt lat="44.17771479227156" lon="10.310320320192389"><ele>466.0</ele><time>2026-04-26T15:37:44.922Z</time></trkpt><trkpt lat="44.177855080699764" lon="10.310194085796354"><ele>466.0</ele><time>2026-04-26T15:37:45.922Z</time></trkpt><trkpt lat="44.1780068496923" lon="10.31007861869613"><ele>466.0</ele><time>2026-04-26T15:37:46.922Z</time></trkpt><trkpt lat="44.178190574832264" lon="10.309998069192082"><ele>466.0</ele><time>2026-04-26T15:37:47.922Z</time></trkpt><trkpt lat="44.17840883273044" lon="10.309969518178908"><ele>476.0</ele><time>2026-04-26T15:37:48.921Z</time></trkpt><trkpt lat="44.178643624197996" lon="10.309973930821128"><ele>486.0</ele><time>2026-04-26T15:37:49.921Z</time></trkpt><trkpt lat="44.17887870280761" lon="10.30997352188673"><ele>492.5</ele><time>2026-04-26T15:37:50.921Z</time></trkpt><trkpt lat="44.17912357727686" lon="10.309983669634224"><ele>499.0</ele><time>2026-04-26T15:37:51.921Z</time></trkpt><trkpt lat="44.1793627881291" lon="10.30997730992544"><ele>499.0</ele><time>2026-04-26T15:37:52.921Z</time></trkpt><trkpt lat="44.17958778942589" lon="10.309979149372394"><ele>499.0</ele><time>2026-04-26T15:37:53.921Z</time></trkpt><trkpt lat="44.17977632574714" lon="10.3099679918916"><ele>499.0</ele><time>2026-04-26T15:37:54.921Z</time></trkpt><trkpt lat="44.17994920404156" lon="10.309949720482534"><ele>499.0</ele><time>2026-04-26T15:37:55.921Z</time></trkpt><trkpt lat="44.18011383590055" lon="10.3098655917975"><ele>499.0</ele><time>2026-04-26T15:37:56.921Z</time></trkpt><trkpt lat="44.180283161713234" lon="10.30972900406078"><ele>499.0</ele><time>2026-04-26T15:37:57.921Z</time></trkpt><trkpt lat="44.18045789349478" lon="10.309564761884495"><ele>499.0</ele><time>2026-04-26T15:37:58.921Z</time></trkpt><trkpt lat="44.18062724133314" lon="10.309387131661113"><ele>499.0</ele><time>2026-04-26T15:37:59.921Z</time></trkpt><trkpt lat="44.18078070648466" lon="10.309224793974233"><ele>499.0</ele><time>2026-04-26T15:38:00.921Z</time></trkpt><trkpt lat="44.180915991743426" lon="10.309081994569764"><ele>506.33333333333337</ele><time>2026-04-26T15:38:01.921Z</time></trkpt><trkpt lat="44.18104485322266" lon="10.308946326982335"><ele>513.6666666666666</ele><time>2026-04-26T15:38:02.921Z</time></trkpt><trkpt lat="44.181185567818936" lon="10.308815526624306"><ele>521.0</ele><time>2026-04-26T15:38:03.921Z</time></trkpt><trkpt lat="44.181329745583234" lon="10.308684557780845"><ele>521.0</ele><time>2026-04-26T15:38:04.921Z</time></trkpt><trkpt lat="44.181472717532216" lon="10.308554216393567"><ele>521.0</ele><time>2026-04-26T15:38:05.921Z</time></trkpt><trkpt lat="44.18162181184911" lon="10.308433927831294"><ele>521.0</ele><time>2026-04-26T15:38:06.921Z</time></trkpt><trkpt lat="44.18177958620787" lon="10.308444379087746"><ele>519.5</ele><time>2026-04-26T15:38:07.921Z</time></trkpt><trkpt lat="44.182099384343" lon="10.308604543296452"><ele>518.0</ele><time>2026-04-26T15:38:08.921Z</time></trkpt><trkpt lat="44.182278862681514" lon="10.308604972997879"><ele>513.0</ele><time>2026-04-26T15:38:09.921Z</time></trkpt><trkpt lat="44.18244096893396" lon="10.30859177749775"><ele>508.0</ele><time>2026-04-26T15:38:10.921Z</time></trkpt><trkpt lat="44.18259922446441" lon="10.308565261758218"><ele>503.0</ele><time>2026-04-26T15:38:11.921Z</time></trkpt><trkpt lat="44.18275355368456" lon="10.308544930709571"><ele>503.0</ele><time>2026-04-26T15:38:12.921Z</time></trkpt><trkpt lat="44.182908627127865" lon="10.308523300172315"><ele>503.0</ele><time>2026-04-26T15:38:13.921Z</time></trkpt><trkpt lat="44.18304490598006" lon="10.30849463093259"><ele>503.0</ele><time>2026-04-26T15:38:14.921Z</time></trkpt><trkpt lat="44.18318359239239" lon="10.308433206186644"><ele>503.0</ele><time>2026-04-26T15:38:15.921Z</time></trkpt><trkpt lat="44.183312790743216" lon="10.308330261860103"><ele>505.3333333333333</ele><time>2026-04-26T15:38:16.921Z</time></trkpt><trkpt lat="44.18344037430631" lon="10.308183293258008"><ele>507.66666666666663</ele><time>2026-04-26T15:38:17.921Z</time></trkpt><trkpt lat="44.18356098677527" lon="10.308005937922792"><ele>510.0</ele><time>2026-04-26T15:38:18.921Z</time></trkpt><trkpt lat="44.183669301471866" lon="10.307799323242694"><ele>510.0</ele><time>2026-04-26T15:38:19.921Z</time></trkpt><trkpt lat="44.18376227867908" lon="10.30758411341906"><ele>510.0</ele><time>2026-04-26T15:38:20.921Z</time></trkpt><trkpt lat="44.183827757726924" lon="10.30733737222285"><ele>510.0</ele><time>2026-04-26T15:38:21.921Z</time></trkpt><trkpt lat="44.1838809651259" lon="10.3070892825764"><ele>504.0</ele><time>2026-04-26T15:38:22.921Z</time></trkpt><trkpt lat="44.183916915881944" lon="10.306847215042827"><ele>498.0</ele><time>2026-04-26T15:38:23.921Z</time></trkpt><trkpt lat="44.18394232389594" lon="10.306626283802169"><ele>492.0</ele><time>2026-04-26T15:38:24.921Z</time></trkpt><trkpt lat="44.18396686189576" lon="10.306419500645857"><ele>495.33333333333337</ele><time>2026-04-26T15:38:25.921Z</time></trkpt><trkpt lat="44.18399277080909" lon="10.306211572515334"><ele>498.6666666666667</ele><time>2026-04-26T15:38:26.921Z</time></trkpt><trkpt lat="44.18400861208054" lon="10.306003591811972"><ele>502.0</ele><time>2026-04-26T15:38:27.921Z</time></trkpt><trkpt lat="44.184009854607986" lon="10.30579163019572"><ele>502.0</ele><time>2026-04-26T15:38:28.921Z</time></trkpt><trkpt lat="44.18400353748767" lon="10.305580078222876"><ele>502.0</ele><time>2026-04-26T15:38:29.921Z</time></trkpt><trkpt lat="44.18399595363713" lon="10.305364061076979"><ele>502.0</ele><time>2026-04-26T15:38:30.921Z</time></trkpt><trkpt lat="44.184009272952835" lon="10.305174646042675"><ele>502.0</ele><time>2026-04-26T15:38:31.921Z</time></trkpt><trkpt lat="44.1840248321445" lon="10.305004626546"><ele>505.20000000000005</ele><time>2026-04-26T15:38:32.921Z</time></trkpt><trkpt lat="44.184045123483784" lon="10.304845077330764"><ele>508.40000000000003</ele><time>2026-04-26T15:38:33.921Z</time></trkpt><trkpt lat="44.184086588734914" lon="10.304691143878774"><ele>511.59999999999997</ele><time>2026-04-26T15:38:34.921Z</time></trkpt><trkpt lat="44.184153958585036" lon="10.304579303592284"><ele>514.8</ele><time>2026-04-26T15:38:35.921Z</time></trkpt><trkpt lat="44.18420164077193" lon="10.304477171435519"><ele>518.0</ele><time>2026-04-26T15:38:36.921Z</time></trkpt><trkpt lat="44.18417812192776" lon="10.30430502744205"><ele>518.0</ele><time>2026-04-26T15:38:38.921Z</time></trkpt><trkpt lat="44.184121100125026" lon="10.30418373730637"><ele>518.0</ele><time>2026-04-26T15:38:39.921Z</time></trkpt><trkpt lat="44.18405245902511" lon="10.304059754300932"><ele>518.0</ele><time>2026-04-26T15:38:40.921Z</time></trkpt><trkpt lat="44.183973902061375" lon="10.303928248444507"><ele>518.0</ele><time>2026-04-26T15:38:41.921Z</time></trkpt><trkpt lat="44.183892808563606" lon="10.303786174959507"><ele>517.25</ele><time>2026-04-26T15:38:42.921Z</time></trkpt><trkpt lat="44.18381168068486" lon="10.303631358258913"><ele>516.5</ele><time>2026-04-26T15:38:43.921Z</time></trkpt><trkpt lat="44.18373611980928" lon="10.303482473795182"><ele>515.75</ele><time>2026-04-26T15:38:44.921Z</time></trkpt><trkpt lat="44.18365806625018" lon="10.303332973501918"><ele>515.0</ele><time>2026-04-26T15:38:45.921Z</time></trkpt><trkpt lat="44.18357653115642" lon="10.303192776499468"><ele>516.0</ele><time>2026-04-26T15:38:46.921Z</time></trkpt><trkpt lat="44.18349308929446" lon="10.303057093302275"><ele>517.0</ele><time>2026-04-26T15:38:47.921Z</time></trkpt><trkpt lat="44.18342865993124" lon="10.302905593097405"><ele>518.0</ele><time>2026-04-26T15:38:48.921Z</time></trkpt><trkpt lat="44.18338287903953" lon="10.302740346274492"><ele>519.0</ele><time>2026-04-26T15:38:49.921Z</time></trkpt><trkpt lat="44.18335253270381" lon="10.302577459869777"><ele>519.0</ele><time>2026-04-26T15:38:50.921Z</time></trkpt><trkpt lat="44.18332936969531" lon="10.302427792572336"><ele>519.0</ele><time>2026-04-26T15:38:51.921Z</time></trkpt><trkpt lat="44.18330868261153" lon="10.30228509733383"><ele>519.0</ele><time>2026-04-26T15:38:52.921Z</time></trkpt><trkpt lat="44.18328470698205" lon="10.302153258912696"><ele>519.0</ele><time>2026-04-26T15:38:53.921Z</time></trkpt><trkpt lat="44.18326125875197" lon="10.302021901733573"><ele>519.0</ele><time>2026-04-26T15:38:54.921Z</time></trkpt><trkpt lat="44.18324791662394" lon="10.30189742031636"><ele>519.5</ele><time>2026-04-26T15:38:55.921Z</time></trkpt><trkpt lat="44.18324767415756" lon="10.30177217306392"><ele>520.0</ele><time>2026-04-26T15:38:56.921Z</time></trkpt><trkpt lat="44.1832505797802" lon="10.301662129212986"><ele>520.5</ele><time>2026-04-26T15:38:57.921Z</time></trkpt><trkpt lat="44.18328318749591" lon="10.3015661393018"><ele>521.0</ele><time>2026-04-26T15:38:58.921Z</time></trkpt><trkpt lat="44.18332077448357" lon="10.301476649113512"><ele>521.5</ele><time>2026-04-26T15:38:59.921Z</time></trkpt><trkpt lat="44.183356769644696" lon="10.301392367626454"><ele>522.0</ele><time>2026-04-26T15:39:00.921Z</time></trkpt><trkpt lat="44.18339723722879" lon="10.301292829546403"><ele>522.0</ele><time>2026-04-26T15:39:01.921Z</time></trkpt><trkpt lat="44.183441635673404" lon="10.301197288095526"><ele>522.0</ele><time>2026-04-26T15:39:02.921Z</time></trkpt><trkpt lat="44.183488564868874" lon="10.301097563299427"><ele>522.0</ele><time>2026-04-26T15:39:03.921Z</time></trkpt><trkpt lat="44.18353212904192" lon="10.3009905046071"><ele>522.0</ele><time>2026-04-26T15:39:04.921Z</time></trkpt><trkpt lat="44.18358182568545" lon="10.300878922266442"><ele>522.0</ele><time>2026-04-26T15:39:05.921Z</time></trkpt><trkpt lat="44.18362893310281" lon="10.300763602945576"><ele>522.0</ele><time>2026-04-26T15:39:06.921Z</time></trkpt><trkpt lat="44.183682700457155" lon="10.300629202354147"><ele>521.6</ele><time>2026-04-26T15:39:07.921Z</time></trkpt><trkpt lat="44.183729666417506" lon="10.300488425315391"><ele>521.2</ele><time>2026-04-26T15:39:08.921Z</time></trkpt><trkpt lat="44.18377567805916" lon="10.300346475964687"><ele>520.8</ele><time>2026-04-26T15:39:09.921Z</time></trkpt><trkpt lat="44.18382137643418" lon="10.300212695804156"><ele>520.4</ele><time>2026-04-26T15:39:10.921Z</time></trkpt><trkpt lat="44.183869930656904" lon="10.300075385871766"><ele>520.0</ele><time>2026-04-26T15:39:11.921Z</time></trkpt><trkpt lat="44.183920285690334" lon="10.299941850836081"><ele>520.0</ele><time>2026-04-26T15:39:12.921Z</time></trkpt><trkpt lat="44.18396459068011" lon="10.29980986874745"><ele>520.0</ele><time>2026-04-26T15:39:13.921Z</time></trkpt><trkpt lat="44.184003802070464" lon="10.299675455487364"><ele>520.0</ele><time>2026-04-26T15:39:14.921Z</time></trkpt><trkpt lat="44.184026440426855" lon="10.2995263977978"><ele>520.0</ele><time>2026-04-26T15:39:15.921Z</time></trkpt><trkpt lat="44.184051665262835" lon="10.299374072201681"><ele>520.0</ele><time>2026-04-26T15:39:16.921Z</time></trkpt><trkpt lat="44.18409067497613" lon="10.299227234041803"><ele>521.6</ele><time>2026-04-26T15:39:17.921Z</time></trkpt><trkpt lat="44.18413645346649" lon="10.29907748279682"><ele>523.2</ele><time>2026-04-26T15:39:18.921Z</time></trkpt><trkpt lat="44.18418463051926" lon="10.298936875127907"><ele>524.8</ele><time>2026-04-26T15:39:19.921Z</time></trkpt><trkpt lat="44.184239971141565" lon="10.298813173140505"><ele>526.4</ele><time>2026-04-26T15:39:20.921Z</time></trkpt><trkpt lat="44.1843234267742" lon="10.298716071610555"><ele>528.0</ele><time>2026-04-26T15:39:21.921Z</time></trkpt><trkpt lat="44.18440758780114" lon="10.298615752214248"><ele>528.0</ele><time>2026-04-26T15:39:22.921Z</time></trkpt><trkpt lat="44.18450351248795" lon="10.29851922320145"><ele>528.0</ele><time>2026-04-26T15:39:23.921Z</time></trkpt><trkpt lat="44.18459543334078" lon="10.298407935057215"><ele>528.0</ele><time>2026-04-26T15:39:24.921Z</time></trkpt><trkpt lat="44.184703196631354" lon="10.298329720579241"><ele>528.0</ele><time>2026-04-26T15:39:25.921Z</time></trkpt><trkpt lat="44.18480339574135" lon="10.298229466077528"><ele>530.25</ele><time>2026-04-26T15:39:26.921Z</time></trkpt><trkpt lat="44.18488948281577" lon="10.29812289879085"><ele>532.5</ele><time>2026-04-26T15:39:27.921Z</time></trkpt><trkpt lat="44.18495549038698" lon="10.297989631413731"><ele>534.75</ele><time>2026-04-26T15:39:28.921Z</time></trkpt><trkpt lat="44.184990417885246" lon="10.297844465703447"><ele>537.0</ele><time>2026-04-26T15:39:29.921Z</time></trkpt><trkpt lat="44.185001322413115" lon="10.297671986573265"><ele>537.0</ele><time>2026-04-26T15:39:30.921Z</time></trkpt><trkpt lat="44.18500664478103" lon="10.297494114408753"><ele>537.0</ele><time>2026-04-26T15:39:31.921Z</time></trkpt><trkpt lat="44.185011408533406" lon="10.297309205849418"><ele>537.0</ele><time>2026-04-26T15:39:32.921Z</time></trkpt><trkpt lat="44.18502391681677" lon="10.297120716940688"><ele>537.0</ele><time>2026-04-26T15:39:33.921Z</time></trkpt><trkpt lat="44.18503998442639" lon="10.296940500726011"><ele>535.6</ele><time>2026-04-26T15:39:34.921Z</time></trkpt><trkpt lat="44.18505499864377" lon="10.29677333901839"><ele>534.2</ele><time>2026-04-26T15:39:35.921Z</time></trkpt><trkpt lat="44.18507595520689" lon="10.29664075084018"><ele>532.8</ele><time>2026-04-26T15:39:36.921Z</time></trkpt><trkpt lat="44.18511878219266" lon="10.296522036222285"><ele>531.4</ele><time>2026-04-26T15:39:37.921Z</time></trkpt><trkpt lat="44.18519748640531" lon="10.296430154008158"><ele>530.0</ele><time>2026-04-26T15:39:38.921Z</time></trkpt><trkpt lat="44.185304754596714" lon="10.29637088104795"><ele>528.6</ele><time>2026-04-26T15:39:39.921Z</time></trkpt><trkpt lat="44.185415296937606" lon="10.296335849725383"><ele>527.2</ele><time>2026-04-26T15:39:40.921Z</time></trkpt><trkpt lat="44.18551399552147" lon="10.296303132088894"><ele>525.8</ele><time>2026-04-26T15:39:41.921Z</time></trkpt><trkpt lat="44.18559529587268" lon="10.296219554563574"><ele>524.4</ele><time>2026-04-26T15:39:42.921Z</time></trkpt><trkpt lat="44.18565264985809" lon="10.296087939335054"><ele>523.0</ele><time>2026-04-26T15:39:43.921Z</time></trkpt><trkpt lat="44.18569961446005" lon="10.295909077091544"><ele>526.0</ele><time>2026-04-26T15:39:44.921Z</time></trkpt><trkpt lat="44.185751688852626" lon="10.295714453889667"><ele>529.0</ele><time>2026-04-26T15:39:45.921Z</time></trkpt><trkpt lat="44.18581064089245" lon="10.295536532305126"><ele>532.0</ele><time>2026-04-26T15:39:46.921Z</time></trkpt><trkpt lat="44.18587302178394" lon="10.295369891043052"><ele>535.0</ele><time>2026-04-26T15:39:47.921Z</time></trkpt><trkpt lat="44.18595072414964" lon="10.295220309592125"><ele>535.0</ele><time>2026-04-26T15:39:48.921Z</time></trkpt><trkpt lat="44.186043431221236" lon="10.295087497213231"><ele>535.0</ele><time>2026-04-26T15:39:49.921Z</time></trkpt><trkpt lat="44.18613467986817" lon="10.29495135248725"><ele>535.0</ele><time>2026-04-26T15:39:50.921Z</time></trkpt><trkpt lat="44.18618614111893" lon="10.294778015093486"><ele>535.0</ele><time>2026-04-26T15:39:51.921Z</time></trkpt><trkpt lat="44.1862326835976" lon="10.294589912235601"><ele>533.6666666666667</ele><time>2026-04-26T15:39:52.921Z</time></trkpt><trkpt lat="44.18628251138088" lon="10.294391523160236"><ele>532.3333333333334</ele><time>2026-04-26T15:39:53.921Z</time></trkpt><trkpt lat="44.18633963995681" lon="10.294195958202932"><ele>531.0</ele><time>2026-04-26T15:39:54.92Z</time></trkpt><trkpt lat="44.186404942051674" lon="10.293995360797734"><ele>530.0</ele><time>2026-04-26T15:39:55.921Z</time></trkpt><trkpt lat="44.186462796538606" lon="10.293783415249338"><ele>529.0</ele><time>2026-04-26T15:39:56.921Z</time></trkpt><trkpt lat="44.1865208899843" lon="10.293574988273399"><ele>528.0</ele><time>2026-04-26T15:39:57.921Z</time></trkpt><trkpt lat="44.18657748824145" lon="10.293371284504948"><ele>533.0</ele><time>2026-04-26T15:39:58.92Z</time></trkpt><trkpt lat="44.186636525224316" lon="10.293164586612447"><ele>538.0</ele><time>2026-04-26T15:39:59.92Z</time></trkpt><trkpt lat="44.18669180531476" lon="10.29297263905441"><ele>543.0</ele><time>2026-04-26T15:40:00.92Z</time></trkpt><trkpt lat="44.18674865250798" lon="10.292782739738765"><ele>543.0</ele><time>2026-04-26T15:40:01.92Z</time></trkpt><trkpt lat="44.18680382580397" lon="10.292613270096538"><ele>543.0</ele><time>2026-04-26T15:40:02.92Z</time></trkpt><trkpt lat="44.18685231700715" lon="10.292456929396135"><ele>543.0</ele><time>2026-04-26T15:40:03.92Z</time></trkpt><trkpt lat="44.18689784576374" lon="10.292323504051973"><ele>543.0</ele><time>2026-04-26T15:40:04.92Z</time></trkpt><trkpt lat="44.18692973209759" lon="10.29220279314139"><ele>543.1666666666666</ele><time>2026-04-26T15:40:05.92Z</time></trkpt><trkpt lat="44.18695663654523" lon="10.292094032541568"><ele>543.3333333333334</ele><time>2026-04-26T15:40:06.92Z</time></trkpt><trkpt lat="44.186977555949525" lon="10.291982544737984"><ele>543.5</ele><time>2026-04-26T15:40:07.92Z</time></trkpt><trkpt lat="44.18699081523246" lon="10.291871597167093"><ele>543.6666666666667</ele><time>2026-04-26T15:40:08.92Z</time></trkpt><trkpt lat="44.18699148882291" lon="10.291771214945738"><ele>543.8333333333334</ele><time>2026-04-26T15:40:09.92Z</time></trkpt><trkpt lat="44.18696137128908" lon="10.291679976015514"><ele>544.0</ele><time>2026-04-26T15:40:10.92Z</time></trkpt><trkpt lat="44.186897067319194" lon="10.291601786273512"><ele>544.0</ele><time>2026-04-26T15:40:11.92Z</time></trkpt><trkpt lat="44.18681701965987" lon="10.29154202097704"><ele>544.0</ele><time>2026-04-26T15:40:12.92Z</time></trkpt><trkpt lat="44.18674009024711" lon="10.29148354933515"><ele>544.0</ele><time>2026-04-26T15:40:13.92Z</time></trkpt><trkpt lat="44.1866648454037" lon="10.291415494808273"><ele>544.0</ele><time>2026-04-26T15:40:14.92Z</time></trkpt><trkpt lat="44.1865862632844" lon="10.291336314059324"><ele>544.0</ele><time>2026-04-26T15:40:15.92Z</time></trkpt><trkpt lat="44.18650027860992" lon="10.291252771960506"><ele>543.75</ele><time>2026-04-26T15:40:16.92Z</time></trkpt><trkpt lat="44.18641049200323" lon="10.291167933011923"><ele>543.5</ele><time>2026-04-26T15:40:17.92Z</time></trkpt><trkpt lat="44.18631296509992" lon="10.291082791449865"><ele>543.25</ele><time>2026-04-26T15:40:18.92Z</time></trkpt><trkpt lat="44.18621407489463" lon="10.291004192932666"><ele>543.0</ele><time>2026-04-26T15:40:19.92Z</time></trkpt><trkpt lat="44.186111815308294" lon="10.29093944456301"><ele>543.0</ele><time>2026-04-26T15:40:20.92Z</time></trkpt><trkpt lat="44.186010221735486" lon="10.290887473805833"><ele>543.0</ele><time>2026-04-26T15:40:21.92Z</time></trkpt><trkpt lat="44.18591545565049" lon="10.290849583873397"><ele>543.0</ele><time>2026-04-26T15:40:22.92Z</time></trkpt><trkpt lat="44.18582653206034" lon="10.290818233965938"><ele>543.0</ele><time>2026-04-26T15:40:23.92Z</time></trkpt><trkpt lat="44.18574748831485" lon="10.290767653082643"><ele>543.0</ele><time>2026-04-26T15:40:24.92Z</time></trkpt><trkpt lat="44.18568369194508" lon="10.290680632313869"><ele>542.1999999999999</ele><time>2026-04-26T15:40:25.92Z</time></trkpt><trkpt lat="44.18563357979593" lon="10.290557689693669"><ele>541.4</ele><time>2026-04-26T15:40:26.92Z</time></trkpt><trkpt lat="44.18559674119957" lon="10.290416560833242"><ele>540.5999999999999</ele><time>2026-04-26T15:40:27.92Z</time></trkpt><trkpt lat="44.18555945010317" lon="10.290272660724488"><ele>539.8</ele><time>2026-04-26T15:40:28.92Z</time></trkpt><trkpt lat="44.1855208503368" lon="10.290136857534902"><ele>539.0</ele><time>2026-04-26T15:40:29.92Z</time></trkpt><trkpt lat="44.18548070502239" lon="10.290000284253201"><ele>539.0</ele><time>2026-04-26T15:40:30.92Z</time></trkpt><trkpt lat="44.1854373868205" lon="10.289860184302974"><ele>539.0</ele><time>2026-04-26T15:40:31.92Z</time></trkpt><trkpt lat="44.18539516074763" lon="10.289717309666056"><ele>539.0</ele><time>2026-04-26T15:40:32.92Z</time></trkpt><trkpt lat="44.185352183777454" lon="10.289582345119477"><ele>539.0</ele><time>2026-04-26T15:40:33.92Z</time></trkpt><trkpt lat="44.18529829753998" lon="10.289475092126871"><ele>539.0</ele><time>2026-04-26T15:40:34.92Z</time></trkpt><trkpt lat="44.185222537921746" lon="10.289397292979142"><ele>540.2</ele><time>2026-04-26T15:40:35.92Z</time></trkpt><trkpt lat="44.1851249207522" lon="10.28934234189515"><ele>541.4</ele><time>2026-04-26T15:40:36.92Z</time></trkpt><trkpt lat="44.18502159218277" lon="10.289303903586239"><ele>542.6</ele><time>2026-04-26T15:40:37.92Z</time></trkpt><trkpt lat="44.184917762235415" lon="10.289269846022494"><ele>543.8</ele><time>2026-04-26T15:40:38.92Z</time></trkpt><trkpt lat="44.184826623802195" lon="10.289247940574134"><ele>545.0</ele><time>2026-04-26T15:40:39.92Z</time></trkpt><trkpt lat="44.18475404897158" lon="10.28922939646669"><ele>545.2</ele><time>2026-04-26T15:40:40.92Z</time></trkpt><trkpt lat="44.184678100097095" lon="10.289127429875473"><ele>545.4</ele><time>2026-04-26T15:40:42.92Z</time></trkpt><trkpt lat="44.184718179961614" lon="10.288953361469877"><ele>545.6</ele><time>2026-04-26T15:40:44.92Z</time></trkpt><trkpt lat="44.184764438765285" lon="10.288846574306863"><ele>545.8</ele><time>2026-04-26T15:40:45.92Z</time></trkpt><trkpt lat="44.18481274209134" lon="10.288718476649466"><ele>546.0</ele><time>2026-04-26T15:40:46.92Z</time></trkpt><trkpt lat="44.18486795510438" lon="10.288580578631056"><ele>546.0</ele><time>2026-04-26T15:40:47.92Z</time></trkpt><trkpt lat="44.18492477932063" lon="10.288440648499122"><ele>546.0</ele><time>2026-04-26T15:40:48.92Z</time></trkpt><trkpt lat="44.184975876606835" lon="10.288289423459997"><ele>546.0</ele><time>2026-04-26T15:40:49.92Z</time></trkpt><trkpt lat="44.18503356603332" lon="10.288128771219638"><ele>546.0</ele><time>2026-04-26T15:40:50.92Z</time></trkpt><trkpt lat="44.18509556897137" lon="10.287967259431213"><ele>545.25</ele><time>2026-04-26T15:40:51.92Z</time></trkpt><trkpt lat="44.18515834594538" lon="10.28780160873491"><ele>544.5</ele><time>2026-04-26T15:40:52.921Z</time></trkpt><trkpt lat="44.18522114443342" lon="10.287637791162963"><ele>543.75</ele><time>2026-04-26T15:40:53.921Z</time></trkpt><trkpt lat="44.18528139472464" lon="10.28747925865677"><ele>543.0</ele><time>2026-04-26T15:40:54.921Z</time></trkpt><trkpt lat="44.18533843430504" lon="10.287330497306835"><ele>540.75</ele><time>2026-04-26T15:40:55.921Z</time></trkpt><trkpt lat="44.18539639863566" lon="10.287180844901057"><ele>538.5</ele><time>2026-04-26T15:40:56.921Z</time></trkpt><trkpt lat="44.18546597718657" lon="10.287030268664209"><ele>536.25</ele><time>2026-04-26T15:40:57.921Z</time></trkpt><trkpt lat="44.185556323347164" lon="10.286886833857219"><ele>534.0</ele><time>2026-04-26T15:40:58.921Z</time></trkpt><trkpt lat="44.1856749345174" lon="10.286775814454314"><ele>536.25</ele><time>2026-04-26T15:40:59.921Z</time></trkpt><trkpt lat="44.18578963813517" lon="10.286669303838105"><ele>538.5</ele><time>2026-04-26T15:41:00.921Z</time></trkpt><trkpt lat="44.185897148460256" lon="10.286554941118991"><ele>540.75</ele><time>2026-04-26T15:41:01.921Z</time></trkpt><trkpt lat="44.18598565205188" lon="10.28641960327526"><ele>543.0</ele><time>2026-04-26T15:41:02.921Z</time></trkpt><trkpt lat="44.18605849937452" lon="10.28627418063334"><ele>543.0</ele><time>2026-04-26T15:41:03.921Z</time></trkpt><trkpt lat="44.18612072248371" lon="10.286131827079647"><ele>543.0</ele><time>2026-04-26T15:41:04.921Z</time></trkpt><trkpt lat="44.186192510909656" lon="10.28600667609886"><ele>543.0</ele><time>2026-04-26T15:41:05.921Z</time></trkpt><trkpt lat="44.18628121717186" lon="10.285922645681683"><ele>543.0</ele><time>2026-04-26T15:41:06.921Z</time></trkpt><trkpt lat="44.18638476013168" lon="10.28587445199717"><ele>543.0</ele><time>2026-04-26T15:41:07.921Z</time></trkpt><trkpt lat="44.18649361335361" lon="10.285863150155093"><ele>543.0</ele><time>2026-04-26T15:41:08.921Z</time></trkpt><trkpt lat="44.186603069093145" lon="10.28586645184839"><ele>543.0</ele><time>2026-04-26T15:41:09.921Z</time></trkpt><trkpt lat="44.18671312282783" lon="10.285846208567733"><ele>543.0</ele><time>2026-04-26T15:41:10.921Z</time></trkpt><trkpt lat="44.186802601082945" lon="10.285759122830104"><ele>543.0</ele><time>2026-04-26T15:41:11.921Z</time></trkpt><trkpt lat="44.18687669771981" lon="10.285608463269941"><ele>545.0</ele><time>2026-04-26T15:41:12.921Z</time></trkpt><trkpt lat="44.186939396184265" lon="10.285392091292533"><ele>547.0</ele><time>2026-04-26T15:41:13.921Z</time></trkpt><trkpt lat="44.18700301842327" lon="10.285134753749706"><ele>549.0</ele><time>2026-04-26T15:41:14.921Z</time></trkpt><trkpt lat="44.187101369481304" lon="10.28486067846253"><ele>545.6666666666666</ele><time>2026-04-26T15:41:15.921Z</time></trkpt><trkpt lat="44.187220708253776" lon="10.284594740867252"><ele>542.3333333333333</ele><time>2026-04-26T15:41:16.921Z</time></trkpt><trkpt lat="44.18732065560647" lon="10.28436456789664"><ele>539.0</ele><time>2026-04-26T15:41:17.921Z</time></trkpt><trkpt lat="44.187407478306575" lon="10.284146882462107"><ele>544.6666666666666</ele><time>2026-04-26T15:41:18.921Z</time></trkpt><trkpt lat="44.18748727224853" lon="10.283937099171236"><ele>550.3333333333334</ele><time>2026-04-26T15:41:19.921Z</time></trkpt><trkpt lat="44.18757431154414" lon="10.283736819814571"><ele>556.0</ele><time>2026-04-26T15:41:20.921Z</time></trkpt><trkpt lat="44.18767171958829" lon="10.283560512429062"><ele>556.0</ele><time>2026-04-26T15:41:21.921Z</time></trkpt><trkpt lat="44.187795227759814" lon="10.28339982313394"><ele>556.0</ele><time>2026-04-26T15:41:22.921Z</time></trkpt><trkpt lat="44.187925631387266" lon="10.283250593322892"><ele>556.0</ele><time>2026-04-26T15:41:23.921Z</time></trkpt><trkpt lat="44.18806594436826" lon="10.283114900756733"><ele>556.75</ele><time>2026-04-26T15:41:24.921Z</time></trkpt><trkpt lat="44.18819392794718" lon="10.282990757446951"><ele>557.5</ele><time>2026-04-26T15:41:25.921Z</time></trkpt><trkpt lat="44.188307643957444" lon="10.282881386036545"><ele>558.25</ele><time>2026-04-26T15:41:26.921Z</time></trkpt><trkpt lat="44.188417987025105" lon="10.282806147923438"><ele>559.0</ele><time>2026-04-26T15:41:27.921Z</time></trkpt><trkpt lat="44.18853479107129" lon="10.282765323504284"><ele>559.0</ele><time>2026-04-26T15:41:28.921Z</time></trkpt><trkpt lat="44.188660057566445" lon="10.282775880479837"><ele>559.0</ele><time>2026-04-26T15:41:29.921Z</time></trkpt><trkpt lat="44.18878984935379" lon="10.282846666120394"><ele>559.0</ele><time>2026-04-26T15:41:30.921Z</time></trkpt><trkpt lat="44.18892696921929" lon="10.282927505567317"><ele>559.0</ele><time>2026-04-26T15:41:31.921Z</time></trkpt><trkpt lat="44.18907526839937" lon="10.283018131753389"><ele>563.0</ele><time>2026-04-26T15:41:32.921Z</time></trkpt><trkpt lat="44.18922959169034" lon="10.283105204982931"><ele>567.0</ele><time>2026-04-26T15:41:33.921Z</time></trkpt><trkpt lat="44.18937960915809" lon="10.28317956766367"><ele>571.0</ele><time>2026-04-26T15:41:34.921Z</time></trkpt><trkpt lat="44.18953028395875" lon="10.283247185772199"><ele>571.0</ele><time>2026-04-26T15:41:35.921Z</time></trkpt><trkpt lat="44.189688553151115" lon="10.28328757970735"><ele>571.0</ele><time>2026-04-26T15:41:36.921Z</time></trkpt><trkpt lat="44.1898531104471" lon="10.283292695357725"><ele>571.0</ele><time>2026-04-26T15:41:37.921Z</time></trkpt><trkpt lat="44.19001898719266" lon="10.28328449455352"><ele>571.3333333333334</ele><time>2026-04-26T15:41:38.921Z</time></trkpt><trkpt lat="44.19018551526524" lon="10.283270228886655"><ele>571.6666666666666</ele><time>2026-04-26T15:41:39.921Z</time></trkpt><trkpt lat="44.19034346030807" lon="10.283263750815028"><ele>572.0</ele><time>2026-04-26T15:41:40.921Z</time></trkpt><trkpt lat="44.19048725113561" lon="10.283248172857485"><ele>572.0</ele><time>2026-04-26T15:41:41.921Z</time></trkpt><trkpt lat="44.19061793768428" lon="10.28324286016808"><ele>572.0</ele><time>2026-04-26T15:41:42.921Z</time></trkpt><trkpt lat="44.190734698635985" lon="10.283224527692997"><ele>572.0</ele><time>2026-04-26T15:41:43.921Z</time></trkpt><trkpt lat="44.1908450110777" lon="10.283163940145899"><ele>572.0</ele><time>2026-04-26T15:41:44.921Z</time></trkpt><trkpt lat="44.19094285978797" lon="10.283039991531417"><ele>572.0</ele><time>2026-04-26T15:41:45.921Z</time></trkpt><trkpt lat="44.19103380467078" lon="10.282895415891268"><ele>572.0</ele><time>2026-04-26T15:41:46.921Z</time></trkpt><trkpt lat="44.19112164348785" lon="10.282727650307995"><ele>572.0</ele><time>2026-04-26T15:41:47.921Z</time></trkpt><trkpt lat="44.19121176100492" lon="10.282569429930396"><ele>572.0</ele><time>2026-04-26T15:41:48.921Z</time></trkpt><trkpt lat="44.19130544495967" lon="10.282419455387831"><ele>572.0</ele><time>2026-04-26T15:41:49.921Z</time></trkpt><trkpt lat="44.19139851183628" lon="10.282275596048915"><ele>572.0</ele><time>2026-04-26T15:41:50.921Z</time></trkpt><trkpt lat="44.1914916340713" lon="10.282135813589141"><ele>572.0</ele><time>2026-04-26T15:41:51.921Z</time></trkpt><trkpt lat="44.19157959891784" lon="10.281996121734087"><ele>572.0</ele><time>2026-04-26T15:41:52.921Z</time></trkpt><trkpt lat="44.19166633822871" lon="10.281860257645286"><ele>572.75</ele><time>2026-04-26T15:41:53.921Z</time></trkpt><trkpt lat="44.19175002711951" lon="10.281720537450566"><ele>573.5</ele><time>2026-04-26T15:41:54.921Z</time></trkpt><trkpt lat="44.19182729633109" lon="10.28159509373717"><ele>574.25</ele><time>2026-04-26T15:41:55.921Z</time></trkpt><trkpt lat="44.19191010831029" lon="10.281481166344387"><ele>575.0</ele><time>2026-04-26T15:41:56.921Z</time></trkpt><trkpt lat="44.192003282889516" lon="10.281379861248908"><ele>571.5</ele><time>2026-04-26T15:41:57.921Z</time></trkpt><trkpt lat="44.19212581611239" lon="10.28130695745561"><ele>568.0</ele><time>2026-04-26T15:41:58.921Z</time></trkpt><trkpt lat="44.19226169552097" lon="10.281272565267876"><ele>564.5</ele><time>2026-04-26T15:41:59.921Z</time></trkpt><trkpt lat="44.19240539101765" lon="10.281254870294447"><ele>561.0</ele><time>2026-04-26T15:42:00.919Z</time></trkpt><trkpt lat="44.19255419103514" lon="10.281243376826314"><ele>561.0</ele><time>2026-04-26T15:42:01.919Z</time></trkpt><trkpt lat="44.19269875546621" lon="10.281221997719564"><ele>561.0</ele><time>2026-04-26T15:42:02.919Z</time></trkpt><trkpt lat="44.19282937372926" lon="10.281191276106536"><ele>561.0</ele><time>2026-04-26T15:42:03.919Z</time></trkpt><trkpt lat="44.192940580855776" lon="10.281158481727399"><ele>561.0</ele><time>2026-04-26T15:42:04.919Z</time></trkpt><trkpt lat="44.19305207629586" lon="10.281142339127838"><ele>561.0</ele><time>2026-04-26T15:42:05.919Z</time></trkpt><trkpt lat="44.19316403062687" lon="10.281148343609951"><ele>561.0</ele><time>2026-04-26T15:42:06.919Z</time></trkpt><trkpt lat="44.193277932515386" lon="10.281170055888738"><ele>561.0</ele><time>2026-04-26T15:42:07.92Z</time></trkpt><trkpt lat="44.19338493185035" lon="10.281212773037675"><ele>561.0</ele><time>2026-04-26T15:42:08.92Z</time></trkpt><trkpt lat="44.193478759144654" lon="10.281283959888896"><ele>561.0</ele><time>2026-04-26T15:42:09.919Z</time></trkpt><trkpt lat="44.193552480489835" lon="10.28141939121129"><ele>567.0</ele><time>2026-04-26T15:42:10.92Z</time></trkpt><trkpt lat="44.19361996091523" lon="10.281582584049863"><ele>573.0</ele><time>2026-04-26T15:42:11.92Z</time></trkpt><trkpt lat="44.193704803783014" lon="10.28175507855949"><ele>579.0</ele><time>2026-04-26T15:42:12.919Z</time></trkpt><trkpt lat="44.19379281215144" lon="10.281920073732435"><ele>585.0</ele><time>2026-04-26T15:42:13.92Z</time></trkpt><trkpt lat="44.19388624818023" lon="10.282061204081792"><ele>585.0</ele><time>2026-04-26T15:42:14.92Z</time></trkpt><trkpt lat="44.19398737313464" lon="10.28218472511687"><ele>585.0</ele><time>2026-04-26T15:42:15.92Z</time></trkpt><trkpt lat="44.19408941506102" lon="10.282293544252195"><ele>585.0</ele><time>2026-04-26T15:42:16.92Z</time></trkpt><trkpt lat="44.19418308267651" lon="10.282390353691596"><ele>585.0</ele><time>2026-04-26T15:42:17.92Z</time></trkpt><trkpt lat="44.19426710092302" lon="10.282450467753858"><ele>586.2</ele><time>2026-04-26T15:42:18.92Z</time></trkpt><trkpt lat="44.194358048433934" lon="10.282461207437784"><ele>587.4</ele><time>2026-04-26T15:42:19.92Z</time></trkpt><trkpt lat="44.19444325545372" lon="10.282404049246692"><ele>588.6</ele><time>2026-04-26T15:42:20.92Z</time></trkpt><trkpt lat="44.19451869005761" lon="10.282294831290185"><ele>589.8</ele><time>2026-04-26T15:42:21.92Z</time></trkpt><trkpt lat="44.194548210587726" lon="10.282148931323029"><ele>591.0</ele><time>2026-04-26T15:42:22.92Z</time></trkpt><trkpt lat="44.194539259363935" lon="10.281999762470836"><ele>588.6</ele><time>2026-04-26T15:42:23.92Z</time></trkpt><trkpt lat="44.19451727981218" lon="10.28183400873434"><ele>586.2</ele><time>2026-04-26T15:42:24.92Z</time></trkpt><trkpt lat="44.19453739454039" lon="10.281703354826595"><ele>583.8</ele><time>2026-04-26T15:42:25.92Z</time></trkpt><trkpt lat="44.19460272979784" lon="10.281609209656912"><ele>581.4</ele><time>2026-04-26T15:42:26.92Z</time></trkpt><trkpt lat="44.194705299941525" lon="10.281548581190911"><ele>579.0</ele><time>2026-04-26T15:42:27.92Z</time></trkpt><trkpt lat="44.19482480586988" lon="10.281485553335827"><ele>580.5</ele><time>2026-04-26T15:42:28.92Z</time></trkpt><trkpt lat="44.19495049808341" lon="10.281410419777352"><ele>582.0</ele><time>2026-04-26T15:42:29.92Z</time></trkpt><trkpt lat="44.19506473792251" lon="10.281312494343336"><ele>583.5</ele><time>2026-04-26T15:42:30.92Z</time></trkpt><trkpt lat="44.19515484464388" lon="10.281187624208082"><ele>585.0</ele><time>2026-04-26T15:42:31.92Z</time></trkpt><trkpt lat="44.195220551427866" lon="10.281044998178196"><ele>585.0</ele><time>2026-04-26T15:42:32.92Z</time></trkpt><trkpt lat="44.19526143132895" lon="10.280881437592015"><ele>585.0</ele><time>2026-04-26T15:42:33.92Z</time></trkpt><trkpt lat="44.19527688955115" lon="10.280703981125004"><ele>585.0</ele><time>2026-04-26T15:42:34.92Z</time></trkpt><trkpt lat="44.1952677023561" lon="10.280508905738277"><ele>585.0</ele><time>2026-04-26T15:42:35.92Z</time></trkpt><trkpt lat="44.195255385253894" lon="10.280320777595627"><ele>583.6</ele><time>2026-04-26T15:42:36.92Z</time></trkpt><trkpt lat="44.195256870438186" lon="10.280164267023439"><ele>582.2</ele><time>2026-04-26T15:42:37.92Z</time></trkpt><trkpt lat="44.19526228277449" lon="10.280027367819912"><ele>580.8</ele><time>2026-04-26T15:42:38.92Z</time></trkpt><trkpt lat="44.19528266615674" lon="10.279908145414323"><ele>579.4</ele><time>2026-04-26T15:42:39.92Z</time></trkpt><trkpt lat="44.1953321330994" lon="10.279798813651723"><ele>578.0</ele><time>2026-04-26T15:42:40.92Z</time></trkpt><trkpt lat="44.1954129282415" lon="10.279709995390613"><ele>578.8</ele><time>2026-04-26T15:42:41.92Z</time></trkpt><trkpt lat="44.195510948640546" lon="10.279654148269453"><ele>579.5999999999999</ele><time>2026-04-26T15:42:42.92Z</time></trkpt><trkpt lat="44.195614178334445" lon="10.2796092635168"><ele>580.4000000000001</ele><time>2026-04-26T15:42:43.92Z</time></trkpt><trkpt lat="44.1957228274121" lon="10.279553574827853"><ele>581.2</ele><time>2026-04-26T15:42:44.92Z</time></trkpt><trkpt lat="44.19582568145377" lon="10.279507968849037"><ele>582.0</ele><time>2026-04-26T15:42:45.92Z</time></trkpt><trkpt lat="44.19591209496038" lon="10.279512140505222"><ele>582.0</ele><time>2026-04-26T15:42:46.92Z</time></trkpt><trkpt lat="44.19599415056546" lon="10.27956254063052"><ele>582.0</ele><time>2026-04-26T15:42:47.92Z</time></trkpt><trkpt lat="44.196087698937625" lon="10.27958923207689"><ele>582.0</ele><time>2026-04-26T15:42:48.92Z</time></trkpt><trkpt lat="44.196176857187744" lon="10.27958196438821"><ele>582.0</ele><time>2026-04-26T15:42:49.92Z</time></trkpt><trkpt lat="44.19625558324479" lon="10.279523590573321"><ele>582.0</ele><time>2026-04-26T15:42:50.92Z</time></trkpt><trkpt lat="44.19633043007746" lon="10.279420735932387"><ele>582.0</ele><time>2026-04-26T15:42:51.92Z</time></trkpt><trkpt lat="44.196403804802706" lon="10.27930050730641"><ele>582.0</ele><time>2026-04-26T15:42:52.92Z</time></trkpt><trkpt lat="44.19649068250855" lon="10.279182150518949"><ele>582.0</ele><time>2026-04-26T15:42:53.92Z</time></trkpt><trkpt lat="44.196580821718264" lon="10.27906037118805"><ele>582.0</ele><time>2026-04-26T15:42:54.92Z</time></trkpt><trkpt lat="44.196675972796044" lon="10.278941029057178"><ele>582.6</ele><time>2026-04-26T15:42:55.92Z</time></trkpt><trkpt lat="44.196761008078994" lon="10.27883464961738"><ele>583.2</ele><time>2026-04-26T15:42:56.92Z</time></trkpt><trkpt lat="44.19682818285296" lon="10.278715263440311"><ele>583.8</ele><time>2026-04-26T15:42:57.92Z</time></trkpt><trkpt lat="44.19687295992574" lon="10.27857434151962"><ele>584.4</ele><time>2026-04-26T15:42:58.92Z</time></trkpt><trkpt lat="44.196899046999874" lon="10.27842628876108"><ele>585.0</ele><time>2026-04-26T15:42:59.92Z</time></trkpt><trkpt lat="44.196911828029044" lon="10.278266886230064"><ele>585.0</ele><time>2026-04-26T15:43:00.92Z</time></trkpt><trkpt lat="44.19691660022136" lon="10.27811110697174"><ele>585.0</ele><time>2026-04-26T15:43:01.92Z</time></trkpt><trkpt lat="44.19693553595504" lon="10.277959288251374"><ele>585.0</ele><time>2026-04-26T15:43:02.92Z</time></trkpt><trkpt lat="44.19696755175468" lon="10.277831415888212"><ele>585.0</ele><time>2026-04-26T15:43:03.92Z</time></trkpt><trkpt lat="44.1970313711298" lon="10.27772312969512"><ele>585.0</ele><time>2026-04-26T15:43:04.92Z</time></trkpt><trkpt lat="44.19713892529863" lon="10.27764061588462"><ele>585.25</ele><time>2026-04-26T15:43:05.92Z</time></trkpt><trkpt lat="44.19726445395687" lon="10.277576412288917"><ele>585.5</ele><time>2026-04-26T15:43:06.92Z</time></trkpt><trkpt lat="44.19739036253084" lon="10.277525514785937"><ele>585.75</ele><time>2026-04-26T15:43:07.92Z</time></trkpt><trkpt lat="44.197527816208286" lon="10.27749575553204"><ele>586.0</ele><time>2026-04-26T15:43:08.92Z</time></trkpt><trkpt lat="44.19767968523064" lon="10.277489878406048"><ele>586.0</ele><time>2026-04-26T15:43:09.92Z</time></trkpt><trkpt lat="44.19783717772981" lon="10.277474159075503"><ele>586.0</ele><time>2026-04-26T15:43:10.92Z</time></trkpt><trkpt lat="44.197985801430086" lon="10.277432959697911"><ele>586.0</ele><time>2026-04-26T15:43:11.92Z</time></trkpt><trkpt lat="44.198129093028896" lon="10.277401740059808"><ele>586.0</ele><time>2026-04-26T15:43:12.92Z</time></trkpt><trkpt lat="44.19826255562114" lon="10.277392743115469"><ele>586.0</ele><time>2026-04-26T15:43:13.92Z</time></trkpt><trkpt lat="44.198385251506124" lon="10.277357392245236"><ele>586.0</ele><time>2026-04-26T15:43:14.92Z</time></trkpt><trkpt lat="44.19850814752787" lon="10.277305145337424"><ele>586.0</ele><time>2026-04-26T15:43:15.92Z</time></trkpt><trkpt lat="44.198590027007114" lon="10.27716752360259"><ele>586.0</ele><time>2026-04-26T15:43:16.92Z</time></trkpt><trkpt lat="44.19865455093413" lon="10.276990362546615"><ele>586.0</ele><time>2026-04-26T15:43:17.92Z</time></trkpt><trkpt lat="44.19871897727035" lon="10.276793692228031"><ele>586.0</ele><time>2026-04-26T15:43:18.92Z</time></trkpt><trkpt lat="44.1987962467508" lon="10.276617584451678"><ele>586.0</ele><time>2026-04-26T15:43:19.92Z</time></trkpt><trkpt lat="44.198862352403125" lon="10.27646774667186"><ele>589.0</ele><time>2026-04-26T15:43:20.92Z</time></trkpt><trkpt lat="44.198916675977344" lon="10.276331134461662"><ele>592.0</ele><time>2026-04-26T15:43:21.92Z</time></trkpt><trkpt lat="44.198938759820855" lon="10.276201709454183"><ele>595.0</ele><time>2026-04-26T15:43:22.92Z</time></trkpt><trkpt lat="44.19890943949916" lon="10.276084669618331"><ele>598.0</ele><time>2026-04-26T15:43:23.92Z</time></trkpt><trkpt lat="44.19885155594464" lon="10.275996321846025"><ele>601.0</ele><time>2026-04-26T15:43:24.92Z</time></trkpt><trkpt lat="44.198754291764146" lon="10.275924628354211"><ele>601.0</ele><time>2026-04-26T15:43:25.92Z</time></trkpt><trkpt lat="44.19864010762911" lon="10.275920840371494"><ele>601.0</ele><time>2026-04-26T15:43:26.92Z</time></trkpt><trkpt lat="44.19852958447379" lon="10.27599705081863"><ele>601.0</ele><time>2026-04-26T15:43:27.92Z</time></trkpt><trkpt lat="44.198446173821935" lon="10.276133993926504"><ele>601.0</ele><time>2026-04-26T15:43:28.92Z</time></trkpt><trkpt lat="44.198378532682455" lon="10.276290039240973"><ele>601.0</ele><time>2026-04-26T15:43:29.92Z</time></trkpt><trkpt lat="44.1982988982345" lon="10.276432847913673"><ele>601.0</ele><time>2026-04-26T15:43:30.92Z</time></trkpt><trkpt lat="44.19821515047833" lon="10.276508080951338"><ele>601.0</ele><time>2026-04-26T15:43:31.92Z</time></trkpt><trkpt lat="44.19812281302823" lon="10.27653641346103"><ele>601.0</ele><time>2026-04-26T15:43:32.92Z</time></trkpt><trkpt lat="44.19801125642969" lon="10.27652557078193"><ele>601.0</ele><time>2026-04-26T15:43:33.92Z</time></trkpt><trkpt lat="44.19788462825443" lon="10.276474988717421"><ele>604.0</ele><time>2026-04-26T15:43:34.92Z</time></trkpt><trkpt lat="44.197748805922046" lon="10.27643481329131"><ele>607.0</ele><time>2026-04-26T15:43:35.92Z</time></trkpt><trkpt lat="44.19760426696577" lon="10.27644346006827"><ele>610.0</ele><time>2026-04-26T15:43:36.92Z</time></trkpt><trkpt lat="44.197449506375634" lon="10.276540287893276"><ele>604.0</ele><time>2026-04-26T15:43:37.92Z</time></trkpt><trkpt lat="44.19728552982887" lon="10.276626617767699"><ele>598.0</ele><time>2026-04-26T15:43:38.92Z</time></trkpt><trkpt lat="44.197121924362065" lon="10.27669092289928"><ele>592.0</ele><time>2026-04-26T15:43:39.92Z</time></trkpt><trkpt lat="44.196975482487574" lon="10.276766424317888"><ele>592.0</ele><time>2026-04-26T15:43:40.92Z</time></trkpt><trkpt lat="44.19685186641096" lon="10.276814236950665"><ele>592.0</ele><time>2026-04-26T15:43:41.92Z</time></trkpt><trkpt lat="44.19675583130924" lon="10.276861806894694"><ele>592.0</ele><time>2026-04-26T15:43:42.92Z</time></trkpt><trkpt lat="44.196665694289976" lon="10.276876393062766"><ele>592.0</ele><time>2026-04-26T15:43:43.92Z</time></trkpt><trkpt lat="44.19657383018646" lon="10.276836721030843"><ele>592.0</ele><time>2026-04-26T15:43:44.92Z</time></trkpt><trkpt lat="44.196498324525585" lon="10.276727313763491"><ele>593.25</ele><time>2026-04-26T15:43:45.92Z</time></trkpt><trkpt lat="44.19643538802062" lon="10.276568156131978"><ele>594.5</ele><time>2026-04-26T15:43:46.92Z</time></trkpt><trkpt lat="44.19636292078436" lon="10.276389437157766"><ele>595.75</ele><time>2026-04-26T15:43:47.92Z</time></trkpt><trkpt lat="44.19626595666745" lon="10.27621983164548"><ele>597.0</ele><time>2026-04-26T15:43:48.92Z</time></trkpt><trkpt lat="44.19617086684121" lon="10.276045806597253"><ele>597.0</ele><time>2026-04-26T15:43:49.92Z</time></trkpt><trkpt lat="44.19607455223808" lon="10.275877975534874"><ele>597.0</ele><time>2026-04-26T15:43:50.92Z</time></trkpt><trkpt lat="44.195975531483" lon="10.275729976546756"><ele>597.0</ele><time>2026-04-26T15:43:51.92Z</time></trkpt><trkpt lat="44.19586625571722" lon="10.275611420664713"><ele>597.0</ele><time>2026-04-26T15:43:52.92Z</time></trkpt><trkpt lat="44.19574972627197" lon="10.275522353550784"><ele>599.75</ele><time>2026-04-26T15:43:53.92Z</time></trkpt><trkpt lat="44.195626725493625" lon="10.275458825219413"><ele>602.5</ele><time>2026-04-26T15:43:54.92Z</time></trkpt><trkpt lat="44.19550369802074" lon="10.275412660175775"><ele>605.25</ele><time>2026-04-26T15:43:55.92Z</time></trkpt><trkpt lat="44.19536436209208" lon="10.275385560175145"><ele>608.0</ele><time>2026-04-26T15:43:56.92Z</time></trkpt><trkpt lat="44.19521656752322" lon="10.275357566561972"><ele>608.0</ele><time>2026-04-26T15:43:57.92Z</time></trkpt><trkpt lat="44.19506715578408" lon="10.275314936100102"><ele>608.0</ele><time>2026-04-26T15:43:58.92Z</time></trkpt><trkpt lat="44.19492930038461" lon="10.275271839873195"><ele>608.0</ele><time>2026-04-26T15:43:59.92Z</time></trkpt><trkpt lat="44.19481447919708" lon="10.275229276073357"><ele>608.0</ele><time>2026-04-26T15:44:00.92Z</time></trkpt><trkpt lat="44.1947256775701" lon="10.275193764504307"><ele>609.0</ele><time>2026-04-26T15:44:01.92Z</time></trkpt><trkpt lat="44.19465873723916" lon="10.275149907331212"><ele>610.0</ele><time>2026-04-26T15:44:02.92Z</time></trkpt><trkpt lat="44.1946042339263" lon="10.27507347476442"><ele>611.0</ele><time>2026-04-26T15:44:03.92Z</time></trkpt><trkpt lat="44.19458376163548" lon="10.274956265722595"><ele>612.0</ele><time>2026-04-26T15:44:04.92Z</time></trkpt><trkpt lat="44.19458942105755" lon="10.274814333472074"><ele>613.0</ele><time>2026-04-26T15:44:05.92Z</time></trkpt><trkpt lat="44.19461404023739" lon="10.274660702041224"><ele>613.0</ele><time>2026-04-26T15:44:06.919Z</time></trkpt><trkpt lat="44.194622879371366" lon="10.274491460924384"><ele>613.0</ele><time>2026-04-26T15:44:07.919Z</time></trkpt><trkpt lat="44.19462238351078" lon="10.274309717435699"><ele>613.0</ele><time>2026-04-26T15:44:08.919Z</time></trkpt><trkpt lat="44.19462396590399" lon="10.274126778309546"><ele>613.0</ele><time>2026-04-26T15:44:09.918Z</time></trkpt><trkpt lat="44.194638722818176" lon="10.273947049100219"><ele>614.5</ele><time>2026-04-26T15:44:10.918Z</time></trkpt><trkpt lat="44.19467768659367" lon="10.273776408406563"><ele>616.0</ele><time>2026-04-26T15:44:11.918Z</time></trkpt><trkpt lat="44.194722725881206" lon="10.273610260346702"><ele>617.5</ele><time>2026-04-26T15:44:12.919Z</time></trkpt><trkpt lat="44.19476907910782" lon="10.273466717335799"><ele>619.0</ele><time>2026-04-26T15:44:13.918Z</time></trkpt><trkpt lat="44.19481434435346" lon="10.273354625306808"><ele>619.8</ele><time>2026-04-26T15:44:14.918Z</time></trkpt><trkpt lat="44.19487695375874" lon="10.273267670518074"><ele>620.5999999999999</ele><time>2026-04-26T15:44:15.919Z</time></trkpt><trkpt lat="44.194976525815754" lon="10.273224698823523"><ele>621.4</ele><time>2026-04-26T15:44:16.918Z</time></trkpt><trkpt lat="44.19508670534817" lon="10.273192916654015"><ele>622.1999999999999</ele><time>2026-04-26T15:44:17.918Z</time></trkpt><trkpt lat="44.19520454417724" lon="10.27319741728232"><ele>623.0</ele><time>2026-04-26T15:44:18.919Z</time></trkpt><trkpt lat="44.195325528845935" lon="10.273253406382482"><ele>623.0</ele><time>2026-04-26T15:44:19.919Z</time></trkpt><trkpt lat="44.19544859464243" lon="10.273297384758155"><ele>623.0</ele><time>2026-04-26T15:44:20.919Z</time></trkpt><trkpt lat="44.1955548905993" lon="10.273330023943945"><ele>623.0</ele><time>2026-04-26T15:44:21.919Z</time></trkpt><trkpt lat="44.19563290821526" lon="10.273329351522886"><ele>623.0</ele><time>2026-04-26T15:44:22.919Z</time></trkpt><trkpt lat="44.19569011026317" lon="10.273285253102314"><ele>623.0</ele><time>2026-04-26T15:44:23.919Z</time></trkpt><trkpt lat="44.19570907255622" lon="10.273194868996068"><ele>623.0</ele><time>2026-04-26T15:44:24.919Z</time></trkpt><trkpt lat="44.19569403742643" lon="10.273078635968094"><ele>625.6666666666666</ele><time>2026-04-26T15:44:25.919Z</time></trkpt><trkpt lat="44.19564199106222" lon="10.272918141771653"><ele>628.3333333333334</ele><time>2026-04-26T15:44:26.919Z</time></trkpt><trkpt lat="44.19555469483044" lon="10.272723979740697"><ele>631.0</ele><time>2026-04-26T15:44:27.919Z</time></trkpt><trkpt lat="44.19546478469985" lon="10.272527170781643"><ele>631.0</ele><time>2026-04-26T15:44:28.919Z</time></trkpt><trkpt lat="44.195369006125645" lon="10.272349824138702"><ele>631.0</ele><time>2026-04-26T15:44:29.919Z</time></trkpt><trkpt lat="44.195291314374195" lon="10.272219404862888"><ele>631.0</ele><time>2026-04-26T15:44:30.919Z</time></trkpt><trkpt lat="44.19524660001379" lon="10.27211663329547"><ele>631.0</ele><time>2026-04-26T15:44:31.919Z</time></trkpt><trkpt lat="44.19523456767588" lon="10.2720290525996"><ele>631.0</ele><time>2026-04-26T15:44:32.919Z</time></trkpt><trkpt lat="44.19524857043733" lon="10.271941113949735"><ele>631.0</ele><time>2026-04-26T15:44:33.919Z</time></trkpt><trkpt lat="44.19529611599749" lon="10.271803963615458"><ele>631.0</ele><time>2026-04-26T15:44:34.919Z</time></trkpt><trkpt lat="44.195353569700885" lon="10.271639687144576"><ele>631.0</ele><time>2026-04-26T15:44:35.919Z</time></trkpt><trkpt lat="44.19540505366109" lon="10.271453717033031"><ele>631.0</ele><time>2026-04-26T15:44:36.919Z</time></trkpt><trkpt lat="44.19544824977321" lon="10.271258624060687"><ele>631.0</ele><time>2026-04-26T15:44:37.919Z</time></trkpt><trkpt lat="44.19549366732882" lon="10.271097666504284"><ele>631.0</ele><time>2026-04-26T15:44:38.919Z</time></trkpt><trkpt lat="44.19553025210726" lon="10.270951517355863"><ele>631.0</ele><time>2026-04-26T15:44:39.919Z</time></trkpt><trkpt lat="44.19554784819344" lon="10.270804992293929"><ele>631.0</ele><time>2026-04-26T15:44:40.919Z</time></trkpt><trkpt lat="44.19551194205946" lon="10.270653859901314"><ele>633.0</ele><time>2026-04-26T15:44:41.919Z</time></trkpt><trkpt lat="44.19545413545497" lon="10.270512123626448"><ele>635.0</ele><time>2026-04-26T15:44:42.919Z</time></trkpt><trkpt lat="44.19537380883927" lon="10.27038096538492"><ele>637.0</ele><time>2026-04-26T15:44:43.919Z</time></trkpt><trkpt lat="44.19530329126394" lon="10.270249122672036"><ele>639.0</ele><time>2026-04-26T15:44:44.919Z</time></trkpt><trkpt lat="44.19523167932904" lon="10.27011677324366"><ele>639.0</ele><time>2026-04-26T15:44:45.919Z</time></trkpt><trkpt lat="44.195175064074895" lon="10.26997833456006"><ele>639.0</ele><time>2026-04-26T15:44:46.919Z</time></trkpt><trkpt lat="44.1951321283291" lon="10.269833947426463"><ele>639.0</ele><time>2026-04-26T15:44:47.919Z</time></trkpt><trkpt lat="44.19510980104098" lon="10.26967981064335"><ele>639.0</ele><time>2026-04-26T15:44:48.919Z</time></trkpt><trkpt lat="44.19510210069453" lon="10.269542497878021"><ele>639.0</ele><time>2026-04-26T15:44:49.919Z</time></trkpt><trkpt lat="44.19511979864831" lon="10.269409809487236"><ele>639.25</ele><time>2026-04-26T15:44:50.919Z</time></trkpt><trkpt lat="44.19517927417436" lon="10.269287425973618"><ele>639.5</ele><time>2026-04-26T15:44:51.919Z</time></trkpt><trkpt lat="44.19525718543432" lon="10.269175299155808"><ele>639.75</ele><time>2026-04-26T15:44:52.919Z</time></trkpt><trkpt lat="44.19533746520431" lon="10.269042928811574"><ele>640.0</ele><time>2026-04-26T15:44:53.919Z</time></trkpt><trkpt lat="44.19542119177537" lon="10.268913993228093"><ele>639.25</ele><time>2026-04-26T15:44:54.919Z</time></trkpt><trkpt lat="44.195504097401226" lon="10.268780942437687"><ele>638.5</ele><time>2026-04-26T15:44:55.919Z</time></trkpt><trkpt lat="44.19557901151017" lon="10.268645201398334"><ele>637.75</ele><time>2026-04-26T15:44:56.919Z</time></trkpt><trkpt lat="44.19564122047222" lon="10.268516457810689"><ele>637.0</ele><time>2026-04-26T15:44:57.919Z</time></trkpt><trkpt lat="44.19567859078607" lon="10.268359009858475"><ele>638.0</ele><time>2026-04-26T15:44:58.919Z</time></trkpt><trkpt lat="44.19567521249401" lon="10.268169463140268"><ele>639.0</ele><time>2026-04-26T15:44:59.919Z</time></trkpt><trkpt lat="44.19566392977035" lon="10.267976076838735"><ele>640.0</ele><time>2026-04-26T15:45:00.919Z</time></trkpt><trkpt lat="44.195648726639426" lon="10.267778954776485"><ele>641.0</ele><time>2026-04-26T15:45:01.919Z</time></trkpt><trkpt lat="44.19561885790104" lon="10.267594442581462"><ele>641.0</ele><time>2026-04-26T15:45:02.919Z</time></trkpt><trkpt lat="44.195568262206216" lon="10.26741537035555"><ele>641.0</ele><time>2026-04-26T15:45:03.919Z</time></trkpt><trkpt lat="44.19553478656435" lon="10.26725217839554"><ele>641.0</ele><time>2026-04-26T15:45:04.919Z</time></trkpt><trkpt lat="44.195522634805805" lon="10.267112454452883"><ele>641.0</ele><time>2026-04-26T15:45:05.919Z</time></trkpt><trkpt lat="44.1955427572578" lon="10.266962706630327"><ele>642.25</ele><time>2026-04-26T15:45:06.919Z</time></trkpt><trkpt lat="44.19559903778774" lon="10.266792820072622"><ele>643.5</ele><time>2026-04-26T15:45:07.919Z</time></trkpt><trkpt lat="44.19565365672631" lon="10.266623940451613"><ele>644.75</ele><time>2026-04-26T15:45:08.919Z</time></trkpt><trkpt lat="44.195684414185195" lon="10.266462913498675"><ele>646.0</ele><time>2026-04-26T15:45:09.919Z</time></trkpt><trkpt lat="44.19567214610166" lon="10.266286431069739"><ele>646.4</ele><time>2026-04-26T15:45:10.919Z</time></trkpt><trkpt lat="44.19562510172358" lon="10.266109310226133"><ele>646.8</ele><time>2026-04-26T15:45:11.919Z</time></trkpt><trkpt lat="44.19559036140969" lon="10.265964955906963"><ele>647.1999999999999</ele><time>2026-04-26T15:45:12.919Z</time></trkpt><trkpt lat="44.195588676524686" lon="10.26582717371949"><ele>647.5999999999999</ele><time>2026-04-26T15:45:13.919Z</time></trkpt><trkpt lat="44.19562774480153" lon="10.265691202119728"><ele>648.0</ele><time>2026-04-26T15:45:14.919Z</time></trkpt><trkpt lat="44.195715011029456" lon="10.265557645641891"><ele>652.5</ele><time>2026-04-26T15:45:15.919Z</time></trkpt><trkpt lat="44.19581240492928" lon="10.26542516838864"><ele>657.0</ele><time>2026-04-26T15:45:16.919Z</time></trkpt><trkpt lat="44.19589791695983" lon="10.265283090145456"><ele>661.5</ele><time>2026-04-26T15:45:17.919Z</time></trkpt><trkpt lat="44.19594788766078" lon="10.265107460279044"><ele>666.0</ele><time>2026-04-26T15:45:18.919Z</time></trkpt><trkpt lat="44.19597287522093" lon="10.264915945748163"><ele>665.5</ele><time>2026-04-26T15:45:19.919Z</time></trkpt><trkpt lat="44.19599906103181" lon="10.264761774187043"><ele>665.0</ele><time>2026-04-26T15:45:20.919Z</time></trkpt><trkpt lat="44.19605656816726" lon="10.26463528636045"><ele>664.5</ele><time>2026-04-26T15:45:21.919Z</time></trkpt><trkpt lat="44.19616006249853" lon="10.264542159498681"><ele>664.0</ele><time>2026-04-26T15:45:22.919Z</time></trkpt><trkpt lat="44.19627346454051" lon="10.264465235377516"><ele>664.0</ele><time>2026-04-26T15:45:23.919Z</time></trkpt><trkpt lat="44.19641014434945" lon="10.264381113333986"><ele>664.0</ele><time>2026-04-26T15:45:24.919Z</time></trkpt><trkpt lat="44.19655758212952" lon="10.264262598376622"><ele>664.0</ele><time>2026-04-26T15:45:25.919Z</time></trkpt><trkpt lat="44.19671768577967" lon="10.264140955421972"><ele>665.6666666666667</ele><time>2026-04-26T15:45:26.919Z</time></trkpt><trkpt lat="44.19688101604387" lon="10.264018296372564"><ele>667.3333333333334</ele><time>2026-04-26T15:45:27.919Z</time></trkpt><trkpt lat="44.19703446269049" lon="10.263906773847014"><ele>669.0</ele><time>2026-04-26T15:45:28.919Z</time></trkpt><trkpt lat="44.197163070054586" lon="10.263807223347042"><ele>669.0</ele><time>2026-04-26T15:45:29.919Z</time></trkpt><trkpt lat="44.197278647489675" lon="10.263716039840174"><ele>669.0</ele><time>2026-04-26T15:45:30.919Z</time></trkpt><trkpt lat="44.19738891479856" lon="10.263637100738944"><ele>669.0</ele><time>2026-04-26T15:45:31.919Z</time></trkpt><trkpt lat="44.197513537445374" lon="10.263582086950882"><ele>669.0</ele><time>2026-04-26T15:45:32.919Z</time></trkpt><trkpt lat="44.197657090884995" lon="10.26357164371806"><ele>672.25</ele><time>2026-04-26T15:45:33.919Z</time></trkpt><trkpt lat="44.197816976117856" lon="10.263601115487393"><ele>675.5</ele><time>2026-04-26T15:45:34.919Z</time></trkpt><trkpt lat="44.19796938589954" lon="10.2636296858749"><ele>678.75</ele><time>2026-04-26T15:45:35.919Z</time></trkpt><trkpt lat="44.19808904318422" lon="10.263648874432398"><ele>682.0</ele><time>2026-04-26T15:45:36.919Z</time></trkpt><trkpt lat="44.19818051730796" lon="10.263673567243872"><ele>682.0</ele><time>2026-04-26T15:45:37.919Z</time></trkpt><trkpt lat="44.198252232558296" lon="10.26372154954804"><ele>682.0</ele><time>2026-04-26T15:45:38.919Z</time></trkpt><trkpt lat="44.19829207971925" lon="10.26383100482373"><ele>682.0</ele><time>2026-04-26T15:45:39.919Z</time></trkpt><trkpt lat="44.19828525231111" lon="10.263973426511935"><ele>682.0</ele><time>2026-04-26T15:45:40.919Z</time></trkpt><trkpt lat="44.198218131399805" lon="10.264099097614722"><ele>682.0</ele><time>2026-04-26T15:45:41.919Z</time></trkpt><trkpt lat="44.198099134139525" lon="10.264171247209687"><ele>682.5</ele><time>2026-04-26T15:45:42.919Z</time></trkpt><trkpt lat="44.19796020714509" lon="10.264236238927989"><ele>683.0</ele><time>2026-04-26T15:45:43.919Z</time></trkpt><trkpt lat="44.19783343454628" lon="10.264306181344761"><ele>683.5</ele><time>2026-04-26T15:45:44.919Z</time></trkpt><trkpt lat="44.19772654002042" lon="10.26437532703876"><ele>684.0</ele><time>2026-04-26T15:45:45.919Z</time></trkpt><trkpt lat="44.19764311856696" lon="10.264447516137107"><ele>684.0</ele><time>2026-04-26T15:45:46.919Z</time></trkpt><trkpt lat="44.19757804255906" lon="10.264556491829243"><ele>684.0</ele><time>2026-04-26T15:45:47.919Z</time></trkpt><trkpt lat="44.19755627226631" lon="10.264685607858862"><ele>684.0</ele><time>2026-04-26T15:45:48.919Z</time></trkpt><trkpt lat="44.19757741559243" lon="10.264803905357757"><ele>684.0</ele><time>2026-04-26T15:45:49.919Z</time></trkpt><trkpt lat="44.19764541454834" lon="10.26494384876829"><ele>684.0</ele><time>2026-04-26T15:45:50.919Z</time></trkpt><trkpt lat="44.19773237670646" lon="10.265114391141337"><ele>685.6666666666666</ele><time>2026-04-26T15:45:51.919Z</time></trkpt><trkpt lat="44.1978031970375" lon="10.265280781756955"><ele>687.3333333333333</ele><time>2026-04-26T15:45:52.919Z</time></trkpt><trkpt lat="44.1978646573704" lon="10.265432281978853"><ele>689.0</ele><time>2026-04-26T15:45:53.919Z</time></trkpt><trkpt lat="44.19809366682158" lon="10.265643757741232"><ele>691.6666666666666</ele><time>2026-04-26T15:45:56.919Z</time></trkpt><trkpt lat="44.19823027765761" lon="10.265629027666261"><ele>694.3333333333334</ele><time>2026-04-26T15:45:57.919Z</time></trkpt><trkpt lat="44.198387997867194" lon="10.265595887294998"><ele>697.0</ele><time>2026-04-26T15:45:58.919Z</time></trkpt><trkpt lat="44.198563152523995" lon="10.265563322980988"><ele>697.0</ele><time>2026-04-26T15:45:59.919Z</time></trkpt><trkpt lat="44.19875083924719" lon="10.2655413833404"><ele>697.0</ele><time>2026-04-26T15:46:00.919Z</time></trkpt><trkpt lat="44.198912903956646" lon="10.265523797070403"><ele>697.0</ele><time>2026-04-26T15:46:01.919Z</time></trkpt><trkpt lat="44.19905897911389" lon="10.2655230259213"><ele>698.5</ele><time>2026-04-26T15:46:02.919Z</time></trkpt><trkpt lat="44.1991840191268" lon="10.265508792442462"><ele>700.0</ele><time>2026-04-26T15:46:03.919Z</time></trkpt><trkpt lat="44.19930807602675" lon="10.265475487683913"><ele>701.5</ele><time>2026-04-26T15:46:04.919Z</time></trkpt><trkpt lat="44.1994068792519" lon="10.265392727870845"><ele>703.0</ele><time>2026-04-26T15:46:05.919Z</time></trkpt><trkpt lat="44.19946959717121" lon="10.265256992656157"><ele>703.0</ele><time>2026-04-26T15:46:06.919Z</time></trkpt><trkpt lat="44.19950111718825" lon="10.265091600734241"><ele>703.0</ele><time>2026-04-26T15:46:07.919Z</time></trkpt><trkpt lat="44.199522719637635" lon="10.264918519337957"><ele>703.0</ele><time>2026-04-26T15:46:08.919Z</time></trkpt><trkpt lat="44.1995522599984" lon="10.264743476885256"><ele>703.0</ele><time>2026-04-26T15:46:09.919Z</time></trkpt><trkpt lat="44.19959005890505" lon="10.264556959847425"><ele>702.0</ele><time>2026-04-26T15:46:10.919Z</time></trkpt><trkpt lat="44.199627233043174" lon="10.264342115977616"><ele>701.0</ele><time>2026-04-26T15:46:11.919Z</time></trkpt><trkpt lat="44.1996639151539" lon="10.264145194583126"><ele>700.0</ele><time>2026-04-26T15:46:12.918Z</time></trkpt><trkpt lat="44.199668586306316" lon="10.263931558029782"><ele>698.5</ele><time>2026-04-26T15:46:13.918Z</time></trkpt><trkpt lat="44.199663580118504" lon="10.2637421836668"><ele>697.0</ele><time>2026-04-26T15:46:14.918Z</time></trkpt><trkpt lat="44.199677288546006" lon="10.263580326228219"><ele>695.5</ele><time>2026-04-26T15:46:15.917Z</time></trkpt><trkpt lat="44.19973084751145" lon="10.263415989929848"><ele>694.0</ele><time>2026-04-26T15:46:16.917Z</time></trkpt><trkpt lat="44.19978918112163" lon="10.263228746760985"><ele>703.0</ele><time>2026-04-26T15:46:17.917Z</time></trkpt><trkpt lat="44.199870479898074" lon="10.263075744587113"><ele>712.0</ele><time>2026-04-26T15:46:18.918Z</time></trkpt><trkpt lat="44.199978511986416" lon="10.262903145880538"><ele>721.0</ele><time>2026-04-26T15:46:19.918Z</time></trkpt><trkpt lat="44.19994668554065" lon="10.262664236909531"><ele>721.0</ele><time>2026-04-26T15:46:20.918Z</time></trkpt><trkpt lat="44.19996729208906" lon="10.262430964410175"><ele>721.0</ele><time>2026-04-26T15:46:21.918Z</time></trkpt><trkpt lat="44.199992176116794" lon="10.26221488278246"><ele>721.0</ele><time>2026-04-26T15:46:22.918Z</time></trkpt><trkpt lat="44.1999936583642" lon="10.262018306433523"><ele>719.75</ele><time>2026-04-26T15:46:23.918Z</time></trkpt><trkpt lat="44.19998293881895" lon="10.261839942503512"><ele>718.5</ele><time>2026-04-26T15:46:24.918Z</time></trkpt><trkpt lat="44.19998040434348" lon="10.261681179768551"><ele>717.25</ele><time>2026-04-26T15:46:25.918Z</time></trkpt><trkpt lat="44.20002126545865" lon="10.261535416543905"><ele>716.0</ele><time>2026-04-26T15:46:26.918Z</time></trkpt><trkpt lat="44.20012174716412" lon="10.261424028107882"><ele>716.0</ele><time>2026-04-26T15:46:27.918Z</time></trkpt><trkpt lat="44.200240236588215" lon="10.261354169478773"><ele>716.0</ele><time>2026-04-26T15:46:28.918Z</time></trkpt><trkpt lat="44.20035320595865" lon="10.261354272083386"><ele>716.0</ele><time>2026-04-26T15:46:29.918Z</time></trkpt><trkpt lat="44.200464338326974" lon="10.261401414413614"><ele>716.0</ele><time>2026-04-26T15:46:30.918Z</time></trkpt><trkpt lat="44.2005801237267" lon="10.261470388430864"><ele>719.25</ele><time>2026-04-26T15:46:31.918Z</time></trkpt><trkpt lat="44.20072338295391" lon="10.261519225180209"><ele>722.5</ele><time>2026-04-26T15:46:32.918Z</time></trkpt><trkpt lat="44.200870713835734" lon="10.261533756433874"><ele>725.75</ele><time>2026-04-26T15:46:33.918Z</time></trkpt><trkpt lat="44.20102432172356" lon="10.261533536467612"><ele>729.0</ele><time>2026-04-26T15:46:34.918Z</time></trkpt><trkpt lat="44.201153485899255" lon="10.261552070156595"><ele>729.0</ele><time>2026-04-26T15:46:35.918Z</time></trkpt><trkpt lat="44.20126047723675" lon="10.261587163439673"><ele>729.0</ele><time>2026-04-26T15:46:36.918Z</time></trkpt><trkpt lat="44.201332335099394" lon="10.261654715525003"><ele>729.0</ele><time>2026-04-26T15:46:37.918Z</time></trkpt><trkpt lat="44.201379491225126" lon="10.261772554048731"><ele>729.0</ele><time>2026-04-26T15:46:38.918Z</time></trkpt><trkpt lat="44.20136882234122" lon="10.261925255526949"><ele>729.0</ele><time>2026-04-26T15:46:39.918Z</time></trkpt><trkpt lat="44.201326120249654" lon="10.262073849384711"><ele>729.0</ele><time>2026-04-26T15:46:40.918Z</time></trkpt><trkpt lat="44.20126474918557" lon="10.262214501534844"><ele>729.0</ele><time>2026-04-26T15:46:41.918Z</time></trkpt><trkpt lat="44.201254082477114" lon="10.26237460603135"><ele>729.0</ele><time>2026-04-26T15:46:42.918Z</time></trkpt><trkpt lat="44.201267240698826" lon="10.262529371575631"><ele>729.0</ele><time>2026-04-26T15:46:43.918Z</time></trkpt><trkpt lat="44.20132860945381" lon="10.262646996839724"><ele>729.0</ele><time>2026-04-26T15:46:44.918Z</time></trkpt><trkpt lat="44.201421350159556" lon="10.26275730358669"><ele>729.75</ele><time>2026-04-26T15:46:45.918Z</time></trkpt><trkpt lat="44.201530357625565" lon="10.262839317131942"><ele>730.5</ele><time>2026-04-26T15:46:46.918Z</time></trkpt><trkpt lat="44.20165751915773" lon="10.262856357125834"><ele>731.25</ele><time>2026-04-26T15:46:47.918Z</time></trkpt><trkpt lat="44.2018007804611" lon="10.2628293172979"><ele>732.0</ele><time>2026-04-26T15:46:48.918Z</time></trkpt><trkpt lat="44.20193227165122" lon="10.262792912599844"><ele>732.0</ele><time>2026-04-26T15:46:49.918Z</time></trkpt><trkpt lat="44.20204274537168" lon="10.26278820939303"><ele>732.0</ele><time>2026-04-26T15:46:50.918Z</time></trkpt><trkpt lat="44.20211603453408" lon="10.262839544985068"><ele>732.0</ele><time>2026-04-26T15:46:51.918Z</time></trkpt><trkpt lat="44.20216403419746" lon="10.262954968804122"><ele>732.0</ele><time>2026-04-26T15:46:52.918Z</time></trkpt><trkpt lat="44.20219640841984" lon="10.263109637726151"><ele>732.0</ele><time>2026-04-26T15:46:53.918Z</time></trkpt><trkpt lat="44.20223930714502" lon="10.26327525756116"><ele>735.4000000000001</ele><time>2026-04-26T15:46:54.918Z</time></trkpt><trkpt lat="44.20228976938934" lon="10.263408364755975"><ele>738.8000000000001</ele><time>2026-04-26T15:46:55.918Z</time></trkpt><trkpt lat="44.202347917320424" lon="10.263494852870263"><ele>742.2</ele><time>2026-04-26T15:46:56.918Z</time></trkpt><trkpt lat="44.20241881617831" lon="10.26351886934467"><ele>745.6</ele><time>2026-04-26T15:46:57.918Z</time></trkpt><trkpt lat="44.20252578964378" lon="10.263482106324117"><ele>749.0</ele><time>2026-04-26T15:46:58.918Z</time></trkpt><trkpt lat="44.202616279486264" lon="10.263370533535742"><ele>749.0</ele><time>2026-04-26T15:46:59.918Z</time></trkpt><trkpt lat="44.20267546231928" lon="10.263225782616718"><ele>749.0</ele><time>2026-04-26T15:47:00.918Z</time></trkpt><trkpt lat="44.202751186944695" lon="10.263067365820385"><ele>749.0</ele><time>2026-04-26T15:47:01.918Z</time></trkpt><trkpt lat="44.202819617664446" lon="10.262932837940015"><ele>749.0</ele><time>2026-04-26T15:47:02.918Z</time></trkpt><trkpt lat="44.20288547490774" lon="10.262859294007079"><ele>749.0</ele><time>2026-04-26T15:47:03.918Z</time></trkpt><trkpt lat="44.202964522414106" lon="10.262856527599878"><ele>749.0</ele><time>2026-04-26T15:47:04.918Z</time></trkpt><trkpt lat="44.203067056568" lon="10.26289887656051"><ele>749.0</ele><time>2026-04-26T15:47:05.918Z</time></trkpt><trkpt lat="44.20317705951851" lon="10.262945299217625"><ele>749.0</ele><time>2026-04-26T15:47:06.918Z</time></trkpt><trkpt lat="44.20328349604802" lon="10.262947342508264"><ele>749.0</ele><time>2026-04-26T15:47:07.918Z</time></trkpt><trkpt lat="44.20338206169137" lon="10.262848426134939"><ele>749.0</ele><time>2026-04-26T15:47:08.918Z</time></trkpt><trkpt lat="44.203455711247024" lon="10.262696446547523"><ele>749.0</ele><time>2026-04-26T15:47:09.918Z</time></trkpt><trkpt lat="44.20350171748013" lon="10.262536082936501"><ele>749.0</ele><time>2026-04-26T15:47:10.918Z</time></trkpt><trkpt lat="44.203551642585026" lon="10.262340875902693"><ele>749.0</ele><time>2026-04-26T15:47:11.918Z</time></trkpt><trkpt lat="44.20360766980315" lon="10.262110560874207"><ele>745.6666666666666</ele><time>2026-04-26T15:47:12.918Z</time></trkpt><trkpt lat="44.203675995603724" lon="10.261901276766999"><ele>742.3333333333334</ele><time>2026-04-26T15:47:13.918Z</time></trkpt><trkpt lat="44.20375272688988" lon="10.261697444038665"><ele>739.0</ele><time>2026-04-26T15:47:14.918Z</time></trkpt><trkpt lat="44.20383282298367" lon="10.261499550099241"><ele>739.0</ele><time>2026-04-26T15:47:15.918Z</time></trkpt><trkpt lat="44.203908412221686" lon="10.261325309901947"><ele>739.0</ele><time>2026-04-26T15:47:16.918Z</time></trkpt><trkpt lat="44.20399160617243" lon="10.261170975841855"><ele>739.0</ele><time>2026-04-26T15:47:17.918Z</time></trkpt><trkpt lat="44.20408339679363" lon="10.261037319123469"><ele>739.0</ele><time>2026-04-26T15:47:18.918Z</time></trkpt><trkpt lat="44.204182975026335" lon="10.260898472531872"><ele>744.25</ele><time>2026-04-26T15:47:19.918Z</time></trkpt><trkpt lat="44.20427975193083" lon="10.260748755274916"><ele>749.5</ele><time>2026-04-26T15:47:20.918Z</time></trkpt><trkpt lat="44.20435612380764" lon="10.260579427847015"><ele>754.75</ele><time>2026-04-26T15:47:21.918Z</time></trkpt><trkpt lat="44.204410377973964" lon="10.26039262930865"><ele>760.0</ele><time>2026-04-26T15:47:22.918Z</time></trkpt><trkpt lat="44.20446159506471" lon="10.26022363059673"><ele>760.0</ele><time>2026-04-26T15:47:23.918Z</time></trkpt><trkpt lat="44.204529183811665" lon="10.260080591258737"><ele>760.0</ele><time>2026-04-26T15:47:24.918Z</time></trkpt><trkpt lat="44.20462991673469" lon="10.259965019919191"><ele>760.0</ele><time>2026-04-26T15:47:25.918Z</time></trkpt><trkpt lat="44.2047513061006" lon="10.259872772077918"><ele>760.0</ele><time>2026-04-26T15:47:26.918Z</time></trkpt><trkpt lat="44.2048828796147" lon="10.259787621057248"><ele>761.0</ele><time>2026-04-26T15:47:27.918Z</time></trkpt><trkpt lat="44.20502371258947" lon="10.259697297109321"><ele>762.0</ele><time>2026-04-26T15:47:28.918Z</time></trkpt><trkpt lat="44.20516697089827" lon="10.259605584711217"><ele>763.0</ele><time>2026-04-26T15:47:29.918Z</time></trkpt><trkpt lat="44.20530759658159" lon="10.259515293470928"><ele>763.0</ele><time>2026-04-26T15:47:30.918Z</time></trkpt><trkpt lat="44.20542996378532" lon="10.25944039142551"><ele>763.0</ele><time>2026-04-26T15:47:31.918Z</time></trkpt><trkpt lat="44.20552736123805" lon="10.259369057762598"><ele>763.0</ele><time>2026-04-26T15:47:32.918Z</time></trkpt><trkpt lat="44.20559688801023" lon="10.259277236673855"><ele>763.0</ele><time>2026-04-26T15:47:33.918Z</time></trkpt><trkpt lat="44.20564344109734" lon="10.259133575568676"><ele>765.25</ele><time>2026-04-26T15:47:34.918Z</time></trkpt><trkpt lat="44.20566763244029" lon="10.258950293972708"><ele>767.5</ele><time>2026-04-26T15:47:35.918Z</time></trkpt><trkpt lat="44.205697471214876" lon="10.258756383313155"><ele>769.75</ele><time>2026-04-26T15:47:36.918Z</time></trkpt><trkpt lat="44.205758652403915" lon="10.258585066839018"><ele>772.0</ele><time>2026-04-26T15:47:37.918Z</time></trkpt><trkpt lat="44.20585089410099" lon="10.2584255672194"><ele>772.0</ele><time>2026-04-26T15:47:38.918Z</time></trkpt><trkpt lat="44.20595128835674" lon="10.258261734138323"><ele>772.0</ele><time>2026-04-26T15:47:39.918Z</time></trkpt><trkpt lat="44.20605130323512" lon="10.258086431171677"><ele>772.0</ele><time>2026-04-26T15:47:40.918Z</time></trkpt><trkpt lat="44.20614602690986" lon="10.257912343494999"><ele>774.0</ele><time>2026-04-26T15:47:41.918Z</time></trkpt><trkpt lat="44.206246331569965" lon="10.257725847737586"><ele>776.0</ele><time>2026-04-26T15:47:42.918Z</time></trkpt><trkpt lat="44.20634223909367" lon="10.257534297592802"><ele>778.0</ele><time>2026-04-26T15:47:43.918Z</time></trkpt><trkpt lat="44.20643374402805" lon="10.257347491798697"><ele>781.0</ele><time>2026-04-26T15:47:44.918Z</time></trkpt><trkpt lat="44.20651132888879" lon="10.257158006484449"><ele>784.0</ele><time>2026-04-26T15:47:45.918Z</time></trkpt><trkpt lat="44.20658389163469" lon="10.256973347146324"><ele>787.0</ele><time>2026-04-26T15:47:46.918Z</time></trkpt><trkpt lat="44.206662398104164" lon="10.256805243673718"><ele>787.0</ele><time>2026-04-26T15:47:47.918Z</time></trkpt><trkpt lat="44.20671717446484" lon="10.256648764135562"><ele>787.0</ele><time>2026-04-26T15:47:48.918Z</time></trkpt><trkpt lat="44.20674667397723" lon="10.256514873950474"><ele>787.0</ele><time>2026-04-26T15:47:49.918Z</time></trkpt><trkpt lat="44.20673703463331" lon="10.256392230356965"><ele>787.0</ele><time>2026-04-26T15:47:50.918Z</time></trkpt><trkpt lat="44.20668613408433" lon="10.256288868921384"><ele>787.0</ele><time>2026-04-26T15:47:51.918Z</time></trkpt><trkpt lat="44.206574879754385" lon="10.25619615167649"><ele>788.5</ele><time>2026-04-26T15:47:52.918Z</time></trkpt><trkpt lat="44.20644529499314" lon="10.256128104951987"><ele>790.0</ele><time>2026-04-26T15:47:53.918Z</time></trkpt><trkpt lat="44.20631841339584" lon="10.256046446059688"><ele>791.5</ele><time>2026-04-26T15:47:54.918Z</time></trkpt><trkpt lat="44.206204097335984" lon="10.255965450107174"><ele>793.0</ele><time>2026-04-26T15:47:55.918Z</time></trkpt><trkpt lat="44.20612900695782" lon="10.255899675112179"><ele>793.0</ele><time>2026-04-26T15:47:56.918Z</time></trkpt><trkpt lat="44.206071550469865" lon="10.2558112297249"><ele>793.0</ele><time>2026-04-26T15:47:57.918Z</time></trkpt><trkpt lat="44.206045947584826" lon="10.255678583818817"><ele>793.0</ele><time>2026-04-26T15:47:58.918Z</time></trkpt><trkpt lat="44.20605197772751" lon="10.255510157898028"><ele>793.0</ele><time>2026-04-26T15:47:59.918Z</time></trkpt><trkpt lat="44.206070094504426" lon="10.255331890777626"><ele>793.0</ele><time>2026-04-26T15:48:00.918Z</time></trkpt><trkpt lat="44.20608790559259" lon="10.255185930246988"><ele>793.0</ele><time>2026-04-26T15:48:01.918Z</time></trkpt><trkpt lat="44.20610170305815" lon="10.255037868710195"><ele>793.0</ele><time>2026-04-26T15:48:02.918Z</time></trkpt><trkpt lat="44.20611628242411" lon="10.254891735257505"><ele>793.0</ele><time>2026-04-26T15:48:03.918Z</time></trkpt><trkpt lat="44.20612111420349" lon="10.254725033692003"><ele>793.0</ele><time>2026-04-26T15:48:04.918Z</time></trkpt><trkpt lat="44.20613061057446" lon="10.254541322723783"><ele>793.0</ele><time>2026-04-26T15:48:05.918Z</time></trkpt><trkpt lat="44.20613613236751" lon="10.254355906842212"><ele>793.0</ele><time>2026-04-26T15:48:06.918Z</time></trkpt><trkpt lat="44.20614054862306" lon="10.254219624299246"><ele>793.0</ele><time>2026-04-26T15:48:07.918Z</time></trkpt><trkpt lat="44.206136374035985" lon="10.254082772358089"><ele>793.0</ele><time>2026-04-26T15:48:08.918Z</time></trkpt><trkpt lat="44.20612220900777" lon="10.253930696978905"><ele>793.0</ele><time>2026-04-26T15:48:09.918Z</time></trkpt><trkpt lat="44.20608583523212" lon="10.253776048710499"><ele>794.75</ele><time>2026-04-26T15:48:10.918Z</time></trkpt><trkpt lat="44.20602058670152" lon="10.253608088703908"><ele>796.5</ele><time>2026-04-26T15:48:11.918Z</time></trkpt><trkpt lat="44.205955875912494" lon="10.253436110989039"><ele>798.25</ele><time>2026-04-26T15:48:12.918Z</time></trkpt><trkpt lat="44.20590131413396" lon="10.253249909696674"><ele>800.0</ele><time>2026-04-26T15:48:13.918Z</time></trkpt><trkpt lat="44.205852724392635" lon="10.253065000189526"><ele>801.5</ele><time>2026-04-26T15:48:14.918Z</time></trkpt><trkpt lat="44.205805809131554" lon="10.25288199793513"><ele>803.0</ele><time>2026-04-26T15:48:15.918Z</time></trkpt><trkpt lat="44.205755606069424" lon="10.252703101063329"><ele>804.5</ele><time>2026-04-26T15:48:16.918Z</time></trkpt><trkpt lat="44.2057115905366" lon="10.252525558664079"><ele>806.0</ele><time>2026-04-26T15:48:17.918Z</time></trkpt><trkpt lat="44.2056711038434" lon="10.252341218694399"><ele>806.1999999999999</ele><time>2026-04-26T15:48:18.916Z</time></trkpt><trkpt lat="44.20563718141502" lon="10.252180126808332"><ele>806.4</ele><time>2026-04-26T15:48:19.916Z</time></trkpt><trkpt lat="44.20561844674195" lon="10.252038298199055"><ele>806.6</ele><time>2026-04-26T15:48:20.916Z</time></trkpt><trkpt lat="44.20561587225428" lon="10.251923280796776"><ele>806.8</ele><time>2026-04-26T15:48:21.917Z</time></trkpt><trkpt lat="44.20564904619828" lon="10.251823093417197"><ele>807.0</ele><time>2026-04-26T15:48:22.916Z</time></trkpt><trkpt lat="44.20572321954461" lon="10.251732041665909"><ele>807.0</ele><time>2026-04-26T15:48:23.916Z</time></trkpt><trkpt lat="44.20581100839568" lon="10.25165201779712"><ele>807.0</ele><time>2026-04-26T15:48:24.916Z</time></trkpt><trkpt lat="44.20589766885705" lon="10.25156802003303"><ele>807.0</ele><time>2026-04-26T15:48:25.916Z</time></trkpt><trkpt lat="44.205957996490106" lon="10.251468274640228"><ele>807.0</ele><time>2026-04-26T15:48:26.916Z</time></trkpt><trkpt lat="44.2059736225068" lon="10.25134030266438"><ele>807.0</ele><time>2026-04-26T15:48:27.916Z</time></trkpt><trkpt lat="44.20594383340036" lon="10.25119194390972"><ele>807.5</ele><time>2026-04-26T15:48:28.916Z</time></trkpt><trkpt lat="44.20589356602559" lon="10.251033554585607"><ele>808.0</ele><time>2026-04-26T15:48:29.916Z</time></trkpt><trkpt lat="44.20583281015443" lon="10.250872161739217"><ele>808.5</ele><time>2026-04-26T15:48:30.917Z</time></trkpt><trkpt lat="44.205784737631674" lon="10.250696322211803"><ele>809.0</ele><time>2026-04-26T15:48:31.916Z</time></trkpt><trkpt lat="44.205734410167956" lon="10.250505407710824"><ele>809.5</ele><time>2026-04-26T15:48:32.916Z</time></trkpt><trkpt lat="44.20568682594087" lon="10.250316551122948"><ele>810.0</ele><time>2026-04-26T15:48:33.916Z</time></trkpt><trkpt lat="44.20564202087356" lon="10.250147330233021"><ele>810.5</ele><time>2026-04-26T15:48:34.916Z</time></trkpt><trkpt lat="44.205612221702545" lon="10.249999332659458"><ele>811.0</ele><time>2026-04-26T15:48:35.916Z</time></trkpt><trkpt lat="44.205613630247726" lon="10.249857906886486"><ele>811.4</ele><time>2026-04-26T15:48:36.916Z</time></trkpt><trkpt lat="44.20566672456726" lon="10.249771859117171"><ele>811.8</ele><time>2026-04-26T15:48:37.916Z</time></trkpt><trkpt lat="44.20575328441425" lon="10.249711473978383"><ele>812.1999999999999</ele><time>2026-04-26T15:48:38.916Z</time></trkpt><trkpt lat="44.20586257718825" lon="10.249694942515243"><ele>812.5999999999999</ele><time>2026-04-26T15:48:39.916Z</time></trkpt><trkpt lat="44.205983412553444" lon="10.249688028129384"><ele>813.0</ele><time>2026-04-26T15:48:40.916Z</time></trkpt><trkpt lat="44.206115100547585" lon="10.24967905155308"><ele>813.0</ele><time>2026-04-26T15:48:41.916Z</time></trkpt><trkpt lat="44.20625490281173" lon="10.249658359409707"><ele>813.0</ele><time>2026-04-26T15:48:42.916Z</time></trkpt><trkpt lat="44.20639550069507" lon="10.249638835124715"><ele>813.0</ele><time>2026-04-26T15:48:43.916Z</time></trkpt><trkpt lat="44.2065140507979" lon="10.249617215631819"><ele>813.0</ele><time>2026-04-26T15:48:44.916Z</time></trkpt><trkpt lat="44.206627546369624" lon="10.249569357675291"><ele>813.0</ele><time>2026-04-26T15:48:45.916Z</time></trkpt><trkpt lat="44.20674315276807" lon="10.249458533892279"><ele>813.0</ele><time>2026-04-26T15:48:46.916Z</time></trkpt><trkpt lat="44.20685550362897" lon="10.249324856124453"><ele>813.0</ele><time>2026-04-26T15:48:47.916Z</time></trkpt><trkpt lat="44.20697098937087" lon="10.249169007166854"><ele>813.0</ele><time>2026-04-26T15:48:48.916Z</time></trkpt><trkpt lat="44.207087593360214" lon="10.249010777754103"><ele>811.25</ele><time>2026-04-26T15:48:49.916Z</time></trkpt><trkpt lat="44.207201018138065" lon="10.248875937525503"><ele>809.5</ele><time>2026-04-26T15:48:50.916Z</time></trkpt><trkpt lat="44.207297782216855" lon="10.24875277852238"><ele>807.75</ele><time>2026-04-26T15:48:51.916Z</time></trkpt><trkpt lat="44.20736421557488" lon="10.24861122131669"><ele>806.0</ele><time>2026-04-26T15:48:52.916Z</time></trkpt><trkpt lat="44.20740211632153" lon="10.24843912189975"><ele>812.0</ele><time>2026-04-26T15:48:53.916Z</time></trkpt><trkpt lat="44.20741391013112" lon="10.248235304822474"><ele>818.0</ele><time>2026-04-26T15:48:54.916Z</time></trkpt><trkpt lat="44.207427637264665" lon="10.24801602821011"><ele>824.0</ele><time>2026-04-26T15:48:55.916Z</time></trkpt><trkpt lat="44.20743939784818" lon="10.247798401210725"><ele>824.0</ele><time>2026-04-26T15:48:56.916Z</time></trkpt><trkpt lat="44.20745267449281" lon="10.247584787757987"><ele>824.0</ele><time>2026-04-26T15:48:57.916Z</time></trkpt><trkpt lat="44.207460930183885" lon="10.247391430672195"><ele>824.0</ele><time>2026-04-26T15:48:58.916Z</time></trkpt><trkpt lat="44.207460648350235" lon="10.247223932329549"><ele>824.0</ele><time>2026-04-26T15:48:59.916Z</time></trkpt><trkpt lat="44.20746324052285" lon="10.247073096283664"><ele>823.4000000000001</ele><time>2026-04-26T15:49:00.916Z</time></trkpt><trkpt lat="44.20747205019421" lon="10.246958260948496"><ele>822.8</ele><time>2026-04-26T15:49:01.916Z</time></trkpt><trkpt lat="44.20749684289026" lon="10.246864406709749"><ele>822.2</ele><time>2026-04-26T15:49:02.916Z</time></trkpt><trkpt lat="44.20757189611821" lon="10.246785685506229"><ele>821.5999999999999</ele><time>2026-04-26T15:49:03.916Z</time></trkpt><trkpt lat="44.2076671151968" lon="10.246723762349665"><ele>821.0</ele><time>2026-04-26T15:49:04.916Z</time></trkpt><trkpt lat="44.20779434749989" lon="10.246664234849016"><ele>821.0</ele><time>2026-04-26T15:49:05.916Z</time></trkpt><trkpt lat="44.207887746884865" lon="10.246590351703308"><ele>821.0</ele><time>2026-04-26T15:49:06.916Z</time></trkpt><trkpt lat="44.20795955525941" lon="10.24646646251922"><ele>821.0</ele><time>2026-04-26T15:49:07.916Z</time></trkpt><trkpt lat="44.208004068275336" lon="10.246316057538044"><ele>821.0</ele><time>2026-04-26T15:49:08.916Z</time></trkpt><trkpt lat="44.2080242746325" lon="10.24614200869824"><ele>821.0</ele><time>2026-04-26T15:49:09.916Z</time></trkpt><trkpt lat="44.208029404674434" lon="10.245959530689273"><ele>821.0</ele><time>2026-04-26T15:49:10.916Z</time></trkpt><trkpt lat="44.20804595583916" lon="10.245775638347844"><ele>821.0</ele><time>2026-04-26T15:49:11.916Z</time></trkpt><trkpt lat="44.2080763373226" lon="10.245596027311006"><ele>821.0</ele><time>2026-04-26T15:49:12.916Z</time></trkpt><trkpt lat="44.20810687165265" lon="10.245442635864501"><ele>821.0</ele><time>2026-04-26T15:49:13.916Z</time></trkpt><trkpt lat="44.208124105544954" lon="10.245305552435752"><ele>821.0</ele><time>2026-04-26T15:49:14.916Z</time></trkpt><trkpt lat="44.20809964274027" lon="10.245178724344663"><ele>821.0</ele><time>2026-04-26T15:49:15.916Z</time></trkpt><trkpt lat="44.20802905572549" lon="10.245060912578655"><ele>821.0</ele><time>2026-04-26T15:49:16.916Z</time></trkpt><trkpt lat="44.20792428967603" lon="10.244978057082946"><ele>821.0</ele><time>2026-04-26T15:49:17.916Z</time></trkpt><trkpt lat="44.2078102138383" lon="10.24494437656409"><ele>821.0</ele><time>2026-04-26T15:49:18.916Z</time></trkpt><trkpt lat="44.20770490986453" lon="10.244956783611642"><ele>821.0</ele><time>2026-04-26T15:49:19.916Z</time></trkpt><trkpt lat="44.20759795470496" lon="10.245019868677973"><ele>821.0</ele><time>2026-04-26T15:49:20.916Z</time></trkpt><trkpt lat="44.20749221543582" lon="10.245076640482042"><ele>821.0</ele><time>2026-04-26T15:49:21.916Z</time></trkpt><trkpt lat="44.20740928770597" lon="10.24507986903046"><ele>821.0</ele><time>2026-04-26T15:49:22.916Z</time></trkpt><trkpt lat="44.20734533300592" lon="10.244995530313208"><ele>822.0</ele><time>2026-04-26T15:49:23.916Z</time></trkpt><trkpt lat="44.20731539557231" lon="10.244858284818683"><ele>823.0</ele><time>2026-04-26T15:49:24.916Z</time></trkpt><trkpt lat="44.20734965881201" lon="10.244717806375451"><ele>824.0</ele><time>2026-04-26T15:49:25.916Z</time></trkpt><trkpt lat="44.207411557199684" lon="10.244569085459979"><ele>825.0</ele><time>2026-04-26T15:49:26.916Z</time></trkpt><trkpt lat="44.207467197207066" lon="10.244426540626447"><ele>826.0</ele><time>2026-04-26T15:49:27.916Z</time></trkpt><trkpt lat="44.20751899091577" lon="10.244263165455735"><ele>826.0</ele><time>2026-04-26T15:49:28.916Z</time></trkpt><trkpt lat="44.20757044938173" lon="10.244094288596807"><ele>826.0</ele><time>2026-04-26T15:49:29.916Z</time></trkpt><trkpt lat="44.20761199651842" lon="10.243941706419522"><ele>826.0</ele><time>2026-04-26T15:49:30.916Z</time></trkpt><trkpt lat="44.20763161668077" lon="10.243828648172006"><ele>826.0</ele><time>2026-04-26T15:49:31.916Z</time></trkpt><trkpt lat="44.20755949820898" lon="10.243660257538709"><ele>827.75</ele><time>2026-04-26T15:49:33.916Z</time></trkpt><trkpt lat="44.20745118212221" lon="10.243552260044131"><ele>829.5</ele><time>2026-04-26T15:49:34.916Z</time></trkpt><trkpt lat="44.20735725278647" lon="10.243445330291095"><ele>831.25</ele><time>2026-04-26T15:49:35.916Z</time></trkpt><trkpt lat="44.20727086169433" lon="10.243355766310305"><ele>833.0</ele><time>2026-04-26T15:49:36.916Z</time></trkpt><trkpt lat="44.20718403207045" lon="10.2433244923691"><ele>835.25</ele><time>2026-04-26T15:49:37.916Z</time></trkpt><trkpt lat="44.2070843560425" lon="10.243375599485448"><ele>837.5</ele><time>2026-04-26T15:49:38.916Z</time></trkpt><trkpt lat="44.20699414761999" lon="10.243504459748578"><ele>839.75</ele><time>2026-04-26T15:49:39.916Z</time></trkpt><trkpt lat="44.20692692389789" lon="10.243657180758614"><ele>842.0</ele><time>2026-04-26T15:49:40.916Z</time></trkpt><trkpt lat="44.206841267629066" lon="10.243808986940396"><ele>842.0</ele><time>2026-04-26T15:49:41.916Z</time></trkpt><trkpt lat="44.206726680222665" lon="10.243911370606405"><ele>842.0</ele><time>2026-04-26T15:49:42.916Z</time></trkpt><trkpt lat="44.20659680143192" lon="10.243976786203836"><ele>842.0</ele><time>2026-04-26T15:49:43.916Z</time></trkpt><trkpt lat="44.206474892251364" lon="10.244004112957809"><ele>842.0</ele><time>2026-04-26T15:49:44.916Z</time></trkpt><trkpt lat="44.20634454487953" lon="10.244011874442192"><ele>840.6666666666667</ele><time>2026-04-26T15:49:45.916Z</time></trkpt><trkpt lat="44.206210875384" lon="10.243961055909917"><ele>839.3333333333333</ele><time>2026-04-26T15:49:46.916Z</time></trkpt><trkpt lat="44.206053222125085" lon="10.243888207404535"><ele>838.0</ele><time>2026-04-26T15:49:47.916Z</time></trkpt><trkpt lat="44.205889069673674" lon="10.24383452651122"><ele>838.0</ele><time>2026-04-26T15:49:48.916Z</time></trkpt><trkpt lat="44.20573919678141" lon="10.24377864790175"><ele>838.0</ele><time>2026-04-26T15:49:49.916Z</time></trkpt><trkpt lat="44.205614272889164" lon="10.243726924115277"><ele>838.0</ele><time>2026-04-26T15:49:50.916Z</time></trkpt><trkpt lat="44.2054937046064" lon="10.243673371517916"><ele>838.0</ele><time>2026-04-26T15:49:51.916Z</time></trkpt><trkpt lat="44.20536970172749" lon="10.24362494638811"><ele>836.3333333333333</ele><time>2026-04-26T15:49:52.916Z</time></trkpt><trkpt lat="44.205260906312205" lon="10.243575046819299"><ele>834.6666666666666</ele><time>2026-04-26T15:49:53.916Z</time></trkpt><trkpt lat="44.20518525409013" lon="10.24351597853875"><ele>833.0</ele><time>2026-04-26T15:49:54.916Z</time></trkpt><trkpt lat="44.20514530180986" lon="10.243434559476443"><ele>831.3333333333333</ele><time>2026-04-26T15:49:55.916Z</time></trkpt><trkpt lat="44.20514757323182" lon="10.24333039926203"><ele>829.6666666666666</ele><time>2026-04-26T15:49:56.916Z</time></trkpt><trkpt lat="44.20520298802543" lon="10.243217727207453"><ele>828.0</ele><time>2026-04-26T15:49:57.916Z</time></trkpt><trkpt lat="44.20528791022591" lon="10.243127730632557"><ele>828.0</ele><time>2026-04-26T15:49:58.916Z</time></trkpt><trkpt lat="44.20537169631903" lon="10.243034557909239"><ele>828.0</ele><time>2026-04-26T15:49:59.916Z</time></trkpt><trkpt lat="44.20543487559746" lon="10.24291578834928"><ele>828.0</ele><time>2026-04-26T15:50:00.916Z</time></trkpt><trkpt lat="44.20545551736708" lon="10.242759629289893"><ele>828.0</ele><time>2026-04-26T15:50:01.916Z</time></trkpt><trkpt lat="44.20544516697786" lon="10.242589093696296"><ele>828.0</ele><time>2026-04-26T15:50:02.916Z</time></trkpt><trkpt lat="44.20540550616235" lon="10.242416056218012"><ele>828.0</ele><time>2026-04-26T15:50:03.916Z</time></trkpt><trkpt lat="44.20534997760603" lon="10.242261509279828"><ele>828.0</ele><time>2026-04-26T15:50:04.916Z</time></trkpt><trkpt lat="44.20526092322761" lon="10.242146716313101"><ele>828.0</ele><time>2026-04-26T15:50:05.916Z</time></trkpt><trkpt lat="44.20514364191428" lon="10.242088239220562"><ele>829.0</ele><time>2026-04-26T15:50:06.916Z</time></trkpt><trkpt lat="44.20500138777394" lon="10.242085109349224"><ele>830.0</ele><time>2026-04-26T15:50:07.916Z</time></trkpt><trkpt lat="44.20486111738922" lon="10.242084638447635"><ele>831.0</ele><time>2026-04-26T15:50:08.916Z</time></trkpt><trkpt lat="44.20472699409683" lon="10.242076823326125"><ele>832.0</ele><time>2026-04-26T15:50:09.916Z</time></trkpt><trkpt lat="44.20459797035236" lon="10.242054157884443"><ele>832.0</ele><time>2026-04-26T15:50:10.916Z</time></trkpt><trkpt lat="44.20447149051373" lon="10.242032267194862"><ele>832.0</ele><time>2026-04-26T15:50:11.916Z</time></trkpt><trkpt lat="44.20436541543281" lon="10.242008778644303"><ele>832.0</ele><time>2026-04-26T15:50:12.916Z</time></trkpt><trkpt lat="44.2042728712718" lon="10.241988096006786"><ele>832.0</ele><time>2026-04-26T15:50:13.916Z</time></trkpt><trkpt lat="44.20419387689921" lon="10.24195030599201"><ele>832.0</ele><time>2026-04-26T15:50:14.916Z</time></trkpt><trkpt lat="44.204135797361964" lon="10.241882324981837"><ele>832.0</ele><time>2026-04-26T15:50:15.916Z</time></trkpt><trkpt lat="44.204102038309514" lon="10.241778228711667"><ele>832.0</ele><time>2026-04-26T15:50:16.916Z</time></trkpt><trkpt lat="44.204107073844796" lon="10.241617337917864"><ele>832.0</ele><time>2026-04-26T15:50:17.916Z</time></trkpt><trkpt lat="44.204107839538025" lon="10.241434876845938"><ele>832.0</ele><time>2026-04-26T15:50:18.916Z</time></trkpt><trkpt lat="44.20410300462971" lon="10.241245544540192"><ele>835.0</ele><time>2026-04-26T15:50:19.916Z</time></trkpt><trkpt lat="44.20409133906036" lon="10.24105016496299"><ele>838.0</ele><time>2026-04-26T15:50:20.916Z</time></trkpt><trkpt lat="44.20406547098003" lon="10.240831350225939"><ele>841.0</ele><time>2026-04-26T15:50:21.916Z</time></trkpt><trkpt lat="44.2040263069195" lon="10.24062529636878"><ele>838.0</ele><time>2026-04-26T15:50:22.916Z</time></trkpt><trkpt lat="44.20397709406893" lon="10.240424384091709"><ele>835.0</ele><time>2026-04-26T15:50:23.916Z</time></trkpt><trkpt lat="44.2039233573755" lon="10.24024927463655"><ele>832.0</ele><time>2026-04-26T15:50:24.915Z</time></trkpt><trkpt lat="44.203873002022114" lon="10.240100292221502"><ele>829.0</ele><time>2026-04-26T15:50:25.915Z</time></trkpt><trkpt lat="44.20380219398246" lon="10.239966517006778"><ele>829.0</ele><time>2026-04-26T15:50:26.915Z</time></trkpt><trkpt lat="44.203690701138804" lon="10.239861204646784"><ele>829.0</ele><time>2026-04-26T15:50:27.916Z</time></trkpt><trkpt lat="44.203554247998085" lon="10.239798130342274"><ele>829.0</ele><time>2026-04-26T15:50:28.915Z</time></trkpt><trkpt lat="44.20341061652869" lon="10.239754775575172"><ele>829.0</ele><time>2026-04-26T15:50:29.915Z</time></trkpt><trkpt lat="44.20326425231952" lon="10.23970439704367"><ele>829.5</ele><time>2026-04-26T15:50:30.916Z</time></trkpt><trkpt lat="44.20313881657159" lon="10.239628657477278"><ele>830.0</ele><time>2026-04-26T15:50:31.916Z</time></trkpt><trkpt lat="44.20302764984277" lon="10.239531307258453"><ele>830.5</ele><time>2026-04-26T15:50:32.916Z</time></trkpt><trkpt lat="44.20293713859662" lon="10.23941282861662"><ele>831.0</ele><time>2026-04-26T15:50:33.915Z</time></trkpt><trkpt lat="44.202870084488175" lon="10.239268833159002"><ele>831.0</ele><time>2026-04-26T15:50:34.915Z</time></trkpt><trkpt lat="44.20282178538878" lon="10.23908650234148"><ele>831.0</ele><time>2026-04-26T15:50:35.915Z</time></trkpt><trkpt lat="44.20275971461022" lon="10.238901384043059"><ele>831.0</ele><time>2026-04-26T15:50:36.915Z</time></trkpt><trkpt lat="44.2026760422832" lon="10.23875555630976"><ele>831.0</ele><time>2026-04-26T15:50:37.915Z</time></trkpt><trkpt lat="44.20256079232142" lon="10.23863756796784"><ele>831.25</ele><time>2026-04-26T15:50:38.915Z</time></trkpt><trkpt lat="44.20243200969327" lon="10.238543637260678"><ele>831.5</ele><time>2026-04-26T15:50:39.915Z</time></trkpt><trkpt lat="44.20232957760062" lon="10.238411433089272"><ele>831.75</ele><time>2026-04-26T15:50:40.915Z</time></trkpt><trkpt lat="44.202247170587064" lon="10.238245934552474"><ele>832.0</ele><time>2026-04-26T15:50:41.915Z</time></trkpt><trkpt lat="44.20218855832618" lon="10.23805984472534"><ele>832.0</ele><time>2026-04-26T15:50:42.915Z</time></trkpt><trkpt lat="44.202132553692934" lon="10.23787495149308"><ele>832.0</ele><time>2026-04-26T15:50:43.915Z</time></trkpt><trkpt lat="44.20208883238158" lon="10.23770341038092"><ele>832.0</ele><time>2026-04-26T15:50:44.915Z</time></trkpt><trkpt lat="44.202067950379686" lon="10.237533624539951"><ele>832.0</ele><time>2026-04-26T15:50:45.915Z</time></trkpt><trkpt lat="44.202077196692755" lon="10.237343885839238"><ele>834.6</ele><time>2026-04-26T15:50:46.915Z</time></trkpt><trkpt lat="44.20210054105676" lon="10.237151798624646"><ele>837.2</ele><time>2026-04-26T15:50:47.915Z</time></trkpt><trkpt lat="44.202111351330934" lon="10.23699971038952"><ele>839.8</ele><time>2026-04-26T15:50:48.915Z</time></trkpt><trkpt lat="44.202110062826755" lon="10.236882992678174"><ele>842.4</ele><time>2026-04-26T15:50:49.915Z</time></trkpt><trkpt lat="44.20207399464239" lon="10.236796394723225"><ele>845.0</ele><time>2026-04-26T15:50:50.915Z</time></trkpt><trkpt lat="44.20199152465625" lon="10.236747459082183"><ele>845.0</ele><time>2026-04-26T15:50:51.915Z</time></trkpt><trkpt lat="44.20191326517125" lon="10.236754579289265"><ele>845.0</ele><time>2026-04-26T15:50:52.915Z</time></trkpt><trkpt lat="44.201820972538954" lon="10.236780113259035"><ele>845.0</ele><time>2026-04-26T15:50:53.915Z</time></trkpt><trkpt lat="44.20172032049304" lon="10.236856501650571"><ele>845.0</ele><time>2026-04-26T15:50:54.915Z</time></trkpt><trkpt lat="44.20160072777497" lon="10.23694623564315"><ele>845.0</ele><time>2026-04-26T15:50:55.915Z</time></trkpt><trkpt lat="44.20148236401538" lon="10.236993633659738"><ele>842.6</ele><time>2026-04-26T15:50:56.915Z</time></trkpt><trkpt lat="44.20137305955114" lon="10.236986509417353"><ele>840.2</ele><time>2026-04-26T15:50:57.915Z</time></trkpt><trkpt lat="44.20128517903492" lon="10.236944743694504"><ele>837.8</ele><time>2026-04-26T15:50:58.915Z</time></trkpt><trkpt lat="44.20120336811567" lon="10.236841481427701"><ele>835.4</ele><time>2026-04-26T15:50:59.915Z</time></trkpt><trkpt lat="44.201143349572256" lon="10.236693261296264"><ele>833.0</ele><time>2026-04-26T15:51:00.915Z</time></trkpt><trkpt lat="44.201093839796705" lon="10.236526610035092"><ele>834.25</ele><time>2026-04-26T15:51:01.915Z</time></trkpt><trkpt lat="44.20105308439986" lon="10.236354627701665"><ele>835.5</ele><time>2026-04-26T15:51:02.915Z</time></trkpt><trkpt lat="44.20101485984212" lon="10.236181190284938"><ele>836.75</ele><time>2026-04-26T15:51:03.915Z</time></trkpt><trkpt lat="44.20099364272812" lon="10.235983143263464"><ele>838.0</ele><time>2026-04-26T15:51:04.915Z</time></trkpt><trkpt lat="44.20098912435198" lon="10.235777424196122"><ele>837.75</ele><time>2026-04-26T15:51:05.915Z</time></trkpt><trkpt lat="44.20100913639764" lon="10.235571481134935"><ele>837.5</ele><time>2026-04-26T15:51:06.915Z</time></trkpt><trkpt lat="44.201051873890556" lon="10.235377382891917"><ele>837.25</ele><time>2026-04-26T15:51:07.915Z</time></trkpt><trkpt lat="44.201100699280545" lon="10.23520710121881"><ele>837.0</ele><time>2026-04-26T15:51:08.915Z</time></trkpt><trkpt lat="44.20112011435658" lon="10.235036933049741"><ele>837.0</ele><time>2026-04-26T15:51:09.915Z</time></trkpt><trkpt lat="44.20108827852872" lon="10.234865307737328"><ele>837.0</ele><time>2026-04-26T15:51:10.915Z</time></trkpt><trkpt lat="44.20104133750694" lon="10.234691235702126"><ele>837.0</ele><time>2026-04-26T15:51:11.915Z</time></trkpt><trkpt lat="44.20102450545347" lon="10.234502034039382"><ele>837.0</ele><time>2026-04-26T15:51:12.915Z</time></trkpt><trkpt lat="44.2010547824803" lon="10.234308834133756"><ele>837.5</ele><time>2026-04-26T15:51:13.915Z</time></trkpt><trkpt lat="44.201109025659974" lon="10.234129261572106"><ele>838.0</ele><time>2026-04-26T15:51:14.915Z</time></trkpt><trkpt lat="44.20118770366749" lon="10.233962024518211"><ele>838.5</ele><time>2026-04-26T15:51:15.915Z</time></trkpt><trkpt lat="44.20128053252497" lon="10.233821744395959"><ele>839.0</ele><time>2026-04-26T15:51:16.915Z</time></trkpt><trkpt lat="44.20137886105511" lon="10.233696328470327"><ele>839.5</ele><time>2026-04-26T15:51:17.915Z</time></trkpt><trkpt lat="44.201480311128506" lon="10.233588148120857"><ele>840.0</ele><time>2026-04-26T15:51:18.915Z</time></trkpt><trkpt lat="44.20155261929334" lon="10.233477086731272"><ele>840.5</ele><time>2026-04-26T15:51:19.915Z</time></trkpt><trkpt lat="44.20158974659987" lon="10.233333191282236"><ele>841.0</ele><time>2026-04-26T15:51:20.915Z</time></trkpt><trkpt lat="44.201586322226945" lon="10.233154669968823"><ele>842.0</ele><time>2026-04-26T15:51:21.915Z</time></trkpt><trkpt lat="44.201556411908214" lon="10.232959161095215"><ele>843.0</ele><time>2026-04-26T15:51:22.915Z</time></trkpt><trkpt lat="44.20158377019305" lon="10.232802087245064"><ele>844.0</ele><time>2026-04-26T15:51:23.915Z</time></trkpt><trkpt lat="44.20165418691785" lon="10.232664220325752"><ele>845.0</ele><time>2026-04-26T15:51:24.915Z</time></trkpt><trkpt lat="44.20174647332719" lon="10.232545029463227"><ele>845.0</ele><time>2026-04-26T15:51:25.915Z</time></trkpt><trkpt lat="44.201845824119395" lon="10.232431019118394"><ele>845.0</ele><time>2026-04-26T15:51:26.915Z</time></trkpt><trkpt lat="44.20193870016686" lon="10.23232980102549"><ele>845.0</ele><time>2026-04-26T15:51:27.915Z</time></trkpt><trkpt lat="44.20200961166204" lon="10.232233348640255"><ele>845.0</ele><time>2026-04-26T15:51:28.915Z</time></trkpt><trkpt lat="44.20204571306988" lon="10.232133343410235"><ele>845.0</ele><time>2026-04-26T15:51:29.915Z</time></trkpt><trkpt lat="44.20202582442358" lon="10.232030296167665"><ele>846.5</ele><time>2026-04-26T15:51:30.915Z</time></trkpt><trkpt lat="44.20195947577776" lon="10.231929980901233"><ele>848.0</ele><time>2026-04-26T15:51:31.915Z</time></trkpt><trkpt lat="44.20183500437302" lon="10.231859568810213"><ele>849.5</ele><time>2026-04-26T15:51:32.915Z</time></trkpt><trkpt lat="44.20171738791015" lon="10.23184543812124"><ele>851.0</ele><time>2026-04-26T15:51:33.915Z</time></trkpt><trkpt lat="44.20159702125844" lon="10.231911344472056"><ele>849.25</ele><time>2026-04-26T15:51:34.915Z</time></trkpt><trkpt lat="44.20144332683752" lon="10.231997293233066"><ele>847.5</ele><time>2026-04-26T15:51:35.915Z</time></trkpt><trkpt lat="44.20130353669195" lon="10.232064410685057"><ele>845.75</ele><time>2026-04-26T15:51:36.915Z</time></trkpt><trkpt lat="44.20118231193957" lon="10.232104073933895"><ele>844.0</ele><time>2026-04-26T15:51:37.915Z</time></trkpt><trkpt lat="44.20107669927149" lon="10.232103119641733"><ele>844.0</ele><time>2026-04-26T15:51:38.915Z</time></trkpt><trkpt lat="44.20096471012219" lon="10.232051825564719"><ele>844.0</ele><time>2026-04-26T15:51:39.915Z</time></trkpt><trkpt lat="44.20084617848945" lon="10.231963856322455"><ele>844.0</ele><time>2026-04-26T15:51:40.915Z</time></trkpt><trkpt lat="44.20072912096572" lon="10.231883145939799"><ele>844.0</ele><time>2026-04-26T15:51:41.915Z</time></trkpt><trkpt lat="44.20060874400547" lon="10.23181244153323"><ele>843.2</ele><time>2026-04-26T15:51:42.915Z</time></trkpt><trkpt lat="44.20050570627789" lon="10.231748372043306"><ele>842.4000000000001</ele><time>2026-04-26T15:51:43.915Z</time></trkpt><trkpt lat="44.20042683224526" lon="10.231671361877288"><ele>841.6</ele><time>2026-04-26T15:51:44.915Z</time></trkpt><trkpt lat="44.200376827230514" lon="10.2315748449965"><ele>840.8</ele><time>2026-04-26T15:51:45.915Z</time></trkpt><trkpt lat="44.200346889608944" lon="10.231450619894726"><ele>840.0</ele><time>2026-04-26T15:51:46.915Z</time></trkpt><trkpt lat="44.200348255832054" lon="10.231321152514852"><ele>840.8</ele><time>2026-04-26T15:51:47.915Z</time></trkpt><trkpt lat="44.20038701923419" lon="10.231187454495517"><ele>841.6</ele><time>2026-04-26T15:51:48.915Z</time></trkpt><trkpt lat="44.20045821755603" lon="10.231066236634184"><ele>842.4000000000001</ele><time>2026-04-26T15:51:49.915Z</time></trkpt><trkpt lat="44.20054810590383" lon="10.23096620649156"><ele>843.2</ele><time>2026-04-26T15:51:50.915Z</time></trkpt><trkpt lat="44.200631099388346" lon="10.23088118060916"><ele>844.0</ele><time>2026-04-26T15:51:51.915Z</time></trkpt><trkpt lat="44.20070672263248" lon="10.230816722395232"><ele>844.0</ele><time>2026-04-26T15:51:52.915Z</time></trkpt><trkpt lat="44.200772791449495" lon="10.230772811282446"><ele>844.0</ele><time>2026-04-26T15:51:53.915Z</time></trkpt><trkpt lat="44.20081574979198" lon="10.230589553605217"><ele>844.0</ele><time>2026-04-26T15:51:55.915Z</time></trkpt><trkpt lat="44.200781274776226" lon="10.230459262760547"><ele>844.0</ele><time>2026-04-26T15:51:56.915Z</time></trkpt><trkpt lat="44.20072699325083" lon="10.230367935344479"><ele>844.0</ele><time>2026-04-26T15:51:57.915Z</time></trkpt><trkpt lat="44.200651477599656" lon="10.230281050338805"><ele>840.9999999999999</ele><time>2026-04-26T15:51:58.915Z</time></trkpt><trkpt lat="44.2005768698833" lon="10.230207770271742"><ele>838.0</ele><time>2026-04-26T15:51:59.915Z</time></trkpt><trkpt lat="44.200520495957164" lon="10.23014848101741"><ele>835.0</ele><time>2026-04-26T15:52:00.915Z</time></trkpt><trkpt lat="44.200447856946575" lon="10.230069359764926"><ele>832.0</ele><time>2026-04-26T15:52:02.915Z</time></trkpt><trkpt lat="44.200385552314444" lon="10.230101469224884"><ele>828.9999999999999</ele><time>2026-04-26T15:52:04.915Z</time></trkpt><trkpt lat="44.200374295513534" lon="10.22999734258616"><ele>826.0</ele><time>2026-04-26T16:02:15.915Z</time></trkpt><trkpt lat="44.20039223836024" lon="10.229904268670534"><ele>825.5999999999999</ele><time>2026-04-26T16:02:18.915Z</time></trkpt><trkpt lat="44.20037784953824" lon="10.229790589466026"><ele>825.2</ele><time>2026-04-26T16:02:20.915Z</time></trkpt><trkpt lat="44.200385261321536" lon="10.229616561512156"><ele>824.8</ele><time>2026-04-26T16:02:22.915Z</time></trkpt><trkpt lat="44.20040465689175" lon="10.229509312932821"><ele>824.4000000000001</ele><time>2026-04-26T16:02:23.915Z</time></trkpt><trkpt lat="44.20042806261511" lon="10.229384117493586"><ele>824.0</ele><time>2026-04-26T16:02:24.915Z</time></trkpt><trkpt lat="44.200450241661" lon="10.229234962276625"><ele>824.0</ele><time>2026-04-26T16:02:25.915Z</time></trkpt><trkpt lat="44.20047373508677" lon="10.229080569733656"><ele>824.0</ele><time>2026-04-26T16:02:26.915Z</time></trkpt><trkpt lat="44.20049705034355" lon="10.228933066685757"><ele>824.0</ele><time>2026-04-26T16:02:27.915Z</time></trkpt><trkpt lat="44.20051914658805" lon="10.228791467677324"><ele>824.0</ele><time>2026-04-26T16:02:28.915Z</time></trkpt><trkpt lat="44.20053476751493" lon="10.22864418910343"><ele>824.0</ele><time>2026-04-26T16:02:29.915Z</time></trkpt><trkpt lat="44.200524102977575" lon="10.2284875368771"><ele>823.5</ele><time>2026-04-26T16:02:30.915Z</time></trkpt><trkpt lat="44.200490212354" lon="10.228327946924114"><ele>823.0</ele><time>2026-04-26T16:02:31.915Z</time></trkpt><trkpt lat="44.20045138126816" lon="10.228170164719302"><ele>822.5</ele><time>2026-04-26T16:02:32.915Z</time></trkpt><trkpt lat="44.20040855902072" lon="10.228019971596508"><ele>822.0</ele><time>2026-04-26T16:02:33.915Z</time></trkpt><trkpt lat="44.2003779906225" lon="10.227851112608064"><ele>822.0</ele><time>2026-04-26T16:02:34.915Z</time></trkpt><trkpt lat="44.2003450256256" lon="10.227688947296532"><ele>822.0</ele><time>2026-04-26T16:02:35.915Z</time></trkpt><trkpt lat="44.200307459002616" lon="10.22753081608057"><ele>822.0</ele><time>2026-04-26T16:02:36.915Z</time></trkpt><trkpt lat="44.2002753109815" lon="10.227371249949865"><ele>822.0</ele><time>2026-04-26T16:02:37.915Z</time></trkpt><trkpt lat="44.20024439871408" lon="10.227213249956066"><ele>822.0</ele><time>2026-04-26T16:02:38.915Z</time></trkpt><trkpt lat="44.20020515670083" lon="10.22706207495571"><ele>822.0</ele><time>2026-04-26T16:02:39.915Z</time></trkpt><trkpt lat="44.20015489301127" lon="10.226923262103028"><ele>822.0</ele><time>2026-04-26T16:02:40.915Z</time></trkpt><trkpt lat="44.20010014769788" lon="10.22681070863858"><ele>822.0</ele><time>2026-04-26T16:02:41.915Z</time></trkpt><trkpt lat="44.20005088916242" lon="10.226718996221221"><ele>822.0</ele><time>2026-04-26T16:02:42.915Z</time></trkpt><trkpt lat="44.20001491891157" lon="10.226630137263168"><ele>818.6</ele><time>2026-04-26T16:02:43.915Z</time></trkpt><trkpt lat="44.20006568157789" lon="10.226464206832762"><ele>815.2</ele><time>2026-04-26T16:02:45.915Z</time></trkpt><trkpt lat="44.20015202337552" lon="10.226407161586403"><ele>811.8</ele><time>2026-04-26T16:02:46.915Z</time></trkpt><trkpt lat="44.20024976596444" lon="10.226393754057796"><ele>808.4</ele><time>2026-04-26T16:02:47.915Z</time></trkpt><trkpt lat="44.200361201760565" lon="10.226394697289557"><ele>805.0</ele><time>2026-04-26T16:02:48.915Z</time></trkpt><trkpt lat="44.20049141728533" lon="10.226389237368268"><ele>805.0</ele><time>2026-04-26T16:02:49.915Z</time></trkpt><trkpt lat="44.200620859095096" lon="10.226379314913977"><ele>805.0</ele><time>2026-04-26T16:02:50.915Z</time></trkpt><trkpt lat="44.200748538873576" lon="10.226388819360052"><ele>805.0</ele><time>2026-04-26T16:02:51.915Z</time></trkpt><trkpt lat="44.20087258797224" lon="10.226432117492427"><ele>805.0</ele><time>2026-04-26T16:02:52.915Z</time></trkpt><trkpt lat="44.20099095111474" lon="10.226506733113133"><ele>811.75</ele><time>2026-04-26T16:02:53.915Z</time></trkpt><trkpt lat="44.20111313602915" lon="10.226581579150938"><ele>818.5</ele><time>2026-04-26T16:02:54.915Z</time></trkpt><trkpt lat="44.2012314244644" lon="10.22666311544874"><ele>825.25</ele><time>2026-04-26T16:02:55.915Z</time></trkpt><trkpt lat="44.20134436346778" lon="10.226744459806447"><ele>832.0</ele><time>2026-04-26T16:02:56.915Z</time></trkpt><trkpt lat="44.201450157828894" lon="10.226833325268764"><ele>830.0</ele><time>2026-04-26T16:02:57.915Z</time></trkpt><trkpt lat="44.201547059043826" lon="10.226899070672205"><ele>828.0</ele><time>2026-04-26T16:02:58.915Z</time></trkpt><trkpt lat="44.20165047524875" lon="10.226968147662408"><ele>826.0</ele><time>2026-04-26T16:02:59.915Z</time></trkpt><trkpt lat="44.201757947334634" lon="10.227022659010299"><ele>824.0</ele><time>2026-04-26T16:03:00.914Z</time></trkpt><trkpt lat="44.20186256353935" lon="10.227068522233193"><ele>822.0</ele><time>2026-04-26T16:03:01.914Z</time></trkpt><trkpt lat="44.20196513109382" lon="10.227088365298274"><ele>822.0</ele><time>2026-04-26T16:03:02.914Z</time></trkpt><trkpt lat="44.202055662593416" lon="10.227029885512849"><ele>822.0</ele><time>2026-04-26T16:03:03.914Z</time></trkpt><trkpt lat="44.20215515882759" lon="10.226920680165884"><ele>822.0</ele><time>2026-04-26T16:03:04.914Z</time></trkpt><trkpt lat="44.2022813462023" lon="10.226834735034583"><ele>822.0</ele><time>2026-04-26T16:03:05.914Z</time></trkpt><trkpt lat="44.20241063705798" lon="10.226774073362048"><ele>820.75</ele><time>2026-04-26T16:03:06.914Z</time></trkpt><trkpt lat="44.202539403989114" lon="10.226715545284026"><ele>819.5</ele><time>2026-04-26T16:03:07.914Z</time></trkpt><trkpt lat="44.20266428251337" lon="10.226656354568474"><ele>818.25</ele><time>2026-04-26T16:03:08.914Z</time></trkpt><trkpt lat="44.20279013925463" lon="10.226602717358595"><ele>817.0</ele><time>2026-04-26T16:03:09.914Z</time></trkpt><trkpt lat="44.20289279777603" lon="10.226509215278263"><ele>813.75</ele><time>2026-04-26T16:03:10.914Z</time></trkpt><trkpt lat="44.2029893664196" lon="10.226412426673955"><ele>810.5</ele><time>2026-04-26T16:03:11.914Z</time></trkpt><trkpt lat="44.20308365720257" lon="10.226320821159966"><ele>807.25</ele><time>2026-04-26T16:03:12.914Z</time></trkpt><trkpt lat="44.20318892518249" lon="10.226254033521542"><ele>804.0</ele><time>2026-04-26T16:03:13.915Z</time></trkpt><trkpt lat="44.20331853810324" lon="10.22623738557389"><ele>804.0</ele><time>2026-04-26T16:03:14.915Z</time></trkpt><trkpt lat="44.20344227946612" lon="10.22625145453308"><ele>804.0</ele><time>2026-04-26T16:03:15.915Z</time></trkpt><trkpt lat="44.20355222158586" lon="10.226218801251399"><ele>804.0</ele><time>2026-04-26T16:03:16.915Z</time></trkpt><trkpt lat="44.2036535073958" lon="10.226162289428077"><ele>804.0</ele><time>2026-04-26T16:03:17.915Z</time></trkpt><trkpt lat="44.20375009978217" lon="10.22607452658257"><ele>804.0</ele><time>2026-04-26T16:03:18.915Z</time></trkpt><trkpt lat="44.20383370485858" lon="10.225932810188198"><ele>804.0</ele><time>2026-04-26T16:03:19.915Z</time></trkpt><trkpt lat="44.20389801478032" lon="10.22577182454916"><ele>804.0</ele><time>2026-04-26T16:03:20.915Z</time></trkpt><trkpt lat="44.203994901126215" lon="10.225631639417546"><ele>804.0</ele><time>2026-04-26T16:03:21.915Z</time></trkpt><trkpt lat="44.204099849431095" lon="10.225512100647984"><ele>802.75</ele><time>2026-04-26T16:03:22.915Z</time></trkpt><trkpt lat="44.20420792211222" lon="10.225397213179477"><ele>801.5</ele><time>2026-04-26T16:03:23.915Z</time></trkpt><trkpt lat="44.20431106977023" lon="10.225285686713178"><ele>800.25</ele><time>2026-04-26T16:03:24.915Z</time></trkpt><trkpt lat="44.20440841365393" lon="10.225190311988653"><ele>799.0</ele><time>2026-04-26T16:03:25.915Z</time></trkpt><trkpt lat="44.20449813810143" lon="10.225095526527715"><ele>799.0</ele><time>2026-04-26T16:03:26.915Z</time></trkpt><trkpt lat="44.20459443406563" lon="10.225024263941005"><ele>799.0</ele><time>2026-04-26T16:03:27.915Z</time></trkpt><trkpt lat="44.20471137213298" lon="10.224972671938716"><ele>799.0</ele><time>2026-04-26T16:03:28.915Z</time></trkpt><trkpt lat="44.20483333053679" lon="10.224957612968725"><ele>799.0</ele><time>2026-04-26T16:03:29.915Z</time></trkpt><trkpt lat="44.20497691822595" lon="10.22497636520024"><ele>799.0</ele><time>2026-04-26T16:03:30.915Z</time></trkpt><trkpt lat="44.20511711131149" lon="10.22499745390468"><ele>799.0</ele><time>2026-04-26T16:03:31.915Z</time></trkpt><trkpt lat="44.205242703226546" lon="10.2250276282865"><ele>799.0</ele><time>2026-04-26T16:03:32.915Z</time></trkpt><trkpt lat="44.20536276339702" lon="10.225056806616868"><ele>799.0</ele><time>2026-04-26T16:03:33.915Z</time></trkpt><trkpt lat="44.20549331062616" lon="10.225027369732718"><ele>799.0</ele><time>2026-04-26T16:03:34.915Z</time></trkpt><trkpt lat="44.20560719047709" lon="10.224934027373795"><ele>799.0</ele><time>2026-04-26T16:03:35.915Z</time></trkpt><trkpt lat="44.205707306180955" lon="10.224845592367473"><ele>799.0</ele><time>2026-04-26T16:03:36.915Z</time></trkpt><trkpt lat="44.20581900255745" lon="10.224788404429754"><ele>799.0</ele><time>2026-04-26T16:03:37.915Z</time></trkpt><trkpt lat="44.20593012251794" lon="10.224784170733628"><ele>798.4000000000001</ele><time>2026-04-26T16:03:38.915Z</time></trkpt><trkpt lat="44.20604447154416" lon="10.224835990059475"><ele>797.8</ele><time>2026-04-26T16:03:39.915Z</time></trkpt><trkpt lat="44.20614390564353" lon="10.224932970629233"><ele>797.2</ele><time>2026-04-26T16:03:40.915Z</time></trkpt><trkpt lat="44.20622915313017" lon="10.225012436998018"><ele>796.5999999999999</ele><time>2026-04-26T16:03:41.915Z</time></trkpt><trkpt lat="44.2063118022789" lon="10.225069851992114"><ele>796.0</ele><time>2026-04-26T16:03:42.915Z</time></trkpt><trkpt lat="44.206399656087676" lon="10.225047426101106"><ele>796.0</ele><time>2026-04-26T16:03:43.915Z</time></trkpt><trkpt lat="44.20648097473922" lon="10.224971239872403"><ele>796.0</ele><time>2026-04-26T16:03:44.915Z</time></trkpt><trkpt lat="44.2065252775805" lon="10.224866308380516"><ele>796.0</ele><time>2026-04-26T16:03:45.915Z</time></trkpt><trkpt lat="44.20651598831223" lon="10.22470261817626"><ele>796.0</ele><time>2026-04-26T16:03:46.915Z</time></trkpt><trkpt lat="44.206467674461294" lon="10.22454614718157"><ele>796.0</ele><time>2026-04-26T16:03:47.915Z</time></trkpt><trkpt lat="44.20638625173377" lon="10.224409345557675"><ele>793.0</ele><time>2026-04-26T16:03:48.915Z</time></trkpt><trkpt lat="44.20628892864659" lon="10.224312271945404"><ele>790.0</ele><time>2026-04-26T16:03:49.915Z</time></trkpt><trkpt lat="44.20617938807261" lon="10.224250016508151"><ele>787.0</ele><time>2026-04-26T16:03:50.915Z</time></trkpt><trkpt lat="44.20607696717994" lon="10.224203946298564"><ele>784.0</ele><time>2026-04-26T16:03:51.915Z</time></trkpt><trkpt lat="44.205995291745715" lon="10.224108422121773"><ele>783.5</ele><time>2026-04-26T16:03:52.915Z</time></trkpt><trkpt lat="44.20593566399618" lon="10.223963841836763"><ele>783.0</ele><time>2026-04-26T16:03:53.915Z</time></trkpt><trkpt lat="44.20588397666345" lon="10.223801025618316"><ele>782.5</ele><time>2026-04-26T16:03:54.915Z</time></trkpt><trkpt lat="44.20584657819973" lon="10.223615957983503"><ele>782.0</ele><time>2026-04-26T16:03:55.915Z</time></trkpt><trkpt lat="44.205795391140235" lon="10.223436427605755"><ele>782.0</ele><time>2026-04-26T16:03:56.915Z</time></trkpt><trkpt lat="44.20574956989874" lon="10.223278536637038"><ele>782.0</ele><time>2026-04-26T16:03:57.915Z</time></trkpt><trkpt lat="44.2057146204577" lon="10.223146961774699"><ele>782.0</ele><time>2026-04-26T16:03:58.915Z</time></trkpt><trkpt lat="44.205699135724956" lon="10.223004259281545"><ele>782.0</ele><time>2026-04-26T16:03:59.915Z</time></trkpt><trkpt lat="44.205733988308495" lon="10.222861193993728"><ele>782.0</ele><time>2026-04-26T16:04:00.915Z</time></trkpt><trkpt lat="44.20584341587407" lon="10.222730935651759"><ele>777.75</ele><time>2026-04-26T16:04:01.915Z</time></trkpt><trkpt lat="44.2059628988096" lon="10.222650992947846"><ele>773.5</ele><time>2026-04-26T16:04:02.915Z</time></trkpt><trkpt lat="44.20609462625909" lon="10.222593560943384"><ele>769.25</ele><time>2026-04-26T16:04:03.915Z</time></trkpt><trkpt lat="44.206221491934365" lon="10.22254309637871"><ele>765.0</ele><time>2026-04-26T16:04:04.915Z</time></trkpt><trkpt lat="44.20636235861528" lon="10.222488371409995"><ele>768.0</ele><time>2026-04-26T16:04:05.915Z</time></trkpt><trkpt lat="44.20649886995162" lon="10.222455807125034"><ele>771.0</ele><time>2026-04-26T16:04:06.915Z</time></trkpt><trkpt lat="44.20663822458218" lon="10.222432901573285"><ele>774.0</ele><time>2026-04-26T16:04:07.915Z</time></trkpt><trkpt lat="44.2067687788033" lon="10.222418560482975"><ele>777.0</ele><time>2026-04-26T16:04:08.915Z</time></trkpt><trkpt lat="44.20690083486431" lon="10.222413551153615"><ele>777.0</ele><time>2026-04-26T16:04:09.915Z</time></trkpt><trkpt lat="44.20702580615888" lon="10.222391943860396"><ele>777.0</ele><time>2026-04-26T16:04:10.915Z</time></trkpt><trkpt lat="44.20713771166227" lon="10.22235051831544"><ele>777.0</ele><time>2026-04-26T16:04:11.915Z</time></trkpt><trkpt lat="44.20723888167315" lon="10.222254493368546"><ele>777.0</ele><time>2026-04-26T16:04:12.915Z</time></trkpt><trkpt lat="44.20732300439955" lon="10.222122184518062"><ele>777.0</ele><time>2026-04-26T16:04:13.915Z</time></trkpt><trkpt lat="44.207400569552135" lon="10.221994182640875"><ele>777.0</ele><time>2026-04-26T16:04:14.915Z</time></trkpt><trkpt lat="44.20747020028146" lon="10.221872526441029"><ele>777.0</ele><time>2026-04-26T16:04:15.915Z</time></trkpt><trkpt lat="44.20749676396297" lon="10.221738581903507"><ele>777.0</ele><time>2026-04-26T16:04:16.915Z</time></trkpt><trkpt lat="44.2074719370818" lon="10.221590189815682"><ele>777.0</ele><time>2026-04-26T16:04:17.915Z</time></trkpt><trkpt lat="44.20741215631915" lon="10.221462603851956"><ele>777.0</ele><time>2026-04-26T16:04:18.915Z</time></trkpt><trkpt lat="44.2073358242344" lon="10.221359814402607"><ele>777.0</ele><time>2026-04-26T16:04:19.915Z</time></trkpt><trkpt lat="44.20726697107577" lon="10.221262838233764"><ele>777.0</ele><time>2026-04-26T16:04:20.915Z</time></trkpt><trkpt lat="44.20723751615823" lon="10.221165874008978"><ele>777.0</ele><time>2026-04-26T16:04:21.915Z</time></trkpt><trkpt lat="44.207264010021625" lon="10.221042170646607"><ele>777.0</ele><time>2026-04-26T16:04:22.915Z</time></trkpt><trkpt lat="44.207339123902315" lon="10.220907564267554"><ele>777.0</ele><time>2026-04-26T16:04:23.915Z</time></trkpt><trkpt lat="44.20740983615017" lon="10.220785514785456"><ele>777.0</ele><time>2026-04-26T16:04:24.915Z</time></trkpt><trkpt lat="44.20746387699513" lon="10.220671619318901"><ele>777.0</ele><time>2026-04-26T16:04:25.915Z</time></trkpt><trkpt lat="44.20747302320977" lon="10.220539454580834"><ele>777.0</ele><time>2026-04-26T16:04:26.915Z</time></trkpt><trkpt lat="44.20745020604634" lon="10.220390427148729"><ele>777.0</ele><time>2026-04-26T16:04:27.915Z</time></trkpt><trkpt lat="44.20739856457563" lon="10.220212543145827"><ele>776.75</ele><time>2026-04-26T16:04:28.915Z</time></trkpt><trkpt lat="44.20733471716023" lon="10.220025100463742"><ele>776.5</ele><time>2026-04-26T16:04:29.915Z</time></trkpt><trkpt lat="44.20726082848748" lon="10.21984330706781"><ele>776.25</ele><time>2026-04-26T16:04:30.915Z</time></trkpt><trkpt lat="44.20719333989366" lon="10.219657750059474"><ele>776.0</ele><time>2026-04-26T16:04:31.915Z</time></trkpt><trkpt lat="44.20713782350936" lon="10.219481354462333"><ele>766.25</ele><time>2026-04-26T16:04:32.915Z</time></trkpt><trkpt lat="44.20709517627522" lon="10.219309323997352"><ele>756.5</ele><time>2026-04-26T16:04:33.915Z</time></trkpt><trkpt lat="44.20707399005313" lon="10.219133147098272"><ele>746.75</ele><time>2026-04-26T16:04:34.915Z</time></trkpt><trkpt lat="44.20707958474569" lon="10.218940626883603"><ele>737.0</ele><time>2026-04-26T16:04:35.915Z</time></trkpt><trkpt lat="44.20708021871388" lon="10.218753949853054"><ele>736.75</ele><time>2026-04-26T16:04:36.915Z</time></trkpt><trkpt lat="44.20707923435361" lon="10.218560671416409"><ele>736.5</ele><time>2026-04-26T16:04:37.915Z</time></trkpt><trkpt lat="44.20710059383652" lon="10.2183934835209"><ele>736.25</ele><time>2026-04-26T16:04:38.915Z</time></trkpt><trkpt lat="44.207142710219905" lon="10.218229769269806"><ele>736.0</ele><time>2026-04-26T16:04:39.915Z</time></trkpt><trkpt lat="44.20718341104208" lon="10.21806030068026"><ele>735.75</ele><time>2026-04-26T16:04:40.915Z</time></trkpt><trkpt lat="44.207216978224594" lon="10.21788750294369"><ele>735.5</ele><time>2026-04-26T16:04:41.915Z</time></trkpt><trkpt lat="44.20724974516801" lon="10.217715567120406"><ele>735.25</ele><time>2026-04-26T16:04:42.915Z</time></trkpt><trkpt lat="44.2072838660937" lon="10.217559563884429"><ele>735.0</ele><time>2026-04-26T16:04:43.915Z</time></trkpt><trkpt lat="44.20731992743959" lon="10.2174167855621"><ele>737.25</ele><time>2026-04-26T16:04:44.915Z</time></trkpt><trkpt lat="44.2073736165223" lon="10.217292115925092"><ele>739.5</ele><time>2026-04-26T16:04:45.915Z</time></trkpt><trkpt lat="44.2074568473396" lon="10.217174381692535"><ele>741.75</ele><time>2026-04-26T16:04:46.915Z</time></trkpt><trkpt lat="44.20755320931956" lon="10.21704666394166"><ele>744.0</ele><time>2026-04-26T16:04:47.915Z</time></trkpt><trkpt lat="44.20764563596017" lon="10.216914477424702"><ele>744.0</ele><time>2026-04-26T16:04:48.915Z</time></trkpt><trkpt lat="44.20773121546646" lon="10.216788521703982"><ele>744.0</ele><time>2026-04-26T16:04:49.915Z</time></trkpt><trkpt lat="44.20780983740307" lon="10.216668577482428"><ele>744.0</ele><time>2026-04-26T16:04:50.915Z</time></trkpt><trkpt lat="44.20788358176814" lon="10.216552624468893"><ele>744.0</ele><time>2026-04-26T16:04:51.915Z</time></trkpt><trkpt lat="44.20793843167288" lon="10.216419024180599"><ele>741.75</ele><time>2026-04-26T16:04:52.915Z</time></trkpt><trkpt lat="44.20797086067671" lon="10.216256970749848"><ele>739.5</ele><time>2026-04-26T16:04:53.915Z</time></trkpt><trkpt lat="44.20799525209722" lon="10.216072712403431"><ele>737.25</ele><time>2026-04-26T16:04:54.915Z</time></trkpt><trkpt lat="44.20802226290833" lon="10.215881053542402"><ele>735.0</ele><time>2026-04-26T16:04:55.915Z</time></trkpt><trkpt lat="44.20805501988397" lon="10.215685787806306"><ele>735.25</ele><time>2026-04-26T16:04:56.915Z</time></trkpt><trkpt lat="44.20808756535676" lon="10.215491306535844"><ele>735.5</ele><time>2026-04-26T16:04:57.915Z</time></trkpt><trkpt lat="44.208122803414305" lon="10.21531438360974"><ele>735.75</ele><time>2026-04-26T16:04:58.915Z</time></trkpt><trkpt lat="44.20815305566644" lon="10.215148056411525"><ele>736.0</ele><time>2026-04-26T16:04:59.915Z</time></trkpt><trkpt lat="44.20818165666245" lon="10.21499941313794"><ele>736.0</ele><time>2026-04-26T16:05:00.915Z</time></trkpt><trkpt lat="44.20821006132706" lon="10.214884738616327"><ele>736.0</ele><time>2026-04-26T16:05:01.915Z</time></trkpt><trkpt lat="44.208222618586696" lon="10.214789046160249"><ele>736.0</ele><time>2026-04-26T16:05:02.915Z</time></trkpt><trkpt lat="44.20817943404717" lon="10.214667399463536"><ele>736.0</ele><time>2026-04-26T16:05:04.915Z</time></trkpt><trkpt lat="44.20810514670423" lon="10.214658750158288"><ele>736.0</ele><time>2026-04-26T16:05:05.915Z</time></trkpt><trkpt lat="44.20802844480858" lon="10.214708637510224"><ele>736.0</ele><time>2026-04-26T16:05:06.913Z</time></trkpt><trkpt lat="44.20795717278148" lon="10.214818416049141"><ele>734.75</ele><time>2026-04-26T16:05:07.913Z</time></trkpt><trkpt lat="44.20788378649787" lon="10.214929960421237"><ele>733.5</ele><time>2026-04-26T16:05:08.913Z</time></trkpt><trkpt lat="44.20779815918823" lon="10.215054854039323"><ele>732.25</ele><time>2026-04-26T16:05:09.913Z</time></trkpt><trkpt lat="44.207712381337046" lon="10.215187884759688"><ele>731.0</ele><time>2026-04-26T16:05:10.913Z</time></trkpt><trkpt lat="44.207625152098586" lon="10.21531974290109"><ele>731.0</ele><time>2026-04-26T16:05:11.913Z</time></trkpt><trkpt lat="44.20753540177161" lon="10.21545619671182"><ele>731.0</ele><time>2026-04-26T16:05:12.913Z</time></trkpt><trkpt lat="44.207448099965376" lon="10.215582967024105"><ele>731.0</ele><time>2026-04-26T16:05:13.913Z</time></trkpt><trkpt lat="44.207362603674945" lon="10.215707422694603"><ele>731.0</ele><time>2026-04-26T16:05:14.913Z</time></trkpt><trkpt lat="44.20727903873366" lon="10.215814244956064"><ele>729.5999999999999</ele><time>2026-04-26T16:05:15.913Z</time></trkpt><trkpt lat="44.20720069840728" lon="10.21590142537599"><ele>728.2</ele><time>2026-04-26T16:05:16.913Z</time></trkpt><trkpt lat="44.20711334470492" lon="10.21596020751618"><ele>726.8</ele><time>2026-04-26T16:05:17.913Z</time></trkpt><trkpt lat="44.20701158801121" lon="10.21597314898411"><ele>725.4000000000001</ele><time>2026-04-26T16:05:18.913Z</time></trkpt><trkpt lat="44.206909501832854" lon="10.215960376797339"><ele>724.0</ele><time>2026-04-26T16:05:19.913Z</time></trkpt><trkpt lat="44.20682415030029" lon="10.215912638577642"><ele>724.0</ele><time>2026-04-26T16:05:20.913Z</time></trkpt><trkpt lat="44.20673510458135" lon="10.215839929154315"><ele>724.0</ele><time>2026-04-26T16:05:21.913Z</time></trkpt><trkpt lat="44.20663517570596" lon="10.215749143321144"><ele>724.0</ele><time>2026-04-26T16:05:22.913Z</time></trkpt><trkpt lat="44.206531019632905" lon="10.21565449802084"><ele>724.0</ele><time>2026-04-26T16:05:23.913Z</time></trkpt><trkpt lat="44.20642529682122" lon="10.215574309590817"><ele>722.25</ele><time>2026-04-26T16:05:24.913Z</time></trkpt><trkpt lat="44.2063161988652" lon="10.215492354121155"><ele>720.5</ele><time>2026-04-26T16:05:25.913Z</time></trkpt><trkpt lat="44.20620492427357" lon="10.215403411618114"><ele>718.75</ele><time>2026-04-26T16:05:26.913Z</time></trkpt><trkpt lat="44.20609246980098" lon="10.215323024944729"><ele>717.0</ele><time>2026-04-26T16:05:27.913Z</time></trkpt><trkpt lat="44.205989021585566" lon="10.215245172155553"><ele>717.0</ele><time>2026-04-26T16:05:28.913Z</time></trkpt><trkpt lat="44.20589388740609" lon="10.215178892371645"><ele>717.0</ele><time>2026-04-26T16:05:29.913Z</time></trkpt><trkpt lat="44.20580668764979" lon="10.215104209299051"><ele>717.0</ele><time>2026-04-26T16:05:30.913Z</time></trkpt><trkpt lat="44.205736334539715" lon="10.215013503089327"><ele>717.0</ele><time>2026-04-26T16:05:31.913Z</time></trkpt><trkpt lat="44.205700135371224" lon="10.214908374320425"><ele>717.0</ele><time>2026-04-26T16:05:32.913Z</time></trkpt><trkpt lat="44.20569222905565" lon="10.214774854562252"><ele>715.5</ele><time>2026-04-26T16:05:33.913Z</time></trkpt><trkpt lat="44.20570631046716" lon="10.214619042989078"><ele>714.0</ele><time>2026-04-26T16:05:34.913Z</time></trkpt><trkpt lat="44.20573032047922" lon="10.2144549516947"><ele>712.5</ele><time>2026-04-26T16:05:35.913Z</time></trkpt><trkpt lat="44.20575026553256" lon="10.214286553751002"><ele>711.0</ele><time>2026-04-26T16:05:36.913Z</time></trkpt><trkpt lat="44.20576857342014" lon="10.21411811331476"><ele>708.4</ele><time>2026-04-26T16:05:37.913Z</time></trkpt><trkpt lat="44.20578798328084" lon="10.213959191140283"><ele>705.8</ele><time>2026-04-26T16:05:38.913Z</time></trkpt><trkpt lat="44.205822256242165" lon="10.213827891980658"><ele>703.1999999999999</ele><time>2026-04-26T16:05:39.913Z</time></trkpt><trkpt lat="44.205884738336344" lon="10.21373196055115"><ele>700.5999999999999</ele><time>2026-04-26T16:05:40.913Z</time></trkpt><trkpt lat="44.20596840380799" lon="10.213673059505256"><ele>698.0</ele><time>2026-04-26T16:05:41.913Z</time></trkpt><trkpt lat="44.20605728457441" lon="10.213645309796956"><ele>698.0</ele><time>2026-04-26T16:05:42.913Z</time></trkpt><trkpt lat="44.20614957299085" lon="10.21365520286147"><ele>698.0</ele><time>2026-04-26T16:05:43.913Z</time></trkpt><trkpt lat="44.20624101128757" lon="10.213689584427902"><ele>698.0</ele><time>2026-04-26T16:05:44.913Z</time></trkpt><trkpt lat="44.2063329929113" lon="10.213735162328362"><ele>698.0</ele><time>2026-04-26T16:05:45.913Z</time></trkpt><trkpt lat="44.20642373111284" lon="10.213766557527137"><ele>698.0</ele><time>2026-04-26T16:05:46.913Z</time></trkpt><trkpt lat="44.20649909316281" lon="10.213725789918133"><ele>699.0</ele><time>2026-04-26T16:05:47.913Z</time></trkpt><trkpt lat="44.20655436581459" lon="10.21363550744828"><ele>700.0</ele><time>2026-04-26T16:05:48.913Z</time></trkpt><trkpt lat="44.20658020826692" lon="10.213477805644775"><ele>701.0</ele><time>2026-04-26T16:05:49.913Z</time></trkpt><trkpt lat="44.206562302658455" lon="10.2133159913711"><ele>702.0</ele><time>2026-04-26T16:05:50.913Z</time></trkpt><trkpt lat="44.206564487657445" lon="10.213192489475706"><ele>703.0</ele><time>2026-04-26T16:05:51.913Z</time></trkpt><trkpt lat="44.20659932858952" lon="10.213091184616365"><ele>700.8</ele><time>2026-04-26T16:05:52.913Z</time></trkpt><trkpt lat="44.20667247782397" lon="10.213041950303094"><ele>698.5999999999999</ele><time>2026-04-26T16:05:53.913Z</time></trkpt><trkpt lat="44.20676917591518" lon="10.213039977990707"><ele>696.4000000000001</ele><time>2026-04-26T16:05:54.913Z</time></trkpt><trkpt lat="44.206865764659" lon="10.213060127591122"><ele>694.2</ele><time>2026-04-26T16:05:55.913Z</time></trkpt><trkpt lat="44.20696471533093" lon="10.213054456481556"><ele>692.0</ele><time>2026-04-26T16:05:56.913Z</time></trkpt><trkpt lat="44.20703257196172" lon="10.212987090892556"><ele>692.0</ele><time>2026-04-26T16:05:57.913Z</time></trkpt><trkpt lat="44.20706749315918" lon="10.212857272658963"><ele>692.0</ele><time>2026-04-26T16:05:58.913Z</time></trkpt><trkpt lat="44.20705448664821" lon="10.21268662364309"><ele>692.0</ele><time>2026-04-26T16:05:59.913Z</time></trkpt><trkpt lat="44.20702052205506" lon="10.212519306988359"><ele>692.0</ele><time>2026-04-26T16:06:00.913Z</time></trkpt><trkpt lat="44.206985187547055" lon="10.212359042010972"><ele>690.6</ele><time>2026-04-26T16:06:01.913Z</time></trkpt><trkpt lat="44.206952197399225" lon="10.212203027280836"><ele>689.2</ele><time>2026-04-26T16:06:02.913Z</time></trkpt><trkpt lat="44.20690822664867" lon="10.212064275036383"><ele>687.8</ele><time>2026-04-26T16:06:03.913Z</time></trkpt><trkpt lat="44.20684744784191" lon="10.211939676606683"><ele>686.4</ele><time>2026-04-26T16:06:04.913Z</time></trkpt><trkpt lat="44.20675778599581" lon="10.211837153945217"><ele>685.0</ele><time>2026-04-26T16:06:05.913Z</time></trkpt><trkpt lat="44.20662819922496" lon="10.211777127307217"><ele>681.3333333333334</ele><time>2026-04-26T16:06:06.913Z</time></trkpt><trkpt lat="44.20648218283541" lon="10.21173098174954"><ele>677.6666666666666</ele><time>2026-04-26T16:06:07.913Z</time></trkpt><trkpt lat="44.20632437154955" lon="10.211672441427817"><ele>674.0</ele><time>2026-04-26T16:06:08.913Z</time></trkpt><trkpt lat="44.20617477805511" lon="10.21161394295902"><ele>674.0</ele><time>2026-04-26T16:06:09.913Z</time></trkpt><trkpt lat="44.20603752530808" lon="10.211553029861973"><ele>674.0</ele><time>2026-04-26T16:06:10.914Z</time></trkpt><trkpt lat="44.2059067006783" lon="10.21149410890958"><ele>674.0</ele><time>2026-04-26T16:06:11.914Z</time></trkpt><trkpt lat="44.2057849119573" lon="10.211439031471652"><ele>674.0</ele><time>2026-04-26T16:06:12.914Z</time></trkpt><trkpt lat="44.20567104828656" lon="10.211383716723484"><ele>669.75</ele><time>2026-04-26T16:06:13.914Z</time></trkpt><trkpt lat="44.20556843200673" lon="10.211317899813919"><ele>665.5</ele><time>2026-04-26T16:06:14.914Z</time></trkpt><trkpt lat="44.20548176689183" lon="10.211218265622898"><ele>661.25</ele><time>2026-04-26T16:06:15.914Z</time></trkpt><trkpt lat="44.205422504228615" lon="10.211079750915596"><ele>657.0</ele><time>2026-04-26T16:06:16.914Z</time></trkpt><trkpt lat="44.20539487351341" lon="10.210892336560935"><ele>657.0</ele><time>2026-04-26T16:06:17.914Z</time></trkpt><trkpt lat="44.20537774373127" lon="10.21069530002631"><ele>657.0</ele><time>2026-04-26T16:06:18.914Z</time></trkpt><trkpt lat="44.20536279338528" lon="10.210504565414771"><ele>657.0</ele><time>2026-04-26T16:06:19.914Z</time></trkpt><trkpt lat="44.20535413177292" lon="10.210330724528136"><ele>657.0</ele><time>2026-04-26T16:06:20.914Z</time></trkpt><trkpt lat="44.20536396052901" lon="10.2101454868212"><ele>655.0</ele><time>2026-04-26T16:06:21.914Z</time></trkpt><trkpt lat="44.205399699982436" lon="10.209956288596226"><ele>653.0</ele><time>2026-04-26T16:06:22.914Z</time></trkpt><trkpt lat="44.20544912098888" lon="10.209763683652671"><ele>651.0</ele><time>2026-04-26T16:06:23.914Z</time></trkpt><trkpt lat="44.205501629618496" lon="10.209563635314964"><ele>649.0</ele><time>2026-04-26T16:06:24.914Z</time></trkpt><trkpt lat="44.205560935362044" lon="10.209349186417786"><ele>651.3333333333334</ele><time>2026-04-26T16:06:25.914Z</time></trkpt><trkpt lat="44.20562907012591" lon="10.209136647817557"><ele>653.6666666666666</ele><time>2026-04-26T16:06:26.914Z</time></trkpt><trkpt lat="44.205692774213524" lon="10.208938869997304"><ele>656.0</ele><time>2026-04-26T16:06:27.914Z</time></trkpt><trkpt lat="44.205760595262824" lon="10.208751964742339"><ele>656.0</ele><time>2026-04-26T16:06:28.914Z</time></trkpt><trkpt lat="44.20582519120403" lon="10.208587475987134"><ele>656.0</ele><time>2026-04-26T16:06:29.914Z</time></trkpt><trkpt lat="44.20588611246691" lon="10.208461411590013"><ele>656.0</ele><time>2026-04-26T16:06:30.914Z</time></trkpt><trkpt lat="44.205952120834866" lon="10.208359773027873"><ele>656.0</ele><time>2026-04-26T16:06:31.914Z</time></trkpt><trkpt lat="44.206049791414266" lon="10.20829550167093"><ele>656.0</ele><time>2026-04-26T16:06:32.914Z</time></trkpt><trkpt lat="44.206173990207276" lon="10.208277698459474"><ele>656.0</ele><time>2026-04-26T16:06:33.914Z</time></trkpt><trkpt lat="44.20630160566556" lon="10.208312131012423"><ele>656.0</ele><time>2026-04-26T16:06:34.914Z</time></trkpt><trkpt lat="44.206422703949386" lon="10.208340731903931"><ele>656.0</ele><time>2026-04-26T16:06:35.914Z</time></trkpt><trkpt lat="44.20653839578879" lon="10.208295534509242"><ele>658.0</ele><time>2026-04-26T16:06:36.914Z</time></trkpt><trkpt lat="44.20665471368719" lon="10.208177568576446"><ele>660.0</ele><time>2026-04-26T16:06:37.914Z</time></trkpt><trkpt lat="44.206763044005335" lon="10.20802387268031"><ele>662.0</ele><time>2026-04-26T16:06:38.914Z</time></trkpt><trkpt lat="44.2068676596329" lon="10.20788055794577"><ele>664.0</ele><time>2026-04-26T16:06:39.914Z</time></trkpt><trkpt lat="44.206974081677394" lon="10.207740958427435"><ele>659.5</ele><time>2026-04-26T16:06:40.914Z</time></trkpt><trkpt lat="44.207068602117744" lon="10.207612042670343"><ele>655.0</ele><time>2026-04-26T16:06:41.914Z</time></trkpt><trkpt lat="44.207141706808336" lon="10.207482724578416"><ele>650.5</ele><time>2026-04-26T16:06:42.914Z</time></trkpt><trkpt lat="44.207189468641886" lon="10.207331696737857"><ele>646.0</ele><time>2026-04-26T16:06:43.914Z</time></trkpt><trkpt lat="44.20721641998478" lon="10.207165110390573"><ele>643.0</ele><time>2026-04-26T16:06:44.914Z</time></trkpt><trkpt lat="44.20718278750897" lon="10.206997454024082"><ele>640.0</ele><time>2026-04-26T16:06:45.914Z</time></trkpt><trkpt lat="44.207109239532144" lon="10.206819546238446"><ele>637.0</ele><time>2026-04-26T16:06:46.914Z</time></trkpt><trkpt lat="44.207055446333044" lon="10.206636755145071"><ele>634.0</ele><time>2026-04-26T16:06:47.914Z</time></trkpt><trkpt lat="44.207017004356885" lon="10.20649833853886"><ele>635.0</ele><time>2026-04-26T16:06:48.914Z</time></trkpt><trkpt lat="44.20701630060807" lon="10.206348201477308"><ele>636.0</ele><time>2026-04-26T16:06:49.914Z</time></trkpt><trkpt lat="44.207042952206976" lon="10.206211685582163"><ele>637.0</ele><time>2026-04-26T16:06:50.914Z</time></trkpt><trkpt lat="44.207065016584394" lon="10.206080675459177"><ele>638.0</ele><time>2026-04-26T16:06:51.914Z</time></trkpt><trkpt lat="44.20704499012916" lon="10.20596708920667"><ele>639.0</ele><time>2026-04-26T16:06:52.914Z</time></trkpt><trkpt lat="44.20696225481694" lon="10.205874706970386"><ele>639.0</ele><time>2026-04-26T16:06:53.914Z</time></trkpt><trkpt lat="44.20687542027015" lon="10.205749069035976"><ele>639.0</ele><time>2026-04-26T16:06:54.914Z</time></trkpt><trkpt lat="44.206789696638694" lon="10.205608247030476"><ele>639.0</ele><time>2026-04-26T16:06:55.914Z</time></trkpt><trkpt lat="44.2067033292767" lon="10.205472215323438"><ele>639.0</ele><time>2026-04-26T16:06:56.914Z</time></trkpt><trkpt lat="44.206620109950876" lon="10.205337085193781"><ele>640.4</ele><time>2026-04-26T16:06:57.914Z</time></trkpt><trkpt lat="44.20654616953538" lon="10.205222829158135"><ele>641.8</ele><time>2026-04-26T16:06:58.914Z</time></trkpt><trkpt lat="44.2064823646603" lon="10.205116470353445"><ele>643.1999999999999</ele><time>2026-04-26T16:06:59.914Z</time></trkpt><trkpt lat="44.2064370662494" lon="10.205021376128258"><ele>644.5999999999999</ele><time>2026-04-26T16:07:00.914Z</time></trkpt><trkpt lat="44.20643296393661" lon="10.20491171604499"><ele>646.0</ele><time>2026-04-26T16:07:01.914Z</time></trkpt><trkpt lat="44.20648918164804" lon="10.204791127754058"><ele>643.25</ele><time>2026-04-26T16:07:02.914Z</time></trkpt><trkpt lat="44.20657479804541" lon="10.204668481880693"><ele>640.5</ele><time>2026-04-26T16:07:03.914Z</time></trkpt><trkpt lat="44.20667620125187" lon="10.204546463140638"><ele>637.75</ele><time>2026-04-26T16:07:04.914Z</time></trkpt><trkpt lat="44.20678455970526" lon="10.204434335568886"><ele>635.0</ele><time>2026-04-26T16:07:05.914Z</time></trkpt><trkpt lat="44.2068921403044" lon="10.204301609822679"><ele>635.0</ele><time>2026-04-26T16:07:06.914Z</time></trkpt><trkpt lat="44.20700040226002" lon="10.204157444877838"><ele>635.0</ele><time>2026-04-26T16:07:07.914Z</time></trkpt><trkpt lat="44.20708896941404" lon="10.20400257881222"><ele>635.0</ele><time>2026-04-26T16:07:08.914Z</time></trkpt><trkpt lat="44.207162334102556" lon="10.20384094380978"><ele>635.0</ele><time>2026-04-26T16:07:09.914Z</time></trkpt><trkpt lat="44.20722364382054" lon="10.20365725764571"><ele>633.3333333333333</ele><time>2026-04-26T16:07:10.914Z</time></trkpt><trkpt lat="44.20726090056448" lon="10.203455227375782"><ele>631.6666666666666</ele><time>2026-04-26T16:07:11.914Z</time></trkpt><trkpt lat="44.20729800742271" lon="10.20324168322457"><ele>630.0</ele><time>2026-04-26T16:07:12.912Z</time></trkpt><trkpt lat="44.207339204165464" lon="10.203029931802073"><ele>630.0</ele><time>2026-04-26T16:07:13.912Z</time></trkpt><trkpt lat="44.20738118894511" lon="10.202837819028305"><ele>630.0</ele><time>2026-04-26T16:07:14.912Z</time></trkpt><trkpt lat="44.20743557600646" lon="10.202653851653722"><ele>630.0</ele><time>2026-04-26T16:07:15.912Z</time></trkpt><trkpt lat="44.207487448876336" lon="10.202472872821309"><ele>630.0</ele><time>2026-04-26T16:07:16.913Z</time></trkpt><trkpt lat="44.20752924103016" lon="10.202296056577238"><ele>627.75</ele><time>2026-04-26T16:07:17.913Z</time></trkpt><trkpt lat="44.20754661234992" lon="10.20212004447619"><ele>625.5</ele><time>2026-04-26T16:07:18.912Z</time></trkpt><trkpt lat="44.20753733691417" lon="10.201937019922896"><ele>623.25</ele><time>2026-04-26T16:07:19.913Z</time></trkpt><trkpt lat="44.20749464905454" lon="10.20175040200874"><ele>621.0</ele><time>2026-04-26T16:07:20.913Z</time></trkpt><trkpt lat="44.207446164100794" lon="10.201568452025507"><ele>619.6</ele><time>2026-04-26T16:07:21.912Z</time></trkpt><trkpt lat="44.20740535374999" lon="10.201420180509606"><ele>618.2</ele><time>2026-04-26T16:07:22.912Z</time></trkpt><trkpt lat="44.20738055072619" lon="10.201299469209333"><ele>616.8</ele><time>2026-04-26T16:07:23.912Z</time></trkpt><trkpt lat="44.20738525669369" lon="10.20117726339405"><ele>615.4</ele><time>2026-04-26T16:07:24.912Z</time></trkpt><trkpt lat="44.20743536628235" lon="10.201082601956049"><ele>614.0</ele><time>2026-04-26T16:07:25.912Z</time></trkpt><trkpt lat="44.20752454192047" lon="10.2010253107219"><ele>614.0</ele><time>2026-04-26T16:07:26.912Z</time></trkpt><trkpt lat="44.20761471727596" lon="10.201009820159573"><ele>614.0</ele><time>2026-04-26T16:07:27.912Z</time></trkpt><trkpt lat="44.20771249967879" lon="10.20103817423819"><ele>614.0</ele><time>2026-04-26T16:07:28.912Z</time></trkpt><trkpt lat="44.20783145795667" lon="10.201081244381884"><ele>614.0</ele><time>2026-04-26T16:07:29.912Z</time></trkpt><trkpt lat="44.20796110687404" lon="10.201116203263462"><ele>614.0</ele><time>2026-04-26T16:07:30.912Z</time></trkpt><trkpt lat="44.208106796459106" lon="10.201148703248755"><ele>613.0</ele><time>2026-04-26T16:07:31.912Z</time></trkpt><trkpt lat="44.2082783997323" lon="10.20118209584907"><ele>612.0</ele><time>2026-04-26T16:07:32.912Z</time></trkpt><trkpt lat="44.20843746102932" lon="10.201223985155401"><ele>611.0</ele><time>2026-04-26T16:07:33.912Z</time></trkpt><trkpt lat="44.208589309371376" lon="10.201259198287511"><ele>611.0</ele><time>2026-04-26T16:07:34.912Z</time></trkpt><trkpt lat="44.208720210071945" lon="10.20128969426699"><ele>611.0</ele><time>2026-04-26T16:07:35.912Z</time></trkpt><trkpt lat="44.208848749619456" lon="10.201294358193147"><ele>611.0</ele><time>2026-04-26T16:07:36.912Z</time></trkpt><trkpt lat="44.20896238603913" lon="10.201255466678015"><ele>611.0</ele><time>2026-04-26T16:07:37.912Z</time></trkpt><trkpt lat="44.209064057541966" lon="10.201184907676284"><ele>610.25</ele><time>2026-04-26T16:07:38.912Z</time></trkpt><trkpt lat="44.20916718755005" lon="10.201068999030028"><ele>609.5</ele><time>2026-04-26T16:07:39.912Z</time></trkpt><trkpt lat="44.209230019292015" lon="10.200923253672649"><ele>608.75</ele><time>2026-04-26T16:07:40.912Z</time></trkpt><trkpt lat="44.2092743318531" lon="10.200764735608852"><ele>608.0</ele><time>2026-04-26T16:07:41.912Z</time></trkpt><trkpt lat="44.20927755892114" lon="10.200587801208956"><ele>607.25</ele><time>2026-04-26T16:07:42.913Z</time></trkpt><trkpt lat="44.209250397067024" lon="10.200407830696761"><ele>606.5</ele><time>2026-04-26T16:07:43.913Z</time></trkpt><trkpt lat="44.20919697896117" lon="10.200210496618073"><ele>605.75</ele><time>2026-04-26T16:07:44.913Z</time></trkpt><trkpt lat="44.20914229119644" lon="10.200025550495534"><ele>605.0</ele><time>2026-04-26T16:07:45.913Z</time></trkpt><trkpt lat="44.20907921654249" lon="10.199840877161092"><ele>604.0</ele><time>2026-04-26T16:07:46.913Z</time></trkpt><trkpt lat="44.20901154395153" lon="10.199638461341118"><ele>603.0</ele><time>2026-04-26T16:07:47.913Z</time></trkpt><trkpt lat="44.208936646172916" lon="10.199413529943643"><ele>602.0</ele><time>2026-04-26T16:07:48.913Z</time></trkpt><trkpt lat="44.20886662640968" lon="10.199203438498605"><ele>598.6666666666666</ele><time>2026-04-26T16:07:49.913Z</time></trkpt><trkpt lat="44.208800388327816" lon="10.198993790180012"><ele>595.3333333333334</ele><time>2026-04-26T16:07:50.913Z</time></trkpt><trkpt lat="44.20873485067411" lon="10.19878871998273"><ele>592.0</ele><time>2026-04-26T16:07:51.913Z</time></trkpt><trkpt lat="44.20867844461706" lon="10.198594271869933"><ele>592.0</ele><time>2026-04-26T16:07:52.913Z</time></trkpt><trkpt lat="44.20862191371568" lon="10.198419333465814"><ele>592.0</ele><time>2026-04-26T16:07:53.913Z</time></trkpt><trkpt lat="44.20858359313412" lon="10.198275355271079"><ele>592.0</ele><time>2026-04-26T16:07:54.913Z</time></trkpt><trkpt lat="44.20852137417989" lon="10.198153861082925"><ele>592.0</ele><time>2026-04-26T16:07:55.913Z</time></trkpt><trkpt lat="44.20843294764936" lon="10.198071496240212"><ele>591.0</ele><time>2026-04-26T16:07:56.913Z</time></trkpt><trkpt lat="44.208313431570545" lon="10.198049595602585"><ele>590.0</ele><time>2026-04-26T16:07:57.913Z</time></trkpt><trkpt lat="44.208202343532065" lon="10.198086155387672"><ele>589.0</ele><time>2026-04-26T16:07:58.913Z</time></trkpt><trkpt lat="44.208096775293505" lon="10.198168180673871"><ele>588.0</ele><time>2026-04-26T16:07:59.913Z</time></trkpt><trkpt lat="44.2079990467297" lon="10.198285616583503"><ele>587.0</ele><time>2026-04-26T16:08:00.913Z</time></trkpt><trkpt lat="44.20790384420933" lon="10.198396657195993"><ele>586.0</ele><time>2026-04-26T16:08:01.913Z</time></trkpt><trkpt lat="44.207815055224806" lon="10.198497017643039"><ele>585.0</ele><time>2026-04-26T16:08:02.913Z</time></trkpt><trkpt lat="44.20772075863896" lon="10.198596786061588"><ele>584.0</ele><time>2026-04-26T16:08:03.913Z</time></trkpt><trkpt lat="44.20763311114808" lon="10.198692440486553"><ele>584.0</ele><time>2026-04-26T16:08:04.913Z</time></trkpt><trkpt lat="44.207551964612854" lon="10.198777031772051"><ele>584.0</ele><time>2026-04-26T16:08:05.913Z</time></trkpt><trkpt lat="44.207470914407594" lon="10.198838258375671"><ele>584.0</ele><time>2026-04-26T16:08:06.913Z</time></trkpt><trkpt lat="44.20738638169221" lon="10.198865324560852"><ele>584.0</ele><time>2026-04-26T16:08:07.913Z</time></trkpt><trkpt lat="44.207285531257874" lon="10.198855684220263"><ele>584.0</ele><time>2026-04-26T16:08:08.913Z</time></trkpt><trkpt lat="44.20719306732627" lon="10.198792026264455"><ele>582.4</ele><time>2026-04-26T16:08:09.913Z</time></trkpt><trkpt lat="44.2071052666213" lon="10.198705975710778"><ele>580.8</ele><time>2026-04-26T16:08:10.913Z</time></trkpt><trkpt lat="44.20702988113655" lon="10.198602981674675"><ele>579.2</ele><time>2026-04-26T16:08:11.913Z</time></trkpt><trkpt lat="44.206973616321015" lon="10.198497081557175"><ele>577.6</ele><time>2026-04-26T16:08:12.913Z</time></trkpt><trkpt lat="44.206943443712454" lon="10.198391295210387"><ele>576.0</ele><time>2026-04-26T16:08:13.913Z</time></trkpt><trkpt lat="44.20693191881666" lon="10.198303153394786"><ele>576.0</ele><time>2026-04-26T16:08:14.913Z</time></trkpt><trkpt lat="44.206947122849556" lon="10.198210390668423"><ele>576.0</ele><time>2026-04-26T16:08:15.913Z</time></trkpt><trkpt lat="44.206993466560675" lon="10.19809451044096"><ele>576.0</ele><time>2026-04-26T16:08:16.913Z</time></trkpt><trkpt lat="44.20708252978918" lon="10.19794374478679"><ele>576.0</ele><time>2026-04-26T16:08:17.913Z</time></trkpt><trkpt lat="44.20716899525087" lon="10.197784602266545"><ele>576.0</ele><time>2026-04-26T16:08:18.913Z</time></trkpt><trkpt lat="44.207269430805695" lon="10.197597211113566"><ele>578.3333333333334</ele><time>2026-04-26T16:08:19.913Z</time></trkpt><trkpt lat="44.20739114025767" lon="10.197371203670498"><ele>580.6666666666667</ele><time>2026-04-26T16:08:20.913Z</time></trkpt><trkpt lat="44.207506908306826" lon="10.197110425226194"><ele>583.0</ele><time>2026-04-26T16:08:21.913Z</time></trkpt><trkpt lat="44.207622255156565" lon="10.19688016342741"><ele>583.0</ele><time>2026-04-26T16:08:22.913Z</time></trkpt><trkpt lat="44.20771414978136" lon="10.196689241207775"><ele>583.0</ele><time>2026-04-26T16:08:23.913Z</time></trkpt><trkpt lat="44.20778750963469" lon="10.196541276041437"><ele>583.0</ele><time>2026-04-26T16:08:24.913Z</time></trkpt><trkpt lat="44.20785674276108" lon="10.196404384491993"><ele>583.0</ele><time>2026-04-26T16:08:25.913Z</time></trkpt><trkpt lat="44.20791666754332" lon="10.196277035353097"><ele>580.6666666666667</ele><time>2026-04-26T16:08:26.913Z</time></trkpt><trkpt lat="44.207970057237915" lon="10.196172310198696"><ele>578.3333333333334</ele><time>2026-04-26T16:08:27.913Z</time></trkpt><trkpt lat="44.208011818612476" lon="10.19608217438943"><ele>576.0</ele><time>2026-04-26T16:08:28.913Z</time></trkpt><trkpt lat="44.20807843510565" lon="10.19596647270746"><ele>573.6666666666666</ele><time>2026-04-26T16:08:30.913Z</time></trkpt><trkpt lat="44.208076866587945" lon="10.195870849346157"><ele>571.3333333333333</ele><time>2026-04-26T16:08:32.913Z</time></trkpt><trkpt lat="44.208008302195935" lon="10.195852839090843"><ele>569.0</ele><time>2026-04-26T16:08:35.913Z</time></trkpt><trkpt lat="44.20796125694696" lon="10.195991584973019"><ele>569.0</ele><time>2026-04-26T16:08:38.913Z</time></trkpt><trkpt lat="44.20794874911195" lon="10.196084668316837"><ele>569.0</ele><time>2026-04-26T16:08:39.913Z</time></trkpt><trkpt lat="44.207919791966305" lon="10.196207517960522"><ele>569.0</ele><time>2026-04-26T16:08:41.913Z</time></trkpt><trkpt lat="44.20787534662475" lon="10.196320343161563"><ele>569.0</ele><time>2026-04-26T16:08:43.913Z</time></trkpt><trkpt lat="44.20783319869674" lon="10.19638656404031"><ele>569.0</ele><time>2026-04-26T16:08:44.913Z</time></trkpt><trkpt lat="44.20779453551559" lon="10.196465913675196"><ele>569.0</ele><time>2026-04-26T16:08:45.913Z</time></trkpt><trkpt lat="44.20774457715292" lon="10.196566986440079"><ele>571.8</ele><time>2026-04-26T16:08:46.913Z</time></trkpt><trkpt lat="44.207691710731424" lon="10.196682180002943"><ele>574.5999999999999</ele><time>2026-04-26T16:08:47.913Z</time></trkpt><trkpt lat="44.20762975679542" lon="10.19680011910708"><ele>577.4</ele><time>2026-04-26T16:08:48.913Z</time></trkpt><trkpt lat="44.20756527022506" lon="10.196935775986566"><ele>580.1999999999999</ele><time>2026-04-26T16:08:49.913Z</time></trkpt><trkpt lat="44.207496065913006" lon="10.197076739844343"><ele>583.0</ele><time>2026-04-26T16:08:50.913Z</time></trkpt><trkpt lat="44.207424034601964" lon="10.197221627386506"><ele>584.0</ele><time>2026-04-26T16:08:51.913Z</time></trkpt><trkpt lat="44.2073524596792" lon="10.19736258073695"><ele>585.0</ele><time>2026-04-26T16:08:52.913Z</time></trkpt><trkpt lat="44.20728798410066" lon="10.197500955979331"><ele>586.0</ele><time>2026-04-26T16:08:53.913Z</time></trkpt><trkpt lat="44.20722082247712" lon="10.197632331079655"><ele>587.0</ele><time>2026-04-26T16:08:54.913Z</time></trkpt><trkpt lat="44.20716677447552" lon="10.197762080090538"><ele>587.4</ele><time>2026-04-26T16:08:55.913Z</time></trkpt><trkpt lat="44.20710756470401" lon="10.197880865434453"><ele>587.8000000000001</ele><time>2026-04-26T16:08:56.913Z</time></trkpt><trkpt lat="44.20705215740244" lon="10.197982810721875"><ele>588.2</ele><time>2026-04-26T16:08:57.913Z</time></trkpt><trkpt lat="44.207014100205946" lon="10.198060125386693"><ele>588.6</ele><time>2026-04-26T16:08:58.913Z</time></trkpt><trkpt lat="44.20693705579228" lon="10.198212378438084"><ele>589.0</ele><time>2026-04-26T16:09:01.913Z</time></trkpt><trkpt lat="44.20685094476541" lon="10.198229997890936"><ele>589.0</ele><time>2026-04-26T16:09:04.913Z</time></trkpt><trkpt lat="44.2068000608894" lon="10.198156359120423"><ele>589.0</ele><time>2026-04-26T16:09:06.913Z</time></trkpt><trkpt lat="44.20672587729523" lon="10.198001813077749"><ele>589.0</ele><time>2026-04-26T16:09:08.913Z</time></trkpt><trkpt lat="44.20668150054771" lon="10.197906666428038"><ele>589.0</ele><time>2026-04-26T16:09:09.913Z</time></trkpt><trkpt lat="44.206634681399464" lon="10.197813637991777"><ele>589.0</ele><time>2026-04-26T16:09:10.913Z</time></trkpt><trkpt lat="44.20659791541695" lon="10.197705004339344"><ele>589.0</ele><time>2026-04-26T16:09:11.913Z</time></trkpt><trkpt lat="44.20657050087973" lon="10.197598644691482"><ele>589.0</ele><time>2026-04-26T16:09:12.913Z</time></trkpt><trkpt lat="44.20654512268666" lon="10.197486009144152"><ele>589.0</ele><time>2026-04-26T16:09:13.913Z</time></trkpt><trkpt lat="44.206513802995495" lon="10.197388058695674"><ele>589.0</ele><time>2026-04-26T16:09:14.913Z</time></trkpt><trkpt lat="44.206481976512045" lon="10.197302098718955"><ele>589.0</ele><time>2026-04-26T16:09:15.913Z</time></trkpt><trkpt lat="44.206452927226266" lon="10.197164105320608"><ele>589.0</ele><time>2026-04-26T16:09:17.913Z</time></trkpt><trkpt lat="44.20642462313398" lon="10.197069815789638"><ele>587.4285714285714</ele><time>2026-04-26T16:09:18.911Z</time></trkpt><trkpt lat="44.206385395291846" lon="10.19699188982246"><ele>585.8571428571428</ele><time>2026-04-26T16:09:19.911Z</time></trkpt><trkpt lat="44.20636121919739" lon="10.196902983532771"><ele>584.2857142857142</ele><time>2026-04-26T16:09:20.911Z</time></trkpt><trkpt lat="44.20634060485657" lon="10.19680268348038"><ele>582.7142857142857</ele><time>2026-04-26T16:09:21.911Z</time></trkpt><trkpt lat="44.206325159371495" lon="10.196711915036659"><ele>581.1428571428571</ele><time>2026-04-26T16:09:22.912Z</time></trkpt><trkpt lat="44.206303754342116" lon="10.1966078406972"><ele>579.5714285714286</ele><time>2026-04-26T16:09:23.912Z</time></trkpt><trkpt lat="44.20628561153404" lon="10.196502530398854"><ele>578.0</ele><time>2026-04-26T16:09:24.911Z</time></trkpt><trkpt lat="44.20626613167028" lon="10.19639668617213"><ele>578.0</ele><time>2026-04-26T16:09:25.911Z</time></trkpt><trkpt lat="44.20626254420629" lon="10.19624729776279"><ele>578.0</ele><time>2026-04-26T16:09:27.911Z</time></trkpt><trkpt lat="44.206290623469975" lon="10.196152487129472"><ele>578.0</ele><time>2026-04-26T16:09:30.911Z</time></trkpt><trkpt lat="44.20627197068326" lon="10.196061887364067"><ele>578.0</ele><time>2026-04-26T16:09:52.911Z</time></trkpt><trkpt lat="44.2062387448517" lon="10.195965429484527"><ele>578.0</ele><time>2026-04-26T16:09:54.911Z</time></trkpt><trkpt lat="44.20620560855134" lon="10.195851121168005"><ele>578.0</ele><time>2026-04-26T16:09:56.911Z</time></trkpt><trkpt lat="44.20621413614854" lon="10.195690590395072"><ele>578.4</ele><time>2026-04-26T16:09:58.911Z</time></trkpt><trkpt lat="44.20622310584442" lon="10.19555946838815"><ele>578.8</ele><time>2026-04-26T16:10:00.911Z</time></trkpt><trkpt lat="44.20623355657584" lon="10.195428267123399"><ele>579.2</ele><time>2026-04-26T16:10:02.911Z</time></trkpt><trkpt lat="44.206253496601086" lon="10.195291095810692"><ele>579.6</ele><time>2026-04-26T16:10:04.911Z</time></trkpt><trkpt lat="44.20626808733269" lon="10.19515167782575"><ele>580.0</ele><time>2026-04-26T16:10:06.911Z</time></trkpt><trkpt lat="44.20625231179794" lon="10.195017407405974"><ele>580.0</ele><time>2026-04-26T16:10:08.911Z</time></trkpt><trkpt lat="44.206188546889635" lon="10.194888056495687"><ele>580.0</ele><time>2026-04-26T16:10:10.911Z</time></trkpt><trkpt lat="44.20612551477989" lon="10.194759416485116"><ele>580.0</ele><time>2026-04-26T16:10:12.911Z</time></trkpt><trkpt lat="44.206091890727606" lon="10.19462833247183"><ele>580.0</ele><time>2026-04-26T16:10:14.911Z</time></trkpt><trkpt lat="44.20608078407902" lon="10.194517889455414"><ele>580.0</ele><time>2026-04-26T16:10:16.911Z</time></trkpt><trkpt lat="44.20605532406459" lon="10.194412680477013"><ele>580.0</ele><time>2026-04-26T16:10:19.911Z</time></trkpt><trkpt lat="44.20605253213216" lon="10.194506000939318"><ele>580.0</ele><time>2026-04-26T16:11:10.911Z</time></trkpt><trkpt lat="44.20608291876019" lon="10.19461503678434"><ele>580.0</ele><time>2026-04-26T16:11:12.912Z</time></trkpt><trkpt lat="44.20613416006263" lon="10.19474058135717"><ele>580.0</ele><time>2026-04-26T16:11:14.912Z</time></trkpt><trkpt lat="44.206193287732766" lon="10.194875950544976"><ele>580.0</ele><time>2026-04-26T16:11:16.912Z</time></trkpt><trkpt lat="44.20623610419294" lon="10.195042687082402"><ele>580.0</ele><time>2026-04-26T16:11:18.912Z</time></trkpt><trkpt lat="44.20622583068006" lon="10.195199428991753"><ele>580.0</ele><time>2026-04-26T16:11:20.912Z</time></trkpt><trkpt lat="44.206206915809524" lon="10.195347646348452"><ele>580.0</ele><time>2026-04-26T16:11:22.912Z</time></trkpt><trkpt lat="44.20620001060015" lon="10.195515339478703"><ele>580.0</ele><time>2026-04-26T16:11:24.91Z</time></trkpt><trkpt lat="44.206202036341026" lon="10.195654665047952"><ele>580.0</ele><time>2026-04-26T16:11:26.91Z</time></trkpt><trkpt lat="44.20621601388574" lon="10.19577260710378"><ele>579.6</ele><time>2026-04-26T16:11:28.911Z</time></trkpt><trkpt lat="44.206228831925735" lon="10.195902236236865"><ele>579.2</ele><time>2026-04-26T16:11:30.91Z</time></trkpt><trkpt lat="44.206262919600576" lon="10.196009798496709"><ele>578.8</ele><time>2026-04-26T16:11:32.91Z</time></trkpt><trkpt lat="44.206273189232974" lon="10.19614757166226"><ele>578.4</ele><time>2026-04-26T16:11:34.91Z</time></trkpt><trkpt lat="44.20627242224813" lon="10.196308667758979"><ele>578.0</ele><time>2026-04-26T16:11:36.911Z</time></trkpt><trkpt lat="44.20629802331264" lon="10.19647297028331"><ele>576.1999999999999</ele><time>2026-04-26T16:11:38.91Z</time></trkpt><trkpt lat="44.206297211871465" lon="10.196641591928465"><ele>574.4</ele><time>2026-04-26T16:11:40.91Z</time></trkpt><trkpt lat="44.206335534198516" lon="10.196786623460989"><ele>572.5999999999999</ele><time>2026-04-26T16:11:42.91Z</time></trkpt><trkpt lat="44.20635102484273" lon="10.19687509657005"><ele>570.8</ele><time>2026-04-26T16:11:43.91Z</time></trkpt><trkpt lat="44.206403798357336" lon="10.197042235847109"><ele>569.0</ele><time>2026-04-26T16:11:45.91Z</time></trkpt><trkpt lat="44.206428399423096" lon="10.197129522782827"><ele>569.0</ele><time>2026-04-26T16:11:46.91Z</time></trkpt><trkpt lat="44.20647804409803" lon="10.197284684857891"><ele>569.0</ele><time>2026-04-26T16:11:48.91Z</time></trkpt><trkpt lat="44.2065084867205" lon="10.197363128945085"><ele>569.0</ele><time>2026-04-26T16:11:49.91Z</time></trkpt><trkpt lat="44.20656395611474" lon="10.197524982597798"><ele>569.0</ele><time>2026-04-26T16:11:51.91Z</time></trkpt><trkpt lat="44.206578056702675" lon="10.197621183238034"><ele>569.0</ele><time>2026-04-26T16:11:52.91Z</time></trkpt><trkpt lat="44.20663284440911" lon="10.197764858343486"><ele>570.4</ele><time>2026-04-26T16:11:54.91Z</time></trkpt><trkpt lat="44.20669586817987" lon="10.19791495604863"><ele>571.8</ele><time>2026-04-26T16:11:56.91Z</time></trkpt><trkpt lat="44.20672615284327" lon="10.19799408467008"><ele>573.2</ele><time>2026-04-26T16:11:57.91Z</time></trkpt><trkpt lat="44.2067881505392" lon="10.198122132176001"><ele>574.6</ele><time>2026-04-26T16:11:59.91Z</time></trkpt><trkpt lat="44.206826737044416" lon="10.198249471011469"><ele>576.0</ele><time>2026-04-26T16:12:01.91Z</time></trkpt><trkpt lat="44.20688666648655" lon="10.198299716292423"><ele>576.0</ele><time>2026-04-26T16:12:04.91Z</time></trkpt><trkpt lat="44.20696270219006" lon="10.198209720813589"><ele>576.0</ele><time>2026-04-26T16:12:07.91Z</time></trkpt><trkpt lat="44.20699872397176" lon="10.198121330728275"><ele>576.0</ele><time>2026-04-26T16:12:08.91Z</time></trkpt><trkpt lat="44.20705948033613" lon="10.198016979082825"><ele>576.0</ele><time>2026-04-26T16:12:09.91Z</time></trkpt><trkpt lat="44.20712304207542" lon="10.197902368193994"><ele>576.0</ele><time>2026-04-26T16:12:10.91Z</time></trkpt><trkpt lat="44.20719298416128" lon="10.19776915759884"><ele>577.75</ele><time>2026-04-26T16:12:11.91Z</time></trkpt><trkpt lat="44.207269009216176" lon="10.197620764121016"><ele>579.5</ele><time>2026-04-26T16:12:12.91Z</time></trkpt><trkpt lat="44.20734837142256" lon="10.1974532677842"><ele>581.25</ele><time>2026-04-26T16:12:13.91Z</time></trkpt><trkpt lat="44.207430427015225" lon="10.197283073518934"><ele>583.0</ele><time>2026-04-26T16:12:14.91Z</time></trkpt><trkpt lat="44.20752754836198" lon="10.197104396320233"><ele>583.0</ele><time>2026-04-26T16:12:15.91Z</time></trkpt><trkpt lat="44.2076241550492" lon="10.196916628684976"><ele>583.0</ele><time>2026-04-26T16:12:16.91Z</time></trkpt><trkpt lat="44.20770405526327" lon="10.19673488088934"><ele>583.0</ele><time>2026-04-26T16:12:17.91Z</time></trkpt><trkpt lat="44.207780337301486" lon="10.196566326600635"><ele>579.5</ele><time>2026-04-26T16:12:18.91Z</time></trkpt><trkpt lat="44.20786102995526" lon="10.196420159391975"><ele>576.0</ele><time>2026-04-26T16:12:19.91Z</time></trkpt><trkpt lat="44.2079367501725" lon="10.196265615113136"><ele>572.5</ele><time>2026-04-26T16:12:20.91Z</time></trkpt><trkpt lat="44.20800553162292" lon="10.196123216162052"><ele>569.0</ele><time>2026-04-26T16:12:21.91Z</time></trkpt><trkpt lat="44.20807166828749" lon="10.195992640164365"><ele>569.0</ele><time>2026-04-26T16:12:22.91Z</time></trkpt><trkpt lat="44.20813262304262" lon="10.195875416899373"><ele>569.0</ele><time>2026-04-26T16:12:23.91Z</time></trkpt><trkpt lat="44.20820139981209" lon="10.195795207128644"><ele>569.0</ele><time>2026-04-26T16:12:24.91Z</time></trkpt><trkpt lat="44.208286382202026" lon="10.195762699808371"><ele>569.0</ele><time>2026-04-26T16:12:25.91Z</time></trkpt><trkpt lat="44.20837514105139" lon="10.195768870820324"><ele>569.0</ele><time>2026-04-26T16:12:26.91Z</time></trkpt><trkpt lat="44.20846964044962" lon="10.19579724310016"><ele>568.2</ele><time>2026-04-26T16:12:27.91Z</time></trkpt><trkpt lat="44.20856527071453" lon="10.195845091185014"><ele>567.4</ele><time>2026-04-26T16:12:28.91Z</time></trkpt><trkpt lat="44.20866061319051" lon="10.19590477015449"><ele>566.6</ele><time>2026-04-26T16:12:29.91Z</time></trkpt><trkpt lat="44.208760498652964" lon="10.195989596320565"><ele>565.8</ele><time>2026-04-26T16:12:30.91Z</time></trkpt><trkpt lat="44.208863182920865" lon="10.19606582771118"><ele>565.0</ele><time>2026-04-26T16:12:31.91Z</time></trkpt><trkpt lat="44.20896739837205" lon="10.196139524674688"><ele>562.75</ele><time>2026-04-26T16:12:32.91Z</time></trkpt><trkpt lat="44.20908267233173" lon="10.196214081351487"><ele>560.5</ele><time>2026-04-26T16:12:33.91Z</time></trkpt><trkpt lat="44.20920762985241" lon="10.196285768583849"><ele>558.25</ele><time>2026-04-26T16:12:34.91Z</time></trkpt><trkpt lat="44.20933406527182" lon="10.196351278762764"><ele>556.0</ele><time>2026-04-26T16:12:35.91Z</time></trkpt><trkpt lat="44.20946023448384" lon="10.19642737878432"><ele>559.5</ele><time>2026-04-26T16:12:36.91Z</time></trkpt><trkpt lat="44.209561710325154" lon="10.196509097000519"><ele>563.0</ele><time>2026-04-26T16:12:37.91Z</time></trkpt><trkpt lat="44.20965702701816" lon="10.196627538427228"><ele>566.5</ele><time>2026-04-26T16:12:38.91Z</time></trkpt><trkpt lat="44.209709758453656" lon="10.196754639981469"><ele>570.0</ele><time>2026-04-26T16:12:39.91Z</time></trkpt><trkpt lat="44.2097527913408" lon="10.19690946143505"><ele>570.0</ele><time>2026-04-26T16:12:40.91Z</time></trkpt><trkpt lat="44.2097823933667" lon="10.197055632388205"><ele>570.0</ele><time>2026-04-26T16:12:41.91Z</time></trkpt><trkpt lat="44.2097915492576" lon="10.197207730086387"><ele>570.0</ele><time>2026-04-26T16:12:42.91Z</time></trkpt><trkpt lat="44.209786431873745" lon="10.197363235333933"><ele>570.0</ele><time>2026-04-26T16:12:43.91Z</time></trkpt><trkpt lat="44.209779884487396" lon="10.19751227101212"><ele>570.0</ele><time>2026-04-26T16:12:44.91Z</time></trkpt><trkpt lat="44.209783681320836" lon="10.197638051261382"><ele>568.6</ele><time>2026-04-26T16:12:45.91Z</time></trkpt><trkpt lat="44.20982542084782" lon="10.19774876557081"><ele>567.2</ele><time>2026-04-26T16:12:46.91Z</time></trkpt><trkpt lat="44.209902419233075" lon="10.197812296554009"><ele>565.8</ele><time>2026-04-26T16:12:47.91Z</time></trkpt><trkpt lat="44.20998445996508" lon="10.197800641243507"><ele>564.4</ele><time>2026-04-26T16:12:48.91Z</time></trkpt><trkpt lat="44.21008110740552" lon="10.197727137719053"><ele>563.0</ele><time>2026-04-26T16:12:49.91Z</time></trkpt><trkpt lat="44.21016044394829" lon="10.197626614031948"><ele>563.0</ele><time>2026-04-26T16:12:50.91Z</time></trkpt><trkpt lat="44.210224539565765" lon="10.197491665613098"><ele>563.0</ele><time>2026-04-26T16:12:51.91Z</time></trkpt><trkpt lat="44.21029970659804" lon="10.19733436093477"><ele>563.0</ele><time>2026-04-26T16:12:52.91Z</time></trkpt><trkpt lat="44.21037664704156" lon="10.197172790056758"><ele>563.0</ele><time>2026-04-26T16:12:53.91Z</time></trkpt><trkpt lat="44.21043277604664" lon="10.196993574218757"><ele>560.1999999999999</ele><time>2026-04-26T16:12:54.91Z</time></trkpt><trkpt lat="44.21047649681397" lon="10.196832128222088"><ele>557.4</ele><time>2026-04-26T16:12:55.91Z</time></trkpt><trkpt lat="44.21053094545265" lon="10.196704434702522"><ele>554.5999999999999</ele><time>2026-04-26T16:12:56.91Z</time></trkpt><trkpt lat="44.210584154877964" lon="10.19658815689926"><ele>551.8</ele><time>2026-04-26T16:12:57.91Z</time></trkpt><trkpt lat="44.210649044922285" lon="10.196494298223676"><ele>549.0</ele><time>2026-04-26T16:12:58.91Z</time></trkpt><trkpt lat="44.21074187717598" lon="10.196433673496317"><ele>544.75</ele><time>2026-04-26T16:12:59.91Z</time></trkpt><trkpt lat="44.210863321927505" lon="10.196382334794087"><ele>540.5</ele><time>2026-04-26T16:13:00.91Z</time></trkpt><trkpt lat="44.21098142049903" lon="10.196314984812663"><ele>536.25</ele><time>2026-04-26T16:13:01.91Z</time></trkpt><trkpt lat="44.21109790041756" lon="10.196240893088122"><ele>532.0</ele><time>2026-04-26T16:13:02.91Z</time></trkpt><trkpt lat="44.21121646829369" lon="10.196178119120033"><ele>532.0</ele><time>2026-04-26T16:13:03.91Z</time></trkpt><trkpt lat="44.21132791575448" lon="10.196113604678198"><ele>532.0</ele><time>2026-04-26T16:13:04.91Z</time></trkpt><trkpt lat="44.21142907848577" lon="10.19606363555886"><ele>532.0</ele><time>2026-04-26T16:13:05.91Z</time></trkpt><trkpt lat="44.21151991158572" lon="10.196021903724258"><ele>532.0</ele><time>2026-04-26T16:13:06.91Z</time></trkpt><trkpt lat="44.21161271310539" lon="10.196004621979721"><ele>532.0</ele><time>2026-04-26T16:13:07.91Z</time></trkpt><trkpt lat="44.211696437486715" lon="10.196038793271725"><ele>533.25</ele><time>2026-04-26T16:13:08.91Z</time></trkpt><trkpt lat="44.211786476227196" lon="10.19610846921605"><ele>534.5</ele><time>2026-04-26T16:13:09.91Z</time></trkpt><trkpt lat="44.211880269060934" lon="10.196202036275345"><ele>535.75</ele><time>2026-04-26T16:13:10.91Z</time></trkpt><trkpt lat="44.21198103992486" lon="10.196293512425795"><ele>537.0</ele><time>2026-04-26T16:13:11.91Z</time></trkpt><trkpt lat="44.21209733232669" lon="10.19637768310241"><ele>537.0</ele><time>2026-04-26T16:13:12.91Z</time></trkpt><trkpt lat="44.212215681119375" lon="10.196471805049105"><ele>537.0</ele><time>2026-04-26T16:13:13.91Z</time></trkpt><trkpt lat="44.21233979246271" lon="10.196575615155723"><ele>537.0</ele><time>2026-04-26T16:13:14.91Z</time></trkpt><trkpt lat="44.21246611043503" lon="10.196675810063706"><ele>537.0</ele><time>2026-04-26T16:13:15.91Z</time></trkpt><trkpt lat="44.21257980304414" lon="10.196781476683531"><ele>536.25</ele><time>2026-04-26T16:13:16.91Z</time></trkpt><trkpt lat="44.2126908543625" lon="10.196878301715607"><ele>535.5</ele><time>2026-04-26T16:13:17.91Z</time></trkpt><trkpt lat="44.21279418155516" lon="10.196977868347279"><ele>534.75</ele><time>2026-04-26T16:13:18.91Z</time></trkpt><trkpt lat="44.212902317819356" lon="10.197065378455887"><ele>534.0</ele><time>2026-04-26T16:13:19.91Z</time></trkpt><trkpt lat="44.213013518680114" lon="10.197130746498253"><ele>529.6666666666666</ele><time>2026-04-26T16:13:20.91Z</time></trkpt><trkpt lat="44.213168562320156" lon="10.197145390706593"><ele>525.3333333333333</ele><time>2026-04-26T16:13:21.91Z</time></trkpt><trkpt lat="44.21332407588265" lon="10.197171313318366"><ele>521.0</ele><time>2026-04-26T16:13:22.91Z</time></trkpt><trkpt lat="44.21347147842134" lon="10.197206637110112"><ele>521.0</ele><time>2026-04-26T16:13:23.91Z</time></trkpt><trkpt lat="44.213604394907925" lon="10.197233276690367"><ele>521.0</ele><time>2026-04-26T16:13:24.91Z</time></trkpt><trkpt lat="44.21372848345692" lon="10.197263978428275"><ele>521.0</ele><time>2026-04-26T16:13:25.91Z</time></trkpt><trkpt lat="44.2138385596618" lon="10.1972966061257"><ele>521.0</ele><time>2026-04-26T16:13:26.91Z</time></trkpt><trkpt lat="44.2139330620625" lon="10.197334701560008"><ele>521.0</ele><time>2026-04-26T16:13:27.91Z</time></trkpt><trkpt lat="44.21402260820879" lon="10.197399587754083"><ele>521.0</ele><time>2026-04-26T16:13:28.91Z</time></trkpt><trkpt lat="44.21411315801985" lon="10.197494885968299"><ele>521.0</ele><time>2026-04-26T16:13:29.91Z</time></trkpt><trkpt lat="44.2142075988982" lon="10.19761872428025"><ele>521.0</ele><time>2026-04-26T16:13:30.909Z</time></trkpt><trkpt lat="44.214311896025215" lon="10.197750682784964"><ele>521.0</ele><time>2026-04-26T16:13:31.909Z</time></trkpt><trkpt lat="44.21441723082666" lon="10.197874919877025"><ele>521.0</ele><time>2026-04-26T16:13:32.909Z</time></trkpt><trkpt lat="44.214517021367" lon="10.197982904694362"><ele>521.0</ele><time>2026-04-26T16:13:33.909Z</time></trkpt><trkpt lat="44.214608501936155" lon="10.198090208640762"><ele>521.0</ele><time>2026-04-26T16:13:34.909Z</time></trkpt><trkpt lat="44.21468746671736" lon="10.198179979144912"><ele>520.6</ele><time>2026-04-26T16:13:35.909Z</time></trkpt><trkpt lat="44.21477420203531" lon="10.198229807207221"><ele>520.2</ele><time>2026-04-26T16:13:36.909Z</time></trkpt><trkpt lat="44.21486628575011" lon="10.198232453647382"><ele>519.8</ele><time>2026-04-26T16:13:37.909Z</time></trkpt><trkpt lat="44.214990510149164" lon="10.198197331025796"><ele>519.4</ele><time>2026-04-26T16:13:38.909Z</time></trkpt><trkpt lat="44.21510082246519" lon="10.19815652937142"><ele>519.0</ele><time>2026-04-26T16:13:39.909Z</time></trkpt><trkpt lat="44.21519635504268" lon="10.198116411464541"><ele>517.5</ele><time>2026-04-26T16:13:40.909Z</time></trkpt><trkpt lat="44.215265269548425" lon="10.19806467092274"><ele>516.0</ele><time>2026-04-26T16:13:41.909Z</time></trkpt><trkpt lat="44.21531240347255" lon="10.197984272984026"><ele>514.5</ele><time>2026-04-26T16:13:42.909Z</time></trkpt><trkpt lat="44.21533957257405" lon="10.197874457178536"><ele>513.0</ele><time>2026-04-26T16:13:43.909Z</time></trkpt><trkpt lat="44.21536169158977" lon="10.19775899851301"><ele>511.5</ele><time>2026-04-26T16:13:44.909Z</time></trkpt><trkpt lat="44.21539623350776" lon="10.19765294777924"><ele>510.0</ele><time>2026-04-26T16:13:45.909Z</time></trkpt><trkpt lat="44.21545207655191" lon="10.197577268263897"><ele>510.0</ele><time>2026-04-26T16:13:46.909Z</time></trkpt><trkpt lat="44.21552455027677" lon="10.197553289268386"><ele>510.0</ele><time>2026-04-26T16:13:47.909Z</time></trkpt><trkpt lat="44.21560740241355" lon="10.197598291439165"><ele>510.0</ele><time>2026-04-26T16:13:48.909Z</time></trkpt><trkpt lat="44.215684436274955" lon="10.197687030619953"><ele>510.0</ele><time>2026-04-26T16:13:49.909Z</time></trkpt><trkpt lat="44.215755097528714" lon="10.197813238396826"><ele>510.0</ele><time>2026-04-26T16:13:50.909Z</time></trkpt><trkpt lat="44.215823818146276" lon="10.197939225393597"><ele>510.2</ele><time>2026-04-26T16:13:51.909Z</time></trkpt><trkpt lat="44.21590012401738" lon="10.19805899301752"><ele>510.4</ele><time>2026-04-26T16:13:52.909Z</time></trkpt><trkpt lat="44.21597585863727" lon="10.19814920664433"><ele>510.6</ele><time>2026-04-26T16:13:53.909Z</time></trkpt><trkpt lat="44.216062122014414" lon="10.19820712089656"><ele>510.8</ele><time>2026-04-26T16:13:54.909Z</time></trkpt><trkpt lat="44.2161601345636" lon="10.198229857736388"><ele>511.0</ele><time>2026-04-26T16:13:55.909Z</time></trkpt><trkpt lat="44.21627396854183" lon="10.198215463661374"><ele>507.75</ele><time>2026-04-26T16:13:56.909Z</time></trkpt><trkpt lat="44.21637511494183" lon="10.198162735229"><ele>504.5</ele><time>2026-04-26T16:13:57.909Z</time></trkpt><trkpt lat="44.216472096653966" lon="10.1980699435182"><ele>501.25</ele><time>2026-04-26T16:13:58.909Z</time></trkpt><trkpt lat="44.21657317824836" lon="10.197986415334265"><ele>498.0</ele><time>2026-04-26T16:13:59.909Z</time></trkpt><trkpt lat="44.21668229423418" lon="10.197946368412184"><ele>496.75</ele><time>2026-04-26T16:14:00.909Z</time></trkpt><trkpt lat="44.21680230856603" lon="10.197948861946431"><ele>495.5</ele><time>2026-04-26T16:14:01.909Z</time></trkpt><trkpt lat="44.21693348274367" lon="10.197956943492962"><ele>494.25</ele><time>2026-04-26T16:14:02.909Z</time></trkpt><trkpt lat="44.21706513499267" lon="10.19795924347954"><ele>493.0</ele><time>2026-04-26T16:14:03.909Z</time></trkpt><trkpt lat="44.21718677085273" lon="10.197948724225727"><ele>493.0</ele><time>2026-04-26T16:14:04.909Z</time></trkpt><trkpt lat="44.217299963875284" lon="10.197942961135201"><ele>492.99999999999994</ele><time>2026-04-26T16:14:05.909Z</time></trkpt><trkpt lat="44.21740022624955" lon="10.197932951657602"><ele>492.99999999999994</ele><time>2026-04-26T16:14:06.909Z</time></trkpt><trkpt lat="44.217494622740865" lon="10.197924213553849"><ele>493.0</ele><time>2026-04-26T16:14:07.909Z</time></trkpt><trkpt lat="44.21757644505297" lon="10.197901214623135"><ele>493.0</ele><time>2026-04-26T16:14:08.909Z</time></trkpt><trkpt lat="44.21765331109806" lon="10.19785109725608"><ele>493.0</ele><time>2026-04-26T16:14:09.909Z</time></trkpt><trkpt lat="44.21773599262383" lon="10.19777648498437"><ele>492.99999999999994</ele><time>2026-04-26T16:14:10.909Z</time></trkpt><trkpt lat="44.2178172006627" lon="10.197675412990987"><ele>492.99999999999994</ele><time>2026-04-26T16:14:11.909Z</time></trkpt><trkpt lat="44.21787302047677" lon="10.197568208967173"><ele>493.0</ele><time>2026-04-26T16:14:12.909Z</time></trkpt><trkpt lat="44.21791724845584" lon="10.197488689106011"><ele>493.0</ele><time>2026-04-26T16:14:13.909Z</time></trkpt><trkpt lat="44.21804510140726" lon="10.197477253205575"><ele>493.0</ele><time>2026-04-26T16:14:15.909Z</time></trkpt><trkpt lat="44.21814338507093" lon="10.197516972637546"><ele>492.99999999999994</ele><time>2026-04-26T16:14:16.909Z</time></trkpt><trkpt lat="44.21825275076418" lon="10.19755472324627"><ele>492.99999999999994</ele><time>2026-04-26T16:14:17.909Z</time></trkpt><trkpt lat="44.2183622389944" lon="10.197575918890184"><ele>493.0</ele><time>2026-04-26T16:14:18.909Z</time></trkpt><trkpt lat="44.21847985915127" lon="10.197593404645964"><ele>493.0</ele><time>2026-04-26T16:14:19.909Z</time></trkpt><trkpt lat="44.21859731813807" lon="10.197599432833709"><ele>492.4</ele><time>2026-04-26T16:14:20.909Z</time></trkpt><trkpt lat="44.21871061602645" lon="10.197593718282246"><ele>491.79999999999995</ele><time>2026-04-26T16:14:21.909Z</time></trkpt><trkpt lat="44.21881921225683" lon="10.19759674573991"><ele>491.2</ele><time>2026-04-26T16:14:22.909Z</time></trkpt><trkpt lat="44.218916438055935" lon="10.197586563370876"><ele>490.6</ele><time>2026-04-26T16:14:23.909Z</time></trkpt><trkpt lat="44.21900375703648" lon="10.19756785271923"><ele>490.0</ele><time>2026-04-26T16:14:24.909Z</time></trkpt><trkpt lat="44.21907945043218" lon="10.197499615674483"><ele>491.0</ele><time>2026-04-26T16:14:25.909Z</time></trkpt><trkpt lat="44.21913818020876" lon="10.197372090454877"><ele>492.0</ele><time>2026-04-26T16:14:26.909Z</time></trkpt><trkpt lat="44.21918354694282" lon="10.19723373872548"><ele>493.0</ele><time>2026-04-26T16:14:27.909Z</time></trkpt><trkpt lat="44.21923119512062" lon="10.197097944453725"><ele>494.0</ele><time>2026-04-26T16:14:28.909Z</time></trkpt><trkpt lat="44.21925558687155" lon="10.196987768267975"><ele>495.0</ele><time>2026-04-26T16:14:29.909Z</time></trkpt><trkpt lat="44.21923502776297" lon="10.196885857884155"><ele>495.0</ele><time>2026-04-26T16:14:30.909Z</time></trkpt><trkpt lat="44.219168233731594" lon="10.196788757002183"><ele>495.0</ele><time>2026-04-26T16:14:31.909Z</time></trkpt><trkpt lat="44.2190621564369" lon="10.19671467846862"><ele>495.0</ele><time>2026-04-26T16:14:32.909Z</time></trkpt><trkpt lat="44.21894576556089" lon="10.196638091974682"><ele>495.0</ele><time>2026-04-26T16:14:33.909Z</time></trkpt><trkpt lat="44.21881884310419" lon="10.196559156899294"><ele>493.5</ele><time>2026-04-26T16:14:34.909Z</time></trkpt><trkpt lat="44.218682514990036" lon="10.196480570868989"><ele>492.0</ele><time>2026-04-26T16:14:35.909Z</time></trkpt><trkpt lat="44.218552623619466" lon="10.196409643874064"><ele>490.5</ele><time>2026-04-26T16:14:36.909Z</time></trkpt><trkpt lat="44.21843214735942" lon="10.196359643099791"><ele>489.0</ele><time>2026-04-26T16:14:37.909Z</time></trkpt><trkpt lat="44.21833177082041" lon="10.19632087869255"><ele>489.0</ele><time>2026-04-26T16:14:38.909Z</time></trkpt><trkpt lat="44.218247569296025" lon="10.196282288409284"><ele>489.0</ele><time>2026-04-26T16:14:39.909Z</time></trkpt><trkpt lat="44.21817466478373" lon="10.196228027702857"><ele>489.0</ele><time>2026-04-26T16:14:40.909Z</time></trkpt><trkpt lat="44.21812126216645" lon="10.19614509729417"><ele>489.0</ele><time>2026-04-26T16:14:41.909Z</time></trkpt><trkpt lat="44.2180956825614" lon="10.196024178918405"><ele>489.0</ele><time>2026-04-26T16:14:42.909Z</time></trkpt><trkpt lat="44.21807642998822" lon="10.19586507719939"><ele>483.5</ele><time>2026-04-26T16:14:43.909Z</time></trkpt><trkpt lat="44.218045215662976" lon="10.195709378201924"><ele>478.0</ele><time>2026-04-26T16:14:44.909Z</time></trkpt><trkpt lat="44.218000636309824" lon="10.195550812713988"><ele>472.5</ele><time>2026-04-26T16:14:45.909Z</time></trkpt><trkpt lat="44.21795590072547" lon="10.195393810905662"><ele>467.0</ele><time>2026-04-26T16:14:46.909Z</time></trkpt><trkpt lat="44.21792176277699" lon="10.195232072358394"><ele>467.0</ele><time>2026-04-26T16:14:47.909Z</time></trkpt><trkpt lat="44.217882197244876" lon="10.195083247816035"><ele>467.0</ele><time>2026-04-26T16:14:48.909Z</time></trkpt><trkpt lat="44.21783552209346" lon="10.194932518316849"><ele>467.0</ele><time>2026-04-26T16:14:49.909Z</time></trkpt><trkpt lat="44.21777554652023" lon="10.19480510861941"><ele>467.0</ele><time>2026-04-26T16:14:50.909Z</time></trkpt><trkpt lat="44.21769678196691" lon="10.194691025545282"><ele>466.25</ele><time>2026-04-26T16:14:51.909Z</time></trkpt><trkpt lat="44.21758190330611" lon="10.19463992110369"><ele>465.5</ele><time>2026-04-26T16:14:52.909Z</time></trkpt><trkpt lat="44.21746298716191" lon="10.19462528204087"><ele>464.75</ele><time>2026-04-26T16:14:53.909Z</time></trkpt><trkpt lat="44.21734719790473" lon="10.194614015264168"><ele>464.0</ele><time>2026-04-26T16:14:54.909Z</time></trkpt><trkpt lat="44.2172513184453" lon="10.194597225104424"><ele>464.0</ele><time>2026-04-26T16:14:55.909Z</time></trkpt><trkpt lat="44.21716950570146" lon="10.194528998234915"><ele>464.0</ele><time>2026-04-26T16:14:56.909Z</time></trkpt><trkpt lat="44.21710643780282" lon="10.194405866095227"><ele>464.0</ele><time>2026-04-26T16:14:57.909Z</time></trkpt><trkpt lat="44.21705731667976" lon="10.194272170074628"><ele>464.0</ele><time>2026-04-26T16:14:58.909Z</time></trkpt><trkpt lat="44.21700782419795" lon="10.194126186675586"><ele>464.0</ele><time>2026-04-26T16:14:59.909Z</time></trkpt><trkpt lat="44.216960367242805" lon="10.193981085730119"><ele>465.75</ele><time>2026-04-26T16:15:00.909Z</time></trkpt><trkpt lat="44.21690847577365" lon="10.193827229676279"><ele>467.5</ele><time>2026-04-26T16:15:01.909Z</time></trkpt><trkpt lat="44.216841030490315" lon="10.193674630736759"><ele>469.25</ele><time>2026-04-26T16:15:02.909Z</time></trkpt><trkpt lat="44.21676539350963" lon="10.193534166646355"><ele>471.0</ele><time>2026-04-26T16:15:03.909Z</time></trkpt><trkpt lat="44.2166720865966" lon="10.193417734796823"><ele>471.0</ele><time>2026-04-26T16:15:04.909Z</time></trkpt><trkpt lat="44.216580579702445" lon="10.193313266555956"><ele>471.0</ele><time>2026-04-26T16:15:05.909Z</time></trkpt><trkpt lat="44.216504297368346" lon="10.193208418927577"><ele>471.0</ele><time>2026-04-26T16:15:06.909Z</time></trkpt><trkpt lat="44.216427996057206" lon="10.19311352703163"><ele>471.0</ele><time>2026-04-26T16:15:07.909Z</time></trkpt><trkpt lat="44.21636050498472" lon="10.19300704216659"><ele>471.0</ele><time>2026-04-26T16:15:08.909Z</time></trkpt><trkpt lat="44.21629802873215" lon="10.19291649829776"><ele>474.0</ele><time>2026-04-26T16:15:09.909Z</time></trkpt><trkpt lat="44.21624211316672" lon="10.192825612369273"><ele>477.0</ele><time>2026-04-26T16:15:10.909Z</time></trkpt><trkpt lat="44.216192218549516" lon="10.192720934306713"><ele>480.0</ele><time>2026-04-26T16:15:11.909Z</time></trkpt><trkpt lat="44.216166095673024" lon="10.192587387129047"><ele>483.0</ele><time>2026-04-26T16:15:12.909Z</time></trkpt><trkpt lat="44.2161577894978" lon="10.192435879723647"><ele>486.0</ele><time>2026-04-26T16:15:13.909Z</time></trkpt><trkpt lat="44.21614445876103" lon="10.192294930215374"><ele>486.0</ele><time>2026-04-26T16:15:14.909Z</time></trkpt><trkpt lat="44.2160897002906" lon="10.1921693544758"><ele>486.0</ele><time>2026-04-26T16:15:15.909Z</time></trkpt><trkpt lat="44.215977363026184" lon="10.192084005760954"><ele>486.0</ele><time>2026-04-26T16:15:16.909Z</time></trkpt><trkpt lat="44.21586999664321" lon="10.192106290549706"><ele>486.0</ele><time>2026-04-26T16:15:17.909Z</time></trkpt><trkpt lat="44.21574197500167" lon="10.192117309181082"><ele>483.25</ele><time>2026-04-26T16:15:18.909Z</time></trkpt><trkpt lat="44.21560955623777" lon="10.192131726727467"><ele>480.5</ele><time>2026-04-26T16:15:19.909Z</time></trkpt><trkpt lat="44.21547391767038" lon="10.192139912548168"><ele>477.75</ele><time>2026-04-26T16:15:20.909Z</time></trkpt><trkpt lat="44.21533624895381" lon="10.192125571612573"><ele>475.0</ele><time>2026-04-26T16:15:21.909Z</time></trkpt><trkpt lat="44.215199660714845" lon="10.192096758367036"><ele>475.0</ele><time>2026-04-26T16:15:22.909Z</time></trkpt><trkpt lat="44.21505960451064" lon="10.192056941347225"><ele>475.0</ele><time>2026-04-26T16:15:23.909Z</time></trkpt><trkpt lat="44.21493260011138" lon="10.1919937721824"><ele>475.0</ele><time>2026-04-26T16:15:24.909Z</time></trkpt><trkpt lat="44.21480313450228" lon="10.191949216165744"><ele>475.0</ele><time>2026-04-26T16:15:25.909Z</time></trkpt><trkpt lat="44.21469029462457" lon="10.191904947261662"><ele>472.2</ele><time>2026-04-26T16:15:26.909Z</time></trkpt><trkpt lat="44.21458740538373" lon="10.1918660420147"><ele>469.4</ele><time>2026-04-26T16:15:27.909Z</time></trkpt><trkpt lat="44.214513570248" lon="10.191800142570889"><ele>466.6</ele><time>2026-04-26T16:15:28.909Z</time></trkpt><trkpt lat="44.21445365096135" lon="10.191702362960942"><ele>463.8</ele><time>2026-04-26T16:15:29.909Z</time></trkpt><trkpt lat="44.21439676537276" lon="10.191549730547383"><ele>461.0</ele><time>2026-04-26T16:15:30.909Z</time></trkpt><trkpt lat="44.21433157044625" lon="10.191378030214304"><ele>461.0</ele><time>2026-04-26T16:15:31.909Z</time></trkpt><trkpt lat="44.21426258684146" lon="10.19121201301327"><ele>461.0</ele><time>2026-04-26T16:15:32.909Z</time></trkpt><trkpt lat="44.21420656091873" lon="10.191042949386278"><ele>461.0</ele><time>2026-04-26T16:15:33.909Z</time></trkpt><trkpt lat="44.21414679518733" lon="10.19089795880995"><ele>461.0</ele><time>2026-04-26T16:15:34.909Z</time></trkpt><trkpt lat="44.21410326620482" lon="10.190757412724114"><ele>461.5</ele><time>2026-04-26T16:15:35.909Z</time></trkpt><trkpt lat="44.214065453177895" lon="10.190620360736204"><ele>462.0</ele><time>2026-04-26T16:15:36.908Z</time></trkpt><trkpt lat="44.21404528528696" lon="10.19044482031047"><ele>462.5</ele><time>2026-04-26T16:15:37.908Z</time></trkpt><trkpt lat="44.214042133028606" lon="10.190256676556263"><ele>463.0</ele><time>2026-04-26T16:15:38.908Z</time></trkpt><trkpt lat="44.21404080522824" lon="10.19005487352498"><ele>463.0</ele><time>2026-04-26T16:15:39.907Z</time></trkpt><trkpt lat="44.214052888426366" lon="10.189865249350074"><ele>463.0</ele><time>2026-04-26T16:15:40.908Z</time></trkpt><trkpt lat="44.21404561873853" lon="10.189687466204276"><ele>463.0</ele><time>2026-04-26T16:15:41.908Z</time></trkpt><trkpt lat="44.214044397242056" lon="10.189533838023749"><ele>463.0</ele><time>2026-04-26T16:15:42.908Z</time></trkpt><trkpt lat="44.21404563133082" lon="10.1893950812801"><ele>462.0</ele><time>2026-04-26T16:15:43.907Z</time></trkpt><trkpt lat="44.21406473225021" lon="10.189258862862637"><ele>460.99999999999994</ele><time>2026-04-26T16:15:44.907Z</time></trkpt><trkpt lat="44.214094875621896" lon="10.189136679354323"><ele>459.99999999999994</ele><time>2026-04-26T16:15:45.908Z</time></trkpt><trkpt lat="44.214160581000755" lon="10.189031962540287"><ele>459.0</ele><time>2026-04-26T16:15:46.908Z</time></trkpt><trkpt lat="44.21424751343688" lon="10.188957646056576"><ele>458.0</ele><time>2026-04-26T16:15:47.908Z</time></trkpt><trkpt lat="44.214352011245246" lon="10.18890658921724"><ele>457.5</ele><time>2026-04-26T16:15:48.907Z</time></trkpt><trkpt lat="44.2144679552331" lon="10.188860886031458"><ele>457.0</ele><time>2026-04-26T16:15:49.908Z</time></trkpt><trkpt lat="44.214581010472536" lon="10.188812549325874"><ele>456.5</ele><time>2026-04-26T16:15:50.908Z</time></trkpt><trkpt lat="44.21468565560295" lon="10.18876919390582"><ele>456.0</ele><time>2026-04-26T16:15:51.908Z</time></trkpt><trkpt lat="44.21477985662521" lon="10.188715252006348"><ele>456.0</ele><time>2026-04-26T16:15:52.908Z</time></trkpt><trkpt lat="44.21485361883247" lon="10.188649396444738"><ele>456.0</ele><time>2026-04-26T16:15:53.908Z</time></trkpt><trkpt lat="44.214891131860405" lon="10.188529096491253"><ele>456.0</ele><time>2026-04-26T16:15:54.908Z</time></trkpt><trkpt lat="44.21490205849941" lon="10.18840481267669"><ele>456.0</ele><time>2026-04-26T16:15:55.908Z</time></trkpt><trkpt lat="44.21486467682836" lon="10.188292754288739"><ele>456.0</ele><time>2026-04-26T16:15:56.908Z</time></trkpt><trkpt lat="44.21480312046487" lon="10.188217919149297"><ele>456.0</ele><time>2026-04-26T16:15:57.908Z</time></trkpt><trkpt lat="44.214714974909064" lon="10.18816984673932"><ele>457.4</ele><time>2026-04-26T16:15:58.908Z</time></trkpt><trkpt lat="44.21461330894484" lon="10.188124443870837"><ele>458.8</ele><time>2026-04-26T16:15:59.908Z</time></trkpt><trkpt lat="44.21450546769465" lon="10.188069935351258"><ele>460.19999999999993</ele><time>2026-04-26T16:16:00.908Z</time></trkpt><trkpt lat="44.214409672449975" lon="10.187999412182979"><ele>461.59999999999997</ele><time>2026-04-26T16:16:01.908Z</time></trkpt><trkpt lat="44.21432140381402" lon="10.187936554461798"><ele>463.0</ele><time>2026-04-26T16:16:02.908Z</time></trkpt><trkpt lat="44.21423738686893" lon="10.18787326839463"><ele>463.0</ele><time>2026-04-26T16:16:03.908Z</time></trkpt><trkpt lat="44.21414162186169" lon="10.18781245290831"><ele>462.99999999999994</ele><time>2026-04-26T16:16:04.908Z</time></trkpt><trkpt lat="44.214049769308474" lon="10.187757533884401"><ele>462.99999999999994</ele><time>2026-04-26T16:16:05.908Z</time></trkpt><trkpt lat="44.21396226913265" lon="10.18770568843194"><ele>463.0</ele><time>2026-04-26T16:16:06.908Z</time></trkpt><trkpt lat="44.21387826996844" lon="10.187663148496458"><ele>463.0</ele><time>2026-04-26T16:16:07.908Z</time></trkpt><trkpt lat="44.21379840994744" lon="10.18763113331409"><ele>461.00000000000006</ele><time>2026-04-26T16:16:08.908Z</time></trkpt><trkpt lat="44.2137166062422" lon="10.187616050093181"><ele>459.0</ele><time>2026-04-26T16:16:09.908Z</time></trkpt><trkpt lat="44.2136368949379" lon="10.187619260551164"><ele>457.0</ele><time>2026-04-26T16:16:10.908Z</time></trkpt><trkpt lat="44.213560735435735" lon="10.187650517437307"><ele>455.0</ele><time>2026-04-26T16:16:11.908Z</time></trkpt><trkpt lat="44.21347940943949" lon="10.187684291736371"><ele>453.00000000000006</ele><time>2026-04-26T16:16:12.908Z</time></trkpt><trkpt lat="44.213413010862716" lon="10.18773015052375"><ele>451.0</ele><time>2026-04-26T16:16:13.908Z</time></trkpt><trkpt lat="44.21334528807882" lon="10.187778454399647"><ele>451.0</ele><time>2026-04-26T16:16:14.908Z</time></trkpt><trkpt lat="44.21328309339005" lon="10.187814622766208"><ele>451.0</ele><time>2026-04-26T16:16:15.908Z</time></trkpt><trkpt lat="44.21321512032299" lon="10.187839367248314"><ele>451.0</ele><time>2026-04-26T16:16:16.908Z</time></trkpt><trkpt lat="44.21308544683091" lon="10.187798001210721"><ele>451.0</ele><time>2026-04-26T16:16:18.908Z</time></trkpt><trkpt lat="44.2130024669886" lon="10.187743642519159"><ele>451.0</ele><time>2026-04-26T16:16:19.908Z</time></trkpt><trkpt lat="44.212922972582106" lon="10.187684049514925"><ele>449.6666666666667</ele><time>2026-04-26T16:16:20.908Z</time></trkpt><trkpt lat="44.21285047256866" lon="10.187628413977892"><ele>448.33333333333337</ele><time>2026-04-26T16:16:21.908Z</time></trkpt><trkpt lat="44.21277555232033" lon="10.18756728651067"><ele>447.0</ele><time>2026-04-26T16:16:22.908Z</time></trkpt><trkpt lat="44.21269762774321" lon="10.187507587198926"><ele>445.66666666666663</ele><time>2026-04-26T16:16:23.908Z</time></trkpt><trkpt lat="44.21262927490048" lon="10.187452249526913"><ele>444.3333333333333</ele><time>2026-04-26T16:16:24.908Z</time></trkpt><trkpt lat="44.21254806404741" lon="10.187398606616519"><ele>443.0</ele><time>2026-04-26T16:16:25.908Z</time></trkpt><trkpt lat="44.21246782430192" lon="10.187338980023618"><ele>442.99999999999994</ele><time>2026-04-26T16:16:26.908Z</time></trkpt><trkpt lat="44.212391080949004" lon="10.18728194692642"><ele>443.0</ele><time>2026-04-26T16:16:27.908Z</time></trkpt><trkpt lat="44.21231830850318" lon="10.187224862519367"><ele>443.0</ele><time>2026-04-26T16:16:28.908Z</time></trkpt><trkpt lat="44.2122474684011" lon="10.187168352986385"><ele>443.0</ele><time>2026-04-26T16:16:29.908Z</time></trkpt><trkpt lat="44.21217690733617" lon="10.187104411228564"><ele>442.99999999999994</ele><time>2026-04-26T16:16:30.908Z</time></trkpt><trkpt lat="44.21209549666116" lon="10.187024945073002"><ele>443.0</ele><time>2026-04-26T16:16:31.908Z</time></trkpt><trkpt lat="44.212022266425144" lon="10.186939170314933"><ele>441.0</ele><time>2026-04-26T16:16:32.908Z</time></trkpt><trkpt lat="44.211956197204906" lon="10.186838245589238"><ele>438.99999999999994</ele><time>2026-04-26T16:16:33.908Z</time></trkpt><trkpt lat="44.211886000459934" lon="10.186724974849975"><ele>436.99999999999994</ele><time>2026-04-26T16:16:34.908Z</time></trkpt><trkpt lat="44.211813649719346" lon="10.18660315097335"><ele>435.0</ele><time>2026-04-26T16:16:35.908Z</time></trkpt><trkpt lat="44.21174095687518" lon="10.18647616378775"><ele>433.0</ele><time>2026-04-26T16:16:36.908Z</time></trkpt><trkpt lat="44.21167227578698" lon="10.186350380817778"><ele>433.0</ele><time>2026-04-26T16:16:37.908Z</time></trkpt><trkpt lat="44.211608012011" lon="10.186236284301424"><ele>432.99999999999994</ele><time>2026-04-26T16:16:38.908Z</time></trkpt><trkpt lat="44.21154329458252" lon="10.186123136056958"><ele>432.99999999999994</ele><time>2026-04-26T16:16:39.908Z</time></trkpt><trkpt lat="44.21148205325579" lon="10.186010953633904"><ele>433.0</ele><time>2026-04-26T16:16:40.908Z</time></trkpt><trkpt lat="44.21143136237012" lon="10.185899638792051"><ele>433.0</ele><time>2026-04-26T16:16:41.908Z</time></trkpt><trkpt lat="44.211385780880654" lon="10.185789331051712"><ele>430.4</ele><time>2026-04-26T16:16:42.908Z</time></trkpt><trkpt lat="44.2113540726174" lon="10.185670147578634"><ele>427.79999999999995</ele><time>2026-04-26T16:16:43.908Z</time></trkpt><trkpt lat="44.21132084022069" lon="10.185546679503599"><ele>425.2</ele><time>2026-04-26T16:16:44.908Z</time></trkpt><trkpt lat="44.2112792577735" lon="10.185419282463407"><ele>422.6</ele><time>2026-04-26T16:16:45.908Z</time></trkpt><trkpt lat="44.21124245730527" lon="10.185298789878491"><ele>420.0</ele><time>2026-04-26T16:16:46.908Z</time></trkpt><trkpt lat="44.21120818119143" lon="10.185181940378433"><ele>420.0</ele><time>2026-04-26T16:16:47.908Z</time></trkpt><trkpt lat="44.211173826096626" lon="10.18505328149635"><ele>420.0</ele><time>2026-04-26T16:16:48.908Z</time></trkpt><trkpt lat="44.21113873198338" lon="10.184924743594612"><ele>420.0</ele><time>2026-04-26T16:16:49.908Z</time></trkpt><trkpt lat="44.211105894719864" lon="10.184809684077791"><ele>420.0</ele><time>2026-04-26T16:16:50.908Z</time></trkpt><trkpt lat="44.21107484889642" lon="10.184693569183732"><ele>420.0</ele><time>2026-04-26T16:16:51.908Z</time></trkpt><trkpt lat="44.21104265492322" lon="10.184586266728752"><ele>419.85714285714283</ele><time>2026-04-26T16:16:52.908Z</time></trkpt><trkpt lat="44.211018841734465" lon="10.184486489779562"><ele>419.7142857142857</ele><time>2026-04-26T16:16:53.908Z</time></trkpt><trkpt lat="44.21100014378285" lon="10.184389611217073"><ele>419.57142857142856</ele><time>2026-04-26T16:16:54.908Z</time></trkpt><trkpt lat="44.21099681863851" lon="10.184299532430291"><ele>419.42857142857144</ele><time>2026-04-26T16:16:55.908Z</time></trkpt><trkpt lat="44.211006203895906" lon="10.184207260588488"><ele>419.2857142857143</ele><time>2026-04-26T16:16:56.908Z</time></trkpt><trkpt lat="44.21103807032544" lon="10.184122843855594"><ele>419.1428571428571</ele><time>2026-04-26T16:16:57.908Z</time></trkpt><trkpt lat="44.211088225594864" lon="10.18404960174263"><ele>419.0</ele><time>2026-04-26T16:16:58.908Z</time></trkpt><trkpt lat="44.211138757176144" lon="10.183991462304256"><ele>418.99999999999994</ele><time>2026-04-26T16:16:59.908Z</time></trkpt><trkpt lat="44.21113792330078" lon="10.183903522808036"><ele>419.0</ele><time>2026-04-26T16:17:00.908Z</time></trkpt><trkpt lat="44.21112835634317" lon="10.18380470492838"><ele>419.0</ele><time>2026-04-26T16:17:01.908Z</time></trkpt><trkpt lat="44.21111905481754" lon="10.183708980969644"><ele>419.0</ele><time>2026-04-26T16:17:02.908Z</time></trkpt><trkpt lat="44.2111540080616" lon="10.183550190777085"><ele>418.99999999999994</ele><time>2026-04-26T16:17:04.908Z</time></trkpt><trkpt lat="44.21119915588431" lon="10.183488116782998"><ele>419.0</ele><time>2026-04-26T16:17:05.908Z</time></trkpt><trkpt lat="44.2113152886946" lon="10.183423441623782"><ele>419.0</ele><time>2026-04-26T16:17:07.908Z</time></trkpt><trkpt lat="44.211412207896" lon="10.183310575644406"><ele>419.0</ele><time>2026-04-26T16:17:09.908Z</time></trkpt><trkpt lat="44.211468391857125" lon="10.183166010335038"><ele>419.0</ele><time>2026-04-26T16:17:11.908Z</time></trkpt><trkpt lat="44.21147657762802" lon="10.183056052538399"><ele>419.0</ele><time>2026-04-26T16:17:12.908Z</time></trkpt><trkpt lat="44.21147657576562" lon="10.182938479499445"><ele>419.0</ele><time>2026-04-26T16:17:13.908Z</time></trkpt><trkpt lat="44.21148549369446" lon="10.182831838138037"><ele>418.4</ele><time>2026-04-26T16:17:14.908Z</time></trkpt><trkpt lat="44.211510517282065" lon="10.182723059229348"><ele>417.79999999999995</ele><time>2026-04-26T16:17:15.908Z</time></trkpt><trkpt lat="44.21154688602921" lon="10.18260400572289"><ele>417.20000000000005</ele><time>2026-04-26T16:17:16.908Z</time></trkpt><trkpt lat="44.21159476980009" lon="10.182468656439815"><ele>416.6</ele><time>2026-04-26T16:17:17.908Z</time></trkpt><trkpt lat="44.21164832528834" lon="10.182322319375325"><ele>416.0</ele><time>2026-04-26T16:17:18.908Z</time></trkpt><trkpt lat="44.211706407900344" lon="10.18219517831346"><ele>413.5</ele><time>2026-04-26T16:17:19.908Z</time></trkpt><trkpt lat="44.21177250394421" lon="10.182055660222716"><ele>411.0</ele><time>2026-04-26T16:17:20.908Z</time></trkpt><trkpt lat="44.21185034387598" lon="10.181893250127274"><ele>408.5</ele><time>2026-04-26T16:17:21.908Z</time></trkpt><trkpt lat="44.21193659744722" lon="10.181717311282508"><ele>406.0</ele><time>2026-04-26T16:17:22.908Z</time></trkpt><trkpt lat="44.21202725920624" lon="10.181531696814769"><ele>402.0</ele><time>2026-04-26T16:17:23.908Z</time></trkpt><trkpt lat="44.21211585660649" lon="10.181344089138808"><ele>398.0</ele><time>2026-04-26T16:17:24.908Z</time></trkpt><trkpt lat="44.212206851907354" lon="10.18116132807215"><ele>394.0</ele><time>2026-04-26T16:17:25.908Z</time></trkpt><trkpt lat="44.212292773130066" lon="10.180976680390291"><ele>395.33333333333337</ele><time>2026-04-26T16:17:26.908Z</time></trkpt><trkpt lat="44.21237752609279" lon="10.180786384492759"><ele>396.66666666666663</ele><time>2026-04-26T16:17:27.908Z</time></trkpt><trkpt lat="44.21246297492324" lon="10.180595293004233"><ele>398.0</ele><time>2026-04-26T16:17:28.908Z</time></trkpt><trkpt lat="44.21254633105974" lon="10.180409803524915"><ele>398.0</ele><time>2026-04-26T16:17:29.908Z</time></trkpt><trkpt lat="44.212619245505536" lon="10.180231955952571"><ele>398.0</ele><time>2026-04-26T16:17:30.908Z</time></trkpt><trkpt lat="44.212691817101074" lon="10.180062697418599"><ele>398.0</ele><time>2026-04-26T16:17:31.908Z</time></trkpt><trkpt lat="44.212761587921534" lon="10.179910796495442"><ele>398.0</ele><time>2026-04-26T16:17:32.908Z</time></trkpt><trkpt lat="44.21283945728712" lon="10.179775924091285"><ele>395.59999999999997</ele><time>2026-04-26T16:17:33.908Z</time></trkpt><trkpt lat="44.212929184777224" lon="10.17967574198629"><ele>393.2</ele><time>2026-04-26T16:17:34.908Z</time></trkpt><trkpt lat="44.21302238559354" lon="10.179622541382486"><ele>390.8</ele><time>2026-04-26T16:17:35.908Z</time></trkpt><trkpt lat="44.21309490588592" lon="10.179570540628026"><ele>388.4</ele><time>2026-04-26T16:17:36.908Z</time></trkpt><trkpt lat="44.213104308417094" lon="10.179402765647787"><ele>386.0</ele><time>2026-04-26T16:17:38.908Z</time></trkpt><trkpt lat="44.21302774917366" lon="10.179355736341833"><ele>386.0</ele><time>2026-04-26T16:17:39.908Z</time></trkpt><trkpt lat="44.212922880968534" lon="10.179379456483758"><ele>386.0</ele><time>2026-04-26T16:17:40.908Z</time></trkpt><trkpt lat="44.21282042799095" lon="10.179446056604634"><ele>386.0</ele><time>2026-04-26T16:17:41.908Z</time></trkpt><trkpt lat="44.2127008897268" lon="10.179534194831552"><ele>386.0</ele><time>2026-04-26T16:17:42.907Z</time></trkpt><trkpt lat="44.21256825676245" lon="10.179647464008942"><ele>386.0</ele><time>2026-04-26T16:17:43.907Z</time></trkpt><trkpt lat="44.21242434693148" lon="10.179745610705156"><ele>386.0</ele><time>2026-04-26T16:17:44.907Z</time></trkpt><trkpt lat="44.212273205805914" lon="10.179840680129614"><ele>386.0</ele><time>2026-04-26T16:17:45.907Z</time></trkpt><trkpt lat="44.212129578351785" lon="10.179923445341212"><ele>385.25</ele><time>2026-04-26T16:17:46.907Z</time></trkpt><trkpt lat="44.21199253397391" lon="10.179991954676433"><ele>384.5</ele><time>2026-04-26T16:17:47.907Z</time></trkpt><trkpt lat="44.21186239517082" lon="10.180055413744302"><ele>383.75</ele><time>2026-04-26T16:17:48.907Z</time></trkpt><trkpt lat="44.21173419485314" lon="10.180124759449622"><ele>383.0</ele><time>2026-04-26T16:17:49.907Z</time></trkpt><trkpt lat="44.211610183428796" lon="10.180201803902646"><ele>382.25</ele><time>2026-04-26T16:17:50.907Z</time></trkpt><trkpt lat="44.21148792606053" lon="10.180305277691993"><ele>381.5</ele><time>2026-04-26T16:17:51.907Z</time></trkpt><trkpt lat="44.211380817421364" lon="10.180437625572536"><ele>380.75</ele><time>2026-04-26T16:17:52.907Z</time></trkpt><trkpt lat="44.21127011780796" lon="10.180581147105292"><ele>380.0</ele><time>2026-04-26T16:17:53.907Z</time></trkpt><trkpt lat="44.211136762315476" lon="10.180709315058731"><ele>379.33333333333337</ele><time>2026-04-26T16:17:54.907Z</time></trkpt><trkpt lat="44.21099889538517" lon="10.180814661370048"><ele>378.6666666666667</ele><time>2026-04-26T16:17:55.907Z</time></trkpt><trkpt lat="44.210860741275425" lon="10.180919087653418"><ele>378.0</ele><time>2026-04-26T16:17:56.907Z</time></trkpt><trkpt lat="44.210719709998365" lon="10.181005104123816"><ele>376.25</ele><time>2026-04-26T16:17:57.907Z</time></trkpt><trkpt lat="44.21057655258453" lon="10.181077374381157"><ele>374.5</ele><time>2026-04-26T16:17:58.907Z</time></trkpt><trkpt lat="44.21043885616923" lon="10.181134824252744"><ele>372.75</ele><time>2026-04-26T16:17:59.907Z</time></trkpt><trkpt lat="44.21030706980947" lon="10.181191958351194"><ele>371.0</ele><time>2026-04-26T16:18:00.907Z</time></trkpt><trkpt lat="44.21018428368991" lon="10.181222705219097"><ele>371.0</ele><time>2026-04-26T16:18:01.907Z</time></trkpt><trkpt lat="44.21005409566658" lon="10.181209807165516"><ele>371.0</ele><time>2026-04-26T16:18:02.907Z</time></trkpt><trkpt lat="44.20992020870274" lon="10.18116874295369"><ele>371.0</ele><time>2026-04-26T16:18:03.907Z</time></trkpt><trkpt lat="44.209805078371886" lon="10.181089994409065"><ele>371.0</ele><time>2026-04-26T16:18:04.907Z</time></trkpt><trkpt lat="44.20970506384133" lon="10.180994139323955"><ele>369.0</ele><time>2026-04-26T16:18:05.907Z</time></trkpt><trkpt lat="44.209610743120535" lon="10.180924991823407"><ele>367.0</ele><time>2026-04-26T16:18:06.907Z</time></trkpt><trkpt lat="44.20950901847159" lon="10.18092088648432"><ele>365.0</ele><time>2026-04-26T16:18:07.907Z</time></trkpt><trkpt lat="44.20940103663325" lon="10.180987140822904"><ele>363.0</ele><time>2026-04-26T16:18:08.907Z</time></trkpt><trkpt lat="44.20927528768106" lon="10.18111229573026"><ele>363.0</ele><time>2026-04-26T16:18:09.907Z</time></trkpt><trkpt lat="44.20916912371535" lon="10.181210234388962"><ele>363.0</ele><time>2026-04-26T16:18:10.907Z</time></trkpt><trkpt lat="44.20907882551173" lon="10.181314830305329"><ele>363.0</ele><time>2026-04-26T16:18:11.907Z</time></trkpt><trkpt lat="44.20900150091238" lon="10.18143696854032"><ele>363.0</ele><time>2026-04-26T16:18:12.907Z</time></trkpt><trkpt lat="44.20894084483" lon="10.181595657443344"><ele>361.5</ele><time>2026-04-26T16:18:13.907Z</time></trkpt><trkpt lat="44.208889295485626" lon="10.181746315627567"><ele>360.0</ele><time>2026-04-26T16:18:14.907Z</time></trkpt><trkpt lat="44.208814837854206" lon="10.18184325908299"><ele>358.5</ele><time>2026-04-26T16:18:15.907Z</time></trkpt><trkpt lat="44.20870383868301" lon="10.181901198488573"><ele>357.0</ele><time>2026-04-26T16:18:16.907Z</time></trkpt><trkpt lat="44.20858461027452" lon="10.1819229519615"><ele>357.0</ele><time>2026-04-26T16:18:17.907Z</time></trkpt><trkpt lat="44.208469870828814" lon="10.181927092232524"><ele>357.0</ele><time>2026-04-26T16:18:18.907Z</time></trkpt><trkpt lat="44.20837288491761" lon="10.18192675125953"><ele>357.0</ele><time>2026-04-26T16:18:19.907Z</time></trkpt><trkpt lat="44.20829082537219" lon="10.181909236429165"><ele>357.0</ele><time>2026-04-26T16:18:20.907Z</time></trkpt><trkpt lat="44.208225593699225" lon="10.181849520630205"><ele>357.0</ele><time>2026-04-26T16:18:21.907Z</time></trkpt><trkpt lat="44.20817079663094" lon="10.18175389952321"><ele>357.25</ele><time>2026-04-26T16:18:22.907Z</time></trkpt><trkpt lat="44.208115311555595" lon="10.181626416182434"><ele>357.5</ele><time>2026-04-26T16:18:23.907Z</time></trkpt><trkpt lat="44.20805844104266" lon="10.18149633051543"><ele>357.75</ele><time>2026-04-26T16:18:24.907Z</time></trkpt><trkpt lat="44.2079987854772" lon="10.18134137827798"><ele>358.0</ele><time>2026-04-26T16:18:25.907Z</time></trkpt><trkpt lat="44.20791018208645" lon="10.181205932482934"><ele>358.0</ele><time>2026-04-26T16:18:26.907Z</time></trkpt><trkpt lat="44.20780577682246" lon="10.181085223209736"><ele>358.0</ele><time>2026-04-26T16:18:27.907Z</time></trkpt><trkpt lat="44.20768366441552" lon="10.181008282097439"><ele>358.0</ele><time>2026-04-26T16:18:28.907Z</time></trkpt><trkpt lat="44.2075577057682" lon="10.180916760432106"><ele>358.0</ele><time>2026-04-26T16:18:29.907Z</time></trkpt><trkpt lat="44.207419346538984" lon="10.180840857187833"><ele>359.5</ele><time>2026-04-26T16:18:30.907Z</time></trkpt><trkpt lat="44.20727685249841" lon="10.180769677497617"><ele>361.0</ele><time>2026-04-26T16:18:31.907Z</time></trkpt><trkpt lat="44.20714172293378" lon="10.1807069737399"><ele>362.5</ele><time>2026-04-26T16:18:32.907Z</time></trkpt><trkpt lat="44.20701021734068" lon="10.180668182093669"><ele>364.0</ele><time>2026-04-26T16:18:33.907Z</time></trkpt><trkpt lat="44.20688808511332" lon="10.18063214862847"><ele>363.75</ele><time>2026-04-26T16:18:34.907Z</time></trkpt><trkpt lat="44.20676902583845" lon="10.18061714278712"><ele>363.5</ele><time>2026-04-26T16:18:35.907Z</time></trkpt><trkpt lat="44.20666282876259" lon="10.180579185669465"><ele>363.25</ele><time>2026-04-26T16:18:36.907Z</time></trkpt><trkpt lat="44.20655545411588" lon="10.18050747616151"><ele>363.0</ele><time>2026-04-26T16:18:37.907Z</time></trkpt><trkpt lat="44.2064569577164" lon="10.180403701232734"><ele>363.0</ele><time>2026-04-26T16:18:38.907Z</time></trkpt><trkpt lat="44.20637652414544" lon="10.18026807017661"><ele>363.0</ele><time>2026-04-26T16:18:39.907Z</time></trkpt><trkpt lat="44.20629269428595" lon="10.180140516219094"><ele>363.0</ele><time>2026-04-26T16:18:40.907Z</time></trkpt><trkpt lat="44.20621033813223" lon="10.180004421418438"><ele>363.0</ele><time>2026-04-26T16:18:41.907Z</time></trkpt><trkpt lat="44.20613279660001" lon="10.179867782749625"><ele>358.75</ele><time>2026-04-26T16:18:42.907Z</time></trkpt><trkpt lat="44.20606419415465" lon="10.179732505750792"><ele>354.5</ele><time>2026-04-26T16:18:43.907Z</time></trkpt><trkpt lat="44.2060091446391" lon="10.179580989918291"><ele>350.25</ele><time>2026-04-26T16:18:44.907Z</time></trkpt><trkpt lat="44.20596179406564" lon="10.179425639489354"><ele>346.0</ele><time>2026-04-26T16:18:45.907Z</time></trkpt><trkpt lat="44.2059307691305" lon="10.179255334705612"><ele>346.0</ele><time>2026-04-26T16:18:46.907Z</time></trkpt><trkpt lat="44.20588002416463" lon="10.179102758728384"><ele>346.0</ele><time>2026-04-26T16:18:47.907Z</time></trkpt><trkpt lat="44.20581181280947" lon="10.17897312733517"><ele>346.0</ele><time>2026-04-26T16:18:48.907Z</time></trkpt><trkpt lat="44.205718560216354" lon="10.178832058800413"><ele>346.0</ele><time>2026-04-26T16:18:49.907Z</time></trkpt><trkpt lat="44.20561551653767" lon="10.17870108725431"><ele>344.5</ele><time>2026-04-26T16:18:50.907Z</time></trkpt><trkpt lat="44.205531201953555" lon="10.178578602814278"><ele>343.0</ele><time>2026-04-26T16:18:51.907Z</time></trkpt><trkpt lat="44.205447836069624" lon="10.178459915638363"><ele>341.5</ele><time>2026-04-26T16:18:52.907Z</time></trkpt><trkpt lat="44.20534861802721" lon="10.178358561903542"><ele>340.0</ele><time>2026-04-26T16:18:53.907Z</time></trkpt><trkpt lat="44.20523382575636" lon="10.178290594340368"><ele>340.0</ele><time>2026-04-26T16:18:54.907Z</time></trkpt><trkpt lat="44.20509571453366" lon="10.178268686304259"><ele>340.0</ele><time>2026-04-26T16:18:55.907Z</time></trkpt><trkpt lat="44.20494910304359" lon="10.178237992372837"><ele>340.0</ele><time>2026-04-26T16:18:56.907Z</time></trkpt><trkpt lat="44.20479480810598" lon="10.178207575547024"><ele>340.0</ele><time>2026-04-26T16:18:57.907Z</time></trkpt><trkpt lat="44.20463799975415" lon="10.178170918924625"><ele>336.75</ele><time>2026-04-26T16:18:58.907Z</time></trkpt><trkpt lat="44.2044943769677" lon="10.178134874730997"><ele>333.5</ele><time>2026-04-26T16:18:59.907Z</time></trkpt><trkpt lat="44.204354904536" lon="10.178090438892879"><ele>330.25</ele><time>2026-04-26T16:19:00.907Z</time></trkpt><trkpt lat="44.2042142852957" lon="10.178055825235928"><ele>327.0</ele><time>2026-04-26T16:19:01.907Z</time></trkpt><trkpt lat="44.2040697419264" lon="10.178012077919165"><ele>327.75</ele><time>2026-04-26T16:19:02.907Z</time></trkpt><trkpt lat="44.20392604050931" lon="10.177971916822523"><ele>328.5</ele><time>2026-04-26T16:19:03.907Z</time></trkpt><trkpt lat="44.20377996323386" lon="10.177932111542388"><ele>329.25</ele><time>2026-04-26T16:19:04.907Z</time></trkpt><trkpt lat="44.20364038036179" lon="10.177902323404702"><ele>330.0</ele><time>2026-04-26T16:19:05.907Z</time></trkpt><trkpt lat="44.203507737460846" lon="10.177876311370433"><ele>330.0</ele><time>2026-04-26T16:19:06.907Z</time></trkpt><trkpt lat="44.20337522060948" lon="10.177844674250704"><ele>330.0</ele><time>2026-04-26T16:19:07.907Z</time></trkpt><trkpt lat="44.20324427235219" lon="10.177797475567203"><ele>330.0</ele><time>2026-04-26T16:19:08.907Z</time></trkpt><trkpt lat="44.203115022551074" lon="10.177732446960595"><ele>330.0</ele><time>2026-04-26T16:19:09.907Z</time></trkpt><trkpt lat="44.202992089775535" lon="10.177644096709784"><ele>329.5</ele><time>2026-04-26T16:19:10.907Z</time></trkpt><trkpt lat="44.20287659555402" lon="10.177541987024158"><ele>329.0</ele><time>2026-04-26T16:19:11.907Z</time></trkpt><trkpt lat="44.202766669568156" lon="10.177437020136171"><ele>328.5</ele><time>2026-04-26T16:19:12.907Z</time></trkpt><trkpt lat="44.20265374491993" lon="10.177347092425817"><ele>328.0</ele><time>2026-04-26T16:19:13.907Z</time></trkpt><trkpt lat="44.202552215069716" lon="10.17725173505241"><ele>328.0</ele><time>2026-04-26T16:19:14.907Z</time></trkpt><trkpt lat="44.202460089033366" lon="10.177161314850903"><ele>328.0</ele><time>2026-04-26T16:19:15.907Z</time></trkpt><trkpt lat="44.202378863695955" lon="10.177062852188586"><ele>328.0</ele><time>2026-04-26T16:19:16.907Z</time></trkpt><trkpt lat="44.20230439588164" lon="10.176950980623678"><ele>328.0</ele><time>2026-04-26T16:19:17.907Z</time></trkpt><trkpt lat="44.20225334067687" lon="10.176808324537122"><ele>328.0</ele><time>2026-04-26T16:19:18.907Z</time></trkpt><trkpt lat="44.202225812347486" lon="10.176644882435532"><ele>326.5</ele><time>2026-04-26T16:19:19.907Z</time></trkpt><trkpt lat="44.202215760652635" lon="10.17647104116036"><ele>325.0</ele><time>2026-04-26T16:19:20.907Z</time></trkpt><trkpt lat="44.20220054166943" lon="10.176297981821296"><ele>323.5</ele><time>2026-04-26T16:19:21.907Z</time></trkpt><trkpt lat="44.202176976306426" lon="10.1761333703587"><ele>322.0</ele><time>2026-04-26T16:19:22.907Z</time></trkpt><trkpt lat="44.202146135248434" lon="10.175976507245576"><ele>322.0</ele><time>2026-04-26T16:19:23.907Z</time></trkpt><trkpt lat="44.20210011805245" lon="10.175823877704204"><ele>322.0</ele><time>2026-04-26T16:19:24.907Z</time></trkpt><trkpt lat="44.20202459182066" lon="10.17570066996878"><ele>322.0</ele><time>2026-04-26T16:19:25.907Z</time></trkpt><trkpt lat="44.20192875837144" lon="10.175593515734656"><ele>322.0</ele><time>2026-04-26T16:19:26.907Z</time></trkpt><trkpt lat="44.20182328554865" lon="10.175504121874628"><ele>319.5</ele><time>2026-04-26T16:19:27.907Z</time></trkpt><trkpt lat="44.20171263601305" lon="10.175419669960325"><ele>317.0</ele><time>2026-04-26T16:19:28.907Z</time></trkpt><trkpt lat="44.20160359449659" lon="10.17533676177773"><ele>314.5</ele><time>2026-04-26T16:19:29.907Z</time></trkpt><trkpt lat="44.201494335062975" lon="10.175248971696428"><ele>312.0</ele><time>2026-04-26T16:19:30.907Z</time></trkpt><trkpt lat="44.20138408632381" lon="10.175160537851665"><ele>311.75</ele><time>2026-04-26T16:19:31.907Z</time></trkpt><trkpt lat="44.20127781787676" lon="10.175071821795123"><ele>311.5</ele><time>2026-04-26T16:19:32.907Z</time></trkpt><trkpt lat="44.201168074894994" lon="10.174983460340258"><ele>311.25</ele><time>2026-04-26T16:19:33.907Z</time></trkpt><trkpt lat="44.20106312920574" lon="10.17488398168347"><ele>311.0</ele><time>2026-04-26T16:19:34.907Z</time></trkpt><trkpt lat="44.200964192430746" lon="10.174770988955585"><ele>309.5</ele><time>2026-04-26T16:19:35.907Z</time></trkpt><trkpt lat="44.200885350173614" lon="10.174639002444794"><ele>308.0</ele><time>2026-04-26T16:19:36.907Z</time></trkpt><trkpt lat="44.200830337335454" lon="10.174490127226738"><ele>306.5</ele><time>2026-04-26T16:19:37.907Z</time></trkpt><trkpt lat="44.20079203444728" lon="10.174320295383385"><ele>305.0</ele><time>2026-04-26T16:19:38.907Z</time></trkpt><trkpt lat="44.20076079251089" lon="10.174138978217737"><ele>304.5</ele><time>2026-04-26T16:19:39.907Z</time></trkpt><trkpt lat="44.200723552008405" lon="10.173946215364388"><ele>304.0</ele><time>2026-04-26T16:19:40.907Z</time></trkpt><trkpt lat="44.20070048466342" lon="10.173758342798939"><ele>303.5</ele><time>2026-04-26T16:19:41.907Z</time></trkpt><trkpt lat="44.200675948690275" lon="10.17355679983646"><ele>303.0</ele><time>2026-04-26T16:19:42.907Z</time></trkpt><trkpt lat="44.2006595747274" lon="10.17336583953527"><ele>302.25</ele><time>2026-04-26T16:19:43.907Z</time></trkpt><trkpt lat="44.20065038268399" lon="10.173187060346937"><ele>301.5</ele><time>2026-04-26T16:19:44.907Z</time></trkpt><trkpt lat="44.20064285604117" lon="10.173028744727327"><ele>300.75</ele><time>2026-04-26T16:19:45.907Z</time></trkpt><trkpt lat="44.20062991407386" lon="10.172876326459411"><ele>300.0</ele><time>2026-04-26T16:19:46.907Z</time></trkpt><trkpt lat="44.200623412272336" lon="10.172721718853223"><ele>300.0</ele><time>2026-04-26T16:19:47.907Z</time></trkpt><trkpt lat="44.20061399545493" lon="10.17256698950413"><ele>300.0</ele><time>2026-04-26T16:19:48.906Z</time></trkpt><trkpt lat="44.20057773153376" lon="10.172412900452017"><ele>300.0</ele><time>2026-04-26T16:19:49.906Z</time></trkpt><trkpt lat="44.2005000998642" lon="10.172269324976941"><ele>300.0</ele><time>2026-04-26T16:19:50.906Z</time></trkpt><trkpt lat="44.20041177011704" lon="10.172129469256253"><ele>302.3333333333333</ele><time>2026-04-26T16:19:51.906Z</time></trkpt><trkpt lat="44.20031914077621" lon="10.171979716713565"><ele>304.66666666666663</ele><time>2026-04-26T16:19:52.906Z</time></trkpt><trkpt lat="44.20021975675965" lon="10.171816006736147"><ele>307.0</ele><time>2026-04-26T16:19:53.906Z</time></trkpt><trkpt lat="44.200118209465835" lon="10.171641956933762"><ele>310.66666666666663</ele><time>2026-04-26T16:19:54.906Z</time></trkpt><trkpt lat="44.20001625721533" lon="10.17147547975797"><ele>314.3333333333333</ele><time>2026-04-26T16:19:55.906Z</time></trkpt><trkpt lat="44.199926042402524" lon="10.171308927793323"><ele>318.0</ele><time>2026-04-26T16:19:56.906Z</time></trkpt><trkpt lat="44.19983469755714" lon="10.171151292717477"><ele>315.0</ele><time>2026-04-26T16:19:57.906Z</time></trkpt><trkpt lat="44.199737663874984" lon="10.171007748015358"><ele>312.0</ele><time>2026-04-26T16:19:58.906Z</time></trkpt><trkpt lat="44.19963123487328" lon="10.170889546487984"><ele>309.0</ele><time>2026-04-26T16:19:59.906Z</time></trkpt><trkpt lat="44.19951775632391" lon="10.17078191173854"><ele>306.0</ele><time>2026-04-26T16:20:00.906Z</time></trkpt><trkpt lat="44.19939731742164" lon="10.170673378014914"><ele>306.0</ele><time>2026-04-26T16:20:01.906Z</time></trkpt><trkpt lat="44.19928317343345" lon="10.170575298852661"><ele>306.0</ele><time>2026-04-26T16:20:02.906Z</time></trkpt><trkpt lat="44.199182028640415" lon="10.170479590574933"><ele>306.0</ele><time>2026-04-26T16:20:03.906Z</time></trkpt><trkpt lat="44.19909475188896" lon="10.17037685052158"><ele>306.0</ele><time>2026-04-26T16:20:04.906Z</time></trkpt><trkpt lat="44.19902041532636" lon="10.170259695982404"><ele>301.25</ele><time>2026-04-26T16:20:05.906Z</time></trkpt><trkpt lat="44.198967577642364" lon="10.170132992248186"><ele>296.5</ele><time>2026-04-26T16:20:06.906Z</time></trkpt><trkpt lat="44.198927892183946" lon="10.16999644506022"><ele>291.75</ele><time>2026-04-26T16:20:07.906Z</time></trkpt><trkpt lat="44.19891223061299" lon="10.16983965180441"><ele>287.0</ele><time>2026-04-26T16:20:08.906Z</time></trkpt><trkpt lat="44.198926772048694" lon="10.16963756330504"><ele>286.75</ele><time>2026-04-26T16:20:09.906Z</time></trkpt><trkpt lat="44.19892734201711" lon="10.169445708060534"><ele>286.5</ele><time>2026-04-26T16:20:10.906Z</time></trkpt><trkpt lat="44.198916891756774" lon="10.169250508200191"><ele>286.25</ele><time>2026-04-26T16:20:11.906Z</time></trkpt><trkpt lat="44.198905047843084" lon="10.169046330420132"><ele>286.0</ele><time>2026-04-26T16:20:12.906Z</time></trkpt><trkpt lat="44.19889497263063" lon="10.168836659376264"><ele>285.75</ele><time>2026-04-26T16:20:13.906Z</time></trkpt><trkpt lat="44.198882182624985" lon="10.168637155389908"><ele>285.5</ele><time>2026-04-26T16:20:14.906Z</time></trkpt><trkpt lat="44.198864780963156" lon="10.168444337014998"><ele>285.25</ele><time>2026-04-26T16:20:15.906Z</time></trkpt><trkpt lat="44.198843347811504" lon="10.168247130790451"><ele>285.0</ele><time>2026-04-26T16:20:16.906Z</time></trkpt><trkpt lat="44.198805479079674" lon="10.168062322650421"><ele>285.0</ele><time>2026-04-26T16:20:17.906Z</time></trkpt><trkpt lat="44.1987512898315" lon="10.167876819563583"><ele>285.0</ele><time>2026-04-26T16:20:18.906Z</time></trkpt><trkpt lat="44.19869294099019" lon="10.1676906395682"><ele>285.0</ele><time>2026-04-26T16:20:19.906Z</time></trkpt><trkpt lat="44.19865278071817" lon="10.167500540830156"><ele>285.0</ele><time>2026-04-26T16:20:20.906Z</time></trkpt><trkpt lat="44.19862450465798" lon="10.167306051875217"><ele>286.0</ele><time>2026-04-26T16:20:21.906Z</time></trkpt><trkpt lat="44.198592185871355" lon="10.167115189333087"><ele>287.0</ele><time>2026-04-26T16:20:22.906Z</time></trkpt><trkpt lat="44.19857300414022" lon="10.166934348095765"><ele>288.0</ele><time>2026-04-26T16:20:23.906Z</time></trkpt><trkpt lat="44.19853068307698" lon="10.166746304692731"><ele>289.0</ele><time>2026-04-26T16:20:24.906Z</time></trkpt><trkpt lat="44.19847203939592" lon="10.166581613486724"><ele>289.25</ele><time>2026-04-26T16:20:25.906Z</time></trkpt><trkpt lat="44.19841003274188" lon="10.16643679357426"><ele>289.5</ele><time>2026-04-26T16:20:26.906Z</time></trkpt><trkpt lat="44.198364337295196" lon="10.166288533977768"><ele>289.75</ele><time>2026-04-26T16:20:27.906Z</time></trkpt><trkpt lat="44.198354084771395" lon="10.166117927415327"><ele>290.0</ele><time>2026-04-26T16:20:28.906Z</time></trkpt><trkpt lat="44.19838066671999" lon="10.165935861206712"><ele>290.0</ele><time>2026-04-26T16:20:29.906Z</time></trkpt><trkpt lat="44.1984271631369" lon="10.16576093864558"><ele>290.0</ele><time>2026-04-26T16:20:30.906Z</time></trkpt><trkpt lat="44.198467792289996" lon="10.165571338145297"><ele>290.0</ele><time>2026-04-26T16:20:31.906Z</time></trkpt><trkpt lat="44.198490365041565" lon="10.165385189788156"><ele>290.0</ele><time>2026-04-26T16:20:32.906Z</time></trkpt><trkpt lat="44.198480361403966" lon="10.165198565985193"><ele>289.25</ele><time>2026-04-26T16:20:33.906Z</time></trkpt><trkpt lat="44.19844493414849" lon="10.165003148541974"><ele>288.5</ele><time>2026-04-26T16:20:34.906Z</time></trkpt><trkpt lat="44.19839685797089" lon="10.164812469236136"><ele>287.75</ele><time>2026-04-26T16:20:35.906Z</time></trkpt><trkpt lat="44.19835853806969" lon="10.164613636006386"><ele>287.0</ele><time>2026-04-26T16:20:36.906Z</time></trkpt><trkpt lat="44.19833386975368" lon="10.164416593624255"><ele>289.0</ele><time>2026-04-26T16:20:37.906Z</time></trkpt><trkpt lat="44.19830527467571" lon="10.164233349696804"><ele>291.0</ele><time>2026-04-26T16:20:38.906Z</time></trkpt><trkpt lat="44.198255567336446" lon="10.164061258086727"><ele>293.0</ele><time>2026-04-26T16:20:39.906Z</time></trkpt><trkpt lat="44.19819671665376" lon="10.16388792020723"><ele>295.0</ele><time>2026-04-26T16:20:40.906Z</time></trkpt><trkpt lat="44.198150863650596" lon="10.163712892884156"><ele>290.0</ele><time>2026-04-26T16:20:41.906Z</time></trkpt><trkpt lat="44.19812304530802" lon="10.163514801761213"><ele>285.0</ele><time>2026-04-26T16:20:42.906Z</time></trkpt><trkpt lat="44.198112603449154" lon="10.16332382324132"><ele>280.0</ele><time>2026-04-26T16:20:43.906Z</time></trkpt><trkpt lat="44.19811166758475" lon="10.163126480537548"><ele>275.0</ele><time>2026-04-26T16:20:44.906Z</time></trkpt><trkpt lat="44.1981068001197" lon="10.162933871454735"><ele>273.25</ele><time>2026-04-26T16:20:45.906Z</time></trkpt><trkpt lat="44.1980947138867" lon="10.162747732882233"><ele>271.5</ele><time>2026-04-26T16:20:46.906Z</time></trkpt><trkpt lat="44.19807666041013" lon="10.162557088651406"><ele>269.75</ele><time>2026-04-26T16:20:47.906Z</time></trkpt><trkpt lat="44.19803779371177" lon="10.162367984331553"><ele>268.0</ele><time>2026-04-26T16:20:48.906Z</time></trkpt><trkpt lat="44.19796708828288" lon="10.162200262236876"><ele>267.75</ele><time>2026-04-26T16:20:49.906Z</time></trkpt><trkpt lat="44.19789946151104" lon="10.162025279130193"><ele>267.5</ele><time>2026-04-26T16:20:50.906Z</time></trkpt><trkpt lat="44.19786569129536" lon="10.161840107723949"><ele>267.25</ele><time>2026-04-26T16:20:51.906Z</time></trkpt><trkpt lat="44.197841094334656" lon="10.161648353808324"><ele>267.0</ele><time>2026-04-26T16:20:52.906Z</time></trkpt><trkpt lat="44.19782052571827" lon="10.161457275420933"><ele>266.6666666666667</ele><time>2026-04-26T16:20:53.906Z</time></trkpt><trkpt lat="44.197814148591355" lon="10.161230474731381"><ele>266.33333333333337</ele><time>2026-04-26T16:20:54.906Z</time></trkpt><trkpt lat="44.1978279729312" lon="10.160992897839485"><ele>266.0</ele><time>2026-04-26T16:20:55.906Z</time></trkpt><trkpt lat="44.19783793819091" lon="10.16076713876204"><ele>265.6666666666667</ele><time>2026-04-26T16:20:56.906Z</time></trkpt><trkpt lat="44.19782253122848" lon="10.160545994640604"><ele>265.3333333333333</ele><time>2026-04-26T16:20:57.906Z</time></trkpt><trkpt lat="44.197820715723516" lon="10.160327021292158"><ele>265.0</ele><time>2026-04-26T16:20:58.906Z</time></trkpt><trkpt lat="44.19781907530685" lon="10.160132239014066"><ele>265.0</ele><time>2026-04-26T16:20:59.906Z</time></trkpt><trkpt lat="44.19779280192545" lon="10.15994190195833"><ele>265.0</ele><time>2026-04-26T16:21:00.906Z</time></trkpt><trkpt lat="44.197777910440756" lon="10.1597550607269"><ele>265.0</ele><time>2026-04-26T16:21:01.906Z</time></trkpt><trkpt lat="44.19776176484052" lon="10.159578393019679"><ele>265.0</ele><time>2026-04-26T16:21:02.906Z</time></trkpt><trkpt lat="44.19771628112565" lon="10.159412063482337"><ele>265.25</ele><time>2026-04-26T16:21:03.906Z</time></trkpt><trkpt lat="44.19764159849386" lon="10.159264536372172"><ele>265.5</ele><time>2026-04-26T16:21:04.906Z</time></trkpt><trkpt lat="44.197553117311905" lon="10.159120749373326"><ele>265.75</ele><time>2026-04-26T16:21:05.906Z</time></trkpt><trkpt lat="44.1974697268803" lon="10.158982635276349"><ele>266.0</ele><time>2026-04-26T16:21:06.906Z</time></trkpt><trkpt lat="44.19740265950911" lon="10.158845274060734"><ele>266.5</ele><time>2026-04-26T16:21:07.906Z</time></trkpt><trkpt lat="44.197352655823956" lon="10.158698585560476"><ele>267.0</ele><time>2026-04-26T16:21:08.906Z</time></trkpt><trkpt lat="44.197334638766534" lon="10.158514453619627"><ele>267.5</ele><time>2026-04-26T16:21:09.906Z</time></trkpt><trkpt lat="44.19733275898437" lon="10.158311857379983"><ele>268.0</ele><time>2026-04-26T16:21:10.906Z</time></trkpt><trkpt lat="44.197325944756415" lon="10.158100856074265"><ele>266.25</ele><time>2026-04-26T16:21:11.906Z</time></trkpt><trkpt lat="44.1973085196291" lon="10.15790648494438"><ele>264.5</ele><time>2026-04-26T16:21:12.906Z</time></trkpt><trkpt lat="44.1972706958901" lon="10.157719356887943"><ele>262.75</ele><time>2026-04-26T16:21:13.906Z</time></trkpt><trkpt lat="44.19720904076235" lon="10.157527604837206"><ele>261.0</ele><time>2026-04-26T16:21:14.906Z</time></trkpt><trkpt lat="44.19713382802474" lon="10.157347357476459"><ele>261.0</ele><time>2026-04-26T16:21:15.906Z</time></trkpt><trkpt lat="44.19704579471902" lon="10.157181566139117"><ele>261.0</ele><time>2026-04-26T16:21:16.906Z</time></trkpt><trkpt lat="44.196949602926104" lon="10.156991186262356"><ele>261.0</ele><time>2026-04-26T16:21:17.906Z</time></trkpt><trkpt lat="44.19686474363676" lon="10.156799414551578"><ele>261.0</ele><time>2026-04-26T16:21:18.906Z</time></trkpt><trkpt lat="44.19678937124905" lon="10.156623744468945"><ele>261.0</ele><time>2026-04-26T16:21:19.906Z</time></trkpt><trkpt lat="44.19671595525483" lon="10.156446718324846"><ele>261.0</ele><time>2026-04-26T16:21:20.906Z</time></trkpt><trkpt lat="44.19665053253736" lon="10.156253073029514"><ele>261.0</ele><time>2026-04-26T16:21:21.906Z</time></trkpt><trkpt lat="44.19659657271379" lon="10.156050299272444"><ele>261.5</ele><time>2026-04-26T16:21:22.906Z</time></trkpt><trkpt lat="44.19656059334429" lon="10.155863776675012"><ele>262.0</ele><time>2026-04-26T16:21:23.906Z</time></trkpt><trkpt lat="44.19652479908887" lon="10.155693935975755"><ele>262.5</ele><time>2026-04-26T16:21:24.906Z</time></trkpt><trkpt lat="44.19647059042701" lon="10.155554049763362"><ele>263.0</ele><time>2026-04-26T16:21:25.906Z</time></trkpt><trkpt lat="44.19638753976099" lon="10.155436057395006"><ele>263.0</ele><time>2026-04-26T16:21:26.906Z</time></trkpt><trkpt lat="44.19626975694333" lon="10.155349290092094"><ele>263.0</ele><time>2026-04-26T16:21:27.906Z</time></trkpt><trkpt lat="44.19613491079005" lon="10.155288795764577"><ele>263.0</ele><time>2026-04-26T16:21:28.906Z</time></trkpt><trkpt lat="44.19599882394971" lon="10.155257291263585"><ele>263.0</ele><time>2026-04-26T16:21:29.906Z</time></trkpt><trkpt lat="44.195859674766865" lon="10.155246136562878"><ele>263.0</ele><time>2026-04-26T16:21:30.906Z</time></trkpt><trkpt lat="44.19571786073897" lon="10.155233476294065"><ele>263.0</ele><time>2026-04-26T16:21:31.906Z</time></trkpt><trkpt lat="44.19558512012416" lon="10.155215671688767"><ele>263.0</ele><time>2026-04-26T16:21:32.906Z</time></trkpt><trkpt lat="44.19545061716795" lon="10.155209491180216"><ele>263.0</ele><time>2026-04-26T16:21:33.906Z</time></trkpt><trkpt lat="44.19531834992023" lon="10.15521082348225"><ele>263.75</ele><time>2026-04-26T16:21:34.906Z</time></trkpt><trkpt lat="44.19519035524024" lon="10.15519225736737"><ele>264.5</ele><time>2026-04-26T16:21:35.906Z</time></trkpt><trkpt lat="44.19506905440631" lon="10.155145431918667"><ele>265.25</ele><time>2026-04-26T16:21:36.906Z</time></trkpt><trkpt lat="44.1949510289043" lon="10.155060838562875"><ele>266.0</ele><time>2026-04-26T16:21:37.906Z</time></trkpt><trkpt lat="44.19483639643616" lon="10.15496181337576"><ele>265.5</ele><time>2026-04-26T16:21:38.906Z</time></trkpt><trkpt lat="44.194715804196484" lon="10.154873775841423"><ele>265.0</ele><time>2026-04-26T16:21:39.906Z</time></trkpt><trkpt lat="44.19459127485415" lon="10.154795288702982"><ele>264.5</ele><time>2026-04-26T16:21:40.906Z</time></trkpt><trkpt lat="44.19445899927434" lon="10.154737517549647"><ele>264.0</ele><time>2026-04-26T16:21:41.906Z</time></trkpt><trkpt lat="44.19432418084923" lon="10.154691220211726"><ele>264.0</ele><time>2026-04-26T16:21:42.906Z</time></trkpt><trkpt lat="44.19418790169073" lon="10.15466628648785"><ele>264.0</ele><time>2026-04-26T16:21:43.906Z</time></trkpt><trkpt lat="44.19406397995521" lon="10.154644994815378"><ele>264.0</ele><time>2026-04-26T16:21:44.906Z</time></trkpt><trkpt lat="44.193948294878844" lon="10.154626038089221"><ele>264.0</ele><time>2026-04-26T16:21:45.906Z</time></trkpt><trkpt lat="44.193855367219484" lon="10.154587310151122"><ele>260.0</ele><time>2026-04-26T16:21:46.906Z</time></trkpt><trkpt lat="44.19378638373062" lon="10.154509169658871"><ele>255.99999999999997</ele><time>2026-04-26T16:21:47.906Z</time></trkpt><trkpt lat="44.19375887300801" lon="10.154375551818113"><ele>251.99999999999997</ele><time>2026-04-26T16:21:48.906Z</time></trkpt><trkpt lat="44.193766990214655" lon="10.154232137394589"><ele>248.0</ele><time>2026-04-26T16:21:49.906Z</time></trkpt><trkpt lat="44.19382047756653" lon="10.154086528211169"><ele>244.0</ele><time>2026-04-26T16:21:50.906Z</time></trkpt><trkpt lat="44.19388021046435" lon="10.153915547824008"><ele>243.5</ele><time>2026-04-26T16:21:51.906Z</time></trkpt><trkpt lat="44.19393202287773" lon="10.153749056359901"><ele>243.0</ele><time>2026-04-26T16:21:52.906Z</time></trkpt><trkpt lat="44.19397556840956" lon="10.153601353667081"><ele>242.5</ele><time>2026-04-26T16:21:53.906Z</time></trkpt><trkpt lat="44.194002006306214" lon="10.15342337027864"><ele>242.0</ele><time>2026-04-26T16:21:54.905Z</time></trkpt><trkpt lat="44.19402291055033" lon="10.15324496019792"><ele>242.0</ele><time>2026-04-26T16:21:55.905Z</time></trkpt><trkpt lat="44.19403371530348" lon="10.153067769799621"><ele>242.0</ele><time>2026-04-26T16:21:56.905Z</time></trkpt><trkpt lat="44.194021263261995" lon="10.1528917983137"><ele>242.0</ele><time>2026-04-26T16:21:57.905Z</time></trkpt><trkpt lat="44.19399105849524" lon="10.15271990603548"><ele>242.0</ele><time>2026-04-26T16:21:58.905Z</time></trkpt><trkpt lat="44.19393988619183" lon="10.152537834657036"><ele>242.25</ele><time>2026-04-26T16:21:59.905Z</time></trkpt><trkpt lat="44.193888915894526" lon="10.152362790549333"><ele>242.5</ele><time>2026-04-26T16:22:00.905Z</time></trkpt><trkpt lat="44.19384249731902" lon="10.152200798194256"><ele>242.75</ele><time>2026-04-26T16:22:01.905Z</time></trkpt><trkpt lat="44.19379587831166" lon="10.15204145488141"><ele>243.0</ele><time>2026-04-26T16:22:02.905Z</time></trkpt><trkpt lat="44.19375210527805" lon="10.151878525531812"><ele>243.0</ele><time>2026-04-26T16:22:03.905Z</time></trkpt><trkpt lat="44.19370479782163" lon="10.151716050245096"><ele>243.0</ele><time>2026-04-26T16:22:04.905Z</time></trkpt><trkpt lat="44.19365571832048" lon="10.151555019885361"><ele>243.0</ele><time>2026-04-26T16:22:05.905Z</time></trkpt><trkpt lat="44.19360850793725" lon="10.151399974527463"><ele>243.0</ele><time>2026-04-26T16:22:06.905Z</time></trkpt><trkpt lat="44.19356380553712" lon="10.15125249732343"><ele>244.0</ele><time>2026-04-26T16:22:07.905Z</time></trkpt><trkpt lat="44.193503159970696" lon="10.151105618295597"><ele>245.0</ele><time>2026-04-26T16:22:08.905Z</time></trkpt><trkpt lat="44.19342357771501" lon="10.150974555598388"><ele>246.0</ele><time>2026-04-26T16:22:09.905Z</time></trkpt><trkpt lat="44.19333060837321" lon="10.150847788434456"><ele>247.0</ele><time>2026-04-26T16:22:10.905Z</time></trkpt><trkpt lat="44.19324282553697" lon="10.150728786325399"><ele>245.6</ele><time>2026-04-26T16:22:11.905Z</time></trkpt><trkpt lat="44.19315940561424" lon="10.150626040443102"><ele>244.2</ele><time>2026-04-26T16:22:12.905Z</time></trkpt><trkpt lat="44.193079639148465" lon="10.150516578065691"><ele>242.8</ele><time>2026-04-26T16:22:13.905Z</time></trkpt><trkpt lat="44.19299765598654" lon="10.15042265778924"><ele>241.4</ele><time>2026-04-26T16:22:14.905Z</time></trkpt><trkpt lat="44.19293647294939" lon="10.15031697042306"><ele>240.0</ele><time>2026-04-26T16:22:15.905Z</time></trkpt><trkpt lat="44.19288048225443" lon="10.150189945940712"><ele>240.0</ele><time>2026-04-26T16:22:16.905Z</time></trkpt><trkpt lat="44.192844364052064" lon="10.150036138068804"><ele>240.0</ele><time>2026-04-26T16:22:17.905Z</time></trkpt><trkpt lat="44.19280747580283" lon="10.149890727539946"><ele>240.0</ele><time>2026-04-26T16:22:18.905Z</time></trkpt><trkpt lat="44.19275817837009" lon="10.149773340363351"><ele>240.0</ele><time>2026-04-26T16:22:19.905Z</time></trkpt><trkpt lat="44.192695612431" lon="10.1496603058787"><ele>240.0</ele><time>2026-04-26T16:22:20.905Z</time></trkpt><trkpt lat="44.19263654333393" lon="10.149533855538522"><ele>241.4</ele><time>2026-04-26T16:22:21.905Z</time></trkpt><trkpt lat="44.19257158172848" lon="10.149414826621635"><ele>242.8</ele><time>2026-04-26T16:22:22.905Z</time></trkpt><trkpt lat="44.19251919195743" lon="10.14929629736962"><ele>244.2</ele><time>2026-04-26T16:22:23.905Z</time></trkpt><trkpt lat="44.19247495468255" lon="10.14917090265143"><ele>245.6</ele><time>2026-04-26T16:22:24.905Z</time></trkpt><trkpt lat="44.192447673077766" lon="10.149026187361066"><ele>247.0</ele><time>2026-04-26T16:22:25.905Z</time></trkpt><trkpt lat="44.19243559124972" lon="10.14887676285211"><ele>249.0</ele><time>2026-04-26T16:22:26.905Z</time></trkpt><trkpt lat="44.19243683818534" lon="10.148725389348895"><ele>251.0</ele><time>2026-04-26T16:22:27.905Z</time></trkpt><trkpt lat="44.1924412586591" lon="10.14856823030523"><ele>253.0</ele><time>2026-04-26T16:22:28.905Z</time></trkpt><trkpt lat="44.19244090493077" lon="10.148405043762416"><ele>255.0</ele><time>2026-04-26T16:22:29.905Z</time></trkpt><trkpt lat="44.19242269913747" lon="10.148240961175963"><ele>257.25</ele><time>2026-04-26T16:22:30.905Z</time></trkpt><trkpt lat="44.192390638584634" lon="10.148066741355382"><ele>259.5</ele><time>2026-04-26T16:22:31.905Z</time></trkpt><trkpt lat="44.19233149646646" lon="10.147905756075906"><ele>261.75</ele><time>2026-04-26T16:22:32.905Z</time></trkpt><trkpt lat="44.1922774941535" lon="10.147746418273352"><ele>264.0</ele><time>2026-04-26T16:22:33.905Z</time></trkpt><trkpt lat="44.19222039965784" lon="10.14758749243116"><ele>257.5</ele><time>2026-04-26T16:22:34.905Z</time></trkpt><trkpt lat="44.19215923966978" lon="10.147436985592881"><ele>251.0</ele><time>2026-04-26T16:22:35.905Z</time></trkpt><trkpt lat="44.1921053828584" lon="10.147284036427104"><ele>244.5</ele><time>2026-04-26T16:22:36.905Z</time></trkpt><trkpt lat="44.19205970025073" lon="10.147132283025005"><ele>238.0</ele><time>2026-04-26T16:22:37.905Z</time></trkpt><trkpt lat="44.19201288588892" lon="10.146984026024548"><ele>238.0</ele><time>2026-04-26T16:22:38.905Z</time></trkpt><trkpt lat="44.191940027151695" lon="10.146856431139533"><ele>238.0</ele><time>2026-04-26T16:22:39.905Z</time></trkpt><trkpt lat="44.19184789137668" lon="10.146749032196356"><ele>238.0</ele><time>2026-04-26T16:22:40.905Z</time></trkpt><trkpt lat="44.19174428669817" lon="10.14666196363012"><ele>238.0</ele><time>2026-04-26T16:22:41.905Z</time></trkpt><trkpt lat="44.19163688038029" lon="10.146595485973299"><ele>238.0</ele><time>2026-04-26T16:22:42.905Z</time></trkpt><trkpt lat="44.191543900204216" lon="10.146558243329807"><ele>238.0</ele><time>2026-04-26T16:22:43.905Z</time></trkpt><trkpt lat="44.19145575276838" lon="10.146524612842455"><ele>238.0</ele><time>2026-04-26T16:22:44.905Z</time></trkpt><trkpt lat="44.19138625075353" lon="10.146448763789161"><ele>238.0</ele><time>2026-04-26T16:22:45.905Z</time></trkpt><trkpt lat="44.19132303567498" lon="10.146328107345818"><ele>238.0</ele><time>2026-04-26T16:22:46.905Z</time></trkpt><trkpt lat="44.191271821275336" lon="10.146165076298857"><ele>237.5</ele><time>2026-04-26T16:22:47.905Z</time></trkpt><trkpt lat="44.191226807164995" lon="10.145985199224219"><ele>237.0</ele><time>2026-04-26T16:22:48.905Z</time></trkpt><trkpt lat="44.191179162627" lon="10.14580946447149"><ele>236.5</ele><time>2026-04-26T16:22:49.905Z</time></trkpt><trkpt lat="44.1911149638634" lon="10.14564975170352"><ele>236.0</ele><time>2026-04-26T16:22:50.905Z</time></trkpt><trkpt lat="44.191051656948126" lon="10.1454886613273"><ele>236.0</ele><time>2026-04-26T16:22:51.905Z</time></trkpt><trkpt lat="44.19100090063954" lon="10.145313481023841"><ele>236.0</ele><time>2026-04-26T16:22:52.905Z</time></trkpt><trkpt lat="44.19094908910302" lon="10.145138354982139"><ele>236.0</ele><time>2026-04-26T16:22:53.905Z</time></trkpt><trkpt lat="44.19090587595781" lon="10.144958755063808"><ele>236.0</ele><time>2026-04-26T16:22:54.905Z</time></trkpt><trkpt lat="44.190861348319544" lon="10.144802324477658"><ele>234.0</ele><time>2026-04-26T16:22:55.905Z</time></trkpt><trkpt lat="44.190826231224904" lon="10.14465375115895"><ele>232.0</ele><time>2026-04-26T16:22:56.905Z</time></trkpt><trkpt lat="44.19079146051504" lon="10.144505567692434"><ele>230.0</ele><time>2026-04-26T16:22:57.905Z</time></trkpt><trkpt lat="44.19073441155116" lon="10.144364490782882"><ele>228.0</ele><time>2026-04-26T16:22:58.905Z</time></trkpt><trkpt lat="44.19065228834872" lon="10.144244022612465"><ele>228.0</ele><time>2026-04-26T16:22:59.905Z</time></trkpt><trkpt lat="44.19054776812985" lon="10.144142871226105"><ele>228.0</ele><time>2026-04-26T16:23:00.905Z</time></trkpt><trkpt lat="44.19043271046227" lon="10.1440418511618"><ele>228.0</ele><time>2026-04-26T16:23:01.905Z</time></trkpt><trkpt lat="44.19034142913103" lon="10.143958346277886"><ele>228.0</ele><time>2026-04-26T16:23:02.905Z</time></trkpt><trkpt lat="44.190269780449135" lon="10.143850987134822"><ele>228.75</ele><time>2026-04-26T16:23:03.905Z</time></trkpt><trkpt lat="44.190204948061435" lon="10.143735180557874"><ele>229.5</ele><time>2026-04-26T16:23:04.905Z</time></trkpt><trkpt lat="44.19014036557241" lon="10.143610182066999"><ele>230.25</ele><time>2026-04-26T16:23:05.905Z</time></trkpt><trkpt lat="44.190098005483414" lon="10.143449112011112"><ele>231.0</ele><time>2026-04-26T16:23:06.905Z</time></trkpt><trkpt lat="44.190063218761885" lon="10.143289827048822"><ele>231.5</ele><time>2026-04-26T16:23:07.905Z</time></trkpt><trkpt lat="44.190033654988724" lon="10.143136660410232"><ele>232.0</ele><time>2026-04-26T16:23:08.905Z</time></trkpt><trkpt lat="44.19001856816255" lon="10.14298824869608"><ele>232.5</ele><time>2026-04-26T16:23:09.905Z</time></trkpt><trkpt lat="44.19002582254969" lon="10.142820464420364"><ele>233.0</ele><time>2026-04-26T16:23:10.905Z</time></trkpt><trkpt lat="44.19003645621618" lon="10.142646436507954"><ele>233.0</ele><time>2026-04-26T16:23:11.905Z</time></trkpt><trkpt lat="44.19005597971207" lon="10.142472804041299"><ele>233.0</ele><time>2026-04-26T16:23:12.905Z</time></trkpt><trkpt lat="44.190057379355004" lon="10.142310853208357"><ele>233.0</ele><time>2026-04-26T16:23:13.905Z</time></trkpt><trkpt lat="44.190048815634796" lon="10.14215749916061"><ele>233.0</ele><time>2026-04-26T16:23:14.905Z</time></trkpt><trkpt lat="44.19002094291755" lon="10.14200466654903"><ele>233.8</ele><time>2026-04-26T16:23:15.905Z</time></trkpt><trkpt lat="44.18996411906898" lon="10.141865866535621"><ele>234.60000000000002</ele><time>2026-04-26T16:23:16.905Z</time></trkpt><trkpt lat="44.18990451961224" lon="10.141742915345871"><ele>235.39999999999998</ele><time>2026-04-26T16:23:17.905Z</time></trkpt><trkpt lat="44.189839278506895" lon="10.141624905564672"><ele>236.2</ele><time>2026-04-26T16:23:18.905Z</time></trkpt><trkpt lat="44.189771689158526" lon="10.141513221116972"><ele>237.0</ele><time>2026-04-26T16:23:19.905Z</time></trkpt><trkpt lat="44.18973094601257" lon="10.141372276243114"><ele>233.5</ele><time>2026-04-26T16:23:20.905Z</time></trkpt><trkpt lat="44.189714645731584" lon="10.14119717103799"><ele>230.0</ele><time>2026-04-26T16:23:21.905Z</time></trkpt><trkpt lat="44.18969820806161" lon="10.141022372068347"><ele>226.5</ele><time>2026-04-26T16:23:22.905Z</time></trkpt><trkpt lat="44.189674630915775" lon="10.140844876731073"><ele>223.0</ele><time>2026-04-26T16:23:23.905Z</time></trkpt><trkpt lat="44.189657759189615" lon="10.140675644925038"><ele>223.0</ele><time>2026-04-26T16:23:24.905Z</time></trkpt><trkpt lat="44.189630568097265" lon="10.14050593925314"><ele>223.0</ele><time>2026-04-26T16:23:25.905Z</time></trkpt><trkpt lat="44.18960463935397" lon="10.14034424504882"><ele>223.0</ele><time>2026-04-26T16:23:26.905Z</time></trkpt><trkpt lat="44.18957108176686" lon="10.140195576355586"><ele>223.0</ele><time>2026-04-26T16:23:27.905Z</time></trkpt><trkpt lat="44.18952054008226" lon="10.140061743449314"><ele>223.0</ele><time>2026-04-26T16:23:28.905Z</time></trkpt><trkpt lat="44.189446164167606" lon="10.139947730266517"><ele>223.0</ele><time>2026-04-26T16:23:29.905Z</time></trkpt><trkpt lat="44.18934101172859" lon="10.139842439363717"><ele>223.0</ele><time>2026-04-26T16:23:30.905Z</time></trkpt><trkpt lat="44.18923938700176" lon="10.139716607339139"><ele>223.0</ele><time>2026-04-26T16:23:31.905Z</time></trkpt><trkpt lat="44.189152084577636" lon="10.13959712499557"><ele>222.0</ele><time>2026-04-26T16:23:32.905Z</time></trkpt><trkpt lat="44.18907889873104" lon="10.139485080702427"><ele>221.0</ele><time>2026-04-26T16:23:33.905Z</time></trkpt><trkpt lat="44.18901100557774" lon="10.139373880190488"><ele>220.0</ele><time>2026-04-26T16:23:34.905Z</time></trkpt><trkpt lat="44.18894128653116" lon="10.13925872212851"><ele>219.0</ele><time>2026-04-26T16:23:35.905Z</time></trkpt><trkpt lat="44.18888300873511" lon="10.139111436234918"><ele>218.0</ele><time>2026-04-26T16:23:36.905Z</time></trkpt><trkpt lat="44.18885743727198" lon="10.1389437919273"><ele>218.0</ele><time>2026-04-26T16:23:37.905Z</time></trkpt><trkpt lat="44.18884876438797" lon="10.138779242118241"><ele>218.0</ele><time>2026-04-26T16:23:38.905Z</time></trkpt><trkpt lat="44.188855528215235" lon="10.138611687945055"><ele>218.0</ele><time>2026-04-26T16:23:39.905Z</time></trkpt><trkpt lat="44.18887691054451" lon="10.138449895530014"><ele>218.0</ele><time>2026-04-26T16:23:40.905Z</time></trkpt><trkpt lat="44.18890069545164" lon="10.138286887140243"><ele>217.5</ele><time>2026-04-26T16:23:41.905Z</time></trkpt><trkpt lat="44.18893287655696" lon="10.138123008738797"><ele>217.0</ele><time>2026-04-26T16:23:42.905Z</time></trkpt><trkpt lat="44.18896844586779" lon="10.137960747571464"><ele>216.5</ele><time>2026-04-26T16:23:43.905Z</time></trkpt><trkpt lat="44.18899953593725" lon="10.137797330751322"><ele>216.0</ele><time>2026-04-26T16:23:44.905Z</time></trkpt><trkpt lat="44.189045984163215" lon="10.137632936150561"><ele>217.20000000000002</ele><time>2026-04-26T16:23:45.905Z</time></trkpt><trkpt lat="44.18909322713876" lon="10.1374922473635"><ele>218.40000000000003</ele><time>2026-04-26T16:23:46.905Z</time></trkpt><trkpt lat="44.189137678468406" lon="10.13734958341502"><ele>219.6</ele><time>2026-04-26T16:23:47.905Z</time></trkpt><trkpt lat="44.189183419986925" lon="10.137215836420665"><ele>220.8</ele><time>2026-04-26T16:23:48.905Z</time></trkpt><trkpt lat="44.18921894562866" lon="10.137069333573638"><ele>222.0</ele><time>2026-04-26T16:23:49.905Z</time></trkpt><trkpt lat="44.189235363781755" lon="10.136936756346863"><ele>222.0</ele><time>2026-04-26T16:23:50.905Z</time></trkpt><trkpt lat="44.1892323781872" lon="10.136795511737567"><ele>222.0</ele><time>2026-04-26T16:23:51.905Z</time></trkpt><trkpt lat="44.18919623480374" lon="10.136628231326645"><ele>222.0</ele><time>2026-04-26T16:23:52.905Z</time></trkpt><trkpt lat="44.1891780034016" lon="10.136462231665359"><ele>222.0</ele><time>2026-04-26T16:23:53.905Z</time></trkpt><trkpt lat="44.18919784228461" lon="10.136315804076563"><ele>221.0</ele><time>2026-04-26T16:23:54.905Z</time></trkpt><trkpt lat="44.18923249159523" lon="10.136157480335669"><ele>220.0</ele><time>2026-04-26T16:23:55.905Z</time></trkpt><trkpt lat="44.1892928156964" lon="10.135991414751667"><ele>219.0</ele><time>2026-04-26T16:23:56.905Z</time></trkpt><trkpt lat="44.189352625748306" lon="10.13582560081153"><ele>218.0</ele><time>2026-04-26T16:23:57.905Z</time></trkpt><trkpt lat="44.18941158261341" lon="10.135665682237137"><ele>216.25</ele><time>2026-04-26T16:23:58.905Z</time></trkpt><trkpt lat="44.189454086944295" lon="10.135509721291447"><ele>214.5</ele><time>2026-04-26T16:23:59.905Z</time></trkpt><trkpt lat="44.189484886361505" lon="10.135349534218593"><ele>212.75</ele><time>2026-04-26T16:24:00.904Z</time></trkpt><trkpt lat="44.189484345118956" lon="10.135166033556315"><ele>211.0</ele><time>2026-04-26T16:24:01.905Z</time></trkpt><trkpt lat="44.18949202294381" lon="10.134992682315525"><ele>211.5</ele><time>2026-04-26T16:24:02.905Z</time></trkpt><trkpt lat="44.18952185600438" lon="10.134839805318654"><ele>212.0</ele><time>2026-04-26T16:24:03.905Z</time></trkpt><trkpt lat="44.18958186998734" lon="10.134715363941625"><ele>212.5</ele><time>2026-04-26T16:24:04.904Z</time></trkpt><trkpt lat="44.18965364508068" lon="10.13459614565697"><ele>213.0</ele><time>2026-04-26T16:24:05.904Z</time></trkpt><trkpt lat="44.18974033419422" lon="10.134468734736362"><ele>213.0</ele><time>2026-04-26T16:24:06.904Z</time></trkpt><trkpt lat="44.18984007413938" lon="10.134329237426886"><ele>213.0</ele><time>2026-04-26T16:24:07.905Z</time></trkpt><trkpt lat="44.18993664290691" lon="10.134189746953176"><ele>213.0</ele><time>2026-04-26T16:24:08.905Z</time></trkpt><trkpt lat="44.190024583136285" lon="10.134050373841891"><ele>213.0</ele><time>2026-04-26T16:24:09.904Z</time></trkpt><trkpt lat="44.1901095537466" lon="10.133926371858813"><ele>211.75</ele><time>2026-04-26T16:24:10.905Z</time></trkpt><trkpt lat="44.19021525750009" lon="10.13382227322043"><ele>210.5</ele><time>2026-04-26T16:24:11.905Z</time></trkpt><trkpt lat="44.19032761472559" lon="10.13375825930699"><ele>209.25</ele><time>2026-04-26T16:24:12.905Z</time></trkpt><trkpt lat="44.19045692342452" lon="10.133701552263433"><ele>208.0</ele><time>2026-04-26T16:24:13.905Z</time></trkpt><trkpt lat="44.19059015101531" lon="10.133681533468753"><ele>209.75</ele><time>2026-04-26T16:24:14.905Z</time></trkpt><trkpt lat="44.19072188768842" lon="10.133668446497591"><ele>211.5</ele><time>2026-04-26T16:24:15.905Z</time></trkpt><trkpt lat="44.19085402961145" lon="10.133641821566778"><ele>213.25</ele><time>2026-04-26T16:24:16.905Z</time></trkpt><trkpt lat="44.19097711725987" lon="10.133622519722364"><ele>215.0</ele><time>2026-04-26T16:24:17.905Z</time></trkpt><trkpt lat="44.191088988125" lon="10.13358521950749"><ele>215.0</ele><time>2026-04-26T16:24:18.905Z</time></trkpt><trkpt lat="44.1911900981035" lon="10.13349446331622"><ele>215.0</ele><time>2026-04-26T16:24:19.905Z</time></trkpt><trkpt lat="44.19127605076595" lon="10.133349412037303"><ele>215.0</ele><time>2026-04-26T16:24:20.905Z</time></trkpt><trkpt lat="44.19137058742059" lon="10.133175129526736"><ele>215.0</ele><time>2026-04-26T16:24:21.905Z</time></trkpt><trkpt lat="44.191465502757325" lon="10.133038732537464"><ele>214.75</ele><time>2026-04-26T16:24:22.905Z</time></trkpt><trkpt lat="44.19156046955507" lon="10.132900492209899"><ele>214.5</ele><time>2026-04-26T16:24:23.905Z</time></trkpt><trkpt lat="44.19162824290544" lon="10.132743272652021"><ele>214.25</ele><time>2026-04-26T16:24:24.905Z</time></trkpt><trkpt lat="44.191691199022365" lon="10.13256455366247"><ele>214.0</ele><time>2026-04-26T16:24:25.905Z</time></trkpt><trkpt lat="44.19175760484578" lon="10.132388697154628"><ele>210.75</ele><time>2026-04-26T16:24:26.905Z</time></trkpt><trkpt lat="44.191821966280415" lon="10.132248661098773"><ele>207.5</ele><time>2026-04-26T16:24:27.905Z</time></trkpt><trkpt lat="44.1919011909881" lon="10.132125413237318"><ele>204.25</ele><time>2026-04-26T16:24:28.905Z</time></trkpt><trkpt lat="44.192002829420325" lon="10.132011418028782"><ele>201.0</ele><time>2026-04-26T16:24:29.905Z</time></trkpt><trkpt lat="44.19211288251152" lon="10.131900556133541"><ele>201.0</ele><time>2026-04-26T16:24:30.905Z</time></trkpt><trkpt lat="44.19220607492551" lon="10.131750812278483"><ele>201.0</ele><time>2026-04-26T16:24:31.905Z</time></trkpt><trkpt lat="44.192279660464294" lon="10.131576250215613"><ele>201.0</ele><time>2026-04-26T16:24:32.905Z</time></trkpt><trkpt lat="44.192349714250454" lon="10.131389391700433"><ele>201.0</ele><time>2026-04-26T16:24:33.905Z</time></trkpt><trkpt lat="44.192421606843574" lon="10.131205292152316"><ele>200.0</ele><time>2026-04-26T16:24:34.905Z</time></trkpt><trkpt lat="44.1924934810849" lon="10.131018701019395"><ele>199.0</ele><time>2026-04-26T16:24:35.905Z</time></trkpt><trkpt lat="44.19257190875787" lon="10.130854353164526"><ele>198.0</ele><time>2026-04-26T16:24:36.905Z</time></trkpt><trkpt lat="44.19264967398231" lon="10.130712759500504"><ele>197.0</ele><time>2026-04-26T16:24:37.905Z</time></trkpt><trkpt lat="44.19273968737987" lon="10.130572027007904"><ele>197.0</ele><time>2026-04-26T16:24:38.905Z</time></trkpt><trkpt lat="44.192847208364135" lon="10.130440296595388"><ele>197.0</ele><time>2026-04-26T16:24:39.905Z</time></trkpt><trkpt lat="44.19295991350757" lon="10.130310552922941"><ele>197.0</ele><time>2026-04-26T16:24:40.905Z</time></trkpt><trkpt lat="44.193061403358804" lon="10.130193052516809"><ele>197.0</ele><time>2026-04-26T16:24:41.905Z</time></trkpt><trkpt lat="44.19315783244107" lon="10.130082468166478"><ele>196.5</ele><time>2026-04-26T16:24:42.905Z</time></trkpt><trkpt lat="44.19325874375524" lon="10.129981705549833"><ele>196.0</ele><time>2026-04-26T16:24:43.905Z</time></trkpt><trkpt lat="44.19335991656581" lon="10.129898158314454"><ele>195.5</ele><time>2026-04-26T16:24:44.905Z</time></trkpt><trkpt lat="44.19346204543518" lon="10.129829284501325"><ele>195.0</ele><time>2026-04-26T16:24:45.905Z</time></trkpt><trkpt lat="44.19355519176852" lon="10.129761992569337"><ele>195.0</ele><time>2026-04-26T16:24:46.905Z</time></trkpt><trkpt lat="44.19364309204204" lon="10.129724684779873"><ele>195.0</ele><time>2026-04-26T16:24:47.905Z</time></trkpt><trkpt lat="44.193742230247445" lon="10.129710472385238"><ele>195.0</ele><time>2026-04-26T16:24:48.905Z</time></trkpt><trkpt lat="44.19384264621859" lon="10.129731264328013"><ele>195.0</ele><time>2026-04-26T16:24:49.905Z</time></trkpt><trkpt lat="44.19394772534638" lon="10.129796669603635"><ele>195.0</ele><time>2026-04-26T16:24:50.905Z</time></trkpt><trkpt lat="44.194052839630835" lon="10.129890128272622"><ele>197.4</ele><time>2026-04-26T16:24:51.905Z</time></trkpt><trkpt lat="44.19415164591894" lon="10.129983262199346"><ele>199.8</ele><time>2026-04-26T16:24:52.905Z</time></trkpt><trkpt lat="44.19424224465878" lon="10.130052714996307"><ele>202.2</ele><time>2026-04-26T16:24:53.905Z</time></trkpt><trkpt lat="44.194340682946425" lon="10.130086330642845"><ele>204.6</ele><time>2026-04-26T16:24:54.905Z</time></trkpt><trkpt lat="44.194423904378844" lon="10.130047602165094"><ele>207.0</ele><time>2026-04-26T16:24:55.905Z</time></trkpt><trkpt lat="44.1945161887961" lon="10.129953478960333"><ele>207.25</ele><time>2026-04-26T16:24:56.905Z</time></trkpt><trkpt lat="44.19462115134622" lon="10.129851776327353"><ele>207.5</ele><time>2026-04-26T16:24:57.905Z</time></trkpt><trkpt lat="44.19472906100858" lon="10.129760799254433"><ele>207.75</ele><time>2026-04-26T16:24:58.905Z</time></trkpt><trkpt lat="44.194823977399295" lon="10.129667346217046"><ele>208.0</ele><time>2026-04-26T16:24:59.905Z</time></trkpt><trkpt lat="44.19489768828611" lon="10.129543301781197"><ele>208.0</ele><time>2026-04-26T16:25:00.905Z</time></trkpt><trkpt lat="44.19495037911314" lon="10.129395441094344"><ele>208.0</ele><time>2026-04-26T16:25:01.905Z</time></trkpt><trkpt lat="44.19497075444156" lon="10.129237569342562"><ele>208.0</ele><time>2026-04-26T16:25:02.905Z</time></trkpt><trkpt lat="44.19496839918934" lon="10.12906773167807"><ele>208.0</ele><time>2026-04-26T16:25:03.905Z</time></trkpt><trkpt lat="44.19495538605255" lon="10.128885678323673"><ele>207.25</ele><time>2026-04-26T16:25:04.905Z</time></trkpt><trkpt lat="44.19495473890985" lon="10.128709509080982"><ele>206.5</ele><time>2026-04-26T16:25:05.905Z</time></trkpt><trkpt lat="44.19496762273424" lon="10.128540978162986"><ele>205.75</ele><time>2026-04-26T16:25:06.905Z</time></trkpt><trkpt lat="44.19499155476641" lon="10.128362226111953"><ele>205.0</ele><time>2026-04-26T16:25:07.905Z</time></trkpt><trkpt lat="44.195015741085456" lon="10.128177485472392"><ele>203.25</ele><time>2026-04-26T16:25:08.905Z</time></trkpt><trkpt lat="44.19504336804267" lon="10.127993417420841"><ele>201.5</ele><time>2026-04-26T16:25:09.905Z</time></trkpt><trkpt lat="44.1950652527246" lon="10.127808331598029"><ele>199.75</ele><time>2026-04-26T16:25:10.905Z</time></trkpt><trkpt lat="44.19507382426302" lon="10.12763275236676"><ele>198.0</ele><time>2026-04-26T16:25:11.905Z</time></trkpt><trkpt lat="44.195062196605534" lon="10.127468902475337"><ele>197.0</ele><time>2026-04-26T16:25:12.905Z</time></trkpt><trkpt lat="44.195030472136764" lon="10.127319180534034"><ele>196.0</ele><time>2026-04-26T16:25:13.905Z</time></trkpt><trkpt lat="44.195019645937144" lon="10.127169204261765"><ele>195.0</ele><time>2026-04-26T16:25:14.905Z</time></trkpt><trkpt lat="44.19503932135539" lon="10.127018473840396"><ele>194.0</ele><time>2026-04-26T16:25:15.905Z</time></trkpt><trkpt lat="44.195093061973374" lon="10.126889165341968"><ele>193.0</ele><time>2026-04-26T16:25:16.905Z</time></trkpt><trkpt lat="44.19519240082431" lon="10.12675656974764"><ele>193.0</ele><time>2026-04-26T16:25:17.905Z</time></trkpt><trkpt lat="44.195297030781695" lon="10.126625383418066"><ele>193.0</ele><time>2026-04-26T16:25:18.905Z</time></trkpt><trkpt lat="44.19541357564795" lon="10.126493101074935"><ele>193.0</ele><time>2026-04-26T16:25:19.905Z</time></trkpt><trkpt lat="44.19552629874916" lon="10.12635647608996"><ele>193.0</ele><time>2026-04-26T16:25:20.905Z</time></trkpt><trkpt lat="44.195632157486294" lon="10.126204390297511"><ele>191.0</ele><time>2026-04-26T16:25:21.905Z</time></trkpt><trkpt lat="44.195732735216254" lon="10.126042085850257"><ele>189.0</ele><time>2026-04-26T16:25:22.905Z</time></trkpt><trkpt lat="44.195825664727444" lon="10.125872572004816"><ele>187.0</ele><time>2026-04-26T16:25:23.905Z</time></trkpt><trkpt lat="44.19591985538368" lon="10.125711643357542"><ele>187.0</ele><time>2026-04-26T16:25:24.905Z</time></trkpt><trkpt lat="44.19601075694002" lon="10.1255462605404"><ele>187.0</ele><time>2026-04-26T16:25:25.905Z</time></trkpt><trkpt lat="44.19610368412512" lon="10.125396337664922"><ele>187.0</ele><time>2026-04-26T16:25:26.905Z</time></trkpt><trkpt lat="44.196195630513415" lon="10.125237485314116"><ele>187.0</ele><time>2026-04-26T16:25:27.905Z</time></trkpt><trkpt lat="44.196280399702964" lon="10.125085547651352"><ele>187.0</ele><time>2026-04-26T16:25:28.905Z</time></trkpt><trkpt lat="44.19636483687708" lon="10.124964081878048"><ele>187.0</ele><time>2026-04-26T16:25:29.905Z</time></trkpt><trkpt lat="44.196449040282495" lon="10.12485674065361"><ele>187.0</ele><time>2026-04-26T16:25:30.905Z</time></trkpt><trkpt lat="44.196530611155964" lon="10.1247643409076"><ele>187.0</ele><time>2026-04-26T16:25:31.905Z</time></trkpt><trkpt lat="44.19663009934277" lon="10.124701221777643"><ele>186.25</ele><time>2026-04-26T16:25:32.905Z</time></trkpt><trkpt lat="44.196747059264375" lon="10.124659351299501"><ele>185.5</ele><time>2026-04-26T16:25:33.905Z</time></trkpt><trkpt lat="44.196872761546395" lon="10.124656034776773"><ele>184.75</ele><time>2026-04-26T16:25:34.905Z</time></trkpt><trkpt lat="44.19699194152349" lon="10.124636479163785"><ele>184.0</ele><time>2026-04-26T16:25:35.905Z</time></trkpt><trkpt lat="44.19710565768627" lon="10.124608855388214"><ele>184.0</ele><time>2026-04-26T16:25:36.905Z</time></trkpt><trkpt lat="44.19722324243157" lon="10.124556434557311"><ele>184.0</ele><time>2026-04-26T16:25:37.905Z</time></trkpt><trkpt lat="44.19732722675746" lon="10.12446909126393"><ele>184.0</ele><time>2026-04-26T16:25:38.905Z</time></trkpt><trkpt lat="44.1974269702869" lon="10.124351117367567"><ele>184.0</ele><time>2026-04-26T16:25:39.905Z</time></trkpt><trkpt lat="44.197523723408025" lon="10.124224285181935"><ele>184.25</ele><time>2026-04-26T16:25:40.905Z</time></trkpt><trkpt lat="44.197620225099605" lon="10.124100216432815"><ele>184.5</ele><time>2026-04-26T16:25:41.905Z</time></trkpt><trkpt lat="44.197713525225275" lon="10.123978391761016"><ele>184.75</ele><time>2026-04-26T16:25:42.905Z</time></trkpt><trkpt lat="44.197803232140636" lon="10.123862846929992"><ele>185.0</ele><time>2026-04-26T16:25:43.905Z</time></trkpt><trkpt lat="44.19789076545421" lon="10.123749032208488"><ele>185.0</ele><time>2026-04-26T16:25:44.905Z</time></trkpt><trkpt lat="44.19797724472484" lon="10.123646049192615"><ele>185.0</ele><time>2026-04-26T16:25:45.905Z</time></trkpt><trkpt lat="44.198051261242966" lon="10.123523804138998"><ele>185.0</ele><time>2026-04-26T16:25:46.905Z</time></trkpt><trkpt lat="44.19810524226198" lon="10.123377821721377"><ele>185.0</ele><time>2026-04-26T16:25:47.905Z</time></trkpt><trkpt lat="44.198143832170814" lon="10.123210016353946"><ele>188.25</ele><time>2026-04-26T16:25:48.905Z</time></trkpt><trkpt lat="44.198181126763004" lon="10.123030043758039"><ele>191.5</ele><time>2026-04-26T16:25:49.905Z</time></trkpt><trkpt lat="44.19821762064007" lon="10.122831668890797"><ele>194.75</ele><time>2026-04-26T16:25:50.905Z</time></trkpt><trkpt lat="44.19826341841572" lon="10.122649977245262"><ele>198.0</ele><time>2026-04-26T16:25:51.905Z</time></trkpt><trkpt lat="44.19831391448964" lon="10.122480414199318"><ele>198.0</ele><time>2026-04-26T16:25:52.905Z</time></trkpt><trkpt lat="44.19834066201657" lon="10.122299750506205"><ele>198.0</ele><time>2026-04-26T16:25:53.905Z</time></trkpt><trkpt lat="44.198356530366624" lon="10.122106162312841"><ele>198.0</ele><time>2026-04-26T16:25:54.905Z</time></trkpt><trkpt lat="44.19835829574972" lon="10.121912850882572"><ele>198.0</ele><time>2026-04-26T16:25:55.905Z</time></trkpt><trkpt lat="44.19835780848129" lon="10.121718290872167"><ele>197.75</ele><time>2026-04-26T16:25:56.905Z</time></trkpt><trkpt lat="44.19834879441457" lon="10.12151975445544"><ele>197.5</ele><time>2026-04-26T16:25:57.905Z</time></trkpt><trkpt lat="44.19832798234521" lon="10.1213287187798"><ele>197.25</ele><time>2026-04-26T16:25:58.905Z</time></trkpt><trkpt lat="44.19830411576687" lon="10.12114339042655"><ele>197.0</ele><time>2026-04-26T16:25:59.905Z</time></trkpt><trkpt lat="44.19827756801517" lon="10.12095011826431"><ele>197.0</ele><time>2026-04-26T16:26:00.905Z</time></trkpt><trkpt lat="44.198247128428385" lon="10.120750774267234"><ele>197.0</ele><time>2026-04-26T16:26:01.905Z</time></trkpt><trkpt lat="44.198228331671125" lon="10.120547780856047"><ele>197.0</ele><time>2026-04-26T16:26:02.905Z</time></trkpt><trkpt lat="44.19822176876172" lon="10.120346471572512"><ele>197.0</ele><time>2026-04-26T16:26:03.905Z</time></trkpt><trkpt lat="44.19819776403702" lon="10.120142434524393"><ele>195.5</ele><time>2026-04-26T16:26:04.905Z</time></trkpt><trkpt lat="44.19818486975398" lon="10.119936298461802"><ele>194.0</ele><time>2026-04-26T16:26:05.905Z</time></trkpt><trkpt lat="44.19818946923693" lon="10.119728997929212"><ele>192.5</ele><time>2026-04-26T16:26:06.904Z</time></trkpt><trkpt lat="44.198191183372614" lon="10.119534285461713"><ele>191.0</ele><time>2026-04-26T16:26:07.904Z</time></trkpt><trkpt lat="44.19815875418911" lon="10.119333097577874"><ele>187.75</ele><time>2026-04-26T16:26:08.904Z</time></trkpt><trkpt lat="44.19810093209095" lon="10.119137405678144"><ele>184.5</ele><time>2026-04-26T16:26:09.904Z</time></trkpt><trkpt lat="44.19805471733674" lon="10.118950883932087"><ele>181.25</ele><time>2026-04-26T16:26:10.903Z</time></trkpt><trkpt lat="44.19801364191972" lon="10.118752663828467"><ele>178.0</ele><time>2026-04-26T16:26:11.903Z</time></trkpt><trkpt lat="44.19797081825967" lon="10.11856128720301"><ele>177.75</ele><time>2026-04-26T16:26:12.903Z</time></trkpt><trkpt lat="44.19793182171453" lon="10.118373028659773"><ele>177.5</ele><time>2026-04-26T16:26:13.904Z</time></trkpt><trkpt lat="44.19788902776541" lon="10.118187282757376"><ele>177.25</ele><time>2026-04-26T16:26:14.904Z</time></trkpt><trkpt lat="44.19783674903959" lon="10.118010112480782"><ele>177.0</ele><time>2026-04-26T16:26:15.903Z</time></trkpt><trkpt lat="44.19775407930023" lon="10.117836389769007"><ele>180.33333333333334</ele><time>2026-04-26T16:26:16.904Z</time></trkpt><trkpt lat="44.197660560479086" lon="10.117686404226953"><ele>183.66666666666669</ele><time>2026-04-26T16:26:17.904Z</time></trkpt><trkpt lat="44.197543410362385" lon="10.117538426359095"><ele>187.0</ele><time>2026-04-26T16:26:18.904Z</time></trkpt><trkpt lat="44.197424088571175" lon="10.117382384298745"><ele>183.33333333333334</ele><time>2026-04-26T16:26:19.903Z</time></trkpt><trkpt lat="44.19731081249117" lon="10.117222906378126"><ele>179.66666666666666</ele><time>2026-04-26T16:26:20.903Z</time></trkpt><trkpt lat="44.19719861363913" lon="10.11706765044349"><ele>176.0</ele><time>2026-04-26T16:26:21.903Z</time></trkpt><trkpt lat="44.197096738851016" lon="10.116908981068594"><ele>176.0</ele><time>2026-04-26T16:26:22.903Z</time></trkpt><trkpt lat="44.19699758770107" lon="10.116751684114373"><ele>176.0</ele><time>2026-04-26T16:26:23.903Z</time></trkpt><trkpt lat="44.19689986515413" lon="10.11660148165006"><ele>176.0</ele><time>2026-04-26T16:26:24.903Z</time></trkpt><trkpt lat="44.196808602100376" lon="10.116449450910109"><ele>176.0</ele><time>2026-04-26T16:26:25.903Z</time></trkpt><trkpt lat="44.19673164633872" lon="10.116288739218518"><ele>179.33333333333331</ele><time>2026-04-26T16:26:26.903Z</time></trkpt><trkpt lat="44.19665508940798" lon="10.11610205373544"><ele>182.66666666666666</ele><time>2026-04-26T16:26:27.903Z</time></trkpt><trkpt lat="44.196589290597714" lon="10.115891640011952"><ele>186.0</ele><time>2026-04-26T16:26:28.903Z</time></trkpt><trkpt lat="44.19650416003282" lon="10.115731350948083"><ele>180.66666666666666</ele><time>2026-04-26T16:26:29.903Z</time></trkpt><trkpt lat="44.19642831076394" lon="10.11553891358919"><ele>175.33333333333331</ele><time>2026-04-26T16:26:30.903Z</time></trkpt><trkpt lat="44.19634968522455" lon="10.115353801007398"><ele>170.0</ele><time>2026-04-26T16:26:31.903Z</time></trkpt><trkpt lat="44.19627484035526" lon="10.115178926938084"><ele>170.0</ele><time>2026-04-26T16:26:32.903Z</time></trkpt><trkpt lat="44.19620783261505" lon="10.115018644443968"><ele>170.0</ele><time>2026-04-26T16:26:33.903Z</time></trkpt><trkpt lat="44.19614871937584" lon="10.114874448789966"><ele>170.0</ele><time>2026-04-26T16:26:34.903Z</time></trkpt><trkpt lat="44.19609002921983" lon="10.114730378483893"><ele>170.0</ele><time>2026-04-26T16:26:35.903Z</time></trkpt><trkpt lat="44.19602936716982" lon="10.114579182423034"><ele>172.0</ele><time>2026-04-26T16:26:36.903Z</time></trkpt><trkpt lat="44.195976585080444" lon="10.114429429535738"><ele>174.0</ele><time>2026-04-26T16:26:37.903Z</time></trkpt><trkpt lat="44.195934455144496" lon="10.114272411837998"><ele>176.0</ele><time>2026-04-26T16:26:38.903Z</time></trkpt><trkpt lat="44.195904907515384" lon="10.114103081004902"><ele>178.0</ele><time>2026-04-26T16:26:39.903Z</time></trkpt><trkpt lat="44.195877350322895" lon="10.113928688713795"><ele>180.25</ele><time>2026-04-26T16:26:40.903Z</time></trkpt><trkpt lat="44.19584330672623" lon="10.113758398761513"><ele>182.5</ele><time>2026-04-26T16:26:41.903Z</time></trkpt><trkpt lat="44.19580504938376" lon="10.113585128999677"><ele>184.75</ele><time>2026-04-26T16:26:42.903Z</time></trkpt><trkpt lat="44.19576736440965" lon="10.113409961162054"><ele>187.0</ele><time>2026-04-26T16:26:43.903Z</time></trkpt><trkpt lat="44.19573419516718" lon="10.113233354367049"><ele>188.5</ele><time>2026-04-26T16:26:44.903Z</time></trkpt><trkpt lat="44.195696944913315" lon="10.113061668533613"><ele>190.0</ele><time>2026-04-26T16:26:45.903Z</time></trkpt><trkpt lat="44.195650676151075" lon="10.112882528512394"><ele>191.5</ele><time>2026-04-26T16:26:46.903Z</time></trkpt><trkpt lat="44.19560184424086" lon="10.112700819083646"><ele>193.0</ele><time>2026-04-26T16:26:47.903Z</time></trkpt><trkpt lat="44.195570141684" lon="10.112509058851135"><ele>186.25</ele><time>2026-04-26T16:26:48.903Z</time></trkpt><trkpt lat="44.19553608643118" lon="10.11231543682836"><ele>179.5</ele><time>2026-04-26T16:26:49.903Z</time></trkpt><trkpt lat="44.19550452863932" lon="10.112119513443902"><ele>172.75</ele><time>2026-04-26T16:26:50.903Z</time></trkpt><trkpt lat="44.19549048399202" lon="10.111909819618004"><ele>166.0</ele><time>2026-04-26T16:26:51.903Z</time></trkpt><trkpt lat="44.19546636700525" lon="10.111717417521522"><ele>167.0</ele><time>2026-04-26T16:26:52.904Z</time></trkpt><trkpt lat="44.1954292122611" lon="10.111527943391621"><ele>168.0</ele><time>2026-04-26T16:26:53.904Z</time></trkpt><trkpt lat="44.19537791899711" lon="10.111349787718911"><ele>169.0</ele><time>2026-04-26T16:26:54.904Z</time></trkpt><trkpt lat="44.19530578466121" lon="10.111187660947659"><ele>170.0</ele><time>2026-04-26T16:26:55.904Z</time></trkpt><trkpt lat="44.19522543370209" lon="10.111040320959871"><ele>170.0</ele><time>2026-04-26T16:26:56.904Z</time></trkpt><trkpt lat="44.19515537152346" lon="10.110905740801973"><ele>170.0</ele><time>2026-04-26T16:26:57.904Z</time></trkpt><trkpt lat="44.19509999812531" lon="10.110766356146193"><ele>170.0</ele><time>2026-04-26T16:26:58.904Z</time></trkpt><trkpt lat="44.19506195549283" lon="10.110634217202819"><ele>170.0</ele><time>2026-04-26T16:26:59.904Z</time></trkpt><trkpt lat="44.19503860941974" lon="10.11050119241667"><ele>170.0</ele><time>2026-04-26T16:27:00.904Z</time></trkpt><trkpt lat="44.19503221820259" lon="10.110363767325335"><ele>169.0</ele><time>2026-04-26T16:27:01.904Z</time></trkpt><trkpt lat="44.195060100612" lon="10.110219212572948"><ele>168.0</ele><time>2026-04-26T16:27:02.904Z</time></trkpt><trkpt lat="44.19509796588861" lon="10.110075883754279"><ele>167.0</ele><time>2026-04-26T16:27:03.904Z</time></trkpt><trkpt lat="44.19513784256873" lon="10.10992897463403"><ele>166.0</ele><time>2026-04-26T16:27:04.904Z</time></trkpt><trkpt lat="44.19517851741875" lon="10.109765110268565"><ele>166.0</ele><time>2026-04-26T16:27:05.904Z</time></trkpt><trkpt lat="44.195211676398614" lon="10.109600464066796"><ele>166.0</ele><time>2026-04-26T16:27:06.904Z</time></trkpt><trkpt lat="44.19524512824907" lon="10.10944004297096"><ele>166.0</ele><time>2026-04-26T16:27:07.904Z</time></trkpt><trkpt lat="44.19528798787966" lon="10.109288222018813"><ele>166.0</ele><time>2026-04-26T16:27:08.904Z</time></trkpt><trkpt lat="44.19534261948819" lon="10.109138109981826"><ele>164.25</ele><time>2026-04-26T16:27:09.904Z</time></trkpt><trkpt lat="44.19540868787814" lon="10.10899333844299"><ele>162.5</ele><time>2026-04-26T16:27:10.904Z</time></trkpt><trkpt lat="44.19548266476916" lon="10.108858080689243"><ele>160.75</ele><time>2026-04-26T16:27:11.904Z</time></trkpt><trkpt lat="44.19556017044986" lon="10.108724938356264"><ele>159.0</ele><time>2026-04-26T16:27:12.904Z</time></trkpt><trkpt lat="44.19563758537367" lon="10.108587536943029"><ele>159.25</ele><time>2026-04-26T16:27:13.904Z</time></trkpt><trkpt lat="44.19571921133437" lon="10.108460691971413"><ele>159.5</ele><time>2026-04-26T16:27:14.904Z</time></trkpt><trkpt lat="44.195802797267916" lon="10.108331938101752"><ele>159.75</ele><time>2026-04-26T16:27:15.904Z</time></trkpt><trkpt lat="44.195881843390424" lon="10.108199280905755"><ele>160.0</ele><time>2026-04-26T16:27:16.904Z</time></trkpt><trkpt lat="44.19596161267844" lon="10.108051431310583"><ele>160.0</ele><time>2026-04-26T16:27:17.904Z</time></trkpt><trkpt lat="44.19604666308836" lon="10.107918976904338"><ele>160.0</ele><time>2026-04-26T16:27:18.904Z</time></trkpt><trkpt lat="44.19612803894199" lon="10.107781182922277"><ele>160.0</ele><time>2026-04-26T16:27:19.904Z</time></trkpt><trkpt lat="44.196203464199854" lon="10.107644571778208"><ele>160.0</ele><time>2026-04-26T16:27:20.904Z</time></trkpt><trkpt lat="44.19628131380891" lon="10.107507172409372"><ele>159.75</ele><time>2026-04-26T16:27:21.904Z</time></trkpt><trkpt lat="44.19637490530067" lon="10.107392423889232"><ele>159.5</ele><time>2026-04-26T16:27:22.904Z</time></trkpt><trkpt lat="44.19648730136444" lon="10.107299256424021"><ele>159.25</ele><time>2026-04-26T16:27:23.904Z</time></trkpt><trkpt lat="44.19660043479043" lon="10.107217116611656"><ele>159.0</ele><time>2026-04-26T16:27:24.904Z</time></trkpt><trkpt lat="44.19671655156044" lon="10.107138958568061"><ele>159.0</ele><time>2026-04-26T16:27:25.904Z</time></trkpt><trkpt lat="44.1968280082916" lon="10.107050150175967"><ele>159.0</ele><time>2026-04-26T16:27:26.904Z</time></trkpt><trkpt lat="44.19693425455858" lon="10.10693762667247"><ele>159.0</ele><time>2026-04-26T16:27:27.904Z</time></trkpt><trkpt lat="44.19703630365821" lon="10.106819549411114"><ele>159.0</ele><time>2026-04-26T16:27:28.904Z</time></trkpt><trkpt lat="44.197144403849" lon="10.106698480617915"><ele>159.0</ele><time>2026-04-26T16:27:29.904Z</time></trkpt><trkpt lat="44.19726631524056" lon="10.10660083712351"><ele>159.0</ele><time>2026-04-26T16:27:30.904Z</time></trkpt><trkpt lat="44.19739806789026" lon="10.10652054054924"><ele>159.0</ele><time>2026-04-26T16:27:31.904Z</time></trkpt><trkpt lat="44.197538438381216" lon="10.106450575850863"><ele>159.0</ele><time>2026-04-26T16:27:32.904Z</time></trkpt><trkpt lat="44.19768513696106" lon="10.106378023358358"><ele>157.66666666666666</ele><time>2026-04-26T16:27:33.904Z</time></trkpt><trkpt lat="44.19783483829498" lon="10.106306575552122"><ele>156.33333333333331</ele><time>2026-04-26T16:27:34.904Z</time></trkpt><trkpt lat="44.19799347869672" lon="10.10622500370337"><ele>155.0</ele><time>2026-04-26T16:27:35.904Z</time></trkpt><trkpt lat="44.19816453066664" lon="10.106137624071643"><ele>156.33333333333331</ele><time>2026-04-26T16:27:36.904Z</time></trkpt><trkpt lat="44.198339415919285" lon="10.106036853274167"><ele>157.66666666666666</ele><time>2026-04-26T16:27:37.904Z</time></trkpt><trkpt lat="44.19852371709945" lon="10.105923349259447"><ele>159.0</ele><time>2026-04-26T16:27:38.904Z</time></trkpt><trkpt lat="44.198698102840346" lon="10.105799798555372"><ele>156.66666666666666</ele><time>2026-04-26T16:27:39.904Z</time></trkpt><trkpt lat="44.19886857397016" lon="10.10565319716768"><ele>154.33333333333331</ele><time>2026-04-26T16:27:40.904Z</time></trkpt><trkpt lat="44.199028604639054" lon="10.105487962218563"><ele>152.0</ele><time>2026-04-26T16:27:41.904Z</time></trkpt><trkpt lat="44.19918037277732" lon="10.105304623447743"><ele>152.0</ele><time>2026-04-26T16:27:42.904Z</time></trkpt><trkpt lat="44.19933070388874" lon="10.10509254613246"><ele>152.0</ele><time>2026-04-26T16:27:43.904Z</time></trkpt><trkpt lat="44.19947404856553" lon="10.10486860790911"><ele>152.0</ele><time>2026-04-26T16:27:44.904Z</time></trkpt><trkpt lat="44.199615055408685" lon="10.104637703661723"><ele>150.5</ele><time>2026-04-26T16:27:45.904Z</time></trkpt><trkpt lat="44.19975816122123" lon="10.104397265437372"><ele>149.0</ele><time>2026-04-26T16:27:46.904Z</time></trkpt><trkpt lat="44.19990503681105" lon="10.104154317202314"><ele>147.5</ele><time>2026-04-26T16:27:47.904Z</time></trkpt><trkpt lat="44.20005442806249" lon="10.103914743144367"><ele>146.0</ele><time>2026-04-26T16:27:48.904Z</time></trkpt><trkpt lat="44.20020330944982" lon="10.103676511008054"><ele>146.0</ele><time>2026-04-26T16:27:49.904Z</time></trkpt><trkpt lat="44.200353856961094" lon="10.10343216063616"><ele>146.0</ele><time>2026-04-26T16:27:50.904Z</time></trkpt><trkpt lat="44.200508149853846" lon="10.10318097187899"><ele>150.5</ele><time>2026-04-26T16:27:51.904Z</time></trkpt><trkpt lat="44.20065858238695" lon="10.102925064919797"><ele>155.0</ele><time>2026-04-26T16:27:52.904Z</time></trkpt><trkpt lat="44.2008013974662" lon="10.10266774665028"><ele>165.0</ele><time>2026-04-26T16:27:53.904Z</time></trkpt><trkpt lat="44.20093476967169" lon="10.10240592386293"><ele>175.0</ele><time>2026-04-26T16:27:54.904Z</time></trkpt><trkpt lat="44.20106135840673" lon="10.102126282698416"><ele>175.0</ele><time>2026-04-26T16:27:55.904Z</time></trkpt><trkpt lat="44.20117998811705" lon="10.1018456571565"><ele>175.0</ele><time>2026-04-26T16:27:56.904Z</time></trkpt><trkpt lat="44.2012937561084" lon="10.10156460521409"><ele>178.5</ele><time>2026-04-26T16:27:57.904Z</time></trkpt><trkpt lat="44.20140319366524" lon="10.101291569501333"><ele>182.0</ele><time>2026-04-26T16:27:58.904Z</time></trkpt><trkpt lat="44.20151534179645" lon="10.101014661792107"><ele>176.5</ele><time>2026-04-26T16:27:59.904Z</time></trkpt><trkpt lat="44.20162966876251" lon="10.100738728767242"><ele>171.0</ele><time>2026-04-26T16:28:00.904Z</time></trkpt><trkpt lat="44.201742245621" lon="10.10046225659007"><ele>171.0</ele><time>2026-04-26T16:28:01.904Z</time></trkpt><trkpt lat="44.20185435718658" lon="10.10018570331727"><ele>171.0</ele><time>2026-04-26T16:28:02.904Z</time></trkpt><trkpt lat="44.201969182808234" lon="10.099900823128163"><ele>168.0</ele><time>2026-04-26T16:28:03.904Z</time></trkpt><trkpt lat="44.20208679557737" lon="10.099611764300056"><ele>165.0</ele><time>2026-04-26T16:28:04.904Z</time></trkpt><trkpt lat="44.202145971468745" lon="10.099393001392182"><ele>162.0</ele><time>2026-04-26T16:28:05.904Z</time></trkpt><trkpt lat="44.2022457835822" lon="10.099123193475014"><ele>155.0</ele><time>2026-04-26T16:28:06.904Z</time></trkpt><trkpt lat="44.20233568147275" lon="10.098856714708722"><ele>148.0</ele><time>2026-04-26T16:28:07.904Z</time></trkpt><trkpt lat="44.202430924492724" lon="10.098605976667274"><ele>141.0</ele><time>2026-04-26T16:28:08.904Z</time></trkpt><trkpt lat="44.20251979806389" lon="10.098341279744355"><ele>140.66666666666666</ele><time>2026-04-26T16:28:09.904Z</time></trkpt><trkpt lat="44.20261995813412" lon="10.098087374799166"><ele>140.33333333333331</ele><time>2026-04-26T16:28:10.904Z</time></trkpt><trkpt lat="44.20271657282012" lon="10.097832462070114"><ele>140.0</ele><time>2026-04-26T16:28:11.904Z</time></trkpt><trkpt lat="44.20280451453877" lon="10.097575419064288"><ele>140.33333333333331</ele><time>2026-04-26T16:28:12.903Z</time></trkpt><trkpt lat="44.20288321241495" lon="10.097319279288602"><ele>140.66666666666666</ele><time>2026-04-26T16:28:13.903Z</time></trkpt><trkpt lat="44.20295348940852" lon="10.097055004114539"><ele>141.0</ele><time>2026-04-26T16:28:14.903Z</time></trkpt><trkpt lat="44.20301255890439" lon="10.09677912717867"><ele>141.33333333333334</ele><time>2026-04-26T16:28:15.903Z</time></trkpt><trkpt lat="44.2030592805917" lon="10.096504063587224"><ele>141.66666666666669</ele><time>2026-04-26T16:28:16.903Z</time></trkpt><trkpt lat="44.20309435990674" lon="10.09622678762113"><ele>142.0</ele><time>2026-04-26T16:28:17.903Z</time></trkpt><trkpt lat="44.20312129648067" lon="10.095948086898614"><ele>142.33333333333334</ele><time>2026-04-26T16:28:18.903Z</time></trkpt><trkpt lat="44.20313633048769" lon="10.095673325043778"><ele>142.66666666666666</ele><time>2026-04-26T16:28:19.903Z</time></trkpt><trkpt lat="44.20313673368225" lon="10.095397914687055"><ele>143.0</ele><time>2026-04-26T16:28:20.903Z</time></trkpt><trkpt lat="44.20312618151519" lon="10.095120162969794"><ele>143.0</ele><time>2026-04-26T16:28:21.903Z</time></trkpt><trkpt lat="44.20310366986714" lon="10.094838975193849"><ele>143.0</ele><time>2026-04-26T16:28:22.903Z</time></trkpt><trkpt lat="44.20307024071036" lon="10.094548806652027"><ele>143.0</ele><time>2026-04-26T16:28:23.903Z</time></trkpt><trkpt lat="44.20302299600573" lon="10.094253139012915"><ele>142.0</ele><time>2026-04-26T16:28:24.903Z</time></trkpt><trkpt lat="44.20296774157648" lon="10.093955151823902"><ele>141.0</ele><time>2026-04-26T16:28:25.904Z</time></trkpt><trkpt lat="44.202904726199606" lon="10.093646233576674"><ele>141.0</ele><time>2026-04-26T16:28:26.904Z</time></trkpt><trkpt lat="44.20284029949124" lon="10.093339825735224"><ele>141.0</ele><time>2026-04-26T16:28:27.904Z</time></trkpt><trkpt lat="44.20277456019341" lon="10.093027622683262"><ele>141.5</ele><time>2026-04-26T16:28:28.904Z</time></trkpt><trkpt lat="44.20271056372949" lon="10.092715785938164"><ele>142.0</ele><time>2026-04-26T16:28:29.904Z</time></trkpt><trkpt lat="44.20264628414754" lon="10.092408699379222"><ele>142.5</ele><time>2026-04-26T16:28:30.904Z</time></trkpt><trkpt lat="44.20258193097481" lon="10.09210233826884"><ele>143.0</ele><time>2026-04-26T16:28:31.904Z</time></trkpt><trkpt lat="44.20252094330864" lon="10.091796700328885"><ele>143.0</ele><time>2026-04-26T16:28:32.904Z</time></trkpt><trkpt lat="44.20245882159328" lon="10.091491724415864"><ele>143.0</ele><time>2026-04-26T16:28:33.904Z</time></trkpt><trkpt lat="44.2023932181573" lon="10.091183378067676"><ele>140.5</ele><time>2026-04-26T16:28:34.904Z</time></trkpt><trkpt lat="44.202331301379054" lon="10.09088003207507"><ele>138.0</ele><time>2026-04-26T16:28:35.904Z</time></trkpt><trkpt lat="44.20226777722519" lon="10.090579981469778"><ele>138.0</ele><time>2026-04-26T16:28:36.904Z</time></trkpt><trkpt lat="44.202203891909484" lon="10.090275248433556"><ele>138.0</ele><time>2026-04-26T16:28:37.904Z</time></trkpt><trkpt lat="44.20214201686968" lon="10.089977404960454"><ele>138.0</ele><time>2026-04-26T16:28:38.904Z</time></trkpt><trkpt lat="44.20207921113053" lon="10.089688282726575"><ele>138.0</ele><time>2026-04-26T16:28:39.904Z</time></trkpt><trkpt lat="44.202023365456505" lon="10.0894088710483"><ele>138.0</ele><time>2026-04-26T16:28:40.904Z</time></trkpt><trkpt lat="44.201973544391684" lon="10.089146514441095"><ele>136.66666666666666</ele><time>2026-04-26T16:28:41.904Z</time></trkpt><trkpt lat="44.20193129487626" lon="10.088894275969585"><ele>135.33333333333331</ele><time>2026-04-26T16:28:42.904Z</time></trkpt><trkpt lat="44.20189260936804" lon="10.088662984408455"><ele>134.0</ele><time>2026-04-26T16:28:43.904Z</time></trkpt><trkpt lat="44.201857784856365" lon="10.088439408014548"><ele>133.66666666666666</ele><time>2026-04-26T16:28:44.904Z</time></trkpt><trkpt lat="44.20182459966244" lon="10.088222794519472"><ele>133.33333333333334</ele><time>2026-04-26T16:28:45.904Z</time></trkpt><trkpt lat="44.20178842772532" lon="10.088012686964058"><ele>133.0</ele><time>2026-04-26T16:28:46.904Z</time></trkpt><trkpt lat="44.20174896478537" lon="10.087814431194573"><ele>133.0</ele><time>2026-04-26T16:28:47.904Z</time></trkpt><trkpt lat="44.201704002585245" lon="10.087653367047238"><ele>133.0</ele><time>2026-04-26T16:28:48.904Z</time></trkpt><trkpt lat="44.20164963909855" lon="10.087513218095289"><ele>133.0</ele><time>2026-04-26T16:28:49.904Z</time></trkpt><trkpt lat="44.20157410460983" lon="10.087404865588606"><ele>133.0</ele><time>2026-04-26T16:28:50.904Z</time></trkpt><trkpt lat="44.20147796801006" lon="10.087318541580396"><ele>131.75</ele><time>2026-04-26T16:28:51.904Z</time></trkpt><trkpt lat="44.20135927562271" lon="10.08726246440721"><ele>130.5</ele><time>2026-04-26T16:28:52.904Z</time></trkpt><trkpt lat="44.20123592273336" lon="10.087251967117371"><ele>129.25</ele><time>2026-04-26T16:28:53.904Z</time></trkpt><trkpt lat="44.201116946936835" lon="10.087291543415185"><ele>128.0</ele><time>2026-04-26T16:28:54.904Z</time></trkpt><trkpt lat="44.20100972318336" lon="10.087385496069723"><ele>128.0</ele><time>2026-04-26T16:28:55.904Z</time></trkpt><trkpt lat="44.20092864695829" lon="10.087504831775574"><ele>128.0</ele><time>2026-04-26T16:28:56.904Z</time></trkpt><trkpt lat="44.200878894618675" lon="10.087656222763036"><ele>128.0</ele><time>2026-04-26T16:28:57.904Z</time></trkpt><trkpt lat="44.200847616697075" lon="10.087824458852188"><ele>128.0</ele><time>2026-04-26T16:28:58.904Z</time></trkpt><trkpt lat="44.20085111085277" lon="10.088000386543916"><ele>128.0</ele><time>2026-04-26T16:28:59.904Z</time></trkpt><trkpt lat="44.20088454069326" lon="10.088163063833477"><ele>128.0</ele><time>2026-04-26T16:29:00.904Z</time></trkpt><trkpt lat="44.200945197076415" lon="10.08830656388377"><ele>128.0</ele><time>2026-04-26T16:29:01.904Z</time></trkpt><trkpt lat="44.20104780486453" lon="10.088410418084672"><ele>128.0</ele><time>2026-04-26T16:29:02.904Z</time></trkpt><trkpt lat="44.20116450026294" lon="10.088476556820044"><ele>128.25</ele><time>2026-04-26T16:29:03.904Z</time></trkpt><trkpt lat="44.201289860722056" lon="10.088499411016699"><ele>128.5</ele><time>2026-04-26T16:29:04.904Z</time></trkpt><trkpt lat="44.201447043799156" lon="10.088480231363429"><ele>128.75</ele><time>2026-04-26T16:29:05.904Z</time></trkpt><trkpt lat="44.20160159885497" lon="10.088469708650527"><ele>129.0</ele><time>2026-04-26T16:29:06.904Z</time></trkpt><trkpt lat="44.20175647422719" lon="10.088460000398165"><ele>130.25</ele><time>2026-04-26T16:29:07.904Z</time></trkpt><trkpt lat="44.20191142926063" lon="10.088451074484592"><ele>131.5</ele><time>2026-04-26T16:29:08.904Z</time></trkpt><trkpt lat="44.202051118081165" lon="10.08843908125248"><ele>132.75</ele><time>2026-04-26T16:29:09.904Z</time></trkpt><trkpt lat="44.202176542426876" lon="10.08843380510155"><ele>134.0</ele><time>2026-04-26T16:29:10.904Z</time></trkpt><trkpt lat="44.202275546745206" lon="10.08841454616381"><ele>135.0</ele><time>2026-04-26T16:29:11.904Z</time></trkpt><trkpt lat="44.20234442011977" lon="10.088366502839545"><ele>136.0</ele><time>2026-04-26T16:29:12.904Z</time></trkpt><trkpt lat="44.2024017971649" lon="10.088272323033973"><ele>137.0</ele><time>2026-04-26T16:29:13.904Z</time></trkpt><trkpt lat="44.20244080646439" lon="10.088134706079293"><ele>138.0</ele><time>2026-04-26T16:29:14.904Z</time></trkpt><trkpt lat="44.20247011947897" lon="10.08796289974019"><ele>139.0</ele><time>2026-04-26T16:29:15.904Z</time></trkpt><trkpt lat="44.20251199665851" lon="10.087751862134066"><ele>140.33333333333334</ele><time>2026-04-26T16:29:16.904Z</time></trkpt><trkpt lat="44.202548649271094" lon="10.087541251514045"><ele>141.66666666666666</ele><time>2026-04-26T16:29:17.904Z</time></trkpt><trkpt lat="44.20256993839336" lon="10.087328504404544"><ele>143.0</ele><time>2026-04-26T16:29:18.904Z</time></trkpt><trkpt lat="44.20256739053273" lon="10.087101596241991"><ele>142.66666666666666</ele><time>2026-04-26T16:29:19.904Z</time></trkpt><trkpt lat="44.202558621675394" lon="10.08687894744876"><ele>142.33333333333334</ele><time>2026-04-26T16:29:20.904Z</time></trkpt><trkpt lat="44.20254364155703" lon="10.086654912158927"><ele>142.0</ele><time>2026-04-26T16:29:21.904Z</time></trkpt><trkpt lat="44.2025290277472" lon="10.086430605460059"><ele>142.0</ele><time>2026-04-26T16:29:22.904Z</time></trkpt><trkpt lat="44.20252186883177" lon="10.08622151680388"><ele>142.0</ele><time>2026-04-26T16:29:23.904Z</time></trkpt><trkpt lat="44.20252009531085" lon="10.086025952729326"><ele>142.0</ele><time>2026-04-26T16:29:24.904Z</time></trkpt><trkpt lat="44.20252384661782" lon="10.085841663429427"><ele>142.0</ele><time>2026-04-26T16:29:25.904Z</time></trkpt><trkpt lat="44.202546023266876" lon="10.085664931121618"><ele>141.0</ele><time>2026-04-26T16:29:26.904Z</time></trkpt><trkpt lat="44.202579693006705" lon="10.085493640865844"><ele>140.0</ele><time>2026-04-26T16:29:27.904Z</time></trkpt><trkpt lat="44.20263585189291" lon="10.085338645794968"><ele>139.0</ele><time>2026-04-26T16:29:28.904Z</time></trkpt><trkpt lat="44.202694180716605" lon="10.08519002868538"><ele>138.0</ele><time>2026-04-26T16:29:29.904Z</time></trkpt><trkpt lat="44.20272838711693" lon="10.08502311227148"><ele>138.5</ele><time>2026-04-26T16:29:30.904Z</time></trkpt><trkpt lat="44.202748603395214" lon="10.084843635930776"><ele>139.0</ele><time>2026-04-26T16:29:31.904Z</time></trkpt><trkpt lat="44.2027568400507" lon="10.084647582448092"><ele>139.5</ele><time>2026-04-26T16:29:32.904Z</time></trkpt><trkpt lat="44.202751476992006" lon="10.084439473363782"><ele>140.0</ele><time>2026-04-26T16:29:33.904Z</time></trkpt><trkpt lat="44.20273341514245" lon="10.084237130114914"><ele>141.5</ele><time>2026-04-26T16:29:34.904Z</time></trkpt><trkpt lat="44.20270743976418" lon="10.084037258312764"><ele>143.0</ele><time>2026-04-26T16:29:35.904Z</time></trkpt><trkpt lat="44.202680937911886" lon="10.083841247626575"><ele>144.5</ele><time>2026-04-26T16:29:36.904Z</time></trkpt><trkpt lat="44.20265922269639" lon="10.083670440422432"><ele>146.0</ele><time>2026-04-26T16:29:37.904Z</time></trkpt><trkpt lat="44.202641718205506" lon="10.08350207949321"><ele>146.0</ele><time>2026-04-26T16:29:38.904Z</time></trkpt><trkpt lat="44.202635535344136" lon="10.083333319552473"><ele>146.0</ele><time>2026-04-26T16:29:39.904Z</time></trkpt><trkpt lat="44.20266282847866" lon="10.083168585509302"><ele>146.0</ele><time>2026-04-26T16:29:40.904Z</time></trkpt><trkpt lat="44.20272906916508" lon="10.083019133184543"><ele>146.0</ele><time>2026-04-26T16:29:41.904Z</time></trkpt><trkpt lat="44.20281866134963" lon="10.082876868680989"><ele>146.75</ele><time>2026-04-26T16:29:42.904Z</time></trkpt><trkpt lat="44.20293375907194" lon="10.082760499101141"><ele>147.5</ele><time>2026-04-26T16:29:43.904Z</time></trkpt><trkpt lat="44.203035448505766" lon="10.082681419537328"><ele>148.25</ele><time>2026-04-26T16:29:44.904Z</time></trkpt><trkpt lat="44.20315374814082" lon="10.082627078175593"><ele>149.0</ele><time>2026-04-26T16:29:45.904Z</time></trkpt><trkpt lat="44.20327297107452" lon="10.082614213615507"><ele>152.25</ele><time>2026-04-26T16:29:46.904Z</time></trkpt><trkpt lat="44.20340873513364" lon="10.082657759641968"><ele>155.5</ele><time>2026-04-26T16:29:47.904Z</time></trkpt><trkpt lat="44.20353782739553" lon="10.082719715676678"><ele>158.75</ele><time>2026-04-26T16:29:48.904Z</time></trkpt><trkpt lat="44.20367781771737" lon="10.082786408439938"><ele>162.0</ele><time>2026-04-26T16:29:49.904Z</time></trkpt><trkpt lat="44.203816943448714" lon="10.082863179341183"><ele>162.0</ele><time>2026-04-26T16:29:50.904Z</time></trkpt><trkpt lat="44.203958312048" lon="10.082949086515304"><ele>162.0</ele><time>2026-04-26T16:29:51.904Z</time></trkpt><trkpt lat="44.20410790648238" lon="10.083026883010593"><ele>162.0</ele><time>2026-04-26T16:29:52.904Z</time></trkpt><trkpt lat="44.20424513971422" lon="10.083118816768298"><ele>164.25</ele><time>2026-04-26T16:29:53.904Z</time></trkpt><trkpt lat="44.20436675093399" lon="10.08322316883467"><ele>166.5</ele><time>2026-04-26T16:29:54.904Z</time></trkpt><trkpt lat="44.20447753411573" lon="10.083347003349479"><ele>168.75</ele><time>2026-04-26T16:29:55.904Z</time></trkpt><trkpt lat="44.20458957839437" lon="10.083451746562098"><ele>171.0</ele><time>2026-04-26T16:29:56.904Z</time></trkpt><trkpt lat="44.20471135353901" lon="10.083519101120848"><ele>171.66666666666666</ele><time>2026-04-26T16:29:57.904Z</time></trkpt><trkpt lat="44.20484726232977" lon="10.083563447300556"><ele>172.33333333333331</ele><time>2026-04-26T16:29:58.904Z</time></trkpt><trkpt lat="44.204995068714666" lon="10.083580065549375"><ele>173.0</ele><time>2026-04-26T16:29:59.904Z</time></trkpt><trkpt lat="44.20515859417976" lon="10.083576474310737"><ele>173.0</ele><time>2026-04-26T16:30:00.904Z</time></trkpt><trkpt lat="44.20532543238977" lon="10.083579372191585"><ele>173.0</ele><time>2026-04-26T16:30:01.904Z</time></trkpt><trkpt lat="44.20551345081232" lon="10.083595404700556"><ele>173.0</ele><time>2026-04-26T16:30:02.904Z</time></trkpt><trkpt lat="44.20569277501546" lon="10.08365631115111"><ele>174.66666666666666</ele><time>2026-04-26T16:30:03.904Z</time></trkpt><trkpt lat="44.205874437273096" lon="10.08374445257252"><ele>176.33333333333334</ele><time>2026-04-26T16:30:04.904Z</time></trkpt><trkpt lat="44.206044614961144" lon="10.083828461845881"><ele>178.0</ele><time>2026-04-26T16:30:05.904Z</time></trkpt><trkpt lat="44.20618680577659" lon="10.083917410858325"><ele>178.0</ele><time>2026-04-26T16:30:06.904Z</time></trkpt><trkpt lat="44.20631833200481" lon="10.08398818816821"><ele>178.0</ele><time>2026-04-26T16:30:07.904Z</time></trkpt><trkpt lat="44.20644266315189" lon="10.084034472531476"><ele>178.0</ele><time>2026-04-26T16:30:08.904Z</time></trkpt><trkpt lat="44.2065658469536" lon="10.084048897097404"><ele>178.0</ele><time>2026-04-26T16:30:09.904Z</time></trkpt><trkpt lat="44.20667677801225" lon="10.084041011852236"><ele>177.25</ele><time>2026-04-26T16:30:10.904Z</time></trkpt><trkpt lat="44.20678786628711" lon="10.08397377217786"><ele>176.5</ele><time>2026-04-26T16:30:11.904Z</time></trkpt><trkpt lat="44.20687162485931" lon="10.08385884078608"><ele>175.75</ele><time>2026-04-26T16:30:12.904Z</time></trkpt><trkpt lat="44.20692660951795" lon="10.083725370915886"><ele>175.0</ele><time>2026-04-26T16:30:13.904Z</time></trkpt><trkpt lat="44.20693005720413" lon="10.08357297461036"><ele>175.0</ele><time>2026-04-26T16:30:14.904Z</time></trkpt><trkpt lat="44.20685080364402" lon="10.083387310374896"><ele>175.0</ele><time>2026-04-26T16:30:15.904Z</time></trkpt><trkpt lat="44.20674442603102" lon="10.083232428223537"><ele>175.0</ele><time>2026-04-26T16:30:16.904Z</time></trkpt><trkpt lat="44.20662349830829" lon="10.083104578328573"><ele>173.66666666666669</ele><time>2026-04-26T16:30:17.904Z</time></trkpt><trkpt lat="44.20648948931093" lon="10.082960846328634"><ele>172.33333333333334</ele><time>2026-04-26T16:30:18.903Z</time></trkpt><trkpt lat="44.20636309797984" lon="10.082799392610866"><ele>171.0</ele><time>2026-04-26T16:30:19.903Z</time></trkpt><trkpt lat="44.20624148415462" lon="10.082652836765245"><ele>171.0</ele><time>2026-04-26T16:30:20.903Z</time></trkpt><trkpt lat="44.2061243920827" lon="10.082520625277608"><ele>171.0</ele><time>2026-04-26T16:30:21.903Z</time></trkpt><trkpt lat="44.20601783264511" lon="10.082382745028573"><ele>171.0</ele><time>2026-04-26T16:30:22.902Z</time></trkpt><trkpt lat="44.20591764700792" lon="10.082247223224549"><ele>171.0</ele><time>2026-04-26T16:30:23.902Z</time></trkpt><trkpt lat="44.20582186488618" lon="10.082118119409161"><ele>169.8</ele><time>2026-04-26T16:30:24.903Z</time></trkpt><trkpt lat="44.20573406967265" lon="10.081995455580405"><ele>168.60000000000002</ele><time>2026-04-26T16:30:25.903Z</time></trkpt><trkpt lat="44.20565430061906" lon="10.081885024683103"><ele>167.4</ele><time>2026-04-26T16:30:26.903Z</time></trkpt><trkpt lat="44.2055860485159" lon="10.081772119333483"><ele>166.2</ele><time>2026-04-26T16:30:27.902Z</time></trkpt><trkpt lat="44.205527519285106" lon="10.08165038628647"><ele>165.0</ele><time>2026-04-26T16:30:28.903Z</time></trkpt><trkpt lat="44.2054831690504" lon="10.081527020788787"><ele>164.83333333333334</ele><time>2026-04-26T16:30:29.903Z</time></trkpt><trkpt lat="44.20545237509283" lon="10.081399761219604"><ele>164.66666666666666</ele><time>2026-04-26T16:30:30.903Z</time></trkpt><trkpt lat="44.20544050765073" lon="10.08129694192816"><ele>164.5</ele><time>2026-04-26T16:30:31.903Z</time></trkpt><trkpt lat="44.20546427306611" lon="10.081204333228817"><ele>164.33333333333331</ele><time>2026-04-26T16:30:33.903Z</time></trkpt><trkpt lat="44.20549765093171" lon="10.081113911353686"><ele>164.16666666666666</ele><time>2026-04-26T16:30:35.903Z</time></trkpt><trkpt lat="44.20555590173279" lon="10.081032440545659"><ele>164.0</ele><time>2026-04-26T16:30:37.903Z</time></trkpt><trkpt lat="44.20560870979555" lon="10.080979684086525"><ele>164.0</ele><time>2026-04-26T16:30:39.903Z</time></trkpt><trkpt lat="44.205658872240065" lon="10.080907594490258"><ele>164.0</ele><time>2026-04-26T16:30:44.903Z</time></trkpt><trkpt lat="44.20570541748329" lon="10.080832368953786"><ele>164.0</ele><time>2026-04-26T16:30:46.903Z</time></trkpt><trkpt lat="44.20573385007135" lon="10.080668744166985"><ele>164.0</ele><time>2026-04-26T16:30:48.903Z</time></trkpt><trkpt lat="44.205726910348595" lon="10.080557346319031"><ele>164.0</ele><time>2026-04-26T16:30:49.903Z</time></trkpt><trkpt lat="44.205717892238404" lon="10.08041529514187"><ele>164.0</ele><time>2026-04-26T16:30:50.903Z</time></trkpt><trkpt lat="44.20570898570534" lon="10.080244237264582"><ele>160.5</ele><time>2026-04-26T16:30:51.903Z</time></trkpt><trkpt lat="44.20571179933793" lon="10.080055184593856"><ele>157.0</ele><time>2026-04-26T16:30:52.903Z</time></trkpt><trkpt lat="44.20573089942063" lon="10.079864707376585"><ele>153.5</ele><time>2026-04-26T16:30:53.903Z</time></trkpt><trkpt lat="44.205757070270046" lon="10.079694518471271"><ele>150.0</ele><time>2026-04-26T16:30:54.903Z</time></trkpt><trkpt lat="44.205782795430494" lon="10.079529969751999"><ele>150.0</ele><time>2026-04-26T16:30:55.903Z</time></trkpt><trkpt lat="44.20580529304237" lon="10.079364772778973"><ele>150.0</ele><time>2026-04-26T16:30:56.903Z</time></trkpt><trkpt lat="44.20582803263198" lon="10.07918913580312"><ele>150.0</ele><time>2026-04-26T16:30:57.903Z</time></trkpt><trkpt lat="44.2058575714089" lon="10.079005571321737"><ele>150.0</ele><time>2026-04-26T16:30:58.903Z</time></trkpt><trkpt lat="44.2058824038892" lon="10.078816929810934"><ele>150.5</ele><time>2026-04-26T16:30:59.903Z</time></trkpt><trkpt lat="44.205906688281075" lon="10.078620272733083"><ele>151.0</ele><time>2026-04-26T16:31:00.903Z</time></trkpt><trkpt lat="44.20592334890453" lon="10.078423618849028"><ele>151.5</ele><time>2026-04-26T16:31:01.903Z</time></trkpt><trkpt lat="44.20593676518163" lon="10.078236509399314"><ele>152.0</ele><time>2026-04-26T16:31:02.903Z</time></trkpt><trkpt lat="44.205939587859575" lon="10.078050781296678"><ele>150.25</ele><time>2026-04-26T16:31:03.903Z</time></trkpt><trkpt lat="44.2059193375808" lon="10.077869436988472"><ele>148.5</ele><time>2026-04-26T16:31:04.903Z</time></trkpt><trkpt lat="44.20587643024003" lon="10.077685524167773"><ele>146.75</ele><time>2026-04-26T16:31:05.903Z</time></trkpt><trkpt lat="44.20581231042859" lon="10.077504605471779"><ele>145.0</ele><time>2026-04-26T16:31:06.903Z</time></trkpt><trkpt lat="44.205722887289475" lon="10.077305847014742"><ele>155.0</ele><time>2026-04-26T16:31:07.903Z</time></trkpt><trkpt lat="44.2056519153948" lon="10.077098629922778"><ele>165.0</ele><time>2026-04-26T16:31:08.903Z</time></trkpt><trkpt lat="44.20560373960573" lon="10.076897926105788"><ele>175.0</ele><time>2026-04-26T16:31:09.903Z</time></trkpt><trkpt lat="44.205576229872676" lon="10.07669328499342"><ele>175.25</ele><time>2026-04-26T16:31:10.903Z</time></trkpt><trkpt lat="44.20556180884429" lon="10.07649214847497"><ele>175.5</ele><time>2026-04-26T16:31:11.903Z</time></trkpt><trkpt lat="44.205557382460825" lon="10.076290408353353"><ele>175.75</ele><time>2026-04-26T16:31:12.903Z</time></trkpt><trkpt lat="44.20554391534712" lon="10.076081212901725"><ele>176.0</ele><time>2026-04-26T16:31:13.903Z</time></trkpt><trkpt lat="44.20552999216229" lon="10.075878716693591"><ele>174.75</ele><time>2026-04-26T16:31:14.903Z</time></trkpt><trkpt lat="44.205520738633865" lon="10.075676364081133"><ele>173.5</ele><time>2026-04-26T16:31:15.903Z</time></trkpt><trkpt lat="44.20551218487725" lon="10.075474338502952"><ele>172.25</ele><time>2026-04-26T16:31:16.903Z</time></trkpt><trkpt lat="44.20550296067898" lon="10.075270059006987"><ele>171.0</ele><time>2026-04-26T16:31:17.903Z</time></trkpt><trkpt lat="44.20548127487816" lon="10.075061752862581"><ele>166.0</ele><time>2026-04-26T16:31:18.903Z</time></trkpt><trkpt lat="44.2054392998452" lon="10.074855680292268"><ele>161.0</ele><time>2026-04-26T16:31:19.903Z</time></trkpt><trkpt lat="44.205385639631565" lon="10.074652917165"><ele>156.0</ele><time>2026-04-26T16:31:20.903Z</time></trkpt><trkpt lat="44.20532692190668" lon="10.074457210639068"><ele>156.0</ele><time>2026-04-26T16:31:21.903Z</time></trkpt><trkpt lat="44.20526269738096" lon="10.074257468752185"><ele>156.0</ele><time>2026-04-26T16:31:22.903Z</time></trkpt><trkpt lat="44.20520806414263" lon="10.07406918902752"><ele>156.0</ele><time>2026-04-26T16:31:23.903Z</time></trkpt><trkpt lat="44.20515354160184" lon="10.073874842518755"><ele>152.25</ele><time>2026-04-26T16:31:24.903Z</time></trkpt><trkpt lat="44.20510139185353" lon="10.073686333523218"><ele>148.5</ele><time>2026-04-26T16:31:25.903Z</time></trkpt><trkpt lat="44.205047620532014" lon="10.0734988865591"><ele>144.75</ele><time>2026-04-26T16:31:26.903Z</time></trkpt><trkpt lat="44.204993946424764" lon="10.073314830159488"><ele>141.0</ele><time>2026-04-26T16:31:27.903Z</time></trkpt><trkpt lat="44.20494127482462" lon="10.073132225447383"><ele>139.75</ele><time>2026-04-26T16:31:28.903Z</time></trkpt><trkpt lat="44.20488838810323" lon="10.072954362676684"><ele>138.5</ele><time>2026-04-26T16:31:29.903Z</time></trkpt><trkpt lat="44.2048348169109" lon="10.072763820314853"><ele>137.25</ele><time>2026-04-26T16:31:30.903Z</time></trkpt><trkpt lat="44.20477689311277" lon="10.072571934097901"><ele>136.0</ele><time>2026-04-26T16:31:31.903Z</time></trkpt><trkpt lat="44.204694384949256" lon="10.07238578373053"><ele>136.0</ele><time>2026-04-26T16:31:32.903Z</time></trkpt><trkpt lat="44.20458819860374" lon="10.072204952762466"><ele>136.0</ele><time>2026-04-26T16:31:33.903Z</time></trkpt><trkpt lat="44.204460151673565" lon="10.072024674052065"><ele>136.0</ele><time>2026-04-26T16:31:34.903Z</time></trkpt><trkpt lat="44.20432619256763" lon="10.071836580173963"><ele>136.0</ele><time>2026-04-26T16:31:35.903Z</time></trkpt><trkpt lat="44.20419286182898" lon="10.071630695029565"><ele>136.0</ele><time>2026-04-26T16:31:36.903Z</time></trkpt><trkpt lat="44.20407317570114" lon="10.071440814751176"><ele>136.0</ele><time>2026-04-26T16:31:37.903Z</time></trkpt><trkpt lat="44.20397583218712" lon="10.07128964756492"><ele>137.4</ele><time>2026-04-26T16:31:38.903Z</time></trkpt><trkpt lat="44.203888511351835" lon="10.071161409536531"><ele>138.8</ele><time>2026-04-26T16:31:39.903Z</time></trkpt><trkpt lat="44.203833439423995" lon="10.071052658915782"><ele>140.20000000000002</ele><time>2026-04-26T16:31:40.903Z</time></trkpt><trkpt lat="44.203789273505805" lon="10.070943175357929"><ele>141.6</ele><time>2026-04-26T16:31:41.903Z</time></trkpt><trkpt lat="44.203751427046086" lon="10.070848073514105"><ele>143.0</ele><time>2026-04-26T16:31:42.903Z</time></trkpt><trkpt lat="44.203704019095454" lon="10.070748030219988"><ele>138.33333333333331</ele><time>2026-04-26T16:31:43.903Z</time></trkpt><trkpt lat="44.20363355504284" lon="10.070633632290743"><ele>133.66666666666666</ele><time>2026-04-26T16:31:44.903Z</time></trkpt><trkpt lat="44.20355266788176" lon="10.070509770594116"><ele>129.0</ele><time>2026-04-26T16:31:45.903Z</time></trkpt><trkpt lat="44.203255196258105" lon="10.07016944140987"><ele>129.0</ele><time>2026-04-26T16:31:46.903Z</time></trkpt><trkpt lat="44.20319063306602" lon="10.070049002848759"><ele>129.0</ele><time>2026-04-26T16:31:47.903Z</time></trkpt><trkpt lat="44.20316271994707" lon="10.069889242639924"><ele>129.0</ele><time>2026-04-26T16:31:48.903Z</time></trkpt><trkpt lat="44.20318794031834" lon="10.06971319710848"><ele>129.0</ele><time>2026-04-26T16:31:49.903Z</time></trkpt><trkpt lat="44.20324975702629" lon="10.069548018289446"><ele>127.5</ele><time>2026-04-26T16:31:50.903Z</time></trkpt><trkpt lat="44.20333477670753" lon="10.069398007388072"><ele>126.0</ele><time>2026-04-26T16:31:51.903Z</time></trkpt><trkpt lat="44.20341738261119" lon="10.069252156661816"><ele>124.5</ele><time>2026-04-26T16:31:52.903Z</time></trkpt><trkpt lat="44.203494802998556" lon="10.069112296251753"><ele>123.0</ele><time>2026-04-26T16:31:53.903Z</time></trkpt><trkpt lat="44.203572848199485" lon="10.06896401290703"><ele>123.0</ele><time>2026-04-26T16:31:54.903Z</time></trkpt><trkpt lat="44.20364954030254" lon="10.068812664221504"><ele>123.0</ele><time>2026-04-26T16:31:55.903Z</time></trkpt><trkpt lat="44.20372536663889" lon="10.068669911544198"><ele>123.0</ele><time>2026-04-26T16:31:56.903Z</time></trkpt><trkpt lat="44.20380034168536" lon="10.06853224215925"><ele>123.0</ele><time>2026-04-26T16:31:57.903Z</time></trkpt><trkpt lat="44.20386970942673" lon="10.068396624099712"><ele>123.2</ele><time>2026-04-26T16:31:58.903Z</time></trkpt><trkpt lat="44.203939082730365" lon="10.068262171464848"><ele>123.4</ele><time>2026-04-26T16:31:59.903Z</time></trkpt><trkpt lat="44.20400195685701" lon="10.068126312295458"><ele>123.60000000000001</ele><time>2026-04-26T16:32:00.903Z</time></trkpt><trkpt lat="44.20405649758221" lon="10.067999736244863"><ele>123.80000000000001</ele><time>2026-04-26T16:32:01.903Z</time></trkpt><trkpt lat="44.20409707998979" lon="10.067878440163655"><ele>124.0</ele><time>2026-04-26T16:32:02.903Z</time></trkpt><trkpt lat="44.20413237593251" lon="10.067766532133062"><ele>124.00000000000001</ele><time>2026-04-26T16:32:03.903Z</time></trkpt><trkpt lat="44.2041596219876" lon="10.067665181713748"><ele>124.0</ele><time>2026-04-26T16:32:04.903Z</time></trkpt><trkpt lat="44.20418889232429" lon="10.067556206954388"><ele>124.0</ele><time>2026-04-26T16:32:06.903Z</time></trkpt><trkpt lat="44.204215849931465" lon="10.06743685222091"><ele>124.0</ele><time>2026-04-26T16:32:10.903Z</time></trkpt><trkpt lat="44.20420633138519" lon="10.067339124192827"><ele>124.00000000000001</ele><time>2026-04-26T16:33:25.902Z</time></trkpt><trkpt lat="44.20422303184925" lon="10.067245879757666"><ele>124.0</ele><time>2026-04-26T16:33:27.902Z</time></trkpt><trkpt lat="44.204241292181976" lon="10.067141543035799"><ele>124.0</ele><time>2026-04-26T16:33:28.902Z</time></trkpt><trkpt lat="44.20427438290034" lon="10.067003949398023"><ele>124.0</ele><time>2026-04-26T16:33:29.902Z</time></trkpt><trkpt lat="44.20432374162639" lon="10.066849418827749"><ele>124.0</ele><time>2026-04-26T16:33:30.902Z</time></trkpt><trkpt lat="44.20437671257433" lon="10.066679942204468"><ele>124.0</ele><time>2026-04-26T16:33:31.902Z</time></trkpt><trkpt lat="44.20443686601209" lon="10.066512075738355"><ele>122.75</ele><time>2026-04-26T16:33:32.902Z</time></trkpt><trkpt lat="44.204497045281805" lon="10.06634739337427"><ele>121.5</ele><time>2026-04-26T16:33:33.902Z</time></trkpt><trkpt lat="44.20454912984085" lon="10.066178920170865"><ele>120.25</ele><time>2026-04-26T16:33:34.902Z</time></trkpt><trkpt lat="44.20459238101169" lon="10.066015687910157"><ele>119.0</ele><time>2026-04-26T16:33:35.902Z</time></trkpt><trkpt lat="44.204633585140826" lon="10.06585855835832"><ele>120.0</ele><time>2026-04-26T16:33:36.902Z</time></trkpt><trkpt lat="44.20465604051527" lon="10.065699549421945"><ele>121.0</ele><time>2026-04-26T16:33:37.902Z</time></trkpt><trkpt lat="44.2046536912718" lon="10.065530938495511"><ele>122.0</ele><time>2026-04-26T16:33:38.902Z</time></trkpt><trkpt lat="44.204634363350145" lon="10.06534763684458"><ele>123.0</ele><time>2026-04-26T16:33:39.902Z</time></trkpt><trkpt lat="44.20460911073635" lon="10.065190365357399"><ele>123.0</ele><time>2026-04-26T16:33:40.902Z</time></trkpt><trkpt lat="44.204567617861805" lon="10.065043061487875"><ele>123.0</ele><time>2026-04-26T16:33:41.902Z</time></trkpt><trkpt lat="44.20449518312636" lon="10.064896390122701"><ele>123.0</ele><time>2026-04-26T16:33:42.902Z</time></trkpt><trkpt lat="44.20438729860148" lon="10.064766159324584"><ele>123.0</ele><time>2026-04-26T16:33:43.902Z</time></trkpt><trkpt lat="44.20426700164059" lon="10.064633217355997"><ele>122.75</ele><time>2026-04-26T16:33:44.902Z</time></trkpt><trkpt lat="44.20415355395331" lon="10.064497756274564"><ele>122.5</ele><time>2026-04-26T16:33:45.902Z</time></trkpt><trkpt lat="44.204061142040594" lon="10.064352042982254"><ele>122.25</ele><time>2026-04-26T16:33:46.902Z</time></trkpt><trkpt lat="44.20396606250683" lon="10.064196252308765"><ele>122.0</ele><time>2026-04-26T16:33:47.902Z</time></trkpt><trkpt lat="44.20385863183422" lon="10.064036469125583"><ele>122.0</ele><time>2026-04-26T16:33:48.902Z</time></trkpt><trkpt lat="44.203751637383206" lon="10.06385953700122"><ele>122.0</ele><time>2026-04-26T16:33:49.902Z</time></trkpt><trkpt lat="44.20365194827552" lon="10.063676200289928"><ele>122.0</ele><time>2026-04-26T16:33:50.902Z</time></trkpt><trkpt lat="44.20356419292313" lon="10.063491215963616"><ele>122.0</ele><time>2026-04-26T16:33:51.902Z</time></trkpt><trkpt lat="44.20347550616697" lon="10.063314920336467"><ele>122.0</ele><time>2026-04-26T16:33:52.902Z</time></trkpt><trkpt lat="44.20339922264652" lon="10.06314368589281"><ele>122.0</ele><time>2026-04-26T16:33:53.902Z</time></trkpt><trkpt lat="44.2033358803502" lon="10.062969877745465"><ele>122.0</ele><time>2026-04-26T16:33:54.902Z</time></trkpt><trkpt lat="44.2032803602893" lon="10.062784303636137"><ele>120.75</ele><time>2026-04-26T16:33:55.902Z</time></trkpt><trkpt lat="44.20323060763606" lon="10.062597559797439"><ele>119.5</ele><time>2026-04-26T16:33:56.902Z</time></trkpt><trkpt lat="44.2031738772647" lon="10.062415546972973"><ele>118.25</ele><time>2026-04-26T16:33:57.902Z</time></trkpt><trkpt lat="44.203107588318304" lon="10.062227021987018"><ele>117.0</ele><time>2026-04-26T16:33:58.902Z</time></trkpt><trkpt lat="44.20303338525151" lon="10.062036972330096"><ele>117.0</ele><time>2026-04-26T16:33:59.902Z</time></trkpt><trkpt lat="44.20296071700231" lon="10.061841099304514"><ele>117.0</ele><time>2026-04-26T16:34:00.902Z</time></trkpt><trkpt lat="44.202888045484535" lon="10.06164423552756"><ele>117.0</ele><time>2026-04-26T16:34:01.902Z</time></trkpt><trkpt lat="44.202816336763206" lon="10.061451137537341"><ele>120.0</ele><time>2026-04-26T16:34:02.902Z</time></trkpt><trkpt lat="44.202751305019945" lon="10.061260946770494"><ele>123.0</ele><time>2026-04-26T16:34:03.902Z</time></trkpt><trkpt lat="44.20268918375417" lon="10.06106205678111"><ele>126.0</ele><time>2026-04-26T16:34:04.902Z</time></trkpt><trkpt lat="44.20261983680847" lon="10.060865347234602"><ele>130.66666666666666</ele><time>2026-04-26T16:34:05.902Z</time></trkpt><trkpt lat="44.20254250536102" lon="10.060669803961051"><ele>135.33333333333331</ele><time>2026-04-26T16:34:06.902Z</time></trkpt><trkpt lat="44.20246303238049" lon="10.060484207127654"><ele>140.0</ele><time>2026-04-26T16:34:07.902Z</time></trkpt><trkpt lat="44.202379181010144" lon="10.060302056090068"><ele>136.66666666666666</ele><time>2026-04-26T16:34:08.902Z</time></trkpt><trkpt lat="44.20229365316136" lon="10.060122258596188"><ele>133.33333333333334</ele><time>2026-04-26T16:34:09.902Z</time></trkpt><trkpt lat="44.20220352569854" lon="10.05993962662183"><ele>130.0</ele><time>2026-04-26T16:34:10.902Z</time></trkpt><trkpt lat="44.20211646879326" lon="10.059760307210253"><ele>130.0</ele><time>2026-04-26T16:34:11.902Z</time></trkpt><trkpt lat="44.20202817604803" lon="10.059579010852486"><ele>130.0</ele><time>2026-04-26T16:34:12.902Z</time></trkpt><trkpt lat="44.20193896336297" lon="10.059408733543195"><ele>130.0</ele><time>2026-04-26T16:34:13.902Z</time></trkpt><trkpt lat="44.20183620116706" lon="10.059258243704209"><ele>130.0</ele><time>2026-04-26T16:34:14.902Z</time></trkpt><trkpt lat="44.20172113096246" lon="10.059119092718788"><ele>130.0</ele><time>2026-04-26T16:34:15.902Z</time></trkpt><trkpt lat="44.2016041473823" lon="10.058984604300088"><ele>130.0</ele><time>2026-04-26T16:34:16.902Z</time></trkpt><trkpt lat="44.20149148712936" lon="10.058859841395625"><ele>130.0</ele><time>2026-04-26T16:34:17.902Z</time></trkpt><trkpt lat="44.20139458777581" lon="10.058748342171103"><ele>128.75</ele><time>2026-04-26T16:34:18.902Z</time></trkpt><trkpt lat="44.20130341012637" lon="10.058649077886162"><ele>127.5</ele><time>2026-04-26T16:34:19.902Z</time></trkpt><trkpt lat="44.20121831646059" lon="10.05853534488395"><ele>126.25</ele><time>2026-04-26T16:34:20.902Z</time></trkpt><trkpt lat="44.20114682173879" lon="10.058416151749979"><ele>125.0</ele><time>2026-04-26T16:34:21.902Z</time></trkpt><trkpt lat="44.20109525259881" lon="10.058280921690459"><ele>125.0</ele><time>2026-04-26T16:34:22.902Z</time></trkpt><trkpt lat="44.201054805246066" lon="10.058139054582885"><ele>125.0</ele><time>2026-04-26T16:34:23.902Z</time></trkpt><trkpt lat="44.201006774687635" lon="10.058007233102702"><ele>125.0</ele><time>2026-04-26T16:34:24.902Z</time></trkpt><trkpt lat="44.200966196668624" lon="10.05786475957968"><ele>125.0</ele><time>2026-04-26T16:34:25.902Z</time></trkpt><trkpt lat="44.20092240293341" lon="10.057724938436866"><ele>125.0</ele><time>2026-04-26T16:34:26.902Z</time></trkpt><trkpt lat="44.20088536944833" lon="10.057582205950848"><ele>126.75</ele><time>2026-04-26T16:34:27.902Z</time></trkpt><trkpt lat="44.200846272923755" lon="10.057436183988068"><ele>128.5</ele><time>2026-04-26T16:34:28.902Z</time></trkpt><trkpt lat="44.20080010947088" lon="10.05729171384347"><ele>130.25</ele><time>2026-04-26T16:34:29.902Z</time></trkpt><trkpt lat="44.20075664295782" lon="10.057144839785622"><ele>132.0</ele><time>2026-04-26T16:34:30.901Z</time></trkpt><trkpt lat="44.200716595459255" lon="10.056994544757773"><ele>132.0</ele><time>2026-04-26T16:34:31.901Z</time></trkpt><trkpt lat="44.20068131859376" lon="10.056840331566427"><ele>132.0</ele><time>2026-04-26T16:34:32.901Z</time></trkpt><trkpt lat="44.200641011713934" lon="10.056687074293892"><ele>132.0</ele><time>2026-04-26T16:34:33.901Z</time></trkpt><trkpt lat="44.2006007102176" lon="10.056538096534505"><ele>132.0</ele><time>2026-04-26T16:34:34.901Z</time></trkpt><trkpt lat="44.200559215503795" lon="10.05639337829287"><ele>128.79999999999998</ele><time>2026-04-26T16:34:35.901Z</time></trkpt><trkpt lat="44.20051659682624" lon="10.056251961437436"><ele>125.6</ele><time>2026-04-26T16:34:36.901Z</time></trkpt><trkpt lat="44.200477250866555" lon="10.056109805240151"><ele>122.39999999999999</ele><time>2026-04-26T16:34:37.901Z</time></trkpt><trkpt lat="44.20045399286789" lon="10.055966401462095"><ele>119.19999999999999</ele><time>2026-04-26T16:34:38.901Z</time></trkpt><trkpt lat="44.2004535142165" lon="10.055812638871576"><ele>116.0</ele><time>2026-04-26T16:34:39.901Z</time></trkpt><trkpt lat="44.20045965875939" lon="10.05564893264761"><ele>116.0</ele><time>2026-04-26T16:34:40.901Z</time></trkpt><trkpt lat="44.20048083101203" lon="10.05546136520355"><ele>116.0</ele><time>2026-04-26T16:34:41.901Z</time></trkpt><trkpt lat="44.200490329086705" lon="10.055255354309587"><ele>116.0</ele><time>2026-04-26T16:34:42.902Z</time></trkpt><trkpt lat="44.20049713634793" lon="10.05503862354056"><ele>116.0</ele><time>2026-04-26T16:34:43.901Z</time></trkpt><trkpt lat="44.20050782318578" lon="10.054812754989282"><ele>115.5</ele><time>2026-04-26T16:34:44.901Z</time></trkpt><trkpt lat="44.20051995566818" lon="10.054602165301535"><ele>115.0</ele><time>2026-04-26T16:34:45.901Z</time></trkpt><trkpt lat="44.20053234728136" lon="10.054401207840684"><ele>114.5</ele><time>2026-04-26T16:34:46.901Z</time></trkpt><trkpt lat="44.200542313803055" lon="10.054211045851343"><ele>114.0</ele><time>2026-04-26T16:34:47.901Z</time></trkpt><trkpt lat="44.20055113375798" lon="10.054036581253825"><ele>114.0</ele><time>2026-04-26T16:34:48.901Z</time></trkpt><trkpt lat="44.2005606277214" lon="10.05387575648614"><ele>114.0</ele><time>2026-04-26T16:34:49.901Z</time></trkpt><trkpt lat="44.20057239602179" lon="10.053729465334396"><ele>114.0</ele><time>2026-04-26T16:34:50.901Z</time></trkpt><trkpt lat="44.2005860572283" lon="10.053600047913463"><ele>114.0</ele><time>2026-04-26T16:34:51.901Z</time></trkpt><trkpt lat="44.20059219075698" lon="10.053475733259905"><ele>114.0</ele><time>2026-04-26T16:34:52.901Z</time></trkpt><trkpt lat="44.20059878552231" lon="10.053361461509319"><ele>114.16666666666667</ele><time>2026-04-26T16:34:53.901Z</time></trkpt><trkpt lat="44.20060556333688" lon="10.053244421554108"><ele>114.33333333333334</ele><time>2026-04-26T16:34:54.901Z</time></trkpt><trkpt lat="44.2006172120346" lon="10.053143726532708"><ele>114.5</ele><time>2026-04-26T16:34:55.901Z</time></trkpt><trkpt lat="44.20062478728676" lon="10.053037199119533"><ele>114.66666666666667</ele><time>2026-04-26T16:34:56.901Z</time></trkpt><trkpt lat="44.200634367723296" lon="10.052920160992338"><ele>114.83333333333334</ele><time>2026-04-26T16:34:57.901Z</time></trkpt><trkpt lat="44.200641179701236" lon="10.052806102784434"><ele>115.0</ele><time>2026-04-26T16:34:58.901Z</time></trkpt><trkpt lat="44.20065046922022" lon="10.052688136673897"><ele>115.00000000000001</ele><time>2026-04-26T16:34:59.901Z</time></trkpt><trkpt lat="44.20066085137715" lon="10.052578879826758"><ele>115.0</ele><time>2026-04-26T16:35:00.901Z</time></trkpt><trkpt lat="44.200666593448844" lon="10.052465940276326"><ele>115.0</ele><time>2026-04-26T16:35:01.901Z</time></trkpt><trkpt lat="44.200670365038064" lon="10.052355286823412"><ele>115.0</ele><time>2026-04-26T16:35:02.901Z</time></trkpt><trkpt lat="44.20067303154589" lon="10.052253719469885"><ele>115.00000000000001</ele><time>2026-04-26T16:35:03.901Z</time></trkpt><trkpt lat="44.20066814467526" lon="10.052150129637718"><ele>115.0</ele><time>2026-04-26T16:35:04.901Z</time></trkpt><trkpt lat="44.200656411047284" lon="10.052022110180086"><ele>115.0</ele><time>2026-04-26T16:35:05.901Z</time></trkpt><trkpt lat="44.20064026907215" lon="10.05186741730666"><ele>115.0</ele><time>2026-04-26T16:35:06.901Z</time></trkpt><trkpt lat="44.20060294042369" lon="10.051697975787677"><ele>115.0</ele><time>2026-04-26T16:35:07.901Z</time></trkpt><trkpt lat="44.2005518198831" lon="10.051531272367106"><ele>115.0</ele><time>2026-04-26T16:35:08.901Z</time></trkpt><trkpt lat="44.20049139739063" lon="10.05134305029152"><ele>114.5</ele><time>2026-04-26T16:35:09.901Z</time></trkpt><trkpt lat="44.20042821410917" lon="10.051151254332021"><ele>114.0</ele><time>2026-04-26T16:35:10.901Z</time></trkpt><trkpt lat="44.200366382393455" lon="10.050956247104642"><ele>113.5</ele><time>2026-04-26T16:35:11.901Z</time></trkpt><trkpt lat="44.20030494729775" lon="10.050777543475595"><ele>113.0</ele><time>2026-04-26T16:35:12.901Z</time></trkpt><trkpt lat="44.20025151881403" lon="10.050611815882144"><ele>112.75</ele><time>2026-04-26T16:35:13.901Z</time></trkpt><trkpt lat="44.20020002291108" lon="10.050455844900045"><ele>112.5</ele><time>2026-04-26T16:35:14.901Z</time></trkpt><trkpt lat="44.20014463039276" lon="10.05031823225112"><ele>112.25</ele><time>2026-04-26T16:35:15.901Z</time></trkpt><trkpt lat="44.20007314464646" lon="10.05020743443651"><ele>112.0</ele><time>2026-04-26T16:35:16.901Z</time></trkpt><trkpt lat="44.199965641960624" lon="10.05013718179441"><ele>112.0</ele><time>2026-04-26T16:35:17.901Z</time></trkpt><trkpt lat="44.19984543463854" lon="10.050065938659243"><ele>112.0</ele><time>2026-04-26T16:35:18.901Z</time></trkpt><trkpt lat="44.19971567421951" lon="10.049968363758627"><ele>112.0</ele><time>2026-04-26T16:35:19.901Z</time></trkpt><trkpt lat="44.19958923085071" lon="10.049849234333054"><ele>112.0</ele><time>2026-04-26T16:35:20.901Z</time></trkpt><trkpt lat="44.19946707088881" lon="10.049713637363283"><ele>109.66666666666667</ele><time>2026-04-26T16:35:21.901Z</time></trkpt><trkpt lat="44.19935767423417" lon="10.04955421453911"><ele>107.33333333333334</ele><time>2026-04-26T16:35:22.901Z</time></trkpt><trkpt lat="44.19925007342941" lon="10.049374580205598"><ele>105.0</ele><time>2026-04-26T16:35:23.901Z</time></trkpt><trkpt lat="44.19915401055159" lon="10.049167844057687"><ele>105.33333333333334</ele><time>2026-04-26T16:35:24.901Z</time></trkpt><trkpt lat="44.19907276053296" lon="10.048950649350594"><ele>105.66666666666667</ele><time>2026-04-26T16:35:25.901Z</time></trkpt><trkpt lat="44.19900331830035" lon="10.048731181065065"><ele>106.0</ele><time>2026-04-26T16:35:26.901Z</time></trkpt><trkpt lat="44.19894036501943" lon="10.048504119743532"><ele>105.0</ele><time>2026-04-26T16:35:27.901Z</time></trkpt><trkpt lat="44.19887727744211" lon="10.048269071169278"><ele>104.0</ele><time>2026-04-26T16:35:28.901Z</time></trkpt><trkpt lat="44.19881074174223" lon="10.048029752979364"><ele>103.0</ele><time>2026-04-26T16:35:29.901Z</time></trkpt><trkpt lat="44.198743940500464" lon="10.047789028247397"><ele>103.0</ele><time>2026-04-26T16:35:30.901Z</time></trkpt><trkpt lat="44.19867571522564" lon="10.047549510097719"><ele>103.0</ele><time>2026-04-26T16:35:31.901Z</time></trkpt><trkpt lat="44.198607352310525" lon="10.047309087317318"><ele>103.0</ele><time>2026-04-26T16:35:32.901Z</time></trkpt><trkpt lat="44.19854178844098" lon="10.047070814575479"><ele>103.0</ele><time>2026-04-26T16:35:33.901Z</time></trkpt><trkpt lat="44.1984759113346" lon="10.046830774359224"><ele>103.0</ele><time>2026-04-26T16:35:34.901Z</time></trkpt><trkpt lat="44.19841495599259" lon="10.046587519573977"><ele>103.0</ele><time>2026-04-26T16:35:35.901Z</time></trkpt><trkpt lat="44.19836791133337" lon="10.046333824056783"><ele>103.0</ele><time>2026-04-26T16:35:36.901Z</time></trkpt><trkpt lat="44.19834070809689" lon="10.046072661791586"><ele>103.0</ele><time>2026-04-26T16:35:37.901Z</time></trkpt><trkpt lat="44.19833374215431" lon="10.045810169776283"><ele>103.0</ele><time>2026-04-26T16:35:38.901Z</time></trkpt><trkpt lat="44.198348991827494" lon="10.04553870267766"><ele>103.33333333333334</ele><time>2026-04-26T16:35:39.901Z</time></trkpt><trkpt lat="44.19837843853978" lon="10.04527033964175"><ele>103.66666666666666</ele><time>2026-04-26T16:35:40.901Z</time></trkpt><trkpt lat="44.198403122885296" lon="10.045003033386324"><ele>104.0</ele><time>2026-04-26T16:35:41.901Z</time></trkpt><trkpt lat="44.1984058027849" lon="10.044732522892623"><ele>104.0</ele><time>2026-04-26T16:35:42.901Z</time></trkpt><trkpt lat="44.19838361413573" lon="10.044466897404723"><ele>104.0</ele><time>2026-04-26T16:35:43.901Z</time></trkpt><trkpt lat="44.19834526774162" lon="10.044202374048465"><ele>104.0</ele><time>2026-04-26T16:35:44.901Z</time></trkpt><trkpt lat="44.19830641994059" lon="10.043934344194634"><ele>104.0</ele><time>2026-04-26T16:35:45.901Z</time></trkpt><trkpt lat="44.19828234535559" lon="10.043665114670375"><ele>104.0</ele><time>2026-04-26T16:35:46.901Z</time></trkpt><trkpt lat="44.19827447712286" lon="10.043402971960056"><ele>104.0</ele><time>2026-04-26T16:35:47.901Z</time></trkpt><trkpt lat="44.19829612020797" lon="10.043139782967852"><ele>104.0</ele><time>2026-04-26T16:35:48.901Z</time></trkpt><trkpt lat="44.19833572248467" lon="10.042880437127232"><ele>104.0</ele><time>2026-04-26T16:35:49.901Z</time></trkpt><trkpt lat="44.19839189178652" lon="10.042619937157971"><ele>104.0</ele><time>2026-04-26T16:35:50.901Z</time></trkpt><trkpt lat="44.19846372886645" lon="10.04235785184207"><ele>103.0</ele><time>2026-04-26T16:35:51.901Z</time></trkpt><trkpt lat="44.19853665860312" lon="10.04209119833587"><ele>102.0</ele><time>2026-04-26T16:35:52.901Z</time></trkpt><trkpt lat="44.19860889648338" lon="10.04182764065575"><ele>101.0</ele><time>2026-04-26T16:35:53.901Z</time></trkpt><trkpt lat="44.19868291036647" lon="10.041558158394984"><ele>101.0</ele><time>2026-04-26T16:35:54.901Z</time></trkpt><trkpt lat="44.19875584670364" lon="10.04128576584299"><ele>101.0</ele><time>2026-04-26T16:35:55.901Z</time></trkpt><trkpt lat="44.19883003390651" lon="10.041013942427483"><ele>101.0</ele><time>2026-04-26T16:35:56.901Z</time></trkpt><trkpt lat="44.1989035517103" lon="10.040747150767741"><ele>101.0</ele><time>2026-04-26T16:35:57.901Z</time></trkpt><trkpt lat="44.198972732292745" lon="10.040481156332156"><ele>101.0</ele><time>2026-04-26T16:35:58.901Z</time></trkpt><trkpt lat="44.199041013645925" lon="10.04021828224253"><ele>101.0</ele><time>2026-04-26T16:35:59.901Z</time></trkpt><trkpt lat="44.199111128431944" lon="10.0399700461022"><ele>100.66666666666666</ele><time>2026-04-26T16:36:00.901Z</time></trkpt><trkpt lat="44.19917635424414" lon="10.039735600017462"><ele>100.33333333333334</ele><time>2026-04-26T16:36:01.901Z</time></trkpt><trkpt lat="44.19924995742054" lon="10.039506896885303"><ele>100.0</ele><time>2026-04-26T16:36:02.901Z</time></trkpt><trkpt lat="44.19933715375258" lon="10.039281138936751"><ele>99.0</ele><time>2026-04-26T16:36:03.901Z</time></trkpt><trkpt lat="44.19943608182769" lon="10.039062261783117"><ele>98.0</ele><time>2026-04-26T16:36:04.901Z</time></trkpt><trkpt lat="44.19954232148225" lon="10.038849778660204"><ele>97.0</ele><time>2026-04-26T16:36:05.901Z</time></trkpt><trkpt lat="44.199657030972766" lon="10.038646388404876"><ele>97.0</ele><time>2026-04-26T16:36:06.901Z</time></trkpt><trkpt lat="44.199786686828155" lon="10.03846152576548"><ele>97.0</ele><time>2026-04-26T16:36:07.901Z</time></trkpt><trkpt lat="44.19993004798781" lon="10.038295792792383"><ele>97.0</ele><time>2026-04-26T16:36:08.901Z</time></trkpt><trkpt lat="44.20007626933997" lon="10.038144101905598"><ele>97.33333333333334</ele><time>2026-04-26T16:36:09.901Z</time></trkpt><trkpt lat="44.2002071542103" lon="10.037975665713239"><ele>97.66666666666666</ele><time>2026-04-26T16:36:10.901Z</time></trkpt><trkpt lat="44.200332758609775" lon="10.037786598598762"><ele>98.0</ele><time>2026-04-26T16:36:11.901Z</time></trkpt><trkpt lat="44.20045147356803" lon="10.037578587082118"><ele>97.0</ele><time>2026-04-26T16:36:12.901Z</time></trkpt><trkpt lat="44.20056678750128" lon="10.037349339112026"><ele>96.0</ele><time>2026-04-26T16:36:13.901Z</time></trkpt><trkpt lat="44.200686792040635" lon="10.037127187022017"><ele>95.0</ele><time>2026-04-26T16:36:14.901Z</time></trkpt><trkpt lat="44.200806804831146" lon="10.036900688910146"><ele>96.33333333333334</ele><time>2026-04-26T16:36:15.901Z</time></trkpt><trkpt lat="44.200929571481616" lon="10.036673634747467"><ele>97.66666666666667</ele><time>2026-04-26T16:36:16.901Z</time></trkpt><trkpt lat="44.20104491779214" lon="10.036448172424702"><ele>99.0</ele><time>2026-04-26T16:36:17.901Z</time></trkpt><trkpt lat="44.201147485605354" lon="10.036210905496675"><ele>99.0</ele><time>2026-04-26T16:36:18.901Z</time></trkpt><trkpt lat="44.20123972323229" lon="10.035967995031255"><ele>99.0</ele><time>2026-04-26T16:36:19.901Z</time></trkpt><trkpt lat="44.20132446373559" lon="10.035724956448425"><ele>99.0</ele><time>2026-04-26T16:36:20.901Z</time></trkpt><trkpt lat="44.20140704047235" lon="10.035477801240313"><ele>99.0</ele><time>2026-04-26T16:36:21.901Z</time></trkpt><trkpt lat="44.20149045800777" lon="10.035227753337523"><ele>99.0</ele><time>2026-04-26T16:36:22.901Z</time></trkpt><trkpt lat="44.20157216285337" lon="10.03497988500757"><ele>99.0</ele><time>2026-04-26T16:36:23.901Z</time></trkpt><trkpt lat="44.20165240297526" lon="10.03473462130847"><ele>98.33333333333334</ele><time>2026-04-26T16:36:24.901Z</time></trkpt><trkpt lat="44.20172964943345" lon="10.034493050632083"><ele>97.66666666666667</ele><time>2026-04-26T16:36:25.901Z</time></trkpt><trkpt lat="44.201806307846944" lon="10.034254861950593"><ele>97.0</ele><time>2026-04-26T16:36:26.902Z</time></trkpt><trkpt lat="44.20188096755345" lon="10.034023978419961"><ele>96.66666666666667</ele><time>2026-04-26T16:36:27.902Z</time></trkpt><trkpt lat="44.20195128245396" lon="10.033813666208875"><ele>96.33333333333334</ele><time>2026-04-26T16:36:28.902Z</time></trkpt><trkpt lat="44.202018591700316" lon="10.03361894855336"><ele>96.0</ele><time>2026-04-26T16:36:29.902Z</time></trkpt><trkpt lat="44.2020828809161" lon="10.033429733820821"><ele>95.5</ele><time>2026-04-26T16:36:30.902Z</time></trkpt><trkpt lat="44.202142022279816" lon="10.033251076153709"><ele>95.0</ele><time>2026-04-26T16:36:31.902Z</time></trkpt><trkpt lat="44.20219972345053" lon="10.033074618091002"><ele>94.5</ele><time>2026-04-26T16:36:32.902Z</time></trkpt><trkpt lat="44.202259186090544" lon="10.032902071845754"><ele>94.0</ele><time>2026-04-26T16:36:33.902Z</time></trkpt><trkpt lat="44.20232056611249" lon="10.032734834180694"><ele>94.5</ele><time>2026-04-26T16:36:34.902Z</time></trkpt><trkpt lat="44.202377312206956" lon="10.03257275935814"><ele>95.0</ele><time>2026-04-26T16:36:35.902Z</time></trkpt><trkpt lat="44.202431257788454" lon="10.032412368113691"><ele>95.5</ele><time>2026-04-26T16:36:36.9Z</time></trkpt><trkpt lat="44.20248573366985" lon="10.03225411873596"><ele>96.0</ele><time>2026-04-26T16:36:37.9Z</time></trkpt><trkpt lat="44.20253768710947" lon="10.032095776888006"><ele>96.0</ele><time>2026-04-26T16:36:38.9Z</time></trkpt><trkpt lat="44.20258953763099" lon="10.031934153272356"><ele>96.0</ele><time>2026-04-26T16:36:39.9Z</time></trkpt><trkpt lat="44.202644188619615" lon="10.03177275064951"><ele>96.0</ele><time>2026-04-26T16:36:40.901Z</time></trkpt><trkpt lat="44.202696949996756" lon="10.031611461625552"><ele>96.0</ele><time>2026-04-26T16:36:41.901Z</time></trkpt><trkpt lat="44.202750256774245" lon="10.031451651589585"><ele>95.5</ele><time>2026-04-26T16:36:42.9Z</time></trkpt><trkpt lat="44.20280372326092" lon="10.0312909516401"><ele>95.0</ele><time>2026-04-26T16:36:43.9Z</time></trkpt><trkpt lat="44.202859649994586" lon="10.031130489414648"><ele>94.5</ele><time>2026-04-26T16:36:44.9Z</time></trkpt><trkpt lat="44.202915848204995" lon="10.030968331126129"><ele>94.0</ele><time>2026-04-26T16:36:45.9Z</time></trkpt><trkpt lat="44.2029694515667" lon="10.03080707100152"><ele>93.5</ele><time>2026-04-26T16:36:46.9Z</time></trkpt><trkpt lat="44.203022691247114" lon="10.03065022920622"><ele>93.0</ele><time>2026-04-26T16:36:47.9Z</time></trkpt><trkpt lat="44.203073950817405" lon="10.030496920257312"><ele>92.5</ele><time>2026-04-26T16:36:48.9Z</time></trkpt><trkpt lat="44.20312512545731" lon="10.030341256895818"><ele>92.0</ele><time>2026-04-26T16:36:49.9Z</time></trkpt><trkpt lat="44.203173539123604" lon="10.030186655036454"><ele>92.19999999999999</ele><time>2026-04-26T16:36:50.9Z</time></trkpt><trkpt lat="44.203219600739146" lon="10.03004556884493"><ele>92.4</ele><time>2026-04-26T16:36:51.9Z</time></trkpt><trkpt lat="44.20326399774509" lon="10.029905639934025"><ele>92.6</ele><time>2026-04-26T16:36:52.9Z</time></trkpt><trkpt lat="44.20329562040825" lon="10.029760373263981"><ele>92.80000000000001</ele><time>2026-04-26T16:36:53.9Z</time></trkpt><trkpt lat="44.203305344185274" lon="10.02961942606819"><ele>93.0</ele><time>2026-04-26T16:36:54.9Z</time></trkpt><trkpt lat="44.20329672488778" lon="10.02948599664749"><ele>93.0</ele><time>2026-04-26T16:36:55.9Z</time></trkpt><trkpt lat="44.20326466725635" lon="10.029356101344133"><ele>93.0</ele><time>2026-04-26T16:36:56.9Z</time></trkpt><trkpt lat="44.20319627661636" lon="10.029235538312038"><ele>93.0</ele><time>2026-04-26T16:36:57.9Z</time></trkpt><trkpt lat="44.203113446846615" lon="10.029135279895788"><ele>93.0</ele><time>2026-04-26T16:36:58.9Z</time></trkpt><trkpt lat="44.20300228757958" lon="10.029056754817127"><ele>93.0</ele><time>2026-04-26T16:36:59.9Z</time></trkpt><trkpt lat="44.20289141086302" lon="10.028967025668537"><ele>91.75</ele><time>2026-04-26T16:37:00.9Z</time></trkpt><trkpt lat="44.202781122900184" lon="10.02887402165985"><ele>90.5</ele><time>2026-04-26T16:37:01.9Z</time></trkpt><trkpt lat="44.20266989603744" lon="10.028790175362905"><ele>89.25</ele><time>2026-04-26T16:37:02.9Z</time></trkpt><trkpt lat="44.202560890905254" lon="10.028700676389208"><ele>88.0</ele><time>2026-04-26T16:37:03.9Z</time></trkpt><trkpt lat="44.20245856846802" lon="10.02860880099363"><ele>88.0</ele><time>2026-04-26T16:37:04.9Z</time></trkpt><trkpt lat="44.202359828842745" lon="10.02852183848777"><ele>88.0</ele><time>2026-04-26T16:37:05.9Z</time></trkpt><trkpt lat="44.202266950960286" lon="10.02844028924594"><ele>88.0</ele><time>2026-04-26T16:37:06.9Z</time></trkpt><trkpt lat="44.202181319803906" lon="10.028352716068648"><ele>88.0</ele><time>2026-04-26T16:37:07.9Z</time></trkpt><trkpt lat="44.202111103199776" lon="10.028239629204602"><ele>88.0</ele><time>2026-04-26T16:37:08.9Z</time></trkpt><trkpt lat="44.202058537171006" lon="10.028096768005867"><ele>91.75</ele><time>2026-04-26T16:37:09.9Z</time></trkpt><trkpt lat="44.20204106393204" lon="10.027928266363672"><ele>95.5</ele><time>2026-04-26T16:37:10.9Z</time></trkpt><trkpt lat="44.202052775051065" lon="10.027753514342342"><ele>99.25</ele><time>2026-04-26T16:37:11.9Z</time></trkpt><trkpt lat="44.20209170992664" lon="10.027577606190665"><ele>103.0</ele><time>2026-04-26T16:37:12.9Z</time></trkpt><trkpt lat="44.20213801963258" lon="10.02739983536922"><ele>105.5</ele><time>2026-04-26T16:37:13.9Z</time></trkpt><trkpt lat="44.20218487846559" lon="10.027215311350071"><ele>108.0</ele><time>2026-04-26T16:37:14.9Z</time></trkpt><trkpt lat="44.20222977037162" lon="10.027032133546369"><ele>110.5</ele><time>2026-04-26T16:37:15.9Z</time></trkpt><trkpt lat="44.202272312712296" lon="10.026845694864093"><ele>113.0</ele><time>2026-04-26T16:37:16.9Z</time></trkpt><trkpt lat="44.20230301021222" lon="10.026654373531084"><ele>112.75</ele><time>2026-04-26T16:37:17.9Z</time></trkpt><trkpt lat="44.20230887943922" lon="10.026462917150232"><ele>112.5</ele><time>2026-04-26T16:37:18.9Z</time></trkpt><trkpt lat="44.20229145888323" lon="10.026278533212361"><ele>112.25</ele><time>2026-04-26T16:37:19.9Z</time></trkpt><trkpt lat="44.202257037310325" lon="10.026100474499843"><ele>112.0</ele><time>2026-04-26T16:37:20.9Z</time></trkpt><trkpt lat="44.202214930345704" lon="10.025927410552026"><ele>111.0</ele><time>2026-04-26T16:37:21.9Z</time></trkpt><trkpt lat="44.202183413968505" lon="10.025765227722808"><ele>110.0</ele><time>2026-04-26T16:37:22.9Z</time></trkpt><trkpt lat="44.20215161112326" lon="10.025602309780227"><ele>109.0</ele><time>2026-04-26T16:37:23.9Z</time></trkpt><trkpt lat="44.20212253552624" lon="10.025442822780905"><ele>108.0</ele><time>2026-04-26T16:37:24.9Z</time></trkpt><trkpt lat="44.202088142557606" lon="10.02527596049434"><ele>108.0</ele><time>2026-04-26T16:37:25.9Z</time></trkpt><trkpt lat="44.20204991066528" lon="10.025105405197364"><ele>108.0</ele><time>2026-04-26T16:37:26.9Z</time></trkpt><trkpt lat="44.20201188150107" lon="10.024935944459683"><ele>108.0</ele><time>2026-04-26T16:37:27.9Z</time></trkpt><trkpt lat="44.20198189273811" lon="10.024786340812444"><ele>108.0</ele><time>2026-04-26T16:37:28.9Z</time></trkpt><trkpt lat="44.20195308741652" lon="10.02465033308236"><ele>107.2</ele><time>2026-04-26T16:37:29.9Z</time></trkpt><trkpt lat="44.20192765023203" lon="10.024503471479012"><ele>106.4</ele><time>2026-04-26T16:37:30.9Z</time></trkpt><trkpt lat="44.20190696563695" lon="10.024352270210294"><ele>105.60000000000001</ele><time>2026-04-26T16:37:31.9Z</time></trkpt><trkpt lat="44.2018775932421" lon="10.024210707304924"><ele>104.80000000000001</ele><time>2026-04-26T16:37:32.9Z</time></trkpt><trkpt lat="44.20184650263764" lon="10.024061551898546"><ele>104.0</ele><time>2026-04-26T16:37:33.9Z</time></trkpt><trkpt lat="44.20181491553603" lon="10.023913568639813"><ele>102.75</ele><time>2026-04-26T16:37:34.9Z</time></trkpt><trkpt lat="44.201786891982785" lon="10.023756261619035"><ele>101.5</ele><time>2026-04-26T16:37:35.9Z</time></trkpt><trkpt lat="44.20175071165187" lon="10.023590819230781"><ele>100.25</ele><time>2026-04-26T16:37:36.9Z</time></trkpt><trkpt lat="44.201715623113714" lon="10.023411392996994"><ele>99.0</ele><time>2026-04-26T16:37:37.9Z</time></trkpt><trkpt lat="44.20167905418144" lon="10.023226668021776"><ele>98.25</ele><time>2026-04-26T16:37:38.9Z</time></trkpt><trkpt lat="44.20164253396911" lon="10.023039534412007"><ele>97.5</ele><time>2026-04-26T16:37:39.9Z</time></trkpt><trkpt lat="44.20160201520553" lon="10.022855406251752"><ele>96.75</ele><time>2026-04-26T16:37:40.9Z</time></trkpt><trkpt lat="44.20157197850699" lon="10.02266492410891"><ele>96.0</ele><time>2026-04-26T16:37:41.9Z</time></trkpt><trkpt lat="44.201551642581784" lon="10.022457779336838"><ele>96.0</ele><time>2026-04-26T16:37:42.9Z</time></trkpt><trkpt lat="44.20154009252232" lon="10.022240482953386"><ele>96.0</ele><time>2026-04-26T16:37:43.9Z</time></trkpt><trkpt lat="44.20153360779263" lon="10.022018640227868"><ele>96.0</ele><time>2026-04-26T16:37:44.9Z</time></trkpt><trkpt lat="44.20152214960584" lon="10.0217995138227"><ele>95.5</ele><time>2026-04-26T16:37:45.9Z</time></trkpt><trkpt lat="44.20151283965229" lon="10.021589622686587"><ele>95.0</ele><time>2026-04-26T16:37:46.9Z</time></trkpt><trkpt lat="44.20150320018569" lon="10.021385547838678"><ele>94.5</ele><time>2026-04-26T16:37:47.9Z</time></trkpt><trkpt lat="44.201499774335744" lon="10.021181699900149"><ele>94.0</ele><time>2026-04-26T16:37:48.9Z</time></trkpt><trkpt lat="44.201493165600276" lon="10.020981378413628"><ele>96.5</ele><time>2026-04-26T16:37:49.9Z</time></trkpt><trkpt lat="44.201486419113984" lon="10.020784550996416"><ele>99.0</ele><time>2026-04-26T16:37:50.9Z</time></trkpt><trkpt lat="44.201476756848436" lon="10.020584202959096"><ele>101.5</ele><time>2026-04-26T16:37:51.9Z</time></trkpt><trkpt lat="44.20146729619735" lon="10.02039185302825"><ele>104.0</ele><time>2026-04-26T16:37:52.9Z</time></trkpt><trkpt lat="44.20146044516933" lon="10.020199693705953"><ele>104.0</ele><time>2026-04-26T16:37:53.9Z</time></trkpt><trkpt lat="44.20145139887164" lon="10.020008882705003"><ele>104.0</ele><time>2026-04-26T16:37:54.9Z</time></trkpt><trkpt lat="44.201439169054865" lon="10.019809507629978"><ele>104.0</ele><time>2026-04-26T16:37:55.9Z</time></trkpt><trkpt lat="44.201431791074974" lon="10.019614146915641"><ele>104.0</ele><time>2026-04-26T16:37:56.9Z</time></trkpt><trkpt lat="44.20142402013583" lon="10.019420376509853"><ele>104.75</ele><time>2026-04-26T16:37:57.9Z</time></trkpt><trkpt lat="44.20141794559277" lon="10.019224526004264"><ele>105.5</ele><time>2026-04-26T16:37:58.9Z</time></trkpt><trkpt lat="44.201410928524936" lon="10.019025833954695"><ele>106.25</ele><time>2026-04-26T16:37:59.9Z</time></trkpt><trkpt lat="44.201404430271644" lon="10.01883247270324"><ele>107.0</ele><time>2026-04-26T16:38:00.9Z</time></trkpt><trkpt lat="44.20139912729205" lon="10.018641585228092"><ele>105.5</ele><time>2026-04-26T16:38:01.9Z</time></trkpt><trkpt lat="44.201392222098036" lon="10.018456359538634"><ele>104.0</ele><time>2026-04-26T16:38:02.9Z</time></trkpt><trkpt lat="44.2013869626426" lon="10.01828138174077"><ele>102.5</ele><time>2026-04-26T16:38:03.9Z</time></trkpt><trkpt lat="44.20138579020092" lon="10.018121062143324"><ele>101.0</ele><time>2026-04-26T16:38:04.9Z</time></trkpt><trkpt lat="44.20138126789276" lon="10.017968033679976"><ele>100.99999999999999</ele><time>2026-04-26T16:38:05.9Z</time></trkpt><trkpt lat="44.20137480027853" lon="10.017837130153561"><ele>101.0</ele><time>2026-04-26T16:38:06.9Z</time></trkpt><trkpt lat="44.20136873177896" lon="10.017715331686198"><ele>101.0</ele><time>2026-04-26T16:38:07.9Z</time></trkpt><trkpt lat="44.201372433500715" lon="10.017598102859989"><ele>101.0</ele><time>2026-04-26T16:38:08.9Z</time></trkpt><trkpt lat="44.20140151991943" lon="10.01748855630708"><ele>100.99999999999999</ele><time>2026-04-26T16:38:09.9Z</time></trkpt><trkpt lat="44.20144737923126" lon="10.017384313324138"><ele>101.0</ele><time>2026-04-26T16:38:10.9Z</time></trkpt><trkpt lat="44.201512560617594" lon="10.017296086195781"><ele>99.8</ele><time>2026-04-26T16:38:11.9Z</time></trkpt><trkpt lat="44.20159423567875" lon="10.017224039411023"><ele>98.6</ele><time>2026-04-26T16:38:12.9Z</time></trkpt><trkpt lat="44.20168921351581" lon="10.017179372614757"><ele>97.4</ele><time>2026-04-26T16:38:13.9Z</time></trkpt><trkpt lat="44.20179295335092" lon="10.017138330904471"><ele>96.2</ele><time>2026-04-26T16:38:14.9Z</time></trkpt><trkpt lat="44.20190362670183" lon="10.017087366228992"><ele>95.0</ele><time>2026-04-26T16:38:15.9Z</time></trkpt><trkpt lat="44.202015177111655" lon="10.017039504305695"><ele>95.0</ele><time>2026-04-26T16:38:16.9Z</time></trkpt><trkpt lat="44.20212664397928" lon="10.01699354297501"><ele>95.0</ele><time>2026-04-26T16:38:17.9Z</time></trkpt><trkpt lat="44.20223528099063" lon="10.016950375786084"><ele>95.0</ele><time>2026-04-26T16:38:18.9Z</time></trkpt><trkpt lat="44.20234431425632" lon="10.016903455437733"><ele>95.0</ele><time>2026-04-26T16:38:19.9Z</time></trkpt><trkpt lat="44.20245281148184" lon="10.016857934245785"><ele>93.8</ele><time>2026-04-26T16:38:20.9Z</time></trkpt><trkpt lat="44.20256297407405" lon="10.016812377376787"><ele>92.6</ele><time>2026-04-26T16:38:21.9Z</time></trkpt><trkpt lat="44.202673784511155" lon="10.016765195617786"><ele>91.4</ele><time>2026-04-26T16:38:22.9Z</time></trkpt><trkpt lat="44.202778180216065" lon="10.016727855709574"><ele>90.2</ele><time>2026-04-26T16:38:23.9Z</time></trkpt><trkpt lat="44.20288258855642" lon="10.01669286900565"><ele>89.0</ele><time>2026-04-26T16:38:24.9Z</time></trkpt><trkpt lat="44.2029777977622" lon="10.016654809737602"><ele>89.4</ele><time>2026-04-26T16:38:25.9Z</time></trkpt><trkpt lat="44.20306682363506" lon="10.01661528815624"><ele>89.80000000000001</ele><time>2026-04-26T16:38:26.9Z</time></trkpt><trkpt lat="44.20314270339966" lon="10.016581053782794"><ele>90.19999999999999</ele><time>2026-04-26T16:38:27.9Z</time></trkpt><trkpt lat="44.20320736474236" lon="10.016551907425942"><ele>90.6</ele><time>2026-04-26T16:38:28.9Z</time></trkpt><trkpt lat="44.203305726222936" lon="10.016509560158905"><ele>91.0</ele><time>2026-04-26T16:38:30.9Z</time></trkpt><trkpt lat="44.20341728580172" lon="10.016458285361077"><ele>90.19999999999999</ele><time>2026-04-26T16:38:32.9Z</time></trkpt><trkpt lat="44.2034896619052" lon="10.01642868244103"><ele>89.39999999999999</ele><time>2026-04-26T16:38:33.9Z</time></trkpt><trkpt lat="44.20357987521918" lon="10.016392438244289"><ele>88.6</ele><time>2026-04-26T16:38:34.9Z</time></trkpt><trkpt lat="44.20368727206195" lon="10.016343272782722"><ele>87.8</ele><time>2026-04-26T16:38:35.9Z</time></trkpt><trkpt lat="44.20381723880054" lon="10.016290208496866"><ele>87.0</ele><time>2026-04-26T16:38:36.9Z</time></trkpt><trkpt lat="44.20397629972424" lon="10.016223853665029"><ele>86.5</ele><time>2026-04-26T16:38:37.9Z</time></trkpt><trkpt lat="44.204125949905446" lon="10.01616112676442"><ele>86.0</ele><time>2026-04-26T16:38:38.9Z</time></trkpt><trkpt lat="44.204268547804624" lon="10.016101793225888"><ele>85.5</ele><time>2026-04-26T16:38:39.9Z</time></trkpt><trkpt lat="44.20439818464941" lon="10.016049525060238"><ele>85.0</ele><time>2026-04-26T16:38:40.9Z</time></trkpt><trkpt lat="44.20452943961521" lon="10.015990720640952"><ele>85.0</ele><time>2026-04-26T16:38:41.9Z</time></trkpt><trkpt lat="44.20465912004667" lon="10.015939560634681"><ele>85.0</ele><time>2026-04-26T16:38:42.899Z</time></trkpt><trkpt lat="44.20478977371003" lon="10.01588789083096"><ele>85.0</ele><time>2026-04-26T16:38:43.9Z</time></trkpt><trkpt lat="44.204920418810126" lon="10.01583526068555"><ele>85.0</ele><time>2026-04-26T16:38:44.9Z</time></trkpt><trkpt lat="44.2050537984053" lon="10.015781336763917"><ele>84.5</ele><time>2026-04-26T16:38:45.9Z</time></trkpt><trkpt lat="44.20518864766759" lon="10.015723818283266"><ele>84.0</ele><time>2026-04-26T16:38:46.899Z</time></trkpt><trkpt lat="44.20532902830548" lon="10.015664670092269"><ele>83.5</ele><time>2026-04-26T16:38:47.899Z</time></trkpt><trkpt lat="44.20546563012775" lon="10.015600676896877"><ele>83.0</ele><time>2026-04-26T16:38:48.899Z</time></trkpt><trkpt lat="44.20559878811742" lon="10.015519121858429"><ele>82.75</ele><time>2026-04-26T16:38:49.899Z</time></trkpt><trkpt lat="44.20572142172974" lon="10.015407341632908"><ele>82.5</ele><time>2026-04-26T16:38:50.899Z</time></trkpt><trkpt lat="44.20583679312742" lon="10.01527897353827"><ele>82.25</ele><time>2026-04-26T16:38:51.899Z</time></trkpt><trkpt lat="44.20593737453352" lon="10.015138350207188"><ele>82.0</ele><time>2026-04-26T16:38:52.899Z</time></trkpt><trkpt lat="44.20602686231961" lon="10.014975494600021"><ele>82.0</ele><time>2026-04-26T16:38:53.899Z</time></trkpt><trkpt lat="44.20610549437524" lon="10.014817033263759"><ele>82.0</ele><time>2026-04-26T16:38:54.899Z</time></trkpt><trkpt lat="44.206170529124314" lon="10.014645476959565"><ele>82.0</ele><time>2026-04-26T16:38:55.9Z</time></trkpt><trkpt lat="44.20622060268744" lon="10.014459038968052"><ele>82.0</ele><time>2026-04-26T16:38:56.9Z</time></trkpt><trkpt lat="44.206259474612054" lon="10.014270035542832"><ele>81.75</ele><time>2026-04-26T16:38:57.9Z</time></trkpt><trkpt lat="44.206286621660844" lon="10.014088027828237"><ele>81.5</ele><time>2026-04-26T16:38:58.9Z</time></trkpt><trkpt lat="44.2062948823704" lon="10.013897723678825"><ele>81.25</ele><time>2026-04-26T16:38:59.9Z</time></trkpt><trkpt lat="44.206294806735585" lon="10.013712000163034"><ele>81.0</ele><time>2026-04-26T16:39:00.9Z</time></trkpt><trkpt lat="44.20628556041416" lon="10.013523466832645"><ele>81.0</ele><time>2026-04-26T16:39:01.9Z</time></trkpt><trkpt lat="44.206274293339355" lon="10.01333461521837"><ele>81.0</ele><time>2026-04-26T16:39:02.9Z</time></trkpt><trkpt lat="44.20626258936578" lon="10.013142426089026"><ele>81.0</ele><time>2026-04-26T16:39:03.9Z</time></trkpt><trkpt lat="44.20624459701041" lon="10.012950862181611"><ele>81.0</ele><time>2026-04-26T16:39:04.9Z</time></trkpt><trkpt lat="44.20623542923116" lon="10.012757927453425"><ele>81.0</ele><time>2026-04-26T16:39:05.9Z</time></trkpt><trkpt lat="44.206240621670304" lon="10.012568834941336"><ele>81.0</ele><time>2026-04-26T16:39:06.9Z</time></trkpt><trkpt lat="44.20626787213102" lon="10.012395869879667"><ele>81.0</ele><time>2026-04-26T16:39:07.9Z</time></trkpt><trkpt lat="44.206313808932244" lon="10.012220040083038"><ele>81.0</ele><time>2026-04-26T16:39:08.9Z</time></trkpt><trkpt lat="44.20636233185792" lon="10.012044805336052"><ele>81.25</ele><time>2026-04-26T16:39:09.9Z</time></trkpt><trkpt lat="44.20640086860835" lon="10.01187028203904"><ele>81.5</ele><time>2026-04-26T16:39:10.9Z</time></trkpt><trkpt lat="44.20642767456746" lon="10.011689656277724"><ele>81.75</ele><time>2026-04-26T16:39:11.9Z</time></trkpt><trkpt lat="44.20645054260369" lon="10.011505658672336"><ele>82.0</ele><time>2026-04-26T16:39:12.9Z</time></trkpt><trkpt lat="44.20647270927863" lon="10.011313462526056"><ele>82.0</ele><time>2026-04-26T16:39:13.9Z</time></trkpt><trkpt lat="44.20648407874316" lon="10.011124201148863"><ele>82.0</ele><time>2026-04-26T16:39:14.9Z</time></trkpt><trkpt lat="44.206477426654224" lon="10.01092834284772"><ele>82.0</ele><time>2026-04-26T16:39:15.9Z</time></trkpt><trkpt lat="44.20645833895949" lon="10.010733348156407"><ele>82.0</ele><time>2026-04-26T16:39:16.9Z</time></trkpt><trkpt lat="44.206431754846875" lon="10.01053247461568"><ele>81.66666666666666</ele><time>2026-04-26T16:39:17.9Z</time></trkpt><trkpt lat="44.206404296045896" lon="10.010330088550921"><ele>81.33333333333333</ele><time>2026-04-26T16:39:18.9Z</time></trkpt><trkpt lat="44.206377510953494" lon="10.010124955733373"><ele>81.0</ele><time>2026-04-26T16:39:19.9Z</time></trkpt><trkpt lat="44.206348849806766" lon="10.009911580843287"><ele>80.66666666666667</ele><time>2026-04-26T16:39:20.9Z</time></trkpt><trkpt lat="44.206320721922026" lon="10.00970220179332"><ele>80.33333333333334</ele><time>2026-04-26T16:39:21.9Z</time></trkpt><trkpt lat="44.2062898147141" lon="10.00948475359775"><ele>80.0</ele><time>2026-04-26T16:39:22.9Z</time></trkpt><trkpt lat="44.2062592161019" lon="10.009267945155543"><ele>80.0</ele><time>2026-04-26T16:39:23.9Z</time></trkpt><trkpt lat="44.20622862373317" lon="10.009053410638913"><ele>80.0</ele><time>2026-04-26T16:39:24.9Z</time></trkpt><trkpt lat="44.206197243565995" lon="10.008850959416245"><ele>80.0</ele><time>2026-04-26T16:39:25.9Z</time></trkpt><trkpt lat="44.20617440304949" lon="10.008654434770058"><ele>80.0</ele><time>2026-04-26T16:39:26.9Z</time></trkpt><trkpt lat="44.206151945927985" lon="10.008454922488706"><ele>80.0</ele><time>2026-04-26T16:39:27.9Z</time></trkpt><trkpt lat="44.206131264673225" lon="10.008249196049551"><ele>80.0</ele><time>2026-04-26T16:39:28.9Z</time></trkpt><trkpt lat="44.20610359687596" lon="10.008038231440498"><ele>80.0</ele><time>2026-04-26T16:39:29.9Z</time></trkpt><trkpt lat="44.20607463018241" lon="10.007830745081968"><ele>80.0</ele><time>2026-04-26T16:39:30.9Z</time></trkpt><trkpt lat="44.20604658023101" lon="10.007624888153371"><ele>80.0</ele><time>2026-04-26T16:39:31.9Z</time></trkpt><trkpt lat="44.20602342502223" lon="10.007418409914365"><ele>80.0</ele><time>2026-04-26T16:39:32.9Z</time></trkpt><trkpt lat="44.20599925904381" lon="10.007210727986832"><ele>80.0</ele><time>2026-04-26T16:39:33.9Z</time></trkpt><trkpt lat="44.20597775551025" lon="10.007003684224562"><ele>80.0</ele><time>2026-04-26T16:39:34.9Z</time></trkpt><trkpt lat="44.205950767600385" lon="10.00679391334762"><ele>80.0</ele><time>2026-04-26T16:39:35.9Z</time></trkpt><trkpt lat="44.20592281943145" lon="10.006589389262997"><ele>80.0</ele><time>2026-04-26T16:39:36.9Z</time></trkpt><trkpt lat="44.20589293283344" lon="10.006386043759363"><ele>80.0</ele><time>2026-04-26T16:39:37.9Z</time></trkpt><trkpt lat="44.205862509278845" lon="10.006184354018373"><ele>80.0</ele><time>2026-04-26T16:39:38.9Z</time></trkpt><trkpt lat="44.20583156336145" lon="10.005992545476733"><ele>80.0</ele><time>2026-04-26T16:39:39.9Z</time></trkpt><trkpt lat="44.20580761966993" lon="10.005810676681303"><ele>79.75</ele><time>2026-04-26T16:39:40.9Z</time></trkpt><trkpt lat="44.20578665184964" lon="10.005628672095957"><ele>79.5</ele><time>2026-04-26T16:39:41.9Z</time></trkpt><trkpt lat="44.205765715092205" lon="10.00544966201836"><ele>79.25</ele><time>2026-04-26T16:39:42.9Z</time></trkpt><trkpt lat="44.205743484900616" lon="10.00527139162873"><ele>79.0</ele><time>2026-04-26T16:39:43.9Z</time></trkpt><trkpt lat="44.205718081590014" lon="10.0051059245712"><ele>79.0</ele><time>2026-04-26T16:39:44.9Z</time></trkpt><trkpt lat="44.20569464078974" lon="10.004961788236049"><ele>79.0</ele><time>2026-04-26T16:39:45.9Z</time></trkpt><trkpt lat="44.20566831059883" lon="10.004820035109542"><ele>79.0</ele><time>2026-04-26T16:39:46.9Z</time></trkpt><trkpt lat="44.205629927699" lon="10.004682964670025"><ele>79.0</ele><time>2026-04-26T16:39:47.9Z</time></trkpt><trkpt lat="44.205549856507304" lon="10.00455528758239"><ele>79.0</ele><time>2026-04-26T16:39:48.9Z</time></trkpt><trkpt lat="44.20546891077076" lon="10.004484772755074"><ele>79.00000000000001</ele><time>2026-04-26T16:39:49.9Z</time></trkpt><trkpt lat="44.20539146136593" lon="10.004448302661062"><ele>79.0</ele><time>2026-04-26T16:39:50.9Z</time></trkpt><trkpt lat="44.2053291793631" lon="10.004402634179565"><ele>79.0</ele><time>2026-04-26T16:39:51.9Z</time></trkpt><trkpt lat="44.20526229607969" lon="10.004359069482222"><ele>79.0</ele><time>2026-04-26T16:39:52.9Z</time></trkpt><trkpt lat="44.205214133056344" lon="10.00428470339295"><ele>79.0</ele><time>2026-04-26T16:39:53.9Z</time></trkpt><trkpt lat="44.205196084364076" lon="10.004190059337839"><ele>79.00000000000001</ele><time>2026-04-26T16:39:54.9Z</time></trkpt><trkpt lat="44.20520169124624" lon="10.004078742000267"><ele>79.0</ele><time>2026-04-26T16:39:55.9Z</time></trkpt><trkpt lat="44.20521573467709" lon="10.003961090775295"><ele>78.83333333333333</ele><time>2026-04-26T16:39:56.9Z</time></trkpt><trkpt lat="44.20523690379434" lon="10.003838278332317"><ele>78.66666666666666</ele><time>2026-04-26T16:39:57.9Z</time></trkpt><trkpt lat="44.20525408586591" lon="10.003715163207508"><ele>78.5</ele><time>2026-04-26T16:39:58.9Z</time></trkpt><trkpt lat="44.20526991059122" lon="10.00360627274306"><ele>78.33333333333333</ele><time>2026-04-26T16:39:59.9Z</time></trkpt><trkpt lat="44.2052968937109" lon="10.003508801487705"><ele>78.16666666666667</ele><time>2026-04-26T16:40:00.9Z</time></trkpt><trkpt lat="44.205316992670106" lon="10.00341114816465"><ele>78.0</ele><time>2026-04-26T16:40:01.9Z</time></trkpt><trkpt lat="44.20533642893732" lon="10.00331659855959"><ele>78.0</ele><time>2026-04-26T16:40:02.9Z</time></trkpt><trkpt lat="44.20534660674331" lon="10.00321963357109"><ele>78.0</ele><time>2026-04-26T16:40:03.9Z</time></trkpt><trkpt lat="44.205347231754416" lon="10.00310657053866"><ele>78.0</ele><time>2026-04-26T16:40:04.9Z</time></trkpt><trkpt lat="44.20534234575116" lon="10.002983968355128"><ele>78.0</ele><time>2026-04-26T16:40:05.9Z</time></trkpt><trkpt lat="44.20533403067624" lon="10.002866594685704"><ele>78.0</ele><time>2026-04-26T16:40:06.9Z</time></trkpt><trkpt lat="44.205302918880435" lon="10.002757016914082"><ele>78.0</ele><time>2026-04-26T16:40:07.9Z</time></trkpt><trkpt lat="44.20526017103848" lon="10.002668945118032"><ele>78.0</ele><time>2026-04-26T16:40:08.9Z</time></trkpt><trkpt lat="44.205210308023766" lon="10.002596298212222"><ele>78.0</ele><time>2026-04-26T16:40:09.9Z</time></trkpt><trkpt lat="44.20514712361425" lon="10.002542167347292"><ele>78.0</ele><time>2026-04-26T16:40:10.9Z</time></trkpt><trkpt lat="44.20508075505664" lon="10.002497770391948"><ele>78.0</ele><time>2026-04-26T16:40:11.9Z</time></trkpt><trkpt lat="44.20501965666684" lon="10.00244733520662"><ele>78.0</ele><time>2026-04-26T16:40:12.9Z</time></trkpt><trkpt lat="44.20495216689928" lon="10.002380883709897"><ele>78.0</ele><time>2026-04-26T16:40:13.9Z</time></trkpt><trkpt lat="44.204881468771426" lon="10.00233546065482"><ele>77.83333333333333</ele><time>2026-04-26T16:40:14.9Z</time></trkpt><trkpt lat="44.20480613781033" lon="10.002283891539843"><ele>77.66666666666667</ele><time>2026-04-26T16:40:15.9Z</time></trkpt><trkpt lat="44.204751576979504" lon="10.002237237123895"><ele>77.5</ele><time>2026-04-26T16:40:16.9Z</time></trkpt><trkpt lat="44.20470672485178" lon="10.002162370239136"><ele>77.33333333333334</ele><time>2026-04-26T16:40:17.9Z</time></trkpt><trkpt lat="44.20468392372181" lon="10.002064227672749"><ele>77.16666666666667</ele><time>2026-04-26T16:40:18.9Z</time></trkpt><trkpt lat="44.20468942859872" lon="10.001940592922523"><ele>77.0</ele><time>2026-04-26T16:40:19.9Z</time></trkpt><trkpt lat="44.20469223741651" lon="10.001815175438715"><ele>77.0</ele><time>2026-04-26T16:40:20.9Z</time></trkpt><trkpt lat="44.20467946189957" lon="10.001691742777973"><ele>77.0</ele><time>2026-04-26T16:40:21.9Z</time></trkpt><trkpt lat="44.20465578459293" lon="10.001557750965429"><ele>77.0</ele><time>2026-04-26T16:40:22.9Z</time></trkpt><trkpt lat="44.204625596582595" lon="10.001414510775966"><ele>77.0</ele><time>2026-04-26T16:40:23.9Z</time></trkpt><trkpt lat="44.20459282211621" lon="10.001273494003865"><ele>77.0</ele><time>2026-04-26T16:40:24.9Z</time></trkpt><trkpt lat="44.20455963300493" lon="10.001137903465695"><ele>77.0</ele><time>2026-04-26T16:40:25.9Z</time></trkpt><trkpt lat="44.204532187188555" lon="10.000996310196575"><ele>77.0</ele><time>2026-04-26T16:40:26.9Z</time></trkpt><trkpt lat="44.20450677589119" lon="10.000857001202311"><ele>77.0</ele><time>2026-04-26T16:40:27.9Z</time></trkpt><trkpt lat="44.20448334710574" lon="10.000712867941084"><ele>77.0</ele><time>2026-04-26T16:40:28.9Z</time></trkpt><trkpt lat="44.20445931709008" lon="10.0005669398357"><ele>77.0</ele><time>2026-04-26T16:40:29.9Z</time></trkpt><trkpt lat="44.20443624392691" lon="10.000421388422671"><ele>76.4</ele><time>2026-04-26T16:40:30.9Z</time></trkpt><trkpt lat="44.20441084625505" lon="10.000270209077557"><ele>75.80000000000001</ele><time>2026-04-26T16:40:31.9Z</time></trkpt><trkpt lat="44.20439243987829" lon="10.00012820656891"><ele>75.2</ele><time>2026-04-26T16:40:32.9Z</time></trkpt><trkpt lat="44.20437034432213" lon="9.999990502455214"><ele>74.60000000000001</ele><time>2026-04-26T16:40:33.9Z</time></trkpt><trkpt lat="44.2043474327153" lon="9.999865291367668"><ele>74.0</ele><time>2026-04-26T16:40:34.9Z</time></trkpt><trkpt lat="44.20432625753404" lon="9.999744794175555"><ele>74.0</ele><time>2026-04-26T16:40:35.9Z</time></trkpt><trkpt lat="44.20430849762801" lon="9.999610208079893"><ele>74.0</ele><time>2026-04-26T16:40:36.9Z</time></trkpt><trkpt lat="44.20429002871495" lon="9.999483144636741"><ele>74.0</ele><time>2026-04-26T16:40:37.9Z</time></trkpt><trkpt lat="44.20427070642963" lon="9.999356354485935"><ele>74.0</ele><time>2026-04-26T16:40:38.9Z</time></trkpt><trkpt lat="44.20424918208239" lon="9.999239840107563"><ele>74.0</ele><time>2026-04-26T16:40:39.9Z</time></trkpt><trkpt lat="44.20422787897089" lon="9.999122051029433"><ele>73.8</ele><time>2026-04-26T16:40:40.9Z</time></trkpt><trkpt lat="44.204205349160866" lon="9.999001995175549"><ele>73.60000000000001</ele><time>2026-04-26T16:40:41.9Z</time></trkpt><trkpt lat="44.20418828200729" lon="9.998870295282597"><ele>73.4</ele><time>2026-04-26T16:40:42.9Z</time></trkpt><trkpt lat="44.20416743061923" lon="9.998737827520438"><ele>73.2</ele><time>2026-04-26T16:40:43.9Z</time></trkpt><trkpt lat="44.2041363185817" lon="9.998609739144262"><ele>73.0</ele><time>2026-04-26T16:40:44.9Z</time></trkpt><trkpt lat="44.204102879385225" lon="9.9984767340211"><ele>73.0</ele><time>2026-04-26T16:40:45.9Z</time></trkpt><trkpt lat="44.20406565674163" lon="9.99833896895856"><ele>73.0</ele><time>2026-04-26T16:40:46.9Z</time></trkpt><trkpt lat="44.20402840279692" lon="9.998200918094906"><ele>73.0</ele><time>2026-04-26T16:40:47.9Z</time></trkpt><trkpt lat="44.203984246301815" lon="9.9980675038062"><ele>73.0</ele><time>2026-04-26T16:40:48.898Z</time></trkpt><trkpt lat="44.203937454199355" lon="9.997940610483807"><ele>73.0</ele><time>2026-04-26T16:40:49.898Z</time></trkpt><trkpt lat="44.20389049369525" lon="9.997809557987335"><ele>73.2</ele><time>2026-04-26T16:40:50.898Z</time></trkpt><trkpt lat="44.203843424137666" lon="9.997673211598489"><ele>73.4</ele><time>2026-04-26T16:40:51.898Z</time></trkpt><trkpt lat="44.20379286411813" lon="9.997536123167398"><ele>73.60000000000001</ele><time>2026-04-26T16:40:52.898Z</time></trkpt><trkpt lat="44.2037419426903" lon="9.997399510644033"><ele>73.8</ele><time>2026-04-26T16:40:53.898Z</time></trkpt><trkpt lat="44.203688835489835" lon="9.997259173419796"><ele>74.0</ele><time>2026-04-26T16:40:54.898Z</time></trkpt><trkpt lat="44.20363292389768" lon="9.997114080421696"><ele>73.5</ele><time>2026-04-26T16:40:55.898Z</time></trkpt><trkpt lat="44.20357658494406" lon="9.996970414942211"><ele>73.0</ele><time>2026-04-26T16:40:56.898Z</time></trkpt><trkpt lat="44.20352003672553" lon="9.996825195105053"><ele>72.5</ele><time>2026-04-26T16:40:57.897Z</time></trkpt><trkpt lat="44.203462149460066" lon="9.996676710620287"><ele>72.0</ele><time>2026-04-26T16:40:58.898Z</time></trkpt><trkpt lat="44.20340364973413" lon="9.996527790257812"><ele>72.0</ele><time>2026-04-26T16:40:59.898Z</time></trkpt><trkpt lat="44.20334792561583" lon="9.996381248836736"><ele>72.0</ele><time>2026-04-26T16:41:00.897Z</time></trkpt><trkpt lat="44.20329298220401" lon="9.996236318854583"><ele>72.0</ele><time>2026-04-26T16:41:01.897Z</time></trkpt><trkpt lat="44.203240077363674" lon="9.996093841554085"><ele>72.0</ele><time>2026-04-26T16:41:02.897Z</time></trkpt><trkpt lat="44.20318387556082" lon="9.99595199558303"><ele>72.25</ele><time>2026-04-26T16:41:03.897Z</time></trkpt><trkpt lat="44.203128375235764" lon="9.995807841108046"><ele>72.5</ele><time>2026-04-26T16:41:04.897Z</time></trkpt><trkpt lat="44.20307231464141" lon="9.99565840461064"><ele>72.75</ele><time>2026-04-26T16:41:05.897Z</time></trkpt><trkpt lat="44.20301343206309" lon="9.995505657696746"><ele>73.0</ele><time>2026-04-26T16:41:06.897Z</time></trkpt><trkpt lat="44.20295440889468" lon="9.995358561659174"><ele>73.0</ele><time>2026-04-26T16:41:07.897Z</time></trkpt><trkpt lat="44.20289741358488" lon="9.995210129043537"><ele>73.0</ele><time>2026-04-26T16:41:08.897Z</time></trkpt><trkpt lat="44.202840659527176" lon="9.995066267306306"><ele>73.0</ele><time>2026-04-26T16:41:09.897Z</time></trkpt><trkpt lat="44.20278293526646" lon="9.99492144200326"><ele>73.0</ele><time>2026-04-26T16:41:10.897Z</time></trkpt><trkpt lat="44.202725010093445" lon="9.994775687856642"><ele>72.5</ele><time>2026-04-26T16:41:11.897Z</time></trkpt><trkpt lat="44.20266792009744" lon="9.994630289591164"><ele>72.0</ele><time>2026-04-26T16:41:12.897Z</time></trkpt><trkpt lat="44.20261332985992" lon="9.994486126020977"><ele>71.5</ele><time>2026-04-26T16:41:13.897Z</time></trkpt><trkpt lat="44.20255369135544" lon="9.994346595081218"><ele>71.0</ele><time>2026-04-26T16:41:14.897Z</time></trkpt><trkpt lat="44.20249873071411" lon="9.994209244327788"><ele>70.5</ele><time>2026-04-26T16:41:15.897Z</time></trkpt><trkpt lat="44.20244519172609" lon="9.994071341806864"><ele>70.0</ele><time>2026-04-26T16:41:16.897Z</time></trkpt><trkpt lat="44.20239762158899" lon="9.99392807010978"><ele>69.5</ele><time>2026-04-26T16:41:17.897Z</time></trkpt><trkpt lat="44.20236014787988" lon="9.993775351296364"><ele>69.0</ele><time>2026-04-26T16:41:18.897Z</time></trkpt><trkpt lat="44.20233494665096" lon="9.99361633578677"><ele>69.0</ele><time>2026-04-26T16:41:19.897Z</time></trkpt><trkpt lat="44.20232732503597" lon="9.993447897390825"><ele>69.0</ele><time>2026-04-26T16:41:20.897Z</time></trkpt><trkpt lat="44.2023280672072" lon="9.993278429950822"><ele>69.0</ele><time>2026-04-26T16:41:21.897Z</time></trkpt><trkpt lat="44.202337438752025" lon="9.993108391130994"><ele>69.0</ele><time>2026-04-26T16:41:22.897Z</time></trkpt><trkpt lat="44.202352558461605" lon="9.992941296783414"><ele>69.0</ele><time>2026-04-26T16:41:23.897Z</time></trkpt><trkpt lat="44.202371973926674" lon="9.992773799014703"><ele>69.0</ele><time>2026-04-26T16:41:24.897Z</time></trkpt><trkpt lat="44.20238935470966" lon="9.992610310338856"><ele>69.0</ele><time>2026-04-26T16:41:25.897Z</time></trkpt><trkpt lat="44.202407892573056" lon="9.992449885801081"><ele>69.0</ele><time>2026-04-26T16:41:26.897Z</time></trkpt><trkpt lat="44.202423597801136" lon="9.992289736769896"><ele>68.75</ele><time>2026-04-26T16:41:27.897Z</time></trkpt><trkpt lat="44.20243920700115" lon="9.992127183215096"><ele>68.5</ele><time>2026-04-26T16:41:28.897Z</time></trkpt><trkpt lat="44.20245839617952" lon="9.991965328042852"><ele>68.25</ele><time>2026-04-26T16:41:29.897Z</time></trkpt><trkpt lat="44.20247671622938" lon="9.991803192103726"><ele>68.0</ele><time>2026-04-26T16:41:30.897Z</time></trkpt><trkpt lat="44.2024955172938" lon="9.99164536101268"><ele>67.6</ele><time>2026-04-26T16:41:31.897Z</time></trkpt><trkpt lat="44.202514348898156" lon="9.991492324607432"><ele>67.19999999999999</ele><time>2026-04-26T16:41:32.897Z</time></trkpt><trkpt lat="44.202531435095366" lon="9.991351827290156"><ele>66.8</ele><time>2026-04-26T16:41:33.897Z</time></trkpt><trkpt lat="44.20254193234901" lon="9.991228691940606"><ele>66.39999999999999</ele><time>2026-04-26T16:41:34.897Z</time></trkpt><trkpt lat="44.20254267658643" lon="9.991107414680087"><ele>66.0</ele><time>2026-04-26T16:41:35.897Z</time></trkpt><trkpt lat="44.2025213311692" lon="9.99099368993524"><ele>66.0</ele><time>2026-04-26T16:41:36.897Z</time></trkpt><trkpt lat="44.2024784065374" lon="9.990890870823042"><ele>66.0</ele><time>2026-04-26T16:41:37.898Z</time></trkpt><trkpt lat="44.20241462670719" lon="9.990803252627874"><ele>66.0</ele><time>2026-04-26T16:41:38.898Z</time></trkpt><trkpt lat="44.202341780673095" lon="9.990722809740632"><ele>66.0</ele><time>2026-04-26T16:41:39.898Z</time></trkpt><trkpt lat="44.202257368037884" lon="9.990633894692175"><ele>66.0</ele><time>2026-04-26T16:41:40.898Z</time></trkpt><trkpt lat="44.20217124944519" lon="9.990536656593418"><ele>65.75</ele><time>2026-04-26T16:41:41.898Z</time></trkpt><trkpt lat="44.20207767238028" lon="9.990435226005992"><ele>65.5</ele><time>2026-04-26T16:41:42.898Z</time></trkpt><trkpt lat="44.20197817315465" lon="9.990325600558114"><ele>65.25</ele><time>2026-04-26T16:41:43.898Z</time></trkpt><trkpt lat="44.20188680945881" lon="9.990221130209356"><ele>65.0</ele><time>2026-04-26T16:41:44.898Z</time></trkpt><trkpt lat="44.20180323174238" lon="9.990120526461371"><ele>65.0</ele><time>2026-04-26T16:41:45.898Z</time></trkpt><trkpt lat="44.20172268884492" lon="9.990016088400893"><ele>65.0</ele><time>2026-04-26T16:41:46.898Z</time></trkpt><trkpt lat="44.20164700406816" lon="9.989895622457185"><ele>65.0</ele><time>2026-04-26T16:41:47.898Z</time></trkpt><trkpt lat="44.20158766728759" lon="9.989752700151247"><ele>65.0</ele><time>2026-04-26T16:41:48.898Z</time></trkpt><trkpt lat="44.20154505384252" lon="9.989594043951458"><ele>65.0</ele><time>2026-04-26T16:41:49.898Z</time></trkpt><trkpt lat="44.2015116699836" lon="9.989434114651687"><ele>65.0</ele><time>2026-04-26T16:41:50.898Z</time></trkpt><trkpt lat="44.201483463691844" lon="9.989285358823983"><ele>65.0</ele><time>2026-04-26T16:41:51.898Z</time></trkpt><trkpt lat="44.20145605287178" lon="9.989139167803874"><ele>65.0</ele><time>2026-04-26T16:41:52.898Z</time></trkpt><trkpt lat="44.2014294804239" lon="9.988988936159455"><ele>65.0</ele><time>2026-04-26T16:41:53.898Z</time></trkpt><trkpt lat="44.20140281513217" lon="9.988844702832592"><ele>65.0</ele><time>2026-04-26T16:41:54.898Z</time></trkpt><trkpt lat="44.20137696933383" lon="9.988696315995819"><ele>65.0</ele><time>2026-04-26T16:41:55.898Z</time></trkpt><trkpt lat="44.2013530942217" lon="9.988542308844176"><ele>65.0</ele><time>2026-04-26T16:41:56.898Z</time></trkpt><trkpt lat="44.20133231864258" lon="9.988377504804077"><ele>65.0</ele><time>2026-04-26T16:41:57.898Z</time></trkpt><trkpt lat="44.201314703498205" lon="9.988209987675795"><ele>65.4</ele><time>2026-04-26T16:41:58.898Z</time></trkpt><trkpt lat="44.201304330897834" lon="9.988048030902096"><ele>65.8</ele><time>2026-04-26T16:41:59.898Z</time></trkpt><trkpt lat="44.201303038622804" lon="9.987888327123056"><ele>66.2</ele><time>2026-04-26T16:42:00.898Z</time></trkpt><trkpt lat="44.20131087872744" lon="9.987735966258512"><ele>66.6</ele><time>2026-04-26T16:42:01.898Z</time></trkpt><trkpt lat="44.20132069018969" lon="9.987590324629029"><ele>67.0</ele><time>2026-04-26T16:42:02.898Z</time></trkpt><trkpt lat="44.20133019510757" lon="9.98745685437716"><ele>67.0</ele><time>2026-04-26T16:42:03.898Z</time></trkpt><trkpt lat="44.20133765491763" lon="9.987330711869923"><ele>67.0</ele><time>2026-04-26T16:42:04.898Z</time></trkpt><trkpt lat="44.20133868490937" lon="9.987204148559687"><ele>67.0</ele><time>2026-04-26T16:42:05.898Z</time></trkpt><trkpt lat="44.20133476263962" lon="9.98707096403475"><ele>67.0</ele><time>2026-04-26T16:42:06.898Z</time></trkpt><trkpt lat="44.201327796712185" lon="9.98693615911426"><ele>67.0</ele><time>2026-04-26T16:42:07.898Z</time></trkpt><trkpt lat="44.201323105629776" lon="9.986799288975455"><ele>66.8</ele><time>2026-04-26T16:42:08.898Z</time></trkpt><trkpt lat="44.201318607252894" lon="9.986658995389861"><ele>66.6</ele><time>2026-04-26T16:42:09.898Z</time></trkpt><trkpt lat="44.20131691265579" lon="9.986519034990339"><ele>66.39999999999999</ele><time>2026-04-26T16:42:10.898Z</time></trkpt><trkpt lat="44.20132010074943" lon="9.986377262583014"><ele>66.2</ele><time>2026-04-26T16:42:11.898Z</time></trkpt><trkpt lat="44.201331354014755" lon="9.986234029073906"><ele>66.0</ele><time>2026-04-26T16:42:12.898Z</time></trkpt><trkpt lat="44.201349406042254" lon="9.986089432604691"><ele>66.0</ele><time>2026-04-26T16:42:13.898Z</time></trkpt><trkpt lat="44.201372234776436" lon="9.985944703243261"><ele>66.0</ele><time>2026-04-26T16:42:14.898Z</time></trkpt><trkpt lat="44.201393722186126" lon="9.985797621918868"><ele>66.0</ele><time>2026-04-26T16:42:15.898Z</time></trkpt><trkpt lat="44.20141183268346" lon="9.985653414561845"><ele>66.0</ele><time>2026-04-26T16:42:16.898Z</time></trkpt><trkpt lat="44.201413082849534" lon="9.985510540837359"><ele>66.0</ele><time>2026-04-26T16:42:17.898Z</time></trkpt><trkpt lat="44.201397773927475" lon="9.985366607254042"><ele>66.0</ele><time>2026-04-26T16:42:18.898Z</time></trkpt><trkpt lat="44.20137122508075" lon="9.985226508350088"><ele>66.0</ele><time>2026-04-26T16:42:19.898Z</time></trkpt><trkpt lat="44.201337457697456" lon="9.985079683149811"><ele>66.0</ele><time>2026-04-26T16:42:20.898Z</time></trkpt><trkpt lat="44.20130246335785" lon="9.984923722715127"><ele>66.0</ele><time>2026-04-26T16:42:21.898Z</time></trkpt><trkpt lat="44.20126497089543" lon="9.984767367993166"><ele>66.0</ele><time>2026-04-26T16:42:22.898Z</time></trkpt><trkpt lat="44.20122396836756" lon="9.9846033104423"><ele>66.0</ele><time>2026-04-26T16:42:23.898Z</time></trkpt><trkpt lat="44.20118353539539" lon="9.984444603924436"><ele>66.0</ele><time>2026-04-26T16:42:24.898Z</time></trkpt><trkpt lat="44.20114882134577" lon="9.984295895874862"><ele>66.0</ele><time>2026-04-26T16:42:25.898Z</time></trkpt><trkpt lat="44.2011184078133" lon="9.984152274016028"><ele>66.0</ele><time>2026-04-26T16:42:26.898Z</time></trkpt><trkpt lat="44.20109576861421" lon="9.984008295595114"><ele>66.0</ele><time>2026-04-26T16:42:27.898Z</time></trkpt><trkpt lat="44.20108530928724" lon="9.983862807060037"><ele>66.0</ele><time>2026-04-26T16:42:28.898Z</time></trkpt><trkpt lat="44.20109240780677" lon="9.983716517070254"><ele>66.0</ele><time>2026-04-26T16:42:29.898Z</time></trkpt><trkpt lat="44.20111428287691" lon="9.983571306110116"><ele>66.0</ele><time>2026-04-26T16:42:30.898Z</time></trkpt><trkpt lat="44.20114902494933" lon="9.983429379826262"><ele>65.5</ele><time>2026-04-26T16:42:31.898Z</time></trkpt><trkpt lat="44.201196133818584" lon="9.9832919591025"><ele>65.0</ele><time>2026-04-26T16:42:32.898Z</time></trkpt><trkpt lat="44.20125405481288" lon="9.983159400635142"><ele>64.5</ele><time>2026-04-26T16:42:33.898Z</time></trkpt><trkpt lat="44.201318848427256" lon="9.983030239954854"><ele>64.0</ele><time>2026-04-26T16:42:34.898Z</time></trkpt><trkpt lat="44.20139118745712" lon="9.982897040253553"><ele>64.0</ele><time>2026-04-26T16:42:35.898Z</time></trkpt><trkpt lat="44.20146850137872" lon="9.982765056875332"><ele>64.0</ele><time>2026-04-26T16:42:36.898Z</time></trkpt><trkpt lat="44.20154355405326" lon="9.982640890817814"><ele>64.0</ele><time>2026-04-26T16:42:37.898Z</time></trkpt><trkpt lat="44.20162651378882" lon="9.98251832256087"><ele>64.0</ele><time>2026-04-26T16:42:38.898Z</time></trkpt><trkpt lat="44.201715328007545" lon="9.982401816010663"><ele>65.75</ele><time>2026-04-26T16:42:39.898Z</time></trkpt><trkpt lat="44.20180677333133" lon="9.982294725729446"><ele>67.5</ele><time>2026-04-26T16:42:40.898Z</time></trkpt><trkpt lat="44.201905814306095" lon="9.982205525834978"><ele>69.25</ele><time>2026-04-26T16:42:41.898Z</time></trkpt><trkpt lat="44.20201147623076" lon="9.98213648032743"><ele>71.0</ele><time>2026-04-26T16:42:42.898Z</time></trkpt><trkpt lat="44.2021202027914" lon="9.982072898121105"><ele>71.0</ele><time>2026-04-26T16:42:43.898Z</time></trkpt><trkpt lat="44.202229511815545" lon="9.982010691280651"><ele>71.0</ele><time>2026-04-26T16:42:44.898Z</time></trkpt><trkpt lat="44.20233212140101" lon="9.981932179537367"><ele>71.0</ele><time>2026-04-26T16:42:45.898Z</time></trkpt><trkpt lat="44.202433393433374" lon="9.981853983998453"><ele>71.0</ele><time>2026-04-26T16:42:46.898Z</time></trkpt><trkpt lat="44.202529326615156" lon="9.98176038173645"><ele>70.2</ele><time>2026-04-26T16:42:47.898Z</time></trkpt><trkpt lat="44.20261834676973" lon="9.981664543909963"><ele>69.39999999999999</ele><time>2026-04-26T16:42:48.898Z</time></trkpt><trkpt lat="44.20270641298142" lon="9.981574345080741"><ele>68.6</ele><time>2026-04-26T16:42:49.898Z</time></trkpt><trkpt lat="44.202798824914524" lon="9.981492434942874"><ele>67.8</ele><time>2026-04-26T16:42:50.898Z</time></trkpt><trkpt lat="44.20289996404338" lon="9.981426622542976"><ele>67.0</ele><time>2026-04-26T16:42:51.898Z</time></trkpt><trkpt lat="44.203007367381424" lon="9.981372058121819"><ele>67.0</ele><time>2026-04-26T16:42:52.898Z</time></trkpt><trkpt lat="44.20312407202387" lon="9.98133723570147"><ele>67.0</ele><time>2026-04-26T16:42:53.898Z</time></trkpt><trkpt lat="44.20324350133195" lon="9.981309279716546"><ele>67.0</ele><time>2026-04-26T16:42:54.896Z</time></trkpt><trkpt lat="44.203363056567575" lon="9.981288422615092"><ele>67.0</ele><time>2026-04-26T16:42:55.896Z</time></trkpt><trkpt lat="44.20348313954558" lon="9.981270718188355"><ele>68.8</ele><time>2026-04-26T16:42:56.896Z</time></trkpt><trkpt lat="44.20359787424002" lon="9.98124763878921"><ele>70.6</ele><time>2026-04-26T16:42:57.896Z</time></trkpt><trkpt lat="44.203704272742314" lon="9.981201898237801"><ele>72.39999999999999</ele><time>2026-04-26T16:42:58.897Z</time></trkpt><trkpt lat="44.203804106644235" lon="9.981132567647947"><ele>74.2</ele><time>2026-04-26T16:42:59.897Z</time></trkpt><trkpt lat="44.20389493592852" lon="9.98105085776664"><ele>76.0</ele><time>2026-04-26T16:43:00.896Z</time></trkpt><trkpt lat="44.20397946249201" lon="9.980961840430757"><ele>76.2</ele><time>2026-04-26T16:43:01.896Z</time></trkpt><trkpt lat="44.20406125078797" lon="9.980871297607354"><ele>76.39999999999999</ele><time>2026-04-26T16:43:02.896Z</time></trkpt><trkpt lat="44.204143759640004" lon="9.980784081007211"><ele>76.6</ele><time>2026-04-26T16:43:03.897Z</time></trkpt><trkpt lat="44.20422241125355" lon="9.980690052531784"><ele>76.8</ele><time>2026-04-26T16:43:04.896Z</time></trkpt><trkpt lat="44.204310550058636" lon="9.98059740916744"><ele>77.0</ele><time>2026-04-26T16:43:05.896Z</time></trkpt><trkpt lat="44.20440716838981" lon="9.980532345797045"><ele>74.2</ele><time>2026-04-26T16:43:06.896Z</time></trkpt><trkpt lat="44.2045027947594" lon="9.980472018360235"><ele>71.4</ele><time>2026-04-26T16:43:07.896Z</time></trkpt><trkpt lat="44.204600075756346" lon="9.98041638518962"><ele>68.6</ele><time>2026-04-26T16:43:08.896Z</time></trkpt><trkpt lat="44.20470472439619" lon="9.980363764429864"><ele>65.8</ele><time>2026-04-26T16:43:09.896Z</time></trkpt><trkpt lat="44.204803858143535" lon="9.98029512903152"><ele>63.0</ele><time>2026-04-26T16:43:10.896Z</time></trkpt><trkpt lat="44.204903318621774" lon="9.980236703782515"><ele>63.0</ele><time>2026-04-26T16:43:11.896Z</time></trkpt><trkpt lat="44.20500634768068" lon="9.98016425842881"><ele>63.0</ele><time>2026-04-26T16:43:12.896Z</time></trkpt><trkpt lat="44.20511492017924" lon="9.98008850212295"><ele>63.0</ele><time>2026-04-26T16:43:13.896Z</time></trkpt><trkpt lat="44.205225392411144" lon="9.98001042786398"><ele>63.0</ele><time>2026-04-26T16:43:14.896Z</time></trkpt><trkpt lat="44.20533485726559" lon="9.979928383050243"><ele>62.75</ele><time>2026-04-26T16:43:15.896Z</time></trkpt><trkpt lat="44.205437407922034" lon="9.979842694095407"><ele>62.5</ele><time>2026-04-26T16:43:16.896Z</time></trkpt><trkpt lat="44.20553826525061" lon="9.979757793110132"><ele>62.25</ele><time>2026-04-26T16:43:17.896Z</time></trkpt><trkpt lat="44.20563644079588" lon="9.979685576792043"><ele>62.0</ele><time>2026-04-26T16:43:18.896Z</time></trkpt><trkpt lat="44.20574088902033" lon="9.979625188552031"><ele>62.0</ele><time>2026-04-26T16:43:19.896Z</time></trkpt><trkpt lat="44.20584824209398" lon="9.979577317786344"><ele>62.0</ele><time>2026-04-26T16:43:20.896Z</time></trkpt><trkpt lat="44.205960418264915" lon="9.97955621411652"><ele>62.0</ele><time>2026-04-26T16:43:21.896Z</time></trkpt><trkpt lat="44.206072885919255" lon="9.979541772026478"><ele>62.0</ele><time>2026-04-26T16:43:22.896Z</time></trkpt><trkpt lat="44.20618189478894" lon="9.979528673284431"><ele>62.0</ele><time>2026-04-26T16:43:23.896Z</time></trkpt><trkpt lat="44.206283423053456" lon="9.97950932129592"><ele>62.0</ele><time>2026-04-26T16:43:24.896Z</time></trkpt><trkpt lat="44.206378677162306" lon="9.979494508863628"><ele>62.0</ele><time>2026-04-26T16:43:25.896Z</time></trkpt><trkpt lat="44.206465928885656" lon="9.979467874846325"><ele>62.0</ele><time>2026-04-26T16:43:26.896Z</time></trkpt><trkpt lat="44.20654847875984" lon="9.979406638670389"><ele>62.0</ele><time>2026-04-26T16:43:27.896Z</time></trkpt><trkpt lat="44.206615983527875" lon="9.979317270854658"><ele>62.0</ele><time>2026-04-26T16:43:28.896Z</time></trkpt><trkpt lat="44.20665581317369" lon="9.979223093433484"><ele>62.00000000000001</ele><time>2026-04-26T16:43:29.896Z</time></trkpt><trkpt lat="44.20668946672456" lon="9.97912907029817"><ele>62.0</ele><time>2026-04-26T16:43:30.896Z</time></trkpt><trkpt lat="44.20671990341763" lon="9.979029310567576"><ele>62.0</ele><time>2026-04-26T16:43:31.896Z</time></trkpt><trkpt lat="44.206747765272326" lon="9.978940532371121"><ele>62.0</ele><time>2026-04-26T16:43:32.896Z</time></trkpt><trkpt lat="44.206784784078295" lon="9.978849317061488"><ele>62.00000000000001</ele><time>2026-04-26T16:43:33.896Z</time></trkpt><trkpt lat="44.20682598365732" lon="9.978743445478841"><ele>62.0</ele><time>2026-04-26T16:43:34.896Z</time></trkpt><trkpt lat="44.20686966410383" lon="9.978627242131026"><ele>62.0</ele><time>2026-04-26T16:43:35.896Z</time></trkpt><trkpt lat="44.20691750278593" lon="9.978512352081855"><ele>62.0</ele><time>2026-04-26T16:43:36.896Z</time></trkpt><trkpt lat="44.20697208520295" lon="9.978399582475598"><ele>62.0</ele><time>2026-04-26T16:43:37.896Z</time></trkpt><trkpt lat="44.2070307950825" lon="9.978291058654339"><ele>62.0</ele><time>2026-04-26T16:43:38.896Z</time></trkpt><trkpt lat="44.207095077255005" lon="9.978177808315532"><ele>62.0</ele><time>2026-04-26T16:43:39.896Z</time></trkpt><trkpt lat="44.20716054901621" lon="9.978067898456715"><ele>61.6</ele><time>2026-04-26T16:43:40.896Z</time></trkpt><trkpt lat="44.20722571995389" lon="9.977961054013752"><ele>61.2</ele><time>2026-04-26T16:43:41.896Z</time></trkpt><trkpt lat="44.207288235177735" lon="9.977861551714435"><ele>60.8</ele><time>2026-04-26T16:43:42.896Z</time></trkpt><trkpt lat="44.20735620640053" lon="9.97776009121708"><ele>60.4</ele><time>2026-04-26T16:43:43.896Z</time></trkpt><trkpt lat="44.20742216812296" lon="9.977673764569417"><ele>60.0</ele><time>2026-04-26T16:43:44.896Z</time></trkpt><trkpt lat="44.20749723437958" lon="9.977589437604516"><ele>60.2</ele><time>2026-04-26T16:43:45.896Z</time></trkpt><trkpt lat="44.20758260778905" lon="9.977512066174414"><ele>60.4</ele><time>2026-04-26T16:43:46.896Z</time></trkpt><trkpt lat="44.20767443023626" lon="9.977439294275163"><ele>60.599999999999994</ele><time>2026-04-26T16:43:47.896Z</time></trkpt><trkpt lat="44.20777144736169" lon="9.977373325400048"><ele>60.8</ele><time>2026-04-26T16:43:48.896Z</time></trkpt><trkpt lat="44.207868348712836" lon="9.977318289796195"><ele>61.0</ele><time>2026-04-26T16:43:49.896Z</time></trkpt><trkpt lat="44.207953027638226" lon="9.977267016457775"><ele>60.99999999999999</ele><time>2026-04-26T16:43:50.896Z</time></trkpt><trkpt lat="44.2080366024875" lon="9.97722119101558"><ele>61.0</ele><time>2026-04-26T16:43:51.896Z</time></trkpt><trkpt lat="44.20810903358839" lon="9.97717404506486"><ele>60.99999999999999</ele><time>2026-04-26T16:43:52.896Z</time></trkpt><trkpt lat="44.208178856839154" lon="9.977136444449602"><ele>60.99999999999999</ele><time>2026-04-26T16:43:53.896Z</time></trkpt><trkpt lat="44.208239689731776" lon="9.977100064089946"><ele>61.0</ele><time>2026-04-26T16:43:54.896Z</time></trkpt><trkpt lat="44.20829960382488" lon="9.977062003306823"><ele>60.99999999999999</ele><time>2026-04-26T16:43:55.896Z</time></trkpt><trkpt lat="44.20835713535266" lon="9.977012729333781"><ele>60.99999999999999</ele><time>2026-04-26T16:43:56.896Z</time></trkpt><trkpt lat="44.2084519547819" lon="9.976919750742098"><ele>63.25</ele><time>2026-04-26T16:43:58.896Z</time></trkpt><trkpt lat="44.20856216037092" lon="9.976813975746461"><ele>65.5</ele><time>2026-04-26T16:44:00.896Z</time></trkpt><trkpt lat="44.20864889329569" lon="9.976769789197965"><ele>67.75</ele><time>2026-04-26T16:44:01.896Z</time></trkpt><trkpt lat="44.208755937034645" lon="9.976747884176312"><ele>70.0</ele><time>2026-04-26T16:44:02.896Z</time></trkpt><trkpt lat="44.20888629824241" lon="9.976754589296176"><ele>74.0</ele><time>2026-04-26T16:44:03.896Z</time></trkpt><trkpt lat="44.20903016701403" lon="9.976773172632297"><ele>78.0</ele><time>2026-04-26T16:44:04.896Z</time></trkpt><trkpt lat="44.2092009429244" lon="9.97678460592065"><ele>82.0</ele><time>2026-04-26T16:44:05.896Z</time></trkpt><trkpt lat="44.20960454592698" lon="9.976884459520315"><ele>82.0</ele><time>2026-04-26T16:44:07.896Z</time></trkpt><trkpt lat="44.20979614059146" lon="9.976936753441047"><ele>82.0</ele><time>2026-04-26T16:44:08.896Z</time></trkpt><trkpt lat="44.20995920692838" lon="9.976986489923785"><ele>82.0</ele><time>2026-04-26T16:44:09.896Z</time></trkpt><trkpt lat="44.21010418371026" lon="9.977038472099109"><ele>81.6</ele><time>2026-04-26T16:44:10.896Z</time></trkpt><trkpt lat="44.2102278648205" lon="9.977074421771977"><ele>81.19999999999999</ele><time>2026-04-26T16:44:11.896Z</time></trkpt><trkpt lat="44.21033625252088" lon="9.977105537718687"><ele>80.8</ele><time>2026-04-26T16:44:12.896Z</time></trkpt><trkpt lat="44.21043923524701" lon="9.977137287027974"><ele>80.4</ele><time>2026-04-26T16:44:13.896Z</time></trkpt><trkpt lat="44.21052540942247" lon="9.977193976821866"><ele>80.0</ele><time>2026-04-26T16:44:14.896Z</time></trkpt><trkpt lat="44.2106051473579" lon="9.977268875468171"><ele>80.16666666666667</ele><time>2026-04-26T16:44:15.896Z</time></trkpt><trkpt lat="44.21066339389065" lon="9.977362725813919"><ele>80.33333333333334</ele><time>2026-04-26T16:44:16.896Z</time></trkpt><trkpt lat="44.2107242906823" lon="9.97746116357413"><ele>80.5</ele><time>2026-04-26T16:44:17.896Z</time></trkpt><trkpt lat="44.21079367048106" lon="9.977546494744741"><ele>80.66666666666667</ele><time>2026-04-26T16:44:18.896Z</time></trkpt><trkpt lat="44.21086996806671" lon="9.977605166552474"><ele>80.83333333333333</ele><time>2026-04-26T16:44:19.896Z</time></trkpt><trkpt lat="44.21095207479581" lon="9.977634163065689"><ele>81.0</ele><time>2026-04-26T16:44:20.896Z</time></trkpt><trkpt lat="44.211031912212846" lon="9.97762944674549"><ele>81.0</ele><time>2026-04-26T16:44:21.896Z</time></trkpt><trkpt lat="44.21111861963998" lon="9.977597870686644"><ele>81.0</ele><time>2026-04-26T16:44:22.896Z</time></trkpt><trkpt lat="44.21121563375856" lon="9.977564068857717"><ele>81.0</ele><time>2026-04-26T16:44:23.896Z</time></trkpt><trkpt lat="44.21131007572207" lon="9.97755646393272"><ele>81.0</ele><time>2026-04-26T16:44:24.896Z</time></trkpt><trkpt lat="44.21141155709471" lon="9.977563300067986"><ele>81.0</ele><time>2026-04-26T16:44:25.896Z</time></trkpt><trkpt lat="44.211521117329724" lon="9.977591230772296"><ele>79.6</ele><time>2026-04-26T16:44:26.896Z</time></trkpt><trkpt lat="44.211616471268925" lon="9.977631197428966"><ele>78.19999999999999</ele><time>2026-04-26T16:44:27.896Z</time></trkpt><trkpt lat="44.21171556813395" lon="9.977668272651439"><ele>76.80000000000001</ele><time>2026-04-26T16:44:28.896Z</time></trkpt><trkpt lat="44.21181438551459" lon="9.977689203423127"><ele>75.4</ele><time>2026-04-26T16:44:29.896Z</time></trkpt><trkpt lat="44.21191738848126" lon="9.977700671721495"><ele>74.0</ele><time>2026-04-26T16:44:30.896Z</time></trkpt><trkpt lat="44.212025070362934" lon="9.977703646986845"><ele>74.0</ele><time>2026-04-26T16:44:31.896Z</time></trkpt><trkpt lat="44.21214810243053" lon="9.977700518718427"><ele>74.0</ele><time>2026-04-26T16:44:32.896Z</time></trkpt><trkpt lat="44.21226777239412" lon="9.977695286776147"><ele>74.0</ele><time>2026-04-26T16:44:33.896Z</time></trkpt><trkpt lat="44.21239286347514" lon="9.977694172426421"><ele>74.0</ele><time>2026-04-26T16:44:34.896Z</time></trkpt><trkpt lat="44.212511788957244" lon="9.977687644248856"><ele>72.66666666666667</ele><time>2026-04-26T16:44:35.896Z</time></trkpt><trkpt lat="44.212635520870386" lon="9.977685416276547"><ele>71.33333333333333</ele><time>2026-04-26T16:44:36.896Z</time></trkpt><trkpt lat="44.21287294358921" lon="9.97768334118576"><ele>70.0</ele><time>2026-04-26T16:44:38.896Z</time></trkpt><trkpt lat="44.21298267725431" lon="9.97767754543171"><ele>70.0</ele><time>2026-04-26T16:44:39.896Z</time></trkpt><trkpt lat="44.21309180535102" lon="9.97767232272297"><ele>70.0</ele><time>2026-04-26T16:44:40.896Z</time></trkpt><trkpt lat="44.21320837241916" lon="9.977673423627033"><ele>70.0</ele><time>2026-04-26T16:44:41.896Z</time></trkpt><trkpt lat="44.21332710961862" lon="9.977675985000129"><ele>70.0</ele><time>2026-04-26T16:44:42.896Z</time></trkpt><trkpt lat="44.21344169374914" lon="9.977675781634177"><ele>69.0</ele><time>2026-04-26T16:44:43.896Z</time></trkpt><trkpt lat="44.21355619295001" lon="9.97767329097515"><ele>68.0</ele><time>2026-04-26T16:44:44.896Z</time></trkpt><trkpt lat="44.21367377825921" lon="9.977653474272476"><ele>67.0</ele><time>2026-04-26T16:44:45.896Z</time></trkpt><trkpt lat="44.2137912938534" lon="9.977617163986464"><ele>66.0</ele><time>2026-04-26T16:44:46.896Z</time></trkpt><trkpt lat="44.213906567447424" lon="9.97757926952955"><ele>66.66666666666667</ele><time>2026-04-26T16:44:47.896Z</time></trkpt><trkpt lat="44.214145468939954" lon="9.977496733023543"><ele>67.33333333333334</ele><time>2026-04-26T16:44:49.895Z</time></trkpt><trkpt lat="44.214268818862" lon="9.977454319441492"><ele>68.0</ele><time>2026-04-26T16:44:50.895Z</time></trkpt><trkpt lat="44.21439542899086" lon="9.97742264481469"><ele>68.0</ele><time>2026-04-26T16:44:51.895Z</time></trkpt><trkpt lat="44.21465078004365" lon="9.977389996829542"><ele>68.0</ele><time>2026-04-26T16:44:53.895Z</time></trkpt><trkpt lat="44.21478082787506" lon="9.977383627189786"><ele>68.0</ele><time>2026-04-26T16:44:54.895Z</time></trkpt><trkpt lat="44.21491262027029" lon="9.9773788582822"><ele>68.0</ele><time>2026-04-26T16:44:55.895Z</time></trkpt><trkpt lat="44.21504805601924" lon="9.97737307923539"><ele>68.0</ele><time>2026-04-26T16:44:56.895Z</time></trkpt><trkpt lat="44.21518468665707" lon="9.977368277988779"><ele>68.0</ele><time>2026-04-26T16:44:57.895Z</time></trkpt><trkpt lat="44.21532087472119" lon="9.977364250468488"><ele>68.0</ele><time>2026-04-26T16:44:58.895Z</time></trkpt><trkpt lat="44.21546026349126" lon="9.977353948327666"><ele>68.0</ele><time>2026-04-26T16:44:59.895Z</time></trkpt><trkpt lat="44.21560039205018" lon="9.977332095607437"><ele>68.0</ele><time>2026-04-26T16:45:00.893Z</time></trkpt><trkpt lat="44.215741100243314" lon="9.977302208379644"><ele>68.0</ele><time>2026-04-26T16:45:01.894Z</time></trkpt><trkpt lat="44.21588131775108" lon="9.977268705765018"><ele>68.0</ele><time>2026-04-26T16:45:02.894Z</time></trkpt><trkpt lat="44.21601752519587" lon="9.977229063204984"><ele>68.5</ele><time>2026-04-26T16:45:03.893Z</time></trkpt><trkpt lat="44.21615048119989" lon="9.977189788036496"><ele>69.0</ele><time>2026-04-26T16:45:04.893Z</time></trkpt><trkpt lat="44.21628060830014" lon="9.977149741300234"><ele>69.5</ele><time>2026-04-26T16:45:05.893Z</time></trkpt><trkpt lat="44.21641333904227" lon="9.977107544220813"><ele>70.0</ele><time>2026-04-26T16:45:06.893Z</time></trkpt><trkpt lat="44.21654230226771" lon="9.977070106460788"><ele>70.5</ele><time>2026-04-26T16:45:07.893Z</time></trkpt><trkpt lat="44.21666941516599" lon="9.97703190360984"><ele>71.0</ele><time>2026-04-26T16:45:08.893Z</time></trkpt><trkpt lat="44.21679165588264" lon="9.976994527200834"><ele>71.5</ele><time>2026-04-26T16:45:09.893Z</time></trkpt><trkpt lat="44.21691291657247" lon="9.976960226740783"><ele>72.0</ele><time>2026-04-26T16:45:10.893Z</time></trkpt><trkpt lat="44.21703084372066" lon="9.976925088199595"><ele>72.0</ele><time>2026-04-26T16:45:11.893Z</time></trkpt><trkpt lat="44.217148394072424" lon="9.976889983909839"><ele>72.0</ele><time>2026-04-26T16:45:12.893Z</time></trkpt><trkpt lat="44.21726515794813" lon="9.976853472411014"><ele>72.0</ele><time>2026-04-26T16:45:13.894Z</time></trkpt><trkpt lat="44.21738449967366" lon="9.976814190021683"><ele>72.0</ele><time>2026-04-26T16:45:14.894Z</time></trkpt><trkpt lat="44.21750547304714" lon="9.976776722760697"><ele>72.0</ele><time>2026-04-26T16:45:15.894Z</time></trkpt><trkpt lat="44.21762958198316" lon="9.97673827200349"><ele>72.0</ele><time>2026-04-26T16:45:16.894Z</time></trkpt><trkpt lat="44.2177505265682" lon="9.976699568585678"><ele>72.0</ele><time>2026-04-26T16:45:17.894Z</time></trkpt><trkpt lat="44.21787722988015" lon="9.976665461785114"><ele>72.0</ele><time>2026-04-26T16:45:18.894Z</time></trkpt><trkpt lat="44.21800076818232" lon="9.976635293567034"><ele>72.8</ele><time>2026-04-26T16:45:19.894Z</time></trkpt><trkpt lat="44.21812572336476" lon="9.976606039558206"><ele>73.6</ele><time>2026-04-26T16:45:20.894Z</time></trkpt><trkpt lat="44.21824281147876" lon="9.976581225381"><ele>74.39999999999999</ele><time>2026-04-26T16:45:21.894Z</time></trkpt><trkpt lat="44.21835052810432" lon="9.976561809296175"><ele>75.2</ele><time>2026-04-26T16:45:22.894Z</time></trkpt><trkpt lat="44.21844461265913" lon="9.976543432832903"><ele>76.0</ele><time>2026-04-26T16:45:23.894Z</time></trkpt><trkpt lat="44.21853042429991" lon="9.97654301445647"><ele>76.33333333333333</ele><time>2026-04-26T16:45:24.894Z</time></trkpt><trkpt lat="44.218602369568096" lon="9.976557664319323"><ele>76.66666666666666</ele><time>2026-04-26T16:45:25.894Z</time></trkpt><trkpt lat="44.21867151837912" lon="9.976566449396563"><ele>77.0</ele><time>2026-04-26T16:45:26.894Z</time></trkpt><trkpt lat="44.218739068001234" lon="9.976560208603354"><ele>77.33333333333333</ele><time>2026-04-26T16:45:27.894Z</time></trkpt><trkpt lat="44.218856905323356" lon="9.976536708258857"><ele>77.66666666666667</ele><time>2026-04-26T16:45:29.894Z</time></trkpt><trkpt lat="44.2189675319322" lon="9.976527331610722"><ele>78.0</ele><time>2026-04-26T16:45:31.894Z</time></trkpt><trkpt lat="44.21906824600479" lon="9.976494571878906"><ele>78.2</ele><time>2026-04-26T16:45:33.894Z</time></trkpt><trkpt lat="44.21907646558139" lon="9.976390956845455"><ele>78.4</ele><time>2026-04-26T16:45:36.894Z</time></trkpt><trkpt lat="44.219084083158116" lon="9.976272675751172"><ele>78.60000000000001</ele><time>2026-04-26T16:54:05.892Z</time></trkpt><trkpt lat="44.21920564151134" lon="9.976195441330228"><ele>78.8</ele><time>2026-04-26T16:54:07.892Z</time></trkpt><trkpt lat="44.2192941755712" lon="9.976184891885449"><ele>79.0</ele><time>2026-04-26T16:54:08.892Z</time></trkpt><trkpt lat="44.21940224241485" lon="9.976163214234361"><ele>79.0</ele><time>2026-04-26T16:54:09.892Z</time></trkpt><trkpt lat="44.21952784549942" lon="9.976120502900935"><ele>79.0</ele><time>2026-04-26T16:54:10.892Z</time></trkpt><trkpt lat="44.21964247492052" lon="9.97608308715125"><ele>79.0</ele><time>2026-04-26T16:54:11.892Z</time></trkpt><trkpt lat="44.21975401985062" lon="9.97604514621812"><ele>79.0</ele><time>2026-04-26T16:54:12.892Z</time></trkpt><trkpt lat="44.21986708367774" lon="9.97600499536448"><ele>75.66666666666666</ele><time>2026-04-26T16:54:13.892Z</time></trkpt><trkpt lat="44.21999734207874" lon="9.975946780112036"><ele>72.33333333333333</ele><time>2026-04-26T16:54:14.892Z</time></trkpt><trkpt lat="44.22014356169473" lon="9.975880581298465"><ele>69.0</ele><time>2026-04-26T16:54:15.892Z</time></trkpt><trkpt lat="44.22043873826102" lon="9.975863360967507"><ele>69.0</ele><time>2026-04-26T16:54:16.892Z</time></trkpt><trkpt lat="44.220673417416215" lon="9.97584296053122"><ele>69.0</ele><time>2026-04-26T16:54:17.892Z</time></trkpt><trkpt lat="44.22087873902368" lon="9.975807271877704"><ele>69.0</ele><time>2026-04-26T16:54:18.892Z</time></trkpt><trkpt lat="44.221057991382196" lon="9.975788143821347"><ele>69.0</ele><time>2026-04-26T16:54:19.892Z</time></trkpt><trkpt lat="44.22122695315511" lon="9.9757609103771"><ele>69.0</ele><time>2026-04-26T16:54:20.892Z</time></trkpt><trkpt lat="44.22139766964286" lon="9.975719592255249"><ele>69.0</ele><time>2026-04-26T16:54:21.892Z</time></trkpt><trkpt lat="44.221570724670194" lon="9.975659261940146"><ele>71.66666666666667</ele><time>2026-04-26T16:54:22.892Z</time></trkpt><trkpt lat="44.221739973186175" lon="9.975588442098429"><ele>74.33333333333334</ele><time>2026-04-26T16:54:23.892Z</time></trkpt><trkpt lat="44.221907257379215" lon="9.975504730693316"><ele>77.0</ele><time>2026-04-26T16:54:24.892Z</time></trkpt><trkpt lat="44.222080154915645" lon="9.975417561888857"><ele>77.0</ele><time>2026-04-26T16:54:25.892Z</time></trkpt><trkpt lat="44.22225376812568" lon="9.975332721009368"><ele>77.0</ele><time>2026-04-26T16:54:26.892Z</time></trkpt><trkpt lat="44.222432419668955" lon="9.975245462176172"><ele>77.0</ele><time>2026-04-26T16:54:27.892Z</time></trkpt><trkpt lat="44.22261254732183" lon="9.97516051822185"><ele>78.66666666666667</ele><time>2026-04-26T16:54:28.892Z</time></trkpt><trkpt lat="44.22278156324738" lon="9.975059560315609"><ele>80.33333333333333</ele><time>2026-04-26T16:54:29.892Z</time></trkpt><trkpt lat="44.22293656313954" lon="9.974974514428126"><ele>82.0</ele><time>2026-04-26T16:54:30.892Z</time></trkpt><trkpt lat="44.223090423994705" lon="9.974887397394193"><ele>77.0</ele><time>2026-04-26T16:54:31.892Z</time></trkpt><trkpt lat="44.223242112314104" lon="9.974800842273709"><ele>72.0</ele><time>2026-04-26T16:54:32.892Z</time></trkpt><trkpt lat="44.223396002540014" lon="9.974720549188763"><ele>67.0</ele><time>2026-04-26T16:54:33.892Z</time></trkpt><trkpt lat="44.22354296683013" lon="9.974628410353949"><ele>67.0</ele><time>2026-04-26T16:54:34.892Z</time></trkpt><trkpt lat="44.22366928602143" lon="9.974542276293402"><ele>67.0</ele><time>2026-04-26T16:54:35.892Z</time></trkpt><trkpt lat="44.223784477164635" lon="9.97446979767956"><ele>67.0</ele><time>2026-04-26T16:54:36.892Z</time></trkpt><trkpt lat="44.22388997064704" lon="9.974400761164915"><ele>67.0</ele><time>2026-04-26T16:54:37.892Z</time></trkpt><trkpt lat="44.22398312207887" lon="9.974338154465782"><ele>66.83333333333333</ele><time>2026-04-26T16:54:38.892Z</time></trkpt><trkpt lat="44.224064830832816" lon="9.974283807155182"><ele>66.66666666666666</ele><time>2026-04-26T16:54:39.892Z</time></trkpt><trkpt lat="44.22413739236449" lon="9.974239512543825"><ele>66.5</ele><time>2026-04-26T16:54:40.892Z</time></trkpt><trkpt lat="44.22419970236963" lon="9.974197702801494"><ele>66.33333333333333</ele><time>2026-04-26T16:54:41.892Z</time></trkpt><trkpt lat="44.22427898226937" lon="9.974156012487377"><ele>66.16666666666667</ele><time>2026-04-26T16:54:43.892Z</time></trkpt><trkpt lat="44.22433670884408" lon="9.97409627388901"><ele>66.0</ele><time>2026-04-26T16:54:45.892Z</time></trkpt><trkpt lat="44.224326350075124" lon="9.973925741891174"><ele>66.0</ele><time>2026-04-26T16:54:47.892Z</time></trkpt><trkpt lat="44.22429477875008" lon="9.9737903304042"><ele>66.0</ele><time>2026-04-26T16:54:48.892Z</time></trkpt><trkpt lat="44.224254241502706" lon="9.973635604124437"><ele>66.0</ele><time>2026-04-26T16:54:49.892Z</time></trkpt><trkpt lat="44.22421336291325" lon="9.973465665493247"><ele>66.0</ele><time>2026-04-26T16:54:50.892Z</time></trkpt><trkpt lat="44.22416940485333" lon="9.973279134709266"><ele>65.33333333333333</ele><time>2026-04-26T16:54:51.892Z</time></trkpt><trkpt lat="44.224119118420816" lon="9.973071158763846"><ele>64.66666666666666</ele><time>2026-04-26T16:54:52.892Z</time></trkpt><trkpt lat="44.22406860289349" lon="9.972855688609885"><ele>64.0</ele><time>2026-04-26T16:54:53.892Z</time></trkpt><trkpt lat="44.22401614169196" lon="9.972637913964586"><ele>63.5</ele><time>2026-04-26T16:54:54.893Z</time></trkpt><trkpt lat="44.22396741999224" lon="9.972431467998353"><ele>63.0</ele><time>2026-04-26T16:54:55.893Z</time></trkpt><trkpt lat="44.22392198787693" lon="9.972233536037331"><ele>62.5</ele><time>2026-04-26T16:54:56.893Z</time></trkpt><trkpt lat="44.223877741098306" lon="9.972042414025982"><ele>62.0</ele><time>2026-04-26T16:54:57.893Z</time></trkpt><trkpt lat="44.223834330262356" lon="9.971853478698193"><ele>62.5</ele><time>2026-04-26T16:54:58.893Z</time></trkpt><trkpt lat="44.22379127229479" lon="9.971672389008821"><ele>63.0</ele><time>2026-04-26T16:54:59.893Z</time></trkpt><trkpt lat="44.223751755718766" lon="9.97150075957013"><ele>63.5</ele><time>2026-04-26T16:55:00.893Z</time></trkpt><trkpt lat="44.22371328742145" lon="9.971341679240062"><ele>64.0</ele><time>2026-04-26T16:55:01.893Z</time></trkpt><trkpt lat="44.22367243459457" lon="9.971184403837015"><ele>64.0</ele><time>2026-04-26T16:55:02.893Z</time></trkpt><trkpt lat="44.22363242824579" lon="9.971031965422547"><ele>64.0</ele><time>2026-04-26T16:55:03.893Z</time></trkpt><trkpt lat="44.223597714898645" lon="9.970878889815456"><ele>64.0</ele><time>2026-04-26T16:55:04.893Z</time></trkpt><trkpt lat="44.22356447968883" lon="9.970729083687495"><ele>64.0</ele><time>2026-04-26T16:55:05.893Z</time></trkpt><trkpt lat="44.22353118771948" lon="9.970587616118674"><ele>64.33333333333333</ele><time>2026-04-26T16:55:06.893Z</time></trkpt><trkpt lat="44.223501543539385" lon="9.970454834345839"><ele>64.66666666666666</ele><time>2026-04-26T16:55:07.893Z</time></trkpt><trkpt lat="44.22347138080788" lon="9.97032443241218"><ele>65.0</ele><time>2026-04-26T16:55:08.893Z</time></trkpt><trkpt lat="44.223445716576094" lon="9.97020856209046"><ele>65.33333333333333</ele><time>2026-04-26T16:55:09.893Z</time></trkpt><trkpt lat="44.22342149050327" lon="9.970108946282513"><ele>65.66666666666667</ele><time>2026-04-26T16:55:10.893Z</time></trkpt><trkpt lat="44.22340094937631" lon="9.970021989182202"><ele>66.0</ele><time>2026-04-26T16:55:11.893Z</time></trkpt><trkpt lat="44.223370474269146" lon="9.969882732952362"><ele>66.2</ele><time>2026-04-26T16:55:13.893Z</time></trkpt><trkpt lat="44.22335287797716" lon="9.969766507242076"><ele>66.39999999999999</ele><time>2026-04-26T16:55:16.893Z</time></trkpt><trkpt lat="44.223407567833995" lon="9.96964869798819"><ele>66.6</ele><time>2026-04-26T16:55:19.893Z</time></trkpt><trkpt lat="44.22350265879718" lon="9.969614135194707"><ele>66.8</ele><time>2026-04-26T16:55:20.893Z</time></trkpt><trkpt lat="44.22359654955049" lon="9.969566650366703"><ele>67.0</ele><time>2026-04-26T16:55:21.893Z</time></trkpt><trkpt lat="44.223729595285604" lon="9.969485722267201"><ele>67.0</ele><time>2026-04-26T16:55:22.893Z</time></trkpt><trkpt lat="44.22390534736363" lon="9.969385622906566"><ele>67.0</ele><time>2026-04-26T16:55:23.893Z</time></trkpt><trkpt lat="44.22411819225346" lon="9.969288253937828"><ele>67.0</ele><time>2026-04-26T16:55:24.893Z</time></trkpt><trkpt lat="44.22434565909649" lon="9.969184240025129"><ele>67.0</ele><time>2026-04-26T16:55:25.893Z</time></trkpt><trkpt lat="44.2245551157645" lon="9.969075039828411"><ele>67.0</ele><time>2026-04-26T16:55:26.893Z</time></trkpt><trkpt lat="44.22473671985807" lon="9.968958499071972"><ele>67.0</ele><time>2026-04-26T16:55:27.893Z</time></trkpt><trkpt lat="44.224906353286066" lon="9.968839068942854"><ele>67.0</ele><time>2026-04-26T16:55:28.893Z</time></trkpt><trkpt lat="44.22506623708417" lon="9.968716946413647"><ele>67.0</ele><time>2026-04-26T16:55:29.893Z</time></trkpt><trkpt lat="44.22522594309961" lon="9.96858365870185"><ele>67.0</ele><time>2026-04-26T16:55:30.892Z</time></trkpt><trkpt lat="44.22538461972998" lon="9.968448270363126"><ele>67.0</ele><time>2026-04-26T16:55:31.891Z</time></trkpt><trkpt lat="44.225524144376486" lon="9.968321620108824"><ele>67.0</ele><time>2026-04-26T16:55:32.891Z</time></trkpt><trkpt lat="44.22564884861074" lon="9.968202814794818"><ele>67.0</ele><time>2026-04-26T16:55:33.891Z</time></trkpt><trkpt lat="44.22576901807447" lon="9.968074235790084"><ele>67.0</ele><time>2026-04-26T16:55:34.891Z</time></trkpt><trkpt lat="44.225892507263005" lon="9.96792979563015"><ele>67.0</ele><time>2026-04-26T16:55:35.891Z</time></trkpt><trkpt lat="44.22601342151127" lon="9.967767714113199"><ele>67.0</ele><time>2026-04-26T16:55:36.891Z</time></trkpt><trkpt lat="44.22612106943792" lon="9.967608461968455"><ele>66.75</ele><time>2026-04-26T16:55:37.891Z</time></trkpt><trkpt lat="44.226211699930154" lon="9.96747282615586"><ele>66.5</ele><time>2026-04-26T16:55:38.891Z</time></trkpt><trkpt lat="44.226296553186856" lon="9.96734654922081"><ele>66.25</ele><time>2026-04-26T16:55:39.891Z</time></trkpt><trkpt lat="44.22636995074197" lon="9.967233220063594"><ele>66.0</ele><time>2026-04-26T16:55:40.891Z</time></trkpt><trkpt lat="44.22643358962721" lon="9.967127292119654"><ele>66.0</ele><time>2026-04-26T16:55:41.891Z</time></trkpt><trkpt lat="44.22650643982519" lon="9.967009264026734"><ele>66.0</ele><time>2026-04-26T16:55:42.891Z</time></trkpt><trkpt lat="44.22658808783149" lon="9.966875090356854"><ele>66.0</ele><time>2026-04-26T16:55:43.891Z</time></trkpt><trkpt lat="44.226675263088524" lon="9.966726528610646"><ele>66.0</ele><time>2026-04-26T16:55:44.891Z</time></trkpt><trkpt lat="44.226767943579" lon="9.966570361415222"><ele>65.33333333333333</ele><time>2026-04-26T16:55:45.891Z</time></trkpt><trkpt lat="44.22686550454317" lon="9.966412226789506"><ele>64.66666666666666</ele><time>2026-04-26T16:55:46.891Z</time></trkpt><trkpt lat="44.2269635745439" lon="9.966251839647757"><ele>64.0</ele><time>2026-04-26T16:55:47.891Z</time></trkpt><trkpt lat="44.227070388574965" lon="9.966102660933203"><ele>64.0</ele><time>2026-04-26T16:55:48.891Z</time></trkpt><trkpt lat="44.227191287023395" lon="9.965974588666018"><ele>64.0</ele><time>2026-04-26T16:55:49.891Z</time></trkpt><trkpt lat="44.22732559055222" lon="9.965869337928796"><ele>64.0</ele><time>2026-04-26T16:55:50.891Z</time></trkpt><trkpt lat="44.227475603270136" lon="9.965792168470987"><ele>64.5</ele><time>2026-04-26T16:55:51.891Z</time></trkpt><trkpt lat="44.22762740672851" lon="9.965735674585666"><ele>65.0</ele><time>2026-04-26T16:55:52.891Z</time></trkpt><trkpt lat="44.2277712977255" lon="9.96568246828046"><ele>65.5</ele><time>2026-04-26T16:55:53.891Z</time></trkpt><trkpt lat="44.22790310010401" lon="9.965636219464812"><ele>66.0</ele><time>2026-04-26T16:55:54.891Z</time></trkpt><trkpt lat="44.228024872012156" lon="9.965593882002032"><ele>66.0</ele><time>2026-04-26T16:55:55.891Z</time></trkpt><trkpt lat="44.228135775526354" lon="9.965544442229495"><ele>66.0</ele><time>2026-04-26T16:55:56.891Z</time></trkpt><trkpt lat="44.22825111136925" lon="9.965495339211488"><ele>66.0</ele><time>2026-04-26T16:55:57.891Z</time></trkpt><trkpt lat="44.22837644216696" lon="9.96544291096563"><ele>66.0</ele><time>2026-04-26T16:55:58.891Z</time></trkpt><trkpt lat="44.22850843709054" lon="9.96539046526243"><ele>66.33333333333333</ele><time>2026-04-26T16:55:59.891Z</time></trkpt><trkpt lat="44.22864944770829" lon="9.965332816284057"><ele>66.66666666666666</ele><time>2026-04-26T16:56:00.891Z</time></trkpt><trkpt lat="44.22879518038284" lon="9.965275084776422"><ele>67.0</ele><time>2026-04-26T16:56:01.891Z</time></trkpt><trkpt lat="44.22894592540653" lon="9.965216801178883"><ele>66.75</ele><time>2026-04-26T16:56:02.891Z</time></trkpt><trkpt lat="44.229096630903356" lon="9.965163125032232"><ele>66.5</ele><time>2026-04-26T16:56:03.891Z</time></trkpt><trkpt lat="44.22923458064769" lon="9.96511933060285"><ele>66.25</ele><time>2026-04-26T16:56:04.891Z</time></trkpt><trkpt lat="44.22935724484085" lon="9.965082672125714"><ele>66.0</ele><time>2026-04-26T16:56:05.891Z</time></trkpt><trkpt lat="44.22947325151411" lon="9.965048731581067"><ele>66.2</ele><time>2026-04-26T16:56:06.891Z</time></trkpt><trkpt lat="44.22957858202224" lon="9.965008485375385"><ele>66.39999999999999</ele><time>2026-04-26T16:56:07.891Z</time></trkpt><trkpt lat="44.22966958374191" lon="9.964976116908973"><ele>66.6</ele><time>2026-04-26T16:56:08.891Z</time></trkpt><trkpt lat="44.229755238736644" lon="9.964943876362984"><ele>66.8</ele><time>2026-04-26T16:56:09.891Z</time></trkpt><trkpt lat="44.22984617593522" lon="9.964909053685144"><ele>67.0</ele><time>2026-04-26T16:56:10.891Z</time></trkpt><trkpt lat="44.229936459537136" lon="9.964885103531051"><ele>68.75</ele><time>2026-04-26T16:56:11.891Z</time></trkpt><trkpt lat="44.230033319348415" lon="9.96483557912498"><ele>70.5</ele><time>2026-04-26T16:56:12.891Z</time></trkpt><trkpt lat="44.23013931062591" lon="9.96476810171951"><ele>72.25</ele><time>2026-04-26T16:56:13.891Z</time></trkpt><trkpt lat="44.23025182301098" lon="9.964688739084016"><ele>74.0</ele><time>2026-04-26T16:56:14.891Z</time></trkpt><trkpt lat="44.23037032558632" lon="9.964589501727904"><ele>74.0</ele><time>2026-04-26T16:56:15.891Z</time></trkpt><trkpt lat="44.23048147207292" lon="9.964477104275915"><ele>74.0</ele><time>2026-04-26T16:56:16.891Z</time></trkpt><trkpt lat="44.23058553082748" lon="9.964346229311635"><ele>74.0</ele><time>2026-04-26T16:56:17.891Z</time></trkpt><trkpt lat="44.23067310355714" lon="9.964189143676533"><ele>74.0</ele><time>2026-04-26T16:56:18.891Z</time></trkpt><trkpt lat="44.23073885816653" lon="9.964013768579129"><ele>75.0</ele><time>2026-04-26T16:56:19.891Z</time></trkpt><trkpt lat="44.23079661768779" lon="9.963817357258627"><ele>76.0</ele><time>2026-04-26T16:56:20.891Z</time></trkpt><trkpt lat="44.23083295016835" lon="9.963611009474869"><ele>77.0</ele><time>2026-04-26T16:56:21.891Z</time></trkpt><trkpt lat="44.23086316128677" lon="9.963391772018745"><ele>76.0</ele><time>2026-04-26T16:56:22.891Z</time></trkpt><trkpt lat="44.23090287173397" lon="9.963148834932541"><ele>75.0</ele><time>2026-04-26T16:56:23.891Z</time></trkpt><trkpt lat="44.23094407806235" lon="9.96290682304975"><ele>74.0</ele><time>2026-04-26T16:56:24.891Z</time></trkpt><trkpt lat="44.23098309277879" lon="9.962665025805592"><ele>73.66666666666667</ele><time>2026-04-26T16:56:25.891Z</time></trkpt><trkpt lat="44.23101742669585" lon="9.962432254367501"><ele>73.33333333333333</ele><time>2026-04-26T16:56:26.891Z</time></trkpt><trkpt lat="44.231055778843455" lon="9.96220698172634"><ele>73.0</ele><time>2026-04-26T16:56:27.891Z</time></trkpt><trkpt lat="44.23110856716749" lon="9.961989342245953"><ele>73.0</ele><time>2026-04-26T16:56:28.891Z</time></trkpt><trkpt lat="44.23116981260977" lon="9.961777204572373"><ele>73.0</ele><time>2026-04-26T16:56:29.891Z</time></trkpt><trkpt lat="44.23125106090793" lon="9.961581453759909"><ele>73.0</ele><time>2026-04-26T16:56:30.891Z</time></trkpt><trkpt lat="44.23134499303063" lon="9.961396801293754"><ele>73.0</ele><time>2026-04-26T16:56:31.891Z</time></trkpt><trkpt lat="44.23145313897348" lon="9.961224323487142"><ele>73.0</ele><time>2026-04-26T16:56:32.891Z</time></trkpt><trkpt lat="44.23157240441448" lon="9.961072010162635"><ele>73.0</ele><time>2026-04-26T16:56:33.891Z</time></trkpt><trkpt lat="44.231702262601765" lon="9.96093692476747"><ele>73.66666666666666</ele><time>2026-04-26T16:56:34.891Z</time></trkpt><trkpt lat="44.231842291105984" lon="9.960822628254373"><ele>74.33333333333333</ele><time>2026-04-26T16:56:35.891Z</time></trkpt><trkpt lat="44.231989569943515" lon="9.96072518409801"><ele>75.0</ele><time>2026-04-26T16:56:36.891Z</time></trkpt><trkpt lat="44.232143751098995" lon="9.960641276584239"><ele>75.0</ele><time>2026-04-26T16:56:37.891Z</time></trkpt><trkpt lat="44.23230403145232" lon="9.960579580255416"><ele>75.0</ele><time>2026-04-26T16:56:38.891Z</time></trkpt><trkpt lat="44.23247149290194" lon="9.960549554664567"><ele>75.0</ele><time>2026-04-26T16:56:39.891Z</time></trkpt><trkpt lat="44.23263673032967" lon="9.960517286052577"><ele>76.66666666666667</ele><time>2026-04-26T16:56:40.891Z</time></trkpt><trkpt lat="44.23280836934553" lon="9.960503215812217"><ele>78.33333333333334</ele><time>2026-04-26T16:56:41.891Z</time></trkpt><trkpt lat="44.2329745547722" lon="9.960482452578123"><ele>80.0</ele><time>2026-04-26T16:56:42.891Z</time></trkpt><trkpt lat="44.23314012174281" lon="9.96046636267403"><ele>81.33333333333334</ele><time>2026-04-26T16:56:43.891Z</time></trkpt><trkpt lat="44.23330936180056" lon="9.960448584824528"><ele>82.66666666666667</ele><time>2026-04-26T16:56:44.891Z</time></trkpt><trkpt lat="44.23349456682803" lon="9.960420063759171"><ele>84.0</ele><time>2026-04-26T16:56:45.891Z</time></trkpt><trkpt lat="44.2337000336168" lon="9.960387408974638"><ele>84.0</ele><time>2026-04-26T16:56:46.891Z</time></trkpt><trkpt lat="44.23393156106114" lon="9.96034294541501"><ele>84.0</ele><time>2026-04-26T16:56:47.891Z</time></trkpt><trkpt lat="44.2341710662217" lon="9.960311197887558"><ele>85.66666666666667</ele><time>2026-04-26T16:56:48.891Z</time></trkpt><trkpt lat="44.234393350657975" lon="9.960287828677867"><ele>87.33333333333334</ele><time>2026-04-26T16:56:49.891Z</time></trkpt><trkpt lat="44.234602189003255" lon="9.960279714363464"><ele>89.0</ele><time>2026-04-26T16:56:50.891Z</time></trkpt><trkpt lat="44.23480312703592" lon="9.960268453512604"><ele>89.66666666666667</ele><time>2026-04-26T16:56:51.891Z</time></trkpt><trkpt lat="44.23497963622728" lon="9.960259464012145"><ele>90.33333333333333</ele><time>2026-04-26T16:56:52.891Z</time></trkpt><trkpt lat="44.235133582572175" lon="9.96024028378795"><ele>91.0</ele><time>2026-04-26T16:56:53.891Z</time></trkpt><trkpt lat="44.235294124235466" lon="9.960220639355189"><ele>91.0</ele><time>2026-04-26T16:56:54.891Z</time></trkpt><trkpt lat="44.23545593756644" lon="9.960212538456206"><ele>91.0</ele><time>2026-04-26T16:56:55.891Z</time></trkpt><trkpt lat="44.235625580571266" lon="9.960188731448321"><ele>91.0</ele><time>2026-04-26T16:56:56.891Z</time></trkpt><trkpt lat="44.2357865888931" lon="9.960166881521188"><ele>92.66666666666666</ele><time>2026-04-26T16:56:57.891Z</time></trkpt><trkpt lat="44.235941016586516" lon="9.960140804029853"><ele>94.33333333333333</ele><time>2026-04-26T16:56:58.891Z</time></trkpt><trkpt lat="44.23610276564867" lon="9.960114219099864"><ele>96.0</ele><time>2026-04-26T16:56:59.891Z</time></trkpt><trkpt lat="44.23625932370389" lon="9.96009643236532"><ele>96.0</ele><time>2026-04-26T16:57:00.891Z</time></trkpt><trkpt lat="44.23640883759938" lon="9.960071701808308"><ele>96.0</ele><time>2026-04-26T16:57:01.891Z</time></trkpt><trkpt lat="44.23654163382141" lon="9.960057730832576"><ele>96.0</ele><time>2026-04-26T16:57:02.891Z</time></trkpt><trkpt lat="44.236666799001455" lon="9.96004147967117"><ele>96.0</ele><time>2026-04-26T16:57:03.891Z</time></trkpt><trkpt lat="44.23680030831435" lon="9.96002723051608"><ele>92.5</ele><time>2026-04-26T16:57:04.891Z</time></trkpt><trkpt lat="44.236933113275725" lon="9.960006640288498"><ele>89.0</ele><time>2026-04-26T16:57:05.891Z</time></trkpt><trkpt lat="44.237070231872735" lon="9.959992801967472"><ele>85.5</ele><time>2026-04-26T16:57:06.891Z</time></trkpt><trkpt lat="44.23719837805882" lon="9.959980221517188"><ele>82.0</ele><time>2026-04-26T16:57:07.891Z</time></trkpt><trkpt lat="44.23731768432219" lon="9.959968483590776"><ele>81.75</ele><time>2026-04-26T16:57:08.891Z</time></trkpt><trkpt lat="44.237442042467066" lon="9.95995308609629"><ele>81.5</ele><time>2026-04-26T16:57:09.891Z</time></trkpt><trkpt lat="44.2375732651705" lon="9.959937486953292"><ele>81.25</ele><time>2026-04-26T16:57:10.891Z</time></trkpt><trkpt lat="44.237708534852025" lon="9.95992304385516"><ele>81.0</ele><time>2026-04-26T16:57:11.891Z</time></trkpt><trkpt lat="44.237858833618354" lon="9.959905074339787"><ele>81.0</ele><time>2026-04-26T16:57:12.891Z</time></trkpt><trkpt lat="44.23801463117186" lon="9.959890234832448"><ele>81.0</ele><time>2026-04-26T16:57:13.891Z</time></trkpt><trkpt lat="44.238168678339434" lon="9.95987684073403"><ele>81.0</ele><time>2026-04-26T16:57:14.891Z</time></trkpt><trkpt lat="44.23832323309356" lon="9.959855477308126"><ele>81.33333333333333</ele><time>2026-04-26T16:57:15.891Z</time></trkpt><trkpt lat="44.23847773197686" lon="9.95983818908937"><ele>81.66666666666666</ele><time>2026-04-26T16:57:16.891Z</time></trkpt><trkpt lat="44.23863238685237" lon="9.959818917125464"><ele>82.0</ele><time>2026-04-26T16:57:17.891Z</time></trkpt><trkpt lat="44.2387892740328" lon="9.959795219492623"><ele>82.0</ele><time>2026-04-26T16:57:18.891Z</time></trkpt><trkpt lat="44.238971699715016" lon="9.95975368228633"><ele>82.0</ele><time>2026-04-26T16:57:19.891Z</time></trkpt><trkpt lat="44.23916747680824" lon="9.959741542383561"><ele>82.0</ele><time>2026-04-26T16:57:20.891Z</time></trkpt><trkpt lat="44.239366807314184" lon="9.959718504414681"><ele>82.0</ele><time>2026-04-26T16:57:21.891Z</time></trkpt><trkpt lat="44.239579846183396" lon="9.959700262362407"><ele>82.0</ele><time>2026-04-26T16:57:22.891Z</time></trkpt><trkpt lat="44.239808949116814" lon="9.959685435100802"><ele>82.0</ele><time>2026-04-26T16:57:23.891Z</time></trkpt><trkpt lat="44.24006155825348" lon="9.959655569206838"><ele>83.0</ele><time>2026-04-26T16:57:24.891Z</time></trkpt><trkpt lat="44.240323082231846" lon="9.959636889478185"><ele>84.0</ele><time>2026-04-26T16:57:25.891Z</time></trkpt><trkpt lat="44.240586504746375" lon="9.959610967553768"><ele>85.5</ele><time>2026-04-26T16:57:26.891Z</time></trkpt><trkpt lat="44.2408529133319" lon="9.959575969485995"><ele>87.0</ele><time>2026-04-26T16:57:27.891Z</time></trkpt><trkpt lat="44.241135408823176" lon="9.959535950995262"><ele>87.0</ele><time>2026-04-26T16:57:28.891Z</time></trkpt><trkpt lat="44.241397311718025" lon="9.959497598234233"><ele>87.0</ele><time>2026-04-26T16:57:29.891Z</time></trkpt><trkpt lat="44.241640068711014" lon="9.959469078794124"><ele>89.0</ele><time>2026-04-26T16:57:30.891Z</time></trkpt><trkpt lat="44.24187995878429" lon="9.959435817104183"><ele>91.0</ele><time>2026-04-26T16:57:31.891Z</time></trkpt><trkpt lat="44.24210173903419" lon="9.959407426706026"><ele>92.66666666666666</ele><time>2026-04-26T16:57:32.891Z</time></trkpt><trkpt lat="44.24230623173381" lon="9.959373889352596"><ele>94.33333333333333</ele><time>2026-04-26T16:57:33.891Z</time></trkpt><trkpt lat="44.242495650220626" lon="9.959346462711617"><ele>96.0</ele><time>2026-04-26T16:57:34.891Z</time></trkpt><trkpt lat="44.24267543571848" lon="9.959321415533157"><ele>96.0</ele><time>2026-04-26T16:57:35.891Z</time></trkpt><trkpt lat="44.242839884497656" lon="9.959301957250503"><ele>96.0</ele><time>2026-04-26T16:57:36.889Z</time></trkpt><trkpt lat="44.24299430339643" lon="9.95928468114249"><ele>96.0</ele><time>2026-04-26T16:57:37.889Z</time></trkpt><trkpt lat="44.24314672809128" lon="9.959293259508348"><ele>96.33333333333334</ele><time>2026-04-26T16:57:38.889Z</time></trkpt><trkpt lat="44.24328863707093" lon="9.959364116098932"><ele>96.66666666666667</ele><time>2026-04-26T16:57:39.888Z</time></trkpt><trkpt lat="44.24343451799336" lon="9.959469283375372"><ele>97.0</ele><time>2026-04-26T16:57:40.888Z</time></trkpt><trkpt lat="44.24357051612877" lon="9.959626362674495"><ele>97.0</ele><time>2026-04-26T16:57:41.888Z</time></trkpt><trkpt lat="44.24372043380613" lon="9.959803166471627"><ele>97.0</ele><time>2026-04-26T16:57:42.889Z</time></trkpt><trkpt lat="44.24388112538421" lon="9.959978099152988"><ele>97.0</ele><time>2026-04-26T16:57:43.889Z</time></trkpt><trkpt lat="44.24404330103822" lon="9.960160841714321"><ele>97.33333333333334</ele><time>2026-04-26T16:57:44.889Z</time></trkpt><trkpt lat="44.24419327606088" lon="9.96033213807335"><ele>97.66666666666666</ele><time>2026-04-26T16:57:45.889Z</time></trkpt><trkpt lat="44.24434622821857" lon="9.960485734628264"><ele>98.0</ele><time>2026-04-26T16:57:46.889Z</time></trkpt><trkpt lat="44.244475957603285" lon="9.96061559842316"><ele>98.0</ele><time>2026-04-26T16:57:47.889Z</time></trkpt><trkpt lat="44.24461203676559" lon="9.960708688176993"><ele>98.0</ele><time>2026-04-26T16:57:48.889Z</time></trkpt><trkpt lat="44.24476908870202" lon="9.960741857465543"><ele>98.0</ele><time>2026-04-26T16:57:49.889Z</time></trkpt><trkpt lat="44.24495464615547" lon="9.960712396733356"><ele>95.33333333333333</ele><time>2026-04-26T16:57:50.889Z</time></trkpt><trkpt lat="44.24515661756088" lon="9.96066966423329"><ele>92.66666666666666</ele><time>2026-04-26T16:57:51.889Z</time></trkpt><trkpt lat="44.24537271953867" lon="9.960617959010268"><ele>90.0</ele><time>2026-04-26T16:57:52.889Z</time></trkpt><trkpt lat="44.245585087138544" lon="9.960597970864898"><ele>90.0</ele><time>2026-04-26T16:57:53.889Z</time></trkpt><trkpt lat="44.24577469063609" lon="9.960594293591768"><ele>90.0</ele><time>2026-04-26T16:57:54.889Z</time></trkpt><trkpt lat="44.24594272319456" lon="9.960618134062393"><ele>90.0</ele><time>2026-04-26T16:57:55.889Z</time></trkpt><trkpt lat="44.246087389716635" lon="9.96060597864776"><ele>90.0</ele><time>2026-04-26T16:57:56.889Z</time></trkpt><trkpt lat="44.2462248782698" lon="9.960512955483942"><ele>90.0</ele><time>2026-04-26T16:57:57.889Z</time></trkpt><trkpt lat="44.24635698493462" lon="9.960376719929048"><ele>90.0</ele><time>2026-04-26T16:57:58.889Z</time></trkpt><trkpt lat="44.24646286814523" lon="9.960183581500795"><ele>90.0</ele><time>2026-04-26T16:57:59.889Z</time></trkpt><trkpt lat="44.246539782182715" lon="9.959945318974238"><ele>90.0</ele><time>2026-04-26T16:58:00.889Z</time></trkpt><trkpt lat="44.24659165219176" lon="9.959668316139023"><ele>90.0</ele><time>2026-04-26T16:58:01.889Z</time></trkpt><trkpt lat="44.246648808785174" lon="9.959376497807044"><ele>91.33333333333333</ele><time>2026-04-26T16:58:02.889Z</time></trkpt><trkpt lat="44.24672073627124" lon="9.95911877009564"><ele>92.66666666666666</ele><time>2026-04-26T16:58:03.889Z</time></trkpt><trkpt lat="44.24683648283935" lon="9.95888993125643"><ele>94.0</ele><time>2026-04-26T16:58:04.889Z</time></trkpt><trkpt lat="44.24700695846127" lon="9.958681951519816"><ele>94.0</ele><time>2026-04-26T16:58:05.889Z</time></trkpt><trkpt lat="44.24722545242154" lon="9.95846584308227"><ele>94.0</ele><time>2026-04-26T16:58:06.889Z</time></trkpt><trkpt lat="44.24745741337893" lon="9.958239878422727"><ele>97.0</ele><time>2026-04-26T16:58:07.889Z</time></trkpt><trkpt lat="44.2477055849878" lon="9.95799741051151"><ele>100.0</ele><time>2026-04-26T16:58:08.889Z</time></trkpt><trkpt lat="44.24795497448702" lon="9.957759800557946"><ele>100.0</ele><time>2026-04-26T16:58:09.889Z</time></trkpt><trkpt lat="44.248213994688406" lon="9.95749087245963"><ele>100.0</ele><time>2026-04-26T16:58:10.889Z</time></trkpt><trkpt lat="44.24847517483753" lon="9.95722095766761"><ele>100.0</ele><time>2026-04-26T16:58:11.889Z</time></trkpt><trkpt lat="44.248725364866594" lon="9.95696372989365"><ele>100.0</ele><time>2026-04-26T16:58:12.889Z</time></trkpt><trkpt lat="44.248952742985686" lon="9.956743069747562"><ele>104.0</ele><time>2026-04-26T16:58:13.889Z</time></trkpt><trkpt lat="44.249169710547584" lon="9.956548751526906"><ele>108.0</ele><time>2026-04-26T16:58:14.889Z</time></trkpt><trkpt lat="44.249391288627095" lon="9.956362698356319"><ele>108.0</ele><time>2026-04-26T16:58:15.889Z</time></trkpt><trkpt lat="44.24960926283929" lon="9.9561993470629"><ele>108.0</ele><time>2026-04-26T16:58:16.889Z</time></trkpt><trkpt lat="44.249816134206164" lon="9.956029533140974"><ele>108.5</ele><time>2026-04-26T16:58:17.889Z</time></trkpt><trkpt lat="44.25000441745338" lon="9.955805082570183"><ele>109.0</ele><time>2026-04-26T16:58:18.889Z</time></trkpt><trkpt lat="44.25018300288058" lon="9.955547545320794"><ele>109.0</ele><time>2026-04-26T16:58:19.889Z</time></trkpt><trkpt lat="44.250361677456496" lon="9.955254253280254"><ele>109.0</ele><time>2026-04-26T16:58:20.889Z</time></trkpt><trkpt lat="44.250530668652765" lon="9.954972948592879"><ele>111.66666666666667</ele><time>2026-04-26T16:58:21.889Z</time></trkpt><trkpt lat="44.25068273994703" lon="9.954730627432665"><ele>114.33333333333334</ele><time>2026-04-26T16:58:22.889Z</time></trkpt><trkpt lat="44.25082490661859" lon="9.954522792190811"><ele>117.0</ele><time>2026-04-26T16:58:23.889Z</time></trkpt><trkpt lat="44.251001288114374" lon="9.95433558030265"><ele>113.0</ele><time>2026-04-26T16:58:24.889Z</time></trkpt><trkpt lat="44.25122287726066" lon="9.95418770342449"><ele>109.0</ele><time>2026-04-26T16:58:25.889Z</time></trkpt><trkpt lat="44.25143905881909" lon="9.95405843208563"><ele>111.75</ele><time>2026-04-26T16:58:26.889Z</time></trkpt><trkpt lat="44.25161293426586" lon="9.953956617013326"><ele>114.5</ele><time>2026-04-26T16:58:27.889Z</time></trkpt><trkpt lat="44.251739103015915" lon="9.95386304314362"><ele>117.25</ele><time>2026-04-26T16:58:28.889Z</time></trkpt><trkpt lat="44.25185006239391" lon="9.953818013833311"><ele>120.0</ele><time>2026-04-26T16:58:29.889Z</time></trkpt><trkpt lat="44.251950336199705" lon="9.953813785228506"><ele>120.0</ele><time>2026-04-26T16:58:30.889Z</time></trkpt><trkpt lat="44.25205495931499" lon="9.95389726828994"><ele>120.0</ele><time>2026-04-26T16:58:31.889Z</time></trkpt><trkpt lat="44.252130736151116" lon="9.9540519204551"><ele>120.0</ele><time>2026-04-26T16:58:32.889Z</time></trkpt><trkpt lat="44.252170741250616" lon="9.954242166986866"><ele>120.0</ele><time>2026-04-26T16:58:33.889Z</time></trkpt><trkpt lat="44.25217318786865" lon="9.954453122332124"><ele>123.66666666666666</ele><time>2026-04-26T16:58:34.889Z</time></trkpt><trkpt lat="44.252166840716846" lon="9.954663476920105"><ele>127.33333333333333</ele><time>2026-04-26T16:58:35.889Z</time></trkpt><trkpt lat="44.252180912434554" lon="9.954872199249044"><ele>131.0</ele><time>2026-04-26T16:58:36.889Z</time></trkpt><trkpt lat="44.252219041021434" lon="9.955090431735997"><ele>132.33333333333331</ele><time>2026-04-26T16:58:37.889Z</time></trkpt><trkpt lat="44.252273987977695" lon="9.95531111899155"><ele>133.66666666666666</ele><time>2026-04-26T16:58:38.889Z</time></trkpt><trkpt lat="44.25232357466243" lon="9.95551959003636"><ele>135.0</ele><time>2026-04-26T16:58:39.889Z</time></trkpt><trkpt lat="44.25236417305784" lon="9.955735233970206"><ele>133.0</ele><time>2026-04-26T16:58:40.889Z</time></trkpt><trkpt lat="44.25238081889754" lon="9.95593564911964"><ele>131.0</ele><time>2026-04-26T16:58:41.889Z</time></trkpt><trkpt lat="44.252384304980176" lon="9.95613154876958"><ele>129.0</ele><time>2026-04-26T16:58:42.889Z</time></trkpt><trkpt lat="44.25239719140692" lon="9.95632576569695"><ele>127.0</ele><time>2026-04-26T16:58:43.889Z</time></trkpt><trkpt lat="44.25243002496558" lon="9.956497530523725"><ele>127.0</ele><time>2026-04-26T16:58:44.889Z</time></trkpt><trkpt lat="44.252514130829304" lon="9.956661330540081"><ele>127.0</ele><time>2026-04-26T16:58:45.889Z</time></trkpt><trkpt lat="44.25258359004435" lon="9.956823972551906"><ele>127.0</ele><time>2026-04-26T16:58:46.889Z</time></trkpt><trkpt lat="44.252664160358535" lon="9.956974969680154"><ele>127.0</ele><time>2026-04-26T16:58:47.889Z</time></trkpt><trkpt lat="44.25276558948414" lon="9.957121952810947"><ele>128.66666666666669</ele><time>2026-04-26T16:58:48.889Z</time></trkpt><trkpt lat="44.252891395737294" lon="9.95725919376579"><ele>130.33333333333334</ele><time>2026-04-26T16:58:49.889Z</time></trkpt><trkpt lat="44.253019109694904" lon="9.957397721550606"><ele>132.0</ele><time>2026-04-26T16:58:50.889Z</time></trkpt><trkpt lat="44.253140590696006" lon="9.957535122910572"><ele>131.75</ele><time>2026-04-26T16:58:51.889Z</time></trkpt><trkpt lat="44.25325142193112" lon="9.957671019082127"><ele>131.5</ele><time>2026-04-26T16:58:52.889Z</time></trkpt><trkpt lat="44.25335574460175" lon="9.95779688157595"><ele>131.25</ele><time>2026-04-26T16:58:53.889Z</time></trkpt><trkpt lat="44.253453312000985" lon="9.957921020424294"><ele>131.0</ele><time>2026-04-26T16:58:54.889Z</time></trkpt><trkpt lat="44.253552070256184" lon="9.958036346115202"><ele>131.0</ele><time>2026-04-26T16:58:55.889Z</time></trkpt><trkpt lat="44.253650961322755" lon="9.958119437128715"><ele>131.0</ele><time>2026-04-26T16:58:56.889Z</time></trkpt><trkpt lat="44.253766532153854" lon="9.958161318736213"><ele>131.0</ele><time>2026-04-26T16:58:57.889Z</time></trkpt><trkpt lat="44.25389749252309" lon="9.958164375045783"><ele>131.0</ele><time>2026-04-26T16:58:58.889Z</time></trkpt><trkpt lat="44.25402079679387" lon="9.95813650423914"><ele>132.75</ele><time>2026-04-26T16:58:59.889Z</time></trkpt><trkpt lat="44.25414519657414" lon="9.95808874152087"><ele>134.5</ele><time>2026-04-26T16:59:00.889Z</time></trkpt><trkpt lat="44.25426543075579" lon="9.958006932230342"><ele>136.25</ele><time>2026-04-26T16:59:01.889Z</time></trkpt><trkpt lat="44.254375087448395" lon="9.957883693665131"><ele>138.0</ele><time>2026-04-26T16:59:02.889Z</time></trkpt><trkpt lat="44.254488321654264" lon="9.957754586777973"><ele>138.0</ele><time>2026-04-26T16:59:03.889Z</time></trkpt><trkpt lat="44.25461941606825" lon="9.957623846680855"><ele>138.0</ele><time>2026-04-26T16:59:04.889Z</time></trkpt><trkpt lat="44.25478308782583" lon="9.957488333128492"><ele>138.0</ele><time>2026-04-26T16:59:05.889Z</time></trkpt><trkpt lat="44.2549768718817" lon="9.957347730834469"><ele>137.5</ele><time>2026-04-26T16:59:06.889Z</time></trkpt><trkpt lat="44.25518383870411" lon="9.957222247107595"><ele>137.0</ele><time>2026-04-26T16:59:07.889Z</time></trkpt><trkpt lat="44.25539033368065" lon="9.957077707542712"><ele>137.0</ele><time>2026-04-26T16:59:08.889Z</time></trkpt><trkpt lat="44.255597772461336" lon="9.956940960483324"><ele>137.0</ele><time>2026-04-26T16:59:09.889Z</time></trkpt><trkpt lat="44.25577105895381" lon="9.956843338780281"><ele>137.0</ele><time>2026-04-26T16:59:10.889Z</time></trkpt><trkpt lat="44.25590952541487" lon="9.956745804701807"><ele>134.66666666666666</ele><time>2026-04-26T16:59:11.889Z</time></trkpt><trkpt lat="44.25605623777441" lon="9.956671703870176"><ele>132.33333333333334</ele><time>2026-04-26T16:59:12.889Z</time></trkpt><trkpt lat="44.256214161298686" lon="9.95660396804431"><ele>130.0</ele><time>2026-04-26T16:59:13.889Z</time></trkpt><trkpt lat="44.25639494054132" lon="9.956537252288559"><ele>136.0</ele><time>2026-04-26T16:59:14.889Z</time></trkpt><trkpt lat="44.25658741197874" lon="9.956470720738464"><ele>142.0</ele><time>2026-04-26T16:59:15.889Z</time></trkpt><trkpt lat="44.25684829611673" lon="9.956325232856793"><ele>142.0</ele><time>2026-04-26T16:59:16.889Z</time></trkpt><trkpt lat="44.257027307465265" lon="9.956112128816171"><ele>142.0</ele><time>2026-04-26T16:59:17.889Z</time></trkpt><trkpt lat="44.25717255622024" lon="9.955877796278221"><ele>141.0</ele><time>2026-04-26T16:59:18.889Z</time></trkpt><trkpt lat="44.25730882633813" lon="9.9556862404557"><ele>140.0</ele><time>2026-04-26T16:59:19.889Z</time></trkpt><trkpt lat="44.25744088908427" lon="9.955536200747908"><ele>139.0</ele><time>2026-04-26T16:59:20.889Z</time></trkpt><trkpt lat="44.25759724800996" lon="9.955432759422639"><ele>139.0</ele><time>2026-04-26T16:59:21.889Z</time></trkpt><trkpt lat="44.25778318509818" lon="9.955392667429395"><ele>139.0</ele><time>2026-04-26T16:59:22.889Z</time></trkpt><trkpt lat="44.257972626613736" lon="9.955374405876183"><ele>139.0</ele><time>2026-04-26T16:59:23.889Z</time></trkpt><trkpt lat="44.258152118898096" lon="9.955322806897593"><ele>143.25</ele><time>2026-04-26T16:59:24.889Z</time></trkpt><trkpt lat="44.258311673875255" lon="9.955262573554501"><ele>147.5</ele><time>2026-04-26T16:59:25.889Z</time></trkpt><trkpt lat="44.25844652614062" lon="9.9552044230115"><ele>151.75</ele><time>2026-04-26T16:59:26.889Z</time></trkpt><trkpt lat="44.258575447291506" lon="9.9551438522118"><ele>156.0</ele><time>2026-04-26T16:59:27.889Z</time></trkpt><trkpt lat="44.25868516300063" lon="9.955087974031281"><ele>152.25</ele><time>2026-04-26T16:59:28.889Z</time></trkpt><trkpt lat="44.25878903648488" lon="9.955013487074156"><ele>148.5</ele><time>2026-04-26T16:59:29.889Z</time></trkpt><trkpt lat="44.258888446694385" lon="9.954907158230746"><ele>144.75</ele><time>2026-04-26T16:59:30.889Z</time></trkpt><trkpt lat="44.25898182815111" lon="9.954779338912513"><ele>141.0</ele><time>2026-04-26T16:59:31.889Z</time></trkpt><trkpt lat="44.259070607328944" lon="9.954634604103507"><ele>141.0</ele><time>2026-04-26T16:59:32.889Z</time></trkpt><trkpt lat="44.259165021769924" lon="9.954493350736556"><ele>141.0</ele><time>2026-04-26T16:59:33.889Z</time></trkpt><trkpt lat="44.25927166971406" lon="9.954368949506431"><ele>141.0</ele><time>2026-04-26T16:59:34.889Z</time></trkpt><trkpt lat="44.25938393848845" lon="9.95425822745646"><ele>141.0</ele><time>2026-04-26T16:59:35.889Z</time></trkpt><trkpt lat="44.25950532638738" lon="9.954179872829569"><ele>138.5</ele><time>2026-04-26T16:59:36.889Z</time></trkpt><trkpt lat="44.259629323169584" lon="9.954112598547088"><ele>136.0</ele><time>2026-04-26T16:59:37.889Z</time></trkpt><trkpt lat="44.25975335221335" lon="9.95406771150611"><ele>133.5</ele><time>2026-04-26T16:59:38.889Z</time></trkpt><trkpt lat="44.259867354361255" lon="9.954038477178285"><ele>131.0</ele><time>2026-04-26T16:59:39.889Z</time></trkpt><trkpt lat="44.25997451818048" lon="9.954022304830186"><ele>131.0</ele><time>2026-04-26T16:59:40.889Z</time></trkpt><trkpt lat="44.26008652212836" lon="9.954029548314319"><ele>131.0</ele><time>2026-04-26T16:59:41.889Z</time></trkpt><trkpt lat="44.2601959192181" lon="9.954018146400024"><ele>131.0</ele><time>2026-04-26T16:59:42.887Z</time></trkpt><trkpt lat="44.26031424248679" lon="9.95399412856631"><ele>131.0</ele><time>2026-04-26T16:59:43.887Z</time></trkpt><trkpt lat="44.26042781617656" lon="9.953920840337684"><ele>131.0</ele><time>2026-04-26T16:59:44.887Z</time></trkpt><trkpt lat="44.260538820100045" lon="9.953836122493682"><ele>131.0</ele><time>2026-04-26T16:59:45.887Z</time></trkpt><trkpt lat="44.260649349316225" lon="9.953759616271835"><ele>131.0</ele><time>2026-04-26T16:59:46.887Z</time></trkpt><trkpt lat="44.2607693732902" lon="9.953679904842785"><ele>131.0</ele><time>2026-04-26T16:59:47.887Z</time></trkpt><trkpt lat="44.26088659683606" lon="9.953629294275954"><ele>132.75</ele><time>2026-04-26T16:59:48.887Z</time></trkpt><trkpt lat="44.26101506402955" lon="9.953604409236112"><ele>134.5</ele><time>2026-04-26T16:59:49.887Z</time></trkpt><trkpt lat="44.26114794971624" lon="9.953573067787696"><ele>136.25</ele><time>2026-04-26T16:59:50.887Z</time></trkpt><trkpt lat="44.26128092478496" lon="9.95355912314407"><ele>138.0</ele><time>2026-04-26T16:59:51.887Z</time></trkpt><trkpt lat="44.26142083866867" lon="9.953550512668706"><ele>139.0</ele><time>2026-04-26T16:59:52.887Z</time></trkpt><trkpt lat="44.261563270723386" lon="9.953552210537143"><ele>140.0</ele><time>2026-04-26T16:59:53.887Z</time></trkpt><trkpt lat="44.26170085421653" lon="9.953573357322146"><ele>141.0</ele><time>2026-04-26T16:59:54.887Z</time></trkpt><trkpt lat="44.26184107539976" lon="9.953614140789496"><ele>142.0</ele><time>2026-04-26T16:59:55.887Z</time></trkpt><trkpt lat="44.261979952567664" lon="9.95368392322645"><ele>142.0</ele><time>2026-04-26T16:59:56.887Z</time></trkpt><trkpt lat="44.26211812189525" lon="9.953775208991834"><ele>142.0</ele><time>2026-04-26T16:59:57.887Z</time></trkpt><trkpt lat="44.26226817024396" lon="9.953856817625981"><ele>142.0</ele><time>2026-04-26T16:59:58.887Z</time></trkpt><trkpt lat="44.262419060061134" lon="9.953946322817774"><ele>144.66666666666669</ele><time>2026-04-26T16:59:59.887Z</time></trkpt><trkpt lat="44.262595072089496" lon="9.954040145393256"><ele>147.33333333333334</ele><time>2026-04-26T17:00:00.887Z</time></trkpt><trkpt lat="44.26278181266688" lon="9.954154295527179"><ele>150.0</ele><time>2026-04-26T17:00:01.887Z</time></trkpt><trkpt lat="44.26295465233369" lon="9.954274212572814"><ele>150.0</ele><time>2026-04-26T17:00:02.887Z</time></trkpt><trkpt lat="44.26311039395819" lon="9.954369723042216"><ele>150.0</ele><time>2026-04-26T17:00:03.887Z</time></trkpt><trkpt lat="44.26325612630252" lon="9.954426109488198"><ele>150.0</ele><time>2026-04-26T17:00:04.887Z</time></trkpt><trkpt lat="44.26338244597923" lon="9.954448922267195"><ele>150.0</ele><time>2026-04-26T17:00:05.887Z</time></trkpt><trkpt lat="44.26350735831319" lon="9.954447980390876"><ele>147.33333333333334</ele><time>2026-04-26T17:00:06.887Z</time></trkpt><trkpt lat="44.26360746899148" lon="9.954454156888424"><ele>144.66666666666669</ele><time>2026-04-26T17:00:07.887Z</time></trkpt><trkpt lat="44.263696859123485" lon="9.954502986750256"><ele>142.0</ele><time>2026-04-26T17:00:08.887Z</time></trkpt><trkpt lat="44.26396161568066" lon="9.954702934116172"><ele>141.0</ele><time>2026-04-26T17:00:09.887Z</time></trkpt><trkpt lat="44.26406270166365" lon="9.954784823782308"><ele>140.0</ele><time>2026-04-26T17:00:10.887Z</time></trkpt><trkpt lat="44.26416709469196" lon="9.954839396588572"><ele>139.0</ele><time>2026-04-26T17:00:11.887Z</time></trkpt><trkpt lat="44.26428056226384" lon="9.954867779441432"><ele>138.0</ele><time>2026-04-26T17:00:12.887Z</time></trkpt><trkpt lat="44.26440127255718" lon="9.954873726469383"><ele>138.0</ele><time>2026-04-26T17:00:13.887Z</time></trkpt><trkpt lat="44.264525078703684" lon="9.954839001278465"><ele>138.0</ele><time>2026-04-26T17:00:14.887Z</time></trkpt><trkpt lat="44.26464706161849" lon="9.954777917432656"><ele>138.0</ele><time>2026-04-26T17:00:15.887Z</time></trkpt><trkpt lat="44.26476798274508" lon="9.95469018786769"><ele>138.0</ele><time>2026-04-26T17:00:16.887Z</time></trkpt><trkpt lat="44.264894222460676" lon="9.95461711550797"><ele>140.0</ele><time>2026-04-26T17:00:17.887Z</time></trkpt><trkpt lat="44.26501417497368" lon="9.954552277945343"><ele>142.0</ele><time>2026-04-26T17:00:18.887Z</time></trkpt><trkpt lat="44.26513392349371" lon="9.954471727323934"><ele>144.0</ele><time>2026-04-26T17:00:19.887Z</time></trkpt><trkpt lat="44.265266333912784" lon="9.954418318288708"><ele>146.0</ele><time>2026-04-26T17:00:20.887Z</time></trkpt><trkpt lat="44.2654060607043" lon="9.954389757514654"><ele>146.0</ele><time>2026-04-26T17:00:21.887Z</time></trkpt><trkpt lat="44.265551207122456" lon="9.954363478734633"><ele>146.0</ele><time>2026-04-26T17:00:22.887Z</time></trkpt><trkpt lat="44.265687265573725" lon="9.954374675654163"><ele>146.0</ele><time>2026-04-26T17:00:23.887Z</time></trkpt><trkpt lat="44.265826883792" lon="9.954379711513557"><ele>146.0</ele><time>2026-04-26T17:00:24.887Z</time></trkpt><trkpt lat="44.265971270205974" lon="9.954379075254682"><ele>149.75</ele><time>2026-04-26T17:00:25.887Z</time></trkpt><trkpt lat="44.2661061707425" lon="9.95436387633525"><ele>153.5</ele><time>2026-04-26T17:00:26.887Z</time></trkpt><trkpt lat="44.26623488829702" lon="9.954340672095336"><ele>157.25</ele><time>2026-04-26T17:00:27.887Z</time></trkpt><trkpt lat="44.26636137027979" lon="9.954294678918234"><ele>161.0</ele><time>2026-04-26T17:00:28.887Z</time></trkpt><trkpt lat="44.26647769337173" lon="9.954231032160692"><ele>153.5</ele><time>2026-04-26T17:00:29.887Z</time></trkpt><trkpt lat="44.266600640937746" lon="9.95417071703653"><ele>146.0</ele><time>2026-04-26T17:00:30.887Z</time></trkpt><trkpt lat="44.26672909527153" lon="9.954143355726638"><ele>138.5</ele><time>2026-04-26T17:00:31.887Z</time></trkpt><trkpt lat="44.266842245792844" lon="9.954135109939841"><ele>131.0</ele><time>2026-04-26T17:00:32.887Z</time></trkpt><trkpt lat="44.26695892288557" lon="9.954095166011644"><ele>131.0</ele><time>2026-04-26T17:00:33.888Z</time></trkpt><trkpt lat="44.26706218586344" lon="9.954013723219473"><ele>131.0</ele><time>2026-04-26T17:00:34.888Z</time></trkpt><trkpt lat="44.26715415518506" lon="9.953884283579757"><ele>131.0</ele><time>2026-04-26T17:00:35.888Z</time></trkpt><trkpt lat="44.26724427630227" lon="9.95372124053797"><ele>131.0</ele><time>2026-04-26T17:00:36.888Z</time></trkpt><trkpt lat="44.26733158192017" lon="9.953563519447563"><ele>130.75</ele><time>2026-04-26T17:00:37.888Z</time></trkpt><trkpt lat="44.267417906703805" lon="9.95341901677917"><ele>130.5</ele><time>2026-04-26T17:00:38.888Z</time></trkpt><trkpt lat="44.26751695493316" lon="9.953296432032662"><ele>130.25</ele><time>2026-04-26T17:00:39.888Z</time></trkpt><trkpt lat="44.26759917976859" lon="9.95318641690936"><ele>130.0</ele><time>2026-04-26T17:00:40.888Z</time></trkpt><trkpt lat="44.26768271569744" lon="9.953089602644337"><ele>130.0</ele><time>2026-04-26T17:00:41.888Z</time></trkpt><trkpt lat="44.267776841187306" lon="9.95300747759824"><ele>130.0</ele><time>2026-04-26T17:00:42.888Z</time></trkpt><trkpt lat="44.267887636435205" lon="9.952955917976887"><ele>130.0</ele><time>2026-04-26T17:00:43.888Z</time></trkpt><trkpt lat="44.26801392367375" lon="9.952948651765949"><ele>130.0</ele><time>2026-04-26T17:00:44.888Z</time></trkpt><trkpt lat="44.268145032580826" lon="9.952990875326227"><ele>132.0</ele><time>2026-04-26T17:00:45.888Z</time></trkpt><trkpt lat="44.26826915849496" lon="9.953065732937"><ele>134.0</ele><time>2026-04-26T17:00:46.888Z</time></trkpt><trkpt lat="44.26838891200053" lon="9.953156021051184"><ele>136.0</ele><time>2026-04-26T17:00:47.888Z</time></trkpt><trkpt lat="44.268500999499786" lon="9.953244783148843"><ele>138.0</ele><time>2026-04-26T17:00:48.888Z</time></trkpt><trkpt lat="44.26860407407116" lon="9.953322062190514"><ele>137.0</ele><time>2026-04-26T17:00:49.888Z</time></trkpt><trkpt lat="44.2687037511602" lon="9.953394876452549"><ele>136.0</ele><time>2026-04-26T17:00:50.888Z</time></trkpt><trkpt lat="44.268811979495716" lon="9.953411008745741"><ele>135.0</ele><time>2026-04-26T17:00:51.888Z</time></trkpt><trkpt lat="44.26891873173653" lon="9.953396939400188"><ele>134.0</ele><time>2026-04-26T17:00:52.888Z</time></trkpt><trkpt lat="44.26902208198863" lon="9.953334173413301"><ele>133.0</ele><time>2026-04-26T17:00:53.888Z</time></trkpt><trkpt lat="44.269112567757205" lon="9.953236103498146"><ele>133.0</ele><time>2026-04-26T17:00:54.888Z</time></trkpt><trkpt lat="44.26920558329899" lon="9.953134490468898"><ele>133.0</ele><time>2026-04-26T17:00:55.888Z</time></trkpt><trkpt lat="44.26930340010606" lon="9.953041659809598"><ele>133.0</ele><time>2026-04-26T17:00:56.888Z</time></trkpt><trkpt lat="44.26939590458912" lon="9.952955831328147"><ele>133.0</ele><time>2026-04-26T17:00:57.888Z</time></trkpt><trkpt lat="44.26949149484206" lon="9.95288495166687"><ele>133.0</ele><time>2026-04-26T17:00:58.888Z</time></trkpt><trkpt lat="44.269593262608986" lon="9.95282230161815"><ele>133.0</ele><time>2026-04-26T17:00:59.888Z</time></trkpt><trkpt lat="44.26970730344247" lon="9.95278571129109"><ele>133.0</ele><time>2026-04-26T17:01:00.888Z</time></trkpt><trkpt lat="44.26982630553448" lon="9.95278217544705"><ele>133.0</ele><time>2026-04-26T17:01:01.888Z</time></trkpt><trkpt lat="44.2699435280956" lon="9.952795767778614"><ele>134.75</ele><time>2026-04-26T17:01:02.888Z</time></trkpt><trkpt lat="44.27006211098871" lon="9.952846030874904"><ele>136.5</ele><time>2026-04-26T17:01:03.888Z</time></trkpt><trkpt lat="44.27018295046079" lon="9.952918198729378"><ele>138.25</ele><time>2026-04-26T17:01:04.888Z</time></trkpt><trkpt lat="44.2703009074936" lon="9.95302518660067"><ele>140.0</ele><time>2026-04-26T17:01:05.888Z</time></trkpt><trkpt lat="44.2704180720881" lon="9.953156328276325"><ele>140.0</ele><time>2026-04-26T17:01:06.888Z</time></trkpt><trkpt lat="44.27053800186242" lon="9.95328910838747"><ele>140.0</ele><time>2026-04-26T17:01:07.888Z</time></trkpt><trkpt lat="44.27069329388683" lon="9.953417693084013"><ele>140.0</ele><time>2026-04-26T17:01:08.888Z</time></trkpt><trkpt lat="44.27088691198731" lon="9.95355171248005"><ele>136.66666666666666</ele><time>2026-04-26T17:01:09.888Z</time></trkpt><trkpt lat="44.271098037430065" lon="9.953690130430402"><ele>133.33333333333334</ele><time>2026-04-26T17:01:10.888Z</time></trkpt><trkpt lat="44.2712943013064" lon="9.953790184564655"><ele>130.0</ele><time>2026-04-26T17:01:11.888Z</time></trkpt><trkpt lat="44.271462536654184" lon="9.953877642351689"><ele>130.0</ele><time>2026-04-26T17:01:12.888Z</time></trkpt><trkpt lat="44.27160146503205" lon="9.95394782902207"><ele>130.0</ele><time>2026-04-26T17:01:13.888Z</time></trkpt><trkpt lat="44.27170251645886" lon="9.954051996011614"><ele>130.0</ele><time>2026-04-26T17:01:14.888Z</time></trkpt><trkpt lat="44.27177251646162" lon="9.954203345420567"><ele>130.0</ele><time>2026-04-26T17:01:15.888Z</time></trkpt><trkpt lat="44.27180849379629" lon="9.954377364227385"><ele>132.5</ele><time>2026-04-26T17:01:16.888Z</time></trkpt><trkpt lat="44.27185671509645" lon="9.954529273124281"><ele>135.0</ele><time>2026-04-26T17:01:17.888Z</time></trkpt><trkpt lat="44.271923845557154" lon="9.954648475298246"><ele>137.5</ele><time>2026-04-26T17:01:18.888Z</time></trkpt><trkpt lat="44.27202907047946" lon="9.9547247644287"><ele>140.0</ele><time>2026-04-26T17:01:19.888Z</time></trkpt><trkpt lat="44.27215655759159" lon="9.954751858662677"><ele>139.33333333333331</ele><time>2026-04-26T17:01:20.888Z</time></trkpt><trkpt lat="44.27231754523551" lon="9.954762502116054"><ele>138.66666666666666</ele><time>2026-04-26T17:01:21.888Z</time></trkpt><trkpt lat="44.27256834202196" lon="9.954779973250902"><ele>138.0</ele><time>2026-04-26T17:01:22.888Z</time></trkpt><trkpt lat="44.27278395028249" lon="9.954810224529124"><ele>138.0</ele><time>2026-04-26T17:01:23.888Z</time></trkpt><trkpt lat="44.27296683944849" lon="9.954843069225827"><ele>138.0</ele><time>2026-04-26T17:01:24.888Z</time></trkpt><trkpt lat="44.273132276594744" lon="9.954864056858392"><ele>138.0</ele><time>2026-04-26T17:01:25.888Z</time></trkpt><trkpt lat="44.273283275746685" lon="9.954884048423665"><ele>137.5</ele><time>2026-04-26T17:01:26.888Z</time></trkpt><trkpt lat="44.273432936580285" lon="9.954915045207105"><ele>137.0</ele><time>2026-04-26T17:01:27.888Z</time></trkpt><trkpt lat="44.27358060554665" lon="9.954936432370559"><ele>136.5</ele><time>2026-04-26T17:01:28.888Z</time></trkpt><trkpt lat="44.27372546737746" lon="9.954927895619106"><ele>136.0</ele><time>2026-04-26T17:01:29.888Z</time></trkpt><trkpt lat="44.27388269052224" lon="9.954882264578666"><ele>135.0</ele><time>2026-04-26T17:01:30.888Z</time></trkpt><trkpt lat="44.2740455486596" lon="9.954829234053639"><ele>134.0</ele><time>2026-04-26T17:01:31.888Z</time></trkpt><trkpt lat="44.27421644275278" lon="9.95477910422442"><ele>133.0</ele><time>2026-04-26T17:01:32.888Z</time></trkpt><trkpt lat="44.27438405718675" lon="9.954709301292683"><ele>133.0</ele><time>2026-04-26T17:01:33.888Z</time></trkpt><trkpt lat="44.274578915323566" lon="9.954593962200388"><ele>133.0</ele><time>2026-04-26T17:01:34.888Z</time></trkpt><trkpt lat="44.27481238170151" lon="9.954460396933026"><ele>139.0</ele><time>2026-04-26T17:01:35.888Z</time></trkpt><trkpt lat="44.27506521296738" lon="9.954311480307366"><ele>145.0</ele><time>2026-04-26T17:01:36.888Z</time></trkpt><trkpt lat="44.27532805667028" lon="9.954155447800055"><ele>137.5</ele><time>2026-04-26T17:01:37.888Z</time></trkpt><trkpt lat="44.275614539119736" lon="9.953982839860041"><ele>130.0</ele><time>2026-04-26T17:01:38.888Z</time></trkpt><trkpt lat="44.27592005116179" lon="9.953803720269493"><ele>130.0</ele><time>2026-04-26T17:01:39.888Z</time></trkpt><trkpt lat="44.27623517010982" lon="9.953625598088486"><ele>130.0</ele><time>2026-04-26T17:01:40.888Z</time></trkpt><trkpt lat="44.276520670062844" lon="9.953461773646968"><ele>123.5</ele><time>2026-04-26T17:01:41.888Z</time></trkpt><trkpt lat="44.276769689517444" lon="9.953323386458507"><ele>117.0</ele><time>2026-04-26T17:01:42.888Z</time></trkpt><trkpt lat="44.277005061779086" lon="9.953205798333501"><ele>117.0</ele><time>2026-04-26T17:01:43.888Z</time></trkpt><trkpt lat="44.2772295721788" lon="9.953076906660078"><ele>117.0</ele><time>2026-04-26T17:01:44.888Z</time></trkpt><trkpt lat="44.277455228136894" lon="9.95292885820464"><ele>122.5</ele><time>2026-04-26T17:01:45.888Z</time></trkpt><trkpt lat="44.277683535252244" lon="9.95277353763538"><ele>128.0</ele><time>2026-04-26T17:01:46.888Z</time></trkpt><trkpt lat="44.277937014882546" lon="9.95261077949253"><ele>126.0</ele><time>2026-04-26T17:01:47.888Z</time></trkpt><trkpt lat="44.27820918180484" lon="9.952451347769534"><ele>124.0</ele><time>2026-04-26T17:01:48.886Z</time></trkpt><trkpt lat="44.27848071395605" lon="9.952313546910899"><ele>124.0</ele><time>2026-04-26T17:01:49.886Z</time></trkpt><trkpt lat="44.27872270749176" lon="9.952192760506898"><ele>124.0</ele><time>2026-04-26T17:01:50.886Z</time></trkpt><trkpt lat="44.27895277192053" lon="9.952086229874894"><ele>126.0</ele><time>2026-04-26T17:01:51.886Z</time></trkpt><trkpt lat="44.27916728278264" lon="9.951991402296732"><ele>128.0</ele><time>2026-04-26T17:01:52.886Z</time></trkpt><trkpt lat="44.27937113515608" lon="9.951889324283567"><ele>130.0</ele><time>2026-04-26T17:01:53.886Z</time></trkpt><trkpt lat="44.279560626562215" lon="9.951782817570844"><ele>125.33333333333334</ele><time>2026-04-26T17:01:54.886Z</time></trkpt><trkpt lat="44.2797356901245" lon="9.951706681930096"><ele>120.66666666666666</ele><time>2026-04-26T17:01:55.885Z</time></trkpt><trkpt lat="44.27991053780443" lon="9.951671194810139"><ele>116.0</ele><time>2026-04-26T17:01:56.885Z</time></trkpt><trkpt lat="44.280094747833076" lon="9.95166155028315"><ele>116.0</ele><time>2026-04-26T17:01:57.885Z</time></trkpt><trkpt lat="44.28027613785055" lon="9.951593090635807"><ele>116.0</ele><time>2026-04-26T17:01:58.886Z</time></trkpt><trkpt lat="44.280470839693415" lon="9.9514661237328"><ele>116.0</ele><time>2026-04-26T17:01:59.886Z</time></trkpt><trkpt lat="44.28066750307646" lon="9.951331936137557"><ele>117.66666666666666</ele><time>2026-04-26T17:02:00.886Z</time></trkpt><trkpt lat="44.280844892932414" lon="9.951205343095834"><ele>119.33333333333334</ele><time>2026-04-26T17:02:01.886Z</time></trkpt><trkpt lat="44.281004384535294" lon="9.951106582623517"><ele>121.0</ele><time>2026-04-26T17:02:02.886Z</time></trkpt><trkpt lat="44.281146822132634" lon="9.951009314632765"><ele>121.0</ele><time>2026-04-26T17:02:03.886Z</time></trkpt><trkpt lat="44.28126299510004" lon="9.950937882053244"><ele>121.0</ele><time>2026-04-26T17:02:04.886Z</time></trkpt><trkpt lat="44.2813673806099" lon="9.95087891138969"><ele>121.0</ele><time>2026-04-26T17:02:05.886Z</time></trkpt><trkpt lat="44.2814785951625" lon="9.950828338236285"><ele>121.0</ele><time>2026-04-26T17:02:06.886Z</time></trkpt><trkpt lat="44.28159376606856" lon="9.950786342205435"><ele>120.19999999999999</ele><time>2026-04-26T17:02:07.886Z</time></trkpt><trkpt lat="44.281712008743256" lon="9.950766360013962"><ele>119.39999999999999</ele><time>2026-04-26T17:02:08.886Z</time></trkpt><trkpt lat="44.28182578848688" lon="9.950754987235808"><ele>118.6</ele><time>2026-04-26T17:02:09.886Z</time></trkpt><trkpt lat="44.28193300811048" lon="9.950737255791363"><ele>117.8</ele><time>2026-04-26T17:02:10.886Z</time></trkpt><trkpt lat="44.28204014818768" lon="9.95073247917459"><ele>117.0</ele><time>2026-04-26T17:02:11.886Z</time></trkpt><trkpt lat="44.28214769317089" lon="9.950731490427755"><ele>117.0</ele><time>2026-04-26T17:02:12.886Z</time></trkpt><trkpt lat="44.28224702779783" lon="9.950720785285435"><ele>116.99999999999999</ele><time>2026-04-26T17:02:13.886Z</time></trkpt><trkpt lat="44.28233919285328" lon="9.950694919613031"><ele>116.99999999999999</ele><time>2026-04-26T17:02:14.886Z</time></trkpt><trkpt lat="44.28243214402411" lon="9.950658518407513"><ele>117.0</ele><time>2026-04-26T17:02:15.886Z</time></trkpt><trkpt lat="44.282534409550095" lon="9.95060702511799"><ele>117.0</ele><time>2026-04-26T17:02:16.886Z</time></trkpt><trkpt lat="44.282652564825234" lon="9.950517464453862"><ele>117.0</ele><time>2026-04-26T17:02:17.886Z</time></trkpt><trkpt lat="44.2827771005196" lon="9.950413723758924"><ele>117.0</ele><time>2026-04-26T17:02:18.886Z</time></trkpt><trkpt lat="44.282871137679734" lon="9.950306013023727"><ele>117.0</ele><time>2026-04-26T17:02:19.886Z</time></trkpt><trkpt lat="44.28295010369228" lon="9.950213134353778"><ele>117.0</ele><time>2026-04-26T17:02:20.886Z</time></trkpt><trkpt lat="44.28302557758763" lon="9.950128005298989"><ele>118.25</ele><time>2026-04-26T17:02:21.886Z</time></trkpt><trkpt lat="44.283112770096984" lon="9.950039068989005"><ele>119.5</ele><time>2026-04-26T17:02:22.886Z</time></trkpt><trkpt lat="44.28323172704747" lon="9.949930368211179"><ele>120.75</ele><time>2026-04-26T17:02:23.886Z</time></trkpt><trkpt lat="44.28335679901579" lon="9.949806059291351"><ele>122.0</ele><time>2026-04-26T17:02:24.886Z</time></trkpt><trkpt lat="44.28347791300687" lon="9.949725239907773"><ele>122.0</ele><time>2026-04-26T17:02:25.886Z</time></trkpt><trkpt lat="44.28359483255191" lon="9.949673413503733"><ele>122.0</ele><time>2026-04-26T17:02:26.886Z</time></trkpt><trkpt lat="44.283709966682586" lon="9.949626322930095"><ele>122.0</ele><time>2026-04-26T17:02:27.886Z</time></trkpt><trkpt lat="44.2838201104244" lon="9.949579936805996"><ele>122.0</ele><time>2026-04-26T17:02:28.886Z</time></trkpt><trkpt lat="44.283929676151196" lon="9.949535248823926"><ele>123.39999999999999</ele><time>2026-04-26T17:02:29.886Z</time></trkpt><trkpt lat="44.284032364471344" lon="9.949496174818155"><ele>124.79999999999998</ele><time>2026-04-26T17:02:30.886Z</time></trkpt><trkpt lat="44.28413222221353" lon="9.949456488364104"><ele>126.2</ele><time>2026-04-26T17:02:31.886Z</time></trkpt><trkpt lat="44.284235465429205" lon="9.949419487953872"><ele>127.6</ele><time>2026-04-26T17:02:32.886Z</time></trkpt><trkpt lat="44.28433268286892" lon="9.949379192438004"><ele>129.0</ele><time>2026-04-26T17:02:33.886Z</time></trkpt><trkpt lat="44.28442807171107" lon="9.949342866362752"><ele>129.0</ele><time>2026-04-26T17:02:34.886Z</time></trkpt><trkpt lat="44.28452075843624" lon="9.949307592678663"><ele>129.0</ele><time>2026-04-26T17:02:35.886Z</time></trkpt><trkpt lat="44.28461133718213" lon="9.949277020089813"><ele>129.0</ele><time>2026-04-26T17:02:36.886Z</time></trkpt><trkpt lat="44.2846994510174" lon="9.949235286708827"><ele>129.0</ele><time>2026-04-26T17:02:37.886Z</time></trkpt><trkpt lat="44.284788462047665" lon="9.94919140404258"><ele>129.0</ele><time>2026-04-26T17:02:38.886Z</time></trkpt><trkpt lat="44.284873693440694" lon="9.9491544018235"><ele>129.2</ele><time>2026-04-26T17:02:39.886Z</time></trkpt><trkpt lat="44.28496405112548" lon="9.949117952405684"><ele>129.4</ele><time>2026-04-26T17:02:40.886Z</time></trkpt><trkpt lat="44.28506211773176" lon="9.949075459688514"><ele>129.6</ele><time>2026-04-26T17:02:41.886Z</time></trkpt><trkpt lat="44.28515598396304" lon="9.949040920511202"><ele>129.8</ele><time>2026-04-26T17:02:42.886Z</time></trkpt><trkpt lat="44.28525174568072" lon="9.94900477984699"><ele>130.0</ele><time>2026-04-26T17:02:43.886Z</time></trkpt><trkpt lat="44.28535035630776" lon="9.948966862321992"><ele>130.0</ele><time>2026-04-26T17:02:44.886Z</time></trkpt><trkpt lat="44.285452041907725" lon="9.94892916858076"><ele>130.0</ele><time>2026-04-26T17:02:45.886Z</time></trkpt><trkpt lat="44.28555552111606" lon="9.948894544468986"><ele>130.0</ele><time>2026-04-26T17:02:46.886Z</time></trkpt><trkpt lat="44.28566980238992" lon="9.948848086624237"><ele>130.0</ele><time>2026-04-26T17:02:47.886Z</time></trkpt><trkpt lat="44.28580868808317" lon="9.94878854212062"><ele>132.33333333333334</ele><time>2026-04-26T17:02:48.886Z</time></trkpt><trkpt lat="44.28597603942288" lon="9.94872729909919"><ele>134.66666666666666</ele><time>2026-04-26T17:02:49.886Z</time></trkpt><trkpt lat="44.28615977944558" lon="9.948680580620563"><ele>137.0</ele><time>2026-04-26T17:02:50.886Z</time></trkpt><trkpt lat="44.28635882709573" lon="9.948638206713117"><ele>140.66666666666666</ele><time>2026-04-26T17:02:51.886Z</time></trkpt><trkpt lat="44.28658367237218" lon="9.94858863927245"><ele>144.33333333333334</ele><time>2026-04-26T17:02:52.886Z</time></trkpt><trkpt lat="44.28679609218672" lon="9.94855238101287"><ele>148.0</ele><time>2026-04-26T17:02:53.886Z</time></trkpt><trkpt lat="44.286978885444974" lon="9.948515141147942"><ele>148.0</ele><time>2026-04-26T17:02:54.886Z</time></trkpt><trkpt lat="44.28713858888168" lon="9.948488750029295"><ele>148.0</ele><time>2026-04-26T17:02:55.886Z</time></trkpt><trkpt lat="44.28730297689085" lon="9.948455785052284"><ele>148.0</ele><time>2026-04-26T17:02:56.886Z</time></trkpt><trkpt lat="44.2874613038903" lon="9.948415969326284"><ele>142.66666666666669</ele><time>2026-04-26T17:02:57.886Z</time></trkpt><trkpt lat="44.28762864543814" lon="9.948373931744628"><ele>137.33333333333334</ele><time>2026-04-26T17:02:58.886Z</time></trkpt><trkpt lat="44.28778178075691" lon="9.948318469291548"><ele>132.0</ele><time>2026-04-26T17:02:59.886Z</time></trkpt><trkpt lat="44.28792723854348" lon="9.948259222661825"><ele>132.0</ele><time>2026-04-26T17:03:00.886Z</time></trkpt><trkpt lat="44.28806723179022" lon="9.94820311376956"><ele>132.0</ele><time>2026-04-26T17:03:01.886Z</time></trkpt><trkpt lat="44.288199227147565" lon="9.948141047457089"><ele>132.0</ele><time>2026-04-26T17:03:02.886Z</time></trkpt><trkpt lat="44.28832936622624" lon="9.948094176835049"><ele>132.0</ele><time>2026-04-26T17:03:03.886Z</time></trkpt><trkpt lat="44.28845479205505" lon="9.948052355660572"><ele>131.4</ele><time>2026-04-26T17:03:04.886Z</time></trkpt><trkpt lat="44.2885682951583" lon="9.948013907537131"><ele>130.79999999999998</ele><time>2026-04-26T17:03:05.886Z</time></trkpt><trkpt lat="44.28867092282117" lon="9.947981952196411"><ele>130.2</ele><time>2026-04-26T17:03:06.886Z</time></trkpt><trkpt lat="44.288767600292694" lon="9.947968266325695"><ele>129.6</ele><time>2026-04-26T17:03:07.886Z</time></trkpt><trkpt lat="44.28885723198502" lon="9.947977028160475"><ele>129.0</ele><time>2026-04-26T17:03:08.886Z</time></trkpt><trkpt lat="44.288941227959974" lon="9.947982013478384"><ele>129.0</ele><time>2026-04-26T17:03:09.886Z</time></trkpt><trkpt lat="44.28902640305859" lon="9.948011928542062"><ele>129.0</ele><time>2026-04-26T17:03:10.886Z</time></trkpt><trkpt lat="44.28911549159903" lon="9.948063920027495"><ele>129.0</ele><time>2026-04-26T17:03:11.886Z</time></trkpt><trkpt lat="44.289199184669364" lon="9.948147951910856"><ele>129.0</ele><time>2026-04-26T17:03:12.886Z</time></trkpt><trkpt lat="44.28927691452279" lon="9.948245966454955"><ele>129.0</ele><time>2026-04-26T17:03:13.886Z</time></trkpt><trkpt lat="44.289345700359306" lon="9.948364380045074"><ele>130.25</ele><time>2026-04-26T17:03:14.886Z</time></trkpt><trkpt lat="44.28945898050568" lon="9.948615562070279"><ele>131.5</ele><time>2026-04-26T17:03:16.886Z</time></trkpt><trkpt lat="44.289501303348004" lon="9.948735101462383"><ele>132.75</ele><time>2026-04-26T17:03:17.886Z</time></trkpt><trkpt lat="44.289547599614274" lon="9.948832755006636"><ele>134.0</ele><time>2026-04-26T17:03:18.886Z</time></trkpt><trkpt lat="44.289584882075715" lon="9.948921449719885"><ele>134.0</ele><time>2026-04-26T17:03:19.886Z</time></trkpt><trkpt lat="44.28963367447" lon="9.949018672602397"><ele>134.0</ele><time>2026-04-26T17:03:20.886Z</time></trkpt><trkpt lat="44.28967995202496" lon="9.949127182963133"><ele>134.0</ele><time>2026-04-26T17:03:21.886Z</time></trkpt><trkpt lat="44.28973082834777" lon="9.949236203790436"><ele>134.0</ele><time>2026-04-26T17:03:22.886Z</time></trkpt><trkpt lat="44.28978826469136" lon="9.9493447688867"><ele>134.0</ele><time>2026-04-26T17:03:23.886Z</time></trkpt><trkpt lat="44.2898390437983" lon="9.94945892747769"><ele>133.8</ele><time>2026-04-26T17:03:24.886Z</time></trkpt><trkpt lat="44.28988856926452" lon="9.949575095538066"><ele>133.60000000000002</ele><time>2026-04-26T17:03:25.886Z</time></trkpt><trkpt lat="44.28994015525162" lon="9.949687909260122"><ele>133.4</ele><time>2026-04-26T17:03:26.886Z</time></trkpt><trkpt lat="44.28999289586373" lon="9.949802346322725"><ele>133.20000000000002</ele><time>2026-04-26T17:03:27.886Z</time></trkpt><trkpt lat="44.29005435622607" lon="9.9499143182709"><ele>133.0</ele><time>2026-04-26T17:03:28.886Z</time></trkpt><trkpt lat="44.29010830510494" lon="9.950025322911552"><ele>133.6</ele><time>2026-04-26T17:03:29.886Z</time></trkpt><trkpt lat="44.29016117601322" lon="9.950134673204598"><ele>134.20000000000002</ele><time>2026-04-26T17:03:30.886Z</time></trkpt><trkpt lat="44.290216536417425" lon="9.95024643769244"><ele>134.8</ele><time>2026-04-26T17:03:31.886Z</time></trkpt><trkpt lat="44.29025731991519" lon="9.95034880131406"><ele>135.4</ele><time>2026-04-26T17:03:32.886Z</time></trkpt><trkpt lat="44.29030518468006" lon="9.950448928871513"><ele>136.0</ele><time>2026-04-26T17:03:33.886Z</time></trkpt><trkpt lat="44.29035641514374" lon="9.95055265626401"><ele>136.0</ele><time>2026-04-26T17:03:34.886Z</time></trkpt><trkpt lat="44.29039214614818" lon="9.950674966036578"><ele>136.0</ele><time>2026-04-26T17:03:35.886Z</time></trkpt><trkpt lat="44.29044302823219" lon="9.950789340527457"><ele>136.0</ele><time>2026-04-26T17:03:36.886Z</time></trkpt><trkpt lat="44.2905026281465" lon="9.950902302183406"><ele>136.0</ele><time>2026-04-26T17:03:37.886Z</time></trkpt><trkpt lat="44.29055753803129" lon="9.951022016326808"><ele>136.0</ele><time>2026-04-26T17:03:38.886Z</time></trkpt><trkpt lat="44.290601769751795" lon="9.951183726707269"><ele>135.4</ele><time>2026-04-26T17:03:39.886Z</time></trkpt><trkpt lat="44.290666750712475" lon="9.951311710454439"><ele>134.8</ele><time>2026-04-26T17:03:40.886Z</time></trkpt><trkpt lat="44.29074065238124" lon="9.951413341523462"><ele>134.20000000000002</ele><time>2026-04-26T17:03:41.886Z</time></trkpt><trkpt lat="44.290813978722404" lon="9.95148816278336"><ele>133.6</ele><time>2026-04-26T17:03:42.886Z</time></trkpt><trkpt lat="44.29089102712244" lon="9.951540221489683"><ele>133.0</ele><time>2026-04-26T17:03:43.886Z</time></trkpt><trkpt lat="44.29095957221214" lon="9.951591073701733"><ele>133.0</ele><time>2026-04-26T17:03:44.886Z</time></trkpt><trkpt lat="44.29103842105257" lon="9.951629267623346"><ele>133.0</ele><time>2026-04-26T17:03:45.886Z</time></trkpt><trkpt lat="44.2911201874012" lon="9.951668321366991"><ele>133.0</ele><time>2026-04-26T17:03:46.886Z</time></trkpt><trkpt lat="44.29121585166758" lon="9.951691116622875"><ele>133.0</ele><time>2026-04-26T17:03:47.886Z</time></trkpt><trkpt lat="44.29131825811873" lon="9.951699689021018"><ele>133.0</ele><time>2026-04-26T17:03:48.886Z</time></trkpt><trkpt lat="44.29141832015911" lon="9.951717134574624"><ele>131.8</ele><time>2026-04-26T17:03:49.886Z</time></trkpt><trkpt lat="44.291502642744994" lon="9.951741492945803"><ele>130.60000000000002</ele><time>2026-04-26T17:03:50.886Z</time></trkpt><trkpt lat="44.29158620864439" lon="9.95175820349461"><ele>129.39999999999998</ele><time>2026-04-26T17:03:51.886Z</time></trkpt><trkpt lat="44.29167610562119" lon="9.951774325299047"><ele>128.2</ele><time>2026-04-26T17:03:52.886Z</time></trkpt><trkpt lat="44.291778341405006" lon="9.951784018898701"><ele>127.0</ele><time>2026-04-26T17:03:53.886Z</time></trkpt><trkpt lat="44.29190140417351" lon="9.951787196706572"><ele>127.0</ele><time>2026-04-26T17:03:54.884Z</time></trkpt><trkpt lat="44.292031780667834" lon="9.95178728569574"><ele>127.0</ele><time>2026-04-26T17:03:55.885Z</time></trkpt><trkpt lat="44.29215158543241" lon="9.951783563333631"><ele>127.0</ele><time>2026-04-26T17:03:56.885Z</time></trkpt><trkpt lat="44.292270469042954" lon="9.951765854150223"><ele>127.0</ele><time>2026-04-26T17:03:57.885Z</time></trkpt><trkpt lat="44.292412960533255" lon="9.95172694764023"><ele>127.33333333333334</ele><time>2026-04-26T17:03:58.885Z</time></trkpt><trkpt lat="44.29257742984636" lon="9.951675727120014"><ele>127.66666666666666</ele><time>2026-04-26T17:03:59.885Z</time></trkpt><trkpt lat="44.29276359085363" lon="9.951615703323007"><ele>128.0</ele><time>2026-04-26T17:04:00.884Z</time></trkpt><trkpt lat="44.29295841916646" lon="9.9515466501778"><ele>128.33333333333331</ele><time>2026-04-26T17:04:01.884Z</time></trkpt><trkpt lat="44.29316606505849" lon="9.951468533386517"><ele>128.66666666666666</ele><time>2026-04-26T17:04:02.884Z</time></trkpt><trkpt lat="44.29337767414791" lon="9.951389820726837"><ele>129.0</ele><time>2026-04-26T17:04:03.885Z</time></trkpt><trkpt lat="44.293585707039874" lon="9.951312450603485"><ele>129.0</ele><time>2026-04-26T17:04:04.885Z</time></trkpt><trkpt lat="44.29379311905648" lon="9.951239131395457"><ele>129.0</ele><time>2026-04-26T17:04:05.885Z</time></trkpt><trkpt lat="44.29400552771374" lon="9.951163182226338"><ele>129.0</ele><time>2026-04-26T17:04:06.884Z</time></trkpt><trkpt lat="44.294216156550675" lon="9.951091054298708"><ele>130.33333333333334</ele><time>2026-04-26T17:04:07.884Z</time></trkpt><trkpt lat="44.29442567528199" lon="9.951009633887685"><ele>131.66666666666669</ele><time>2026-04-26T17:04:08.884Z</time></trkpt><trkpt lat="44.29463622512063" lon="9.95093549692544"><ele>133.0</ele><time>2026-04-26T17:04:09.884Z</time></trkpt><trkpt lat="44.294797763345116" lon="9.950890649077776"><ele>133.6</ele><time>2026-04-26T17:04:10.884Z</time></trkpt><trkpt lat="44.29491321482236" lon="9.950849116175805"><ele>134.20000000000002</ele><time>2026-04-26T17:04:11.884Z</time></trkpt><trkpt lat="44.29500708039477" lon="9.950804051483402"><ele>134.8</ele><time>2026-04-26T17:04:13.884Z</time></trkpt><trkpt lat="44.295130451864026" lon="9.95082275666944"><ele>135.4</ele><time>2026-04-26T17:04:45.884Z</time></trkpt><trkpt lat="44.2952122834475" lon="9.950790690491475"><ele>136.0</ele><time>2026-04-26T17:04:46.884Z</time></trkpt><trkpt lat="44.295308716523174" lon="9.950743661042804"><ele>136.0</ele><time>2026-04-26T17:04:47.884Z</time></trkpt><trkpt lat="44.295415309619955" lon="9.950705600034423"><ele>136.0</ele><time>2026-04-26T17:04:48.884Z</time></trkpt><trkpt lat="44.29552133533122" lon="9.950659604776131"><ele>136.0</ele><time>2026-04-26T17:04:49.884Z</time></trkpt><trkpt lat="44.295633332119074" lon="9.950607176000288"><ele>136.0</ele><time>2026-04-26T17:04:50.884Z</time></trkpt><trkpt lat="44.295748206983646" lon="9.950536479136641"><ele>137.0</ele><time>2026-04-26T17:04:51.884Z</time></trkpt><trkpt lat="44.29585832709745" lon="9.950447059204684"><ele>138.0</ele><time>2026-04-26T17:04:52.884Z</time></trkpt><trkpt lat="44.295967243998135" lon="9.950343979709912"><ele>139.0</ele><time>2026-04-26T17:04:53.884Z</time></trkpt><trkpt lat="44.296079712195294" lon="9.950221114433512"><ele>140.0</ele><time>2026-04-26T17:04:54.884Z</time></trkpt><trkpt lat="44.29619413107109" lon="9.95009252743311"><ele>140.0</ele><time>2026-04-26T17:04:55.884Z</time></trkpt><trkpt lat="44.29631913550694" lon="9.949964504974306"><ele>140.0</ele><time>2026-04-26T17:04:56.884Z</time></trkpt><trkpt lat="44.29644438278169" lon="9.949832306695434"><ele>140.0</ele><time>2026-04-26T17:04:57.884Z</time></trkpt><trkpt lat="44.29659392875503" lon="9.949723396197605"><ele>140.66666666666666</ele><time>2026-04-26T17:04:58.884Z</time></trkpt><trkpt lat="44.296749306415585" lon="9.94964052701089"><ele>141.33333333333334</ele><time>2026-04-26T17:04:59.884Z</time></trkpt><trkpt lat="44.296908229456534" lon="9.949573508571966"><ele>142.0</ele><time>2026-04-26T17:05:00.884Z</time></trkpt><trkpt lat="44.29706264126085" lon="9.949497450535778"><ele>142.0</ele><time>2026-04-26T17:05:01.884Z</time></trkpt><trkpt lat="44.297220481595424" lon="9.949419060052984"><ele>142.0</ele><time>2026-04-26T17:05:02.884Z</time></trkpt><trkpt lat="44.29737931461163" lon="9.949338832112376"><ele>142.0</ele><time>2026-04-26T17:05:03.884Z</time></trkpt><trkpt lat="44.29753704471865" lon="9.949250611224219"><ele>142.33333333333334</ele><time>2026-04-26T17:05:04.884Z</time></trkpt><trkpt lat="44.29769651023889" lon="9.949162626283718"><ele>142.66666666666666</ele><time>2026-04-26T17:05:05.884Z</time></trkpt><trkpt lat="44.297866232543115" lon="9.949098950668489"><ele>143.0</ele><time>2026-04-26T17:05:06.884Z</time></trkpt><trkpt lat="44.29804164769555" lon="9.949058097284022"><ele>143.0</ele><time>2026-04-26T17:05:07.884Z</time></trkpt><trkpt lat="44.29822182223784" lon="9.949037817437574"><ele>143.0</ele><time>2026-04-26T17:05:08.884Z</time></trkpt><trkpt lat="44.29840875954838" lon="9.949024091109722"><ele>143.0</ele><time>2026-04-26T17:05:09.884Z</time></trkpt><trkpt lat="44.298602931955784" lon="9.949005220466393"><ele>143.0</ele><time>2026-04-26T17:05:10.884Z</time></trkpt><trkpt lat="44.29880196745344" lon="9.948989544577033"><ele>143.0</ele><time>2026-04-26T17:05:11.884Z</time></trkpt><trkpt lat="44.29900214641667" lon="9.948976646668237"><ele>143.0</ele><time>2026-04-26T17:05:12.884Z</time></trkpt><trkpt lat="44.29920091536538" lon="9.94895790904158"><ele>142.66666666666666</ele><time>2026-04-26T17:05:13.884Z</time></trkpt><trkpt lat="44.299399121151616" lon="9.948931367074264"><ele>142.33333333333334</ele><time>2026-04-26T17:05:14.884Z</time></trkpt><trkpt lat="44.29959996940838" lon="9.948898090805244"><ele>142.0</ele><time>2026-04-26T17:05:15.884Z</time></trkpt><trkpt lat="44.29980080112888" lon="9.948857302546179"><ele>141.66666666666669</ele><time>2026-04-26T17:05:16.884Z</time></trkpt><trkpt lat="44.29999631809661" lon="9.948811062843232"><ele>141.33333333333334</ele><time>2026-04-26T17:05:17.884Z</time></trkpt><trkpt lat="44.30018867608014" lon="9.948756708951002"><ele>141.0</ele><time>2026-04-26T17:05:18.884Z</time></trkpt><trkpt lat="44.300380397653036" lon="9.948698216890314"><ele>141.0</ele><time>2026-04-26T17:05:19.884Z</time></trkpt><trkpt lat="44.30057120574029" lon="9.94863182837283"><ele>141.0</ele><time>2026-04-26T17:05:20.884Z</time></trkpt><trkpt lat="44.30076172262979" lon="9.948551986434468"><ele>141.0</ele><time>2026-04-26T17:05:21.884Z</time></trkpt><trkpt lat="44.30095196828906" lon="9.94846999799853"><ele>141.33333333333334</ele><time>2026-04-26T17:05:22.885Z</time></trkpt><trkpt lat="44.30114689372446" lon="9.948395617497154"><ele>141.66666666666669</ele><time>2026-04-26T17:05:23.885Z</time></trkpt><trkpt lat="44.30135104130775" lon="9.948319112037106"><ele>142.0</ele><time>2026-04-26T17:05:24.885Z</time></trkpt><trkpt lat="44.30155775263846" lon="9.948240221391387"><ele>143.33333333333334</ele><time>2026-04-26T17:05:25.885Z</time></trkpt><trkpt lat="44.30176748311102" lon="9.948155565495393"><ele>144.66666666666666</ele><time>2026-04-26T17:05:26.885Z</time></trkpt><trkpt lat="44.301973598775845" lon="9.948067290375517"><ele>146.0</ele><time>2026-04-26T17:05:27.885Z</time></trkpt><trkpt lat="44.302198949810396" lon="9.947987908862086"><ele>145.5</ele><time>2026-04-26T17:05:28.885Z</time></trkpt><trkpt lat="44.30243055965376" lon="9.947895868515412"><ele>145.0</ele><time>2026-04-26T17:05:29.885Z</time></trkpt><trkpt lat="44.30267176461705" lon="9.947828186068753"><ele>145.0</ele><time>2026-04-26T17:05:30.885Z</time></trkpt><trkpt lat="44.30291766293585" lon="9.947766807614936"><ele>145.0</ele><time>2026-04-26T17:05:31.885Z</time></trkpt><trkpt lat="44.30316989326462" lon="9.947699758872623"><ele>145.5</ele><time>2026-04-26T17:05:32.885Z</time></trkpt><trkpt lat="44.303421338550045" lon="9.947626551835432"><ele>146.0</ele><time>2026-04-26T17:05:33.885Z</time></trkpt><trkpt lat="44.30368176942441" lon="9.947557169932896"><ele>145.0</ele><time>2026-04-26T17:05:34.885Z</time></trkpt><trkpt lat="44.303939984175344" lon="9.94749043933522"><ele>144.0</ele><time>2026-04-26T17:05:35.885Z</time></trkpt><trkpt lat="44.30419851627107" lon="9.947418949192015"><ele>144.0</ele><time>2026-04-26T17:05:36.885Z</time></trkpt><trkpt lat="44.30445510766118" lon="9.947357419635157"><ele>144.0</ele><time>2026-04-26T17:05:37.885Z</time></trkpt><trkpt lat="44.30470794529049" lon="9.947292810599274"><ele>145.0</ele><time>2026-04-26T17:05:38.885Z</time></trkpt><trkpt lat="44.304942745296685" lon="9.947225380073814"><ele>146.0</ele><time>2026-04-26T17:05:39.885Z</time></trkpt><trkpt lat="44.305163753360496" lon="9.947173004044082"><ele>146.0</ele><time>2026-04-26T17:05:40.885Z</time></trkpt><trkpt lat="44.30537153318706" lon="9.947108326697515"><ele>146.0</ele><time>2026-04-26T17:05:41.885Z</time></trkpt><trkpt lat="44.30557171782371" lon="9.947024169289563"><ele>146.0</ele><time>2026-04-26T17:05:42.885Z</time></trkpt><trkpt lat="44.30576640148924" lon="9.94691619865445"><ele>146.0</ele><time>2026-04-26T17:05:43.885Z</time></trkpt><trkpt lat="44.30595820344421" lon="9.946798085521378"><ele>146.0</ele><time>2026-04-26T17:05:44.885Z</time></trkpt><trkpt lat="44.30613263195414" lon="9.946687815656956"><ele>146.0</ele><time>2026-04-26T17:05:45.885Z</time></trkpt><trkpt lat="44.306304273641075" lon="9.946593074293249"><ele>145.0</ele><time>2026-04-26T17:05:46.885Z</time></trkpt><trkpt lat="44.30647883881217" lon="9.946528775344875"><ele>144.0</ele><time>2026-04-26T17:05:47.885Z</time></trkpt><trkpt lat="44.30666468751735" lon="9.94652083289268"><ele>143.0</ele><time>2026-04-26T17:05:48.885Z</time></trkpt><trkpt lat="44.306864915447576" lon="9.94654774405799"><ele>143.0</ele><time>2026-04-26T17:05:49.885Z</time></trkpt><trkpt lat="44.30709490943033" lon="9.946589559596093"><ele>143.0</ele><time>2026-04-26T17:05:50.885Z</time></trkpt><trkpt lat="44.30733315979284" lon="9.94661851814749"><ele>143.0</ele><time>2026-04-26T17:05:51.885Z</time></trkpt><trkpt lat="44.307578615944884" lon="9.946639540467094"><ele>143.0</ele><time>2026-04-26T17:05:52.885Z</time></trkpt><trkpt lat="44.3078258297273" lon="9.946647376491388"><ele>143.0</ele><time>2026-04-26T17:05:53.885Z</time></trkpt><trkpt lat="44.30807038026919" lon="9.946623318661816"><ele>143.0</ele><time>2026-04-26T17:05:54.885Z</time></trkpt><trkpt lat="44.30831496353607" lon="9.94656317952669"><ele>143.0</ele><time>2026-04-26T17:05:55.885Z</time></trkpt><trkpt lat="44.30856221436046" lon="9.946502866149983"><ele>143.0</ele><time>2026-04-26T17:05:56.885Z</time></trkpt><trkpt lat="44.308810743109476" lon="9.94645915032137"><ele>142.5</ele><time>2026-04-26T17:05:57.885Z</time></trkpt><trkpt lat="44.30906324209522" lon="9.946453216236225"><ele>142.0</ele><time>2026-04-26T17:05:58.885Z</time></trkpt><trkpt lat="44.309318364098" lon="9.946475610641075"><ele>142.0</ele><time>2026-04-26T17:05:59.885Z</time></trkpt><trkpt lat="44.30957992060374" lon="9.946513535652343"><ele>142.0</ele><time>2026-04-26T17:06:00.883Z</time></trkpt><trkpt lat="44.309838163957224" lon="9.946563217799255"><ele>142.0</ele><time>2026-04-26T17:06:01.882Z</time></trkpt><trkpt lat="44.31009003745076" lon="9.946612096658885"><ele>142.0</ele><time>2026-04-26T17:06:02.883Z</time></trkpt><trkpt lat="44.310317232124675" lon="9.946650408863952"><ele>142.0</ele><time>2026-04-26T17:06:03.883Z</time></trkpt><trkpt lat="44.310531726087234" lon="9.946684907909457"><ele>142.0</ele><time>2026-04-26T17:06:04.883Z</time></trkpt><trkpt lat="44.31073535222103" lon="9.946714520208964"><ele>142.0</ele><time>2026-04-26T17:06:05.883Z</time></trkpt><trkpt lat="44.31091329923369" lon="9.946740507605172"><ele>142.66666666666669</ele><time>2026-04-26T17:06:06.883Z</time></trkpt><trkpt lat="44.31108815549261" lon="9.946734266464725"><ele>143.33333333333334</ele><time>2026-04-26T17:06:07.883Z</time></trkpt><trkpt lat="44.31125644182374" lon="9.946669398083955"><ele>144.0</ele><time>2026-04-26T17:06:08.883Z</time></trkpt><trkpt lat="44.31142857105308" lon="9.94651852878313"><ele>142.0</ele><time>2026-04-26T17:06:09.882Z</time></trkpt><trkpt lat="44.311612390671826" lon="9.946327501206872"><ele>140.0</ele><time>2026-04-26T17:06:10.883Z</time></trkpt><trkpt lat="44.311817138625365" lon="9.946140171567656"><ele>140.0</ele><time>2026-04-26T17:06:11.883Z</time></trkpt><trkpt lat="44.31204797386821" lon="9.94598709354316"><ele>140.0</ele><time>2026-04-26T17:06:12.883Z</time></trkpt><trkpt lat="44.312301187251556" lon="9.945870031849402"><ele>139.5</ele><time>2026-04-26T17:06:13.883Z</time></trkpt><trkpt lat="44.312562961671894" lon="9.945778425516133"><ele>139.0</ele><time>2026-04-26T17:06:14.883Z</time></trkpt><trkpt lat="44.312840578950606" lon="9.94568065916048"><ele>139.5</ele><time>2026-04-26T17:06:15.883Z</time></trkpt><trkpt lat="44.31312005026644" lon="9.945561505644344"><ele>140.0</ele><time>2026-04-26T17:06:16.883Z</time></trkpt><trkpt lat="44.31340349113276" lon="9.945440596445199"><ele>140.0</ele><time>2026-04-26T17:06:17.883Z</time></trkpt><trkpt lat="44.31369350770091" lon="9.945317256432213"><ele>140.0</ele><time>2026-04-26T17:06:18.883Z</time></trkpt><trkpt lat="44.313991702661646" lon="9.945188615628336"><ele>139.5</ele><time>2026-04-26T17:06:19.883Z</time></trkpt><trkpt lat="44.31427916306087" lon="9.945060935914263"><ele>139.0</ele><time>2026-04-26T17:06:20.883Z</time></trkpt><trkpt lat="44.31456549928231" lon="9.944937866883292"><ele>138.0</ele><time>2026-04-26T17:06:21.883Z</time></trkpt><trkpt lat="44.31484571575446" lon="9.944817065262303"><ele>137.0</ele><time>2026-04-26T17:06:22.883Z</time></trkpt><trkpt lat="44.31512179390764" lon="9.944692357926685"><ele>137.0</ele><time>2026-04-26T17:06:23.883Z</time></trkpt><trkpt lat="44.31540273580261" lon="9.944562078947644"><ele>137.0</ele><time>2026-04-26T17:06:24.883Z</time></trkpt><trkpt lat="44.31567798783136" lon="9.944441584955747"><ele>138.0</ele><time>2026-04-26T17:06:25.883Z</time></trkpt><trkpt lat="44.315963934795256" lon="9.944316117304158"><ele>139.0</ele><time>2026-04-26T17:06:26.883Z</time></trkpt><trkpt lat="44.31625172287684" lon="9.944182028904567"><ele>138.5</ele><time>2026-04-26T17:06:27.883Z</time></trkpt><trkpt lat="44.31654406877659" lon="9.944048825680506"><ele>138.0</ele><time>2026-04-26T17:06:28.883Z</time></trkpt><trkpt lat="44.31682777888553" lon="9.943928895178324"><ele>138.0</ele><time>2026-04-26T17:06:29.883Z</time></trkpt><trkpt lat="44.3171270726172" lon="9.943787166668008"><ele>138.0</ele><time>2026-04-26T17:06:30.883Z</time></trkpt><trkpt lat="44.31741671176783" lon="9.94364703599963"><ele>139.0</ele><time>2026-04-26T17:06:31.883Z</time></trkpt><trkpt lat="44.31771377897823" lon="9.943512691710795"><ele>140.0</ele><time>2026-04-26T17:06:32.883Z</time></trkpt><trkpt lat="44.3180048281664" lon="9.94336941918919"><ele>140.5</ele><time>2026-04-26T17:06:33.883Z</time></trkpt><trkpt lat="44.31829271594857" lon="9.943227782714164"><ele>141.0</ele><time>2026-04-26T17:06:34.883Z</time></trkpt><trkpt lat="44.318589220022986" lon="9.943086272244015"><ele>141.0</ele><time>2026-04-26T17:06:35.883Z</time></trkpt><trkpt lat="44.318885991858046" lon="9.94294954694159"><ele>141.0</ele><time>2026-04-26T17:06:36.883Z</time></trkpt><trkpt lat="44.31917827163333" lon="9.942812630822011"><ele>141.5</ele><time>2026-04-26T17:06:37.883Z</time></trkpt><trkpt lat="44.31947166151979" lon="9.942676330537047"><ele>142.0</ele><time>2026-04-26T17:06:38.883Z</time></trkpt><trkpt lat="44.31975980469822" lon="9.942542881181575"><ele>142.0</ele><time>2026-04-26T17:06:39.883Z</time></trkpt><trkpt lat="44.32003601400298" lon="9.942420869383449"><ele>142.0</ele><time>2026-04-26T17:06:40.883Z</time></trkpt><trkpt lat="44.320288808317876" lon="9.942297070670586"><ele>142.0</ele><time>2026-04-26T17:06:41.883Z</time></trkpt><trkpt lat="44.320523680297086" lon="9.942184769735897"><ele>142.0</ele><time>2026-04-26T17:06:42.883Z</time></trkpt><trkpt lat="44.32074837441971" lon="9.942080327614056"><ele>142.0</ele><time>2026-04-26T17:06:43.883Z</time></trkpt><trkpt lat="44.32095830656488" lon="9.94197838014346"><ele>142.0</ele><time>2026-04-26T17:06:44.883Z</time></trkpt><trkpt lat="44.32115303626419" lon="9.941886772831674"><ele>142.0</ele><time>2026-04-26T17:06:45.883Z</time></trkpt><trkpt lat="44.32134462538367" lon="9.941797975765395"><ele>142.33333333333334</ele><time>2026-04-26T17:06:46.883Z</time></trkpt><trkpt lat="44.32153864085619" lon="9.94170420005604"><ele>142.66666666666666</ele><time>2026-04-26T17:06:47.883Z</time></trkpt><trkpt lat="44.32173285904972" lon="9.941616319049587"><ele>143.0</ele><time>2026-04-26T17:06:48.883Z</time></trkpt><trkpt lat="44.321927598018306" lon="9.941518430163455"><ele>143.0</ele><time>2026-04-26T17:06:49.883Z</time></trkpt><trkpt lat="44.32211885927137" lon="9.94142532733325"><ele>143.0</ele><time>2026-04-26T17:06:50.883Z</time></trkpt><trkpt lat="44.322314869996646" lon="9.94133244298446"><ele>143.0</ele><time>2026-04-26T17:06:51.883Z</time></trkpt><trkpt lat="44.322516146233134" lon="9.94124155382871"><ele>143.33333333333331</ele><time>2026-04-26T17:06:52.883Z</time></trkpt><trkpt lat="44.32272239101554" lon="9.94114699870855"><ele>143.66666666666666</ele><time>2026-04-26T17:06:53.883Z</time></trkpt><trkpt lat="44.322937486616404" lon="9.941041313283238"><ele>144.0</ele><time>2026-04-26T17:06:54.883Z</time></trkpt><trkpt lat="44.323154567391256" lon="9.940942519612133"><ele>145.0</ele><time>2026-04-26T17:06:55.883Z</time></trkpt><trkpt lat="44.32337642686573" lon="9.940836209110879"><ele>146.0</ele><time>2026-04-26T17:06:56.883Z</time></trkpt><trkpt lat="44.32359126264945" lon="9.94073229505855"><ele>146.0</ele><time>2026-04-26T17:06:57.883Z</time></trkpt><trkpt lat="44.32381284630742" lon="9.940624599349583"><ele>146.0</ele><time>2026-04-26T17:06:58.883Z</time></trkpt><trkpt lat="44.32404291618644" lon="9.940515918910268"><ele>146.0</ele><time>2026-04-26T17:06:59.883Z</time></trkpt><trkpt lat="44.32427691168542" lon="9.94041290877808"><ele>146.0</ele><time>2026-04-26T17:07:00.883Z</time></trkpt><trkpt lat="44.3245047668523" lon="9.940297489284434"><ele>149.5</ele><time>2026-04-26T17:07:01.883Z</time></trkpt><trkpt lat="44.32473218731991" lon="9.940192862965336"><ele>153.0</ele><time>2026-04-26T17:07:02.883Z</time></trkpt><trkpt lat="44.3249558728681" lon="9.940097961021241"><ele>149.5</ele><time>2026-04-26T17:07:03.883Z</time></trkpt><trkpt lat="44.32516948995184" lon="9.93998268490244"><ele>146.0</ele><time>2026-04-26T17:07:04.883Z</time></trkpt><trkpt lat="44.325376985055115" lon="9.93986476828421"><ele>148.66666666666666</ele><time>2026-04-26T17:07:05.883Z</time></trkpt><trkpt lat="44.32558006179476" lon="9.939751233783287"><ele>151.33333333333334</ele><time>2026-04-26T17:07:06.883Z</time></trkpt><trkpt lat="44.32577812593725" lon="9.939645975787123"><ele>154.0</ele><time>2026-04-26T17:07:07.883Z</time></trkpt><trkpt lat="44.32597357272547" lon="9.939535623743653"><ele>154.0</ele><time>2026-04-26T17:07:08.883Z</time></trkpt><trkpt lat="44.32616131432639" lon="9.939434915751617"><ele>154.0</ele><time>2026-04-26T17:07:09.883Z</time></trkpt><trkpt lat="44.32633228696433" lon="9.939341410740521"><ele>154.0</ele><time>2026-04-26T17:07:10.883Z</time></trkpt><trkpt lat="44.32648557295504" lon="9.939261590501522"><ele>153.25</ele><time>2026-04-26T17:07:11.883Z</time></trkpt><trkpt lat="44.32662276003753" lon="9.93919131592815"><ele>152.5</ele><time>2026-04-26T17:07:12.883Z</time></trkpt><trkpt lat="44.32674306065259" lon="9.939120771485475"><ele>151.75</ele><time>2026-04-26T17:07:13.883Z</time></trkpt><trkpt lat="44.32684526504951" lon="9.939055011586342"><ele>151.0</ele><time>2026-04-26T17:07:14.883Z</time></trkpt><trkpt lat="44.326949482770814" lon="9.938989275143367"><ele>151.0</ele><time>2026-04-26T17:07:15.883Z</time></trkpt><trkpt lat="44.3270473069713" lon="9.938933150556288"><ele>151.0</ele><time>2026-04-26T17:07:16.883Z</time></trkpt><trkpt lat="44.32714927922745" lon="9.938868023278532"><ele>151.0</ele><time>2026-04-26T17:07:17.883Z</time></trkpt><trkpt lat="44.32725119759213" lon="9.938797675076373"><ele>151.0</ele><time>2026-04-26T17:07:18.883Z</time></trkpt><trkpt lat="44.32734898329476" lon="9.938712038257398"><ele>151.0</ele><time>2026-04-26T17:07:19.883Z</time></trkpt><trkpt lat="44.32744622457015" lon="9.938601572860549"><ele>151.33333333333334</ele><time>2026-04-26T17:07:20.883Z</time></trkpt><trkpt lat="44.32754957245819" lon="9.938447025384782"><ele>151.66666666666666</ele><time>2026-04-26T17:07:21.883Z</time></trkpt><trkpt lat="44.32765948283474" lon="9.938274513448176"><ele>152.0</ele><time>2026-04-26T17:07:22.883Z</time></trkpt><trkpt lat="44.32778034456858" lon="9.93806223829307"><ele>152.0</ele><time>2026-04-26T17:07:23.883Z</time></trkpt><trkpt lat="44.32791594338219" lon="9.937831370852372"><ele>152.0</ele><time>2026-04-26T17:07:24.883Z</time></trkpt><trkpt lat="44.328055171117505" lon="9.937589594712462"><ele>152.0</ele><time>2026-04-26T17:07:25.883Z</time></trkpt><trkpt lat="44.32819949875757" lon="9.937340162525038"><ele>152.0</ele><time>2026-04-26T17:07:26.883Z</time></trkpt><trkpt lat="44.32834014864165" lon="9.937100869502094"><ele>152.0</ele><time>2026-04-26T17:07:27.883Z</time></trkpt><trkpt lat="44.32847068729543" lon="9.936866323119588"><ele>152.0</ele><time>2026-04-26T17:07:28.883Z</time></trkpt><trkpt lat="44.32859198181821" lon="9.93664932409649"><ele>152.0</ele><time>2026-04-26T17:07:29.883Z</time></trkpt><trkpt lat="44.32871457746746" lon="9.936441373448314"><ele>152.0</ele><time>2026-04-26T17:07:30.883Z</time></trkpt><trkpt lat="44.32883446573838" lon="9.936230633499505"><ele>152.0</ele><time>2026-04-26T17:07:31.883Z</time></trkpt><trkpt lat="44.328956061856665" lon="9.936016399830846"><ele>152.33333333333331</ele><time>2026-04-26T17:07:32.883Z</time></trkpt><trkpt lat="44.32907681394604" lon="9.935806740437384"><ele>152.66666666666666</ele><time>2026-04-26T17:07:33.883Z</time></trkpt><trkpt lat="44.3291972041604" lon="9.935597956251074"><ele>153.0</ele><time>2026-04-26T17:07:34.883Z</time></trkpt><trkpt lat="44.32931729848621" lon="9.935383548405015"><ele>153.0</ele><time>2026-04-26T17:07:35.883Z</time></trkpt><trkpt lat="44.329439060555266" lon="9.935171198706426"><ele>153.0</ele><time>2026-04-26T17:07:36.883Z</time></trkpt><trkpt lat="44.32955936644378" lon="9.934958140641587"><ele>153.0</ele><time>2026-04-26T17:07:37.883Z</time></trkpt><trkpt lat="44.32968006534484" lon="9.934745591048458"><ele>154.0</ele><time>2026-04-26T17:07:38.883Z</time></trkpt><trkpt lat="44.3297980938566" lon="9.934530657514232"><ele>155.0</ele><time>2026-04-26T17:07:39.883Z</time></trkpt><trkpt lat="44.32991002592207" lon="9.934314439191313"><ele>156.0</ele><time>2026-04-26T17:07:40.883Z</time></trkpt><trkpt lat="44.33001433269583" lon="9.934106073486234"><ele>156.0</ele><time>2026-04-26T17:07:41.883Z</time></trkpt><trkpt lat="44.330106668490394" lon="9.933922212504886"><ele>156.0</ele><time>2026-04-26T17:07:42.883Z</time></trkpt><trkpt lat="44.33018558399858" lon="9.933755484663287"><ele>156.0</ele><time>2026-04-26T17:07:43.883Z</time></trkpt><trkpt lat="44.330270543725135" lon="9.933588591923156"><ele>156.33333333333334</ele><time>2026-04-26T17:07:44.883Z</time></trkpt><trkpt lat="44.330365928190176" lon="9.933381140600076"><ele>156.66666666666669</ele><time>2026-04-26T17:07:45.883Z</time></trkpt><trkpt lat="44.33047172947297" lon="9.933153413680587"><ele>157.0</ele><time>2026-04-26T17:07:46.883Z</time></trkpt><trkpt lat="44.330580023423884" lon="9.9329186272576"><ele>157.0</ele><time>2026-04-26T17:07:47.883Z</time></trkpt><trkpt lat="44.33069443880312" lon="9.932674577245885"><ele>157.0</ele><time>2026-04-26T17:07:48.883Z</time></trkpt><trkpt lat="44.3308095685429" lon="9.932421599372072"><ele>157.0</ele><time>2026-04-26T17:07:49.883Z</time></trkpt><trkpt lat="44.33092789960223" lon="9.9321706263659"><ele>156.33333333333334</ele><time>2026-04-26T17:07:50.883Z</time></trkpt><trkpt lat="44.331048315615064" lon="9.931920631163447"><ele>155.66666666666666</ele><time>2026-04-26T17:07:51.883Z</time></trkpt><trkpt lat="44.33116108207835" lon="9.93166699639835"><ele>155.0</ele><time>2026-04-26T17:07:52.883Z</time></trkpt><trkpt lat="44.33127529658311" lon="9.931417966340124"><ele>154.66666666666666</ele><time>2026-04-26T17:07:53.883Z</time></trkpt><trkpt lat="44.33138457620412" lon="9.931187300922277"><ele>154.33333333333334</ele><time>2026-04-26T17:07:54.883Z</time></trkpt><trkpt lat="44.331484709829326" lon="9.930966214231066"><ele>154.0</ele><time>2026-04-26T17:07:55.883Z</time></trkpt><trkpt lat="44.331579416005816" lon="9.930771216756686"><ele>154.0</ele><time>2026-04-26T17:07:56.883Z</time></trkpt><trkpt lat="44.33166642181855" lon="9.930590521784106"><ele>154.0</ele><time>2026-04-26T17:07:57.883Z</time></trkpt><trkpt lat="44.33174290615747" lon="9.930440012407894"><ele>154.0</ele><time>2026-04-26T17:07:58.883Z</time></trkpt><trkpt lat="44.33181550272176" lon="9.930319279666223"><ele>154.0</ele><time>2026-04-26T17:07:59.883Z</time></trkpt><trkpt lat="44.33188921447819" lon="9.930241675481284"><ele>154.0</ele><time>2026-04-26T17:08:00.883Z</time></trkpt><trkpt lat="44.33196459941115" lon="9.930195595227268"><ele>154.0</ele><time>2026-04-26T17:08:01.883Z</time></trkpt><trkpt lat="44.33201823751691" lon="9.93013703240331"><ele>154.0</ele><time>2026-04-26T17:08:02.883Z</time></trkpt><trkpt lat="44.332014581264325" lon="9.930039559971759"><ele>154.0</ele><time>2026-04-26T17:08:03.883Z</time></trkpt><trkpt lat="44.33196148436575" lon="9.929963609887892"><ele>154.0</ele><time>2026-04-26T17:08:04.883Z</time></trkpt><trkpt lat="44.331868603184084" lon="9.929944416623078"><ele>154.0</ele><time>2026-04-26T17:08:05.883Z</time></trkpt><trkpt lat="44.331775134624195" lon="9.929929727395916"><ele>154.0</ele><time>2026-04-26T17:08:06.881Z</time></trkpt><trkpt lat="44.3317139227508" lon="9.929885582295498"><ele>154.0</ele><time>2026-04-26T17:08:07.881Z</time></trkpt><trkpt lat="44.33166535247025" lon="9.929807052476967"><ele>154.0</ele><time>2026-04-26T17:08:09.881Z</time></trkpt><trkpt lat="44.33170117863233" lon="9.929892090968155"><ele>154.0</ele><time>2026-04-26T17:09:22.881Z</time></trkpt><trkpt lat="44.33175491690264" lon="9.929953762033467"><ele>154.0</ele><time>2026-04-26T17:09:24.881Z</time></trkpt><trkpt lat="44.33181451917973" lon="9.930103358106278"><ele>154.0</ele><time>2026-04-26T17:09:26.881Z</time></trkpt><trkpt lat="44.331875572455495" lon="9.930227583135157"><ele>154.0</ele><time>2026-04-26T17:09:28.881Z</time></trkpt><trkpt lat="44.331987143664705" lon="9.930208317816852"><ele>154.0</ele><time>2026-04-26T17:09:30.881Z</time></trkpt><trkpt lat="44.33203452028334" lon="9.930113701281842"><ele>154.0</ele><time>2026-04-26T17:09:31.881Z</time></trkpt><trkpt lat="44.33205804321664" lon="9.92999030462933"><ele>154.0</ele><time>2026-04-26T17:09:32.881Z</time></trkpt><trkpt lat="44.332087568739254" lon="9.929827868849095"><ele>154.0</ele><time>2026-04-26T17:09:33.881Z</time></trkpt><trkpt lat="44.332148311942156" lon="9.929642772816754"><ele>155.66666666666669</ele><time>2026-04-26T17:09:34.881Z</time></trkpt><trkpt lat="44.33222666202837" lon="9.929441036142617"><ele>157.33333333333334</ele><time>2026-04-26T17:09:35.881Z</time></trkpt><trkpt lat="44.332323452651075" lon="9.92922888633451"><ele>159.0</ele><time>2026-04-26T17:09:36.881Z</time></trkpt><trkpt lat="44.33242394298964" lon="9.929016122301265"><ele>159.0</ele><time>2026-04-26T17:09:37.881Z</time></trkpt><trkpt lat="44.33253167360623" lon="9.928776916096703"><ele>159.0</ele><time>2026-04-26T17:09:38.881Z</time></trkpt><trkpt lat="44.33263683590986" lon="9.928509067460093"><ele>159.0</ele><time>2026-04-26T17:09:39.881Z</time></trkpt><trkpt lat="44.3327360185696" lon="9.928235091841245"><ele>158.66666666666666</ele><time>2026-04-26T17:09:40.881Z</time></trkpt><trkpt lat="44.33282039306059" lon="9.927985570285582"><ele>158.33333333333331</ele><time>2026-04-26T17:09:41.881Z</time></trkpt><trkpt lat="44.33290267637891" lon="9.927766304646546"><ele>158.0</ele><time>2026-04-26T17:09:42.881Z</time></trkpt><trkpt lat="44.33297769938928" lon="9.927548943340472"><ele>158.33333333333331</ele><time>2026-04-26T17:09:43.881Z</time></trkpt><trkpt lat="44.333039970703126" lon="9.927309896156379"><ele>158.66666666666666</ele><time>2026-04-26T17:09:44.881Z</time></trkpt><trkpt lat="44.33307013343574" lon="9.927045383709759"><ele>159.0</ele><time>2026-04-26T17:09:45.881Z</time></trkpt><trkpt lat="44.3330763824704" lon="9.926765581278426"><ele>159.33333333333334</ele><time>2026-04-26T17:09:46.881Z</time></trkpt><trkpt lat="44.33307918864755" lon="9.926480561410473"><ele>159.66666666666669</ele><time>2026-04-26T17:09:47.881Z</time></trkpt><trkpt lat="44.33308852489527" lon="9.926197820166305"><ele>160.0</ele><time>2026-04-26T17:09:48.881Z</time></trkpt><trkpt lat="44.333096867685185" lon="9.925936795643139"><ele>160.0</ele><time>2026-04-26T17:09:49.881Z</time></trkpt><trkpt lat="44.3331102982068" lon="9.925681507834561"><ele>160.0</ele><time>2026-04-26T17:09:50.881Z</time></trkpt><trkpt lat="44.333141234229515" lon="9.925430575239185"><ele>160.0</ele><time>2026-04-26T17:09:51.881Z</time></trkpt><trkpt lat="44.33320259143145" lon="9.92518811108319"><ele>159.33333333333334</ele><time>2026-04-26T17:09:52.881Z</time></trkpt><trkpt lat="44.333280997361136" lon="9.924950126379953"><ele>158.66666666666666</ele><time>2026-04-26T17:09:53.881Z</time></trkpt><trkpt lat="44.333372865717884" lon="9.924729884090366"><ele>158.0</ele><time>2026-04-26T17:09:54.881Z</time></trkpt><trkpt lat="44.333463374586266" lon="9.924519220045482"><ele>158.0</ele><time>2026-04-26T17:09:55.881Z</time></trkpt><trkpt lat="44.33354264392924" lon="9.924316846699673"><ele>158.0</ele><time>2026-04-26T17:09:56.881Z</time></trkpt><trkpt lat="44.333611933338474" lon="9.924136790294964"><ele>158.0</ele><time>2026-04-26T17:09:57.881Z</time></trkpt><trkpt lat="44.33367625099898" lon="9.923977838742074"><ele>158.0</ele><time>2026-04-26T17:09:58.881Z</time></trkpt><trkpt lat="44.33373522499526" lon="9.923830408429124"><ele>158.5</ele><time>2026-04-26T17:09:59.881Z</time></trkpt><trkpt lat="44.33377914291335" lon="9.923672405278802"><ele>159.0</ele><time>2026-04-26T17:10:00.881Z</time></trkpt><trkpt lat="44.333840035284844" lon="9.923503254996831"><ele>159.5</ele><time>2026-04-26T17:10:01.881Z</time></trkpt><trkpt lat="44.333924358473865" lon="9.923340089290202"><ele>160.0</ele><time>2026-04-26T17:10:02.881Z</time></trkpt><trkpt lat="44.334041513206834" lon="9.923198257093826"><ele>161.0</ele><time>2026-04-26T17:10:03.881Z</time></trkpt><trkpt lat="44.33415734066477" lon="9.923068546375879"><ele>162.0</ele><time>2026-04-26T17:10:04.881Z</time></trkpt><trkpt lat="44.334264974881954" lon="9.922933417694841"><ele>163.0</ele><time>2026-04-26T17:10:05.881Z</time></trkpt><trkpt lat="44.33436361240258" lon="9.922789892526701"><ele>164.0</ele><time>2026-04-26T17:10:06.881Z</time></trkpt><trkpt lat="44.33445991490032" lon="9.922643812958606"><ele>164.0</ele><time>2026-04-26T17:10:07.881Z</time></trkpt><trkpt lat="44.33455394524515" lon="9.922496213817615"><ele>164.0</ele><time>2026-04-26T17:10:08.881Z</time></trkpt><trkpt lat="44.33464811768236" lon="9.922345991319597"><ele>164.0</ele><time>2026-04-26T17:10:09.881Z</time></trkpt><trkpt lat="44.334741555608524" lon="9.922186788816378"><ele>164.0</ele><time>2026-04-26T17:10:10.881Z</time></trkpt><trkpt lat="44.33483734521718" lon="9.922033890876616"><ele>164.0</ele><time>2026-04-26T17:10:11.881Z</time></trkpt><trkpt lat="44.3349376133803" lon="9.921882924591669"><ele>164.0</ele><time>2026-04-26T17:10:12.88Z</time></trkpt><trkpt lat="44.33503678554967" lon="9.92172979299062"><ele>164.0</ele><time>2026-04-26T17:10:13.88Z</time></trkpt><trkpt lat="44.335129044647445" lon="9.921580489961384"><ele>164.0</ele><time>2026-04-26T17:10:14.88Z</time></trkpt><trkpt lat="44.335222690363686" lon="9.921425182245331"><ele>164.0</ele><time>2026-04-26T17:10:15.88Z</time></trkpt><trkpt lat="44.3353153550919" lon="9.921271875241729"><ele>164.0</ele><time>2026-04-26T17:10:16.88Z</time></trkpt><trkpt lat="44.33540874597348" lon="9.92111630157616"><ele>164.0</ele><time>2026-04-26T17:10:17.88Z</time></trkpt><trkpt lat="44.33550276643219" lon="9.920954393976368"><ele>164.0</ele><time>2026-04-26T17:10:18.88Z</time></trkpt><trkpt lat="44.33559516537846" lon="9.920778182735143"><ele>164.0</ele><time>2026-04-26T17:10:19.88Z</time></trkpt><trkpt lat="44.33567771047018" lon="9.9205947501657"><ele>164.0</ele><time>2026-04-26T17:10:20.88Z</time></trkpt><trkpt lat="44.33575469525226" lon="9.92039893296234"><ele>164.0</ele><time>2026-04-26T17:10:21.88Z</time></trkpt><trkpt lat="44.335828096765724" lon="9.920194991235984"><ele>163.66666666666666</ele><time>2026-04-26T17:10:22.88Z</time></trkpt><trkpt lat="44.335898207361204" lon="9.919966910076663"><ele>163.33333333333334</ele><time>2026-04-26T17:10:23.88Z</time></trkpt><trkpt lat="44.335976331696806" lon="9.919701060994841"><ele>163.0</ele><time>2026-04-26T17:10:24.88Z</time></trkpt><trkpt lat="44.336069845543406" lon="9.91939947938669"><ele>163.0</ele><time>2026-04-26T17:10:25.88Z</time></trkpt><trkpt lat="44.33617747391699" lon="9.919094917315588"><ele>163.0</ele><time>2026-04-26T17:10:26.88Z</time></trkpt><trkpt lat="44.336287074309" lon="9.918801826575216"><ele>163.0</ele><time>2026-04-26T17:10:27.88Z</time></trkpt><trkpt lat="44.33639038946227" lon="9.91852836926655"><ele>163.0</ele><time>2026-04-26T17:10:28.88Z</time></trkpt><trkpt lat="44.33648440869466" lon="9.918257334259353"><ele>163.0</ele><time>2026-04-26T17:10:29.88Z</time></trkpt><trkpt lat="44.33657333415408" lon="9.917994986505672"><ele>163.33333333333334</ele><time>2026-04-26T17:10:30.88Z</time></trkpt><trkpt lat="44.33666124230925" lon="9.917730397855752"><ele>163.66666666666666</ele><time>2026-04-26T17:10:31.88Z</time></trkpt><trkpt lat="44.336745533867976" lon="9.917476728443003"><ele>164.0</ele><time>2026-04-26T17:10:32.88Z</time></trkpt><trkpt lat="44.336825289325475" lon="9.917230019776863"><ele>164.33333333333331</ele><time>2026-04-26T17:10:33.88Z</time></trkpt><trkpt lat="44.336905854395965" lon="9.916990444611189"><ele>164.66666666666666</ele><time>2026-04-26T17:10:34.88Z</time></trkpt><trkpt lat="44.33698696129343" lon="9.916754536082795"><ele>165.0</ele><time>2026-04-26T17:10:35.88Z</time></trkpt><trkpt lat="44.337063354008905" lon="9.916538981241017"><ele>165.25</ele><time>2026-04-26T17:10:36.88Z</time></trkpt><trkpt lat="44.337134658643706" lon="9.916334871894396"><ele>165.5</ele><time>2026-04-26T17:10:37.88Z</time></trkpt><trkpt lat="44.33720479369734" lon="9.916156072269176"><ele>165.75</ele><time>2026-04-26T17:10:38.88Z</time></trkpt><trkpt lat="44.33727432680857" lon="9.91601074449587"><ele>166.0</ele><time>2026-04-26T17:10:39.88Z</time></trkpt><trkpt lat="44.337344022877964" lon="9.91588921274466"><ele>166.60000000000002</ele><time>2026-04-26T17:10:40.88Z</time></trkpt><trkpt lat="44.337409814769025" lon="9.915775872472134"><ele>167.2</ele><time>2026-04-26T17:10:41.88Z</time></trkpt><trkpt lat="44.33746910129466" lon="9.915664731819177"><ele>167.8</ele><time>2026-04-26T17:10:42.88Z</time></trkpt><trkpt lat="44.33753305246303" lon="9.915554113187547"><ele>168.39999999999998</ele><time>2026-04-26T17:10:43.88Z</time></trkpt><trkpt lat="44.337596113371326" lon="9.915442016145814"><ele>169.0</ele><time>2026-04-26T17:10:44.88Z</time></trkpt><trkpt lat="44.33765958511265" lon="9.915320915478746"><ele>169.0</ele><time>2026-04-26T17:10:45.88Z</time></trkpt><trkpt lat="44.33772939887922" lon="9.915185451170801"><ele>169.0</ele><time>2026-04-26T17:10:46.88Z</time></trkpt><trkpt lat="44.33780667684016" lon="9.915046881856451"><ele>169.0</ele><time>2026-04-26T17:10:47.88Z</time></trkpt><trkpt lat="44.33789323428615" lon="9.914912992920929"><ele>169.0</ele><time>2026-04-26T17:10:48.88Z</time></trkpt><trkpt lat="44.33797824851999" lon="9.914764513883902"><ele>170.25</ele><time>2026-04-26T17:10:49.88Z</time></trkpt><trkpt lat="44.3380562821147" lon="9.914603001757454"><ele>171.5</ele><time>2026-04-26T17:10:50.88Z</time></trkpt><trkpt lat="44.3381367826713" lon="9.9144596472076"><ele>172.75</ele><time>2026-04-26T17:10:51.88Z</time></trkpt><trkpt lat="44.338217339147235" lon="9.91431597212004"><ele>174.0</ele><time>2026-04-26T17:10:52.88Z</time></trkpt><trkpt lat="44.33830181494801" lon="9.914158868368666"><ele>174.33333333333334</ele><time>2026-04-26T17:10:53.88Z</time></trkpt><trkpt lat="44.33839639932325" lon="9.91400086822815"><ele>174.66666666666669</ele><time>2026-04-26T17:10:54.88Z</time></trkpt><trkpt lat="44.33848734695441" lon="9.913829180613131"><ele>175.0</ele><time>2026-04-26T17:10:55.88Z</time></trkpt><trkpt lat="44.3385796817489" lon="9.91366177853411"><ele>175.0</ele><time>2026-04-26T17:10:56.88Z</time></trkpt><trkpt lat="44.33867609115868" lon="9.913497999018066"><ele>175.0</ele><time>2026-04-26T17:10:57.88Z</time></trkpt><trkpt lat="44.33876841073719" lon="9.913327826288516"><ele>175.0</ele><time>2026-04-26T17:10:58.88Z</time></trkpt><trkpt lat="44.33886640186278" lon="9.913156923771421"><ele>177.0</ele><time>2026-04-26T17:10:59.88Z</time></trkpt><trkpt lat="44.33896876730603" lon="9.912979632603774"><ele>179.0</ele><time>2026-04-26T17:11:00.88Z</time></trkpt><trkpt lat="44.33907413856276" lon="9.91280393925958"><ele>181.0</ele><time>2026-04-26T17:11:01.88Z</time></trkpt><trkpt lat="44.33917786510852" lon="9.91263697627835"><ele>180.66666666666669</ele><time>2026-04-26T17:11:02.88Z</time></trkpt><trkpt lat="44.33929307219905" lon="9.912485396663632"><ele>180.33333333333334</ele><time>2026-04-26T17:11:03.88Z</time></trkpt><trkpt lat="44.33941648989828" lon="9.912349085989918"><ele>180.0</ele><time>2026-04-26T17:11:04.88Z</time></trkpt><trkpt lat="44.33954677139374" lon="9.912229714007402"><ele>180.0</ele><time>2026-04-26T17:11:05.88Z</time></trkpt><trkpt lat="44.339677879456524" lon="9.912121622456933"><ele>180.0</ele><time>2026-04-26T17:11:06.88Z</time></trkpt><trkpt lat="44.33981327299352" lon="9.91200890562747"><ele>180.0</ele><time>2026-04-26T17:11:07.88Z</time></trkpt><trkpt lat="44.33994663329981" lon="9.911900757491"><ele>180.66666666666666</ele><time>2026-04-26T17:11:08.88Z</time></trkpt><trkpt lat="44.34009456304756" lon="9.911796928904712"><ele>181.33333333333331</ele><time>2026-04-26T17:11:09.88Z</time></trkpt><trkpt lat="44.34024302172774" lon="9.911709127310399"><ele>182.0</ele><time>2026-04-26T17:11:10.88Z</time></trkpt><trkpt lat="44.34039744597173" lon="9.911622066749633"><ele>182.0</ele><time>2026-04-26T17:11:11.88Z</time></trkpt><trkpt lat="44.34055372350177" lon="9.911546392851054"><ele>182.0</ele><time>2026-04-26T17:11:12.88Z</time></trkpt><trkpt lat="44.34071072411997" lon="9.91147422965852"><ele>182.0</ele><time>2026-04-26T17:11:13.88Z</time></trkpt><trkpt lat="44.34087203165669" lon="9.911400509531864"><ele>182.0</ele><time>2026-04-26T17:11:14.88Z</time></trkpt><trkpt lat="44.3410401247336" lon="9.911328897864214"><ele>182.0</ele><time>2026-04-26T17:11:15.88Z</time></trkpt><trkpt lat="44.3412133610424" lon="9.911266460143084"><ele>182.0</ele><time>2026-04-26T17:11:16.88Z</time></trkpt><trkpt lat="44.34138543075465" lon="9.911218552147002"><ele>182.0</ele><time>2026-04-26T17:11:17.88Z</time></trkpt><trkpt lat="44.34155468024602" lon="9.911186059357474"><ele>182.0</ele><time>2026-04-26T17:11:18.88Z</time></trkpt><trkpt lat="44.34172405289219" lon="9.911164072350035"><ele>182.0</ele><time>2026-04-26T17:11:19.88Z</time></trkpt><trkpt lat="44.34189093922561" lon="9.911141953221287"><ele>182.0</ele><time>2026-04-26T17:11:20.88Z</time></trkpt><trkpt lat="44.34204828405991" lon="9.911120245744408"><ele>182.0</ele><time>2026-04-26T17:11:21.88Z</time></trkpt><trkpt lat="44.34220372192973" lon="9.911120693586867"><ele>182.0</ele><time>2026-04-26T17:11:22.88Z</time></trkpt><trkpt lat="44.34236196896442" lon="9.911125061181156"><ele>182.66666666666666</ele><time>2026-04-26T17:11:23.88Z</time></trkpt><trkpt lat="44.342517871800304" lon="9.911135979899793"><ele>183.33333333333334</ele><time>2026-04-26T17:11:24.88Z</time></trkpt><trkpt lat="44.34267824303077" lon="9.911163987058503"><ele>184.0</ele><time>2026-04-26T17:11:25.88Z</time></trkpt><trkpt lat="44.342839668465494" lon="9.911208591548474"><ele>184.0</ele><time>2026-04-26T17:11:26.88Z</time></trkpt><trkpt lat="44.3429963390683" lon="9.911257392378635"><ele>184.0</ele><time>2026-04-26T17:11:27.88Z</time></trkpt><trkpt lat="44.343151579820535" lon="9.911305588515239"><ele>184.0</ele><time>2026-04-26T17:11:28.88Z</time></trkpt><trkpt lat="44.343299860919345" lon="9.911354833639846"><ele>184.0</ele><time>2026-04-26T17:11:29.88Z</time></trkpt><trkpt lat="44.34344510259159" lon="9.911398484798415"><ele>184.0</ele><time>2026-04-26T17:11:30.88Z</time></trkpt><trkpt lat="44.34359042665117" lon="9.911445811849966"><ele>184.0</ele><time>2026-04-26T17:11:31.88Z</time></trkpt><trkpt lat="44.34374017812115" lon="9.91149302506234"><ele>185.0</ele><time>2026-04-26T17:11:32.88Z</time></trkpt><trkpt lat="44.34389150097941" lon="9.911537818124337"><ele>186.0</ele><time>2026-04-26T17:11:33.88Z</time></trkpt><trkpt lat="44.34404084077689" lon="9.911586195837465"><ele>187.0</ele><time>2026-04-26T17:11:34.88Z</time></trkpt><trkpt lat="44.34418727088006" lon="9.911627376201983"><ele>187.0</ele><time>2026-04-26T17:11:35.88Z</time></trkpt><trkpt lat="44.34432435374504" lon="9.911680430086049"><ele>187.0</ele><time>2026-04-26T17:11:36.88Z</time></trkpt><trkpt lat="44.34446208956089" lon="9.911718130037592"><ele>187.0</ele><time>2026-04-26T17:11:37.88Z</time></trkpt><trkpt lat="44.344591116875485" lon="9.911748587141954"><ele>187.0</ele><time>2026-04-26T17:11:38.88Z</time></trkpt><trkpt lat="44.344708091433354" lon="9.911770656341597"><ele>187.75</ele><time>2026-04-26T17:11:39.88Z</time></trkpt><trkpt lat="44.34482016787072" lon="9.911784444284152"><ele>188.5</ele><time>2026-04-26T17:11:40.88Z</time></trkpt><trkpt lat="44.34493610519669" lon="9.911791509605093"><ele>189.25</ele><time>2026-04-26T17:11:41.881Z</time></trkpt><trkpt lat="44.34505489076827" lon="9.911790267261152"><ele>190.0</ele><time>2026-04-26T17:11:42.881Z</time></trkpt><trkpt lat="44.3451678728322" lon="9.911783328078384"><ele>190.0</ele><time>2026-04-26T17:11:43.881Z</time></trkpt><trkpt lat="44.34526990032259" lon="9.91177537242398"><ele>190.0</ele><time>2026-04-26T17:11:44.881Z</time></trkpt><trkpt lat="44.3453550014866" lon="9.91176959400974"><ele>190.0</ele><time>2026-04-26T17:11:45.881Z</time></trkpt><trkpt lat="44.34544863690235" lon="9.91184981682963"><ele>190.0</ele><time>2026-04-26T17:11:47.881Z</time></trkpt><trkpt lat="44.34545007793518" lon="9.912027858377288"><ele>190.0</ele><time>2026-04-26T17:11:49.881Z</time></trkpt><trkpt lat="44.34540981703219" lon="9.912106978057661"><ele>190.0</ele><time>2026-04-26T17:11:50.881Z</time></trkpt><trkpt lat="44.345357906298" lon="9.912170871141349"><ele>190.0</ele><time>2026-04-26T17:11:51.881Z</time></trkpt><trkpt lat="44.345305200529396" lon="9.912235142688402"><ele>190.0</ele><time>2026-04-26T17:11:52.881Z</time></trkpt><trkpt lat="44.34525235611383" lon="9.912297425795431"><ele>190.0</ele><time>2026-04-26T17:11:53.881Z</time></trkpt><trkpt lat="44.345115351072664" lon="9.91239081845366"><ele>190.0</ele><time>2026-04-26T17:11:56.881Z</time></trkpt><trkpt lat="44.34505586723794" lon="9.912437854852678"><ele>190.0</ele><time>2026-04-26T17:11:58.881Z</time></trkpt></trkseg></trk></gpx>